[Date Prev][Date Next] [Thread Prev][Thread Next] [Date Index] [Thread Index]

Re: [Debconf-discuss] day trip tracks



On Thu, Aug 15, 2013 at 12:15:33PM +0200, Mònica Ramírez Arceda wrote:
> I forgot to bring my GPS recorder during the Debian trip and I'd love to
> have the following tracks:
> 
> * the long trail track of the last group (those who got lost for a
> while ;-) )

this I can help with - attached!
(sorry for not sending it earlier, and to debconf-discuss in case
anybody else is interested...)

Florian
<?xml version="1.0" encoding="UTF-8" ?>
<gpx xmlns="http://www.topografix.com/GPX/1/1"; version="1.1" creator="OSMTracker for Androidâ?¢ - http://osmtracker-android.googlecode.com/"; xmlns:xsi="http://www.w3.org/2001/XMLSchema-instance"; xsi:schemaLocation="http://www.topografix.com/GPX/1/1 http://www.topografix.com/GPX/1/1/gpx.xsd ">
	<wpt lat="46.87624784" lon="6.7369463">
		<ele>699.0</ele>
		<time>2013-08-14T06:21:25Z</time>
		<name><![CDATA[Grade 4 (4.0m)]]></name>
		<sat>7</sat>
		<hdop>1.0</hdop>
	</wpt>
	<wpt lat="46.87774236" lon="6.73349323">
		<ele>740.6</ele>
		<time>2013-08-14T06:25:54Z</time>
		<name><![CDATA[Grade 3 (6.0m)]]></name>
		<sat>6</sat>
		<hdop>1.5</hdop>
	</wpt>
	<wpt lat="46.87849144" lon="6.73292741">
		<ele>739.8</ele>
		<time>2013-08-14T06:27:07Z</time>
		<name><![CDATA[Tertiary (4.0m)]]></name>
		<sat>6</sat>
		<hdop>1.0</hdop>
	</wpt>
	<wpt lat="46.88231119" lon="6.73051795">
		<ele>775.9</ele>
		<time>2013-08-14T06:32:51Z</time>
		<name><![CDATA[friedhod (4.0m)]]></name>
		<sat>5</sat>
		<hdop>1.0</hdop>
	</wpt>
	<trk>
		<name><![CDATA[Tracked with OSMTracker for Androidâ?¢]]></name>
		<cmt><![CDATA[Warning: HDOP values aren't the HDOP as returned by the GPS device. They're approximated from the location accuracy in meters.]]></cmt>
		<trkseg>
			<trkpt lat="46.87398266" lon="6.74637084">
				<ele>639.0</ele>
				<time>2013-08-14T06:08:52Z</time>
				<hdop>6.0</hdop>
			</trkpt>
			<trkpt lat="46.87399393" lon="6.74644675">
				<ele>640.2</ele>
				<time>2013-08-14T06:08:53Z</time>
				<hdop>8.0</hdop>
			</trkpt>
			<trkpt lat="46.87399401" lon="6.74641265">
				<ele>642.4</ele>
				<time>2013-08-14T06:08:54Z</time>
				<hdop>8.0</hdop>
			</trkpt>
			<trkpt lat="46.87400898" lon="6.74642563">
				<ele>642.3</ele>
				<time>2013-08-14T06:08:55Z</time>
				<hdop>8.0</hdop>
			</trkpt>
			<trkpt lat="46.87401579" lon="6.74640145">
				<ele>644.0</ele>
				<time>2013-08-14T06:08:56Z</time>
				<hdop>8.0</hdop>
			</trkpt>
			<trkpt lat="46.8740175" lon="6.74639635">
				<ele>644.6</ele>
				<time>2013-08-14T06:08:57Z</time>
				<hdop>6.0</hdop>
			</trkpt>
			<trkpt lat="46.87402465" lon="6.74637568">
				<ele>643.1</ele>
				<time>2013-08-14T06:08:58Z</time>
				<hdop>6.0</hdop>
			</trkpt>
			<trkpt lat="46.87402098" lon="6.74635815">
				<ele>642.0</ele>
				<time>2013-08-14T06:08:59Z</time>
				<hdop>4.0</hdop>
			</trkpt>
			<trkpt lat="46.87403581" lon="6.74634393">
				<ele>641.8</ele>
				<time>2013-08-14T06:09:00Z</time>
				<hdop>4.0</hdop>
			</trkpt>
			<trkpt lat="46.8740359" lon="6.7463369">
				<ele>641.8</ele>
				<time>2013-08-14T06:09:01Z</time>
				<hdop>6.0</hdop>
			</trkpt>
			<trkpt lat="46.87404477" lon="6.74631929">
				<ele>640.5</ele>
				<time>2013-08-14T06:09:02Z</time>
				<hdop>6.0</hdop>
			</trkpt>
			<trkpt lat="46.87404543" lon="6.74630012">
				<ele>640.0</ele>
				<time>2013-08-14T06:09:03Z</time>
				<hdop>6.0</hdop>
			</trkpt>
			<trkpt lat="46.87405613" lon="6.74629889">
				<ele>640.3</ele>
				<time>2013-08-14T06:09:04Z</time>
				<hdop>6.0</hdop>
			</trkpt>
			<trkpt lat="46.87408824" lon="6.74629269">
				<ele>640.3</ele>
				<time>2013-08-14T06:09:05Z</time>
				<hdop>6.0</hdop>
			</trkpt>
			<trkpt lat="46.87409465" lon="6.74627235">
				<ele>639.8</ele>
				<time>2013-08-14T06:09:06Z</time>
				<hdop>6.0</hdop>
			</trkpt>
			<trkpt lat="46.87409974" lon="6.74626163">
				<ele>639.1</ele>
				<time>2013-08-14T06:09:07Z</time>
				<hdop>8.0</hdop>
			</trkpt>
			<trkpt lat="46.87411393" lon="6.74624287">
				<ele>639.1</ele>
				<time>2013-08-14T06:09:08Z</time>
				<hdop>8.0</hdop>
			</trkpt>
			<trkpt lat="46.87411168" lon="6.74621248">
				<ele>639.2</ele>
				<time>2013-08-14T06:09:09Z</time>
				<hdop>8.0</hdop>
			</trkpt>
			<trkpt lat="46.87411719" lon="6.74620083">
				<ele>639.7</ele>
				<time>2013-08-14T06:09:10Z</time>
				<hdop>8.0</hdop>
			</trkpt>
			<trkpt lat="46.87411919" lon="6.74616037">
				<ele>640.0</ele>
				<time>2013-08-14T06:09:11Z</time>
				<hdop>8.0</hdop>
			</trkpt>
			<trkpt lat="46.87412453" lon="6.74616447">
				<ele>640.5</ele>
				<time>2013-08-14T06:09:12Z</time>
				<hdop>8.0</hdop>
			</trkpt>
			<trkpt lat="46.8741339" lon="6.74615464">
				<ele>640.8</ele>
				<time>2013-08-14T06:09:13Z</time>
				<hdop>8.0</hdop>
			</trkpt>
			<trkpt lat="46.87414437" lon="6.74612977">
				<ele>640.9</ele>
				<time>2013-08-14T06:09:14Z</time>
				<hdop>6.0</hdop>
			</trkpt>
			<trkpt lat="46.87413637" lon="6.74609213">
				<ele>640.6</ele>
				<time>2013-08-14T06:09:15Z</time>
				<hdop>6.0</hdop>
			</trkpt>
			<trkpt lat="46.87413628" lon="6.74607932">
				<ele>640.2</ele>
				<time>2013-08-14T06:09:16Z</time>
				<hdop>6.0</hdop>
			</trkpt>
			<trkpt lat="46.87414562" lon="6.74606766">
				<ele>640.5</ele>
				<time>2013-08-14T06:09:17Z</time>
				<hdop>6.0</hdop>
			</trkpt>
			<trkpt lat="46.87414927" lon="6.74605077">
				<ele>640.6</ele>
				<time>2013-08-14T06:09:18Z</time>
				<hdop>6.0</hdop>
			</trkpt>
			<trkpt lat="46.87415465" lon="6.74603084">
				<ele>640.4</ele>
				<time>2013-08-14T06:09:19Z</time>
				<hdop>6.0</hdop>
			</trkpt>
			<trkpt lat="46.87416164" lon="6.74601348">
				<ele>640.6</ele>
				<time>2013-08-14T06:09:20Z</time>
				<hdop>6.0</hdop>
			</trkpt>
			<trkpt lat="46.87415862" lon="6.74600655">
				<ele>641.0</ele>
				<time>2013-08-14T06:09:21Z</time>
				<hdop>6.0</hdop>
			</trkpt>
			<trkpt lat="46.87416158" lon="6.74599342">
				<ele>641.3</ele>
				<time>2013-08-14T06:09:22Z</time>
				<hdop>6.0</hdop>
			</trkpt>
			<trkpt lat="46.87418055" lon="6.7459942">
				<ele>641.5</ele>
				<time>2013-08-14T06:09:23Z</time>
				<hdop>6.0</hdop>
			</trkpt>
			<trkpt lat="46.87418263" lon="6.7459928">
				<ele>641.4</ele>
				<time>2013-08-14T06:09:24Z</time>
				<hdop>6.0</hdop>
			</trkpt>
			<trkpt lat="46.87419245" lon="6.74597607">
				<ele>641.5</ele>
				<time>2013-08-14T06:09:25Z</time>
				<hdop>6.0</hdop>
			</trkpt>
			<trkpt lat="46.87420232" lon="6.74595507">
				<ele>641.6</ele>
				<time>2013-08-14T06:09:26Z</time>
				<hdop>6.0</hdop>
			</trkpt>
			<trkpt lat="46.87421277" lon="6.74593359">
				<ele>641.0</ele>
				<time>2013-08-14T06:09:27Z</time>
				<hdop>4.0</hdop>
			</trkpt>
			<trkpt lat="46.87421214" lon="6.74591413">
				<ele>640.8</ele>
				<time>2013-08-14T06:09:28Z</time>
				<hdop>4.0</hdop>
			</trkpt>
			<trkpt lat="46.87420794" lon="6.74589972">
				<ele>640.9</ele>
				<time>2013-08-14T06:09:29Z</time>
				<hdop>6.0</hdop>
			</trkpt>
			<trkpt lat="46.87420997" lon="6.7458959">
				<ele>640.9</ele>
				<time>2013-08-14T06:09:30Z</time>
				<hdop>6.0</hdop>
			</trkpt>
			<trkpt lat="46.87420886" lon="6.7458699">
				<ele>640.7</ele>
				<time>2013-08-14T06:09:31Z</time>
				<hdop>6.0</hdop>
			</trkpt>
			<trkpt lat="46.87421079" lon="6.7458679">
				<ele>639.7</ele>
				<time>2013-08-14T06:09:32Z</time>
				<hdop>6.0</hdop>
			</trkpt>
			<trkpt lat="46.87421705" lon="6.74585928">
				<ele>639.9</ele>
				<time>2013-08-14T06:09:33Z</time>
				<hdop>6.0</hdop>
			</trkpt>
			<trkpt lat="46.87421853" lon="6.74585748">
				<ele>639.9</ele>
				<time>2013-08-14T06:09:34Z</time>
				<hdop>6.0</hdop>
			</trkpt>
			<trkpt lat="46.87421566" lon="6.74584416">
				<ele>640.0</ele>
				<time>2013-08-14T06:09:35Z</time>
				<hdop>6.0</hdop>
			</trkpt>
			<trkpt lat="46.87420681" lon="6.74582373">
				<ele>640.7</ele>
				<time>2013-08-14T06:09:36Z</time>
				<hdop>6.0</hdop>
			</trkpt>
			<trkpt lat="46.87420363" lon="6.74580046">
				<ele>641.3</ele>
				<time>2013-08-14T06:09:37Z</time>
				<hdop>6.0</hdop>
			</trkpt>
			<trkpt lat="46.8742118" lon="6.74578142">
				<ele>641.0</ele>
				<time>2013-08-14T06:09:38Z</time>
				<hdop>6.0</hdop>
			</trkpt>
			<trkpt lat="46.87421351" lon="6.7457733">
				<ele>641.4</ele>
				<time>2013-08-14T06:09:39Z</time>
				<hdop>6.0</hdop>
			</trkpt>
			<trkpt lat="46.87421805" lon="6.74575659">
				<ele>641.4</ele>
				<time>2013-08-14T06:09:40Z</time>
				<hdop>6.0</hdop>
			</trkpt>
			<trkpt lat="46.87423267" lon="6.74574881">
				<ele>640.9</ele>
				<time>2013-08-14T06:09:41Z</time>
				<hdop>6.0</hdop>
			</trkpt>
			<trkpt lat="46.87423426" lon="6.7457349">
				<ele>641.2</ele>
				<time>2013-08-14T06:09:42Z</time>
				<hdop>6.0</hdop>
			</trkpt>
			<trkpt lat="46.87423026" lon="6.74570165">
				<ele>641.0</ele>
				<time>2013-08-14T06:09:43Z</time>
				<hdop>3.0</hdop>
			</trkpt>
			<trkpt lat="46.8742213" lon="6.74567877">
				<ele>640.4</ele>
				<time>2013-08-14T06:09:44Z</time>
				<hdop>4.0</hdop>
			</trkpt>
			<trkpt lat="46.87421035" lon="6.74565886">
				<ele>640.4</ele>
				<time>2013-08-14T06:09:45Z</time>
				<hdop>4.0</hdop>
			</trkpt>
			<trkpt lat="46.87421414" lon="6.74563543">
				<ele>640.7</ele>
				<time>2013-08-14T06:09:46Z</time>
				<hdop>4.0</hdop>
			</trkpt>
			<trkpt lat="46.8742141" lon="6.74561636">
				<ele>640.5</ele>
				<time>2013-08-14T06:09:47Z</time>
				<hdop>3.0</hdop>
			</trkpt>
			<trkpt lat="46.87421666" lon="6.74559767">
				<ele>640.4</ele>
				<time>2013-08-14T06:09:48Z</time>
				<hdop>3.0</hdop>
			</trkpt>
			<trkpt lat="46.87420745" lon="6.74557531">
				<ele>640.2</ele>
				<time>2013-08-14T06:09:49Z</time>
				<hdop>4.0</hdop>
			</trkpt>
			<trkpt lat="46.87420973" lon="6.74556844">
				<ele>640.3</ele>
				<time>2013-08-14T06:09:50Z</time>
				<hdop>4.0</hdop>
			</trkpt>
			<trkpt lat="46.87422224" lon="6.74556502">
				<ele>640.2</ele>
				<time>2013-08-14T06:09:51Z</time>
				<hdop>4.0</hdop>
			</trkpt>
			<trkpt lat="46.87422257" lon="6.74555414">
				<ele>640.2</ele>
				<time>2013-08-14T06:09:52Z</time>
				<hdop>4.0</hdop>
			</trkpt>
			<trkpt lat="46.87421876" lon="6.74552837">
				<ele>640.1</ele>
				<time>2013-08-14T06:09:53Z</time>
				<hdop>4.0</hdop>
			</trkpt>
			<trkpt lat="46.87422507" lon="6.74551249">
				<ele>640.6</ele>
				<time>2013-08-14T06:09:54Z</time>
				<hdop>4.0</hdop>
			</trkpt>
			<trkpt lat="46.87423577" lon="6.74548257">
				<ele>641.3</ele>
				<time>2013-08-14T06:09:55Z</time>
				<hdop>4.0</hdop>
			</trkpt>
			<trkpt lat="46.87424183" lon="6.74545993">
				<ele>641.6</ele>
				<time>2013-08-14T06:09:56Z</time>
				<hdop>4.0</hdop>
			</trkpt>
			<trkpt lat="46.87424822" lon="6.74545154">
				<ele>642.2</ele>
				<time>2013-08-14T06:09:57Z</time>
				<hdop>4.0</hdop>
			</trkpt>
			<trkpt lat="46.87426202" lon="6.74542749">
				<ele>643.1</ele>
				<time>2013-08-14T06:09:58Z</time>
				<hdop>4.0</hdop>
			</trkpt>
			<trkpt lat="46.87427216" lon="6.74540903">
				<ele>643.7</ele>
				<time>2013-08-14T06:09:59Z</time>
				<hdop>4.0</hdop>
			</trkpt>
			<trkpt lat="46.87426669" lon="6.74538938">
				<ele>643.6</ele>
				<time>2013-08-14T06:10:00Z</time>
				<hdop>4.0</hdop>
			</trkpt>
			<trkpt lat="46.8742809" lon="6.74537161">
				<ele>643.7</ele>
				<time>2013-08-14T06:10:01Z</time>
				<hdop>4.0</hdop>
			</trkpt>
			<trkpt lat="46.87428311" lon="6.74535758">
				<ele>644.1</ele>
				<time>2013-08-14T06:10:02Z</time>
				<hdop>4.0</hdop>
			</trkpt>
			<trkpt lat="46.87428848" lon="6.74535169">
				<ele>643.8</ele>
				<time>2013-08-14T06:10:03Z</time>
				<hdop>4.0</hdop>
			</trkpt>
			<trkpt lat="46.87427125" lon="6.74533147">
				<ele>644.1</ele>
				<time>2013-08-14T06:10:04Z</time>
				<hdop>4.0</hdop>
			</trkpt>
			<trkpt lat="46.87425058" lon="6.74531286">
				<ele>644.6</ele>
				<time>2013-08-14T06:10:05Z</time>
				<hdop>4.0</hdop>
			</trkpt>
			<trkpt lat="46.87425368" lon="6.74529393">
				<ele>645.0</ele>
				<time>2013-08-14T06:10:06Z</time>
				<hdop>4.0</hdop>
			</trkpt>
			<trkpt lat="46.87425127" lon="6.74528134">
				<ele>644.4</ele>
				<time>2013-08-14T06:10:07Z</time>
				<hdop>4.0</hdop>
			</trkpt>
			<trkpt lat="46.87425653" lon="6.74525338">
				<ele>644.1</ele>
				<time>2013-08-14T06:10:08Z</time>
				<hdop>4.0</hdop>
			</trkpt>
			<trkpt lat="46.87425332" lon="6.74522217">
				<ele>645.1</ele>
				<time>2013-08-14T06:10:09Z</time>
				<hdop>4.0</hdop>
			</trkpt>
			<trkpt lat="46.87425034" lon="6.74520323">
				<ele>645.6</ele>
				<time>2013-08-14T06:10:10Z</time>
				<hdop>4.0</hdop>
			</trkpt>
			<trkpt lat="46.87424752" lon="6.74517841">
				<ele>645.8</ele>
				<time>2013-08-14T06:10:11Z</time>
				<hdop>4.0</hdop>
			</trkpt>
			<trkpt lat="46.87425196" lon="6.74514705">
				<ele>645.6</ele>
				<time>2013-08-14T06:10:12Z</time>
				<hdop>4.0</hdop>
			</trkpt>
			<trkpt lat="46.87424655" lon="6.74513079">
				<ele>645.5</ele>
				<time>2013-08-14T06:10:13Z</time>
				<hdop>4.0</hdop>
			</trkpt>
			<trkpt lat="46.87424382" lon="6.74511853">
				<ele>646.2</ele>
				<time>2013-08-14T06:10:14Z</time>
				<hdop>4.0</hdop>
			</trkpt>
			<trkpt lat="46.87425064" lon="6.74510842">
				<ele>646.7</ele>
				<time>2013-08-14T06:10:15Z</time>
				<hdop>4.0</hdop>
			</trkpt>
			<trkpt lat="46.87424301" lon="6.74507462">
				<ele>647.0</ele>
				<time>2013-08-14T06:10:16Z</time>
				<hdop>4.0</hdop>
			</trkpt>
			<trkpt lat="46.87425294" lon="6.74506642">
				<ele>646.6</ele>
				<time>2013-08-14T06:10:17Z</time>
				<hdop>4.0</hdop>
			</trkpt>
			<trkpt lat="46.87425329" lon="6.7450567">
				<ele>646.8</ele>
				<time>2013-08-14T06:10:18Z</time>
				<hdop>4.0</hdop>
			</trkpt>
			<trkpt lat="46.87426127" lon="6.74504142">
				<ele>647.4</ele>
				<time>2013-08-14T06:10:19Z</time>
				<hdop>4.0</hdop>
			</trkpt>
			<trkpt lat="46.87426757" lon="6.74502411">
				<ele>647.7</ele>
				<time>2013-08-14T06:10:20Z</time>
				<hdop>4.0</hdop>
			</trkpt>
			<trkpt lat="46.87426627" lon="6.74500518">
				<ele>648.0</ele>
				<time>2013-08-14T06:10:21Z</time>
				<hdop>4.0</hdop>
			</trkpt>
			<trkpt lat="46.87426315" lon="6.74497931">
				<ele>647.9</ele>
				<time>2013-08-14T06:10:22Z</time>
				<hdop>4.0</hdop>
			</trkpt>
			<trkpt lat="46.87425606" lon="6.74494532">
				<ele>648.6</ele>
				<time>2013-08-14T06:10:23Z</time>
				<hdop>4.0</hdop>
			</trkpt>
			<trkpt lat="46.87424559" lon="6.74492686">
				<ele>649.0</ele>
				<time>2013-08-14T06:10:24Z</time>
				<hdop>4.0</hdop>
			</trkpt>
			<trkpt lat="46.87426189" lon="6.74491689">
				<ele>648.4</ele>
				<time>2013-08-14T06:10:25Z</time>
				<hdop>4.0</hdop>
			</trkpt>
			<trkpt lat="46.87428191" lon="6.74490423">
				<ele>648.7</ele>
				<time>2013-08-14T06:10:26Z</time>
				<hdop>4.0</hdop>
			</trkpt>
			<trkpt lat="46.87427646" lon="6.74487776">
				<ele>649.3</ele>
				<time>2013-08-14T06:10:27Z</time>
				<hdop>4.0</hdop>
			</trkpt>
			<trkpt lat="46.87427332" lon="6.74486143">
				<ele>649.0</ele>
				<time>2013-08-14T06:10:28Z</time>
				<hdop>4.0</hdop>
			</trkpt>
			<trkpt lat="46.8742674" lon="6.74483249">
				<ele>648.9</ele>
				<time>2013-08-14T06:10:29Z</time>
				<hdop>3.0</hdop>
			</trkpt>
			<trkpt lat="46.87427415" lon="6.74482195">
				<ele>650.0</ele>
				<time>2013-08-14T06:10:30Z</time>
				<hdop>4.0</hdop>
			</trkpt>
			<trkpt lat="46.8742712" lon="6.74480665">
				<ele>650.3</ele>
				<time>2013-08-14T06:10:31Z</time>
				<hdop>3.0</hdop>
			</trkpt>
			<trkpt lat="46.87426711" lon="6.7447853">
				<ele>650.4</ele>
				<time>2013-08-14T06:10:32Z</time>
				<hdop>4.0</hdop>
			</trkpt>
			<trkpt lat="46.87427893" lon="6.74476597">
				<ele>649.8</ele>
				<time>2013-08-14T06:10:33Z</time>
				<hdop>4.0</hdop>
			</trkpt>
			<trkpt lat="46.87425577" lon="6.74473632">
				<ele>650.1</ele>
				<time>2013-08-14T06:10:34Z</time>
				<hdop>4.0</hdop>
			</trkpt>
			<trkpt lat="46.87424987" lon="6.74471638">
				<ele>650.2</ele>
				<time>2013-08-14T06:10:35Z</time>
				<hdop>4.0</hdop>
			</trkpt>
			<trkpt lat="46.87425676" lon="6.74470268">
				<ele>650.4</ele>
				<time>2013-08-14T06:10:36Z</time>
				<hdop>4.0</hdop>
			</trkpt>
			<trkpt lat="46.87424965" lon="6.74468711">
				<ele>650.4</ele>
				<time>2013-08-14T06:10:37Z</time>
				<hdop>4.0</hdop>
			</trkpt>
			<trkpt lat="46.87425646" lon="6.74465229">
				<ele>649.5</ele>
				<time>2013-08-14T06:10:38Z</time>
				<hdop>3.0</hdop>
			</trkpt>
			<trkpt lat="46.87426245" lon="6.74463983">
				<ele>648.9</ele>
				<time>2013-08-14T06:10:39Z</time>
				<hdop>3.0</hdop>
			</trkpt>
			<trkpt lat="46.87426139" lon="6.74462472">
				<ele>648.0</ele>
				<time>2013-08-14T06:10:40Z</time>
				<hdop>3.0</hdop>
			</trkpt>
			<trkpt lat="46.87426709" lon="6.74459995">
				<ele>647.2</ele>
				<time>2013-08-14T06:10:41Z</time>
				<hdop>3.0</hdop>
			</trkpt>
			<trkpt lat="46.87427484" lon="6.74458702">
				<ele>646.4</ele>
				<time>2013-08-14T06:10:42Z</time>
				<hdop>3.0</hdop>
			</trkpt>
			<trkpt lat="46.87427859" lon="6.74456348">
				<ele>645.3</ele>
				<time>2013-08-14T06:10:43Z</time>
				<hdop>2.0</hdop>
			</trkpt>
			<trkpt lat="46.87427743" lon="6.7445408">
				<ele>644.3</ele>
				<time>2013-08-14T06:10:44Z</time>
				<hdop>2.0</hdop>
			</trkpt>
			<trkpt lat="46.87427758" lon="6.74452878">
				<ele>644.3</ele>
				<time>2013-08-14T06:10:45Z</time>
				<hdop>2.0</hdop>
			</trkpt>
			<trkpt lat="46.87428634" lon="6.74451709">
				<ele>644.2</ele>
				<time>2013-08-14T06:10:46Z</time>
				<hdop>2.0</hdop>
			</trkpt>
			<trkpt lat="46.87430019" lon="6.74449798">
				<ele>644.4</ele>
				<time>2013-08-14T06:10:47Z</time>
				<hdop>2.0</hdop>
			</trkpt>
			<trkpt lat="46.87428935" lon="6.74446506">
				<ele>644.1</ele>
				<time>2013-08-14T06:10:48Z</time>
				<hdop>2.0</hdop>
			</trkpt>
			<trkpt lat="46.87428905" lon="6.74444229">
				<ele>643.2</ele>
				<time>2013-08-14T06:10:49Z</time>
				<hdop>2.0</hdop>
			</trkpt>
			<trkpt lat="46.87429448" lon="6.74442331">
				<ele>642.0</ele>
				<time>2013-08-14T06:10:50Z</time>
				<hdop>1.5</hdop>
			</trkpt>
			<trkpt lat="46.87429267" lon="6.74440259">
				<ele>642.1</ele>
				<time>2013-08-14T06:10:51Z</time>
				<hdop>1.5</hdop>
			</trkpt>
			<trkpt lat="46.87429425" lon="6.744385">
				<ele>642.1</ele>
				<time>2013-08-14T06:10:52Z</time>
				<hdop>1.5</hdop>
			</trkpt>
			<trkpt lat="46.87429874" lon="6.74437179">
				<ele>641.3</ele>
				<time>2013-08-14T06:10:53Z</time>
				<hdop>1.5</hdop>
			</trkpt>
			<trkpt lat="46.87430755" lon="6.74434765">
				<ele>642.1</ele>
				<time>2013-08-14T06:10:54Z</time>
				<hdop>1.5</hdop>
			</trkpt>
			<trkpt lat="46.87430846" lon="6.74432741">
				<ele>641.7</ele>
				<time>2013-08-14T06:10:55Z</time>
				<hdop>1.5</hdop>
			</trkpt>
			<trkpt lat="46.87430308" lon="6.74431962">
				<ele>641.5</ele>
				<time>2013-08-14T06:10:56Z</time>
				<hdop>1.5</hdop>
			</trkpt>
			<trkpt lat="46.87430277" lon="6.74429921">
				<ele>641.6</ele>
				<time>2013-08-14T06:10:57Z</time>
				<hdop>1.5</hdop>
			</trkpt>
			<trkpt lat="46.87432518" lon="6.74428853">
				<ele>641.4</ele>
				<time>2013-08-14T06:10:58Z</time>
				<hdop>1.5</hdop>
			</trkpt>
			<trkpt lat="46.87433856" lon="6.74428159">
				<ele>640.9</ele>
				<time>2013-08-14T06:10:59Z</time>
				<hdop>1.5</hdop>
			</trkpt>
			<trkpt lat="46.87434289" lon="6.74426146">
				<ele>640.3</ele>
				<time>2013-08-14T06:11:00Z</time>
				<hdop>1.5</hdop>
			</trkpt>
			<trkpt lat="46.87434948" lon="6.74424934">
				<ele>640.3</ele>
				<time>2013-08-14T06:11:01Z</time>
				<hdop>1.5</hdop>
			</trkpt>
			<trkpt lat="46.87435029" lon="6.74423045">
				<ele>642.8</ele>
				<time>2013-08-14T06:11:02Z</time>
				<hdop>1.0</hdop>
			</trkpt>
			<trkpt lat="46.87433486" lon="6.74420221">
				<ele>642.6</ele>
				<time>2013-08-14T06:11:03Z</time>
				<hdop>1.0</hdop>
			</trkpt>
			<trkpt lat="46.87433401" lon="6.74418212">
				<ele>641.4</ele>
				<time>2013-08-14T06:11:04Z</time>
				<hdop>1.0</hdop>
			</trkpt>
			<trkpt lat="46.87432889" lon="6.74415696">
				<ele>641.8</ele>
				<time>2013-08-14T06:11:05Z</time>
				<hdop>1.0</hdop>
			</trkpt>
			<trkpt lat="46.87432392" lon="6.74413287">
				<ele>641.6</ele>
				<time>2013-08-14T06:11:06Z</time>
				<hdop>1.0</hdop>
			</trkpt>
			<trkpt lat="46.87432704" lon="6.74411166">
				<ele>641.8</ele>
				<time>2013-08-14T06:11:07Z</time>
				<hdop>1.5</hdop>
			</trkpt>
			<trkpt lat="46.8743269" lon="6.74409403">
				<ele>642.4</ele>
				<time>2013-08-14T06:11:08Z</time>
				<hdop>1.0</hdop>
			</trkpt>
			<trkpt lat="46.87433215" lon="6.74407838">
				<ele>642.2</ele>
				<time>2013-08-14T06:11:09Z</time>
				<hdop>1.0</hdop>
			</trkpt>
			<trkpt lat="46.87433538" lon="6.74405958">
				<ele>642.4</ele>
				<time>2013-08-14T06:11:10Z</time>
				<hdop>1.0</hdop>
			</trkpt>
			<trkpt lat="46.87433003" lon="6.74403723">
				<ele>642.5</ele>
				<time>2013-08-14T06:11:11Z</time>
				<hdop>1.0</hdop>
			</trkpt>
			<trkpt lat="46.87431749" lon="6.74401173">
				<ele>640.9</ele>
				<time>2013-08-14T06:11:12Z</time>
				<hdop>1.0</hdop>
			</trkpt>
			<trkpt lat="46.87431463" lon="6.74399073">
				<ele>641.1</ele>
				<time>2013-08-14T06:11:13Z</time>
				<hdop>1.0</hdop>
			</trkpt>
			<trkpt lat="46.87431236" lon="6.7439643">
				<ele>641.6</ele>
				<time>2013-08-14T06:11:14Z</time>
				<hdop>1.0</hdop>
			</trkpt>
			<trkpt lat="46.87431222" lon="6.74394032">
				<ele>642.0</ele>
				<time>2013-08-14T06:11:15Z</time>
				<hdop>1.0</hdop>
			</trkpt>
			<trkpt lat="46.87431361" lon="6.74392263">
				<ele>642.3</ele>
				<time>2013-08-14T06:11:16Z</time>
				<hdop>1.0</hdop>
			</trkpt>
			<trkpt lat="46.87431246" lon="6.74390123">
				<ele>642.6</ele>
				<time>2013-08-14T06:11:17Z</time>
				<hdop>1.0</hdop>
			</trkpt>
			<trkpt lat="46.87431084" lon="6.74388009">
				<ele>642.8</ele>
				<time>2013-08-14T06:11:18Z</time>
				<hdop>1.0</hdop>
			</trkpt>
			<trkpt lat="46.87430847" lon="6.743859">
				<ele>643.2</ele>
				<time>2013-08-14T06:11:19Z</time>
				<hdop>1.0</hdop>
			</trkpt>
			<trkpt lat="46.87431107" lon="6.7438399">
				<ele>642.7</ele>
				<time>2013-08-14T06:11:20Z</time>
				<hdop>1.0</hdop>
			</trkpt>
			<trkpt lat="46.87431384" lon="6.7438212">
				<ele>642.2</ele>
				<time>2013-08-14T06:11:21Z</time>
				<hdop>1.0</hdop>
			</trkpt>
			<trkpt lat="46.87431699" lon="6.74380165">
				<ele>642.3</ele>
				<time>2013-08-14T06:11:22Z</time>
				<hdop>1.0</hdop>
			</trkpt>
			<trkpt lat="46.87431779" lon="6.74378245">
				<ele>642.0</ele>
				<time>2013-08-14T06:11:23Z</time>
				<hdop>1.0</hdop>
			</trkpt>
			<trkpt lat="46.87430581" lon="6.74375612">
				<ele>643.6</ele>
				<time>2013-08-14T06:11:24Z</time>
				<hdop>1.0</hdop>
			</trkpt>
			<trkpt lat="46.87431175" lon="6.74373132">
				<ele>642.9</ele>
				<time>2013-08-14T06:11:25Z</time>
				<hdop>1.0</hdop>
			</trkpt>
			<trkpt lat="46.87431524" lon="6.74371302">
				<ele>642.1</ele>
				<time>2013-08-14T06:11:26Z</time>
				<hdop>1.0</hdop>
			</trkpt>
			<trkpt lat="46.87431774" lon="6.74369902">
				<ele>641.9</ele>
				<time>2013-08-14T06:11:27Z</time>
				<hdop>1.0</hdop>
			</trkpt>
			<trkpt lat="46.87432018" lon="6.74368049">
				<ele>641.6</ele>
				<time>2013-08-14T06:11:28Z</time>
				<hdop>1.5</hdop>
			</trkpt>
			<trkpt lat="46.87431673" lon="6.74366437">
				<ele>641.3</ele>
				<time>2013-08-14T06:11:29Z</time>
				<hdop>1.5</hdop>
			</trkpt>
			<trkpt lat="46.87431679" lon="6.74363133">
				<ele>641.2</ele>
				<time>2013-08-14T06:11:30Z</time>
				<hdop>1.5</hdop>
			</trkpt>
			<trkpt lat="46.87431374" lon="6.74361522">
				<ele>641.9</ele>
				<time>2013-08-14T06:11:31Z</time>
				<hdop>1.5</hdop>
			</trkpt>
			<trkpt lat="46.87431376" lon="6.74358824">
				<ele>641.7</ele>
				<time>2013-08-14T06:11:32Z</time>
				<hdop>1.5</hdop>
			</trkpt>
			<trkpt lat="46.87431217" lon="6.74355942">
				<ele>641.7</ele>
				<time>2013-08-14T06:11:33Z</time>
				<hdop>1.5</hdop>
			</trkpt>
			<trkpt lat="46.87431715" lon="6.74353704">
				<ele>642.0</ele>
				<time>2013-08-14T06:11:34Z</time>
				<hdop>1.5</hdop>
			</trkpt>
			<trkpt lat="46.87432027" lon="6.74353164">
				<ele>641.6</ele>
				<time>2013-08-14T06:11:35Z</time>
				<hdop>1.5</hdop>
			</trkpt>
			<trkpt lat="46.87431027" lon="6.74352023">
				<ele>641.9</ele>
				<time>2013-08-14T06:11:36Z</time>
				<hdop>1.5</hdop>
			</trkpt>
			<trkpt lat="46.87431129" lon="6.74349711">
				<ele>641.1</ele>
				<time>2013-08-14T06:11:37Z</time>
				<hdop>2.0</hdop>
			</trkpt>
			<trkpt lat="46.8743178" lon="6.74348352">
				<ele>640.7</ele>
				<time>2013-08-14T06:11:38Z</time>
				<hdop>2.0</hdop>
			</trkpt>
			<trkpt lat="46.87430646" lon="6.74345795">
				<ele>641.1</ele>
				<time>2013-08-14T06:11:39Z</time>
				<hdop>1.5</hdop>
			</trkpt>
			<trkpt lat="46.87430699" lon="6.7434276">
				<ele>640.8</ele>
				<time>2013-08-14T06:11:40Z</time>
				<hdop>1.5</hdop>
			</trkpt>
			<trkpt lat="46.87430211" lon="6.74341606">
				<ele>641.1</ele>
				<time>2013-08-14T06:11:41Z</time>
				<hdop>1.5</hdop>
			</trkpt>
			<trkpt lat="46.87429929" lon="6.74340238">
				<ele>641.4</ele>
				<time>2013-08-14T06:11:42Z</time>
				<hdop>1.5</hdop>
			</trkpt>
			<trkpt lat="46.8742921" lon="6.74338338">
				<ele>640.6</ele>
				<time>2013-08-14T06:11:43Z</time>
				<hdop>1.5</hdop>
			</trkpt>
			<trkpt lat="46.8742933" lon="6.74337009">
				<ele>640.6</ele>
				<time>2013-08-14T06:11:44Z</time>
				<hdop>2.0</hdop>
			</trkpt>
			<trkpt lat="46.87428529" lon="6.7433526">
				<ele>640.9</ele>
				<time>2013-08-14T06:11:45Z</time>
				<hdop>2.0</hdop>
			</trkpt>
			<trkpt lat="46.87426989" lon="6.74332813">
				<ele>640.9</ele>
				<time>2013-08-14T06:11:46Z</time>
				<hdop>3.0</hdop>
			</trkpt>
			<trkpt lat="46.87425213" lon="6.7433169">
				<ele>640.9</ele>
				<time>2013-08-14T06:11:47Z</time>
				<hdop>3.0</hdop>
			</trkpt>
			<trkpt lat="46.87424552" lon="6.74331165">
				<ele>640.2</ele>
				<time>2013-08-14T06:11:48Z</time>
				<hdop>4.0</hdop>
			</trkpt>
			<trkpt lat="46.8742316" lon="6.74328238">
				<ele>639.9</ele>
				<time>2013-08-14T06:11:49Z</time>
				<hdop>4.0</hdop>
			</trkpt>
			<trkpt lat="46.87422385" lon="6.7432685">
				<ele>639.5</ele>
				<time>2013-08-14T06:11:50Z</time>
				<hdop>4.0</hdop>
			</trkpt>
			<trkpt lat="46.87421799" lon="6.74325392">
				<ele>639.6</ele>
				<time>2013-08-14T06:11:51Z</time>
				<hdop>4.0</hdop>
			</trkpt>
			<trkpt lat="46.8741988" lon="6.74324796">
				<ele>639.5</ele>
				<time>2013-08-14T06:11:52Z</time>
				<hdop>4.0</hdop>
			</trkpt>
			<trkpt lat="46.87419625" lon="6.74322733">
				<ele>639.2</ele>
				<time>2013-08-14T06:11:53Z</time>
				<hdop>4.0</hdop>
			</trkpt>
			<trkpt lat="46.87419158" lon="6.74319492">
				<ele>639.9</ele>
				<time>2013-08-14T06:11:54Z</time>
				<hdop>4.0</hdop>
			</trkpt>
			<trkpt lat="46.87419388" lon="6.74315897">
				<ele>640.3</ele>
				<time>2013-08-14T06:11:55Z</time>
				<hdop>2.0</hdop>
			</trkpt>
			<trkpt lat="46.87417753" lon="6.74311532">
				<ele>640.3</ele>
				<time>2013-08-14T06:11:56Z</time>
				<hdop>3.0</hdop>
			</trkpt>
			<trkpt lat="46.87421109" lon="6.74308784">
				<ele>641.1</ele>
				<time>2013-08-14T06:11:58Z</time>
				<hdop>2.0</hdop>
			</trkpt>
			<trkpt lat="46.87420383" lon="6.74306877">
				<ele>641.6</ele>
				<time>2013-08-14T06:11:59Z</time>
				<hdop>2.0</hdop>
			</trkpt>
			<trkpt lat="46.87419874" lon="6.74305036">
				<ele>641.9</ele>
				<time>2013-08-14T06:12:00Z</time>
				<hdop>2.0</hdop>
			</trkpt>
			<trkpt lat="46.87419125" lon="6.74304106">
				<ele>641.7</ele>
				<time>2013-08-14T06:12:01Z</time>
				<hdop>2.0</hdop>
			</trkpt>
			<trkpt lat="46.87418286" lon="6.74302476">
				<ele>641.9</ele>
				<time>2013-08-14T06:12:02Z</time>
				<hdop>2.0</hdop>
			</trkpt>
			<trkpt lat="46.87418841" lon="6.74301048">
				<ele>642.3</ele>
				<time>2013-08-14T06:12:03Z</time>
				<hdop>3.0</hdop>
			</trkpt>
			<trkpt lat="46.87419789" lon="6.74300456">
				<ele>641.9</ele>
				<time>2013-08-14T06:12:04Z</time>
				<hdop>3.0</hdop>
			</trkpt>
			<trkpt lat="46.87420677" lon="6.7429856">
				<ele>641.8</ele>
				<time>2013-08-14T06:12:05Z</time>
				<hdop>3.0</hdop>
			</trkpt>
			<trkpt lat="46.87420376" lon="6.74297198">
				<ele>641.7</ele>
				<time>2013-08-14T06:12:06Z</time>
				<hdop>3.0</hdop>
			</trkpt>
			<trkpt lat="46.87420627" lon="6.74295879">
				<ele>642.0</ele>
				<time>2013-08-14T06:12:07Z</time>
				<hdop>3.0</hdop>
			</trkpt>
			<trkpt lat="46.87422013" lon="6.74295062">
				<ele>641.6</ele>
				<time>2013-08-14T06:12:08Z</time>
				<hdop>3.0</hdop>
			</trkpt>
			<trkpt lat="46.87421893" lon="6.74293545">
				<ele>641.7</ele>
				<time>2013-08-14T06:12:09Z</time>
				<hdop>2.0</hdop>
			</trkpt>
			<trkpt lat="46.87420762" lon="6.74287113">
				<ele>642.4</ele>
				<time>2013-08-14T06:12:11Z</time>
				<hdop>3.0</hdop>
			</trkpt>
			<trkpt lat="46.87421878" lon="6.74284521">
				<ele>642.1</ele>
				<time>2013-08-14T06:12:12Z</time>
				<hdop>2.0</hdop>
			</trkpt>
			<trkpt lat="46.87423279" lon="6.74281972">
				<ele>641.9</ele>
				<time>2013-08-14T06:12:13Z</time>
				<hdop>2.0</hdop>
			</trkpt>
			<trkpt lat="46.87424174" lon="6.74278425">
				<ele>642.2</ele>
				<time>2013-08-14T06:12:14Z</time>
				<hdop>2.0</hdop>
			</trkpt>
			<trkpt lat="46.87425186" lon="6.74278514">
				<ele>642.0</ele>
				<time>2013-08-14T06:12:15Z</time>
				<hdop>2.0</hdop>
			</trkpt>
			<trkpt lat="46.87425619" lon="6.74276519">
				<ele>642.0</ele>
				<time>2013-08-14T06:12:16Z</time>
				<hdop>2.0</hdop>
			</trkpt>
			<trkpt lat="46.87425864" lon="6.74274689">
				<ele>642.0</ele>
				<time>2013-08-14T06:12:17Z</time>
				<hdop>2.0</hdop>
			</trkpt>
			<trkpt lat="46.87425408" lon="6.74273168">
				<ele>641.9</ele>
				<time>2013-08-14T06:12:18Z</time>
				<hdop>2.0</hdop>
			</trkpt>
			<trkpt lat="46.87425684" lon="6.74273">
				<ele>641.7</ele>
				<time>2013-08-14T06:12:19Z</time>
				<hdop>2.0</hdop>
			</trkpt>
			<trkpt lat="46.87424774" lon="6.74271236">
				<ele>641.8</ele>
				<time>2013-08-14T06:12:20Z</time>
				<hdop>2.0</hdop>
			</trkpt>
			<trkpt lat="46.87423352" lon="6.74268506">
				<ele>642.0</ele>
				<time>2013-08-14T06:12:21Z</time>
				<hdop>2.0</hdop>
			</trkpt>
			<trkpt lat="46.87423638" lon="6.74268472">
				<ele>642.0</ele>
				<time>2013-08-14T06:12:22Z</time>
				<hdop>2.0</hdop>
			</trkpt>
			<trkpt lat="46.87421107" lon="6.74267265">
				<ele>642.1</ele>
				<time>2013-08-14T06:12:23Z</time>
				<hdop>2.0</hdop>
			</trkpt>
			<trkpt lat="46.87418679" lon="6.74263791">
				<ele>642.0</ele>
				<time>2013-08-14T06:12:24Z</time>
				<hdop>2.0</hdop>
			</trkpt>
			<trkpt lat="46.87417332" lon="6.7425961">
				<ele>642.1</ele>
				<time>2013-08-14T06:12:25Z</time>
				<hdop>2.0</hdop>
			</trkpt>
			<trkpt lat="46.8741636" lon="6.74255703">
				<ele>642.1</ele>
				<time>2013-08-14T06:12:26Z</time>
				<hdop>2.0</hdop>
			</trkpt>
			<trkpt lat="46.87415686" lon="6.74253264">
				<ele>642.0</ele>
				<time>2013-08-14T06:12:27Z</time>
				<hdop>2.0</hdop>
			</trkpt>
			<trkpt lat="46.87416381" lon="6.74251233">
				<ele>642.2</ele>
				<time>2013-08-14T06:12:28Z</time>
				<hdop>1.5</hdop>
			</trkpt>
			<trkpt lat="46.8741647" lon="6.74249032">
				<ele>642.1</ele>
				<time>2013-08-14T06:12:29Z</time>
				<hdop>1.5</hdop>
			</trkpt>
			<trkpt lat="46.87414502" lon="6.74247666">
				<ele>642.0</ele>
				<time>2013-08-14T06:12:30Z</time>
				<hdop>1.5</hdop>
			</trkpt>
			<trkpt lat="46.87413702" lon="6.74244361">
				<ele>641.9</ele>
				<time>2013-08-14T06:12:31Z</time>
				<hdop>1.5</hdop>
			</trkpt>
			<trkpt lat="46.87414299" lon="6.74244252">
				<ele>642.2</ele>
				<time>2013-08-14T06:12:32Z</time>
				<hdop>1.5</hdop>
			</trkpt>
			<trkpt lat="46.87412995" lon="6.74242575">
				<ele>642.4</ele>
				<time>2013-08-14T06:12:33Z</time>
				<hdop>1.5</hdop>
			</trkpt>
			<trkpt lat="46.87411998" lon="6.74240342">
				<ele>643.0</ele>
				<time>2013-08-14T06:12:34Z</time>
				<hdop>1.5</hdop>
			</trkpt>
			<trkpt lat="46.874123" lon="6.74238154">
				<ele>642.7</ele>
				<time>2013-08-14T06:12:35Z</time>
				<hdop>1.5</hdop>
			</trkpt>
			<trkpt lat="46.87413152" lon="6.74236431">
				<ele>642.3</ele>
				<time>2013-08-14T06:12:36Z</time>
				<hdop>1.5</hdop>
			</trkpt>
			<trkpt lat="46.87413198" lon="6.74234164">
				<ele>641.4</ele>
				<time>2013-08-14T06:12:37Z</time>
				<hdop>1.5</hdop>
			</trkpt>
			<trkpt lat="46.87413742" lon="6.74232812">
				<ele>642.3</ele>
				<time>2013-08-14T06:12:38Z</time>
				<hdop>1.5</hdop>
			</trkpt>
			<trkpt lat="46.87411163" lon="6.7422976">
				<ele>640.3</ele>
				<time>2013-08-14T06:12:39Z</time>
				<hdop>1.5</hdop>
			</trkpt>
			<trkpt lat="46.87409088" lon="6.74226635">
				<ele>640.0</ele>
				<time>2013-08-14T06:12:40Z</time>
				<hdop>1.5</hdop>
			</trkpt>
			<trkpt lat="46.87405887" lon="6.74221289">
				<ele>640.0</ele>
				<time>2013-08-14T06:12:41Z</time>
				<hdop>2.0</hdop>
			</trkpt>
			<trkpt lat="46.8740637" lon="6.74219834">
				<ele>641.5</ele>
				<time>2013-08-14T06:12:42Z</time>
				<hdop>2.0</hdop>
			</trkpt>
			<trkpt lat="46.87407996" lon="6.74219064">
				<ele>638.7</ele>
				<time>2013-08-14T06:12:43Z</time>
				<hdop>1.5</hdop>
			</trkpt>
			<trkpt lat="46.87408821" lon="6.74216209">
				<ele>640.3</ele>
				<time>2013-08-14T06:12:44Z</time>
				<hdop>1.5</hdop>
			</trkpt>
			<trkpt lat="46.87408774" lon="6.74213919">
				<ele>640.5</ele>
				<time>2013-08-14T06:12:45Z</time>
				<hdop>1.5</hdop>
			</trkpt>
			<trkpt lat="46.87409349" lon="6.74211655">
				<ele>640.6</ele>
				<time>2013-08-14T06:12:46Z</time>
				<hdop>1.5</hdop>
			</trkpt>
			<trkpt lat="46.87410049" lon="6.7420986">
				<ele>640.4</ele>
				<time>2013-08-14T06:12:47Z</time>
				<hdop>1.5</hdop>
			</trkpt>
			<trkpt lat="46.87410839" lon="6.7420727">
				<ele>641.0</ele>
				<time>2013-08-14T06:12:48Z</time>
				<hdop>1.5</hdop>
			</trkpt>
			<trkpt lat="46.87410929" lon="6.74205137">
				<ele>641.0</ele>
				<time>2013-08-14T06:12:49Z</time>
				<hdop>1.5</hdop>
			</trkpt>
			<trkpt lat="46.87411647" lon="6.74202438">
				<ele>640.2</ele>
				<time>2013-08-14T06:12:50Z</time>
				<hdop>1.5</hdop>
			</trkpt>
			<trkpt lat="46.87412132" lon="6.74200899">
				<ele>639.5</ele>
				<time>2013-08-14T06:12:51Z</time>
				<hdop>1.5</hdop>
			</trkpt>
			<trkpt lat="46.8741189" lon="6.74198529">
				<ele>639.5</ele>
				<time>2013-08-14T06:12:52Z</time>
				<hdop>1.5</hdop>
			</trkpt>
			<trkpt lat="46.87412402" lon="6.74196247">
				<ele>639.5</ele>
				<time>2013-08-14T06:12:53Z</time>
				<hdop>1.0</hdop>
			</trkpt>
			<trkpt lat="46.87412686" lon="6.74195263">
				<ele>638.3</ele>
				<time>2013-08-14T06:12:54Z</time>
				<hdop>1.5</hdop>
			</trkpt>
			<trkpt lat="46.87412504" lon="6.7419328">
				<ele>638.1</ele>
				<time>2013-08-14T06:12:55Z</time>
				<hdop>1.5</hdop>
			</trkpt>
			<trkpt lat="46.87412626" lon="6.74191756">
				<ele>637.9</ele>
				<time>2013-08-14T06:12:56Z</time>
				<hdop>1.5</hdop>
			</trkpt>
			<trkpt lat="46.87413343" lon="6.74189678">
				<ele>638.1</ele>
				<time>2013-08-14T06:12:57Z</time>
				<hdop>1.0</hdop>
			</trkpt>
			<trkpt lat="46.87413696" lon="6.74187823">
				<ele>637.3</ele>
				<time>2013-08-14T06:12:58Z</time>
				<hdop>1.0</hdop>
			</trkpt>
			<trkpt lat="46.87414451" lon="6.74184991">
				<ele>637.0</ele>
				<time>2013-08-14T06:12:59Z</time>
				<hdop>1.5</hdop>
			</trkpt>
			<trkpt lat="46.87414801" lon="6.74182824">
				<ele>637.2</ele>
				<time>2013-08-14T06:13:00Z</time>
				<hdop>1.5</hdop>
			</trkpt>
			<trkpt lat="46.8741446" lon="6.74180825">
				<ele>638.7</ele>
				<time>2013-08-14T06:13:01Z</time>
				<hdop>1.0</hdop>
			</trkpt>
			<trkpt lat="46.87414982" lon="6.74179074">
				<ele>638.9</ele>
				<time>2013-08-14T06:13:02Z</time>
				<hdop>1.0</hdop>
			</trkpt>
			<trkpt lat="46.87415405" lon="6.74177608">
				<ele>638.3</ele>
				<time>2013-08-14T06:13:03Z</time>
				<hdop>1.0</hdop>
			</trkpt>
			<trkpt lat="46.8741601" lon="6.74175189">
				<ele>638.0</ele>
				<time>2013-08-14T06:13:04Z</time>
				<hdop>1.5</hdop>
			</trkpt>
			<trkpt lat="46.87416171" lon="6.74174211">
				<ele>637.8</ele>
				<time>2013-08-14T06:13:05Z</time>
				<hdop>1.0</hdop>
			</trkpt>
			<trkpt lat="46.87416618" lon="6.7417242">
				<ele>638.1</ele>
				<time>2013-08-14T06:13:06Z</time>
				<hdop>1.0</hdop>
			</trkpt>
			<trkpt lat="46.87417095" lon="6.74170011">
				<ele>638.4</ele>
				<time>2013-08-14T06:13:07Z</time>
				<hdop>1.0</hdop>
			</trkpt>
			<trkpt lat="46.87417493" lon="6.74168163">
				<ele>638.4</ele>
				<time>2013-08-14T06:13:08Z</time>
				<hdop>1.0</hdop>
			</trkpt>
			<trkpt lat="46.87418051" lon="6.74166436">
				<ele>638.2</ele>
				<time>2013-08-14T06:13:09Z</time>
				<hdop>1.0</hdop>
			</trkpt>
			<trkpt lat="46.87418614" lon="6.74164619">
				<ele>638.3</ele>
				<time>2013-08-14T06:13:10Z</time>
				<hdop>1.0</hdop>
			</trkpt>
			<trkpt lat="46.87419194" lon="6.74163042">
				<ele>638.3</ele>
				<time>2013-08-14T06:13:11Z</time>
				<hdop>1.0</hdop>
			</trkpt>
			<trkpt lat="46.87419529" lon="6.74161007">
				<ele>638.7</ele>
				<time>2013-08-14T06:13:12Z</time>
				<hdop>1.0</hdop>
			</trkpt>
			<trkpt lat="46.87420268" lon="6.7415909">
				<ele>638.3</ele>
				<time>2013-08-14T06:13:13Z</time>
				<hdop>1.0</hdop>
			</trkpt>
			<trkpt lat="46.8742109" lon="6.74157867">
				<ele>637.7</ele>
				<time>2013-08-14T06:13:14Z</time>
				<hdop>1.0</hdop>
			</trkpt>
			<trkpt lat="46.8742186" lon="6.7415645">
				<ele>637.2</ele>
				<time>2013-08-14T06:13:15Z</time>
				<hdop>1.0</hdop>
			</trkpt>
			<trkpt lat="46.8742262" lon="6.74154409">
				<ele>636.1</ele>
				<time>2013-08-14T06:13:16Z</time>
				<hdop>1.0</hdop>
			</trkpt>
			<trkpt lat="46.87422929" lon="6.74152293">
				<ele>635.7</ele>
				<time>2013-08-14T06:13:17Z</time>
				<hdop>1.5</hdop>
			</trkpt>
			<trkpt lat="46.87423575" lon="6.74150596">
				<ele>635.6</ele>
				<time>2013-08-14T06:13:18Z</time>
				<hdop>1.5</hdop>
			</trkpt>
			<trkpt lat="46.8742393" lon="6.74148039">
				<ele>635.8</ele>
				<time>2013-08-14T06:13:19Z</time>
				<hdop>1.0</hdop>
			</trkpt>
			<trkpt lat="46.87424613" lon="6.74145227">
				<ele>636.3</ele>
				<time>2013-08-14T06:13:20Z</time>
				<hdop>1.0</hdop>
			</trkpt>
			<trkpt lat="46.87425255" lon="6.74143401">
				<ele>637.2</ele>
				<time>2013-08-14T06:13:21Z</time>
				<hdop>1.0</hdop>
			</trkpt>
			<trkpt lat="46.87425981" lon="6.74141463">
				<ele>637.2</ele>
				<time>2013-08-14T06:13:22Z</time>
				<hdop>1.0</hdop>
			</trkpt>
			<trkpt lat="46.87426671" lon="6.74139202">
				<ele>637.5</ele>
				<time>2013-08-14T06:13:23Z</time>
				<hdop>1.5</hdop>
			</trkpt>
			<trkpt lat="46.87426942" lon="6.74136952">
				<ele>638.4</ele>
				<time>2013-08-14T06:13:24Z</time>
				<hdop>1.5</hdop>
			</trkpt>
			<trkpt lat="46.87427149" lon="6.74133792">
				<ele>639.0</ele>
				<time>2013-08-14T06:13:25Z</time>
				<hdop>1.5</hdop>
			</trkpt>
			<trkpt lat="46.87427321" lon="6.74130303">
				<ele>639.6</ele>
				<time>2013-08-14T06:13:26Z</time>
				<hdop>1.5</hdop>
			</trkpt>
			<trkpt lat="46.87428248" lon="6.74127758">
				<ele>639.8</ele>
				<time>2013-08-14T06:13:27Z</time>
				<hdop>2.0</hdop>
			</trkpt>
			<trkpt lat="46.87428203" lon="6.74124848">
				<ele>640.2</ele>
				<time>2013-08-14T06:13:28Z</time>
				<hdop>2.0</hdop>
			</trkpt>
			<trkpt lat="46.87428199" lon="6.74123046">
				<ele>640.6</ele>
				<time>2013-08-14T06:13:29Z</time>
				<hdop>2.0</hdop>
			</trkpt>
			<trkpt lat="46.87428944" lon="6.74121487">
				<ele>641.0</ele>
				<time>2013-08-14T06:13:30Z</time>
				<hdop>2.0</hdop>
			</trkpt>
			<trkpt lat="46.87430408" lon="6.74118962">
				<ele>640.9</ele>
				<time>2013-08-14T06:13:31Z</time>
				<hdop>2.0</hdop>
			</trkpt>
			<trkpt lat="46.87430686" lon="6.74117739">
				<ele>641.2</ele>
				<time>2013-08-14T06:13:32Z</time>
				<hdop>2.0</hdop>
			</trkpt>
			<trkpt lat="46.87430818" lon="6.74116213">
				<ele>641.3</ele>
				<time>2013-08-14T06:13:33Z</time>
				<hdop>2.0</hdop>
			</trkpt>
			<trkpt lat="46.87431715" lon="6.74114471">
				<ele>641.5</ele>
				<time>2013-08-14T06:13:34Z</time>
				<hdop>2.0</hdop>
			</trkpt>
			<trkpt lat="46.8743253" lon="6.74113225">
				<ele>641.6</ele>
				<time>2013-08-14T06:13:35Z</time>
				<hdop>2.0</hdop>
			</trkpt>
			<trkpt lat="46.87432695" lon="6.74111916">
				<ele>641.7</ele>
				<time>2013-08-14T06:13:36Z</time>
				<hdop>2.0</hdop>
			</trkpt>
			<trkpt lat="46.87433276" lon="6.74109666">
				<ele>641.7</ele>
				<time>2013-08-14T06:13:37Z</time>
				<hdop>2.0</hdop>
			</trkpt>
			<trkpt lat="46.87433335" lon="6.74107261">
				<ele>641.7</ele>
				<time>2013-08-14T06:13:38Z</time>
				<hdop>2.0</hdop>
			</trkpt>
			<trkpt lat="46.87432933" lon="6.74104413">
				<ele>641.6</ele>
				<time>2013-08-14T06:13:39Z</time>
				<hdop>2.0</hdop>
			</trkpt>
			<trkpt lat="46.87432819" lon="6.74102471">
				<ele>641.6</ele>
				<time>2013-08-14T06:13:40Z</time>
				<hdop>2.0</hdop>
			</trkpt>
			<trkpt lat="46.87432768" lon="6.74099798">
				<ele>641.4</ele>
				<time>2013-08-14T06:13:41Z</time>
				<hdop>2.0</hdop>
			</trkpt>
			<trkpt lat="46.87434161" lon="6.74098888">
				<ele>641.5</ele>
				<time>2013-08-14T06:13:42Z</time>
				<hdop>2.0</hdop>
			</trkpt>
			<trkpt lat="46.87434463" lon="6.7409599">
				<ele>642.3</ele>
				<time>2013-08-14T06:13:43Z</time>
				<hdop>2.0</hdop>
			</trkpt>
			<trkpt lat="46.87435844" lon="6.74095054">
				<ele>638.6</ele>
				<time>2013-08-14T06:13:45Z</time>
				<hdop>1.5</hdop>
			</trkpt>
			<trkpt lat="46.87436407" lon="6.74094428">
				<ele>639.0</ele>
				<time>2013-08-14T06:13:46Z</time>
				<hdop>1.5</hdop>
			</trkpt>
			<trkpt lat="46.87437026" lon="6.74092954">
				<ele>639.0</ele>
				<time>2013-08-14T06:13:47Z</time>
				<hdop>1.5</hdop>
			</trkpt>
			<trkpt lat="46.87437383" lon="6.74090834">
				<ele>639.4</ele>
				<time>2013-08-14T06:13:48Z</time>
				<hdop>1.5</hdop>
			</trkpt>
			<trkpt lat="46.87438319" lon="6.74089551">
				<ele>639.6</ele>
				<time>2013-08-14T06:13:49Z</time>
				<hdop>1.5</hdop>
			</trkpt>
			<trkpt lat="46.87439025" lon="6.74087234">
				<ele>640.1</ele>
				<time>2013-08-14T06:13:50Z</time>
				<hdop>1.5</hdop>
			</trkpt>
			<trkpt lat="46.87439713" lon="6.74085585">
				<ele>639.5</ele>
				<time>2013-08-14T06:13:51Z</time>
				<hdop>1.5</hdop>
			</trkpt>
			<trkpt lat="46.87439623" lon="6.74083264">
				<ele>639.7</ele>
				<time>2013-08-14T06:13:52Z</time>
				<hdop>1.5</hdop>
			</trkpt>
			<trkpt lat="46.87441525" lon="6.74079534">
				<ele>641.8</ele>
				<time>2013-08-14T06:13:53Z</time>
				<hdop>1.0</hdop>
			</trkpt>
			<trkpt lat="46.87442085" lon="6.74079109">
				<ele>642.1</ele>
				<time>2013-08-14T06:13:54Z</time>
				<hdop>1.0</hdop>
			</trkpt>
			<trkpt lat="46.87442429" lon="6.74076006">
				<ele>642.0</ele>
				<time>2013-08-14T06:13:55Z</time>
				<hdop>1.0</hdop>
			</trkpt>
			<trkpt lat="46.87443645" lon="6.7407422">
				<ele>641.4</ele>
				<time>2013-08-14T06:13:56Z</time>
				<hdop>1.0</hdop>
			</trkpt>
			<trkpt lat="46.8744645" lon="6.74073191">
				<ele>641.9</ele>
				<time>2013-08-14T06:13:58Z</time>
				<hdop>1.0</hdop>
			</trkpt>
			<trkpt lat="46.87446734" lon="6.74071678">
				<ele>641.6</ele>
				<time>2013-08-14T06:13:59Z</time>
				<hdop>1.0</hdop>
			</trkpt>
			<trkpt lat="46.87446603" lon="6.74068538">
				<ele>642.7</ele>
				<time>2013-08-14T06:14:00Z</time>
				<hdop>1.0</hdop>
			</trkpt>
			<trkpt lat="46.87446268" lon="6.74066878">
				<ele>642.8</ele>
				<time>2013-08-14T06:14:01Z</time>
				<hdop>1.0</hdop>
			</trkpt>
			<trkpt lat="46.87447249" lon="6.74066014">
				<ele>643.1</ele>
				<time>2013-08-14T06:14:02Z</time>
				<hdop>1.0</hdop>
			</trkpt>
			<trkpt lat="46.87447073" lon="6.74063841">
				<ele>643.4</ele>
				<time>2013-08-14T06:14:03Z</time>
				<hdop>1.0</hdop>
			</trkpt>
			<trkpt lat="46.87446897" lon="6.74063329">
				<ele>642.9</ele>
				<time>2013-08-14T06:14:04Z</time>
				<hdop>1.0</hdop>
			</trkpt>
			<trkpt lat="46.87447333" lon="6.74061835">
				<ele>641.6</ele>
				<time>2013-08-14T06:14:06Z</time>
				<hdop>1.0</hdop>
			</trkpt>
			<trkpt lat="46.87448039" lon="6.74060762">
				<ele>641.6</ele>
				<time>2013-08-14T06:14:07Z</time>
				<hdop>1.0</hdop>
			</trkpt>
			<trkpt lat="46.87448631" lon="6.74059406">
				<ele>641.2</ele>
				<time>2013-08-14T06:14:08Z</time>
				<hdop>1.0</hdop>
			</trkpt>
			<trkpt lat="46.87449652" lon="6.74055202">
				<ele>642.5</ele>
				<time>2013-08-14T06:14:10Z</time>
				<hdop>1.0</hdop>
			</trkpt>
			<trkpt lat="46.8745122" lon="6.74050717">
				<ele>642.2</ele>
				<time>2013-08-14T06:14:12Z</time>
				<hdop>1.0</hdop>
			</trkpt>
			<trkpt lat="46.87451625" lon="6.74050162">
				<ele>642.2</ele>
				<time>2013-08-14T06:14:13Z</time>
				<hdop>1.0</hdop>
			</trkpt>
			<trkpt lat="46.87451788" lon="6.74048655">
				<ele>642.8</ele>
				<time>2013-08-14T06:14:14Z</time>
				<hdop>1.0</hdop>
			</trkpt>
			<trkpt lat="46.87452082" lon="6.74046401">
				<ele>642.8</ele>
				<time>2013-08-14T06:14:15Z</time>
				<hdop>1.0</hdop>
			</trkpt>
			<trkpt lat="46.87453187" lon="6.74044245">
				<ele>643.2</ele>
				<time>2013-08-14T06:14:16Z</time>
				<hdop>1.0</hdop>
			</trkpt>
			<trkpt lat="46.87454175" lon="6.74042494">
				<ele>643.4</ele>
				<time>2013-08-14T06:14:17Z</time>
				<hdop>1.0</hdop>
			</trkpt>
			<trkpt lat="46.87455239" lon="6.74041202">
				<ele>643.2</ele>
				<time>2013-08-14T06:14:18Z</time>
				<hdop>1.0</hdop>
			</trkpt>
			<trkpt lat="46.87456091" lon="6.74039406">
				<ele>643.2</ele>
				<time>2013-08-14T06:14:19Z</time>
				<hdop>1.0</hdop>
			</trkpt>
			<trkpt lat="46.87457679" lon="6.74036887">
				<ele>644.3</ele>
				<time>2013-08-14T06:14:20Z</time>
				<hdop>1.0</hdop>
			</trkpt>
			<trkpt lat="46.87458682" lon="6.74034406">
				<ele>645.2</ele>
				<time>2013-08-14T06:14:21Z</time>
				<hdop>1.0</hdop>
			</trkpt>
			<trkpt lat="46.87460807" lon="6.74033773">
				<ele>645.5</ele>
				<time>2013-08-14T06:14:23Z</time>
				<hdop>1.0</hdop>
			</trkpt>
			<trkpt lat="46.87461791" lon="6.74033013">
				<ele>646.0</ele>
				<time>2013-08-14T06:14:24Z</time>
				<hdop>1.0</hdop>
			</trkpt>
			<trkpt lat="46.87463393" lon="6.74032357">
				<ele>646.5</ele>
				<time>2013-08-14T06:14:25Z</time>
				<hdop>1.0</hdop>
			</trkpt>
			<trkpt lat="46.87464905" lon="6.74031531">
				<ele>647.0</ele>
				<time>2013-08-14T06:14:26Z</time>
				<hdop>1.0</hdop>
			</trkpt>
			<trkpt lat="46.8746627" lon="6.74030736">
				<ele>647.5</ele>
				<time>2013-08-14T06:14:27Z</time>
				<hdop>1.0</hdop>
			</trkpt>
			<trkpt lat="46.87467469" lon="6.74030311">
				<ele>647.8</ele>
				<time>2013-08-14T06:14:28Z</time>
				<hdop>1.0</hdop>
			</trkpt>
			<trkpt lat="46.87468725" lon="6.74029637">
				<ele>647.8</ele>
				<time>2013-08-14T06:14:29Z</time>
				<hdop>1.0</hdop>
			</trkpt>
			<trkpt lat="46.87469805" lon="6.74028843">
				<ele>648.1</ele>
				<time>2013-08-14T06:14:30Z</time>
				<hdop>1.0</hdop>
			</trkpt>
			<trkpt lat="46.87470686" lon="6.74028884">
				<ele>648.7</ele>
				<time>2013-08-14T06:14:31Z</time>
				<hdop>1.0</hdop>
			</trkpt>
			<trkpt lat="46.87471839" lon="6.74028143">
				<ele>648.6</ele>
				<time>2013-08-14T06:14:32Z</time>
				<hdop>1.0</hdop>
			</trkpt>
			<trkpt lat="46.87474038" lon="6.7402885">
				<ele>648.4</ele>
				<time>2013-08-14T06:14:33Z</time>
				<hdop>1.0</hdop>
			</trkpt>
			<trkpt lat="46.87475696" lon="6.74029005">
				<ele>648.0</ele>
				<time>2013-08-14T06:14:34Z</time>
				<hdop>1.0</hdop>
			</trkpt>
			<trkpt lat="46.87476841" lon="6.74028697">
				<ele>648.6</ele>
				<time>2013-08-14T06:14:35Z</time>
				<hdop>1.0</hdop>
			</trkpt>
			<trkpt lat="46.87478736" lon="6.74028282">
				<ele>648.6</ele>
				<time>2013-08-14T06:14:36Z</time>
				<hdop>1.0</hdop>
			</trkpt>
			<trkpt lat="46.87480541" lon="6.74027501">
				<ele>648.0</ele>
				<time>2013-08-14T06:14:37Z</time>
				<hdop>1.5</hdop>
			</trkpt>
			<trkpt lat="46.87482282" lon="6.74026901">
				<ele>647.7</ele>
				<time>2013-08-14T06:14:38Z</time>
				<hdop>1.5</hdop>
			</trkpt>
			<trkpt lat="46.87483494" lon="6.74026948">
				<ele>647.9</ele>
				<time>2013-08-14T06:14:39Z</time>
				<hdop>1.5</hdop>
			</trkpt>
			<trkpt lat="46.87484241" lon="6.74026349">
				<ele>649.5</ele>
				<time>2013-08-14T06:14:40Z</time>
				<hdop>1.0</hdop>
			</trkpt>
			<trkpt lat="46.87484766" lon="6.74027299">
				<ele>650.5</ele>
				<time>2013-08-14T06:14:41Z</time>
				<hdop>1.5</hdop>
			</trkpt>
			<trkpt lat="46.87485896" lon="6.74027366">
				<ele>650.8</ele>
				<time>2013-08-14T06:14:42Z</time>
				<hdop>1.0</hdop>
			</trkpt>
			<trkpt lat="46.87487282" lon="6.74025904">
				<ele>650.9</ele>
				<time>2013-08-14T06:14:43Z</time>
				<hdop>1.5</hdop>
			</trkpt>
			<trkpt lat="46.87488629" lon="6.74025296">
				<ele>650.9</ele>
				<time>2013-08-14T06:14:44Z</time>
				<hdop>1.5</hdop>
			</trkpt>
			<trkpt lat="46.87489835" lon="6.74023082">
				<ele>651.3</ele>
				<time>2013-08-14T06:14:46Z</time>
				<hdop>1.0</hdop>
			</trkpt>
			<trkpt lat="46.87490592" lon="6.74022626">
				<ele>651.1</ele>
				<time>2013-08-14T06:14:47Z</time>
				<hdop>1.0</hdop>
			</trkpt>
			<trkpt lat="46.87492919" lon="6.7402397">
				<ele>650.0</ele>
				<time>2013-08-14T06:14:48Z</time>
				<hdop>1.0</hdop>
			</trkpt>
			<trkpt lat="46.87494581" lon="6.74024066">
				<ele>650.3</ele>
				<time>2013-08-14T06:14:49Z</time>
				<hdop>1.0</hdop>
			</trkpt>
			<trkpt lat="46.87495695" lon="6.74023374">
				<ele>650.6</ele>
				<time>2013-08-14T06:14:50Z</time>
				<hdop>1.0</hdop>
			</trkpt>
			<trkpt lat="46.87497676" lon="6.74023357">
				<ele>651.0</ele>
				<time>2013-08-14T06:14:52Z</time>
				<hdop>1.0</hdop>
			</trkpt>
			<trkpt lat="46.874989" lon="6.74023395">
				<ele>650.8</ele>
				<time>2013-08-14T06:14:53Z</time>
				<hdop>1.0</hdop>
			</trkpt>
			<trkpt lat="46.87499841" lon="6.74021792">
				<ele>651.8</ele>
				<time>2013-08-14T06:14:54Z</time>
				<hdop>1.0</hdop>
			</trkpt>
			<trkpt lat="46.87501085" lon="6.74020946">
				<ele>652.0</ele>
				<time>2013-08-14T06:14:55Z</time>
				<hdop>1.0</hdop>
			</trkpt>
			<trkpt lat="46.87502237" lon="6.74020496">
				<ele>652.4</ele>
				<time>2013-08-14T06:14:56Z</time>
				<hdop>1.0</hdop>
			</trkpt>
			<trkpt lat="46.87503117" lon="6.74020196">
				<ele>652.8</ele>
				<time>2013-08-14T06:14:57Z</time>
				<hdop>1.0</hdop>
			</trkpt>
			<trkpt lat="46.87504268" lon="6.74019653">
				<ele>653.4</ele>
				<time>2013-08-14T06:14:58Z</time>
				<hdop>1.0</hdop>
			</trkpt>
			<trkpt lat="46.87505629" lon="6.74019419">
				<ele>653.6</ele>
				<time>2013-08-14T06:14:59Z</time>
				<hdop>1.0</hdop>
			</trkpt>
			<trkpt lat="46.8750698" lon="6.7401896">
				<ele>653.4</ele>
				<time>2013-08-14T06:15:00Z</time>
				<hdop>1.0</hdop>
			</trkpt>
			<trkpt lat="46.87508653" lon="6.74018489">
				<ele>653.5</ele>
				<time>2013-08-14T06:15:01Z</time>
				<hdop>1.0</hdop>
			</trkpt>
			<trkpt lat="46.87509766" lon="6.74017834">
				<ele>653.4</ele>
				<time>2013-08-14T06:15:02Z</time>
				<hdop>1.0</hdop>
			</trkpt>
			<trkpt lat="46.8751103" lon="6.7401683">
				<ele>653.4</ele>
				<time>2013-08-14T06:15:03Z</time>
				<hdop>1.0</hdop>
			</trkpt>
			<trkpt lat="46.87512798" lon="6.74015844">
				<ele>653.6</ele>
				<time>2013-08-14T06:15:04Z</time>
				<hdop>1.0</hdop>
			</trkpt>
			<trkpt lat="46.87514449" lon="6.74016875">
				<ele>653.2</ele>
				<time>2013-08-14T06:15:05Z</time>
				<hdop>1.0</hdop>
			</trkpt>
			<trkpt lat="46.87515332" lon="6.74016674">
				<ele>653.5</ele>
				<time>2013-08-14T06:15:06Z</time>
				<hdop>1.0</hdop>
			</trkpt>
			<trkpt lat="46.87515709" lon="6.74016951">
				<ele>654.1</ele>
				<time>2013-08-14T06:15:07Z</time>
				<hdop>1.0</hdop>
			</trkpt>
			<trkpt lat="46.8751731" lon="6.74017566">
				<ele>654.1</ele>
				<time>2013-08-14T06:15:08Z</time>
				<hdop>1.0</hdop>
			</trkpt>
			<trkpt lat="46.87517789" lon="6.74016548">
				<ele>654.3</ele>
				<time>2013-08-14T06:15:09Z</time>
				<hdop>1.0</hdop>
			</trkpt>
			<trkpt lat="46.87519447" lon="6.7401726">
				<ele>654.6</ele>
				<time>2013-08-14T06:15:10Z</time>
				<hdop>1.0</hdop>
			</trkpt>
			<trkpt lat="46.8752129" lon="6.74017888">
				<ele>654.8</ele>
				<time>2013-08-14T06:15:11Z</time>
				<hdop>1.0</hdop>
			</trkpt>
			<trkpt lat="46.87523225" lon="6.74017697">
				<ele>655.1</ele>
				<time>2013-08-14T06:15:12Z</time>
				<hdop>1.0</hdop>
			</trkpt>
			<trkpt lat="46.87523291" lon="6.74015035">
				<ele>655.8</ele>
				<time>2013-08-14T06:15:13Z</time>
				<hdop>1.0</hdop>
			</trkpt>
			<trkpt lat="46.87525313" lon="6.74013617">
				<ele>655.8</ele>
				<time>2013-08-14T06:15:14Z</time>
				<hdop>1.0</hdop>
			</trkpt>
			<trkpt lat="46.87525908" lon="6.74011472">
				<ele>655.9</ele>
				<time>2013-08-14T06:15:15Z</time>
				<hdop>1.0</hdop>
			</trkpt>
			<trkpt lat="46.87527953" lon="6.74012972">
				<ele>656.5</ele>
				<time>2013-08-14T06:15:16Z</time>
				<hdop>1.0</hdop>
			</trkpt>
			<trkpt lat="46.87528965" lon="6.7401262">
				<ele>657.1</ele>
				<time>2013-08-14T06:15:17Z</time>
				<hdop>1.0</hdop>
			</trkpt>
			<trkpt lat="46.87529909" lon="6.74010825">
				<ele>657.7</ele>
				<time>2013-08-14T06:15:18Z</time>
				<hdop>1.0</hdop>
			</trkpt>
			<trkpt lat="46.87530862" lon="6.74008988">
				<ele>657.6</ele>
				<time>2013-08-14T06:15:19Z</time>
				<hdop>1.0</hdop>
			</trkpt>
			<trkpt lat="46.87531674" lon="6.74007753">
				<ele>657.9</ele>
				<time>2013-08-14T06:15:20Z</time>
				<hdop>1.0</hdop>
			</trkpt>
			<trkpt lat="46.87532293" lon="6.74006828">
				<ele>658.9</ele>
				<time>2013-08-14T06:15:21Z</time>
				<hdop>1.0</hdop>
			</trkpt>
			<trkpt lat="46.87531934" lon="6.74005028">
				<ele>659.2</ele>
				<time>2013-08-14T06:15:22Z</time>
				<hdop>1.0</hdop>
			</trkpt>
			<trkpt lat="46.87533388" lon="6.74003419">
				<ele>659.2</ele>
				<time>2013-08-14T06:15:23Z</time>
				<hdop>1.0</hdop>
			</trkpt>
			<trkpt lat="46.87535456" lon="6.74004732">
				<ele>658.6</ele>
				<time>2013-08-14T06:15:24Z</time>
				<hdop>1.0</hdop>
			</trkpt>
			<trkpt lat="46.87536535" lon="6.74004137">
				<ele>658.7</ele>
				<time>2013-08-14T06:15:25Z</time>
				<hdop>1.0</hdop>
			</trkpt>
			<trkpt lat="46.87538351" lon="6.7400351">
				<ele>658.7</ele>
				<time>2013-08-14T06:15:26Z</time>
				<hdop>1.0</hdop>
			</trkpt>
			<trkpt lat="46.87540331" lon="6.74002962">
				<ele>659.2</ele>
				<time>2013-08-14T06:15:27Z</time>
				<hdop>1.0</hdop>
			</trkpt>
			<trkpt lat="46.87541858" lon="6.74001775">
				<ele>658.9</ele>
				<time>2013-08-14T06:15:28Z</time>
				<hdop>1.0</hdop>
			</trkpt>
			<trkpt lat="46.87543014" lon="6.74001549">
				<ele>659.5</ele>
				<time>2013-08-14T06:15:29Z</time>
				<hdop>1.0</hdop>
			</trkpt>
			<trkpt lat="46.87544731" lon="6.74003228">
				<ele>659.8</ele>
				<time>2013-08-14T06:15:30Z</time>
				<hdop>1.0</hdop>
			</trkpt>
			<trkpt lat="46.87545628" lon="6.74001977">
				<ele>660.2</ele>
				<time>2013-08-14T06:15:31Z</time>
				<hdop>1.0</hdop>
			</trkpt>
			<trkpt lat="46.87546463" lon="6.74000782">
				<ele>660.1</ele>
				<time>2013-08-14T06:15:32Z</time>
				<hdop>1.0</hdop>
			</trkpt>
			<trkpt lat="46.87547499" lon="6.73999082">
				<ele>661.0</ele>
				<time>2013-08-14T06:15:33Z</time>
				<hdop>1.0</hdop>
			</trkpt>
			<trkpt lat="46.87548376" lon="6.73998152">
				<ele>661.3</ele>
				<time>2013-08-14T06:15:34Z</time>
				<hdop>1.0</hdop>
			</trkpt>
			<trkpt lat="46.87549438" lon="6.7399636">
				<ele>661.3</ele>
				<time>2013-08-14T06:15:35Z</time>
				<hdop>1.0</hdop>
			</trkpt>
			<trkpt lat="46.87550543" lon="6.7399497">
				<ele>661.5</ele>
				<time>2013-08-14T06:15:36Z</time>
				<hdop>1.0</hdop>
			</trkpt>
			<trkpt lat="46.87551446" lon="6.73993668">
				<ele>662.4</ele>
				<time>2013-08-14T06:15:37Z</time>
				<hdop>1.0</hdop>
			</trkpt>
			<trkpt lat="46.87553659" lon="6.73994021">
				<ele>661.7</ele>
				<time>2013-08-14T06:15:39Z</time>
				<hdop>1.0</hdop>
			</trkpt>
			<trkpt lat="46.87554848" lon="6.73993352">
				<ele>661.5</ele>
				<time>2013-08-14T06:15:40Z</time>
				<hdop>1.0</hdop>
			</trkpt>
			<trkpt lat="46.87556205" lon="6.73992393">
				<ele>661.5</ele>
				<time>2013-08-14T06:15:41Z</time>
				<hdop>1.0</hdop>
			</trkpt>
			<trkpt lat="46.87556975" lon="6.73991091">
				<ele>662.6</ele>
				<time>2013-08-14T06:15:42Z</time>
				<hdop>1.0</hdop>
			</trkpt>
			<trkpt lat="46.87557817" lon="6.73989111">
				<ele>662.5</ele>
				<time>2013-08-14T06:15:43Z</time>
				<hdop>1.0</hdop>
			</trkpt>
			<trkpt lat="46.87561865" lon="6.73987437">
				<ele>662.5</ele>
				<time>2013-08-14T06:15:45Z</time>
				<hdop>1.0</hdop>
			</trkpt>
			<trkpt lat="46.87563814" lon="6.7398747">
				<ele>662.1</ele>
				<time>2013-08-14T06:15:46Z</time>
				<hdop>1.0</hdop>
			</trkpt>
			<trkpt lat="46.87565438" lon="6.7398286">
				<ele>664.1</ele>
				<time>2013-08-14T06:15:47Z</time>
				<hdop>1.0</hdop>
			</trkpt>
			<trkpt lat="46.8756628" lon="6.73981631">
				<ele>664.3</ele>
				<time>2013-08-14T06:15:49Z</time>
				<hdop>1.0</hdop>
			</trkpt>
			<trkpt lat="46.87566935" lon="6.73980255">
				<ele>664.4</ele>
				<time>2013-08-14T06:15:50Z</time>
				<hdop>1.0</hdop>
			</trkpt>
			<trkpt lat="46.87567389" lon="6.73978508">
				<ele>665.5</ele>
				<time>2013-08-14T06:15:51Z</time>
				<hdop>1.0</hdop>
			</trkpt>
			<trkpt lat="46.87569216" lon="6.73977557">
				<ele>664.0</ele>
				<time>2013-08-14T06:15:53Z</time>
				<hdop>1.0</hdop>
			</trkpt>
			<trkpt lat="46.87570006" lon="6.7397582">
				<ele>664.7</ele>
				<time>2013-08-14T06:15:54Z</time>
				<hdop>1.0</hdop>
			</trkpt>
			<trkpt lat="46.87570547" lon="6.73973774">
				<ele>664.8</ele>
				<time>2013-08-14T06:15:55Z</time>
				<hdop>1.0</hdop>
			</trkpt>
			<trkpt lat="46.87571161" lon="6.73972651">
				<ele>664.4</ele>
				<time>2013-08-14T06:15:56Z</time>
				<hdop>1.0</hdop>
			</trkpt>
			<trkpt lat="46.87571444" lon="6.73971">
				<ele>664.4</ele>
				<time>2013-08-14T06:15:57Z</time>
				<hdop>1.0</hdop>
			</trkpt>
			<trkpt lat="46.87572589" lon="6.73968482">
				<ele>665.5</ele>
				<time>2013-08-14T06:15:59Z</time>
				<hdop>1.0</hdop>
			</trkpt>
			<trkpt lat="46.87573263" lon="6.73967697">
				<ele>665.3</ele>
				<time>2013-08-14T06:16:00Z</time>
				<hdop>1.0</hdop>
			</trkpt>
			<trkpt lat="46.87574758" lon="6.73965296">
				<ele>665.5</ele>
				<time>2013-08-14T06:16:02Z</time>
				<hdop>1.0</hdop>
			</trkpt>
			<trkpt lat="46.87576574" lon="6.73962044">
				<ele>664.8</ele>
				<time>2013-08-14T06:16:04Z</time>
				<hdop>1.0</hdop>
			</trkpt>
			<trkpt lat="46.87577054" lon="6.73961438">
				<ele>665.4</ele>
				<time>2013-08-14T06:16:05Z</time>
				<hdop>1.0</hdop>
			</trkpt>
			<trkpt lat="46.87578579" lon="6.73957203">
				<ele>666.2</ele>
				<time>2013-08-14T06:16:07Z</time>
				<hdop>1.0</hdop>
			</trkpt>
			<trkpt lat="46.87579494" lon="6.7395546">
				<ele>666.1</ele>
				<time>2013-08-14T06:16:08Z</time>
				<hdop>1.0</hdop>
			</trkpt>
			<trkpt lat="46.87580199" lon="6.73954202">
				<ele>666.5</ele>
				<time>2013-08-14T06:16:09Z</time>
				<hdop>1.0</hdop>
			</trkpt>
			<trkpt lat="46.87581769" lon="6.73952759">
				<ele>666.9</ele>
				<time>2013-08-14T06:16:10Z</time>
				<hdop>1.0</hdop>
			</trkpt>
			<trkpt lat="46.87584158" lon="6.73952536">
				<ele>668.2</ele>
				<time>2013-08-14T06:16:11Z</time>
				<hdop>1.0</hdop>
			</trkpt>
			<trkpt lat="46.87585791" lon="6.73951334">
				<ele>668.8</ele>
				<time>2013-08-14T06:16:13Z</time>
				<hdop>1.0</hdop>
			</trkpt>
			<trkpt lat="46.87583674" lon="6.73947296">
				<ele>666.8</ele>
				<time>2013-08-14T06:16:15Z</time>
				<hdop>1.0</hdop>
			</trkpt>
			<trkpt lat="46.87583596" lon="6.73945733">
				<ele>667.1</ele>
				<time>2013-08-14T06:16:16Z</time>
				<hdop>1.0</hdop>
			</trkpt>
			<trkpt lat="46.8758331" lon="6.73944621">
				<ele>667.2</ele>
				<time>2013-08-14T06:16:17Z</time>
				<hdop>1.0</hdop>
			</trkpt>
			<trkpt lat="46.87582821" lon="6.73944509">
				<ele>666.5</ele>
				<time>2013-08-14T06:16:18Z</time>
				<hdop>1.0</hdop>
			</trkpt>
			<trkpt lat="46.87581233" lon="6.73943181">
				<ele>666.1</ele>
				<time>2013-08-14T06:16:19Z</time>
				<hdop>1.0</hdop>
			</trkpt>
			<trkpt lat="46.8757956" lon="6.73942145">
				<ele>664.3</ele>
				<time>2013-08-14T06:16:20Z</time>
				<hdop>1.0</hdop>
			</trkpt>
			<trkpt lat="46.87578986" lon="6.7394133">
				<ele>663.8</ele>
				<time>2013-08-14T06:16:21Z</time>
				<hdop>1.0</hdop>
			</trkpt>
			<trkpt lat="46.87577986" lon="6.73940721">
				<ele>663.1</ele>
				<time>2013-08-14T06:16:22Z</time>
				<hdop>1.0</hdop>
			</trkpt>
			<trkpt lat="46.87577166" lon="6.73940023">
				<ele>662.9</ele>
				<time>2013-08-14T06:16:23Z</time>
				<hdop>1.0</hdop>
			</trkpt>
			<trkpt lat="46.87576318" lon="6.73939331">
				<ele>662.8</ele>
				<time>2013-08-14T06:16:24Z</time>
				<hdop>1.0</hdop>
			</trkpt>
			<trkpt lat="46.87575607" lon="6.73938493">
				<ele>662.8</ele>
				<time>2013-08-14T06:16:25Z</time>
				<hdop>1.0</hdop>
			</trkpt>
			<trkpt lat="46.87574131" lon="6.73937308">
				<ele>662.5</ele>
				<time>2013-08-14T06:16:26Z</time>
				<hdop>1.0</hdop>
			</trkpt>
			<trkpt lat="46.87573149" lon="6.73935802">
				<ele>662.6</ele>
				<time>2013-08-14T06:16:27Z</time>
				<hdop>1.0</hdop>
			</trkpt>
			<trkpt lat="46.87571739" lon="6.73934019">
				<ele>662.1</ele>
				<time>2013-08-14T06:16:28Z</time>
				<hdop>1.5</hdop>
			</trkpt>
			<trkpt lat="46.87571577" lon="6.7393541">
				<ele>661.7</ele>
				<time>2013-08-14T06:16:29Z</time>
				<hdop>1.0</hdop>
			</trkpt>
			<trkpt lat="46.87569881" lon="6.73935982">
				<ele>661.7</ele>
				<time>2013-08-14T06:16:30Z</time>
				<hdop>1.0</hdop>
			</trkpt>
			<trkpt lat="46.87567751" lon="6.73935803">
				<ele>661.4</ele>
				<time>2013-08-14T06:16:31Z</time>
				<hdop>1.0</hdop>
			</trkpt>
			<trkpt lat="46.8756683" lon="6.73935386">
				<ele>662.4</ele>
				<time>2013-08-14T06:16:32Z</time>
				<hdop>1.0</hdop>
			</trkpt>
			<trkpt lat="46.87564454" lon="6.73933011">
				<ele>662.4</ele>
				<time>2013-08-14T06:16:34Z</time>
				<hdop>1.0</hdop>
			</trkpt>
			<trkpt lat="46.87563289" lon="6.73932543">
				<ele>662.9</ele>
				<time>2013-08-14T06:16:35Z</time>
				<hdop>1.0</hdop>
			</trkpt>
			<trkpt lat="46.87562564" lon="6.73933338">
				<ele>661.6</ele>
				<time>2013-08-14T06:16:36Z</time>
				<hdop>1.0</hdop>
			</trkpt>
			<trkpt lat="46.87562368" lon="6.73933647">
				<ele>661.4</ele>
				<time>2013-08-14T06:16:37Z</time>
				<hdop>1.0</hdop>
			</trkpt>
			<trkpt lat="46.87561128" lon="6.73933138">
				<ele>661.0</ele>
				<time>2013-08-14T06:16:38Z</time>
				<hdop>1.0</hdop>
			</trkpt>
			<trkpt lat="46.87560194" lon="6.73932849">
				<ele>660.9</ele>
				<time>2013-08-14T06:16:39Z</time>
				<hdop>1.0</hdop>
			</trkpt>
			<trkpt lat="46.87559975" lon="6.73931734">
				<ele>661.3</ele>
				<time>2013-08-14T06:16:40Z</time>
				<hdop>1.0</hdop>
			</trkpt>
			<trkpt lat="46.87559041" lon="6.73933014">
				<ele>661.1</ele>
				<time>2013-08-14T06:16:42Z</time>
				<hdop>1.5</hdop>
			</trkpt>
			<trkpt lat="46.8755605" lon="6.7392916">
				<ele>660.1</ele>
				<time>2013-08-14T06:16:44Z</time>
				<hdop>1.5</hdop>
			</trkpt>
			<trkpt lat="46.87552296" lon="6.73932574">
				<ele>660.3</ele>
				<time>2013-08-14T06:16:46Z</time>
				<hdop>1.0</hdop>
			</trkpt>
			<trkpt lat="46.87551033" lon="6.73931749">
				<ele>660.6</ele>
				<time>2013-08-14T06:16:47Z</time>
				<hdop>1.0</hdop>
			</trkpt>
			<trkpt lat="46.87547831" lon="6.73929336">
				<ele>659.7</ele>
				<time>2013-08-14T06:16:49Z</time>
				<hdop>1.0</hdop>
			</trkpt>
			<trkpt lat="46.87546592" lon="6.73929599">
				<ele>660.0</ele>
				<time>2013-08-14T06:16:50Z</time>
				<hdop>1.0</hdop>
			</trkpt>
			<trkpt lat="46.87544597" lon="6.73929553">
				<ele>660.3</ele>
				<time>2013-08-14T06:16:51Z</time>
				<hdop>1.0</hdop>
			</trkpt>
			<trkpt lat="46.8754593" lon="6.7393121">
				<ele>662.8</ele>
				<time>2013-08-14T06:16:52Z</time>
				<hdop>1.0</hdop>
			</trkpt>
			<trkpt lat="46.87545532" lon="6.73932143">
				<ele>663.5</ele>
				<time>2013-08-14T06:16:53Z</time>
				<hdop>1.0</hdop>
			</trkpt>
			<trkpt lat="46.87544049" lon="6.73932182">
				<ele>664.3</ele>
				<time>2013-08-14T06:16:54Z</time>
				<hdop>1.0</hdop>
			</trkpt>
			<trkpt lat="46.87542698" lon="6.73932223">
				<ele>664.2</ele>
				<time>2013-08-14T06:16:55Z</time>
				<hdop>1.0</hdop>
			</trkpt>
			<trkpt lat="46.87541375" lon="6.73932616">
				<ele>663.9</ele>
				<time>2013-08-14T06:16:56Z</time>
				<hdop>1.0</hdop>
			</trkpt>
			<trkpt lat="46.87539826" lon="6.73932511">
				<ele>663.0</ele>
				<time>2013-08-14T06:16:57Z</time>
				<hdop>1.0</hdop>
			</trkpt>
			<trkpt lat="46.87538239" lon="6.73932284">
				<ele>662.9</ele>
				<time>2013-08-14T06:16:58Z</time>
				<hdop>1.0</hdop>
			</trkpt>
			<trkpt lat="46.87536406" lon="6.73932036">
				<ele>663.0</ele>
				<time>2013-08-14T06:16:59Z</time>
				<hdop>1.0</hdop>
			</trkpt>
			<trkpt lat="46.87534747" lon="6.73932238">
				<ele>663.0</ele>
				<time>2013-08-14T06:17:00Z</time>
				<hdop>1.0</hdop>
			</trkpt>
			<trkpt lat="46.8753296" lon="6.73931806">
				<ele>663.2</ele>
				<time>2013-08-14T06:17:01Z</time>
				<hdop>1.0</hdop>
			</trkpt>
			<trkpt lat="46.87531291" lon="6.73932153">
				<ele>662.6</ele>
				<time>2013-08-14T06:17:02Z</time>
				<hdop>1.0</hdop>
			</trkpt>
			<trkpt lat="46.87529319" lon="6.73931533">
				<ele>662.0</ele>
				<time>2013-08-14T06:17:03Z</time>
				<hdop>1.0</hdop>
			</trkpt>
			<trkpt lat="46.87527612" lon="6.73932029">
				<ele>661.6</ele>
				<time>2013-08-14T06:17:04Z</time>
				<hdop>1.0</hdop>
			</trkpt>
			<trkpt lat="46.87525673" lon="6.7393163">
				<ele>663.8</ele>
				<time>2013-08-14T06:17:05Z</time>
				<hdop>1.0</hdop>
			</trkpt>
			<trkpt lat="46.87523828" lon="6.73931044">
				<ele>664.2</ele>
				<time>2013-08-14T06:17:06Z</time>
				<hdop>1.0</hdop>
			</trkpt>
			<trkpt lat="46.87521851" lon="6.73931208">
				<ele>663.1</ele>
				<time>2013-08-14T06:17:07Z</time>
				<hdop>1.0</hdop>
			</trkpt>
			<trkpt lat="46.87519955" lon="6.73931017">
				<ele>663.3</ele>
				<time>2013-08-14T06:17:08Z</time>
				<hdop>1.0</hdop>
			</trkpt>
			<trkpt lat="46.87518508" lon="6.73930788">
				<ele>662.5</ele>
				<time>2013-08-14T06:17:09Z</time>
				<hdop>1.0</hdop>
			</trkpt>
			<trkpt lat="46.87517285" lon="6.73930344">
				<ele>662.4</ele>
				<time>2013-08-14T06:17:10Z</time>
				<hdop>1.0</hdop>
			</trkpt>
			<trkpt lat="46.87515292" lon="6.73929436">
				<ele>662.4</ele>
				<time>2013-08-14T06:17:11Z</time>
				<hdop>1.5</hdop>
			</trkpt>
			<trkpt lat="46.87513128" lon="6.73927743">
				<ele>661.6</ele>
				<time>2013-08-14T06:17:12Z</time>
				<hdop>1.0</hdop>
			</trkpt>
			<trkpt lat="46.87511175" lon="6.73926966">
				<ele>661.5</ele>
				<time>2013-08-14T06:17:13Z</time>
				<hdop>1.0</hdop>
			</trkpt>
			<trkpt lat="46.87509285" lon="6.73925842">
				<ele>661.2</ele>
				<time>2013-08-14T06:17:14Z</time>
				<hdop>1.0</hdop>
			</trkpt>
			<trkpt lat="46.87508087" lon="6.7392483">
				<ele>660.3</ele>
				<time>2013-08-14T06:17:15Z</time>
				<hdop>1.0</hdop>
			</trkpt>
			<trkpt lat="46.87507491" lon="6.73923451">
				<ele>659.8</ele>
				<time>2013-08-14T06:17:16Z</time>
				<hdop>1.0</hdop>
			</trkpt>
			<trkpt lat="46.87506614" lon="6.73922228">
				<ele>659.9</ele>
				<time>2013-08-14T06:17:17Z</time>
				<hdop>1.0</hdop>
			</trkpt>
			<trkpt lat="46.8750485" lon="6.73921213">
				<ele>659.3</ele>
				<time>2013-08-14T06:17:18Z</time>
				<hdop>1.0</hdop>
			</trkpt>
			<trkpt lat="46.87503463" lon="6.73919519">
				<ele>658.9</ele>
				<time>2013-08-14T06:17:19Z</time>
				<hdop>1.0</hdop>
			</trkpt>
			<trkpt lat="46.8750193" lon="6.73917885">
				<ele>659.0</ele>
				<time>2013-08-14T06:17:20Z</time>
				<hdop>1.0</hdop>
			</trkpt>
			<trkpt lat="46.8750063" lon="6.73915833">
				<ele>659.1</ele>
				<time>2013-08-14T06:17:21Z</time>
				<hdop>1.5</hdop>
			</trkpt>
			<trkpt lat="46.87499095" lon="6.73913788">
				<ele>659.5</ele>
				<time>2013-08-14T06:17:22Z</time>
				<hdop>1.5</hdop>
			</trkpt>
			<trkpt lat="46.87497962" lon="6.7391184">
				<ele>659.5</ele>
				<time>2013-08-14T06:17:23Z</time>
				<hdop>1.5</hdop>
			</trkpt>
			<trkpt lat="46.87497596" lon="6.73910272">
				<ele>660.3</ele>
				<time>2013-08-14T06:17:24Z</time>
				<hdop>1.0</hdop>
			</trkpt>
			<trkpt lat="46.87497332" lon="6.73907645">
				<ele>660.7</ele>
				<time>2013-08-14T06:17:25Z</time>
				<hdop>1.0</hdop>
			</trkpt>
			<trkpt lat="46.87496866" lon="6.73904652">
				<ele>661.2</ele>
				<time>2013-08-14T06:17:26Z</time>
				<hdop>1.0</hdop>
			</trkpt>
			<trkpt lat="46.87496282" lon="6.73902768">
				<ele>661.4</ele>
				<time>2013-08-14T06:17:27Z</time>
				<hdop>1.0</hdop>
			</trkpt>
			<trkpt lat="46.87495485" lon="6.73900838">
				<ele>661.8</ele>
				<time>2013-08-14T06:17:28Z</time>
				<hdop>1.0</hdop>
			</trkpt>
			<trkpt lat="46.87494942" lon="6.73898043">
				<ele>661.6</ele>
				<time>2013-08-14T06:17:29Z</time>
				<hdop>1.0</hdop>
			</trkpt>
			<trkpt lat="46.87495095" lon="6.73896278">
				<ele>661.8</ele>
				<time>2013-08-14T06:17:30Z</time>
				<hdop>1.0</hdop>
			</trkpt>
			<trkpt lat="46.87494058" lon="6.73894875">
				<ele>661.9</ele>
				<time>2013-08-14T06:17:31Z</time>
				<hdop>1.0</hdop>
			</trkpt>
			<trkpt lat="46.87493708" lon="6.73893704">
				<ele>661.9</ele>
				<time>2013-08-14T06:17:32Z</time>
				<hdop>1.0</hdop>
			</trkpt>
			<trkpt lat="46.87492983" lon="6.73892404">
				<ele>661.3</ele>
				<time>2013-08-14T06:17:33Z</time>
				<hdop>1.5</hdop>
			</trkpt>
			<trkpt lat="46.8749317" lon="6.73889993">
				<ele>661.5</ele>
				<time>2013-08-14T06:17:34Z</time>
				<hdop>1.0</hdop>
			</trkpt>
			<trkpt lat="46.87493397" lon="6.73887192">
				<ele>661.8</ele>
				<time>2013-08-14T06:17:35Z</time>
				<hdop>1.0</hdop>
			</trkpt>
			<trkpt lat="46.87493486" lon="6.73885284">
				<ele>661.3</ele>
				<time>2013-08-14T06:17:36Z</time>
				<hdop>1.0</hdop>
			</trkpt>
			<trkpt lat="46.87493162" lon="6.73883294">
				<ele>661.3</ele>
				<time>2013-08-14T06:17:37Z</time>
				<hdop>1.0</hdop>
			</trkpt>
			<trkpt lat="46.87493134" lon="6.73880638">
				<ele>661.5</ele>
				<time>2013-08-14T06:17:38Z</time>
				<hdop>1.0</hdop>
			</trkpt>
			<trkpt lat="46.87493004" lon="6.73878089">
				<ele>661.2</ele>
				<time>2013-08-14T06:17:39Z</time>
				<hdop>1.0</hdop>
			</trkpt>
			<trkpt lat="46.87493029" lon="6.73876204">
				<ele>661.1</ele>
				<time>2013-08-14T06:17:40Z</time>
				<hdop>1.0</hdop>
			</trkpt>
			<trkpt lat="46.87494428" lon="6.73874812">
				<ele>661.5</ele>
				<time>2013-08-14T06:17:41Z</time>
				<hdop>1.0</hdop>
			</trkpt>
			<trkpt lat="46.8749406" lon="6.73871917">
				<ele>661.4</ele>
				<time>2013-08-14T06:17:42Z</time>
				<hdop>1.0</hdop>
			</trkpt>
			<trkpt lat="46.87494394" lon="6.73870629">
				<ele>661.4</ele>
				<time>2013-08-14T06:17:43Z</time>
				<hdop>1.0</hdop>
			</trkpt>
			<trkpt lat="46.87494773" lon="6.73868212">
				<ele>661.1</ele>
				<time>2013-08-14T06:17:44Z</time>
				<hdop>1.0</hdop>
			</trkpt>
			<trkpt lat="46.87494102" lon="6.73865503">
				<ele>661.5</ele>
				<time>2013-08-14T06:17:45Z</time>
				<hdop>1.0</hdop>
			</trkpt>
			<trkpt lat="46.87494585" lon="6.73863308">
				<ele>661.1</ele>
				<time>2013-08-14T06:17:46Z</time>
				<hdop>1.0</hdop>
			</trkpt>
			<trkpt lat="46.87495313" lon="6.73861799">
				<ele>661.4</ele>
				<time>2013-08-14T06:17:47Z</time>
				<hdop>1.0</hdop>
			</trkpt>
			<trkpt lat="46.87495455" lon="6.73859512">
				<ele>661.6</ele>
				<time>2013-08-14T06:17:48Z</time>
				<hdop>1.0</hdop>
			</trkpt>
			<trkpt lat="46.8749583" lon="6.73856873">
				<ele>662.0</ele>
				<time>2013-08-14T06:17:49Z</time>
				<hdop>1.0</hdop>
			</trkpt>
			<trkpt lat="46.87496324" lon="6.73853997">
				<ele>662.8</ele>
				<time>2013-08-14T06:17:50Z</time>
				<hdop>1.0</hdop>
			</trkpt>
			<trkpt lat="46.8749683" lon="6.73851488">
				<ele>662.7</ele>
				<time>2013-08-14T06:17:51Z</time>
				<hdop>1.0</hdop>
			</trkpt>
			<trkpt lat="46.87496999" lon="6.73849533">
				<ele>662.5</ele>
				<time>2013-08-14T06:17:52Z</time>
				<hdop>1.0</hdop>
			</trkpt>
			<trkpt lat="46.87497043" lon="6.73847456">
				<ele>662.4</ele>
				<time>2013-08-14T06:17:53Z</time>
				<hdop>1.0</hdop>
			</trkpt>
			<trkpt lat="46.8749726" lon="6.73845473">
				<ele>662.0</ele>
				<time>2013-08-14T06:17:54Z</time>
				<hdop>1.0</hdop>
			</trkpt>
			<trkpt lat="46.87497543" lon="6.73844608">
				<ele>661.7</ele>
				<time>2013-08-14T06:17:55Z</time>
				<hdop>1.5</hdop>
			</trkpt>
			<trkpt lat="46.87498416" lon="6.73843226">
				<ele>661.2</ele>
				<time>2013-08-14T06:17:56Z</time>
				<hdop>1.0</hdop>
			</trkpt>
			<trkpt lat="46.87499272" lon="6.73840737">
				<ele>662.9</ele>
				<time>2013-08-14T06:17:57Z</time>
				<hdop>1.0</hdop>
			</trkpt>
			<trkpt lat="46.87499079" lon="6.73840517">
				<ele>663.0</ele>
				<time>2013-08-14T06:17:58Z</time>
				<hdop>1.0</hdop>
			</trkpt>
			<trkpt lat="46.87499693" lon="6.73838348">
				<ele>662.4</ele>
				<time>2013-08-14T06:17:59Z</time>
				<hdop>1.0</hdop>
			</trkpt>
			<trkpt lat="46.87500282" lon="6.73836461">
				<ele>662.8</ele>
				<time>2013-08-14T06:18:00Z</time>
				<hdop>1.0</hdop>
			</trkpt>
			<trkpt lat="46.87500781" lon="6.73834697">
				<ele>663.1</ele>
				<time>2013-08-14T06:18:01Z</time>
				<hdop>1.0</hdop>
			</trkpt>
			<trkpt lat="46.87501418" lon="6.73833646">
				<ele>662.5</ele>
				<time>2013-08-14T06:18:02Z</time>
				<hdop>1.0</hdop>
			</trkpt>
			<trkpt lat="46.87502101" lon="6.73831821">
				<ele>663.0</ele>
				<time>2013-08-14T06:18:03Z</time>
				<hdop>1.5</hdop>
			</trkpt>
			<trkpt lat="46.87503315" lon="6.73828412">
				<ele>662.7</ele>
				<time>2013-08-14T06:18:04Z</time>
				<hdop>1.5</hdop>
			</trkpt>
			<trkpt lat="46.87505359" lon="6.73828451">
				<ele>662.2</ele>
				<time>2013-08-14T06:18:05Z</time>
				<hdop>1.0</hdop>
			</trkpt>
			<trkpt lat="46.87506965" lon="6.73827549">
				<ele>662.1</ele>
				<time>2013-08-14T06:18:06Z</time>
				<hdop>1.0</hdop>
			</trkpt>
			<trkpt lat="46.87507763" lon="6.73826728">
				<ele>662.6</ele>
				<time>2013-08-14T06:18:07Z</time>
				<hdop>1.0</hdop>
			</trkpt>
			<trkpt lat="46.87508896" lon="6.73824639">
				<ele>663.4</ele>
				<time>2013-08-14T06:18:08Z</time>
				<hdop>1.0</hdop>
			</trkpt>
			<trkpt lat="46.87510193" lon="6.73824069">
				<ele>663.2</ele>
				<time>2013-08-14T06:18:09Z</time>
				<hdop>1.0</hdop>
			</trkpt>
			<trkpt lat="46.87511475" lon="6.73823135">
				<ele>663.9</ele>
				<time>2013-08-14T06:18:10Z</time>
				<hdop>1.0</hdop>
			</trkpt>
			<trkpt lat="46.87512622" lon="6.73822241">
				<ele>664.2</ele>
				<time>2013-08-14T06:18:11Z</time>
				<hdop>1.0</hdop>
			</trkpt>
			<trkpt lat="46.87513084" lon="6.73820607">
				<ele>664.0</ele>
				<time>2013-08-14T06:18:12Z</time>
				<hdop>1.0</hdop>
			</trkpt>
			<trkpt lat="46.87514119" lon="6.73819104">
				<ele>665.0</ele>
				<time>2013-08-14T06:18:13Z</time>
				<hdop>1.0</hdop>
			</trkpt>
			<trkpt lat="46.8751495" lon="6.73818103">
				<ele>665.7</ele>
				<time>2013-08-14T06:18:14Z</time>
				<hdop>1.0</hdop>
			</trkpt>
			<trkpt lat="46.87516152" lon="6.73817757">
				<ele>666.9</ele>
				<time>2013-08-14T06:18:15Z</time>
				<hdop>1.0</hdop>
			</trkpt>
			<trkpt lat="46.87516748" lon="6.73817367">
				<ele>668.0</ele>
				<time>2013-08-14T06:18:16Z</time>
				<hdop>1.5</hdop>
			</trkpt>
			<trkpt lat="46.87517268" lon="6.73817527">
				<ele>669.0</ele>
				<time>2013-08-14T06:18:17Z</time>
				<hdop>1.5</hdop>
			</trkpt>
			<trkpt lat="46.87518715" lon="6.73816734">
				<ele>669.9</ele>
				<time>2013-08-14T06:18:18Z</time>
				<hdop>1.5</hdop>
			</trkpt>
			<trkpt lat="46.87520602" lon="6.73816036">
				<ele>670.2</ele>
				<time>2013-08-14T06:18:19Z</time>
				<hdop>1.5</hdop>
			</trkpt>
			<trkpt lat="46.87522028" lon="6.73816601">
				<ele>670.8</ele>
				<time>2013-08-14T06:18:20Z</time>
				<hdop>2.0</hdop>
			</trkpt>
			<trkpt lat="46.87522803" lon="6.73816321">
				<ele>671.8</ele>
				<time>2013-08-14T06:18:21Z</time>
				<hdop>2.0</hdop>
			</trkpt>
			<trkpt lat="46.87523522" lon="6.73815407">
				<ele>672.3</ele>
				<time>2013-08-14T06:18:22Z</time>
				<hdop>2.0</hdop>
			</trkpt>
			<trkpt lat="46.87524505" lon="6.73814406">
				<ele>673.4</ele>
				<time>2013-08-14T06:18:23Z</time>
				<hdop>1.5</hdop>
			</trkpt>
			<trkpt lat="46.87525561" lon="6.73814655">
				<ele>674.7</ele>
				<time>2013-08-14T06:18:24Z</time>
				<hdop>1.5</hdop>
			</trkpt>
			<trkpt lat="46.8752692" lon="6.73815027">
				<ele>674.8</ele>
				<time>2013-08-14T06:18:25Z</time>
				<hdop>1.0</hdop>
			</trkpt>
			<trkpt lat="46.87528078" lon="6.73814189">
				<ele>675.2</ele>
				<time>2013-08-14T06:18:26Z</time>
				<hdop>1.5</hdop>
			</trkpt>
			<trkpt lat="46.87529101" lon="6.7381284">
				<ele>676.1</ele>
				<time>2013-08-14T06:18:27Z</time>
				<hdop>1.0</hdop>
			</trkpt>
			<trkpt lat="46.87530075" lon="6.73813035">
				<ele>676.1</ele>
				<time>2013-08-14T06:18:28Z</time>
				<hdop>1.0</hdop>
			</trkpt>
			<trkpt lat="46.8753107" lon="6.73813599">
				<ele>676.5</ele>
				<time>2013-08-14T06:18:29Z</time>
				<hdop>1.0</hdop>
			</trkpt>
			<trkpt lat="46.87532298" lon="6.73813083">
				<ele>676.5</ele>
				<time>2013-08-14T06:18:30Z</time>
				<hdop>1.5</hdop>
			</trkpt>
			<trkpt lat="46.8753341" lon="6.73812997">
				<ele>676.3</ele>
				<time>2013-08-14T06:18:31Z</time>
				<hdop>1.5</hdop>
			</trkpt>
			<trkpt lat="46.87534091" lon="6.73812861">
				<ele>676.4</ele>
				<time>2013-08-14T06:18:32Z</time>
				<hdop>1.5</hdop>
			</trkpt>
			<trkpt lat="46.87534822" lon="6.73811407">
				<ele>676.1</ele>
				<time>2013-08-14T06:18:33Z</time>
				<hdop>2.0</hdop>
			</trkpt>
			<trkpt lat="46.87536012" lon="6.73809221">
				<ele>676.2</ele>
				<time>2013-08-14T06:18:34Z</time>
				<hdop>2.0</hdop>
			</trkpt>
			<trkpt lat="46.87537436" lon="6.73811058">
				<ele>675.6</ele>
				<time>2013-08-14T06:18:35Z</time>
				<hdop>2.0</hdop>
			</trkpt>
			<trkpt lat="46.87537498" lon="6.7381131">
				<ele>675.0</ele>
				<time>2013-08-14T06:18:36Z</time>
				<hdop>1.5</hdop>
			</trkpt>
			<trkpt lat="46.87537386" lon="6.73812233">
				<ele>674.7</ele>
				<time>2013-08-14T06:18:37Z</time>
				<hdop>1.5</hdop>
			</trkpt>
			<trkpt lat="46.87539026" lon="6.73809753">
				<ele>674.4</ele>
				<time>2013-08-14T06:18:38Z</time>
				<hdop>1.5</hdop>
			</trkpt>
			<trkpt lat="46.87540043" lon="6.73807411">
				<ele>674.0</ele>
				<time>2013-08-14T06:18:39Z</time>
				<hdop>1.5</hdop>
			</trkpt>
			<trkpt lat="46.87541182" lon="6.73804939">
				<ele>674.5</ele>
				<time>2013-08-14T06:18:40Z</time>
				<hdop>1.5</hdop>
			</trkpt>
			<trkpt lat="46.87541268" lon="6.73802353">
				<ele>674.2</ele>
				<time>2013-08-14T06:18:41Z</time>
				<hdop>1.5</hdop>
			</trkpt>
			<trkpt lat="46.87540823" lon="6.73800629">
				<ele>674.1</ele>
				<time>2013-08-14T06:18:42Z</time>
				<hdop>1.5</hdop>
			</trkpt>
			<trkpt lat="46.87540819" lon="6.73800355">
				<ele>674.0</ele>
				<time>2013-08-14T06:18:43Z</time>
				<hdop>2.0</hdop>
			</trkpt>
			<trkpt lat="46.87540105" lon="6.73801711">
				<ele>674.1</ele>
				<time>2013-08-14T06:18:44Z</time>
				<hdop>1.5</hdop>
			</trkpt>
			<trkpt lat="46.87539653" lon="6.73800727">
				<ele>674.2</ele>
				<time>2013-08-14T06:18:45Z</time>
				<hdop>2.0</hdop>
			</trkpt>
			<trkpt lat="46.87541334" lon="6.73798527">
				<ele>674.0</ele>
				<time>2013-08-14T06:18:46Z</time>
				<hdop>2.0</hdop>
			</trkpt>
			<trkpt lat="46.87541838" lon="6.73796966">
				<ele>673.6</ele>
				<time>2013-08-14T06:18:47Z</time>
				<hdop>3.0</hdop>
			</trkpt>
			<trkpt lat="46.87544584" lon="6.73794619">
				<ele>673.4</ele>
				<time>2013-08-14T06:18:48Z</time>
				<hdop>3.0</hdop>
			</trkpt>
			<trkpt lat="46.87545938" lon="6.73793512">
				<ele>672.0</ele>
				<time>2013-08-14T06:18:49Z</time>
				<hdop>3.0</hdop>
			</trkpt>
			<trkpt lat="46.87547925" lon="6.7379087">
				<ele>671.4</ele>
				<time>2013-08-14T06:18:50Z</time>
				<hdop>2.0</hdop>
			</trkpt>
			<trkpt lat="46.87548141" lon="6.73788198">
				<ele>671.3</ele>
				<time>2013-08-14T06:18:51Z</time>
				<hdop>2.0</hdop>
			</trkpt>
			<trkpt lat="46.87548749" lon="6.73786842">
				<ele>671.6</ele>
				<time>2013-08-14T06:18:52Z</time>
				<hdop>2.0</hdop>
			</trkpt>
			<trkpt lat="46.8754904" lon="6.73786903">
				<ele>671.6</ele>
				<time>2013-08-14T06:18:53Z</time>
				<hdop>1.5</hdop>
			</trkpt>
			<trkpt lat="46.87548175" lon="6.73786138">
				<ele>671.3</ele>
				<time>2013-08-14T06:18:54Z</time>
				<hdop>1.5</hdop>
			</trkpt>
			<trkpt lat="46.8754959" lon="6.73781994">
				<ele>672.2</ele>
				<time>2013-08-14T06:18:55Z</time>
				<hdop>1.5</hdop>
			</trkpt>
			<trkpt lat="46.87550237" lon="6.7378148">
				<ele>672.9</ele>
				<time>2013-08-14T06:18:56Z</time>
				<hdop>1.5</hdop>
			</trkpt>
			<trkpt lat="46.87550376" lon="6.73781267">
				<ele>673.3</ele>
				<time>2013-08-14T06:18:57Z</time>
				<hdop>1.5</hdop>
			</trkpt>
			<trkpt lat="46.87550125" lon="6.73780228">
				<ele>674.8</ele>
				<time>2013-08-14T06:18:58Z</time>
				<hdop>1.0</hdop>
			</trkpt>
			<trkpt lat="46.87551822" lon="6.7377875">
				<ele>674.2</ele>
				<time>2013-08-14T06:18:59Z</time>
				<hdop>1.0</hdop>
			</trkpt>
			<trkpt lat="46.87552548" lon="6.73777071">
				<ele>674.3</ele>
				<time>2013-08-14T06:19:00Z</time>
				<hdop>1.0</hdop>
			</trkpt>
			<trkpt lat="46.87553965" lon="6.73774889">
				<ele>674.2</ele>
				<time>2013-08-14T06:19:01Z</time>
				<hdop>1.0</hdop>
			</trkpt>
			<trkpt lat="46.87554645" lon="6.73773647">
				<ele>673.7</ele>
				<time>2013-08-14T06:19:02Z</time>
				<hdop>1.0</hdop>
			</trkpt>
			<trkpt lat="46.87555467" lon="6.73771007">
				<ele>675.3</ele>
				<time>2013-08-14T06:19:03Z</time>
				<hdop>1.0</hdop>
			</trkpt>
			<trkpt lat="46.87556174" lon="6.73768566">
				<ele>675.3</ele>
				<time>2013-08-14T06:19:04Z</time>
				<hdop>1.0</hdop>
			</trkpt>
			<trkpt lat="46.87556288" lon="6.73766972">
				<ele>676.1</ele>
				<time>2013-08-14T06:19:05Z</time>
				<hdop>1.0</hdop>
			</trkpt>
			<trkpt lat="46.87555494" lon="6.73765574">
				<ele>677.6</ele>
				<time>2013-08-14T06:19:06Z</time>
				<hdop>1.5</hdop>
			</trkpt>
			<trkpt lat="46.87555854" lon="6.73764951">
				<ele>677.9</ele>
				<time>2013-08-14T06:19:07Z</time>
				<hdop>1.5</hdop>
			</trkpt>
			<trkpt lat="46.87556694" lon="6.73760883">
				<ele>679.1</ele>
				<time>2013-08-14T06:19:08Z</time>
				<hdop>1.5</hdop>
			</trkpt>
			<trkpt lat="46.8755743" lon="6.73760221">
				<ele>679.4</ele>
				<time>2013-08-14T06:19:09Z</time>
				<hdop>1.5</hdop>
			</trkpt>
			<trkpt lat="46.87557453" lon="6.73759046">
				<ele>680.0</ele>
				<time>2013-08-14T06:19:10Z</time>
				<hdop>1.5</hdop>
			</trkpt>
			<trkpt lat="46.87557963" lon="6.73757668">
				<ele>682.0</ele>
				<time>2013-08-14T06:19:11Z</time>
				<hdop>1.0</hdop>
			</trkpt>
			<trkpt lat="46.87556845" lon="6.73756087">
				<ele>683.5</ele>
				<time>2013-08-14T06:19:12Z</time>
				<hdop>1.0</hdop>
			</trkpt>
			<trkpt lat="46.87556894" lon="6.73754701">
				<ele>683.9</ele>
				<time>2013-08-14T06:19:13Z</time>
				<hdop>1.0</hdop>
			</trkpt>
			<trkpt lat="46.87557121" lon="6.73752308">
				<ele>684.3</ele>
				<time>2013-08-14T06:19:14Z</time>
				<hdop>1.0</hdop>
			</trkpt>
			<trkpt lat="46.87557656" lon="6.73748695">
				<ele>684.5</ele>
				<time>2013-08-14T06:19:15Z</time>
				<hdop>1.5</hdop>
			</trkpt>
			<trkpt lat="46.87557187" lon="6.73746719">
				<ele>684.4</ele>
				<time>2013-08-14T06:19:16Z</time>
				<hdop>1.0</hdop>
			</trkpt>
			<trkpt lat="46.87557597" lon="6.73747764">
				<ele>684.0</ele>
				<time>2013-08-14T06:19:17Z</time>
				<hdop>1.0</hdop>
			</trkpt>
			<trkpt lat="46.87554907" lon="6.73744347">
				<ele>684.9</ele>
				<time>2013-08-14T06:19:18Z</time>
				<hdop>1.0</hdop>
			</trkpt>
			<trkpt lat="46.87554946" lon="6.7374171">
				<ele>685.5</ele>
				<time>2013-08-14T06:19:19Z</time>
				<hdop>1.0</hdop>
			</trkpt>
			<trkpt lat="46.87555327" lon="6.7373985">
				<ele>685.4</ele>
				<time>2013-08-14T06:19:20Z</time>
				<hdop>1.0</hdop>
			</trkpt>
			<trkpt lat="46.87556445" lon="6.73739469">
				<ele>685.0</ele>
				<time>2013-08-14T06:19:21Z</time>
				<hdop>1.0</hdop>
			</trkpt>
			<trkpt lat="46.87556083" lon="6.73738472">
				<ele>684.7</ele>
				<time>2013-08-14T06:19:22Z</time>
				<hdop>1.0</hdop>
			</trkpt>
			<trkpt lat="46.87555472" lon="6.73737258">
				<ele>684.8</ele>
				<time>2013-08-14T06:19:23Z</time>
				<hdop>1.0</hdop>
			</trkpt>
			<trkpt lat="46.8755556" lon="6.73736096">
				<ele>684.3</ele>
				<time>2013-08-14T06:19:24Z</time>
				<hdop>1.0</hdop>
			</trkpt>
			<trkpt lat="46.87555218" lon="6.73735222">
				<ele>684.2</ele>
				<time>2013-08-14T06:19:25Z</time>
				<hdop>1.0</hdop>
			</trkpt>
			<trkpt lat="46.87554389" lon="6.73734404">
				<ele>684.4</ele>
				<time>2013-08-14T06:19:26Z</time>
				<hdop>1.0</hdop>
			</trkpt>
			<trkpt lat="46.87553435" lon="6.73733288">
				<ele>683.7</ele>
				<time>2013-08-14T06:19:27Z</time>
				<hdop>1.0</hdop>
			</trkpt>
			<trkpt lat="46.87552877" lon="6.73731842">
				<ele>685.0</ele>
				<time>2013-08-14T06:19:28Z</time>
				<hdop>1.0</hdop>
			</trkpt>
			<trkpt lat="46.87552712" lon="6.73730273">
				<ele>685.6</ele>
				<time>2013-08-14T06:19:29Z</time>
				<hdop>1.0</hdop>
			</trkpt>
			<trkpt lat="46.87552572" lon="6.73728568">
				<ele>685.6</ele>
				<time>2013-08-14T06:19:30Z</time>
				<hdop>1.0</hdop>
			</trkpt>
			<trkpt lat="46.87552259" lon="6.73728463">
				<ele>686.6</ele>
				<time>2013-08-14T06:19:31Z</time>
				<hdop>1.0</hdop>
			</trkpt>
			<trkpt lat="46.87551275" lon="6.73726398">
				<ele>687.0</ele>
				<time>2013-08-14T06:19:32Z</time>
				<hdop>1.0</hdop>
			</trkpt>
			<trkpt lat="46.87548931" lon="6.73724661">
				<ele>688.3</ele>
				<time>2013-08-14T06:19:33Z</time>
				<hdop>1.0</hdop>
			</trkpt>
			<trkpt lat="46.87548721" lon="6.73723199">
				<ele>689.3</ele>
				<time>2013-08-14T06:19:34Z</time>
				<hdop>1.0</hdop>
			</trkpt>
			<trkpt lat="46.87548707" lon="6.73722308">
				<ele>690.1</ele>
				<time>2013-08-14T06:19:35Z</time>
				<hdop>1.0</hdop>
			</trkpt>
			<trkpt lat="46.87548041" lon="6.73722011">
				<ele>689.9</ele>
				<time>2013-08-14T06:19:36Z</time>
				<hdop>1.0</hdop>
			</trkpt>
			<trkpt lat="46.87545824" lon="6.73719884">
				<ele>688.5</ele>
				<time>2013-08-14T06:19:37Z</time>
				<hdop>1.0</hdop>
			</trkpt>
			<trkpt lat="46.87543928" lon="6.73718886">
				<ele>687.3</ele>
				<time>2013-08-14T06:19:38Z</time>
				<hdop>1.0</hdop>
			</trkpt>
			<trkpt lat="46.8754232" lon="6.73717474">
				<ele>687.0</ele>
				<time>2013-08-14T06:19:39Z</time>
				<hdop>1.0</hdop>
			</trkpt>
			<trkpt lat="46.87541462" lon="6.73715763">
				<ele>686.5</ele>
				<time>2013-08-14T06:19:40Z</time>
				<hdop>1.0</hdop>
			</trkpt>
			<trkpt lat="46.87541681" lon="6.73714347">
				<ele>686.1</ele>
				<time>2013-08-14T06:19:41Z</time>
				<hdop>1.0</hdop>
			</trkpt>
			<trkpt lat="46.87541254" lon="6.73712397">
				<ele>685.8</ele>
				<time>2013-08-14T06:19:42Z</time>
				<hdop>1.0</hdop>
			</trkpt>
			<trkpt lat="46.87541127" lon="6.73711712">
				<ele>686.2</ele>
				<time>2013-08-14T06:19:43Z</time>
				<hdop>1.0</hdop>
			</trkpt>
			<trkpt lat="46.87540718" lon="6.73710555">
				<ele>686.6</ele>
				<time>2013-08-14T06:19:44Z</time>
				<hdop>1.0</hdop>
			</trkpt>
			<trkpt lat="46.87541008" lon="6.7371045">
				<ele>686.7</ele>
				<time>2013-08-14T06:19:45Z</time>
				<hdop>1.0</hdop>
			</trkpt>
			<trkpt lat="46.87541862" lon="6.73708855">
				<ele>688.2</ele>
				<time>2013-08-14T06:19:46Z</time>
				<hdop>1.0</hdop>
			</trkpt>
			<trkpt lat="46.87542002" lon="6.73709123">
				<ele>689.0</ele>
				<time>2013-08-14T06:19:47Z</time>
				<hdop>1.0</hdop>
			</trkpt>
			<trkpt lat="46.87542188" lon="6.73709247">
				<ele>689.0</ele>
				<time>2013-08-14T06:19:48Z</time>
				<hdop>1.0</hdop>
			</trkpt>
			<trkpt lat="46.87542188" lon="6.73709247">
				<ele>689.0</ele>
				<time>2013-08-14T06:19:49Z</time>
				<hdop>1.0</hdop>
			</trkpt>
			<trkpt lat="46.87543169" lon="6.73708883">
				<ele>688.3</ele>
				<time>2013-08-14T06:19:50Z</time>
				<hdop>1.0</hdop>
			</trkpt>
			<trkpt lat="46.87543942" lon="6.73708463">
				<ele>688.0</ele>
				<time>2013-08-14T06:19:51Z</time>
				<hdop>1.0</hdop>
			</trkpt>
			<trkpt lat="46.87544747" lon="6.7370808">
				<ele>687.8</ele>
				<time>2013-08-14T06:19:52Z</time>
				<hdop>1.0</hdop>
			</trkpt>
			<trkpt lat="46.87545004" lon="6.73707512">
				<ele>687.5</ele>
				<time>2013-08-14T06:19:53Z</time>
				<hdop>1.5</hdop>
			</trkpt>
			<trkpt lat="46.87546008" lon="6.73707273">
				<ele>687.2</ele>
				<time>2013-08-14T06:19:54Z</time>
				<hdop>1.0</hdop>
			</trkpt>
			<trkpt lat="46.87546654" lon="6.73706781">
				<ele>687.1</ele>
				<time>2013-08-14T06:19:55Z</time>
				<hdop>1.0</hdop>
			</trkpt>
			<trkpt lat="46.87547842" lon="6.73706613">
				<ele>687.2</ele>
				<time>2013-08-14T06:19:56Z</time>
				<hdop>1.0</hdop>
			</trkpt>
			<trkpt lat="46.87548291" lon="6.73706375">
				<ele>687.3</ele>
				<time>2013-08-14T06:19:57Z</time>
				<hdop>1.0</hdop>
			</trkpt>
			<trkpt lat="46.8754891" lon="6.73706505">
				<ele>687.4</ele>
				<time>2013-08-14T06:19:58Z</time>
				<hdop>1.0</hdop>
			</trkpt>
			<trkpt lat="46.87549029" lon="6.73706478">
				<ele>687.5</ele>
				<time>2013-08-14T06:19:59Z</time>
				<hdop>1.0</hdop>
			</trkpt>
			<trkpt lat="46.87548998" lon="6.73706394">
				<ele>687.4</ele>
				<time>2013-08-14T06:20:00Z</time>
				<hdop>1.0</hdop>
			</trkpt>
			<trkpt lat="46.87549007" lon="6.73706375">
				<ele>687.4</ele>
				<time>2013-08-14T06:20:01Z</time>
				<hdop>1.0</hdop>
			</trkpt>
			<trkpt lat="46.87549004" lon="6.73706363">
				<ele>687.4</ele>
				<time>2013-08-14T06:20:02Z</time>
				<hdop>1.0</hdop>
			</trkpt>
			<trkpt lat="46.87548998" lon="6.73706351">
				<ele>687.4</ele>
				<time>2013-08-14T06:20:03Z</time>
				<hdop>1.0</hdop>
			</trkpt>
			<trkpt lat="46.87548998" lon="6.73706341">
				<ele>687.4</ele>
				<time>2013-08-14T06:20:04Z</time>
				<hdop>1.5</hdop>
			</trkpt>
			<trkpt lat="46.87548995" lon="6.73706334">
				<ele>687.4</ele>
				<time>2013-08-14T06:20:05Z</time>
				<hdop>1.0</hdop>
			</trkpt>
			<trkpt lat="46.87548991" lon="6.73706324">
				<ele>687.4</ele>
				<time>2013-08-14T06:20:06Z</time>
				<hdop>1.5</hdop>
			</trkpt>
			<trkpt lat="46.87548986" lon="6.73706316">
				<ele>687.4</ele>
				<time>2013-08-14T06:20:07Z</time>
				<hdop>1.5</hdop>
			</trkpt>
			<trkpt lat="46.87548971" lon="6.73706305">
				<ele>687.4</ele>
				<time>2013-08-14T06:20:08Z</time>
				<hdop>1.5</hdop>
			</trkpt>
			<trkpt lat="46.87548964" lon="6.73706298">
				<ele>687.4</ele>
				<time>2013-08-14T06:20:09Z</time>
				<hdop>1.5</hdop>
			</trkpt>
			<trkpt lat="46.87548959" lon="6.73706287">
				<ele>687.3</ele>
				<time>2013-08-14T06:20:10Z</time>
				<hdop>1.5</hdop>
			</trkpt>
			<trkpt lat="46.87548956" lon="6.73706283">
				<ele>687.3</ele>
				<time>2013-08-14T06:20:11Z</time>
				<hdop>1.5</hdop>
			</trkpt>
			<trkpt lat="46.87548957" lon="6.73706281">
				<ele>687.4</ele>
				<time>2013-08-14T06:20:12Z</time>
				<hdop>1.5</hdop>
			</trkpt>
			<trkpt lat="46.87548951" lon="6.73706275">
				<ele>687.3</ele>
				<time>2013-08-14T06:20:13Z</time>
				<hdop>1.5</hdop>
			</trkpt>
			<trkpt lat="46.87548947" lon="6.73706269">
				<ele>687.3</ele>
				<time>2013-08-14T06:20:14Z</time>
				<hdop>1.5</hdop>
			</trkpt>
			<trkpt lat="46.8754894" lon="6.73706256">
				<ele>687.3</ele>
				<time>2013-08-14T06:20:16Z</time>
				<hdop>1.5</hdop>
			</trkpt>
			<trkpt lat="46.87548944" lon="6.73706253">
				<ele>687.4</ele>
				<time>2013-08-14T06:20:17Z</time>
				<hdop>1.5</hdop>
			</trkpt>
			<trkpt lat="46.87548933" lon="6.73706235">
				<ele>687.4</ele>
				<time>2013-08-14T06:20:19Z</time>
				<hdop>1.5</hdop>
			</trkpt>
			<trkpt lat="46.87548929" lon="6.73706225">
				<ele>687.4</ele>
				<time>2013-08-14T06:20:20Z</time>
				<hdop>1.5</hdop>
			</trkpt>
			<trkpt lat="46.87548924" lon="6.73706218">
				<ele>687.4</ele>
				<time>2013-08-14T06:20:21Z</time>
				<hdop>1.5</hdop>
			</trkpt>
			<trkpt lat="46.87548917" lon="6.73706212">
				<ele>687.4</ele>
				<time>2013-08-14T06:20:22Z</time>
				<hdop>1.5</hdop>
			</trkpt>
			<trkpt lat="46.8754891" lon="6.73706201">
				<ele>687.4</ele>
				<time>2013-08-14T06:20:23Z</time>
				<hdop>1.5</hdop>
			</trkpt>
			<trkpt lat="46.87548907" lon="6.73706189">
				<ele>687.4</ele>
				<time>2013-08-14T06:20:24Z</time>
				<hdop>1.5</hdop>
			</trkpt>
			<trkpt lat="46.87548903" lon="6.73706182">
				<ele>687.4</ele>
				<time>2013-08-14T06:20:25Z</time>
				<hdop>2.0</hdop>
			</trkpt>
			<trkpt lat="46.87548898" lon="6.73706167">
				<ele>687.3</ele>
				<time>2013-08-14T06:20:26Z</time>
				<hdop>2.0</hdop>
			</trkpt>
			<trkpt lat="46.87548909" lon="6.73706165">
				<ele>687.4</ele>
				<time>2013-08-14T06:20:28Z</time>
				<hdop>1.5</hdop>
			</trkpt>
			<trkpt lat="46.87553025" lon="6.73704516">
				<ele>686.3</ele>
				<time>2013-08-14T06:20:29Z</time>
				<hdop>1.5</hdop>
			</trkpt>
			<trkpt lat="46.87553025" lon="6.73704516">
				<ele>686.3</ele>
				<time>2013-08-14T06:20:30Z</time>
				<hdop>2.0</hdop>
			</trkpt>
			<trkpt lat="46.87554576" lon="6.73701783">
				<ele>686.8</ele>
				<time>2013-08-14T06:20:32Z</time>
				<hdop>1.5</hdop>
			</trkpt>
			<trkpt lat="46.87555241" lon="6.73701681">
				<ele>687.3</ele>
				<time>2013-08-14T06:20:33Z</time>
				<hdop>1.5</hdop>
			</trkpt>
			<trkpt lat="46.87554994" lon="6.73701015">
				<ele>687.5</ele>
				<time>2013-08-14T06:20:34Z</time>
				<hdop>1.5</hdop>
			</trkpt>
			<trkpt lat="46.87556808" lon="6.73701285">
				<ele>687.8</ele>
				<time>2013-08-14T06:20:35Z</time>
				<hdop>1.5</hdop>
			</trkpt>
			<trkpt lat="46.87557936" lon="6.73701432">
				<ele>687.9</ele>
				<time>2013-08-14T06:20:36Z</time>
				<hdop>1.5</hdop>
			</trkpt>
			<trkpt lat="46.87559463" lon="6.73702146">
				<ele>688.5</ele>
				<time>2013-08-14T06:20:37Z</time>
				<hdop>1.5</hdop>
			</trkpt>
			<trkpt lat="46.87559622" lon="6.73702207">
				<ele>688.6</ele>
				<time>2013-08-14T06:20:38Z</time>
				<hdop>1.5</hdop>
			</trkpt>
			<trkpt lat="46.87559675" lon="6.73702002">
				<ele>688.6</ele>
				<time>2013-08-14T06:20:39Z</time>
				<hdop>1.5</hdop>
			</trkpt>
			<trkpt lat="46.87559555" lon="6.73701967">
				<ele>688.6</ele>
				<time>2013-08-14T06:20:40Z</time>
				<hdop>1.0</hdop>
			</trkpt>
			<trkpt lat="46.87559557" lon="6.73701967">
				<ele>688.6</ele>
				<time>2013-08-14T06:20:41Z</time>
				<hdop>1.0</hdop>
			</trkpt>
			<trkpt lat="46.87559604" lon="6.73701996">
				<ele>688.6</ele>
				<time>2013-08-14T06:20:43Z</time>
				<hdop>1.0</hdop>
			</trkpt>
			<trkpt lat="46.87559501" lon="6.73701984">
				<ele>688.6</ele>
				<time>2013-08-14T06:20:44Z</time>
				<hdop>1.0</hdop>
			</trkpt>
			<trkpt lat="46.87559519" lon="6.7370199">
				<ele>688.7</ele>
				<time>2013-08-14T06:20:45Z</time>
				<hdop>1.0</hdop>
			</trkpt>
			<trkpt lat="46.87559483" lon="6.73701997">
				<ele>688.7</ele>
				<time>2013-08-14T06:20:46Z</time>
				<hdop>1.0</hdop>
			</trkpt>
			<trkpt lat="46.87559449" lon="6.73701985">
				<ele>688.7</ele>
				<time>2013-08-14T06:20:47Z</time>
				<hdop>1.0</hdop>
			</trkpt>
			<trkpt lat="46.87559404" lon="6.73701978">
				<ele>688.6</ele>
				<time>2013-08-14T06:20:48Z</time>
				<hdop>1.0</hdop>
			</trkpt>
			<trkpt lat="46.87559367" lon="6.73701959">
				<ele>688.6</ele>
				<time>2013-08-14T06:20:49Z</time>
				<hdop>1.0</hdop>
			</trkpt>
			<trkpt lat="46.87559558" lon="6.73702051">
				<ele>688.5</ele>
				<time>2013-08-14T06:20:50Z</time>
				<hdop>1.0</hdop>
			</trkpt>
			<trkpt lat="46.87563876" lon="6.7370577">
				<ele>687.8</ele>
				<time>2013-08-14T06:20:51Z</time>
				<hdop>1.5</hdop>
			</trkpt>
			<trkpt lat="46.87572402" lon="6.73712873">
				<ele>688.8</ele>
				<time>2013-08-14T06:20:52Z</time>
				<hdop>1.5</hdop>
			</trkpt>
			<trkpt lat="46.87574403" lon="6.73713405">
				<ele>689.4</ele>
				<time>2013-08-14T06:20:53Z</time>
				<hdop>1.5</hdop>
			</trkpt>
			<trkpt lat="46.87575805" lon="6.73714272">
				<ele>689.4</ele>
				<time>2013-08-14T06:20:54Z</time>
				<hdop>1.5</hdop>
			</trkpt>
			<trkpt lat="46.87575948" lon="6.73715112">
				<ele>689.8</ele>
				<time>2013-08-14T06:20:55Z</time>
				<hdop>1.5</hdop>
			</trkpt>
			<trkpt lat="46.87577846" lon="6.73715522">
				<ele>690.2</ele>
				<time>2013-08-14T06:20:56Z</time>
				<hdop>1.5</hdop>
			</trkpt>
			<trkpt lat="46.87579385" lon="6.7371534">
				<ele>690.5</ele>
				<time>2013-08-14T06:20:57Z</time>
				<hdop>1.5</hdop>
			</trkpt>
			<trkpt lat="46.87580998" lon="6.73715544">
				<ele>691.3</ele>
				<time>2013-08-14T06:20:58Z</time>
				<hdop>1.5</hdop>
			</trkpt>
			<trkpt lat="46.87582384" lon="6.73716047">
				<ele>691.4</ele>
				<time>2013-08-14T06:20:59Z</time>
				<hdop>1.0</hdop>
			</trkpt>
			<trkpt lat="46.87583547" lon="6.7371603">
				<ele>692.0</ele>
				<time>2013-08-14T06:21:00Z</time>
				<hdop>1.0</hdop>
			</trkpt>
			<trkpt lat="46.87585405" lon="6.73716414">
				<ele>692.8</ele>
				<time>2013-08-14T06:21:01Z</time>
				<hdop>1.0</hdop>
			</trkpt>
			<trkpt lat="46.87585575" lon="6.73716361">
				<ele>692.9</ele>
				<time>2013-08-14T06:21:02Z</time>
				<hdop>1.5</hdop>
			</trkpt>
			<trkpt lat="46.87585669" lon="6.73716411">
				<ele>692.9</ele>
				<time>2013-08-14T06:21:03Z</time>
				<hdop>1.5</hdop>
			</trkpt>
			<trkpt lat="46.87585782" lon="6.73716463">
				<ele>693.0</ele>
				<time>2013-08-14T06:21:04Z</time>
				<hdop>1.5</hdop>
			</trkpt>
			<trkpt lat="46.87585794" lon="6.73716478">
				<ele>693.0</ele>
				<time>2013-08-14T06:21:05Z</time>
				<hdop>1.0</hdop>
			</trkpt>
			<trkpt lat="46.87585739" lon="6.73716439">
				<ele>693.0</ele>
				<time>2013-08-14T06:21:06Z</time>
				<hdop>1.0</hdop>
			</trkpt>
			<trkpt lat="46.87585762" lon="6.73716421">
				<ele>693.0</ele>
				<time>2013-08-14T06:21:07Z</time>
				<hdop>1.0</hdop>
			</trkpt>
			<trkpt lat="46.87585764" lon="6.73716408">
				<ele>693.0</ele>
				<time>2013-08-14T06:21:08Z</time>
				<hdop>1.0</hdop>
			</trkpt>
			<trkpt lat="46.87585824" lon="6.73716396">
				<ele>693.0</ele>
				<time>2013-08-14T06:21:09Z</time>
				<hdop>1.0</hdop>
			</trkpt>
			<trkpt lat="46.87586115" lon="6.73716089">
				<ele>693.0</ele>
				<time>2013-08-14T06:21:10Z</time>
				<hdop>1.0</hdop>
			</trkpt>
			<trkpt lat="46.87592406" lon="6.73713442">
				<ele>693.5</ele>
				<time>2013-08-14T06:21:11Z</time>
				<hdop>1.5</hdop>
			</trkpt>
			<trkpt lat="46.87594705" lon="6.73709884">
				<ele>695.1</ele>
				<time>2013-08-14T06:21:12Z</time>
				<hdop>1.5</hdop>
			</trkpt>
			<trkpt lat="46.87597957" lon="6.73709141">
				<ele>696.1</ele>
				<time>2013-08-14T06:21:13Z</time>
				<hdop>1.5</hdop>
			</trkpt>
			<trkpt lat="46.87602189" lon="6.73709037">
				<ele>696.0</ele>
				<time>2013-08-14T06:21:14Z</time>
				<hdop>1.0</hdop>
			</trkpt>
			<trkpt lat="46.87604917" lon="6.73708469">
				<ele>696.8</ele>
				<time>2013-08-14T06:21:15Z</time>
				<hdop>1.0</hdop>
			</trkpt>
			<trkpt lat="46.87606289" lon="6.73706334">
				<ele>697.1</ele>
				<time>2013-08-14T06:21:16Z</time>
				<hdop>1.5</hdop>
			</trkpt>
			<trkpt lat="46.8760719" lon="6.73705661">
				<ele>697.1</ele>
				<time>2013-08-14T06:21:17Z</time>
				<hdop>1.5</hdop>
			</trkpt>
			<trkpt lat="46.87615063" lon="6.7370287">
				<ele>696.9</ele>
				<time>2013-08-14T06:21:18Z</time>
				<hdop>1.5</hdop>
			</trkpt>
			<trkpt lat="46.87616219" lon="6.73702274">
				<ele>697.6</ele>
				<time>2013-08-14T06:21:19Z</time>
				<hdop>1.5</hdop>
			</trkpt>
			<trkpt lat="46.87618168" lon="6.73701226">
				<ele>698.0</ele>
				<time>2013-08-14T06:21:20Z</time>
				<hdop>1.5</hdop>
			</trkpt>
			<trkpt lat="46.87620687" lon="6.7369926">
				<ele>699.4</ele>
				<time>2013-08-14T06:21:21Z</time>
				<hdop>1.0</hdop>
			</trkpt>
			<trkpt lat="46.8762239" lon="6.73698872">
				<ele>699.3</ele>
				<time>2013-08-14T06:21:22Z</time>
				<hdop>1.0</hdop>
			</trkpt>
			<trkpt lat="46.87624136" lon="6.73697166">
				<ele>698.6</ele>
				<time>2013-08-14T06:21:23Z</time>
				<hdop>1.0</hdop>
			</trkpt>
			<trkpt lat="46.87624827" lon="6.73694891">
				<ele>698.4</ele>
				<time>2013-08-14T06:21:24Z</time>
				<hdop>1.0</hdop>
			</trkpt>
			<trkpt lat="46.87624784" lon="6.7369463">
				<ele>699.0</ele>
				<time>2013-08-14T06:21:25Z</time>
				<hdop>1.0</hdop>
			</trkpt>
			<trkpt lat="46.8762114" lon="6.73690863">
				<ele>698.4</ele>
				<time>2013-08-14T06:21:26Z</time>
				<hdop>1.0</hdop>
			</trkpt>
			<trkpt lat="46.87621696" lon="6.73690546">
				<ele>698.5</ele>
				<time>2013-08-14T06:21:27Z</time>
				<hdop>1.0</hdop>
			</trkpt>
			<trkpt lat="46.87621935" lon="6.73688286">
				<ele>699.8</ele>
				<time>2013-08-14T06:21:28Z</time>
				<hdop>1.0</hdop>
			</trkpt>
			<trkpt lat="46.87622519" lon="6.73686828">
				<ele>700.0</ele>
				<time>2013-08-14T06:21:29Z</time>
				<hdop>1.0</hdop>
			</trkpt>
			<trkpt lat="46.87624329" lon="6.73686691">
				<ele>700.5</ele>
				<time>2013-08-14T06:21:30Z</time>
				<hdop>1.0</hdop>
			</trkpt>
			<trkpt lat="46.87623886" lon="6.73684889">
				<ele>699.0</ele>
				<time>2013-08-14T06:21:31Z</time>
				<hdop>1.0</hdop>
			</trkpt>
			<trkpt lat="46.87623109" lon="6.73684304">
				<ele>698.3</ele>
				<time>2013-08-14T06:21:32Z</time>
				<hdop>1.0</hdop>
			</trkpt>
			<trkpt lat="46.87623302" lon="6.73682937">
				<ele>698.8</ele>
				<time>2013-08-14T06:21:33Z</time>
				<hdop>1.0</hdop>
			</trkpt>
			<trkpt lat="46.87622492" lon="6.73682085">
				<ele>699.8</ele>
				<time>2013-08-14T06:21:34Z</time>
				<hdop>1.0</hdop>
			</trkpt>
			<trkpt lat="46.87623369" lon="6.73680738">
				<ele>701.1</ele>
				<time>2013-08-14T06:21:35Z</time>
				<hdop>1.0</hdop>
			</trkpt>
			<trkpt lat="46.87624668" lon="6.73678916">
				<ele>702.0</ele>
				<time>2013-08-14T06:21:36Z</time>
				<hdop>1.0</hdop>
			</trkpt>
			<trkpt lat="46.87625115" lon="6.73678164">
				<ele>702.1</ele>
				<time>2013-08-14T06:21:37Z</time>
				<hdop>1.0</hdop>
			</trkpt>
			<trkpt lat="46.8762545" lon="6.7367826">
				<ele>702.4</ele>
				<time>2013-08-14T06:21:38Z</time>
				<hdop>1.0</hdop>
			</trkpt>
			<trkpt lat="46.87624769" lon="6.73677466">
				<ele>700.1</ele>
				<time>2013-08-14T06:21:40Z</time>
				<hdop>1.0</hdop>
			</trkpt>
			<trkpt lat="46.8762446" lon="6.73678301">
				<ele>700.2</ele>
				<time>2013-08-14T06:21:41Z</time>
				<hdop>1.0</hdop>
			</trkpt>
			<trkpt lat="46.8762518" lon="6.73679502">
				<ele>699.5</ele>
				<time>2013-08-14T06:21:42Z</time>
				<hdop>1.0</hdop>
			</trkpt>
			<trkpt lat="46.8762518" lon="6.73679653">
				<ele>698.8</ele>
				<time>2013-08-14T06:21:43Z</time>
				<hdop>1.0</hdop>
			</trkpt>
			<trkpt lat="46.87624959" lon="6.73677433">
				<ele>698.3</ele>
				<time>2013-08-14T06:21:44Z</time>
				<hdop>1.5</hdop>
			</trkpt>
			<trkpt lat="46.87624544" lon="6.73675624">
				<ele>698.4</ele>
				<time>2013-08-14T06:21:45Z</time>
				<hdop>1.5</hdop>
			</trkpt>
			<trkpt lat="46.87624294" lon="6.73674023">
				<ele>698.4</ele>
				<time>2013-08-14T06:21:46Z</time>
				<hdop>1.0</hdop>
			</trkpt>
			<trkpt lat="46.87623584" lon="6.73675011">
				<ele>698.9</ele>
				<time>2013-08-14T06:21:47Z</time>
				<hdop>1.5</hdop>
			</trkpt>
			<trkpt lat="46.87623909" lon="6.73673473">
				<ele>698.3</ele>
				<time>2013-08-14T06:21:49Z</time>
				<hdop>1.5</hdop>
			</trkpt>
			<trkpt lat="46.87627447" lon="6.73670661">
				<ele>699.8</ele>
				<time>2013-08-14T06:21:50Z</time>
				<hdop>1.5</hdop>
			</trkpt>
			<trkpt lat="46.87626752" lon="6.73670105">
				<ele>699.3</ele>
				<time>2013-08-14T06:21:52Z</time>
				<hdop>1.5</hdop>
			</trkpt>
			<trkpt lat="46.8762645" lon="6.73664509">
				<ele>698.9</ele>
				<time>2013-08-14T06:21:54Z</time>
				<hdop>1.5</hdop>
			</trkpt>
			<trkpt lat="46.87625915" lon="6.73660272">
				<ele>699.0</ele>
				<time>2013-08-14T06:21:56Z</time>
				<hdop>1.5</hdop>
			</trkpt>
			<trkpt lat="46.87627759" lon="6.73653862">
				<ele>699.4</ele>
				<time>2013-08-14T06:21:57Z</time>
				<hdop>1.5</hdop>
			</trkpt>
			<trkpt lat="46.87627733" lon="6.73652423">
				<ele>699.5</ele>
				<time>2013-08-14T06:21:58Z</time>
				<hdop>1.5</hdop>
			</trkpt>
			<trkpt lat="46.87628682" lon="6.73650948">
				<ele>698.9</ele>
				<time>2013-08-14T06:21:59Z</time>
				<hdop>1.5</hdop>
			</trkpt>
			<trkpt lat="46.87629389" lon="6.73653017">
				<ele>698.8</ele>
				<time>2013-08-14T06:22:00Z</time>
				<hdop>1.5</hdop>
			</trkpt>
			<trkpt lat="46.8762983" lon="6.73652467">
				<ele>698.8</ele>
				<time>2013-08-14T06:22:01Z</time>
				<hdop>1.5</hdop>
			</trkpt>
			<trkpt lat="46.87631217" lon="6.73649803">
				<ele>698.2</ele>
				<time>2013-08-14T06:22:02Z</time>
				<hdop>1.5</hdop>
			</trkpt>
			<trkpt lat="46.87634988" lon="6.73647137">
				<ele>698.4</ele>
				<time>2013-08-14T06:22:03Z</time>
				<hdop>1.5</hdop>
			</trkpt>
			<trkpt lat="46.87636695" lon="6.73646583">
				<ele>699.2</ele>
				<time>2013-08-14T06:22:05Z</time>
				<hdop>1.5</hdop>
			</trkpt>
			<trkpt lat="46.87639126" lon="6.73642556">
				<ele>700.9</ele>
				<time>2013-08-14T06:22:06Z</time>
				<hdop>1.5</hdop>
			</trkpt>
			<trkpt lat="46.87639421" lon="6.73642161">
				<ele>700.8</ele>
				<time>2013-08-14T06:22:07Z</time>
				<hdop>1.5</hdop>
			</trkpt>
			<trkpt lat="46.87642259" lon="6.73637479">
				<ele>702.0</ele>
				<time>2013-08-14T06:22:09Z</time>
				<hdop>1.5</hdop>
			</trkpt>
			<trkpt lat="46.87642722" lon="6.73637034">
				<ele>702.0</ele>
				<time>2013-08-14T06:22:10Z</time>
				<hdop>1.5</hdop>
			</trkpt>
			<trkpt lat="46.87643452" lon="6.73631184">
				<ele>701.4</ele>
				<time>2013-08-14T06:22:12Z</time>
				<hdop>1.0</hdop>
			</trkpt>
			<trkpt lat="46.87644443" lon="6.73630512">
				<ele>700.7</ele>
				<time>2013-08-14T06:22:13Z</time>
				<hdop>1.0</hdop>
			</trkpt>
			<trkpt lat="46.8764514" lon="6.73630605">
				<ele>701.3</ele>
				<time>2013-08-14T06:22:14Z</time>
				<hdop>1.0</hdop>
			</trkpt>
			<trkpt lat="46.87645993" lon="6.73629731">
				<ele>701.5</ele>
				<time>2013-08-14T06:22:15Z</time>
				<hdop>1.0</hdop>
			</trkpt>
			<trkpt lat="46.87648019" lon="6.73630157">
				<ele>699.9</ele>
				<time>2013-08-14T06:22:16Z</time>
				<hdop>1.5</hdop>
			</trkpt>
			<trkpt lat="46.87648315" lon="6.73628272">
				<ele>700.5</ele>
				<time>2013-08-14T06:22:17Z</time>
				<hdop>1.5</hdop>
			</trkpt>
			<trkpt lat="46.87648197" lon="6.7362607">
				<ele>700.2</ele>
				<time>2013-08-14T06:22:18Z</time>
				<hdop>1.5</hdop>
			</trkpt>
			<trkpt lat="46.87649341" lon="6.7362607">
				<ele>700.5</ele>
				<time>2013-08-14T06:22:19Z</time>
				<hdop>1.5</hdop>
			</trkpt>
			<trkpt lat="46.87651628" lon="6.73623942">
				<ele>701.4</ele>
				<time>2013-08-14T06:22:20Z</time>
				<hdop>1.5</hdop>
			</trkpt>
			<trkpt lat="46.87652908" lon="6.73623112">
				<ele>701.7</ele>
				<time>2013-08-14T06:22:21Z</time>
				<hdop>1.5</hdop>
			</trkpt>
			<trkpt lat="46.87654482" lon="6.73621879">
				<ele>701.1</ele>
				<time>2013-08-14T06:22:22Z</time>
				<hdop>1.5</hdop>
			</trkpt>
			<trkpt lat="46.87652899" lon="6.73618715">
				<ele>699.2</ele>
				<time>2013-08-14T06:22:23Z</time>
				<hdop>1.5</hdop>
			</trkpt>
			<trkpt lat="46.87653847" lon="6.73618106">
				<ele>698.6</ele>
				<time>2013-08-14T06:22:24Z</time>
				<hdop>1.5</hdop>
			</trkpt>
			<trkpt lat="46.87656963" lon="6.73618198">
				<ele>698.0</ele>
				<time>2013-08-14T06:22:26Z</time>
				<hdop>1.5</hdop>
			</trkpt>
			<trkpt lat="46.87658978" lon="6.7361582">
				<ele>698.1</ele>
				<time>2013-08-14T06:22:28Z</time>
				<hdop>1.5</hdop>
			</trkpt>
			<trkpt lat="46.87660314" lon="6.73613059">
				<ele>699.6</ele>
				<time>2013-08-14T06:22:30Z</time>
				<hdop>2.0</hdop>
			</trkpt>
			<trkpt lat="46.87661391" lon="6.73612316">
				<ele>701.2</ele>
				<time>2013-08-14T06:22:32Z</time>
				<hdop>1.5</hdop>
			</trkpt>
			<trkpt lat="46.87661605" lon="6.73610816">
				<ele>701.3</ele>
				<time>2013-08-14T06:22:33Z</time>
				<hdop>2.0</hdop>
			</trkpt>
			<trkpt lat="46.87661382" lon="6.73610884">
				<ele>701.3</ele>
				<time>2013-08-14T06:22:34Z</time>
				<hdop>2.0</hdop>
			</trkpt>
			<trkpt lat="46.87662479" lon="6.73610654">
				<ele>701.2</ele>
				<time>2013-08-14T06:22:35Z</time>
				<hdop>1.5</hdop>
			</trkpt>
			<trkpt lat="46.87664873" lon="6.73608986">
				<ele>700.9</ele>
				<time>2013-08-14T06:22:36Z</time>
				<hdop>1.5</hdop>
			</trkpt>
			<trkpt lat="46.87665838" lon="6.73607665">
				<ele>701.0</ele>
				<time>2013-08-14T06:22:37Z</time>
				<hdop>1.5</hdop>
			</trkpt>
			<trkpt lat="46.87667015" lon="6.73603276">
				<ele>701.6</ele>
				<time>2013-08-14T06:22:39Z</time>
				<hdop>2.0</hdop>
			</trkpt>
			<trkpt lat="46.87665738" lon="6.73600867">
				<ele>702.2</ele>
				<time>2013-08-14T06:22:41Z</time>
				<hdop>3.0</hdop>
			</trkpt>
			<trkpt lat="46.87665322" lon="6.73599342">
				<ele>702.4</ele>
				<time>2013-08-14T06:22:42Z</time>
				<hdop>2.0</hdop>
			</trkpt>
			<trkpt lat="46.87666516" lon="6.73598766">
				<ele>702.3</ele>
				<time>2013-08-14T06:22:43Z</time>
				<hdop>2.0</hdop>
			</trkpt>
			<trkpt lat="46.87665433" lon="6.7359866">
				<ele>703.5</ele>
				<time>2013-08-14T06:22:45Z</time>
				<hdop>2.0</hdop>
			</trkpt>
			<trkpt lat="46.8766658" lon="6.73597306">
				<ele>704.4</ele>
				<time>2013-08-14T06:22:46Z</time>
				<hdop>2.0</hdop>
			</trkpt>
			<trkpt lat="46.87666952" lon="6.73595752">
				<ele>704.2</ele>
				<time>2013-08-14T06:22:47Z</time>
				<hdop>2.0</hdop>
			</trkpt>
			<trkpt lat="46.87665293" lon="6.73595094">
				<ele>704.4</ele>
				<time>2013-08-14T06:22:48Z</time>
				<hdop>2.0</hdop>
			</trkpt>
			<trkpt lat="46.87666097" lon="6.735919">
				<ele>703.9</ele>
				<time>2013-08-14T06:22:49Z</time>
				<hdop>2.0</hdop>
			</trkpt>
			<trkpt lat="46.8766632" lon="6.73591181">
				<ele>703.9</ele>
				<time>2013-08-14T06:22:50Z</time>
				<hdop>3.0</hdop>
			</trkpt>
			<trkpt lat="46.8767122" lon="6.73587457">
				<ele>704.2</ele>
				<time>2013-08-14T06:22:51Z</time>
				<hdop>2.0</hdop>
			</trkpt>
			<trkpt lat="46.87673172" lon="6.73587086">
				<ele>704.0</ele>
				<time>2013-08-14T06:22:52Z</time>
				<hdop>2.0</hdop>
			</trkpt>
			<trkpt lat="46.87669697" lon="6.73588237">
				<ele>703.9</ele>
				<time>2013-08-14T06:22:53Z</time>
				<hdop>2.0</hdop>
			</trkpt>
			<trkpt lat="46.87667457" lon="6.73589903">
				<ele>703.7</ele>
				<time>2013-08-14T06:22:54Z</time>
				<hdop>2.0</hdop>
			</trkpt>
			<trkpt lat="46.87667728" lon="6.73589561">
				<ele>703.2</ele>
				<time>2013-08-14T06:22:55Z</time>
				<hdop>1.5</hdop>
			</trkpt>
			<trkpt lat="46.876625" lon="6.73588707">
				<ele>702.9</ele>
				<time>2013-08-14T06:22:57Z</time>
				<hdop>2.0</hdop>
			</trkpt>
			<trkpt lat="46.8766559" lon="6.73587356">
				<ele>703.2</ele>
				<time>2013-08-14T06:22:58Z</time>
				<hdop>2.0</hdop>
			</trkpt>
			<trkpt lat="46.87665962" lon="6.7358549">
				<ele>703.5</ele>
				<time>2013-08-14T06:22:59Z</time>
				<hdop>1.5</hdop>
			</trkpt>
			<trkpt lat="46.87666527" lon="6.7358378">
				<ele>703.3</ele>
				<time>2013-08-14T06:23:00Z</time>
				<hdop>1.5</hdop>
			</trkpt>
			<trkpt lat="46.87666642" lon="6.73582857">
				<ele>703.4</ele>
				<time>2013-08-14T06:23:01Z</time>
				<hdop>2.0</hdop>
			</trkpt>
			<trkpt lat="46.87670999" lon="6.73574505">
				<ele>702.0</ele>
				<time>2013-08-14T06:23:03Z</time>
				<hdop>1.5</hdop>
			</trkpt>
			<trkpt lat="46.87671158" lon="6.73573426">
				<ele>702.2</ele>
				<time>2013-08-14T06:23:04Z</time>
				<hdop>1.5</hdop>
			</trkpt>
			<trkpt lat="46.87673122" lon="6.73568665">
				<ele>704.3</ele>
				<time>2013-08-14T06:23:06Z</time>
				<hdop>1.5</hdop>
			</trkpt>
			<trkpt lat="46.87671535" lon="6.73566853">
				<ele>705.7</ele>
				<time>2013-08-14T06:23:07Z</time>
				<hdop>1.5</hdop>
			</trkpt>
			<trkpt lat="46.87671268" lon="6.73565806">
				<ele>706.3</ele>
				<time>2013-08-14T06:23:08Z</time>
				<hdop>1.5</hdop>
			</trkpt>
			<trkpt lat="46.87676531" lon="6.73568016">
				<ele>707.4</ele>
				<time>2013-08-14T06:23:09Z</time>
				<hdop>1.5</hdop>
			</trkpt>
			<trkpt lat="46.87679163" lon="6.73569214">
				<ele>708.3</ele>
				<time>2013-08-14T06:23:10Z</time>
				<hdop>1.5</hdop>
			</trkpt>
			<trkpt lat="46.87681482" lon="6.73569505">
				<ele>707.9</ele>
				<time>2013-08-14T06:23:12Z</time>
				<hdop>1.5</hdop>
			</trkpt>
			<trkpt lat="46.87682927" lon="6.73568389">
				<ele>707.7</ele>
				<time>2013-08-14T06:23:13Z</time>
				<hdop>1.5</hdop>
			</trkpt>
			<trkpt lat="46.87684122" lon="6.73569015">
				<ele>707.8</ele>
				<time>2013-08-14T06:23:14Z</time>
				<hdop>1.5</hdop>
			</trkpt>
			<trkpt lat="46.87682849" lon="6.73566504">
				<ele>708.9</ele>
				<time>2013-08-14T06:23:15Z</time>
				<hdop>1.5</hdop>
			</trkpt>
			<trkpt lat="46.87683127" lon="6.73566015">
				<ele>709.4</ele>
				<time>2013-08-14T06:23:16Z</time>
				<hdop>1.5</hdop>
			</trkpt>
			<trkpt lat="46.87683689" lon="6.73565346">
				<ele>708.4</ele>
				<time>2013-08-14T06:23:17Z</time>
				<hdop>1.5</hdop>
			</trkpt>
			<trkpt lat="46.87684805" lon="6.73561065">
				<ele>710.7</ele>
				<time>2013-08-14T06:23:19Z</time>
				<hdop>1.5</hdop>
			</trkpt>
			<trkpt lat="46.87685735" lon="6.73558845">
				<ele>711.8</ele>
				<time>2013-08-14T06:23:20Z</time>
				<hdop>1.5</hdop>
			</trkpt>
			<trkpt lat="46.87684318" lon="6.73554679">
				<ele>711.8</ele>
				<time>2013-08-14T06:23:21Z</time>
				<hdop>1.5</hdop>
			</trkpt>
			<trkpt lat="46.87684997" lon="6.73551899">
				<ele>711.5</ele>
				<time>2013-08-14T06:23:22Z</time>
				<hdop>1.5</hdop>
			</trkpt>
			<trkpt lat="46.87684487" lon="6.73547813">
				<ele>710.9</ele>
				<time>2013-08-14T06:23:24Z</time>
				<hdop>2.0</hdop>
			</trkpt>
			<trkpt lat="46.87686322" lon="6.7354392">
				<ele>711.7</ele>
				<time>2013-08-14T06:23:25Z</time>
				<hdop>1.5</hdop>
			</trkpt>
			<trkpt lat="46.87687962" lon="6.7354482">
				<ele>711.9</ele>
				<time>2013-08-14T06:23:26Z</time>
				<hdop>1.5</hdop>
			</trkpt>
			<trkpt lat="46.87688515" lon="6.73542794">
				<ele>712.3</ele>
				<time>2013-08-14T06:23:27Z</time>
				<hdop>1.5</hdop>
			</trkpt>
			<trkpt lat="46.87690646" lon="6.73541025">
				<ele>710.8</ele>
				<time>2013-08-14T06:23:28Z</time>
				<hdop>1.5</hdop>
			</trkpt>
			<trkpt lat="46.87691533" lon="6.73538933">
				<ele>710.6</ele>
				<time>2013-08-14T06:23:29Z</time>
				<hdop>1.5</hdop>
			</trkpt>
			<trkpt lat="46.87694097" lon="6.73538858">
				<ele>710.6</ele>
				<time>2013-08-14T06:23:30Z</time>
				<hdop>1.5</hdop>
			</trkpt>
			<trkpt lat="46.87693885" lon="6.73537749">
				<ele>709.8</ele>
				<time>2013-08-14T06:23:31Z</time>
				<hdop>1.5</hdop>
			</trkpt>
			<trkpt lat="46.87694891" lon="6.73536605">
				<ele>709.5</ele>
				<time>2013-08-14T06:23:32Z</time>
				<hdop>1.5</hdop>
			</trkpt>
			<trkpt lat="46.87695888" lon="6.7353615">
				<ele>709.3</ele>
				<time>2013-08-14T06:23:33Z</time>
				<hdop>2.0</hdop>
			</trkpt>
			<trkpt lat="46.87697757" lon="6.73534178">
				<ele>708.2</ele>
				<time>2013-08-14T06:23:34Z</time>
				<hdop>1.5</hdop>
			</trkpt>
			<trkpt lat="46.87699931" lon="6.7353436">
				<ele>707.2</ele>
				<time>2013-08-14T06:23:35Z</time>
				<hdop>1.5</hdop>
			</trkpt>
			<trkpt lat="46.876982" lon="6.73531619">
				<ele>708.9</ele>
				<time>2013-08-14T06:23:36Z</time>
				<hdop>1.0</hdop>
			</trkpt>
			<trkpt lat="46.87699576" lon="6.73530675">
				<ele>709.1</ele>
				<time>2013-08-14T06:23:38Z</time>
				<hdop>1.0</hdop>
			</trkpt>
			<trkpt lat="46.87700787" lon="6.73530002">
				<ele>708.6</ele>
				<time>2013-08-14T06:23:39Z</time>
				<hdop>1.0</hdop>
			</trkpt>
			<trkpt lat="46.87702085" lon="6.73530237">
				<ele>708.7</ele>
				<time>2013-08-14T06:23:40Z</time>
				<hdop>1.0</hdop>
			</trkpt>
			<trkpt lat="46.8770225" lon="6.73529332">
				<ele>708.6</ele>
				<time>2013-08-14T06:23:41Z</time>
				<hdop>1.0</hdop>
			</trkpt>
			<trkpt lat="46.87701915" lon="6.73530247">
				<ele>709.1</ele>
				<time>2013-08-14T06:23:42Z</time>
				<hdop>1.5</hdop>
			</trkpt>
			<trkpt lat="46.87701919" lon="6.73528876">
				<ele>709.0</ele>
				<time>2013-08-14T06:23:44Z</time>
				<hdop>1.5</hdop>
			</trkpt>
			<trkpt lat="46.87703345" lon="6.73527676">
				<ele>710.7</ele>
				<time>2013-08-14T06:23:45Z</time>
				<hdop>1.5</hdop>
			</trkpt>
			<trkpt lat="46.87704798" lon="6.73527226">
				<ele>710.7</ele>
				<time>2013-08-14T06:23:46Z</time>
				<hdop>1.5</hdop>
			</trkpt>
			<trkpt lat="46.87710438" lon="6.73528132">
				<ele>710.5</ele>
				<time>2013-08-14T06:23:48Z</time>
				<hdop>1.5</hdop>
			</trkpt>
			<trkpt lat="46.87713271" lon="6.73527323">
				<ele>710.2</ele>
				<time>2013-08-14T06:23:50Z</time>
				<hdop>1.5</hdop>
			</trkpt>
			<trkpt lat="46.87713569" lon="6.73526404">
				<ele>712.5</ele>
				<time>2013-08-14T06:23:51Z</time>
				<hdop>1.5</hdop>
			</trkpt>
			<trkpt lat="46.87714025" lon="6.73524075">
				<ele>713.9</ele>
				<time>2013-08-14T06:23:52Z</time>
				<hdop>1.5</hdop>
			</trkpt>
			<trkpt lat="46.87714161" lon="6.73522566">
				<ele>715.9</ele>
				<time>2013-08-14T06:23:53Z</time>
				<hdop>1.5</hdop>
			</trkpt>
			<trkpt lat="46.87714216" lon="6.73517783">
				<ele>717.8</ele>
				<time>2013-08-14T06:23:54Z</time>
				<hdop>1.5</hdop>
			</trkpt>
			<trkpt lat="46.87716832" lon="6.73515831">
				<ele>719.5</ele>
				<time>2013-08-14T06:23:55Z</time>
				<hdop>1.5</hdop>
			</trkpt>
			<trkpt lat="46.87715439" lon="6.73514063">
				<ele>715.0</ele>
				<time>2013-08-14T06:23:56Z</time>
				<hdop>1.0</hdop>
			</trkpt>
			<trkpt lat="46.87715191" lon="6.73512361">
				<ele>715.4</ele>
				<time>2013-08-14T06:23:57Z</time>
				<hdop>1.0</hdop>
			</trkpt>
			<trkpt lat="46.8771496" lon="6.73511098">
				<ele>714.6</ele>
				<time>2013-08-14T06:23:58Z</time>
				<hdop>1.5</hdop>
			</trkpt>
			<trkpt lat="46.87713434" lon="6.73509329">
				<ele>714.4</ele>
				<time>2013-08-14T06:23:59Z</time>
				<hdop>1.5</hdop>
			</trkpt>
			<trkpt lat="46.87712911" lon="6.73507592">
				<ele>714.9</ele>
				<time>2013-08-14T06:24:00Z</time>
				<hdop>1.5</hdop>
			</trkpt>
			<trkpt lat="46.87713777" lon="6.73507055">
				<ele>716.0</ele>
				<time>2013-08-14T06:24:01Z</time>
				<hdop>1.0</hdop>
			</trkpt>
			<trkpt lat="46.87714104" lon="6.7350562">
				<ele>716.8</ele>
				<time>2013-08-14T06:24:03Z</time>
				<hdop>1.5</hdop>
			</trkpt>
			<trkpt lat="46.8771514" lon="6.73504321">
				<ele>716.5</ele>
				<time>2013-08-14T06:24:04Z</time>
				<hdop>1.5</hdop>
			</trkpt>
			<trkpt lat="46.87725149" lon="6.73508525">
				<ele>720.7</ele>
				<time>2013-08-14T06:24:05Z</time>
				<hdop>1.0</hdop>
			</trkpt>
			<trkpt lat="46.87727693" lon="6.7350974">
				<ele>722.6</ele>
				<time>2013-08-14T06:24:06Z</time>
				<hdop>1.0</hdop>
			</trkpt>
			<trkpt lat="46.87731431" lon="6.73510947">
				<ele>724.0</ele>
				<time>2013-08-14T06:24:07Z</time>
				<hdop>1.5</hdop>
			</trkpt>
			<trkpt lat="46.87726943" lon="6.73505928">
				<ele>723.9</ele>
				<time>2013-08-14T06:24:08Z</time>
				<hdop>1.0</hdop>
			</trkpt>
			<trkpt lat="46.87729057" lon="6.73502755">
				<ele>725.4</ele>
				<time>2013-08-14T06:24:10Z</time>
				<hdop>1.5</hdop>
			</trkpt>
			<trkpt lat="46.8772931" lon="6.73501962">
				<ele>725.6</ele>
				<time>2013-08-14T06:24:11Z</time>
				<hdop>1.5</hdop>
			</trkpt>
			<trkpt lat="46.8772944" lon="6.73501092">
				<ele>726.0</ele>
				<time>2013-08-14T06:24:12Z</time>
				<hdop>1.5</hdop>
			</trkpt>
			<trkpt lat="46.87730013" lon="6.73499788">
				<ele>726.3</ele>
				<time>2013-08-14T06:24:13Z</time>
				<hdop>1.5</hdop>
			</trkpt>
			<trkpt lat="46.87728343" lon="6.73496762">
				<ele>723.1</ele>
				<time>2013-08-14T06:24:15Z</time>
				<hdop>1.5</hdop>
			</trkpt>
			<trkpt lat="46.87728666" lon="6.73495603">
				<ele>723.2</ele>
				<time>2013-08-14T06:24:16Z</time>
				<hdop>1.5</hdop>
			</trkpt>
			<trkpt lat="46.87729118" lon="6.734947">
				<ele>723.1</ele>
				<time>2013-08-14T06:24:17Z</time>
				<hdop>1.5</hdop>
			</trkpt>
			<trkpt lat="46.87729398" lon="6.73492907">
				<ele>723.1</ele>
				<time>2013-08-14T06:24:18Z</time>
				<hdop>1.5</hdop>
			</trkpt>
			<trkpt lat="46.87732619" lon="6.7348921">
				<ele>725.3</ele>
				<time>2013-08-14T06:24:19Z</time>
				<hdop>1.5</hdop>
			</trkpt>
			<trkpt lat="46.87732801" lon="6.73486429">
				<ele>725.5</ele>
				<time>2013-08-14T06:24:20Z</time>
				<hdop>1.5</hdop>
			</trkpt>
			<trkpt lat="46.87733044" lon="6.73485752">
				<ele>725.8</ele>
				<time>2013-08-14T06:24:22Z</time>
				<hdop>1.5</hdop>
			</trkpt>
			<trkpt lat="46.87733836" lon="6.73485265">
				<ele>725.8</ele>
				<time>2013-08-14T06:24:23Z</time>
				<hdop>1.5</hdop>
			</trkpt>
			<trkpt lat="46.87732636" lon="6.73484696">
				<ele>726.3</ele>
				<time>2013-08-14T06:24:24Z</time>
				<hdop>1.5</hdop>
			</trkpt>
			<trkpt lat="46.87733103" lon="6.73479968">
				<ele>726.1</ele>
				<time>2013-08-14T06:24:26Z</time>
				<hdop>1.0</hdop>
			</trkpt>
			<trkpt lat="46.87734641" lon="6.73479465">
				<ele>724.2</ele>
				<time>2013-08-14T06:24:28Z</time>
				<hdop>1.0</hdop>
			</trkpt>
			<trkpt lat="46.87734938" lon="6.73475425">
				<ele>722.5</ele>
				<time>2013-08-14T06:24:30Z</time>
				<hdop>1.0</hdop>
			</trkpt>
			<trkpt lat="46.87734448" lon="6.73473953">
				<ele>721.8</ele>
				<time>2013-08-14T06:24:31Z</time>
				<hdop>1.0</hdop>
			</trkpt>
			<trkpt lat="46.87736252" lon="6.73471801">
				<ele>723.0</ele>
				<time>2013-08-14T06:24:33Z</time>
				<hdop>1.5</hdop>
			</trkpt>
			<trkpt lat="46.87737429" lon="6.7346592">
				<ele>722.8</ele>
				<time>2013-08-14T06:24:35Z</time>
				<hdop>1.5</hdop>
			</trkpt>
			<trkpt lat="46.87739635" lon="6.73462681">
				<ele>722.2</ele>
				<time>2013-08-14T06:24:37Z</time>
				<hdop>1.5</hdop>
			</trkpt>
			<trkpt lat="46.87740293" lon="6.73461388">
				<ele>722.1</ele>
				<time>2013-08-14T06:24:38Z</time>
				<hdop>2.0</hdop>
			</trkpt>
			<trkpt lat="46.87742994" lon="6.73459523">
				<ele>721.6</ele>
				<time>2013-08-14T06:24:39Z</time>
				<hdop>2.0</hdop>
			</trkpt>
			<trkpt lat="46.87742075" lon="6.73454643">
				<ele>722.3</ele>
				<time>2013-08-14T06:24:40Z</time>
				<hdop>1.5</hdop>
			</trkpt>
			<trkpt lat="46.87742128" lon="6.73452955">
				<ele>723.0</ele>
				<time>2013-08-14T06:24:41Z</time>
				<hdop>1.5</hdop>
			</trkpt>
			<trkpt lat="46.8774177" lon="6.7345274">
				<ele>723.1</ele>
				<time>2013-08-14T06:24:42Z</time>
				<hdop>1.5</hdop>
			</trkpt>
			<trkpt lat="46.87741779" lon="6.73452742">
				<ele>723.5</ele>
				<time>2013-08-14T06:24:43Z</time>
				<hdop>1.5</hdop>
			</trkpt>
			<trkpt lat="46.87742337" lon="6.73451229">
				<ele>723.6</ele>
				<time>2013-08-14T06:24:45Z</time>
				<hdop>2.0</hdop>
			</trkpt>
			<trkpt lat="46.87741338" lon="6.73447614">
				<ele>723.9</ele>
				<time>2013-08-14T06:24:46Z</time>
				<hdop>1.5</hdop>
			</trkpt>
			<trkpt lat="46.8774267" lon="6.73440899">
				<ele>723.7</ele>
				<time>2013-08-14T06:24:47Z</time>
				<hdop>2.0</hdop>
			</trkpt>
			<trkpt lat="46.87742714" lon="6.73438437">
				<ele>724.0</ele>
				<time>2013-08-14T06:24:49Z</time>
				<hdop>2.0</hdop>
			</trkpt>
			<trkpt lat="46.87740142" lon="6.73437716">
				<ele>721.2</ele>
				<time>2013-08-14T06:24:50Z</time>
				<hdop>1.5</hdop>
			</trkpt>
			<trkpt lat="46.87739538" lon="6.73438035">
				<ele>721.5</ele>
				<time>2013-08-14T06:24:52Z</time>
				<hdop>1.5</hdop>
			</trkpt>
			<trkpt lat="46.87741145" lon="6.73436393">
				<ele>721.7</ele>
				<time>2013-08-14T06:24:53Z</time>
				<hdop>1.5</hdop>
			</trkpt>
			<trkpt lat="46.8774086" lon="6.73433154">
				<ele>721.7</ele>
				<time>2013-08-14T06:24:55Z</time>
				<hdop>2.0</hdop>
			</trkpt>
			<trkpt lat="46.87736117" lon="6.73427902">
				<ele>720.5</ele>
				<time>2013-08-14T06:24:56Z</time>
				<hdop>2.0</hdop>
			</trkpt>
			<trkpt lat="46.87737963" lon="6.73427023">
				<ele>720.4</ele>
				<time>2013-08-14T06:24:58Z</time>
				<hdop>2.0</hdop>
			</trkpt>
			<trkpt lat="46.8773535" lon="6.73423403">
				<ele>720.9</ele>
				<time>2013-08-14T06:24:59Z</time>
				<hdop>2.0</hdop>
			</trkpt>
			<trkpt lat="46.87736054" lon="6.73418414">
				<ele>721.7</ele>
				<time>2013-08-14T06:25:00Z</time>
				<hdop>2.0</hdop>
			</trkpt>
			<trkpt lat="46.8773976" lon="6.73414489">
				<ele>721.4</ele>
				<time>2013-08-14T06:25:01Z</time>
				<hdop>1.5</hdop>
			</trkpt>
			<trkpt lat="46.87744458" lon="6.73414077">
				<ele>721.2</ele>
				<time>2013-08-14T06:25:03Z</time>
				<hdop>1.5</hdop>
			</trkpt>
			<trkpt lat="46.87746102" lon="6.7341259">
				<ele>720.5</ele>
				<time>2013-08-14T06:25:04Z</time>
				<hdop>1.5</hdop>
			</trkpt>
			<trkpt lat="46.87744603" lon="6.73408446">
				<ele>721.0</ele>
				<time>2013-08-14T06:25:05Z</time>
				<hdop>1.5</hdop>
			</trkpt>
			<trkpt lat="46.87749316" lon="6.7340719">
				<ele>719.9</ele>
				<time>2013-08-14T06:25:06Z</time>
				<hdop>1.5</hdop>
			</trkpt>
			<trkpt lat="46.8774959" lon="6.73406147">
				<ele>718.9</ele>
				<time>2013-08-14T06:25:07Z</time>
				<hdop>1.5</hdop>
			</trkpt>
			<trkpt lat="46.87750903" lon="6.73408628">
				<ele>717.4</ele>
				<time>2013-08-14T06:25:08Z</time>
				<hdop>1.5</hdop>
			</trkpt>
			<trkpt lat="46.87751286" lon="6.73407963">
				<ele>717.1</ele>
				<time>2013-08-14T06:25:09Z</time>
				<hdop>2.0</hdop>
			</trkpt>
			<trkpt lat="46.87752635" lon="6.73403254">
				<ele>717.4</ele>
				<time>2013-08-14T06:25:10Z</time>
				<hdop>1.5</hdop>
			</trkpt>
			<trkpt lat="46.87752393" lon="6.73401032">
				<ele>717.6</ele>
				<time>2013-08-14T06:25:12Z</time>
				<hdop>2.0</hdop>
			</trkpt>
			<trkpt lat="46.87753071" lon="6.73399393">
				<ele>718.8</ele>
				<time>2013-08-14T06:25:13Z</time>
				<hdop>1.5</hdop>
			</trkpt>
			<trkpt lat="46.8775341" lon="6.733935">
				<ele>720.4</ele>
				<time>2013-08-14T06:25:15Z</time>
				<hdop>2.0</hdop>
			</trkpt>
			<trkpt lat="46.87752791" lon="6.73390936">
				<ele>721.5</ele>
				<time>2013-08-14T06:25:17Z</time>
				<hdop>1.5</hdop>
			</trkpt>
			<trkpt lat="46.87754646" lon="6.73386568">
				<ele>721.9</ele>
				<time>2013-08-14T06:25:18Z</time>
				<hdop>1.5</hdop>
			</trkpt>
			<trkpt lat="46.87754347" lon="6.73385993">
				<ele>722.8</ele>
				<time>2013-08-14T06:25:20Z</time>
				<hdop>1.5</hdop>
			</trkpt>
			<trkpt lat="46.87754021" lon="6.73383811">
				<ele>723.1</ele>
				<time>2013-08-14T06:25:21Z</time>
				<hdop>1.5</hdop>
			</trkpt>
			<trkpt lat="46.87757016" lon="6.73381591">
				<ele>725.4</ele>
				<time>2013-08-14T06:25:22Z</time>
				<hdop>1.5</hdop>
			</trkpt>
			<trkpt lat="46.87758363" lon="6.73380686">
				<ele>725.3</ele>
				<time>2013-08-14T06:25:23Z</time>
				<hdop>1.5</hdop>
			</trkpt>
			<trkpt lat="46.87759335" lon="6.73378666">
				<ele>725.2</ele>
				<time>2013-08-14T06:25:24Z</time>
				<hdop>1.5</hdop>
			</trkpt>
			<trkpt lat="46.87758537" lon="6.73377147">
				<ele>725.1</ele>
				<time>2013-08-14T06:25:26Z</time>
				<hdop>1.5</hdop>
			</trkpt>
			<trkpt lat="46.87759011" lon="6.73376991">
				<ele>725.4</ele>
				<time>2013-08-14T06:25:27Z</time>
				<hdop>1.5</hdop>
			</trkpt>
			<trkpt lat="46.87759316" lon="6.7337522">
				<ele>725.4</ele>
				<time>2013-08-14T06:25:28Z</time>
				<hdop>1.5</hdop>
			</trkpt>
			<trkpt lat="46.87757361" lon="6.73374231">
				<ele>726.5</ele>
				<time>2013-08-14T06:25:29Z</time>
				<hdop>1.5</hdop>
			</trkpt>
			<trkpt lat="46.87758867" lon="6.73370792">
				<ele>727.6</ele>
				<time>2013-08-14T06:25:30Z</time>
				<hdop>1.5</hdop>
			</trkpt>
			<trkpt lat="46.87759322" lon="6.7336906">
				<ele>727.0</ele>
				<time>2013-08-14T06:25:31Z</time>
				<hdop>1.5</hdop>
			</trkpt>
			<trkpt lat="46.87760252" lon="6.73368303">
				<ele>726.2</ele>
				<time>2013-08-14T06:25:33Z</time>
				<hdop>2.0</hdop>
			</trkpt>
			<trkpt lat="46.8776102" lon="6.73366212">
				<ele>726.1</ele>
				<time>2013-08-14T06:25:34Z</time>
				<hdop>1.5</hdop>
			</trkpt>
			<trkpt lat="46.87760603" lon="6.7336454">
				<ele>726.6</ele>
				<time>2013-08-14T06:25:35Z</time>
				<hdop>1.5</hdop>
			</trkpt>
			<trkpt lat="46.87763661" lon="6.73363275">
				<ele>727.6</ele>
				<time>2013-08-14T06:25:36Z</time>
				<hdop>1.5</hdop>
			</trkpt>
			<trkpt lat="46.87762702" lon="6.73361892">
				<ele>728.3</ele>
				<time>2013-08-14T06:25:38Z</time>
				<hdop>1.5</hdop>
			</trkpt>
			<trkpt lat="46.87763521" lon="6.73361129">
				<ele>729.4</ele>
				<time>2013-08-14T06:25:40Z</time>
				<hdop>1.5</hdop>
			</trkpt>
			<trkpt lat="46.87765226" lon="6.73359403">
				<ele>731.5</ele>
				<time>2013-08-14T06:25:42Z</time>
				<hdop>1.5</hdop>
			</trkpt>
			<trkpt lat="46.87765959" lon="6.73356881">
				<ele>732.8</ele>
				<time>2013-08-14T06:25:44Z</time>
				<hdop>1.5</hdop>
			</trkpt>
			<trkpt lat="46.87767084" lon="6.73355349">
				<ele>733.5</ele>
				<time>2013-08-14T06:25:45Z</time>
				<hdop>1.5</hdop>
			</trkpt>
			<trkpt lat="46.87766255" lon="6.73353394">
				<ele>735.1</ele>
				<time>2013-08-14T06:25:46Z</time>
				<hdop>1.5</hdop>
			</trkpt>
			<trkpt lat="46.87769691" lon="6.73352312">
				<ele>738.0</ele>
				<time>2013-08-14T06:25:47Z</time>
				<hdop>1.5</hdop>
			</trkpt>
			<trkpt lat="46.87770249" lon="6.73352249">
				<ele>738.2</ele>
				<time>2013-08-14T06:25:49Z</time>
				<hdop>1.5</hdop>
			</trkpt>
			<trkpt lat="46.87770798" lon="6.73352156">
				<ele>738.4</ele>
				<time>2013-08-14T06:25:50Z</time>
				<hdop>1.5</hdop>
			</trkpt>
			<trkpt lat="46.87770948" lon="6.73352319">
				<ele>739.4</ele>
				<time>2013-08-14T06:25:51Z</time>
				<hdop>1.5</hdop>
			</trkpt>
			<trkpt lat="46.87771816" lon="6.73350907">
				<ele>739.7</ele>
				<time>2013-08-14T06:25:52Z</time>
				<hdop>1.5</hdop>
			</trkpt>
			<trkpt lat="46.87773005" lon="6.73349248">
				<ele>740.0</ele>
				<time>2013-08-14T06:25:53Z</time>
				<hdop>1.5</hdop>
			</trkpt>
			<trkpt lat="46.87774236" lon="6.73349323">
				<ele>740.6</ele>
				<time>2013-08-14T06:25:54Z</time>
				<hdop>1.5</hdop>
			</trkpt>
			<trkpt lat="46.87775415" lon="6.73349016">
				<ele>740.6</ele>
				<time>2013-08-14T06:25:55Z</time>
				<hdop>1.5</hdop>
			</trkpt>
			<trkpt lat="46.87775073" lon="6.73348605">
				<ele>740.6</ele>
				<time>2013-08-14T06:25:56Z</time>
				<hdop>1.5</hdop>
			</trkpt>
			<trkpt lat="46.87775486" lon="6.73348399">
				<ele>740.9</ele>
				<time>2013-08-14T06:25:57Z</time>
				<hdop>1.5</hdop>
			</trkpt>
			<trkpt lat="46.87776276" lon="6.73348314">
				<ele>741.2</ele>
				<time>2013-08-14T06:25:58Z</time>
				<hdop>1.5</hdop>
			</trkpt>
			<trkpt lat="46.8777667" lon="6.73348265">
				<ele>741.0</ele>
				<time>2013-08-14T06:25:59Z</time>
				<hdop>1.5</hdop>
			</trkpt>
			<trkpt lat="46.8777745" lon="6.73346141">
				<ele>741.5</ele>
				<time>2013-08-14T06:26:00Z</time>
				<hdop>1.5</hdop>
			</trkpt>
			<trkpt lat="46.87777053" lon="6.73342105">
				<ele>740.6</ele>
				<time>2013-08-14T06:26:01Z</time>
				<hdop>1.5</hdop>
			</trkpt>
			<trkpt lat="46.87777596" lon="6.73339511">
				<ele>739.9</ele>
				<time>2013-08-14T06:26:02Z</time>
				<hdop>1.0</hdop>
			</trkpt>
			<trkpt lat="46.87779733" lon="6.73336692">
				<ele>738.7</ele>
				<time>2013-08-14T06:26:03Z</time>
				<hdop>1.0</hdop>
			</trkpt>
			<trkpt lat="46.87781351" lon="6.73335006">
				<ele>738.1</ele>
				<time>2013-08-14T06:26:04Z</time>
				<hdop>1.0</hdop>
			</trkpt>
			<trkpt lat="46.87782986" lon="6.73334355">
				<ele>738.6</ele>
				<time>2013-08-14T06:26:05Z</time>
				<hdop>1.5</hdop>
			</trkpt>
			<trkpt lat="46.87783466" lon="6.73334352">
				<ele>738.3</ele>
				<time>2013-08-14T06:26:06Z</time>
				<hdop>1.5</hdop>
			</trkpt>
			<trkpt lat="46.87784159" lon="6.73332505">
				<ele>738.9</ele>
				<time>2013-08-14T06:26:07Z</time>
				<hdop>1.5</hdop>
			</trkpt>
			<trkpt lat="46.87784576" lon="6.73332336">
				<ele>739.8</ele>
				<time>2013-08-14T06:26:08Z</time>
				<hdop>1.5</hdop>
			</trkpt>
			<trkpt lat="46.8778513" lon="6.73330775">
				<ele>740.5</ele>
				<time>2013-08-14T06:26:09Z</time>
				<hdop>1.5</hdop>
			</trkpt>
			<trkpt lat="46.87787451" lon="6.73327483">
				<ele>742.0</ele>
				<time>2013-08-14T06:26:11Z</time>
				<hdop>1.5</hdop>
			</trkpt>
			<trkpt lat="46.87788397" lon="6.73325825">
				<ele>742.2</ele>
				<time>2013-08-14T06:26:12Z</time>
				<hdop>1.5</hdop>
			</trkpt>
			<trkpt lat="46.87790378" lon="6.73325475">
				<ele>741.1</ele>
				<time>2013-08-14T06:26:13Z</time>
				<hdop>1.0</hdop>
			</trkpt>
			<trkpt lat="46.87789515" lon="6.73323297">
				<ele>740.4</ele>
				<time>2013-08-14T06:26:14Z</time>
				<hdop>1.0</hdop>
			</trkpt>
			<trkpt lat="46.87790885" lon="6.73322611">
				<ele>740.3</ele>
				<time>2013-08-14T06:26:15Z</time>
				<hdop>1.0</hdop>
			</trkpt>
			<trkpt lat="46.87791018" lon="6.73321557">
				<ele>739.8</ele>
				<time>2013-08-14T06:26:16Z</time>
				<hdop>1.0</hdop>
			</trkpt>
			<trkpt lat="46.87792014" lon="6.73321254">
				<ele>739.8</ele>
				<time>2013-08-14T06:26:17Z</time>
				<hdop>1.0</hdop>
			</trkpt>
			<trkpt lat="46.87792829" lon="6.73321026">
				<ele>739.6</ele>
				<time>2013-08-14T06:26:18Z</time>
				<hdop>1.0</hdop>
			</trkpt>
			<trkpt lat="46.87794311" lon="6.73318096">
				<ele>739.1</ele>
				<time>2013-08-14T06:26:20Z</time>
				<hdop>1.5</hdop>
			</trkpt>
			<trkpt lat="46.87795259" lon="6.7331685">
				<ele>739.3</ele>
				<time>2013-08-14T06:26:21Z</time>
				<hdop>1.5</hdop>
			</trkpt>
			<trkpt lat="46.87795421" lon="6.73315685">
				<ele>739.7</ele>
				<time>2013-08-14T06:26:22Z</time>
				<hdop>1.5</hdop>
			</trkpt>
			<trkpt lat="46.87796723" lon="6.73314519">
				<ele>739.2</ele>
				<time>2013-08-14T06:26:23Z</time>
				<hdop>1.5</hdop>
			</trkpt>
			<trkpt lat="46.87797857" lon="6.73312615">
				<ele>739.0</ele>
				<time>2013-08-14T06:26:24Z</time>
				<hdop>1.5</hdop>
			</trkpt>
			<trkpt lat="46.87800914" lon="6.73313522">
				<ele>739.0</ele>
				<time>2013-08-14T06:26:25Z</time>
				<hdop>1.5</hdop>
			</trkpt>
			<trkpt lat="46.87800014" lon="6.73312691">
				<ele>739.7</ele>
				<time>2013-08-14T06:26:26Z</time>
				<hdop>1.5</hdop>
			</trkpt>
			<trkpt lat="46.87802306" lon="6.73313321">
				<ele>739.2</ele>
				<time>2013-08-14T06:26:27Z</time>
				<hdop>1.5</hdop>
			</trkpt>
			<trkpt lat="46.87794676" lon="6.73307523">
				<ele>735.4</ele>
				<time>2013-08-14T06:26:28Z</time>
				<hdop>1.0</hdop>
			</trkpt>
			<trkpt lat="46.87794889" lon="6.73306482">
				<ele>734.4</ele>
				<time>2013-08-14T06:26:29Z</time>
				<hdop>1.0</hdop>
			</trkpt>
			<trkpt lat="46.87798949" lon="6.73307517">
				<ele>735.1</ele>
				<time>2013-08-14T06:26:30Z</time>
				<hdop>1.0</hdop>
			</trkpt>
			<trkpt lat="46.87800085" lon="6.7330709">
				<ele>735.2</ele>
				<time>2013-08-14T06:26:31Z</time>
				<hdop>1.0</hdop>
			</trkpt>
			<trkpt lat="46.87802667" lon="6.73307133">
				<ele>736.1</ele>
				<time>2013-08-14T06:26:32Z</time>
				<hdop>1.0</hdop>
			</trkpt>
			<trkpt lat="46.87805349" lon="6.73306552">
				<ele>737.0</ele>
				<time>2013-08-14T06:26:33Z</time>
				<hdop>1.0</hdop>
			</trkpt>
			<trkpt lat="46.87807151" lon="6.73305865">
				<ele>737.8</ele>
				<time>2013-08-14T06:26:34Z</time>
				<hdop>1.0</hdop>
			</trkpt>
			<trkpt lat="46.87808295" lon="6.73305007">
				<ele>738.4</ele>
				<time>2013-08-14T06:26:35Z</time>
				<hdop>1.5</hdop>
			</trkpt>
			<trkpt lat="46.87808438" lon="6.73304321">
				<ele>738.5</ele>
				<time>2013-08-14T06:26:36Z</time>
				<hdop>1.5</hdop>
			</trkpt>
			<trkpt lat="46.87809022" lon="6.73303724">
				<ele>738.9</ele>
				<time>2013-08-14T06:26:37Z</time>
				<hdop>1.5</hdop>
			</trkpt>
			<trkpt lat="46.87810053" lon="6.73302561">
				<ele>738.4</ele>
				<time>2013-08-14T06:26:38Z</time>
				<hdop>1.5</hdop>
			</trkpt>
			<trkpt lat="46.87812296" lon="6.73302723">
				<ele>738.7</ele>
				<time>2013-08-14T06:26:39Z</time>
				<hdop>1.5</hdop>
			</trkpt>
			<trkpt lat="46.87811141" lon="6.73301971">
				<ele>738.5</ele>
				<time>2013-08-14T06:26:40Z</time>
				<hdop>1.5</hdop>
			</trkpt>
			<trkpt lat="46.87811393" lon="6.73300631">
				<ele>738.6</ele>
				<time>2013-08-14T06:26:41Z</time>
				<hdop>1.5</hdop>
			</trkpt>
			<trkpt lat="46.87812332" lon="6.73301524">
				<ele>738.9</ele>
				<time>2013-08-14T06:26:42Z</time>
				<hdop>1.5</hdop>
			</trkpt>
			<trkpt lat="46.87812741" lon="6.73300556">
				<ele>738.4</ele>
				<time>2013-08-14T06:26:43Z</time>
				<hdop>1.5</hdop>
			</trkpt>
			<trkpt lat="46.87813794" lon="6.7330018">
				<ele>738.6</ele>
				<time>2013-08-14T06:26:44Z</time>
				<hdop>1.0</hdop>
			</trkpt>
			<trkpt lat="46.87815199" lon="6.73299303">
				<ele>738.8</ele>
				<time>2013-08-14T06:26:45Z</time>
				<hdop>1.0</hdop>
			</trkpt>
			<trkpt lat="46.87816816" lon="6.73298973">
				<ele>738.9</ele>
				<time>2013-08-14T06:26:46Z</time>
				<hdop>1.0</hdop>
			</trkpt>
			<trkpt lat="46.87819414" lon="6.73299526">
				<ele>739.0</ele>
				<time>2013-08-14T06:26:47Z</time>
				<hdop>1.0</hdop>
			</trkpt>
			<trkpt lat="46.87823024" lon="6.73300716">
				<ele>740.1</ele>
				<time>2013-08-14T06:26:48Z</time>
				<hdop>1.0</hdop>
			</trkpt>
			<trkpt lat="46.87824108" lon="6.73300299">
				<ele>740.3</ele>
				<time>2013-08-14T06:26:49Z</time>
				<hdop>1.0</hdop>
			</trkpt>
			<trkpt lat="46.8782501" lon="6.73300431">
				<ele>740.5</ele>
				<time>2013-08-14T06:26:50Z</time>
				<hdop>1.5</hdop>
			</trkpt>
			<trkpt lat="46.87826981" lon="6.73300271">
				<ele>740.3</ele>
				<time>2013-08-14T06:26:51Z</time>
				<hdop>1.5</hdop>
			</trkpt>
			<trkpt lat="46.878307" lon="6.73301145">
				<ele>740.0</ele>
				<time>2013-08-14T06:26:52Z</time>
				<hdop>1.0</hdop>
			</trkpt>
			<trkpt lat="46.878313" lon="6.73300062">
				<ele>739.5</ele>
				<time>2013-08-14T06:26:53Z</time>
				<hdop>1.0</hdop>
			</trkpt>
			<trkpt lat="46.87833462" lon="6.73298843">
				<ele>740.3</ele>
				<time>2013-08-14T06:26:54Z</time>
				<hdop>1.0</hdop>
			</trkpt>
			<trkpt lat="46.87834901" lon="6.73298134">
				<ele>740.2</ele>
				<time>2013-08-14T06:26:55Z</time>
				<hdop>1.0</hdop>
			</trkpt>
			<trkpt lat="46.87836674" lon="6.73298537">
				<ele>740.0</ele>
				<time>2013-08-14T06:26:56Z</time>
				<hdop>1.0</hdop>
			</trkpt>
			<trkpt lat="46.87837624" lon="6.73296691">
				<ele>740.4</ele>
				<time>2013-08-14T06:26:57Z</time>
				<hdop>1.0</hdop>
			</trkpt>
			<trkpt lat="46.87838722" lon="6.73296018">
				<ele>739.8</ele>
				<time>2013-08-14T06:26:58Z</time>
				<hdop>1.0</hdop>
			</trkpt>
			<trkpt lat="46.87840075" lon="6.73295471">
				<ele>741.4</ele>
				<time>2013-08-14T06:26:59Z</time>
				<hdop>1.0</hdop>
			</trkpt>
			<trkpt lat="46.87842316" lon="6.73296254">
				<ele>741.6</ele>
				<time>2013-08-14T06:27:00Z</time>
				<hdop>1.0</hdop>
			</trkpt>
			<trkpt lat="46.87843611" lon="6.73296048">
				<ele>741.0</ele>
				<time>2013-08-14T06:27:01Z</time>
				<hdop>1.0</hdop>
			</trkpt>
			<trkpt lat="46.87844426" lon="6.73295071">
				<ele>741.3</ele>
				<time>2013-08-14T06:27:02Z</time>
				<hdop>1.0</hdop>
			</trkpt>
			<trkpt lat="46.87845532" lon="6.73294284">
				<ele>740.7</ele>
				<time>2013-08-14T06:27:03Z</time>
				<hdop>1.0</hdop>
			</trkpt>
			<trkpt lat="46.87846526" lon="6.73294287">
				<ele>740.3</ele>
				<time>2013-08-14T06:27:04Z</time>
				<hdop>1.0</hdop>
			</trkpt>
			<trkpt lat="46.87847625" lon="6.73293836">
				<ele>740.3</ele>
				<time>2013-08-14T06:27:05Z</time>
				<hdop>1.0</hdop>
			</trkpt>
			<trkpt lat="46.87848305" lon="6.73293102">
				<ele>740.2</ele>
				<time>2013-08-14T06:27:06Z</time>
				<hdop>1.0</hdop>
			</trkpt>
			<trkpt lat="46.87849144" lon="6.73292741">
				<ele>739.8</ele>
				<time>2013-08-14T06:27:07Z</time>
				<hdop>1.0</hdop>
			</trkpt>
			<trkpt lat="46.87850062" lon="6.73292252">
				<ele>739.3</ele>
				<time>2013-08-14T06:27:08Z</time>
				<hdop>1.0</hdop>
			</trkpt>
			<trkpt lat="46.87851481" lon="6.73292732">
				<ele>737.8</ele>
				<time>2013-08-14T06:27:09Z</time>
				<hdop>1.0</hdop>
			</trkpt>
			<trkpt lat="46.87851786" lon="6.73291046">
				<ele>738.3</ele>
				<time>2013-08-14T06:27:10Z</time>
				<hdop>1.0</hdop>
			</trkpt>
			<trkpt lat="46.8785332" lon="6.73291015">
				<ele>738.0</ele>
				<time>2013-08-14T06:27:11Z</time>
				<hdop>1.0</hdop>
			</trkpt>
			<trkpt lat="46.87854758" lon="6.73290632">
				<ele>738.4</ele>
				<time>2013-08-14T06:27:12Z</time>
				<hdop>1.0</hdop>
			</trkpt>
			<trkpt lat="46.87856283" lon="6.73290067">
				<ele>738.6</ele>
				<time>2013-08-14T06:27:13Z</time>
				<hdop>1.0</hdop>
			</trkpt>
			<trkpt lat="46.87857498" lon="6.73289429">
				<ele>738.0</ele>
				<time>2013-08-14T06:27:14Z</time>
				<hdop>1.0</hdop>
			</trkpt>
			<trkpt lat="46.87859216" lon="6.73289312">
				<ele>738.2</ele>
				<time>2013-08-14T06:27:15Z</time>
				<hdop>1.0</hdop>
			</trkpt>
			<trkpt lat="46.87860849" lon="6.73289626">
				<ele>738.1</ele>
				<time>2013-08-14T06:27:16Z</time>
				<hdop>1.0</hdop>
			</trkpt>
			<trkpt lat="46.87862145" lon="6.73288647">
				<ele>738.6</ele>
				<time>2013-08-14T06:27:17Z</time>
				<hdop>1.0</hdop>
			</trkpt>
			<trkpt lat="46.8786377" lon="6.73288883">
				<ele>738.4</ele>
				<time>2013-08-14T06:27:18Z</time>
				<hdop>1.0</hdop>
			</trkpt>
			<trkpt lat="46.8786524" lon="6.73289036">
				<ele>738.8</ele>
				<time>2013-08-14T06:27:19Z</time>
				<hdop>1.0</hdop>
			</trkpt>
			<trkpt lat="46.87866272" lon="6.73289075">
				<ele>738.7</ele>
				<time>2013-08-14T06:27:20Z</time>
				<hdop>1.0</hdop>
			</trkpt>
			<trkpt lat="46.87867419" lon="6.73289457">
				<ele>738.8</ele>
				<time>2013-08-14T06:27:21Z</time>
				<hdop>1.0</hdop>
			</trkpt>
			<trkpt lat="46.87869251" lon="6.7329003">
				<ele>738.5</ele>
				<time>2013-08-14T06:27:22Z</time>
				<hdop>1.0</hdop>
			</trkpt>
			<trkpt lat="46.87869974" lon="6.7328915">
				<ele>738.9</ele>
				<time>2013-08-14T06:27:23Z</time>
				<hdop>1.0</hdop>
			</trkpt>
			<trkpt lat="46.87871342" lon="6.73289623">
				<ele>738.7</ele>
				<time>2013-08-14T06:27:24Z</time>
				<hdop>1.0</hdop>
			</trkpt>
			<trkpt lat="46.8787287" lon="6.73290222">
				<ele>738.3</ele>
				<time>2013-08-14T06:27:25Z</time>
				<hdop>1.0</hdop>
			</trkpt>
			<trkpt lat="46.87873995" lon="6.73290237">
				<ele>738.3</ele>
				<time>2013-08-14T06:27:26Z</time>
				<hdop>1.0</hdop>
			</trkpt>
			<trkpt lat="46.87875772" lon="6.73290162">
				<ele>738.4</ele>
				<time>2013-08-14T06:27:27Z</time>
				<hdop>1.0</hdop>
			</trkpt>
			<trkpt lat="46.87876826" lon="6.73290812">
				<ele>738.6</ele>
				<time>2013-08-14T06:27:28Z</time>
				<hdop>1.0</hdop>
			</trkpt>
			<trkpt lat="46.87878307" lon="6.73291181">
				<ele>738.6</ele>
				<time>2013-08-14T06:27:29Z</time>
				<hdop>1.0</hdop>
			</trkpt>
			<trkpt lat="46.87879571" lon="6.73290842">
				<ele>738.5</ele>
				<time>2013-08-14T06:27:30Z</time>
				<hdop>1.0</hdop>
			</trkpt>
			<trkpt lat="46.87880947" lon="6.73290656">
				<ele>738.9</ele>
				<time>2013-08-14T06:27:31Z</time>
				<hdop>1.0</hdop>
			</trkpt>
			<trkpt lat="46.87882238" lon="6.73290664">
				<ele>739.2</ele>
				<time>2013-08-14T06:27:32Z</time>
				<hdop>1.0</hdop>
			</trkpt>
			<trkpt lat="46.87883421" lon="6.73290242">
				<ele>739.2</ele>
				<time>2013-08-14T06:27:33Z</time>
				<hdop>1.0</hdop>
			</trkpt>
			<trkpt lat="46.87884638" lon="6.73290053">
				<ele>739.2</ele>
				<time>2013-08-14T06:27:34Z</time>
				<hdop>1.0</hdop>
			</trkpt>
			<trkpt lat="46.87885994" lon="6.732898">
				<ele>739.9</ele>
				<time>2013-08-14T06:27:35Z</time>
				<hdop>1.0</hdop>
			</trkpt>
			<trkpt lat="46.87887114" lon="6.73289565">
				<ele>740.2</ele>
				<time>2013-08-14T06:27:36Z</time>
				<hdop>1.0</hdop>
			</trkpt>
			<trkpt lat="46.87888431" lon="6.73289693">
				<ele>740.4</ele>
				<time>2013-08-14T06:27:37Z</time>
				<hdop>1.0</hdop>
			</trkpt>
			<trkpt lat="46.87889593" lon="6.73289491">
				<ele>740.6</ele>
				<time>2013-08-14T06:27:38Z</time>
				<hdop>1.0</hdop>
			</trkpt>
			<trkpt lat="46.87891326" lon="6.73289409">
				<ele>741.6</ele>
				<time>2013-08-14T06:27:39Z</time>
				<hdop>1.0</hdop>
			</trkpt>
			<trkpt lat="46.87892688" lon="6.73289793">
				<ele>741.7</ele>
				<time>2013-08-14T06:27:40Z</time>
				<hdop>1.0</hdop>
			</trkpt>
			<trkpt lat="46.87894429" lon="6.73290535">
				<ele>741.8</ele>
				<time>2013-08-14T06:27:41Z</time>
				<hdop>1.0</hdop>
			</trkpt>
			<trkpt lat="46.87895827" lon="6.73290709">
				<ele>742.2</ele>
				<time>2013-08-14T06:27:42Z</time>
				<hdop>1.0</hdop>
			</trkpt>
			<trkpt lat="46.87897154" lon="6.73290786">
				<ele>742.2</ele>
				<time>2013-08-14T06:27:43Z</time>
				<hdop>1.0</hdop>
			</trkpt>
			<trkpt lat="46.87898049" lon="6.73290053">
				<ele>742.7</ele>
				<time>2013-08-14T06:27:44Z</time>
				<hdop>1.0</hdop>
			</trkpt>
			<trkpt lat="46.87899105" lon="6.7328918">
				<ele>743.7</ele>
				<time>2013-08-14T06:27:45Z</time>
				<hdop>1.0</hdop>
			</trkpt>
			<trkpt lat="46.87900328" lon="6.73289126">
				<ele>743.7</ele>
				<time>2013-08-14T06:27:46Z</time>
				<hdop>1.0</hdop>
			</trkpt>
			<trkpt lat="46.87901595" lon="6.73289056">
				<ele>744.4</ele>
				<time>2013-08-14T06:27:47Z</time>
				<hdop>1.0</hdop>
			</trkpt>
			<trkpt lat="46.87902907" lon="6.73288678">
				<ele>744.9</ele>
				<time>2013-08-14T06:27:48Z</time>
				<hdop>1.0</hdop>
			</trkpt>
			<trkpt lat="46.8790413" lon="6.73288339">
				<ele>745.2</ele>
				<time>2013-08-14T06:27:49Z</time>
				<hdop>1.0</hdop>
			</trkpt>
			<trkpt lat="46.87905481" lon="6.73288244">
				<ele>745.3</ele>
				<time>2013-08-14T06:27:50Z</time>
				<hdop>1.0</hdop>
			</trkpt>
			<trkpt lat="46.87906601" lon="6.73288147">
				<ele>745.4</ele>
				<time>2013-08-14T06:27:51Z</time>
				<hdop>1.0</hdop>
			</trkpt>
			<trkpt lat="46.87907949" lon="6.73287846">
				<ele>745.8</ele>
				<time>2013-08-14T06:27:52Z</time>
				<hdop>1.0</hdop>
			</trkpt>
			<trkpt lat="46.87908697" lon="6.73286843">
				<ele>745.8</ele>
				<time>2013-08-14T06:27:53Z</time>
				<hdop>1.0</hdop>
			</trkpt>
			<trkpt lat="46.87909893" lon="6.73286593">
				<ele>745.5</ele>
				<time>2013-08-14T06:27:54Z</time>
				<hdop>1.5</hdop>
			</trkpt>
			<trkpt lat="46.87910756" lon="6.73286536">
				<ele>745.6</ele>
				<time>2013-08-14T06:27:55Z</time>
				<hdop>1.5</hdop>
			</trkpt>
			<trkpt lat="46.87912011" lon="6.73286468">
				<ele>745.7</ele>
				<time>2013-08-14T06:27:56Z</time>
				<hdop>1.5</hdop>
			</trkpt>
			<trkpt lat="46.87913204" lon="6.73286401">
				<ele>745.6</ele>
				<time>2013-08-14T06:27:57Z</time>
				<hdop>1.5</hdop>
			</trkpt>
			<trkpt lat="46.87915378" lon="6.73284621">
				<ele>745.5</ele>
				<time>2013-08-14T06:27:58Z</time>
				<hdop>1.5</hdop>
			</trkpt>
			<trkpt lat="46.87918788" lon="6.73283838">
				<ele>745.9</ele>
				<time>2013-08-14T06:28:00Z</time>
				<hdop>1.0</hdop>
			</trkpt>
			<trkpt lat="46.87919493" lon="6.73284468">
				<ele>746.8</ele>
				<time>2013-08-14T06:28:01Z</time>
				<hdop>1.0</hdop>
			</trkpt>
			<trkpt lat="46.87921213" lon="6.73284105">
				<ele>747.5</ele>
				<time>2013-08-14T06:28:02Z</time>
				<hdop>1.0</hdop>
			</trkpt>
			<trkpt lat="46.87923068" lon="6.73283702">
				<ele>747.8</ele>
				<time>2013-08-14T06:28:03Z</time>
				<hdop>1.0</hdop>
			</trkpt>
			<trkpt lat="46.8792388" lon="6.73283238">
				<ele>747.9</ele>
				<time>2013-08-14T06:28:04Z</time>
				<hdop>1.0</hdop>
			</trkpt>
			<trkpt lat="46.8792549" lon="6.73282711">
				<ele>747.8</ele>
				<time>2013-08-14T06:28:05Z</time>
				<hdop>1.0</hdop>
			</trkpt>
			<trkpt lat="46.8792742" lon="6.73282924">
				<ele>747.4</ele>
				<time>2013-08-14T06:28:06Z</time>
				<hdop>1.0</hdop>
			</trkpt>
			<trkpt lat="46.8792896" lon="6.73282584">
				<ele>747.0</ele>
				<time>2013-08-14T06:28:07Z</time>
				<hdop>1.0</hdop>
			</trkpt>
			<trkpt lat="46.87931317" lon="6.73281637">
				<ele>747.3</ele>
				<time>2013-08-14T06:28:08Z</time>
				<hdop>1.0</hdop>
			</trkpt>
			<trkpt lat="46.87931595" lon="6.73280671">
				<ele>747.3</ele>
				<time>2013-08-14T06:28:09Z</time>
				<hdop>1.5</hdop>
			</trkpt>
			<trkpt lat="46.87933099" lon="6.73281226">
				<ele>747.6</ele>
				<time>2013-08-14T06:28:10Z</time>
				<hdop>1.5</hdop>
			</trkpt>
			<trkpt lat="46.87934776" lon="6.73281485">
				<ele>747.3</ele>
				<time>2013-08-14T06:28:11Z</time>
				<hdop>2.0</hdop>
			</trkpt>
			<trkpt lat="46.87935722" lon="6.73281033">
				<ele>747.2</ele>
				<time>2013-08-14T06:28:12Z</time>
				<hdop>2.0</hdop>
			</trkpt>
			<trkpt lat="46.87936743" lon="6.73280867">
				<ele>746.9</ele>
				<time>2013-08-14T06:28:13Z</time>
				<hdop>2.0</hdop>
			</trkpt>
			<trkpt lat="46.87938877" lon="6.73279764">
				<ele>746.2</ele>
				<time>2013-08-14T06:28:14Z</time>
				<hdop>2.0</hdop>
			</trkpt>
			<trkpt lat="46.87939575" lon="6.73279153">
				<ele>744.1</ele>
				<time>2013-08-14T06:28:15Z</time>
				<hdop>1.5</hdop>
			</trkpt>
			<trkpt lat="46.87941098" lon="6.73278635">
				<ele>743.5</ele>
				<time>2013-08-14T06:28:16Z</time>
				<hdop>1.5</hdop>
			</trkpt>
			<trkpt lat="46.87942381" lon="6.73278599">
				<ele>743.5</ele>
				<time>2013-08-14T06:28:17Z</time>
				<hdop>1.5</hdop>
			</trkpt>
			<trkpt lat="46.8794324" lon="6.73277969">
				<ele>743.7</ele>
				<time>2013-08-14T06:28:18Z</time>
				<hdop>1.5</hdop>
			</trkpt>
			<trkpt lat="46.87944234" lon="6.7327724">
				<ele>743.8</ele>
				<time>2013-08-14T06:28:19Z</time>
				<hdop>1.5</hdop>
			</trkpt>
			<trkpt lat="46.87944616" lon="6.73277862">
				<ele>741.0</ele>
				<time>2013-08-14T06:28:20Z</time>
				<hdop>1.0</hdop>
			</trkpt>
			<trkpt lat="46.8794593" lon="6.73277147">
				<ele>740.1</ele>
				<time>2013-08-14T06:28:21Z</time>
				<hdop>1.0</hdop>
			</trkpt>
			<trkpt lat="46.87947213" lon="6.7327614">
				<ele>740.9</ele>
				<time>2013-08-14T06:28:22Z</time>
				<hdop>1.0</hdop>
			</trkpt>
			<trkpt lat="46.87947909" lon="6.73275564">
				<ele>741.0</ele>
				<time>2013-08-14T06:28:23Z</time>
				<hdop>1.0</hdop>
			</trkpt>
			<trkpt lat="46.87949031" lon="6.73275267">
				<ele>740.7</ele>
				<time>2013-08-14T06:28:24Z</time>
				<hdop>1.0</hdop>
			</trkpt>
			<trkpt lat="46.87949699" lon="6.73275103">
				<ele>741.1</ele>
				<time>2013-08-14T06:28:25Z</time>
				<hdop>1.0</hdop>
			</trkpt>
			<trkpt lat="46.8795058" lon="6.73274558">
				<ele>741.9</ele>
				<time>2013-08-14T06:28:26Z</time>
				<hdop>1.0</hdop>
			</trkpt>
			<trkpt lat="46.87951306" lon="6.73274431">
				<ele>742.6</ele>
				<time>2013-08-14T06:28:27Z</time>
				<hdop>1.0</hdop>
			</trkpt>
			<trkpt lat="46.87952451" lon="6.73273853">
				<ele>743.0</ele>
				<time>2013-08-14T06:28:28Z</time>
				<hdop>1.0</hdop>
			</trkpt>
			<trkpt lat="46.87953539" lon="6.73273978">
				<ele>743.6</ele>
				<time>2013-08-14T06:28:29Z</time>
				<hdop>1.0</hdop>
			</trkpt>
			<trkpt lat="46.87954645" lon="6.73273785">
				<ele>744.1</ele>
				<time>2013-08-14T06:28:30Z</time>
				<hdop>1.0</hdop>
			</trkpt>
			<trkpt lat="46.87955698" lon="6.73273217">
				<ele>744.7</ele>
				<time>2013-08-14T06:28:31Z</time>
				<hdop>1.0</hdop>
			</trkpt>
			<trkpt lat="46.87956655" lon="6.73272888">
				<ele>745.1</ele>
				<time>2013-08-14T06:28:32Z</time>
				<hdop>1.0</hdop>
			</trkpt>
			<trkpt lat="46.87957398" lon="6.73272641">
				<ele>745.4</ele>
				<time>2013-08-14T06:28:33Z</time>
				<hdop>1.5</hdop>
			</trkpt>
			<trkpt lat="46.87957768" lon="6.73272397">
				<ele>745.8</ele>
				<time>2013-08-14T06:28:34Z</time>
				<hdop>1.5</hdop>
			</trkpt>
			<trkpt lat="46.87958151" lon="6.73272393">
				<ele>746.2</ele>
				<time>2013-08-14T06:28:35Z</time>
				<hdop>1.5</hdop>
			</trkpt>
			<trkpt lat="46.87958864" lon="6.73272691">
				<ele>746.2</ele>
				<time>2013-08-14T06:28:36Z</time>
				<hdop>3.0</hdop>
			</trkpt>
			<trkpt lat="46.87959356" lon="6.73273169">
				<ele>746.4</ele>
				<time>2013-08-14T06:28:37Z</time>
				<hdop>3.0</hdop>
			</trkpt>
			<trkpt lat="46.87960014" lon="6.732724">
				<ele>746.4</ele>
				<time>2013-08-14T06:28:38Z</time>
				<hdop>4.0</hdop>
			</trkpt>
			<trkpt lat="46.87963859" lon="6.73270997">
				<ele>747.8</ele>
				<time>2013-08-14T06:28:39Z</time>
				<hdop>3.0</hdop>
			</trkpt>
			<trkpt lat="46.87965197" lon="6.73269817">
				<ele>747.9</ele>
				<time>2013-08-14T06:28:40Z</time>
				<hdop>2.0</hdop>
			</trkpt>
			<trkpt lat="46.87966463" lon="6.73269201">
				<ele>748.0</ele>
				<time>2013-08-14T06:28:41Z</time>
				<hdop>1.5</hdop>
			</trkpt>
			<trkpt lat="46.87967488" lon="6.73268983">
				<ele>748.5</ele>
				<time>2013-08-14T06:28:42Z</time>
				<hdop>1.5</hdop>
			</trkpt>
			<trkpt lat="46.87968427" lon="6.73268522">
				<ele>748.7</ele>
				<time>2013-08-14T06:28:43Z</time>
				<hdop>1.5</hdop>
			</trkpt>
			<trkpt lat="46.87971046" lon="6.73267902">
				<ele>749.9</ele>
				<time>2013-08-14T06:28:44Z</time>
				<hdop>1.0</hdop>
			</trkpt>
			<trkpt lat="46.87971622" lon="6.73267245">
				<ele>750.2</ele>
				<time>2013-08-14T06:28:45Z</time>
				<hdop>1.0</hdop>
			</trkpt>
			<trkpt lat="46.87974189" lon="6.7326649">
				<ele>751.6</ele>
				<time>2013-08-14T06:28:46Z</time>
				<hdop>1.0</hdop>
			</trkpt>
			<trkpt lat="46.87975074" lon="6.73265757">
				<ele>752.1</ele>
				<time>2013-08-14T06:28:47Z</time>
				<hdop>1.0</hdop>
			</trkpt>
			<trkpt lat="46.87976545" lon="6.73266559">
				<ele>752.8</ele>
				<time>2013-08-14T06:28:48Z</time>
				<hdop>1.0</hdop>
			</trkpt>
			<trkpt lat="46.87979766" lon="6.73267432">
				<ele>753.5</ele>
				<time>2013-08-14T06:28:50Z</time>
				<hdop>1.0</hdop>
			</trkpt>
			<trkpt lat="46.8798105" lon="6.73266147">
				<ele>754.1</ele>
				<time>2013-08-14T06:28:51Z</time>
				<hdop>1.0</hdop>
			</trkpt>
			<trkpt lat="46.87982714" lon="6.73266866">
				<ele>753.3</ele>
				<time>2013-08-14T06:28:52Z</time>
				<hdop>1.0</hdop>
			</trkpt>
			<trkpt lat="46.8798369" lon="6.73267177">
				<ele>753.1</ele>
				<time>2013-08-14T06:28:53Z</time>
				<hdop>1.0</hdop>
			</trkpt>
			<trkpt lat="46.87984962" lon="6.73266846">
				<ele>753.2</ele>
				<time>2013-08-14T06:28:54Z</time>
				<hdop>1.0</hdop>
			</trkpt>
			<trkpt lat="46.87985908" lon="6.7326715">
				<ele>753.1</ele>
				<time>2013-08-14T06:28:55Z</time>
				<hdop>1.0</hdop>
			</trkpt>
			<trkpt lat="46.87987087" lon="6.73268478">
				<ele>752.7</ele>
				<time>2013-08-14T06:28:56Z</time>
				<hdop>1.0</hdop>
			</trkpt>
			<trkpt lat="46.87988248" lon="6.73267823">
				<ele>753.4</ele>
				<time>2013-08-14T06:28:57Z</time>
				<hdop>1.0</hdop>
			</trkpt>
			<trkpt lat="46.87989762" lon="6.73267707">
				<ele>754.1</ele>
				<time>2013-08-14T06:28:58Z</time>
				<hdop>1.0</hdop>
			</trkpt>
			<trkpt lat="46.87991688" lon="6.73267812">
				<ele>753.5</ele>
				<time>2013-08-14T06:29:00Z</time>
				<hdop>1.0</hdop>
			</trkpt>
			<trkpt lat="46.87993084" lon="6.73267838">
				<ele>753.6</ele>
				<time>2013-08-14T06:29:01Z</time>
				<hdop>1.0</hdop>
			</trkpt>
			<trkpt lat="46.87994108" lon="6.73267039">
				<ele>754.1</ele>
				<time>2013-08-14T06:29:02Z</time>
				<hdop>1.0</hdop>
			</trkpt>
			<trkpt lat="46.87994912" lon="6.73266222">
				<ele>754.3</ele>
				<time>2013-08-14T06:29:03Z</time>
				<hdop>1.0</hdop>
			</trkpt>
			<trkpt lat="46.87997442" lon="6.73267433">
				<ele>754.5</ele>
				<time>2013-08-14T06:29:04Z</time>
				<hdop>1.0</hdop>
			</trkpt>
			<trkpt lat="46.87998686" lon="6.73266611">
				<ele>755.1</ele>
				<time>2013-08-14T06:29:05Z</time>
				<hdop>1.0</hdop>
			</trkpt>
			<trkpt lat="46.87999392" lon="6.73266089">
				<ele>755.2</ele>
				<time>2013-08-14T06:29:06Z</time>
				<hdop>1.0</hdop>
			</trkpt>
			<trkpt lat="46.87999793" lon="6.73266498">
				<ele>755.7</ele>
				<time>2013-08-14T06:29:07Z</time>
				<hdop>1.0</hdop>
			</trkpt>
			<trkpt lat="46.88001917" lon="6.73266079">
				<ele>756.0</ele>
				<time>2013-08-14T06:29:09Z</time>
				<hdop>1.0</hdop>
			</trkpt>
			<trkpt lat="46.88001814" lon="6.7326671">
				<ele>756.8</ele>
				<time>2013-08-14T06:29:10Z</time>
				<hdop>1.0</hdop>
			</trkpt>
			<trkpt lat="46.88002978" lon="6.73266939">
				<ele>756.8</ele>
				<time>2013-08-14T06:29:11Z</time>
				<hdop>1.0</hdop>
			</trkpt>
			<trkpt lat="46.88005422" lon="6.73266962">
				<ele>757.2</ele>
				<time>2013-08-14T06:29:13Z</time>
				<hdop>1.0</hdop>
			</trkpt>
			<trkpt lat="46.88006486" lon="6.73267003">
				<ele>757.3</ele>
				<time>2013-08-14T06:29:14Z</time>
				<hdop>1.0</hdop>
			</trkpt>
			<trkpt lat="46.88007792" lon="6.73266555">
				<ele>757.4</ele>
				<time>2013-08-14T06:29:15Z</time>
				<hdop>1.0</hdop>
			</trkpt>
			<trkpt lat="46.88009066" lon="6.73266506">
				<ele>757.5</ele>
				<time>2013-08-14T06:29:16Z</time>
				<hdop>1.0</hdop>
			</trkpt>
			<trkpt lat="46.88009976" lon="6.73266277">
				<ele>758.0</ele>
				<time>2013-08-14T06:29:17Z</time>
				<hdop>1.0</hdop>
			</trkpt>
			<trkpt lat="46.88011395" lon="6.73265824">
				<ele>757.5</ele>
				<time>2013-08-14T06:29:18Z</time>
				<hdop>1.0</hdop>
			</trkpt>
			<trkpt lat="46.88013045" lon="6.73265534">
				<ele>757.9</ele>
				<time>2013-08-14T06:29:19Z</time>
				<hdop>1.0</hdop>
			</trkpt>
			<trkpt lat="46.88014036" lon="6.73265789">
				<ele>757.9</ele>
				<time>2013-08-14T06:29:20Z</time>
				<hdop>1.0</hdop>
			</trkpt>
			<trkpt lat="46.88015097" lon="6.73264962">
				<ele>758.4</ele>
				<time>2013-08-14T06:29:21Z</time>
				<hdop>1.0</hdop>
			</trkpt>
			<trkpt lat="46.88017238" lon="6.73264391">
				<ele>758.9</ele>
				<time>2013-08-14T06:29:23Z</time>
				<hdop>1.0</hdop>
			</trkpt>
			<trkpt lat="46.8801835" lon="6.73263624">
				<ele>758.9</ele>
				<time>2013-08-14T06:29:24Z</time>
				<hdop>1.0</hdop>
			</trkpt>
			<trkpt lat="46.88019456" lon="6.73262629">
				<ele>759.4</ele>
				<time>2013-08-14T06:29:25Z</time>
				<hdop>1.0</hdop>
			</trkpt>
			<trkpt lat="46.88020393" lon="6.73261684">
				<ele>759.4</ele>
				<time>2013-08-14T06:29:26Z</time>
				<hdop>1.0</hdop>
			</trkpt>
			<trkpt lat="46.88021449" lon="6.73260883">
				<ele>759.4</ele>
				<time>2013-08-14T06:29:27Z</time>
				<hdop>1.0</hdop>
			</trkpt>
			<trkpt lat="46.88022706" lon="6.73259818">
				<ele>759.4</ele>
				<time>2013-08-14T06:29:28Z</time>
				<hdop>1.0</hdop>
			</trkpt>
			<trkpt lat="46.88023696" lon="6.73258739">
				<ele>759.8</ele>
				<time>2013-08-14T06:29:29Z</time>
				<hdop>1.0</hdop>
			</trkpt>
			<trkpt lat="46.88024662" lon="6.73257581">
				<ele>759.8</ele>
				<time>2013-08-14T06:29:30Z</time>
				<hdop>1.0</hdop>
			</trkpt>
			<trkpt lat="46.88025601" lon="6.73256561">
				<ele>759.6</ele>
				<time>2013-08-14T06:29:31Z</time>
				<hdop>1.0</hdop>
			</trkpt>
			<trkpt lat="46.88026546" lon="6.73255334">
				<ele>759.9</ele>
				<time>2013-08-14T06:29:32Z</time>
				<hdop>1.0</hdop>
			</trkpt>
			<trkpt lat="46.88027284" lon="6.73254545">
				<ele>760.2</ele>
				<time>2013-08-14T06:29:33Z</time>
				<hdop>1.0</hdop>
			</trkpt>
			<trkpt lat="46.88028235" lon="6.73252984">
				<ele>760.4</ele>
				<time>2013-08-14T06:29:34Z</time>
				<hdop>1.0</hdop>
			</trkpt>
			<trkpt lat="46.88029042" lon="6.73251098">
				<ele>761.0</ele>
				<time>2013-08-14T06:29:35Z</time>
				<hdop>1.0</hdop>
			</trkpt>
			<trkpt lat="46.8802985" lon="6.73249429">
				<ele>761.0</ele>
				<time>2013-08-14T06:29:36Z</time>
				<hdop>1.0</hdop>
			</trkpt>
			<trkpt lat="46.88030425" lon="6.73248104">
				<ele>761.3</ele>
				<time>2013-08-14T06:29:37Z</time>
				<hdop>1.0</hdop>
			</trkpt>
			<trkpt lat="46.88031161" lon="6.73246424">
				<ele>761.4</ele>
				<time>2013-08-14T06:29:38Z</time>
				<hdop>1.0</hdop>
			</trkpt>
			<trkpt lat="46.88032145" lon="6.73245042">
				<ele>761.3</ele>
				<time>2013-08-14T06:29:39Z</time>
				<hdop>1.0</hdop>
			</trkpt>
			<trkpt lat="46.88032702" lon="6.73244271">
				<ele>761.2</ele>
				<time>2013-08-14T06:29:40Z</time>
				<hdop>1.0</hdop>
			</trkpt>
			<trkpt lat="46.88033035" lon="6.73242874">
				<ele>760.9</ele>
				<time>2013-08-14T06:29:41Z</time>
				<hdop>1.0</hdop>
			</trkpt>
			<trkpt lat="46.88033622" lon="6.7324135">
				<ele>761.0</ele>
				<time>2013-08-14T06:29:42Z</time>
				<hdop>1.0</hdop>
			</trkpt>
			<trkpt lat="46.88033984" lon="6.73239813">
				<ele>761.4</ele>
				<time>2013-08-14T06:29:43Z</time>
				<hdop>1.0</hdop>
			</trkpt>
			<trkpt lat="46.88034721" lon="6.73237638">
				<ele>762.4</ele>
				<time>2013-08-14T06:29:44Z</time>
				<hdop>1.0</hdop>
			</trkpt>
			<trkpt lat="46.88035501" lon="6.73235521">
				<ele>762.6</ele>
				<time>2013-08-14T06:29:45Z</time>
				<hdop>1.0</hdop>
			</trkpt>
			<trkpt lat="46.88036057" lon="6.73234293">
				<ele>762.3</ele>
				<time>2013-08-14T06:29:46Z</time>
				<hdop>1.0</hdop>
			</trkpt>
			<trkpt lat="46.88036259" lon="6.73233177">
				<ele>762.3</ele>
				<time>2013-08-14T06:29:47Z</time>
				<hdop>1.0</hdop>
			</trkpt>
			<trkpt lat="46.88036629" lon="6.73232057">
				<ele>761.9</ele>
				<time>2013-08-14T06:29:48Z</time>
				<hdop>1.0</hdop>
			</trkpt>
			<trkpt lat="46.88037337" lon="6.73230509">
				<ele>761.8</ele>
				<time>2013-08-14T06:29:49Z</time>
				<hdop>1.0</hdop>
			</trkpt>
			<trkpt lat="46.88038203" lon="6.73229117">
				<ele>761.6</ele>
				<time>2013-08-14T06:29:50Z</time>
				<hdop>1.0</hdop>
			</trkpt>
			<trkpt lat="46.88038885" lon="6.73227061">
				<ele>762.1</ele>
				<time>2013-08-14T06:29:51Z</time>
				<hdop>1.0</hdop>
			</trkpt>
			<trkpt lat="46.88039793" lon="6.73225167">
				<ele>762.5</ele>
				<time>2013-08-14T06:29:52Z</time>
				<hdop>1.0</hdop>
			</trkpt>
			<trkpt lat="46.88040352" lon="6.73223839">
				<ele>762.4</ele>
				<time>2013-08-14T06:29:53Z</time>
				<hdop>1.0</hdop>
			</trkpt>
			<trkpt lat="46.88040676" lon="6.73222956">
				<ele>762.7</ele>
				<time>2013-08-14T06:29:54Z</time>
				<hdop>1.0</hdop>
			</trkpt>
			<trkpt lat="46.88041368" lon="6.73221923">
				<ele>763.4</ele>
				<time>2013-08-14T06:29:55Z</time>
				<hdop>1.0</hdop>
			</trkpt>
			<trkpt lat="46.88042259" lon="6.73221136">
				<ele>763.8</ele>
				<time>2013-08-14T06:29:56Z</time>
				<hdop>1.0</hdop>
			</trkpt>
			<trkpt lat="46.88044413" lon="6.73220278">
				<ele>764.7</ele>
				<time>2013-08-14T06:29:57Z</time>
				<hdop>1.0</hdop>
			</trkpt>
			<trkpt lat="46.88046432" lon="6.73218972">
				<ele>765.7</ele>
				<time>2013-08-14T06:29:58Z</time>
				<hdop>1.0</hdop>
			</trkpt>
			<trkpt lat="46.88047404" lon="6.73217485">
				<ele>765.6</ele>
				<time>2013-08-14T06:29:59Z</time>
				<hdop>1.0</hdop>
			</trkpt>
			<trkpt lat="46.88047687" lon="6.73216093">
				<ele>765.7</ele>
				<time>2013-08-14T06:30:00Z</time>
				<hdop>1.0</hdop>
			</trkpt>
			<trkpt lat="46.88047814" lon="6.73214587">
				<ele>765.9</ele>
				<time>2013-08-14T06:30:01Z</time>
				<hdop>1.0</hdop>
			</trkpt>
			<trkpt lat="46.88048825" lon="6.73213442">
				<ele>766.2</ele>
				<time>2013-08-14T06:30:02Z</time>
				<hdop>1.0</hdop>
			</trkpt>
			<trkpt lat="46.88050003" lon="6.73211889">
				<ele>765.8</ele>
				<time>2013-08-14T06:30:03Z</time>
				<hdop>1.0</hdop>
			</trkpt>
			<trkpt lat="46.88051037" lon="6.73210121">
				<ele>766.2</ele>
				<time>2013-08-14T06:30:04Z</time>
				<hdop>1.0</hdop>
			</trkpt>
			<trkpt lat="46.88050744" lon="6.73207861">
				<ele>765.8</ele>
				<time>2013-08-14T06:30:05Z</time>
				<hdop>1.0</hdop>
			</trkpt>
			<trkpt lat="46.88050668" lon="6.73206097">
				<ele>765.1</ele>
				<time>2013-08-14T06:30:06Z</time>
				<hdop>1.0</hdop>
			</trkpt>
			<trkpt lat="46.88050547" lon="6.73204175">
				<ele>764.4</ele>
				<time>2013-08-14T06:30:07Z</time>
				<hdop>1.0</hdop>
			</trkpt>
			<trkpt lat="46.88050317" lon="6.73202424">
				<ele>764.0</ele>
				<time>2013-08-14T06:30:08Z</time>
				<hdop>1.0</hdop>
			</trkpt>
			<trkpt lat="46.88051165" lon="6.73199949">
				<ele>764.5</ele>
				<time>2013-08-14T06:30:09Z</time>
				<hdop>1.0</hdop>
			</trkpt>
			<trkpt lat="46.88052484" lon="6.73196686">
				<ele>764.2</ele>
				<time>2013-08-14T06:30:11Z</time>
				<hdop>1.0</hdop>
			</trkpt>
			<trkpt lat="46.88052952" lon="6.73194429">
				<ele>763.9</ele>
				<time>2013-08-14T06:30:12Z</time>
				<hdop>1.0</hdop>
			</trkpt>
			<trkpt lat="46.88053401" lon="6.73193976">
				<ele>763.4</ele>
				<time>2013-08-14T06:30:13Z</time>
				<hdop>1.0</hdop>
			</trkpt>
			<trkpt lat="46.88054033" lon="6.73192682">
				<ele>763.0</ele>
				<time>2013-08-14T06:30:14Z</time>
				<hdop>1.0</hdop>
			</trkpt>
			<trkpt lat="46.88054721" lon="6.73191457">
				<ele>763.7</ele>
				<time>2013-08-14T06:30:15Z</time>
				<hdop>1.0</hdop>
			</trkpt>
			<trkpt lat="46.88055188" lon="6.73189785">
				<ele>763.6</ele>
				<time>2013-08-14T06:30:16Z</time>
				<hdop>1.0</hdop>
			</trkpt>
			<trkpt lat="46.88055665" lon="6.73188042">
				<ele>763.9</ele>
				<time>2013-08-14T06:30:17Z</time>
				<hdop>1.0</hdop>
			</trkpt>
			<trkpt lat="46.88056157" lon="6.73185815">
				<ele>764.4</ele>
				<time>2013-08-14T06:30:18Z</time>
				<hdop>1.0</hdop>
			</trkpt>
			<trkpt lat="46.8805711" lon="6.73183728">
				<ele>764.7</ele>
				<time>2013-08-14T06:30:19Z</time>
				<hdop>1.0</hdop>
			</trkpt>
			<trkpt lat="46.88057512" lon="6.73182315">
				<ele>764.8</ele>
				<time>2013-08-14T06:30:20Z</time>
				<hdop>1.0</hdop>
			</trkpt>
			<trkpt lat="46.88058362" lon="6.73181205">
				<ele>765.1</ele>
				<time>2013-08-14T06:30:21Z</time>
				<hdop>1.0</hdop>
			</trkpt>
			<trkpt lat="46.88059025" lon="6.731797">
				<ele>765.4</ele>
				<time>2013-08-14T06:30:22Z</time>
				<hdop>1.0</hdop>
			</trkpt>
			<trkpt lat="46.88059614" lon="6.73178086">
				<ele>765.6</ele>
				<time>2013-08-14T06:30:23Z</time>
				<hdop>1.0</hdop>
			</trkpt>
			<trkpt lat="46.8806036" lon="6.73176833">
				<ele>765.7</ele>
				<time>2013-08-14T06:30:24Z</time>
				<hdop>1.0</hdop>
			</trkpt>
			<trkpt lat="46.88061065" lon="6.7317517">
				<ele>766.4</ele>
				<time>2013-08-14T06:30:25Z</time>
				<hdop>1.0</hdop>
			</trkpt>
			<trkpt lat="46.8806195" lon="6.73173823">
				<ele>766.3</ele>
				<time>2013-08-14T06:30:26Z</time>
				<hdop>1.0</hdop>
			</trkpt>
			<trkpt lat="46.88062978" lon="6.73172712">
				<ele>766.3</ele>
				<time>2013-08-14T06:30:27Z</time>
				<hdop>1.0</hdop>
			</trkpt>
			<trkpt lat="46.88063856" lon="6.73172413">
				<ele>766.3</ele>
				<time>2013-08-14T06:30:28Z</time>
				<hdop>1.0</hdop>
			</trkpt>
			<trkpt lat="46.88064969" lon="6.73171857">
				<ele>766.3</ele>
				<time>2013-08-14T06:30:29Z</time>
				<hdop>1.0</hdop>
			</trkpt>
			<trkpt lat="46.88066142" lon="6.73171262">
				<ele>766.0</ele>
				<time>2013-08-14T06:30:30Z</time>
				<hdop>1.0</hdop>
			</trkpt>
			<trkpt lat="46.88067257" lon="6.73171293">
				<ele>766.7</ele>
				<time>2013-08-14T06:30:31Z</time>
				<hdop>1.0</hdop>
			</trkpt>
			<trkpt lat="46.88069571" lon="6.73168676">
				<ele>767.9</ele>
				<time>2013-08-14T06:30:32Z</time>
				<hdop>1.0</hdop>
			</trkpt>
			<trkpt lat="46.88071476" lon="6.73166929">
				<ele>767.7</ele>
				<time>2013-08-14T06:30:33Z</time>
				<hdop>1.0</hdop>
			</trkpt>
			<trkpt lat="46.88071239" lon="6.73165566">
				<ele>767.6</ele>
				<time>2013-08-14T06:30:34Z</time>
				<hdop>1.0</hdop>
			</trkpt>
			<trkpt lat="46.88071661" lon="6.73163897">
				<ele>767.2</ele>
				<time>2013-08-14T06:30:35Z</time>
				<hdop>1.0</hdop>
			</trkpt>
			<trkpt lat="46.88072152" lon="6.73162876">
				<ele>767.4</ele>
				<time>2013-08-14T06:30:36Z</time>
				<hdop>1.0</hdop>
			</trkpt>
			<trkpt lat="46.88073652" lon="6.73162129">
				<ele>767.6</ele>
				<time>2013-08-14T06:30:37Z</time>
				<hdop>1.0</hdop>
			</trkpt>
			<trkpt lat="46.88074635" lon="6.73160954">
				<ele>768.3</ele>
				<time>2013-08-14T06:30:38Z</time>
				<hdop>1.0</hdop>
			</trkpt>
			<trkpt lat="46.88076046" lon="6.7315961">
				<ele>768.6</ele>
				<time>2013-08-14T06:30:39Z</time>
				<hdop>1.0</hdop>
			</trkpt>
			<trkpt lat="46.88077535" lon="6.73158424">
				<ele>768.2</ele>
				<time>2013-08-14T06:30:40Z</time>
				<hdop>1.0</hdop>
			</trkpt>
			<trkpt lat="46.88078408" lon="6.73158607">
				<ele>768.6</ele>
				<time>2013-08-14T06:30:41Z</time>
				<hdop>1.0</hdop>
			</trkpt>
			<trkpt lat="46.88079301" lon="6.73158732">
				<ele>768.4</ele>
				<time>2013-08-14T06:30:42Z</time>
				<hdop>1.0</hdop>
			</trkpt>
			<trkpt lat="46.88079884" lon="6.73156648">
				<ele>768.3</ele>
				<time>2013-08-14T06:30:43Z</time>
				<hdop>1.0</hdop>
			</trkpt>
			<trkpt lat="46.88081234" lon="6.73155328">
				<ele>768.2</ele>
				<time>2013-08-14T06:30:44Z</time>
				<hdop>1.0</hdop>
			</trkpt>
			<trkpt lat="46.88082958" lon="6.73154484">
				<ele>768.1</ele>
				<time>2013-08-14T06:30:45Z</time>
				<hdop>1.0</hdop>
			</trkpt>
			<trkpt lat="46.88084165" lon="6.73154292">
				<ele>768.6</ele>
				<time>2013-08-14T06:30:46Z</time>
				<hdop>1.0</hdop>
			</trkpt>
			<trkpt lat="46.88084255" lon="6.73153902">
				<ele>768.0</ele>
				<time>2013-08-14T06:30:47Z</time>
				<hdop>1.0</hdop>
			</trkpt>
			<trkpt lat="46.88084266" lon="6.73152934">
				<ele>767.9</ele>
				<time>2013-08-14T06:30:48Z</time>
				<hdop>1.0</hdop>
			</trkpt>
			<trkpt lat="46.88085103" lon="6.73152716">
				<ele>768.4</ele>
				<time>2013-08-14T06:30:49Z</time>
				<hdop>1.0</hdop>
			</trkpt>
			<trkpt lat="46.88085561" lon="6.73152163">
				<ele>768.5</ele>
				<time>2013-08-14T06:30:50Z</time>
				<hdop>1.0</hdop>
			</trkpt>
			<trkpt lat="46.88087742" lon="6.73151161">
				<ele>768.8</ele>
				<time>2013-08-14T06:30:51Z</time>
				<hdop>1.0</hdop>
			</trkpt>
			<trkpt lat="46.88089446" lon="6.73150912">
				<ele>768.9</ele>
				<time>2013-08-14T06:30:52Z</time>
				<hdop>1.0</hdop>
			</trkpt>
			<trkpt lat="46.88090992" lon="6.7315064">
				<ele>769.0</ele>
				<time>2013-08-14T06:30:53Z</time>
				<hdop>1.0</hdop>
			</trkpt>
			<trkpt lat="46.88092854" lon="6.73149753">
				<ele>768.9</ele>
				<time>2013-08-14T06:30:54Z</time>
				<hdop>1.0</hdop>
			</trkpt>
			<trkpt lat="46.8809334" lon="6.73150062">
				<ele>769.6</ele>
				<time>2013-08-14T06:30:55Z</time>
				<hdop>1.0</hdop>
			</trkpt>
			<trkpt lat="46.88093531" lon="6.73149542">
				<ele>769.7</ele>
				<time>2013-08-14T06:30:56Z</time>
				<hdop>1.0</hdop>
			</trkpt>
			<trkpt lat="46.88094328" lon="6.73148342">
				<ele>769.4</ele>
				<time>2013-08-14T06:30:57Z</time>
				<hdop>1.0</hdop>
			</trkpt>
			<trkpt lat="46.88095353" lon="6.73147803">
				<ele>768.5</ele>
				<time>2013-08-14T06:30:58Z</time>
				<hdop>1.0</hdop>
			</trkpt>
			<trkpt lat="46.88096414" lon="6.73146702">
				<ele>768.5</ele>
				<time>2013-08-14T06:30:59Z</time>
				<hdop>1.0</hdop>
			</trkpt>
			<trkpt lat="46.88097888" lon="6.73145953">
				<ele>768.8</ele>
				<time>2013-08-14T06:31:00Z</time>
				<hdop>1.0</hdop>
			</trkpt>
			<trkpt lat="46.88099783" lon="6.73144164">
				<ele>769.4</ele>
				<time>2013-08-14T06:31:01Z</time>
				<hdop>1.0</hdop>
			</trkpt>
			<trkpt lat="46.8810077" lon="6.73143123">
				<ele>769.6</ele>
				<time>2013-08-14T06:31:02Z</time>
				<hdop>1.0</hdop>
			</trkpt>
			<trkpt lat="46.88101678" lon="6.73142297">
				<ele>769.3</ele>
				<time>2013-08-14T06:31:03Z</time>
				<hdop>1.0</hdop>
			</trkpt>
			<trkpt lat="46.88102588" lon="6.73141693">
				<ele>769.5</ele>
				<time>2013-08-14T06:31:04Z</time>
				<hdop>1.0</hdop>
			</trkpt>
			<trkpt lat="46.88103461" lon="6.73141423">
				<ele>769.9</ele>
				<time>2013-08-14T06:31:05Z</time>
				<hdop>1.0</hdop>
			</trkpt>
			<trkpt lat="46.88104813" lon="6.73140677">
				<ele>769.6</ele>
				<time>2013-08-14T06:31:06Z</time>
				<hdop>1.0</hdop>
			</trkpt>
			<trkpt lat="46.88107136" lon="6.731405">
				<ele>770.5</ele>
				<time>2013-08-14T06:31:07Z</time>
				<hdop>1.0</hdop>
			</trkpt>
			<trkpt lat="46.88108771" lon="6.73139727">
				<ele>771.3</ele>
				<time>2013-08-14T06:31:08Z</time>
				<hdop>1.0</hdop>
			</trkpt>
			<trkpt lat="46.88110043" lon="6.73138747">
				<ele>770.9</ele>
				<time>2013-08-14T06:31:09Z</time>
				<hdop>1.0</hdop>
			</trkpt>
			<trkpt lat="46.88110426" lon="6.73138735">
				<ele>770.5</ele>
				<time>2013-08-14T06:31:10Z</time>
				<hdop>1.0</hdop>
			</trkpt>
			<trkpt lat="46.88110727" lon="6.73137581">
				<ele>770.8</ele>
				<time>2013-08-14T06:31:11Z</time>
				<hdop>1.0</hdop>
			</trkpt>
			<trkpt lat="46.88112041" lon="6.73137242">
				<ele>771.1</ele>
				<time>2013-08-14T06:31:12Z</time>
				<hdop>1.0</hdop>
			</trkpt>
			<trkpt lat="46.88114174" lon="6.73136528">
				<ele>770.9</ele>
				<time>2013-08-14T06:31:13Z</time>
				<hdop>1.0</hdop>
			</trkpt>
			<trkpt lat="46.88115646" lon="6.73135362">
				<ele>771.1</ele>
				<time>2013-08-14T06:31:14Z</time>
				<hdop>1.0</hdop>
			</trkpt>
			<trkpt lat="46.88116757" lon="6.73134477">
				<ele>771.9</ele>
				<time>2013-08-14T06:31:15Z</time>
				<hdop>1.0</hdop>
			</trkpt>
			<trkpt lat="46.88118132" lon="6.73133878">
				<ele>772.0</ele>
				<time>2013-08-14T06:31:16Z</time>
				<hdop>1.0</hdop>
			</trkpt>
			<trkpt lat="46.88119481" lon="6.73133115">
				<ele>772.8</ele>
				<time>2013-08-14T06:31:17Z</time>
				<hdop>1.0</hdop>
			</trkpt>
			<trkpt lat="46.88121221" lon="6.73131893">
				<ele>773.1</ele>
				<time>2013-08-14T06:31:18Z</time>
				<hdop>1.0</hdop>
			</trkpt>
			<trkpt lat="46.88121081" lon="6.73131298">
				<ele>773.3</ele>
				<time>2013-08-14T06:31:19Z</time>
				<hdop>1.0</hdop>
			</trkpt>
			<trkpt lat="46.88122369" lon="6.7313083">
				<ele>773.0</ele>
				<time>2013-08-14T06:31:20Z</time>
				<hdop>1.0</hdop>
			</trkpt>
			<trkpt lat="46.88123652" lon="6.73129739">
				<ele>772.5</ele>
				<time>2013-08-14T06:31:21Z</time>
				<hdop>1.0</hdop>
			</trkpt>
			<trkpt lat="46.88124954" lon="6.73128016">
				<ele>772.7</ele>
				<time>2013-08-14T06:31:22Z</time>
				<hdop>1.0</hdop>
			</trkpt>
			<trkpt lat="46.88126466" lon="6.73127438">
				<ele>772.8</ele>
				<time>2013-08-14T06:31:23Z</time>
				<hdop>1.0</hdop>
			</trkpt>
			<trkpt lat="46.88127807" lon="6.73125562">
				<ele>772.7</ele>
				<time>2013-08-14T06:31:24Z</time>
				<hdop>1.0</hdop>
			</trkpt>
			<trkpt lat="46.88128492" lon="6.73124252">
				<ele>773.0</ele>
				<time>2013-08-14T06:31:25Z</time>
				<hdop>1.0</hdop>
			</trkpt>
			<trkpt lat="46.88129523" lon="6.73123468">
				<ele>773.2</ele>
				<time>2013-08-14T06:31:26Z</time>
				<hdop>1.0</hdop>
			</trkpt>
			<trkpt lat="46.88130912" lon="6.73121534">
				<ele>773.4</ele>
				<time>2013-08-14T06:31:27Z</time>
				<hdop>1.0</hdop>
			</trkpt>
			<trkpt lat="46.88132324" lon="6.73120527">
				<ele>773.7</ele>
				<time>2013-08-14T06:31:28Z</time>
				<hdop>1.0</hdop>
			</trkpt>
			<trkpt lat="46.88133634" lon="6.73119562">
				<ele>774.1</ele>
				<time>2013-08-14T06:31:29Z</time>
				<hdop>1.0</hdop>
			</trkpt>
			<trkpt lat="46.88135228" lon="6.73118124">
				<ele>773.8</ele>
				<time>2013-08-14T06:31:30Z</time>
				<hdop>1.0</hdop>
			</trkpt>
			<trkpt lat="46.88136382" lon="6.73118085">
				<ele>774.0</ele>
				<time>2013-08-14T06:31:31Z</time>
				<hdop>1.0</hdop>
			</trkpt>
			<trkpt lat="46.88138587" lon="6.73119032">
				<ele>773.2</ele>
				<time>2013-08-14T06:31:32Z</time>
				<hdop>1.0</hdop>
			</trkpt>
			<trkpt lat="46.88139709" lon="6.73119805">
				<ele>772.9</ele>
				<time>2013-08-14T06:31:33Z</time>
				<hdop>1.0</hdop>
			</trkpt>
			<trkpt lat="46.88140614" lon="6.7311915">
				<ele>772.7</ele>
				<time>2013-08-14T06:31:34Z</time>
				<hdop>1.0</hdop>
			</trkpt>
			<trkpt lat="46.88141983" lon="6.73117708">
				<ele>773.6</ele>
				<time>2013-08-14T06:31:35Z</time>
				<hdop>1.0</hdop>
			</trkpt>
			<trkpt lat="46.88143641" lon="6.7311697">
				<ele>773.0</ele>
				<time>2013-08-14T06:31:36Z</time>
				<hdop>1.0</hdop>
			</trkpt>
			<trkpt lat="46.88144813" lon="6.73116797">
				<ele>771.1</ele>
				<time>2013-08-14T06:31:37Z</time>
				<hdop>1.0</hdop>
			</trkpt>
			<trkpt lat="46.88146435" lon="6.73116082">
				<ele>769.8</ele>
				<time>2013-08-14T06:31:38Z</time>
				<hdop>1.0</hdop>
			</trkpt>
			<trkpt lat="46.88148203" lon="6.7311623">
				<ele>769.4</ele>
				<time>2013-08-14T06:31:39Z</time>
				<hdop>1.0</hdop>
			</trkpt>
			<trkpt lat="46.88150373" lon="6.73114841">
				<ele>769.6</ele>
				<time>2013-08-14T06:31:40Z</time>
				<hdop>1.0</hdop>
			</trkpt>
			<trkpt lat="46.88151064" lon="6.73113646">
				<ele>769.7</ele>
				<time>2013-08-14T06:31:41Z</time>
				<hdop>1.0</hdop>
			</trkpt>
			<trkpt lat="46.88151761" lon="6.73113118">
				<ele>769.2</ele>
				<time>2013-08-14T06:31:42Z</time>
				<hdop>1.0</hdop>
			</trkpt>
			<trkpt lat="46.88153114" lon="6.7311307">
				<ele>770.0</ele>
				<time>2013-08-14T06:31:43Z</time>
				<hdop>1.0</hdop>
			</trkpt>
			<trkpt lat="46.88154551" lon="6.73112039">
				<ele>770.6</ele>
				<time>2013-08-14T06:31:44Z</time>
				<hdop>1.0</hdop>
			</trkpt>
			<trkpt lat="46.88156343" lon="6.73111187">
				<ele>770.5</ele>
				<time>2013-08-14T06:31:45Z</time>
				<hdop>1.0</hdop>
			</trkpt>
			<trkpt lat="46.88158334" lon="6.73109829">
				<ele>770.6</ele>
				<time>2013-08-14T06:31:46Z</time>
				<hdop>1.0</hdop>
			</trkpt>
			<trkpt lat="46.8816" lon="6.73107795">
				<ele>771.6</ele>
				<time>2013-08-14T06:31:47Z</time>
				<hdop>1.0</hdop>
			</trkpt>
			<trkpt lat="46.88161239" lon="6.73106231">
				<ele>771.7</ele>
				<time>2013-08-14T06:31:48Z</time>
				<hdop>1.0</hdop>
			</trkpt>
			<trkpt lat="46.8816223" lon="6.73104698">
				<ele>771.6</ele>
				<time>2013-08-14T06:31:49Z</time>
				<hdop>1.0</hdop>
			</trkpt>
			<trkpt lat="46.8816222" lon="6.73104641">
				<ele>771.6</ele>
				<time>2013-08-14T06:31:50Z</time>
				<hdop>1.0</hdop>
			</trkpt>
			<trkpt lat="46.88162393" lon="6.73104547">
				<ele>771.5</ele>
				<time>2013-08-14T06:31:51Z</time>
				<hdop>1.0</hdop>
			</trkpt>
			<trkpt lat="46.88163312" lon="6.73104562">
				<ele>772.2</ele>
				<time>2013-08-14T06:31:52Z</time>
				<hdop>1.0</hdop>
			</trkpt>
			<trkpt lat="46.88164587" lon="6.73104395">
				<ele>772.0</ele>
				<time>2013-08-14T06:31:53Z</time>
				<hdop>1.0</hdop>
			</trkpt>
			<trkpt lat="46.88164901" lon="6.73102826">
				<ele>772.0</ele>
				<time>2013-08-14T06:31:54Z</time>
				<hdop>1.0</hdop>
			</trkpt>
			<trkpt lat="46.88165751" lon="6.73101311">
				<ele>772.2</ele>
				<time>2013-08-14T06:31:55Z</time>
				<hdop>1.0</hdop>
			</trkpt>
			<trkpt lat="46.8816713" lon="6.7310169">
				<ele>772.3</ele>
				<time>2013-08-14T06:31:56Z</time>
				<hdop>1.0</hdop>
			</trkpt>
			<trkpt lat="46.88168521" lon="6.73099885">
				<ele>772.2</ele>
				<time>2013-08-14T06:31:57Z</time>
				<hdop>1.0</hdop>
			</trkpt>
			<trkpt lat="46.88169707" lon="6.73099441">
				<ele>771.7</ele>
				<time>2013-08-14T06:31:58Z</time>
				<hdop>1.0</hdop>
			</trkpt>
			<trkpt lat="46.88170363" lon="6.73099422">
				<ele>771.9</ele>
				<time>2013-08-14T06:31:59Z</time>
				<hdop>1.0</hdop>
			</trkpt>
			<trkpt lat="46.88171353" lon="6.730988">
				<ele>772.2</ele>
				<time>2013-08-14T06:32:00Z</time>
				<hdop>1.0</hdop>
			</trkpt>
			<trkpt lat="46.88172798" lon="6.73097957">
				<ele>772.6</ele>
				<time>2013-08-14T06:32:01Z</time>
				<hdop>1.0</hdop>
			</trkpt>
			<trkpt lat="46.88174298" lon="6.73096638">
				<ele>772.4</ele>
				<time>2013-08-14T06:32:02Z</time>
				<hdop>1.0</hdop>
			</trkpt>
			<trkpt lat="46.88175557" lon="6.73095748">
				<ele>772.0</ele>
				<time>2013-08-14T06:32:03Z</time>
				<hdop>1.0</hdop>
			</trkpt>
			<trkpt lat="46.8817638" lon="6.73093739">
				<ele>772.6</ele>
				<time>2013-08-14T06:32:04Z</time>
				<hdop>1.0</hdop>
			</trkpt>
			<trkpt lat="46.88178664" lon="6.73093646">
				<ele>772.3</ele>
				<time>2013-08-14T06:32:05Z</time>
				<hdop>1.0</hdop>
			</trkpt>
			<trkpt lat="46.88179952" lon="6.73092442">
				<ele>771.7</ele>
				<time>2013-08-14T06:32:06Z</time>
				<hdop>1.0</hdop>
			</trkpt>
			<trkpt lat="46.88180908" lon="6.7309147">
				<ele>772.1</ele>
				<time>2013-08-14T06:32:07Z</time>
				<hdop>1.0</hdop>
			</trkpt>
			<trkpt lat="46.88181612" lon="6.73091304">
				<ele>771.8</ele>
				<time>2013-08-14T06:32:08Z</time>
				<hdop>1.0</hdop>
			</trkpt>
			<trkpt lat="46.88182372" lon="6.73090431">
				<ele>771.8</ele>
				<time>2013-08-14T06:32:09Z</time>
				<hdop>1.0</hdop>
			</trkpt>
			<trkpt lat="46.88183945" lon="6.73088991">
				<ele>772.3</ele>
				<time>2013-08-14T06:32:10Z</time>
				<hdop>1.0</hdop>
			</trkpt>
			<trkpt lat="46.88185117" lon="6.73087772">
				<ele>772.9</ele>
				<time>2013-08-14T06:32:11Z</time>
				<hdop>1.0</hdop>
			</trkpt>
			<trkpt lat="46.88186652" lon="6.73086826">
				<ele>772.5</ele>
				<time>2013-08-14T06:32:12Z</time>
				<hdop>1.0</hdop>
			</trkpt>
			<trkpt lat="46.88187806" lon="6.73086092">
				<ele>773.3</ele>
				<time>2013-08-14T06:32:13Z</time>
				<hdop>1.0</hdop>
			</trkpt>
			<trkpt lat="46.8818906" lon="6.73085484">
				<ele>773.4</ele>
				<time>2013-08-14T06:32:14Z</time>
				<hdop>1.0</hdop>
			</trkpt>
			<trkpt lat="46.88190311" lon="6.73084903">
				<ele>773.6</ele>
				<time>2013-08-14T06:32:15Z</time>
				<hdop>1.0</hdop>
			</trkpt>
			<trkpt lat="46.88189529" lon="6.73083006">
				<ele>773.3</ele>
				<time>2013-08-14T06:32:16Z</time>
				<hdop>1.0</hdop>
			</trkpt>
			<trkpt lat="46.88190281" lon="6.73082606">
				<ele>773.8</ele>
				<time>2013-08-14T06:32:17Z</time>
				<hdop>1.0</hdop>
			</trkpt>
			<trkpt lat="46.88192111" lon="6.73081873">
				<ele>773.9</ele>
				<time>2013-08-14T06:32:18Z</time>
				<hdop>1.0</hdop>
			</trkpt>
			<trkpt lat="46.88193494" lon="6.73081606">
				<ele>774.2</ele>
				<time>2013-08-14T06:32:19Z</time>
				<hdop>1.0</hdop>
			</trkpt>
			<trkpt lat="46.88194621" lon="6.73081461">
				<ele>773.9</ele>
				<time>2013-08-14T06:32:20Z</time>
				<hdop>1.0</hdop>
			</trkpt>
			<trkpt lat="46.88196416" lon="6.73081014">
				<ele>773.5</ele>
				<time>2013-08-14T06:32:21Z</time>
				<hdop>1.0</hdop>
			</trkpt>
			<trkpt lat="46.8819692" lon="6.73077939">
				<ele>773.2</ele>
				<time>2013-08-14T06:32:22Z</time>
				<hdop>1.0</hdop>
			</trkpt>
			<trkpt lat="46.88199294" lon="6.7307709">
				<ele>773.2</ele>
				<time>2013-08-14T06:32:23Z</time>
				<hdop>1.0</hdop>
			</trkpt>
			<trkpt lat="46.88199666" lon="6.73074444">
				<ele>772.6</ele>
				<time>2013-08-14T06:32:24Z</time>
				<hdop>1.0</hdop>
			</trkpt>
			<trkpt lat="46.88200663" lon="6.73072619">
				<ele>772.7</ele>
				<time>2013-08-14T06:32:25Z</time>
				<hdop>1.0</hdop>
			</trkpt>
			<trkpt lat="46.88200442" lon="6.73071161">
				<ele>772.8</ele>
				<time>2013-08-14T06:32:26Z</time>
				<hdop>1.0</hdop>
			</trkpt>
			<trkpt lat="46.88201216" lon="6.73070787">
				<ele>773.4</ele>
				<time>2013-08-14T06:32:27Z</time>
				<hdop>1.0</hdop>
			</trkpt>
			<trkpt lat="46.88202499" lon="6.73070932">
				<ele>773.5</ele>
				<time>2013-08-14T06:32:28Z</time>
				<hdop>1.0</hdop>
			</trkpt>
			<trkpt lat="46.88204159" lon="6.73070488">
				<ele>773.4</ele>
				<time>2013-08-14T06:32:29Z</time>
				<hdop>1.0</hdop>
			</trkpt>
			<trkpt lat="46.88205911" lon="6.73069478">
				<ele>773.8</ele>
				<time>2013-08-14T06:32:30Z</time>
				<hdop>1.0</hdop>
			</trkpt>
			<trkpt lat="46.88206971" lon="6.73068938">
				<ele>773.9</ele>
				<time>2013-08-14T06:32:31Z</time>
				<hdop>1.0</hdop>
			</trkpt>
			<trkpt lat="46.88208125" lon="6.7306783">
				<ele>773.8</ele>
				<time>2013-08-14T06:32:32Z</time>
				<hdop>1.0</hdop>
			</trkpt>
			<trkpt lat="46.88209399" lon="6.73066241">
				<ele>774.6</ele>
				<time>2013-08-14T06:32:33Z</time>
				<hdop>1.0</hdop>
			</trkpt>
			<trkpt lat="46.88211379" lon="6.73065085">
				<ele>775.1</ele>
				<time>2013-08-14T06:32:34Z</time>
				<hdop>1.0</hdop>
			</trkpt>
			<trkpt lat="46.88212183" lon="6.73064231">
				<ele>775.0</ele>
				<time>2013-08-14T06:32:35Z</time>
				<hdop>1.0</hdop>
			</trkpt>
			<trkpt lat="46.88213258" lon="6.73063881">
				<ele>774.9</ele>
				<time>2013-08-14T06:32:36Z</time>
				<hdop>1.0</hdop>
			</trkpt>
			<trkpt lat="46.88214046" lon="6.73063029">
				<ele>775.5</ele>
				<time>2013-08-14T06:32:37Z</time>
				<hdop>1.0</hdop>
			</trkpt>
			<trkpt lat="46.88215062" lon="6.73062028">
				<ele>775.9</ele>
				<time>2013-08-14T06:32:38Z</time>
				<hdop>1.0</hdop>
			</trkpt>
			<trkpt lat="46.88216573" lon="6.73060977">
				<ele>776.0</ele>
				<time>2013-08-14T06:32:39Z</time>
				<hdop>1.0</hdop>
			</trkpt>
			<trkpt lat="46.88217616" lon="6.73059967">
				<ele>776.1</ele>
				<time>2013-08-14T06:32:40Z</time>
				<hdop>1.0</hdop>
			</trkpt>
			<trkpt lat="46.88217872" lon="6.73058791">
				<ele>776.0</ele>
				<time>2013-08-14T06:32:41Z</time>
				<hdop>1.0</hdop>
			</trkpt>
			<trkpt lat="46.88218922" lon="6.73057982">
				<ele>776.1</ele>
				<time>2013-08-14T06:32:42Z</time>
				<hdop>1.0</hdop>
			</trkpt>
			<trkpt lat="46.88220598" lon="6.73057504">
				<ele>776.0</ele>
				<time>2013-08-14T06:32:43Z</time>
				<hdop>1.0</hdop>
			</trkpt>
			<trkpt lat="46.88221719" lon="6.73056836">
				<ele>775.9</ele>
				<time>2013-08-14T06:32:44Z</time>
				<hdop>1.0</hdop>
			</trkpt>
			<trkpt lat="46.88223252" lon="6.73056712">
				<ele>775.7</ele>
				<time>2013-08-14T06:32:45Z</time>
				<hdop>1.0</hdop>
			</trkpt>
			<trkpt lat="46.88224658" lon="6.73056197">
				<ele>775.6</ele>
				<time>2013-08-14T06:32:46Z</time>
				<hdop>1.0</hdop>
			</trkpt>
			<trkpt lat="46.88225997" lon="6.73055037">
				<ele>776.2</ele>
				<time>2013-08-14T06:32:47Z</time>
				<hdop>1.0</hdop>
			</trkpt>
			<trkpt lat="46.88226869" lon="6.73054014">
				<ele>777.1</ele>
				<time>2013-08-14T06:32:48Z</time>
				<hdop>1.0</hdop>
			</trkpt>
			<trkpt lat="46.88228599" lon="6.73052832">
				<ele>776.0</ele>
				<time>2013-08-14T06:32:49Z</time>
				<hdop>1.0</hdop>
			</trkpt>
			<trkpt lat="46.88230064" lon="6.73052158">
				<ele>775.9</ele>
				<time>2013-08-14T06:32:50Z</time>
				<hdop>1.0</hdop>
			</trkpt>
			<trkpt lat="46.88231119" lon="6.73051795">
				<ele>775.9</ele>
				<time>2013-08-14T06:32:51Z</time>
				<hdop>1.0</hdop>
			</trkpt>
			<trkpt lat="46.88231966" lon="6.73051269">
				<ele>776.0</ele>
				<time>2013-08-14T06:32:52Z</time>
				<hdop>1.0</hdop>
			</trkpt>
			<trkpt lat="46.88232843" lon="6.73050109">
				<ele>775.3</ele>
				<time>2013-08-14T06:32:53Z</time>
				<hdop>1.0</hdop>
			</trkpt>
			<trkpt lat="46.88233684" lon="6.73049121">
				<ele>775.2</ele>
				<time>2013-08-14T06:32:54Z</time>
				<hdop>1.0</hdop>
			</trkpt>
			<trkpt lat="46.88234654" lon="6.73048439">
				<ele>775.7</ele>
				<time>2013-08-14T06:32:55Z</time>
				<hdop>1.0</hdop>
			</trkpt>
			<trkpt lat="46.88235863" lon="6.73047181">
				<ele>776.5</ele>
				<time>2013-08-14T06:32:56Z</time>
				<hdop>1.0</hdop>
			</trkpt>
			<trkpt lat="46.88236914" lon="6.73046388">
				<ele>777.1</ele>
				<time>2013-08-14T06:32:57Z</time>
				<hdop>1.0</hdop>
			</trkpt>
			<trkpt lat="46.88238414" lon="6.7304584">
				<ele>776.5</ele>
				<time>2013-08-14T06:32:58Z</time>
				<hdop>1.0</hdop>
			</trkpt>
			<trkpt lat="46.88239845" lon="6.730451">
				<ele>777.0</ele>
				<time>2013-08-14T06:32:59Z</time>
				<hdop>1.0</hdop>
			</trkpt>
			<trkpt lat="46.88241278" lon="6.73043516">
				<ele>776.9</ele>
				<time>2013-08-14T06:33:00Z</time>
				<hdop>1.0</hdop>
			</trkpt>
			<trkpt lat="46.88242729" lon="6.73043117">
				<ele>776.3</ele>
				<time>2013-08-14T06:33:01Z</time>
				<hdop>1.0</hdop>
			</trkpt>
			<trkpt lat="46.88244149" lon="6.73041929">
				<ele>776.1</ele>
				<time>2013-08-14T06:33:02Z</time>
				<hdop>1.0</hdop>
			</trkpt>
			<trkpt lat="46.88245287" lon="6.7304096">
				<ele>775.8</ele>
				<time>2013-08-14T06:33:03Z</time>
				<hdop>1.0</hdop>
			</trkpt>
			<trkpt lat="46.88246959" lon="6.73040648">
				<ele>776.7</ele>
				<time>2013-08-14T06:33:04Z</time>
				<hdop>1.0</hdop>
			</trkpt>
			<trkpt lat="46.88248957" lon="6.73039148">
				<ele>777.1</ele>
				<time>2013-08-14T06:33:05Z</time>
				<hdop>1.0</hdop>
			</trkpt>
			<trkpt lat="46.8824998" lon="6.73038473">
				<ele>777.2</ele>
				<time>2013-08-14T06:33:06Z</time>
				<hdop>1.0</hdop>
			</trkpt>
			<trkpt lat="46.88251149" lon="6.73036796">
				<ele>777.2</ele>
				<time>2013-08-14T06:33:07Z</time>
				<hdop>1.0</hdop>
			</trkpt>
			<trkpt lat="46.88251207" lon="6.73035721">
				<ele>777.1</ele>
				<time>2013-08-14T06:33:08Z</time>
				<hdop>1.0</hdop>
			</trkpt>
			<trkpt lat="46.8825196" lon="6.7303435">
				<ele>777.2</ele>
				<time>2013-08-14T06:33:09Z</time>
				<hdop>1.0</hdop>
			</trkpt>
			<trkpt lat="46.88253477" lon="6.73032852">
				<ele>777.4</ele>
				<time>2013-08-14T06:33:10Z</time>
				<hdop>1.0</hdop>
			</trkpt>
			<trkpt lat="46.88255866" lon="6.73030561">
				<ele>778.3</ele>
				<time>2013-08-14T06:33:11Z</time>
				<hdop>1.5</hdop>
			</trkpt>
			<trkpt lat="46.88257143" lon="6.73031253">
				<ele>778.9</ele>
				<time>2013-08-14T06:33:12Z</time>
				<hdop>1.0</hdop>
			</trkpt>
			<trkpt lat="46.88260345" lon="6.73031613">
				<ele>778.7</ele>
				<time>2013-08-14T06:33:13Z</time>
				<hdop>1.0</hdop>
			</trkpt>
			<trkpt lat="46.88260785" lon="6.73030971">
				<ele>778.8</ele>
				<time>2013-08-14T06:33:14Z</time>
				<hdop>1.0</hdop>
			</trkpt>
			<trkpt lat="46.88261953" lon="6.73030059">
				<ele>778.9</ele>
				<time>2013-08-14T06:33:15Z</time>
				<hdop>1.5</hdop>
			</trkpt>
			<trkpt lat="46.88263107" lon="6.73028781">
				<ele>778.9</ele>
				<time>2013-08-14T06:33:16Z</time>
				<hdop>1.5</hdop>
			</trkpt>
			<trkpt lat="46.8826353" lon="6.73027695">
				<ele>778.8</ele>
				<time>2013-08-14T06:33:17Z</time>
				<hdop>1.5</hdop>
			</trkpt>
			<trkpt lat="46.88266279" lon="6.73025929">
				<ele>779.7</ele>
				<time>2013-08-14T06:33:18Z</time>
				<hdop>1.0</hdop>
			</trkpt>
			<trkpt lat="46.88267816" lon="6.73025403">
				<ele>780.6</ele>
				<time>2013-08-14T06:33:19Z</time>
				<hdop>1.0</hdop>
			</trkpt>
			<trkpt lat="46.8826952" lon="6.73024134">
				<ele>780.3</ele>
				<time>2013-08-14T06:33:20Z</time>
				<hdop>1.0</hdop>
			</trkpt>
			<trkpt lat="46.88269356" lon="6.73024265">
				<ele>780.5</ele>
				<time>2013-08-14T06:33:21Z</time>
				<hdop>1.0</hdop>
			</trkpt>
			<trkpt lat="46.88270908" lon="6.73023325">
				<ele>781.3</ele>
				<time>2013-08-14T06:33:22Z</time>
				<hdop>1.0</hdop>
			</trkpt>
			<trkpt lat="46.88272125" lon="6.73022048">
				<ele>781.8</ele>
				<time>2013-08-14T06:33:23Z</time>
				<hdop>1.0</hdop>
			</trkpt>
			<trkpt lat="46.88273615" lon="6.73021553">
				<ele>781.6</ele>
				<time>2013-08-14T06:33:24Z</time>
				<hdop>1.0</hdop>
			</trkpt>
			<trkpt lat="46.88274597" lon="6.73020774">
				<ele>782.1</ele>
				<time>2013-08-14T06:33:25Z</time>
				<hdop>1.0</hdop>
			</trkpt>
			<trkpt lat="46.88275601" lon="6.73019526">
				<ele>782.6</ele>
				<time>2013-08-14T06:33:26Z</time>
				<hdop>1.0</hdop>
			</trkpt>
			<trkpt lat="46.88276574" lon="6.73016376">
				<ele>782.4</ele>
				<time>2013-08-14T06:33:27Z</time>
				<hdop>1.0</hdop>
			</trkpt>
			<trkpt lat="46.88277798" lon="6.7301535">
				<ele>782.0</ele>
				<time>2013-08-14T06:33:28Z</time>
				<hdop>1.0</hdop>
			</trkpt>
			<trkpt lat="46.88278708" lon="6.730146">
				<ele>782.7</ele>
				<time>2013-08-14T06:33:29Z</time>
				<hdop>1.0</hdop>
			</trkpt>
			<trkpt lat="46.88279711" lon="6.73014054">
				<ele>782.8</ele>
				<time>2013-08-14T06:33:30Z</time>
				<hdop>1.0</hdop>
			</trkpt>
			<trkpt lat="46.88279601" lon="6.73012566">
				<ele>783.8</ele>
				<time>2013-08-14T06:33:31Z</time>
				<hdop>1.0</hdop>
			</trkpt>
			<trkpt lat="46.88281698" lon="6.73011302">
				<ele>784.0</ele>
				<time>2013-08-14T06:33:32Z</time>
				<hdop>1.0</hdop>
			</trkpt>
			<trkpt lat="46.8828222" lon="6.73010356">
				<ele>783.7</ele>
				<time>2013-08-14T06:33:33Z</time>
				<hdop>1.0</hdop>
			</trkpt>
			<trkpt lat="46.88283474" lon="6.73008196">
				<ele>783.6</ele>
				<time>2013-08-14T06:33:34Z</time>
				<hdop>1.0</hdop>
			</trkpt>
			<trkpt lat="46.88284812" lon="6.73006326">
				<ele>783.2</ele>
				<time>2013-08-14T06:33:35Z</time>
				<hdop>1.0</hdop>
			</trkpt>
			<trkpt lat="46.88286216" lon="6.73004398">
				<ele>783.5</ele>
				<time>2013-08-14T06:33:36Z</time>
				<hdop>1.0</hdop>
			</trkpt>
			<trkpt lat="46.88287369" lon="6.73003023">
				<ele>784.1</ele>
				<time>2013-08-14T06:33:37Z</time>
				<hdop>1.0</hdop>
			</trkpt>
			<trkpt lat="46.8828875" lon="6.73001847">
				<ele>784.6</ele>
				<time>2013-08-14T06:33:38Z</time>
				<hdop>1.0</hdop>
			</trkpt>
			<trkpt lat="46.88290098" lon="6.73001794">
				<ele>784.8</ele>
				<time>2013-08-14T06:33:39Z</time>
				<hdop>1.0</hdop>
			</trkpt>
			<trkpt lat="46.88291054" lon="6.73000066">
				<ele>784.7</ele>
				<time>2013-08-14T06:33:40Z</time>
				<hdop>1.0</hdop>
			</trkpt>
			<trkpt lat="46.88291879" lon="6.72998755">
				<ele>784.4</ele>
				<time>2013-08-14T06:33:41Z</time>
				<hdop>1.0</hdop>
			</trkpt>
			<trkpt lat="46.88293112" lon="6.72997568">
				<ele>783.3</ele>
				<time>2013-08-14T06:33:42Z</time>
				<hdop>1.0</hdop>
			</trkpt>
			<trkpt lat="46.8829433" lon="6.72997234">
				<ele>782.9</ele>
				<time>2013-08-14T06:33:43Z</time>
				<hdop>1.0</hdop>
			</trkpt>
			<trkpt lat="46.88295596" lon="6.72995286">
				<ele>782.7</ele>
				<time>2013-08-14T06:33:44Z</time>
				<hdop>1.0</hdop>
			</trkpt>
			<trkpt lat="46.88297135" lon="6.72992772">
				<ele>782.5</ele>
				<time>2013-08-14T06:33:45Z</time>
				<hdop>1.0</hdop>
			</trkpt>
			<trkpt lat="46.88297697" lon="6.72991409">
				<ele>782.4</ele>
				<time>2013-08-14T06:33:46Z</time>
				<hdop>1.0</hdop>
			</trkpt>
			<trkpt lat="46.88298859" lon="6.72990382">
				<ele>782.6</ele>
				<time>2013-08-14T06:33:47Z</time>
				<hdop>1.0</hdop>
			</trkpt>
			<trkpt lat="46.8829872" lon="6.72989737">
				<ele>782.6</ele>
				<time>2013-08-14T06:33:48Z</time>
				<hdop>1.0</hdop>
			</trkpt>
			<trkpt lat="46.88298279" lon="6.72988805">
				<ele>782.5</ele>
				<time>2013-08-14T06:33:49Z</time>
				<hdop>1.0</hdop>
			</trkpt>
			<trkpt lat="46.88300512" lon="6.72988196">
				<ele>782.7</ele>
				<time>2013-08-14T06:33:50Z</time>
				<hdop>1.0</hdop>
			</trkpt>
			<trkpt lat="46.88301867" lon="6.72986959">
				<ele>783.2</ele>
				<time>2013-08-14T06:33:51Z</time>
				<hdop>1.0</hdop>
			</trkpt>
			<trkpt lat="46.88302958" lon="6.72985684">
				<ele>783.2</ele>
				<time>2013-08-14T06:33:52Z</time>
				<hdop>1.0</hdop>
			</trkpt>
			<trkpt lat="46.88305017" lon="6.72984804">
				<ele>783.6</ele>
				<time>2013-08-14T06:33:53Z</time>
				<hdop>1.0</hdop>
			</trkpt>
			<trkpt lat="46.8830587" lon="6.72982751">
				<ele>784.0</ele>
				<time>2013-08-14T06:33:54Z</time>
				<hdop>1.0</hdop>
			</trkpt>
			<trkpt lat="46.88307272" lon="6.72981244">
				<ele>784.3</ele>
				<time>2013-08-14T06:33:55Z</time>
				<hdop>1.0</hdop>
			</trkpt>
			<trkpt lat="46.88306975" lon="6.72979781">
				<ele>784.9</ele>
				<time>2013-08-14T06:33:56Z</time>
				<hdop>1.0</hdop>
			</trkpt>
			<trkpt lat="46.88307557" lon="6.72978087">
				<ele>785.4</ele>
				<time>2013-08-14T06:33:57Z</time>
				<hdop>1.0</hdop>
			</trkpt>
			<trkpt lat="46.88308115" lon="6.72977089">
				<ele>785.7</ele>
				<time>2013-08-14T06:33:58Z</time>
				<hdop>1.0</hdop>
			</trkpt>
			<trkpt lat="46.88310206" lon="6.72974142">
				<ele>785.8</ele>
				<time>2013-08-14T06:34:00Z</time>
				<hdop>1.0</hdop>
			</trkpt>
			<trkpt lat="46.88311368" lon="6.72972659">
				<ele>786.0</ele>
				<time>2013-08-14T06:34:01Z</time>
				<hdop>1.0</hdop>
			</trkpt>
			<trkpt lat="46.88312783" lon="6.72970772">
				<ele>786.0</ele>
				<time>2013-08-14T06:34:02Z</time>
				<hdop>1.0</hdop>
			</trkpt>
			<trkpt lat="46.88314126" lon="6.72971721">
				<ele>785.6</ele>
				<time>2013-08-14T06:34:03Z</time>
				<hdop>1.0</hdop>
			</trkpt>
			<trkpt lat="46.88314053" lon="6.72971137">
				<ele>785.3</ele>
				<time>2013-08-14T06:34:04Z</time>
				<hdop>1.0</hdop>
			</trkpt>
			<trkpt lat="46.88314686" lon="6.72970627">
				<ele>785.7</ele>
				<time>2013-08-14T06:34:05Z</time>
				<hdop>1.0</hdop>
			</trkpt>
			<trkpt lat="46.88315739" lon="6.72969793">
				<ele>785.9</ele>
				<time>2013-08-14T06:34:06Z</time>
				<hdop>1.0</hdop>
			</trkpt>
			<trkpt lat="46.88316748" lon="6.72967825">
				<ele>786.4</ele>
				<time>2013-08-14T06:34:07Z</time>
				<hdop>1.0</hdop>
			</trkpt>
			<trkpt lat="46.8831772" lon="6.72965806">
				<ele>786.8</ele>
				<time>2013-08-14T06:34:08Z</time>
				<hdop>1.0</hdop>
			</trkpt>
			<trkpt lat="46.88318977" lon="6.72965003">
				<ele>786.8</ele>
				<time>2013-08-14T06:34:09Z</time>
				<hdop>1.0</hdop>
			</trkpt>
			<trkpt lat="46.8832073" lon="6.72963412">
				<ele>786.7</ele>
				<time>2013-08-14T06:34:10Z</time>
				<hdop>1.0</hdop>
			</trkpt>
			<trkpt lat="46.8832253" lon="6.72961487">
				<ele>787.2</ele>
				<time>2013-08-14T06:34:11Z</time>
				<hdop>1.0</hdop>
			</trkpt>
			<trkpt lat="46.88324392" lon="6.72959601">
				<ele>786.8</ele>
				<time>2013-08-14T06:34:12Z</time>
				<hdop>1.0</hdop>
			</trkpt>
			<trkpt lat="46.88324206" lon="6.72958837">
				<ele>787.5</ele>
				<time>2013-08-14T06:34:13Z</time>
				<hdop>1.0</hdop>
			</trkpt>
			<trkpt lat="46.88324646" lon="6.72956989">
				<ele>787.7</ele>
				<time>2013-08-14T06:34:14Z</time>
				<hdop>1.0</hdop>
			</trkpt>
			<trkpt lat="46.88324862" lon="6.7295564">
				<ele>787.5</ele>
				<time>2013-08-14T06:34:15Z</time>
				<hdop>1.0</hdop>
			</trkpt>
			<trkpt lat="46.88325453" lon="6.72954122">
				<ele>787.3</ele>
				<time>2013-08-14T06:34:16Z</time>
				<hdop>1.0</hdop>
			</trkpt>
			<trkpt lat="46.88327247" lon="6.72952278">
				<ele>788.7</ele>
				<time>2013-08-14T06:34:17Z</time>
				<hdop>1.0</hdop>
			</trkpt>
			<trkpt lat="46.88327446" lon="6.72951067">
				<ele>789.0</ele>
				<time>2013-08-14T06:34:18Z</time>
				<hdop>1.0</hdop>
			</trkpt>
			<trkpt lat="46.88329627" lon="6.72949416">
				<ele>789.5</ele>
				<time>2013-08-14T06:34:19Z</time>
				<hdop>1.0</hdop>
			</trkpt>
			<trkpt lat="46.88330174" lon="6.72947957">
				<ele>789.8</ele>
				<time>2013-08-14T06:34:20Z</time>
				<hdop>1.0</hdop>
			</trkpt>
			<trkpt lat="46.8833086" lon="6.72947558">
				<ele>789.4</ele>
				<time>2013-08-14T06:34:21Z</time>
				<hdop>1.0</hdop>
			</trkpt>
			<trkpt lat="46.88331366" lon="6.72947499">
				<ele>788.8</ele>
				<time>2013-08-14T06:34:22Z</time>
				<hdop>1.0</hdop>
			</trkpt>
			<trkpt lat="46.88331702" lon="6.72945449">
				<ele>788.8</ele>
				<time>2013-08-14T06:34:23Z</time>
				<hdop>1.0</hdop>
			</trkpt>
			<trkpt lat="46.88333403" lon="6.72942536">
				<ele>789.4</ele>
				<time>2013-08-14T06:34:25Z</time>
				<hdop>1.0</hdop>
			</trkpt>
			<trkpt lat="46.88333834" lon="6.72940882">
				<ele>789.4</ele>
				<time>2013-08-14T06:34:26Z</time>
				<hdop>1.0</hdop>
			</trkpt>
			<trkpt lat="46.88335553" lon="6.72939439">
				<ele>789.9</ele>
				<time>2013-08-14T06:34:27Z</time>
				<hdop>1.0</hdop>
			</trkpt>
			<trkpt lat="46.88336128" lon="6.72937224">
				<ele>789.6</ele>
				<time>2013-08-14T06:34:28Z</time>
				<hdop>1.0</hdop>
			</trkpt>
			<trkpt lat="46.88336415" lon="6.7293598">
				<ele>789.0</ele>
				<time>2013-08-14T06:34:29Z</time>
				<hdop>1.0</hdop>
			</trkpt>
			<trkpt lat="46.88337204" lon="6.72935244">
				<ele>788.9</ele>
				<time>2013-08-14T06:34:30Z</time>
				<hdop>1.0</hdop>
			</trkpt>
			<trkpt lat="46.88337752" lon="6.7293477">
				<ele>788.4</ele>
				<time>2013-08-14T06:34:31Z</time>
				<hdop>1.0</hdop>
			</trkpt>
			<trkpt lat="46.8833844" lon="6.7293338">
				<ele>788.6</ele>
				<time>2013-08-14T06:34:32Z</time>
				<hdop>1.0</hdop>
			</trkpt>
			<trkpt lat="46.88338622" lon="6.72930997">
				<ele>788.4</ele>
				<time>2013-08-14T06:34:33Z</time>
				<hdop>1.0</hdop>
			</trkpt>
			<trkpt lat="46.88338654" lon="6.72929379">
				<ele>788.1</ele>
				<time>2013-08-14T06:34:34Z</time>
				<hdop>1.0</hdop>
			</trkpt>
			<trkpt lat="46.88339095" lon="6.72927321">
				<ele>788.5</ele>
				<time>2013-08-14T06:34:35Z</time>
				<hdop>1.0</hdop>
			</trkpt>
			<trkpt lat="46.88339955" lon="6.72926199">
				<ele>788.5</ele>
				<time>2013-08-14T06:34:36Z</time>
				<hdop>1.0</hdop>
			</trkpt>
			<trkpt lat="46.88340716" lon="6.7292391">
				<ele>788.7</ele>
				<time>2013-08-14T06:34:37Z</time>
				<hdop>1.0</hdop>
			</trkpt>
			<trkpt lat="46.88340739" lon="6.72921748">
				<ele>788.1</ele>
				<time>2013-08-14T06:34:38Z</time>
				<hdop>1.0</hdop>
			</trkpt>
			<trkpt lat="46.88340993" lon="6.72920604">
				<ele>788.0</ele>
				<time>2013-08-14T06:34:39Z</time>
				<hdop>1.0</hdop>
			</trkpt>
			<trkpt lat="46.88341634" lon="6.72919893">
				<ele>787.4</ele>
				<time>2013-08-14T06:34:40Z</time>
				<hdop>1.0</hdop>
			</trkpt>
			<trkpt lat="46.88341784" lon="6.72917551">
				<ele>787.5</ele>
				<time>2013-08-14T06:34:41Z</time>
				<hdop>1.0</hdop>
			</trkpt>
			<trkpt lat="46.88341883" lon="6.72915778">
				<ele>787.2</ele>
				<time>2013-08-14T06:34:42Z</time>
				<hdop>1.0</hdop>
			</trkpt>
			<trkpt lat="46.88342016" lon="6.72913989">
				<ele>786.9</ele>
				<time>2013-08-14T06:34:43Z</time>
				<hdop>1.0</hdop>
			</trkpt>
			<trkpt lat="46.8834221" lon="6.72911766">
				<ele>786.4</ele>
				<time>2013-08-14T06:34:44Z</time>
				<hdop>1.0</hdop>
			</trkpt>
			<trkpt lat="46.88342287" lon="6.72908929">
				<ele>787.0</ele>
				<time>2013-08-14T06:34:45Z</time>
				<hdop>1.0</hdop>
			</trkpt>
			<trkpt lat="46.8834284" lon="6.72906529">
				<ele>787.1</ele>
				<time>2013-08-14T06:34:46Z</time>
				<hdop>1.0</hdop>
			</trkpt>
			<trkpt lat="46.88343152" lon="6.7290505">
				<ele>787.0</ele>
				<time>2013-08-14T06:34:47Z</time>
				<hdop>1.0</hdop>
			</trkpt>
			<trkpt lat="46.88343147" lon="6.72904078">
				<ele>787.0</ele>
				<time>2013-08-14T06:34:48Z</time>
				<hdop>1.0</hdop>
			</trkpt>
			<trkpt lat="46.88343256" lon="6.72903019">
				<ele>787.1</ele>
				<time>2013-08-14T06:34:49Z</time>
				<hdop>1.0</hdop>
			</trkpt>
			<trkpt lat="46.8834351" lon="6.72900584">
				<ele>788.0</ele>
				<time>2013-08-14T06:34:50Z</time>
				<hdop>1.0</hdop>
			</trkpt>
			<trkpt lat="46.88343968" lon="6.72898377">
				<ele>788.2</ele>
				<time>2013-08-14T06:34:51Z</time>
				<hdop>1.0</hdop>
			</trkpt>
			<trkpt lat="46.88343688" lon="6.72896575">
				<ele>788.3</ele>
				<time>2013-08-14T06:34:52Z</time>
				<hdop>1.0</hdop>
			</trkpt>
			<trkpt lat="46.8834409" lon="6.72893965">
				<ele>788.7</ele>
				<time>2013-08-14T06:34:53Z</time>
				<hdop>1.0</hdop>
			</trkpt>
			<trkpt lat="46.88344207" lon="6.72891909">
				<ele>788.5</ele>
				<time>2013-08-14T06:34:54Z</time>
				<hdop>1.0</hdop>
			</trkpt>
			<trkpt lat="46.88344346" lon="6.72890925">
				<ele>788.5</ele>
				<time>2013-08-14T06:34:55Z</time>
				<hdop>1.0</hdop>
			</trkpt>
			<trkpt lat="46.88344599" lon="6.72889064">
				<ele>788.7</ele>
				<time>2013-08-14T06:34:56Z</time>
				<hdop>1.0</hdop>
			</trkpt>
			<trkpt lat="46.88344712" lon="6.72886996">
				<ele>788.8</ele>
				<time>2013-08-14T06:34:57Z</time>
				<hdop>1.0</hdop>
			</trkpt>
			<trkpt lat="46.88345016" lon="6.72884863">
				<ele>788.7</ele>
				<time>2013-08-14T06:34:58Z</time>
				<hdop>1.0</hdop>
			</trkpt>
			<trkpt lat="46.88345218" lon="6.72882364">
				<ele>788.7</ele>
				<time>2013-08-14T06:34:59Z</time>
				<hdop>1.0</hdop>
			</trkpt>
			<trkpt lat="46.88345139" lon="6.72880522">
				<ele>789.4</ele>
				<time>2013-08-14T06:35:00Z</time>
				<hdop>1.0</hdop>
			</trkpt>
			<trkpt lat="46.88345519" lon="6.7287787">
				<ele>789.8</ele>
				<time>2013-08-14T06:35:01Z</time>
				<hdop>1.0</hdop>
			</trkpt>
			<trkpt lat="46.88345792" lon="6.72875735">
				<ele>789.9</ele>
				<time>2013-08-14T06:35:02Z</time>
				<hdop>1.0</hdop>
			</trkpt>
			<trkpt lat="46.88346257" lon="6.72874437">
				<ele>789.6</ele>
				<time>2013-08-14T06:35:03Z</time>
				<hdop>1.0</hdop>
			</trkpt>
			<trkpt lat="46.88346563" lon="6.72873364">
				<ele>789.6</ele>
				<time>2013-08-14T06:35:04Z</time>
				<hdop>1.0</hdop>
			</trkpt>
			<trkpt lat="46.88346285" lon="6.72872443">
				<ele>789.6</ele>
				<time>2013-08-14T06:35:05Z</time>
				<hdop>1.0</hdop>
			</trkpt>
			<trkpt lat="46.88346338" lon="6.7287039">
				<ele>789.6</ele>
				<time>2013-08-14T06:35:06Z</time>
				<hdop>1.0</hdop>
			</trkpt>
			<trkpt lat="46.88346536" lon="6.72868489">
				<ele>789.3</ele>
				<time>2013-08-14T06:35:07Z</time>
				<hdop>1.0</hdop>
			</trkpt>
			<trkpt lat="46.88346849" lon="6.72866734">
				<ele>789.5</ele>
				<time>2013-08-14T06:35:08Z</time>
				<hdop>1.0</hdop>
			</trkpt>
			<trkpt lat="46.88346888" lon="6.72864736">
				<ele>790.3</ele>
				<time>2013-08-14T06:35:09Z</time>
				<hdop>1.0</hdop>
			</trkpt>
			<trkpt lat="46.88347139" lon="6.72861953">
				<ele>791.2</ele>
				<time>2013-08-14T06:35:10Z</time>
				<hdop>1.0</hdop>
			</trkpt>
			<trkpt lat="46.88347195" lon="6.72859679">
				<ele>791.3</ele>
				<time>2013-08-14T06:35:11Z</time>
				<hdop>1.0</hdop>
			</trkpt>
			<trkpt lat="46.88347242" lon="6.72857576">
				<ele>791.3</ele>
				<time>2013-08-14T06:35:12Z</time>
				<hdop>1.0</hdop>
			</trkpt>
			<trkpt lat="46.88347026" lon="6.72856569">
				<ele>791.3</ele>
				<time>2013-08-14T06:35:13Z</time>
				<hdop>1.0</hdop>
			</trkpt>
			<trkpt lat="46.88346483" lon="6.72854813">
				<ele>791.5</ele>
				<time>2013-08-14T06:35:14Z</time>
				<hdop>1.0</hdop>
			</trkpt>
			<trkpt lat="46.88346346" lon="6.72853188">
				<ele>791.4</ele>
				<time>2013-08-14T06:35:15Z</time>
				<hdop>1.0</hdop>
			</trkpt>
			<trkpt lat="46.88346405" lon="6.72851081">
				<ele>791.6</ele>
				<time>2013-08-14T06:35:16Z</time>
				<hdop>1.0</hdop>
			</trkpt>
			<trkpt lat="46.88345942" lon="6.72849182">
				<ele>791.7</ele>
				<time>2013-08-14T06:35:17Z</time>
				<hdop>1.0</hdop>
			</trkpt>
			<trkpt lat="46.88345865" lon="6.72847509">
				<ele>792.1</ele>
				<time>2013-08-14T06:35:18Z</time>
				<hdop>1.0</hdop>
			</trkpt>
			<trkpt lat="46.88345575" lon="6.72845225">
				<ele>792.8</ele>
				<time>2013-08-14T06:35:19Z</time>
				<hdop>1.0</hdop>
			</trkpt>
			<trkpt lat="46.88345394" lon="6.72843334">
				<ele>793.1</ele>
				<time>2013-08-14T06:35:20Z</time>
				<hdop>1.0</hdop>
			</trkpt>
			<trkpt lat="46.88345187" lon="6.72842018">
				<ele>793.3</ele>
				<time>2013-08-14T06:35:21Z</time>
				<hdop>1.0</hdop>
			</trkpt>
			<trkpt lat="46.8834519" lon="6.72840581">
				<ele>793.3</ele>
				<time>2013-08-14T06:35:22Z</time>
				<hdop>1.0</hdop>
			</trkpt>
			<trkpt lat="46.88344716" lon="6.72838545">
				<ele>793.3</ele>
				<time>2013-08-14T06:35:23Z</time>
				<hdop>1.0</hdop>
			</trkpt>
			<trkpt lat="46.8834446" lon="6.72836822">
				<ele>793.2</ele>
				<time>2013-08-14T06:35:24Z</time>
				<hdop>1.0</hdop>
			</trkpt>
			<trkpt lat="46.88343998" lon="6.72834511">
				<ele>793.6</ele>
				<time>2013-08-14T06:35:25Z</time>
				<hdop>1.0</hdop>
			</trkpt>
			<trkpt lat="46.88343241" lon="6.7283159">
				<ele>794.2</ele>
				<time>2013-08-14T06:35:26Z</time>
				<hdop>1.0</hdop>
			</trkpt>
			<trkpt lat="46.88342533" lon="6.72829116">
				<ele>794.7</ele>
				<time>2013-08-14T06:35:27Z</time>
				<hdop>1.0</hdop>
			</trkpt>
			<trkpt lat="46.88341749" lon="6.72827302">
				<ele>794.5</ele>
				<time>2013-08-14T06:35:28Z</time>
				<hdop>1.0</hdop>
			</trkpt>
			<trkpt lat="46.88342526" lon="6.72827128">
				<ele>794.9</ele>
				<time>2013-08-14T06:35:29Z</time>
				<hdop>1.0</hdop>
			</trkpt>
			<trkpt lat="46.88342001" lon="6.7282668">
				<ele>795.0</ele>
				<time>2013-08-14T06:35:30Z</time>
				<hdop>1.0</hdop>
			</trkpt>
			<trkpt lat="46.88342018" lon="6.72825618">
				<ele>794.5</ele>
				<time>2013-08-14T06:35:31Z</time>
				<hdop>1.0</hdop>
			</trkpt>
			<trkpt lat="46.8834126" lon="6.72823666">
				<ele>795.1</ele>
				<time>2013-08-14T06:35:32Z</time>
				<hdop>1.0</hdop>
			</trkpt>
			<trkpt lat="46.88340596" lon="6.72821608">
				<ele>795.7</ele>
				<time>2013-08-14T06:35:33Z</time>
				<hdop>1.0</hdop>
			</trkpt>
			<trkpt lat="46.88340335" lon="6.7281994">
				<ele>796.2</ele>
				<time>2013-08-14T06:35:34Z</time>
				<hdop>1.0</hdop>
			</trkpt>
			<trkpt lat="46.88339662" lon="6.72817355">
				<ele>796.8</ele>
				<time>2013-08-14T06:35:35Z</time>
				<hdop>1.0</hdop>
			</trkpt>
			<trkpt lat="46.88339171" lon="6.72814957">
				<ele>796.9</ele>
				<time>2013-08-14T06:35:36Z</time>
				<hdop>1.0</hdop>
			</trkpt>
			<trkpt lat="46.88337567" lon="6.72812557">
				<ele>796.3</ele>
				<time>2013-08-14T06:35:37Z</time>
				<hdop>1.0</hdop>
			</trkpt>
			<trkpt lat="46.88336476" lon="6.72813751">
				<ele>796.3</ele>
				<time>2013-08-14T06:35:38Z</time>
				<hdop>1.0</hdop>
			</trkpt>
			<trkpt lat="46.88335516" lon="6.72811801">
				<ele>796.7</ele>
				<time>2013-08-14T06:35:39Z</time>
				<hdop>1.0</hdop>
			</trkpt>
			<trkpt lat="46.88335155" lon="6.72811883">
				<ele>796.5</ele>
				<time>2013-08-14T06:35:40Z</time>
				<hdop>1.0</hdop>
			</trkpt>
			<trkpt lat="46.88334687" lon="6.72809851">
				<ele>796.4</ele>
				<time>2013-08-14T06:35:41Z</time>
				<hdop>1.0</hdop>
			</trkpt>
			<trkpt lat="46.8833711" lon="6.72809444">
				<ele>796.0</ele>
				<time>2013-08-14T06:35:42Z</time>
				<hdop>1.0</hdop>
			</trkpt>
			<trkpt lat="46.88336445" lon="6.72808103">
				<ele>795.8</ele>
				<time>2013-08-14T06:35:43Z</time>
				<hdop>1.0</hdop>
			</trkpt>
			<trkpt lat="46.88335808" lon="6.7280662">
				<ele>796.4</ele>
				<time>2013-08-14T06:35:44Z</time>
				<hdop>1.0</hdop>
			</trkpt>
			<trkpt lat="46.88335706" lon="6.72805484">
				<ele>796.4</ele>
				<time>2013-08-14T06:35:45Z</time>
				<hdop>1.5</hdop>
			</trkpt>
			<trkpt lat="46.8833532" lon="6.72801899">
				<ele>796.8</ele>
				<time>2013-08-14T06:35:46Z</time>
				<hdop>1.0</hdop>
			</trkpt>
			<trkpt lat="46.88335228" lon="6.72799951">
				<ele>797.6</ele>
				<time>2013-08-14T06:35:47Z</time>
				<hdop>1.0</hdop>
			</trkpt>
			<trkpt lat="46.88334405" lon="6.72798384">
				<ele>798.1</ele>
				<time>2013-08-14T06:35:48Z</time>
				<hdop>1.0</hdop>
			</trkpt>
			<trkpt lat="46.88334209" lon="6.72796753">
				<ele>798.4</ele>
				<time>2013-08-14T06:35:49Z</time>
				<hdop>1.0</hdop>
			</trkpt>
			<trkpt lat="46.88335698" lon="6.72797737">
				<ele>801.2</ele>
				<time>2013-08-14T06:35:50Z</time>
				<hdop>1.0</hdop>
			</trkpt>
			<trkpt lat="46.88335942" lon="6.72793537">
				<ele>802.8</ele>
				<time>2013-08-14T06:35:52Z</time>
				<hdop>1.0</hdop>
			</trkpt>
			<trkpt lat="46.88333872" lon="6.72788896">
				<ele>803.6</ele>
				<time>2013-08-14T06:35:54Z</time>
				<hdop>1.0</hdop>
			</trkpt>
			<trkpt lat="46.88333561" lon="6.72788442">
				<ele>802.4</ele>
				<time>2013-08-14T06:35:55Z</time>
				<hdop>1.0</hdop>
			</trkpt>
			<trkpt lat="46.88333908" lon="6.72787989">
				<ele>802.2</ele>
				<time>2013-08-14T06:35:56Z</time>
				<hdop>1.0</hdop>
			</trkpt>
			<trkpt lat="46.88333152" lon="6.72785754">
				<ele>801.6</ele>
				<time>2013-08-14T06:35:58Z</time>
				<hdop>1.0</hdop>
			</trkpt>
			<trkpt lat="46.8833254" lon="6.72782313">
				<ele>801.8</ele>
				<time>2013-08-14T06:36:00Z</time>
				<hdop>1.0</hdop>
			</trkpt>
			<trkpt lat="46.88331985" lon="6.72780229">
				<ele>801.9</ele>
				<time>2013-08-14T06:36:01Z</time>
				<hdop>1.0</hdop>
			</trkpt>
			<trkpt lat="46.88332666" lon="6.7278007">
				<ele>802.0</ele>
				<time>2013-08-14T06:36:02Z</time>
				<hdop>1.0</hdop>
			</trkpt>
			<trkpt lat="46.88332115" lon="6.72779775">
				<ele>802.5</ele>
				<time>2013-08-14T06:36:03Z</time>
				<hdop>1.5</hdop>
			</trkpt>
			<trkpt lat="46.88331558" lon="6.72778962">
				<ele>802.6</ele>
				<time>2013-08-14T06:36:04Z</time>
				<hdop>1.5</hdop>
			</trkpt>
			<trkpt lat="46.88331528" lon="6.72778622">
				<ele>802.5</ele>
				<time>2013-08-14T06:36:05Z</time>
				<hdop>1.0</hdop>
			</trkpt>
			<trkpt lat="46.88331651" lon="6.72776098">
				<ele>802.0</ele>
				<time>2013-08-14T06:36:06Z</time>
				<hdop>1.0</hdop>
			</trkpt>
			<trkpt lat="46.88331081" lon="6.72774816">
				<ele>801.2</ele>
				<time>2013-08-14T06:36:08Z</time>
				<hdop>1.5</hdop>
			</trkpt>
			<trkpt lat="46.88330415" lon="6.72771639">
				<ele>801.1</ele>
				<time>2013-08-14T06:36:09Z</time>
				<hdop>1.0</hdop>
			</trkpt>
			<trkpt lat="46.88329033" lon="6.72768596">
				<ele>801.2</ele>
				<time>2013-08-14T06:36:10Z</time>
				<hdop>1.0</hdop>
			</trkpt>
			<trkpt lat="46.88328795" lon="6.72765945">
				<ele>803.3</ele>
				<time>2013-08-14T06:36:11Z</time>
				<hdop>1.0</hdop>
			</trkpt>
			<trkpt lat="46.88330023" lon="6.72765063">
				<ele>803.6</ele>
				<time>2013-08-14T06:36:12Z</time>
				<hdop>1.0</hdop>
			</trkpt>
			<trkpt lat="46.88330215" lon="6.72763791">
				<ele>803.4</ele>
				<time>2013-08-14T06:36:13Z</time>
				<hdop>1.5</hdop>
			</trkpt>
			<trkpt lat="46.88326505" lon="6.72760704">
				<ele>801.5</ele>
				<time>2013-08-14T06:36:14Z</time>
				<hdop>1.5</hdop>
			</trkpt>
			<trkpt lat="46.88324039" lon="6.727575">
				<ele>799.7</ele>
				<time>2013-08-14T06:36:15Z</time>
				<hdop>1.5</hdop>
			</trkpt>
			<trkpt lat="46.88321853" lon="6.72754357">
				<ele>798.2</ele>
				<time>2013-08-14T06:36:17Z</time>
				<hdop>1.5</hdop>
			</trkpt>
			<trkpt lat="46.88320607" lon="6.72752475">
				<ele>798.4</ele>
				<time>2013-08-14T06:36:18Z</time>
				<hdop>1.5</hdop>
			</trkpt>
			<trkpt lat="46.88320592" lon="6.72750477">
				<ele>798.8</ele>
				<time>2013-08-14T06:36:19Z</time>
				<hdop>1.5</hdop>
			</trkpt>
			<trkpt lat="46.88319694" lon="6.72747772">
				<ele>798.8</ele>
				<time>2013-08-14T06:36:21Z</time>
				<hdop>2.0</hdop>
			</trkpt>
			<trkpt lat="46.88319236" lon="6.72746044">
				<ele>799.4</ele>
				<time>2013-08-14T06:36:22Z</time>
				<hdop>1.5</hdop>
			</trkpt>
			<trkpt lat="46.88320138" lon="6.72744686">
				<ele>799.5</ele>
				<time>2013-08-14T06:36:23Z</time>
				<hdop>1.0</hdop>
			</trkpt>
			<trkpt lat="46.88320245" lon="6.72742788">
				<ele>799.5</ele>
				<time>2013-08-14T06:36:24Z</time>
				<hdop>1.0</hdop>
			</trkpt>
			<trkpt lat="46.88320124" lon="6.72741511">
				<ele>800.2</ele>
				<time>2013-08-14T06:36:25Z</time>
				<hdop>1.0</hdop>
			</trkpt>
			<trkpt lat="46.88319579" lon="6.72740658">
				<ele>800.8</ele>
				<time>2013-08-14T06:36:26Z</time>
				<hdop>1.0</hdop>
			</trkpt>
			<trkpt lat="46.88319334" lon="6.72738376">
				<ele>801.5</ele>
				<time>2013-08-14T06:36:27Z</time>
				<hdop>1.0</hdop>
			</trkpt>
			<trkpt lat="46.88319152" lon="6.72737427">
				<ele>801.3</ele>
				<time>2013-08-14T06:36:28Z</time>
				<hdop>1.0</hdop>
			</trkpt>
			<trkpt lat="46.88322425" lon="6.72734606">
				<ele>802.0</ele>
				<time>2013-08-14T06:36:29Z</time>
				<hdop>1.5</hdop>
			</trkpt>
			<trkpt lat="46.883249" lon="6.72732016">
				<ele>802.3</ele>
				<time>2013-08-14T06:36:30Z</time>
				<hdop>1.5</hdop>
			</trkpt>
			<trkpt lat="46.88322627" lon="6.72729333">
				<ele>802.9</ele>
				<time>2013-08-14T06:36:31Z</time>
				<hdop>1.5</hdop>
			</trkpt>
			<trkpt lat="46.88322359" lon="6.72725647">
				<ele>803.5</ele>
				<time>2013-08-14T06:36:33Z</time>
				<hdop>2.0</hdop>
			</trkpt>
			<trkpt lat="46.88322965" lon="6.72725482">
				<ele>801.7</ele>
				<time>2013-08-14T06:36:34Z</time>
				<hdop>1.5</hdop>
			</trkpt>
			<trkpt lat="46.88322379" lon="6.72725353">
				<ele>802.0</ele>
				<time>2013-08-14T06:36:35Z</time>
				<hdop>1.0</hdop>
			</trkpt>
			<trkpt lat="46.88322505" lon="6.72722432">
				<ele>802.2</ele>
				<time>2013-08-14T06:36:36Z</time>
				<hdop>1.0</hdop>
			</trkpt>
			<trkpt lat="46.88322929" lon="6.72720939">
				<ele>801.9</ele>
				<time>2013-08-14T06:36:37Z</time>
				<hdop>1.0</hdop>
			</trkpt>
			<trkpt lat="46.88323788" lon="6.72718329">
				<ele>802.7</ele>
				<time>2013-08-14T06:36:38Z</time>
				<hdop>1.0</hdop>
			</trkpt>
			<trkpt lat="46.88323165" lon="6.72717402">
				<ele>803.7</ele>
				<time>2013-08-14T06:36:39Z</time>
				<hdop>1.0</hdop>
			</trkpt>
			<trkpt lat="46.88324053" lon="6.7271367">
				<ele>804.7</ele>
				<time>2013-08-14T06:36:41Z</time>
				<hdop>1.0</hdop>
			</trkpt>
			<trkpt lat="46.88324257" lon="6.72712048">
				<ele>804.9</ele>
				<time>2013-08-14T06:36:42Z</time>
				<hdop>1.0</hdop>
			</trkpt>
			<trkpt lat="46.88324352" lon="6.72710938">
				<ele>804.7</ele>
				<time>2013-08-14T06:36:43Z</time>
				<hdop>1.0</hdop>
			</trkpt>
			<trkpt lat="46.8832436" lon="6.72709404">
				<ele>805.4</ele>
				<time>2013-08-14T06:36:44Z</time>
				<hdop>1.0</hdop>
			</trkpt>
			<trkpt lat="46.88324594" lon="6.72705551">
				<ele>808.0</ele>
				<time>2013-08-14T06:36:45Z</time>
				<hdop>1.0</hdop>
			</trkpt>
			<trkpt lat="46.8832511" lon="6.72701405">
				<ele>808.7</ele>
				<time>2013-08-14T06:36:47Z</time>
				<hdop>1.0</hdop>
			</trkpt>
			<trkpt lat="46.88325111" lon="6.72700036">
				<ele>808.5</ele>
				<time>2013-08-14T06:36:48Z</time>
				<hdop>1.0</hdop>
			</trkpt>
			<trkpt lat="46.88325285" lon="6.72696697">
				<ele>807.9</ele>
				<time>2013-08-14T06:36:50Z</time>
				<hdop>1.0</hdop>
			</trkpt>
			<trkpt lat="46.8832555" lon="6.72694736">
				<ele>807.9</ele>
				<time>2013-08-14T06:36:51Z</time>
				<hdop>1.0</hdop>
			</trkpt>
			<trkpt lat="46.8832625" lon="6.72692853">
				<ele>807.2</ele>
				<time>2013-08-14T06:36:52Z</time>
				<hdop>1.0</hdop>
			</trkpt>
			<trkpt lat="46.88326355" lon="6.72689472">
				<ele>807.7</ele>
				<time>2013-08-14T06:36:54Z</time>
				<hdop>1.0</hdop>
			</trkpt>
			<trkpt lat="46.88326543" lon="6.72687688">
				<ele>807.7</ele>
				<time>2013-08-14T06:36:55Z</time>
				<hdop>1.0</hdop>
			</trkpt>
			<trkpt lat="46.88326603" lon="6.72686294">
				<ele>807.9</ele>
				<time>2013-08-14T06:36:56Z</time>
				<hdop>1.0</hdop>
			</trkpt>
			<trkpt lat="46.8832749" lon="6.72684725">
				<ele>805.6</ele>
				<time>2013-08-14T06:36:57Z</time>
				<hdop>1.0</hdop>
			</trkpt>
			<trkpt lat="46.8832773" lon="6.72680711">
				<ele>805.8</ele>
				<time>2013-08-14T06:36:59Z</time>
				<hdop>1.0</hdop>
			</trkpt>
			<trkpt lat="46.88327648" lon="6.72678739">
				<ele>806.3</ele>
				<time>2013-08-14T06:37:01Z</time>
				<hdop>1.0</hdop>
			</trkpt>
			<trkpt lat="46.88327315" lon="6.7267744">
				<ele>806.3</ele>
				<time>2013-08-14T06:37:02Z</time>
				<hdop>1.0</hdop>
			</trkpt>
			<trkpt lat="46.88327297" lon="6.72673929">
				<ele>806.4</ele>
				<time>2013-08-14T06:37:03Z</time>
				<hdop>1.0</hdop>
			</trkpt>
			<trkpt lat="46.88326449" lon="6.7267128">
				<ele>806.1</ele>
				<time>2013-08-14T06:37:04Z</time>
				<hdop>1.0</hdop>
			</trkpt>
			<trkpt lat="46.88326271" lon="6.72669558">
				<ele>806.3</ele>
				<time>2013-08-14T06:37:05Z</time>
				<hdop>1.0</hdop>
			</trkpt>
			<trkpt lat="46.88326415" lon="6.72668029">
				<ele>806.6</ele>
				<time>2013-08-14T06:37:06Z</time>
				<hdop>1.0</hdop>
			</trkpt>
			<trkpt lat="46.88326435" lon="6.72666099">
				<ele>806.7</ele>
				<time>2013-08-14T06:37:07Z</time>
				<hdop>1.0</hdop>
			</trkpt>
			<trkpt lat="46.88323769" lon="6.72662337">
				<ele>810.5</ele>
				<time>2013-08-14T06:37:09Z</time>
				<hdop>1.0</hdop>
			</trkpt>
			<trkpt lat="46.88323721" lon="6.72661159">
				<ele>810.6</ele>
				<time>2013-08-14T06:37:10Z</time>
				<hdop>1.0</hdop>
			</trkpt>
			<trkpt lat="46.88323889" lon="6.7265986">
				<ele>811.5</ele>
				<time>2013-08-14T06:37:11Z</time>
				<hdop>1.0</hdop>
			</trkpt>
			<trkpt lat="46.88325716" lon="6.72659465">
				<ele>809.9</ele>
				<time>2013-08-14T06:37:12Z</time>
				<hdop>1.0</hdop>
			</trkpt>
			<trkpt lat="46.88325592" lon="6.72657133">
				<ele>811.0</ele>
				<time>2013-08-14T06:37:13Z</time>
				<hdop>1.0</hdop>
			</trkpt>
			<trkpt lat="46.88325859" lon="6.72655164">
				<ele>811.4</ele>
				<time>2013-08-14T06:37:14Z</time>
				<hdop>1.0</hdop>
			</trkpt>
			<trkpt lat="46.88325571" lon="6.72652134">
				<ele>811.9</ele>
				<time>2013-08-14T06:37:16Z</time>
				<hdop>1.0</hdop>
			</trkpt>
			<trkpt lat="46.88325472" lon="6.72650735">
				<ele>811.9</ele>
				<time>2013-08-14T06:37:17Z</time>
				<hdop>1.0</hdop>
			</trkpt>
			<trkpt lat="46.88325296" lon="6.72649199">
				<ele>812.1</ele>
				<time>2013-08-14T06:37:18Z</time>
				<hdop>1.0</hdop>
			</trkpt>
			<trkpt lat="46.88326143" lon="6.72646344">
				<ele>812.4</ele>
				<time>2013-08-14T06:37:19Z</time>
				<hdop>1.0</hdop>
			</trkpt>
			<trkpt lat="46.88326999" lon="6.72645953">
				<ele>812.0</ele>
				<time>2013-08-14T06:37:20Z</time>
				<hdop>1.0</hdop>
			</trkpt>
			<trkpt lat="46.8832677" lon="6.72644201">
				<ele>810.8</ele>
				<time>2013-08-14T06:37:22Z</time>
				<hdop>1.0</hdop>
			</trkpt>
			<trkpt lat="46.88327235" lon="6.72643119">
				<ele>810.4</ele>
				<time>2013-08-14T06:37:23Z</time>
				<hdop>1.0</hdop>
			</trkpt>
			<trkpt lat="46.88328015" lon="6.72640373">
				<ele>811.7</ele>
				<time>2013-08-14T06:37:25Z</time>
				<hdop>1.0</hdop>
			</trkpt>
			<trkpt lat="46.88328547" lon="6.72639163">
				<ele>811.9</ele>
				<time>2013-08-14T06:37:26Z</time>
				<hdop>1.0</hdop>
			</trkpt>
			<trkpt lat="46.88328539" lon="6.72637708">
				<ele>812.2</ele>
				<time>2013-08-14T06:37:27Z</time>
				<hdop>1.0</hdop>
			</trkpt>
			<trkpt lat="46.88328738" lon="6.72635133">
				<ele>812.5</ele>
				<time>2013-08-14T06:37:29Z</time>
				<hdop>1.0</hdop>
			</trkpt>
			<trkpt lat="46.88328485" lon="6.72633681">
				<ele>812.7</ele>
				<time>2013-08-14T06:37:30Z</time>
				<hdop>1.0</hdop>
			</trkpt>
			<trkpt lat="46.88328468" lon="6.72630336">
				<ele>814.8</ele>
				<time>2013-08-14T06:37:31Z</time>
				<hdop>1.0</hdop>
			</trkpt>
			<trkpt lat="46.88328412" lon="6.7262762">
				<ele>817.0</ele>
				<time>2013-08-14T06:37:33Z</time>
				<hdop>1.0</hdop>
			</trkpt>
			<trkpt lat="46.8832827" lon="6.72625839">
				<ele>817.3</ele>
				<time>2013-08-14T06:37:34Z</time>
				<hdop>1.0</hdop>
			</trkpt>
			<trkpt lat="46.88328195" lon="6.72623953">
				<ele>817.2</ele>
				<time>2013-08-14T06:37:35Z</time>
				<hdop>1.0</hdop>
			</trkpt>
			<trkpt lat="46.88327607" lon="6.72620996">
				<ele>817.0</ele>
				<time>2013-08-14T06:37:37Z</time>
				<hdop>1.0</hdop>
			</trkpt>
			<trkpt lat="46.88327564" lon="6.7261983">
				<ele>817.1</ele>
				<time>2013-08-14T06:37:38Z</time>
				<hdop>1.0</hdop>
			</trkpt>
			<trkpt lat="46.88327465" lon="6.72619654">
				<ele>817.1</ele>
				<time>2013-08-14T06:37:39Z</time>
				<hdop>1.0</hdop>
			</trkpt>
			<trkpt lat="46.88326141" lon="6.72618591">
				<ele>817.2</ele>
				<time>2013-08-14T06:37:40Z</time>
				<hdop>1.0</hdop>
			</trkpt>
			<trkpt lat="46.88324753" lon="6.72618579">
				<ele>817.7</ele>
				<time>2013-08-14T06:37:41Z</time>
				<hdop>1.0</hdop>
			</trkpt>
			<trkpt lat="46.88324164" lon="6.72617936">
				<ele>818.4</ele>
				<time>2013-08-14T06:37:42Z</time>
				<hdop>1.0</hdop>
			</trkpt>
			<trkpt lat="46.88325239" lon="6.72615355">
				<ele>819.5</ele>
				<time>2013-08-14T06:37:43Z</time>
				<hdop>1.0</hdop>
			</trkpt>
			<trkpt lat="46.88325885" lon="6.72613816">
				<ele>819.9</ele>
				<time>2013-08-14T06:37:44Z</time>
				<hdop>1.0</hdop>
			</trkpt>
			<trkpt lat="46.8832682" lon="6.72612617">
				<ele>820.3</ele>
				<time>2013-08-14T06:37:45Z</time>
				<hdop>1.0</hdop>
			</trkpt>
			<trkpt lat="46.8832552" lon="6.7261025">
				<ele>818.7</ele>
				<time>2013-08-14T06:37:46Z</time>
				<hdop>1.0</hdop>
			</trkpt>
			<trkpt lat="46.88325129" lon="6.7260871">
				<ele>819.0</ele>
				<time>2013-08-14T06:37:47Z</time>
				<hdop>1.0</hdop>
			</trkpt>
			<trkpt lat="46.883249" lon="6.72606503">
				<ele>819.0</ele>
				<time>2013-08-14T06:37:48Z</time>
				<hdop>1.0</hdop>
			</trkpt>
			<trkpt lat="46.88324674" lon="6.72605212">
				<ele>818.9</ele>
				<time>2013-08-14T06:37:49Z</time>
				<hdop>1.0</hdop>
			</trkpt>
			<trkpt lat="46.8832304" lon="6.72602571">
				<ele>817.2</ele>
				<time>2013-08-14T06:37:51Z</time>
				<hdop>1.0</hdop>
			</trkpt>
			<trkpt lat="46.88322158" lon="6.72601102">
				<ele>817.0</ele>
				<time>2013-08-14T06:37:52Z</time>
				<hdop>1.0</hdop>
			</trkpt>
			<trkpt lat="46.88321209" lon="6.72599327">
				<ele>816.7</ele>
				<time>2013-08-14T06:37:53Z</time>
				<hdop>1.0</hdop>
			</trkpt>
			<trkpt lat="46.8832025" lon="6.72598101">
				<ele>816.7</ele>
				<time>2013-08-14T06:37:54Z</time>
				<hdop>1.0</hdop>
			</trkpt>
			<trkpt lat="46.88318842" lon="6.72597072">
				<ele>817.4</ele>
				<time>2013-08-14T06:37:55Z</time>
				<hdop>1.0</hdop>
			</trkpt>
			<trkpt lat="46.88316962" lon="6.72595134">
				<ele>816.3</ele>
				<time>2013-08-14T06:37:57Z</time>
				<hdop>1.0</hdop>
			</trkpt>
			<trkpt lat="46.88314196" lon="6.72593621">
				<ele>816.1</ele>
				<time>2013-08-14T06:37:59Z</time>
				<hdop>1.0</hdop>
			</trkpt>
			<trkpt lat="46.88313216" lon="6.72592412">
				<ele>815.6</ele>
				<time>2013-08-14T06:38:00Z</time>
				<hdop>1.0</hdop>
			</trkpt>
			<trkpt lat="46.88313008" lon="6.72591842">
				<ele>814.9</ele>
				<time>2013-08-14T06:38:01Z</time>
				<hdop>1.0</hdop>
			</trkpt>
			<trkpt lat="46.88311565" lon="6.72591047">
				<ele>814.4</ele>
				<time>2013-08-14T06:38:02Z</time>
				<hdop>1.0</hdop>
			</trkpt>
			<trkpt lat="46.88310105" lon="6.72589803">
				<ele>813.3</ele>
				<time>2013-08-14T06:38:03Z</time>
				<hdop>1.0</hdop>
			</trkpt>
			<trkpt lat="46.8830828" lon="6.72588722">
				<ele>813.1</ele>
				<time>2013-08-14T06:38:05Z</time>
				<hdop>1.0</hdop>
			</trkpt>
			<trkpt lat="46.88307529" lon="6.7258852">
				<ele>813.1</ele>
				<time>2013-08-14T06:38:06Z</time>
				<hdop>1.0</hdop>
			</trkpt>
			<trkpt lat="46.88306836" lon="6.72586935">
				<ele>813.6</ele>
				<time>2013-08-14T06:38:07Z</time>
				<hdop>1.0</hdop>
			</trkpt>
			<trkpt lat="46.88305916" lon="6.72586142">
				<ele>812.5</ele>
				<time>2013-08-14T06:38:08Z</time>
				<hdop>1.0</hdop>
			</trkpt>
			<trkpt lat="46.88305691" lon="6.72585251">
				<ele>812.7</ele>
				<time>2013-08-14T06:38:09Z</time>
				<hdop>1.0</hdop>
			</trkpt>
			<trkpt lat="46.88304968" lon="6.72583416">
				<ele>814.0</ele>
				<time>2013-08-14T06:38:10Z</time>
				<hdop>1.0</hdop>
			</trkpt>
			<trkpt lat="46.88304304" lon="6.72582602">
				<ele>813.6</ele>
				<time>2013-08-14T06:38:11Z</time>
				<hdop>1.0</hdop>
			</trkpt>
			<trkpt lat="46.88303652" lon="6.7258129">
				<ele>814.7</ele>
				<time>2013-08-14T06:38:12Z</time>
				<hdop>1.0</hdop>
			</trkpt>
			<trkpt lat="46.88302933" lon="6.72579859">
				<ele>815.8</ele>
				<time>2013-08-14T06:38:13Z</time>
				<hdop>1.0</hdop>
			</trkpt>
			<trkpt lat="46.88302559" lon="6.7257825">
				<ele>816.5</ele>
				<time>2013-08-14T06:38:14Z</time>
				<hdop>1.0</hdop>
			</trkpt>
			<trkpt lat="46.88301443" lon="6.72577318">
				<ele>817.3</ele>
				<time>2013-08-14T06:38:15Z</time>
				<hdop>1.0</hdop>
			</trkpt>
			<trkpt lat="46.88299552" lon="6.72576653">
				<ele>816.8</ele>
				<time>2013-08-14T06:38:16Z</time>
				<hdop>1.0</hdop>
			</trkpt>
			<trkpt lat="46.88298533" lon="6.72575368">
				<ele>818.2</ele>
				<time>2013-08-14T06:38:17Z</time>
				<hdop>1.0</hdop>
			</trkpt>
			<trkpt lat="46.88298159" lon="6.72574586">
				<ele>818.6</ele>
				<time>2013-08-14T06:38:18Z</time>
				<hdop>1.0</hdop>
			</trkpt>
			<trkpt lat="46.88297791" lon="6.72574176">
				<ele>819.4</ele>
				<time>2013-08-14T06:38:19Z</time>
				<hdop>1.0</hdop>
			</trkpt>
			<trkpt lat="46.8829635" lon="6.72572205">
				<ele>818.6</ele>
				<time>2013-08-14T06:38:20Z</time>
				<hdop>1.0</hdop>
			</trkpt>
			<trkpt lat="46.88295611" lon="6.72571251">
				<ele>818.5</ele>
				<time>2013-08-14T06:38:21Z</time>
				<hdop>1.5</hdop>
			</trkpt>
			<trkpt lat="46.88296164" lon="6.72570363">
				<ele>818.4</ele>
				<time>2013-08-14T06:38:22Z</time>
				<hdop>1.5</hdop>
			</trkpt>
			<trkpt lat="46.88293793" lon="6.72571799">
				<ele>817.9</ele>
				<time>2013-08-14T06:38:23Z</time>
				<hdop>1.5</hdop>
			</trkpt>
			<trkpt lat="46.88292456" lon="6.72569038">
				<ele>819.0</ele>
				<time>2013-08-14T06:38:24Z</time>
				<hdop>1.5</hdop>
			</trkpt>
			<trkpt lat="46.88290277" lon="6.72568766">
				<ele>817.0</ele>
				<time>2013-08-14T06:38:25Z</time>
				<hdop>1.0</hdop>
			</trkpt>
			<trkpt lat="46.88289917" lon="6.72566658">
				<ele>815.7</ele>
				<time>2013-08-14T06:38:26Z</time>
				<hdop>1.0</hdop>
			</trkpt>
			<trkpt lat="46.88288879" lon="6.72566539">
				<ele>814.3</ele>
				<time>2013-08-14T06:38:27Z</time>
				<hdop>1.0</hdop>
			</trkpt>
			<trkpt lat="46.88288636" lon="6.72565398">
				<ele>813.9</ele>
				<time>2013-08-14T06:38:28Z</time>
				<hdop>1.0</hdop>
			</trkpt>
			<trkpt lat="46.88287885" lon="6.72564494">
				<ele>816.9</ele>
				<time>2013-08-14T06:38:29Z</time>
				<hdop>1.0</hdop>
			</trkpt>
			<trkpt lat="46.88286757" lon="6.72563036">
				<ele>818.9</ele>
				<time>2013-08-14T06:38:30Z</time>
				<hdop>1.0</hdop>
			</trkpt>
			<trkpt lat="46.88286717" lon="6.72560984">
				<ele>820.7</ele>
				<time>2013-08-14T06:38:31Z</time>
				<hdop>1.0</hdop>
			</trkpt>
			<trkpt lat="46.88287356" lon="6.7255969">
				<ele>819.5</ele>
				<time>2013-08-14T06:38:32Z</time>
				<hdop>1.0</hdop>
			</trkpt>
			<trkpt lat="46.88287324" lon="6.72557449">
				<ele>818.9</ele>
				<time>2013-08-14T06:38:33Z</time>
				<hdop>1.0</hdop>
			</trkpt>
			<trkpt lat="46.88285981" lon="6.7255724">
				<ele>820.1</ele>
				<time>2013-08-14T06:38:34Z</time>
				<hdop>1.0</hdop>
			</trkpt>
			<trkpt lat="46.88285229" lon="6.72556903">
				<ele>820.7</ele>
				<time>2013-08-14T06:38:35Z</time>
				<hdop>1.0</hdop>
			</trkpt>
			<trkpt lat="46.8828357" lon="6.72555293">
				<ele>821.7</ele>
				<time>2013-08-14T06:38:36Z</time>
				<hdop>1.0</hdop>
			</trkpt>
			<trkpt lat="46.88283099" lon="6.72553628">
				<ele>821.5</ele>
				<time>2013-08-14T06:38:37Z</time>
				<hdop>1.0</hdop>
			</trkpt>
			<trkpt lat="46.88282573" lon="6.72552445">
				<ele>821.6</ele>
				<time>2013-08-14T06:38:38Z</time>
				<hdop>1.0</hdop>
			</trkpt>
			<trkpt lat="46.88282484" lon="6.72551222">
				<ele>822.5</ele>
				<time>2013-08-14T06:38:39Z</time>
				<hdop>1.0</hdop>
			</trkpt>
			<trkpt lat="46.88281624" lon="6.72549542">
				<ele>822.6</ele>
				<time>2013-08-14T06:38:40Z</time>
				<hdop>1.0</hdop>
			</trkpt>
			<trkpt lat="46.882811" lon="6.72547191">
				<ele>821.9</ele>
				<time>2013-08-14T06:38:41Z</time>
				<hdop>1.0</hdop>
			</trkpt>
			<trkpt lat="46.882804" lon="6.72546311">
				<ele>821.5</ele>
				<time>2013-08-14T06:38:42Z</time>
				<hdop>1.0</hdop>
			</trkpt>
			<trkpt lat="46.88280002" lon="6.72545528">
				<ele>821.6</ele>
				<time>2013-08-14T06:38:43Z</time>
				<hdop>1.0</hdop>
			</trkpt>
			<trkpt lat="46.88279137" lon="6.72544581">
				<ele>822.1</ele>
				<time>2013-08-14T06:38:44Z</time>
				<hdop>1.0</hdop>
			</trkpt>
			<trkpt lat="46.88278832" lon="6.72543071">
				<ele>821.4</ele>
				<time>2013-08-14T06:38:45Z</time>
				<hdop>1.0</hdop>
			</trkpt>
			<trkpt lat="46.8827834" lon="6.72540622">
				<ele>821.2</ele>
				<time>2013-08-14T06:38:46Z</time>
				<hdop>1.0</hdop>
			</trkpt>
			<trkpt lat="46.88278397" lon="6.72538246">
				<ele>823.0</ele>
				<time>2013-08-14T06:38:47Z</time>
				<hdop>1.0</hdop>
			</trkpt>
			<trkpt lat="46.88277353" lon="6.72536907">
				<ele>823.1</ele>
				<time>2013-08-14T06:38:48Z</time>
				<hdop>1.0</hdop>
			</trkpt>
			<trkpt lat="46.8827675" lon="6.72535688">
				<ele>823.2</ele>
				<time>2013-08-14T06:38:49Z</time>
				<hdop>1.0</hdop>
			</trkpt>
			<trkpt lat="46.88276605" lon="6.72534535">
				<ele>821.7</ele>
				<time>2013-08-14T06:38:50Z</time>
				<hdop>1.0</hdop>
			</trkpt>
			<trkpt lat="46.88276401" lon="6.72533173">
				<ele>821.3</ele>
				<time>2013-08-14T06:38:51Z</time>
				<hdop>1.0</hdop>
			</trkpt>
			<trkpt lat="46.88276231" lon="6.72533134">
				<ele>822.6</ele>
				<time>2013-08-14T06:38:52Z</time>
				<hdop>1.0</hdop>
			</trkpt>
			<trkpt lat="46.8827671" lon="6.72531195">
				<ele>823.8</ele>
				<time>2013-08-14T06:38:53Z</time>
				<hdop>1.0</hdop>
			</trkpt>
			<trkpt lat="46.88276734" lon="6.72529942">
				<ele>824.0</ele>
				<time>2013-08-14T06:38:54Z</time>
				<hdop>1.0</hdop>
			</trkpt>
			<trkpt lat="46.88276606" lon="6.725273">
				<ele>823.9</ele>
				<time>2013-08-14T06:38:55Z</time>
				<hdop>1.0</hdop>
			</trkpt>
			<trkpt lat="46.88277339" lon="6.72525238">
				<ele>824.1</ele>
				<time>2013-08-14T06:38:56Z</time>
				<hdop>1.0</hdop>
			</trkpt>
			<trkpt lat="46.88276361" lon="6.72524383">
				<ele>824.4</ele>
				<time>2013-08-14T06:38:57Z</time>
				<hdop>1.0</hdop>
			</trkpt>
			<trkpt lat="46.88276106" lon="6.72521907">
				<ele>824.8</ele>
				<time>2013-08-14T06:38:58Z</time>
				<hdop>1.5</hdop>
			</trkpt>
			<trkpt lat="46.88276606" lon="6.72518957">
				<ele>824.2</ele>
				<time>2013-08-14T06:38:59Z</time>
				<hdop>1.0</hdop>
			</trkpt>
			<trkpt lat="46.88278175" lon="6.72516818">
				<ele>824.5</ele>
				<time>2013-08-14T06:39:00Z</time>
				<hdop>1.0</hdop>
			</trkpt>
			<trkpt lat="46.88278012" lon="6.72515541">
				<ele>824.9</ele>
				<time>2013-08-14T06:39:01Z</time>
				<hdop>1.0</hdop>
			</trkpt>
			<trkpt lat="46.88277829" lon="6.72511809">
				<ele>826.1</ele>
				<time>2013-08-14T06:39:02Z</time>
				<hdop>1.0</hdop>
			</trkpt>
			<trkpt lat="46.88277853" lon="6.72511008">
				<ele>826.0</ele>
				<time>2013-08-14T06:39:03Z</time>
				<hdop>1.0</hdop>
			</trkpt>
			<trkpt lat="46.88274402" lon="6.72507129">
				<ele>825.7</ele>
				<time>2013-08-14T06:39:04Z</time>
				<hdop>1.0</hdop>
			</trkpt>
			<trkpt lat="46.88277106" lon="6.72506776">
				<ele>824.6</ele>
				<time>2013-08-14T06:39:05Z</time>
				<hdop>1.0</hdop>
			</trkpt>
			<trkpt lat="46.88277673" lon="6.72507074">
				<ele>823.5</ele>
				<time>2013-08-14T06:39:06Z</time>
				<hdop>1.0</hdop>
			</trkpt>
			<trkpt lat="46.88278752" lon="6.72505531">
				<ele>823.4</ele>
				<time>2013-08-14T06:39:07Z</time>
				<hdop>1.0</hdop>
			</trkpt>
			<trkpt lat="46.88279471" lon="6.72503723">
				<ele>822.1</ele>
				<time>2013-08-14T06:39:08Z</time>
				<hdop>1.0</hdop>
			</trkpt>
			<trkpt lat="46.88280105" lon="6.725026">
				<ele>821.4</ele>
				<time>2013-08-14T06:39:09Z</time>
				<hdop>1.0</hdop>
			</trkpt>
			<trkpt lat="46.88280963" lon="6.72500854">
				<ele>821.0</ele>
				<time>2013-08-14T06:39:10Z</time>
				<hdop>1.0</hdop>
			</trkpt>
			<trkpt lat="46.88281462" lon="6.72499129">
				<ele>820.7</ele>
				<time>2013-08-14T06:39:11Z</time>
				<hdop>1.0</hdop>
			</trkpt>
			<trkpt lat="46.88281416" lon="6.72496165">
				<ele>820.5</ele>
				<time>2013-08-14T06:39:12Z</time>
				<hdop>1.0</hdop>
			</trkpt>
			<trkpt lat="46.88281915" lon="6.72494691">
				<ele>820.9</ele>
				<time>2013-08-14T06:39:13Z</time>
				<hdop>1.0</hdop>
			</trkpt>
			<trkpt lat="46.8828159" lon="6.72493951">
				<ele>822.1</ele>
				<time>2013-08-14T06:39:14Z</time>
				<hdop>1.0</hdop>
			</trkpt>
			<trkpt lat="46.88281727" lon="6.72491815">
				<ele>823.4</ele>
				<time>2013-08-14T06:39:15Z</time>
				<hdop>1.0</hdop>
			</trkpt>
			<trkpt lat="46.8828134" lon="6.72490129">
				<ele>824.3</ele>
				<time>2013-08-14T06:39:16Z</time>
				<hdop>1.0</hdop>
			</trkpt>
			<trkpt lat="46.8828165" lon="6.72487755">
				<ele>824.0</ele>
				<time>2013-08-14T06:39:17Z</time>
				<hdop>1.0</hdop>
			</trkpt>
			<trkpt lat="46.88282024" lon="6.7248691">
				<ele>824.1</ele>
				<time>2013-08-14T06:39:18Z</time>
				<hdop>1.0</hdop>
			</trkpt>
			<trkpt lat="46.88282397" lon="6.72485833">
				<ele>823.8</ele>
				<time>2013-08-14T06:39:19Z</time>
				<hdop>1.0</hdop>
			</trkpt>
			<trkpt lat="46.8828352" lon="6.72484344">
				<ele>823.5</ele>
				<time>2013-08-14T06:39:20Z</time>
				<hdop>1.0</hdop>
			</trkpt>
			<trkpt lat="46.88284781" lon="6.7248201">
				<ele>823.1</ele>
				<time>2013-08-14T06:39:21Z</time>
				<hdop>1.0</hdop>
			</trkpt>
			<trkpt lat="46.88285078" lon="6.72480241">
				<ele>823.7</ele>
				<time>2013-08-14T06:39:22Z</time>
				<hdop>1.0</hdop>
			</trkpt>
			<trkpt lat="46.88285576" lon="6.72478187">
				<ele>825.2</ele>
				<time>2013-08-14T06:39:23Z</time>
				<hdop>1.0</hdop>
			</trkpt>
			<trkpt lat="46.88286544" lon="6.72475945">
				<ele>825.9</ele>
				<time>2013-08-14T06:39:24Z</time>
				<hdop>1.0</hdop>
			</trkpt>
			<trkpt lat="46.8828672" lon="6.72474033">
				<ele>825.6</ele>
				<time>2013-08-14T06:39:25Z</time>
				<hdop>1.0</hdop>
			</trkpt>
			<trkpt lat="46.88287873" lon="6.72473713">
				<ele>825.2</ele>
				<time>2013-08-14T06:39:26Z</time>
				<hdop>1.0</hdop>
			</trkpt>
			<trkpt lat="46.8828874" lon="6.72471082">
				<ele>826.0</ele>
				<time>2013-08-14T06:39:27Z</time>
				<hdop>1.0</hdop>
			</trkpt>
			<trkpt lat="46.88289768" lon="6.72470207">
				<ele>826.0</ele>
				<time>2013-08-14T06:39:28Z</time>
				<hdop>1.0</hdop>
			</trkpt>
			<trkpt lat="46.88290277" lon="6.7246868">
				<ele>826.6</ele>
				<time>2013-08-14T06:39:29Z</time>
				<hdop>1.0</hdop>
			</trkpt>
			<trkpt lat="46.88291324" lon="6.72466737">
				<ele>827.4</ele>
				<time>2013-08-14T06:39:30Z</time>
				<hdop>1.0</hdop>
			</trkpt>
			<trkpt lat="46.88292038" lon="6.72463569">
				<ele>828.1</ele>
				<time>2013-08-14T06:39:31Z</time>
				<hdop>1.0</hdop>
			</trkpt>
			<trkpt lat="46.88292525" lon="6.72460943">
				<ele>828.3</ele>
				<time>2013-08-14T06:39:32Z</time>
				<hdop>1.0</hdop>
			</trkpt>
			<trkpt lat="46.8829273" lon="6.72458435">
				<ele>828.4</ele>
				<time>2013-08-14T06:39:33Z</time>
				<hdop>1.0</hdop>
			</trkpt>
			<trkpt lat="46.88292645" lon="6.72455548">
				<ele>829.1</ele>
				<time>2013-08-14T06:39:34Z</time>
				<hdop>1.0</hdop>
			</trkpt>
			<trkpt lat="46.88293067" lon="6.72453663">
				<ele>829.6</ele>
				<time>2013-08-14T06:39:35Z</time>
				<hdop>1.0</hdop>
			</trkpt>
			<trkpt lat="46.8829364" lon="6.72451913">
				<ele>829.2</ele>
				<time>2013-08-14T06:39:36Z</time>
				<hdop>1.0</hdop>
			</trkpt>
			<trkpt lat="46.88293968" lon="6.72450765">
				<ele>829.2</ele>
				<time>2013-08-14T06:39:37Z</time>
				<hdop>1.0</hdop>
			</trkpt>
			<trkpt lat="46.88294262" lon="6.72449395">
				<ele>828.9</ele>
				<time>2013-08-14T06:39:38Z</time>
				<hdop>1.0</hdop>
			</trkpt>
			<trkpt lat="46.88295125" lon="6.72446669">
				<ele>828.1</ele>
				<time>2013-08-14T06:39:39Z</time>
				<hdop>1.0</hdop>
			</trkpt>
			<trkpt lat="46.88295693" lon="6.72444375">
				<ele>828.2</ele>
				<time>2013-08-14T06:39:40Z</time>
				<hdop>1.0</hdop>
			</trkpt>
			<trkpt lat="46.88296049" lon="6.72442294">
				<ele>829.1</ele>
				<time>2013-08-14T06:39:41Z</time>
				<hdop>1.0</hdop>
			</trkpt>
			<trkpt lat="46.88296758" lon="6.72440453">
				<ele>829.4</ele>
				<time>2013-08-14T06:39:42Z</time>
				<hdop>1.0</hdop>
			</trkpt>
			<trkpt lat="46.88297117" lon="6.72438516">
				<ele>829.5</ele>
				<time>2013-08-14T06:39:43Z</time>
				<hdop>1.0</hdop>
			</trkpt>
			<trkpt lat="46.88297247" lon="6.72436685">
				<ele>830.4</ele>
				<time>2013-08-14T06:39:44Z</time>
				<hdop>1.0</hdop>
			</trkpt>
			<trkpt lat="46.88297666" lon="6.72435479">
				<ele>830.4</ele>
				<time>2013-08-14T06:39:45Z</time>
				<hdop>1.0</hdop>
			</trkpt>
			<trkpt lat="46.88298387" lon="6.72434636">
				<ele>829.5</ele>
				<time>2013-08-14T06:39:46Z</time>
				<hdop>1.0</hdop>
			</trkpt>
			<trkpt lat="46.88298808" lon="6.72433718">
				<ele>829.2</ele>
				<time>2013-08-14T06:39:47Z</time>
				<hdop>1.0</hdop>
			</trkpt>
			<trkpt lat="46.88299596" lon="6.72432152">
				<ele>829.5</ele>
				<time>2013-08-14T06:39:48Z</time>
				<hdop>1.0</hdop>
			</trkpt>
			<trkpt lat="46.8829993" lon="6.72430063">
				<ele>830.0</ele>
				<time>2013-08-14T06:39:49Z</time>
				<hdop>1.0</hdop>
			</trkpt>
			<trkpt lat="46.88300045" lon="6.72427918">
				<ele>830.5</ele>
				<time>2013-08-14T06:39:50Z</time>
				<hdop>1.0</hdop>
			</trkpt>
			<trkpt lat="46.88300772" lon="6.72426986">
				<ele>828.9</ele>
				<time>2013-08-14T06:39:51Z</time>
				<hdop>1.0</hdop>
			</trkpt>
			<trkpt lat="46.88301468" lon="6.72426277">
				<ele>827.9</ele>
				<time>2013-08-14T06:39:52Z</time>
				<hdop>1.0</hdop>
			</trkpt>
			<trkpt lat="46.88301892" lon="6.72425028">
				<ele>827.4</ele>
				<time>2013-08-14T06:39:53Z</time>
				<hdop>1.0</hdop>
			</trkpt>
			<trkpt lat="46.88302561" lon="6.72423615">
				<ele>827.8</ele>
				<time>2013-08-14T06:39:54Z</time>
				<hdop>1.0</hdop>
			</trkpt>
			<trkpt lat="46.88302942" lon="6.72421576">
				<ele>829.0</ele>
				<time>2013-08-14T06:39:55Z</time>
				<hdop>1.0</hdop>
			</trkpt>
			<trkpt lat="46.88303087" lon="6.72419912">
				<ele>829.4</ele>
				<time>2013-08-14T06:39:56Z</time>
				<hdop>1.0</hdop>
			</trkpt>
			<trkpt lat="46.88303348" lon="6.72418067">
				<ele>829.8</ele>
				<time>2013-08-14T06:39:57Z</time>
				<hdop>1.0</hdop>
			</trkpt>
			<trkpt lat="46.8830392" lon="6.72416549">
				<ele>830.0</ele>
				<time>2013-08-14T06:39:58Z</time>
				<hdop>1.0</hdop>
			</trkpt>
			<trkpt lat="46.88303065" lon="6.72414723">
				<ele>832.4</ele>
				<time>2013-08-14T06:39:59Z</time>
				<hdop>1.0</hdop>
			</trkpt>
			<trkpt lat="46.88302562" lon="6.72412976">
				<ele>833.6</ele>
				<time>2013-08-14T06:40:00Z</time>
				<hdop>1.0</hdop>
			</trkpt>
			<trkpt lat="46.88303267" lon="6.72411201">
				<ele>833.2</ele>
				<time>2013-08-14T06:40:01Z</time>
				<hdop>1.0</hdop>
			</trkpt>
			<trkpt lat="46.88304052" lon="6.7240968">
				<ele>833.2</ele>
				<time>2013-08-14T06:40:02Z</time>
				<hdop>1.0</hdop>
			</trkpt>
			<trkpt lat="46.88304186" lon="6.7240789">
				<ele>833.3</ele>
				<time>2013-08-14T06:40:03Z</time>
				<hdop>1.0</hdop>
			</trkpt>
			<trkpt lat="46.88303765" lon="6.72405953">
				<ele>835.7</ele>
				<time>2013-08-14T06:40:04Z</time>
				<hdop>1.0</hdop>
			</trkpt>
			<trkpt lat="46.88304339" lon="6.72403672">
				<ele>837.5</ele>
				<time>2013-08-14T06:40:05Z</time>
				<hdop>1.0</hdop>
			</trkpt>
			<trkpt lat="46.88305861" lon="6.72399628">
				<ele>838.8</ele>
				<time>2013-08-14T06:40:07Z</time>
				<hdop>1.0</hdop>
			</trkpt>
			<trkpt lat="46.88306445" lon="6.72398439">
				<ele>839.1</ele>
				<time>2013-08-14T06:40:08Z</time>
				<hdop>1.0</hdop>
			</trkpt>
			<trkpt lat="46.8830686" lon="6.72396642">
				<ele>839.4</ele>
				<time>2013-08-14T06:40:09Z</time>
				<hdop>1.0</hdop>
			</trkpt>
			<trkpt lat="46.8830733" lon="6.72394978">
				<ele>839.3</ele>
				<time>2013-08-14T06:40:10Z</time>
				<hdop>1.0</hdop>
			</trkpt>
			<trkpt lat="46.88307912" lon="6.72392833">
				<ele>839.1</ele>
				<time>2013-08-14T06:40:11Z</time>
				<hdop>1.0</hdop>
			</trkpt>
			<trkpt lat="46.88309172" lon="6.72391153">
				<ele>839.4</ele>
				<time>2013-08-14T06:40:12Z</time>
				<hdop>1.0</hdop>
			</trkpt>
			<trkpt lat="46.88309336" lon="6.72389117">
				<ele>837.9</ele>
				<time>2013-08-14T06:40:13Z</time>
				<hdop>1.0</hdop>
			</trkpt>
			<trkpt lat="46.88310138" lon="6.72387059">
				<ele>838.4</ele>
				<time>2013-08-14T06:40:14Z</time>
				<hdop>1.0</hdop>
			</trkpt>
			<trkpt lat="46.88310879" lon="6.72385441">
				<ele>838.1</ele>
				<time>2013-08-14T06:40:15Z</time>
				<hdop>1.0</hdop>
			</trkpt>
			<trkpt lat="46.88311042" lon="6.72384667">
				<ele>837.3</ele>
				<time>2013-08-14T06:40:16Z</time>
				<hdop>1.0</hdop>
			</trkpt>
			<trkpt lat="46.88312133" lon="6.72384119">
				<ele>837.4</ele>
				<time>2013-08-14T06:40:17Z</time>
				<hdop>1.0</hdop>
			</trkpt>
			<trkpt lat="46.88313453" lon="6.72383827">
				<ele>837.3</ele>
				<time>2013-08-14T06:40:18Z</time>
				<hdop>1.0</hdop>
			</trkpt>
			<trkpt lat="46.8831426" lon="6.72382318">
				<ele>837.4</ele>
				<time>2013-08-14T06:40:19Z</time>
				<hdop>1.0</hdop>
			</trkpt>
			<trkpt lat="46.88314388" lon="6.72380988">
				<ele>836.6</ele>
				<time>2013-08-14T06:40:20Z</time>
				<hdop>1.0</hdop>
			</trkpt>
			<trkpt lat="46.88314653" lon="6.72380219">
				<ele>836.1</ele>
				<time>2013-08-14T06:40:21Z</time>
				<hdop>1.0</hdop>
			</trkpt>
			<trkpt lat="46.88314982" lon="6.72378856">
				<ele>836.0</ele>
				<time>2013-08-14T06:40:22Z</time>
				<hdop>1.0</hdop>
			</trkpt>
			<trkpt lat="46.88315257" lon="6.72378511">
				<ele>836.2</ele>
				<time>2013-08-14T06:40:23Z</time>
				<hdop>1.0</hdop>
			</trkpt>
			<trkpt lat="46.88316396" lon="6.72376768">
				<ele>835.4</ele>
				<time>2013-08-14T06:40:24Z</time>
				<hdop>1.0</hdop>
			</trkpt>
			<trkpt lat="46.88316885" lon="6.72374862">
				<ele>835.8</ele>
				<time>2013-08-14T06:40:25Z</time>
				<hdop>1.0</hdop>
			</trkpt>
			<trkpt lat="46.88316972" lon="6.72373135">
				<ele>835.7</ele>
				<time>2013-08-14T06:40:26Z</time>
				<hdop>1.0</hdop>
			</trkpt>
			<trkpt lat="46.88316353" lon="6.72370741">
				<ele>835.4</ele>
				<time>2013-08-14T06:40:27Z</time>
				<hdop>1.0</hdop>
			</trkpt>
			<trkpt lat="46.88315907" lon="6.72368157">
				<ele>835.5</ele>
				<time>2013-08-14T06:40:28Z</time>
				<hdop>1.0</hdop>
			</trkpt>
			<trkpt lat="46.88316559" lon="6.72366851">
				<ele>835.4</ele>
				<time>2013-08-14T06:40:29Z</time>
				<hdop>1.0</hdop>
			</trkpt>
			<trkpt lat="46.88317362" lon="6.723649">
				<ele>835.2</ele>
				<time>2013-08-14T06:40:30Z</time>
				<hdop>1.0</hdop>
			</trkpt>
			<trkpt lat="46.88316352" lon="6.72362018">
				<ele>835.5</ele>
				<time>2013-08-14T06:40:31Z</time>
				<hdop>1.0</hdop>
			</trkpt>
			<trkpt lat="46.88316392" lon="6.72359387">
				<ele>835.6</ele>
				<time>2013-08-14T06:40:32Z</time>
				<hdop>1.0</hdop>
			</trkpt>
			<trkpt lat="46.88316717" lon="6.72356195">
				<ele>835.2</ele>
				<time>2013-08-14T06:40:33Z</time>
				<hdop>1.0</hdop>
			</trkpt>
			<trkpt lat="46.8831686" lon="6.72355886">
				<ele>835.5</ele>
				<time>2013-08-14T06:40:34Z</time>
				<hdop>1.0</hdop>
			</trkpt>
			<trkpt lat="46.88316887" lon="6.7235357">
				<ele>836.3</ele>
				<time>2013-08-14T06:40:35Z</time>
				<hdop>1.0</hdop>
			</trkpt>
			<trkpt lat="46.88319026" lon="6.72353042">
				<ele>835.2</ele>
				<time>2013-08-14T06:40:37Z</time>
				<hdop>1.0</hdop>
			</trkpt>
			<trkpt lat="46.88321831" lon="6.72350416">
				<ele>835.2</ele>
				<time>2013-08-14T06:40:39Z</time>
				<hdop>1.0</hdop>
			</trkpt>
			<trkpt lat="46.8832295" lon="6.72349085">
				<ele>835.0</ele>
				<time>2013-08-14T06:40:40Z</time>
				<hdop>1.0</hdop>
			</trkpt>
			<trkpt lat="46.8832036" lon="6.72344561">
				<ele>833.8</ele>
				<time>2013-08-14T06:40:41Z</time>
				<hdop>1.0</hdop>
			</trkpt>
			<trkpt lat="46.88320331" lon="6.72342424">
				<ele>833.4</ele>
				<time>2013-08-14T06:40:42Z</time>
				<hdop>1.0</hdop>
			</trkpt>
			<trkpt lat="46.88320377" lon="6.72340191">
				<ele>833.6</ele>
				<time>2013-08-14T06:40:43Z</time>
				<hdop>1.0</hdop>
			</trkpt>
			<trkpt lat="46.88320563" lon="6.72337701">
				<ele>833.5</ele>
				<time>2013-08-14T06:40:44Z</time>
				<hdop>1.0</hdop>
			</trkpt>
			<trkpt lat="46.88321321" lon="6.72337133">
				<ele>833.7</ele>
				<time>2013-08-14T06:40:45Z</time>
				<hdop>1.0</hdop>
			</trkpt>
			<trkpt lat="46.88322111" lon="6.72335007">
				<ele>833.8</ele>
				<time>2013-08-14T06:40:46Z</time>
				<hdop>1.0</hdop>
			</trkpt>
			<trkpt lat="46.88323787" lon="6.72335496">
				<ele>834.8</ele>
				<time>2013-08-14T06:40:47Z</time>
				<hdop>1.0</hdop>
			</trkpt>
			<trkpt lat="46.883239" lon="6.72333979">
				<ele>835.3</ele>
				<time>2013-08-14T06:40:48Z</time>
				<hdop>1.0</hdop>
			</trkpt>
			<trkpt lat="46.88324781" lon="6.72332294">
				<ele>835.5</ele>
				<time>2013-08-14T06:40:49Z</time>
				<hdop>1.0</hdop>
			</trkpt>
			<trkpt lat="46.88325253" lon="6.72331354">
				<ele>835.6</ele>
				<time>2013-08-14T06:40:50Z</time>
				<hdop>1.0</hdop>
			</trkpt>
			<trkpt lat="46.88326321" lon="6.72329773">
				<ele>834.4</ele>
				<time>2013-08-14T06:40:51Z</time>
				<hdop>1.0</hdop>
			</trkpt>
			<trkpt lat="46.88327285" lon="6.72328352">
				<ele>834.0</ele>
				<time>2013-08-14T06:40:52Z</time>
				<hdop>1.0</hdop>
			</trkpt>
			<trkpt lat="46.88328345" lon="6.72327946">
				<ele>834.1</ele>
				<time>2013-08-14T06:40:53Z</time>
				<hdop>1.0</hdop>
			</trkpt>
			<trkpt lat="46.88329175" lon="6.72327059">
				<ele>834.1</ele>
				<time>2013-08-14T06:40:54Z</time>
				<hdop>1.0</hdop>
			</trkpt>
			<trkpt lat="46.88328548" lon="6.72324605">
				<ele>833.6</ele>
				<time>2013-08-14T06:40:55Z</time>
				<hdop>1.0</hdop>
			</trkpt>
			<trkpt lat="46.88328146" lon="6.72322194">
				<ele>833.7</ele>
				<time>2013-08-14T06:40:56Z</time>
				<hdop>1.0</hdop>
			</trkpt>
			<trkpt lat="46.88328427" lon="6.72321353">
				<ele>834.0</ele>
				<time>2013-08-14T06:40:57Z</time>
				<hdop>1.0</hdop>
			</trkpt>
			<trkpt lat="46.8832809" lon="6.72319401">
				<ele>834.2</ele>
				<time>2013-08-14T06:40:58Z</time>
				<hdop>1.0</hdop>
			</trkpt>
			<trkpt lat="46.8832952" lon="6.72318167">
				<ele>836.3</ele>
				<time>2013-08-14T06:40:59Z</time>
				<hdop>1.0</hdop>
			</trkpt>
			<trkpt lat="46.8833125" lon="6.7231639">
				<ele>837.4</ele>
				<time>2013-08-14T06:41:00Z</time>
				<hdop>1.0</hdop>
			</trkpt>
			<trkpt lat="46.8833214" lon="6.7231426">
				<ele>838.9</ele>
				<time>2013-08-14T06:41:01Z</time>
				<hdop>1.0</hdop>
			</trkpt>
			<trkpt lat="46.8833143" lon="6.72312161">
				<ele>838.3</ele>
				<time>2013-08-14T06:41:02Z</time>
				<hdop>1.0</hdop>
			</trkpt>
			<trkpt lat="46.8833182" lon="6.72310752">
				<ele>839.6</ele>
				<time>2013-08-14T06:41:03Z</time>
				<hdop>1.0</hdop>
			</trkpt>
			<trkpt lat="46.88331413" lon="6.72309091">
				<ele>839.0</ele>
				<time>2013-08-14T06:41:04Z</time>
				<hdop>1.0</hdop>
			</trkpt>
			<trkpt lat="46.88331534" lon="6.72307579">
				<ele>838.7</ele>
				<time>2013-08-14T06:41:05Z</time>
				<hdop>1.0</hdop>
			</trkpt>
			<trkpt lat="46.88331685" lon="6.7230599">
				<ele>838.7</ele>
				<time>2013-08-14T06:41:06Z</time>
				<hdop>1.0</hdop>
			</trkpt>
			<trkpt lat="46.88331349" lon="6.72304351">
				<ele>838.7</ele>
				<time>2013-08-14T06:41:07Z</time>
				<hdop>1.0</hdop>
			</trkpt>
			<trkpt lat="46.88331806" lon="6.7230216">
				<ele>838.8</ele>
				<time>2013-08-14T06:41:08Z</time>
				<hdop>1.0</hdop>
			</trkpt>
			<trkpt lat="46.88331424" lon="6.72300138">
				<ele>839.1</ele>
				<time>2013-08-14T06:41:09Z</time>
				<hdop>1.0</hdop>
			</trkpt>
			<trkpt lat="46.88330955" lon="6.72299461">
				<ele>839.1</ele>
				<time>2013-08-14T06:41:10Z</time>
				<hdop>1.0</hdop>
			</trkpt>
			<trkpt lat="46.88333056" lon="6.72298052">
				<ele>842.4</ele>
				<time>2013-08-14T06:41:11Z</time>
				<hdop>1.0</hdop>
			</trkpt>
			<trkpt lat="46.88334058" lon="6.72296778">
				<ele>843.6</ele>
				<time>2013-08-14T06:41:12Z</time>
				<hdop>1.0</hdop>
			</trkpt>
			<trkpt lat="46.88333912" lon="6.72295022">
				<ele>843.0</ele>
				<time>2013-08-14T06:41:13Z</time>
				<hdop>1.0</hdop>
			</trkpt>
			<trkpt lat="46.8833427" lon="6.72293321">
				<ele>843.1</ele>
				<time>2013-08-14T06:41:14Z</time>
				<hdop>1.0</hdop>
			</trkpt>
			<trkpt lat="46.88334093" lon="6.72291538">
				<ele>842.6</ele>
				<time>2013-08-14T06:41:15Z</time>
				<hdop>1.0</hdop>
			</trkpt>
			<trkpt lat="46.88334305" lon="6.72289866">
				<ele>842.6</ele>
				<time>2013-08-14T06:41:16Z</time>
				<hdop>1.0</hdop>
			</trkpt>
			<trkpt lat="46.88334468" lon="6.7228825">
				<ele>842.7</ele>
				<time>2013-08-14T06:41:17Z</time>
				<hdop>1.0</hdop>
			</trkpt>
			<trkpt lat="46.88336257" lon="6.72286112">
				<ele>841.8</ele>
				<time>2013-08-14T06:41:18Z</time>
				<hdop>1.0</hdop>
			</trkpt>
			<trkpt lat="46.88336894" lon="6.72284229">
				<ele>841.2</ele>
				<time>2013-08-14T06:41:19Z</time>
				<hdop>1.0</hdop>
			</trkpt>
			<trkpt lat="46.88337459" lon="6.72283228">
				<ele>841.1</ele>
				<time>2013-08-14T06:41:20Z</time>
				<hdop>1.0</hdop>
			</trkpt>
			<trkpt lat="46.88337463" lon="6.72280722">
				<ele>841.1</ele>
				<time>2013-08-14T06:41:21Z</time>
				<hdop>1.0</hdop>
			</trkpt>
			<trkpt lat="46.88338058" lon="6.72278947">
				<ele>841.1</ele>
				<time>2013-08-14T06:41:22Z</time>
				<hdop>1.0</hdop>
			</trkpt>
			<trkpt lat="46.8833797" lon="6.72277159">
				<ele>841.1</ele>
				<time>2013-08-14T06:41:23Z</time>
				<hdop>1.0</hdop>
			</trkpt>
			<trkpt lat="46.88337885" lon="6.72275109">
				<ele>841.2</ele>
				<time>2013-08-14T06:41:24Z</time>
				<hdop>1.0</hdop>
			</trkpt>
			<trkpt lat="46.8833745" lon="6.72272895">
				<ele>840.9</ele>
				<time>2013-08-14T06:41:25Z</time>
				<hdop>1.0</hdop>
			</trkpt>
			<trkpt lat="46.8833779" lon="6.72272288">
				<ele>841.7</ele>
				<time>2013-08-14T06:41:26Z</time>
				<hdop>1.0</hdop>
			</trkpt>
			<trkpt lat="46.88338585" lon="6.72271021">
				<ele>841.8</ele>
				<time>2013-08-14T06:41:27Z</time>
				<hdop>1.0</hdop>
			</trkpt>
			<trkpt lat="46.8833844" lon="6.72269341">
				<ele>842.0</ele>
				<time>2013-08-14T06:41:28Z</time>
				<hdop>1.0</hdop>
			</trkpt>
			<trkpt lat="46.88337292" lon="6.72268333">
				<ele>841.6</ele>
				<time>2013-08-14T06:41:29Z</time>
				<hdop>1.0</hdop>
			</trkpt>
			<trkpt lat="46.88336613" lon="6.72266726">
				<ele>840.8</ele>
				<time>2013-08-14T06:41:30Z</time>
				<hdop>1.0</hdop>
			</trkpt>
			<trkpt lat="46.88336853" lon="6.72264583">
				<ele>840.9</ele>
				<time>2013-08-14T06:41:31Z</time>
				<hdop>1.0</hdop>
			</trkpt>
			<trkpt lat="46.88336744" lon="6.72262105">
				<ele>841.1</ele>
				<time>2013-08-14T06:41:32Z</time>
				<hdop>1.0</hdop>
			</trkpt>
			<trkpt lat="46.88336688" lon="6.72260692">
				<ele>841.1</ele>
				<time>2013-08-14T06:41:33Z</time>
				<hdop>1.0</hdop>
			</trkpt>
			<trkpt lat="46.88336785" lon="6.72258863">
				<ele>840.4</ele>
				<time>2013-08-14T06:41:34Z</time>
				<hdop>1.0</hdop>
			</trkpt>
			<trkpt lat="46.88336885" lon="6.72257021">
				<ele>840.4</ele>
				<time>2013-08-14T06:41:35Z</time>
				<hdop>1.0</hdop>
			</trkpt>
			<trkpt lat="46.88336912" lon="6.72255305">
				<ele>840.5</ele>
				<time>2013-08-14T06:41:36Z</time>
				<hdop>1.0</hdop>
			</trkpt>
			<trkpt lat="46.88335876" lon="6.72253332">
				<ele>840.5</ele>
				<time>2013-08-14T06:41:37Z</time>
				<hdop>1.0</hdop>
			</trkpt>
			<trkpt lat="46.88335594" lon="6.72252042">
				<ele>840.4</ele>
				<time>2013-08-14T06:41:38Z</time>
				<hdop>1.0</hdop>
			</trkpt>
			<trkpt lat="46.88334607" lon="6.72249843">
				<ele>839.8</ele>
				<time>2013-08-14T06:41:39Z</time>
				<hdop>1.0</hdop>
			</trkpt>
			<trkpt lat="46.88334294" lon="6.7224809">
				<ele>839.9</ele>
				<time>2013-08-14T06:41:40Z</time>
				<hdop>1.0</hdop>
			</trkpt>
			<trkpt lat="46.88334053" lon="6.72246295">
				<ele>839.1</ele>
				<time>2013-08-14T06:41:41Z</time>
				<hdop>1.0</hdop>
			</trkpt>
			<trkpt lat="46.8833394" lon="6.7224547">
				<ele>839.6</ele>
				<time>2013-08-14T06:41:42Z</time>
				<hdop>1.0</hdop>
			</trkpt>
			<trkpt lat="46.88333949" lon="6.72244375">
				<ele>838.8</ele>
				<time>2013-08-14T06:41:43Z</time>
				<hdop>1.0</hdop>
			</trkpt>
			<trkpt lat="46.88333948" lon="6.72243023">
				<ele>838.2</ele>
				<time>2013-08-14T06:41:44Z</time>
				<hdop>1.0</hdop>
			</trkpt>
			<trkpt lat="46.88333761" lon="6.72241527">
				<ele>837.8</ele>
				<time>2013-08-14T06:41:45Z</time>
				<hdop>1.0</hdop>
			</trkpt>
			<trkpt lat="46.88334026" lon="6.72239794">
				<ele>837.5</ele>
				<time>2013-08-14T06:41:46Z</time>
				<hdop>1.0</hdop>
			</trkpt>
			<trkpt lat="46.88333452" lon="6.72238526">
				<ele>837.5</ele>
				<time>2013-08-14T06:41:47Z</time>
				<hdop>1.0</hdop>
			</trkpt>
			<trkpt lat="46.88333254" lon="6.7223721">
				<ele>837.7</ele>
				<time>2013-08-14T06:41:48Z</time>
				<hdop>1.5</hdop>
			</trkpt>
			<trkpt lat="46.88333364" lon="6.722361">
				<ele>838.0</ele>
				<time>2013-08-14T06:41:49Z</time>
				<hdop>1.5</hdop>
			</trkpt>
			<trkpt lat="46.88333627" lon="6.72234137">
				<ele>838.4</ele>
				<time>2013-08-14T06:41:50Z</time>
				<hdop>1.5</hdop>
			</trkpt>
			<trkpt lat="46.88333933" lon="6.72233804">
				<ele>838.7</ele>
				<time>2013-08-14T06:41:51Z</time>
				<hdop>1.5</hdop>
			</trkpt>
			<trkpt lat="46.88335129" lon="6.72231571">
				<ele>839.3</ele>
				<time>2013-08-14T06:41:52Z</time>
				<hdop>1.5</hdop>
			</trkpt>
			<trkpt lat="46.88335079" lon="6.72230465">
				<ele>839.7</ele>
				<time>2013-08-14T06:41:53Z</time>
				<hdop>1.5</hdop>
			</trkpt>
			<trkpt lat="46.8833519" lon="6.72228711">
				<ele>839.8</ele>
				<time>2013-08-14T06:41:54Z</time>
				<hdop>1.5</hdop>
			</trkpt>
			<trkpt lat="46.88336297" lon="6.72226786">
				<ele>839.7</ele>
				<time>2013-08-14T06:41:55Z</time>
				<hdop>1.5</hdop>
			</trkpt>
			<trkpt lat="46.88336468" lon="6.72225173">
				<ele>839.9</ele>
				<time>2013-08-14T06:41:56Z</time>
				<hdop>1.5</hdop>
			</trkpt>
			<trkpt lat="46.88337365" lon="6.72223552">
				<ele>840.1</ele>
				<time>2013-08-14T06:41:57Z</time>
				<hdop>1.5</hdop>
			</trkpt>
			<trkpt lat="46.88337148" lon="6.72221204">
				<ele>840.2</ele>
				<time>2013-08-14T06:41:58Z</time>
				<hdop>1.5</hdop>
			</trkpt>
			<trkpt lat="46.88337063" lon="6.72218655">
				<ele>840.4</ele>
				<time>2013-08-14T06:41:59Z</time>
				<hdop>1.5</hdop>
			</trkpt>
			<trkpt lat="46.88338602" lon="6.72216477">
				<ele>840.0</ele>
				<time>2013-08-14T06:42:01Z</time>
				<hdop>1.5</hdop>
			</trkpt>
			<trkpt lat="46.88338354" lon="6.72214">
				<ele>840.2</ele>
				<time>2013-08-14T06:42:02Z</time>
				<hdop>1.5</hdop>
			</trkpt>
			<trkpt lat="46.88338174" lon="6.72212101">
				<ele>840.8</ele>
				<time>2013-08-14T06:42:03Z</time>
				<hdop>2.0</hdop>
			</trkpt>
			<trkpt lat="46.88338272" lon="6.72210517">
				<ele>841.2</ele>
				<time>2013-08-14T06:42:04Z</time>
				<hdop>2.0</hdop>
			</trkpt>
			<trkpt lat="46.88337888" lon="6.72209071">
				<ele>841.4</ele>
				<time>2013-08-14T06:42:05Z</time>
				<hdop>2.0</hdop>
			</trkpt>
			<trkpt lat="46.88337239" lon="6.72207868">
				<ele>841.8</ele>
				<time>2013-08-14T06:42:06Z</time>
				<hdop>1.5</hdop>
			</trkpt>
			<trkpt lat="46.88335696" lon="6.72206381">
				<ele>842.5</ele>
				<time>2013-08-14T06:42:07Z</time>
				<hdop>1.5</hdop>
			</trkpt>
			<trkpt lat="46.88335999" lon="6.72203366">
				<ele>843.1</ele>
				<time>2013-08-14T06:42:08Z</time>
				<hdop>1.5</hdop>
			</trkpt>
			<trkpt lat="46.88336617" lon="6.72200611">
				<ele>843.2</ele>
				<time>2013-08-14T06:42:10Z</time>
				<hdop>2.0</hdop>
			</trkpt>
			<trkpt lat="46.88337415" lon="6.72199133">
				<ele>843.4</ele>
				<time>2013-08-14T06:42:11Z</time>
				<hdop>2.0</hdop>
			</trkpt>
			<trkpt lat="46.88338057" lon="6.72196597">
				<ele>843.5</ele>
				<time>2013-08-14T06:42:12Z</time>
				<hdop>1.5</hdop>
			</trkpt>
			<trkpt lat="46.88339364" lon="6.72194582">
				<ele>843.4</ele>
				<time>2013-08-14T06:42:13Z</time>
				<hdop>1.5</hdop>
			</trkpt>
			<trkpt lat="46.88338797" lon="6.72192855">
				<ele>843.3</ele>
				<time>2013-08-14T06:42:14Z</time>
				<hdop>1.5</hdop>
			</trkpt>
			<trkpt lat="46.88339451" lon="6.72191893">
				<ele>843.7</ele>
				<time>2013-08-14T06:42:16Z</time>
				<hdop>2.0</hdop>
			</trkpt>
			<trkpt lat="46.88340734" lon="6.72190248">
				<ele>843.7</ele>
				<time>2013-08-14T06:42:17Z</time>
				<hdop>1.5</hdop>
			</trkpt>
			<trkpt lat="46.88341299" lon="6.72189091">
				<ele>843.8</ele>
				<time>2013-08-14T06:42:18Z</time>
				<hdop>1.5</hdop>
			</trkpt>
			<trkpt lat="46.88341737" lon="6.72186554">
				<ele>844.4</ele>
				<time>2013-08-14T06:42:19Z</time>
				<hdop>1.5</hdop>
			</trkpt>
			<trkpt lat="46.88340742" lon="6.72183457">
				<ele>844.5</ele>
				<time>2013-08-14T06:42:21Z</time>
				<hdop>1.5</hdop>
			</trkpt>
			<trkpt lat="46.88339276" lon="6.72181578">
				<ele>844.8</ele>
				<time>2013-08-14T06:42:22Z</time>
				<hdop>2.0</hdop>
			</trkpt>
			<trkpt lat="46.88340514" lon="6.72179054">
				<ele>845.3</ele>
				<time>2013-08-14T06:42:23Z</time>
				<hdop>1.0</hdop>
			</trkpt>
			<trkpt lat="46.88339456" lon="6.72174299">
				<ele>845.6</ele>
				<time>2013-08-14T06:42:25Z</time>
				<hdop>2.0</hdop>
			</trkpt>
			<trkpt lat="46.88339023" lon="6.7217379">
				<ele>845.2</ele>
				<time>2013-08-14T06:42:26Z</time>
				<hdop>2.0</hdop>
			</trkpt>
			<trkpt lat="46.88336287" lon="6.72171608">
				<ele>845.6</ele>
				<time>2013-08-14T06:42:27Z</time>
				<hdop>2.0</hdop>
			</trkpt>
			<trkpt lat="46.88338417" lon="6.72168321">
				<ele>845.7</ele>
				<time>2013-08-14T06:42:28Z</time>
				<hdop>2.0</hdop>
			</trkpt>
			<trkpt lat="46.88339539" lon="6.72164933">
				<ele>847.5</ele>
				<time>2013-08-14T06:42:29Z</time>
				<hdop>2.0</hdop>
			</trkpt>
			<trkpt lat="46.88339075" lon="6.72166487">
				<ele>847.1</ele>
				<time>2013-08-14T06:42:30Z</time>
				<hdop>3.0</hdop>
			</trkpt>
			<trkpt lat="46.88340236" lon="6.72161732">
				<ele>847.2</ele>
				<time>2013-08-14T06:42:32Z</time>
				<hdop>3.0</hdop>
			</trkpt>
			<trkpt lat="46.88341383" lon="6.72159974">
				<ele>847.4</ele>
				<time>2013-08-14T06:42:33Z</time>
				<hdop>3.0</hdop>
			</trkpt>
			<trkpt lat="46.88343689" lon="6.7215888">
				<ele>847.4</ele>
				<time>2013-08-14T06:42:35Z</time>
				<hdop>3.0</hdop>
			</trkpt>
			<trkpt lat="46.88343433" lon="6.72152919">
				<ele>848.0</ele>
				<time>2013-08-14T06:42:36Z</time>
				<hdop>1.5</hdop>
			</trkpt>
			<trkpt lat="46.88346292" lon="6.72147911">
				<ele>848.5</ele>
				<time>2013-08-14T06:42:38Z</time>
				<hdop>1.5</hdop>
			</trkpt>
			<trkpt lat="46.88348173" lon="6.72144413">
				<ele>848.6</ele>
				<time>2013-08-14T06:42:39Z</time>
				<hdop>1.5</hdop>
			</trkpt>
			<trkpt lat="46.88348951" lon="6.7214234">
				<ele>848.7</ele>
				<time>2013-08-14T06:42:40Z</time>
				<hdop>1.5</hdop>
			</trkpt>
			<trkpt lat="46.88346517" lon="6.72138579">
				<ele>850.1</ele>
				<time>2013-08-14T06:42:41Z</time>
				<hdop>1.5</hdop>
			</trkpt>
			<trkpt lat="46.88350576" lon="6.72138642">
				<ele>850.8</ele>
				<time>2013-08-14T06:42:42Z</time>
				<hdop>1.5</hdop>
			</trkpt>
			<trkpt lat="46.88351218" lon="6.72137245">
				<ele>850.8</ele>
				<time>2013-08-14T06:42:43Z</time>
				<hdop>1.5</hdop>
			</trkpt>
			<trkpt lat="46.88351212" lon="6.72135328">
				<ele>850.3</ele>
				<time>2013-08-14T06:42:44Z</time>
				<hdop>2.0</hdop>
			</trkpt>
			<trkpt lat="46.88351152" lon="6.72136927">
				<ele>849.9</ele>
				<time>2013-08-14T06:42:45Z</time>
				<hdop>1.5</hdop>
			</trkpt>
			<trkpt lat="46.88351275" lon="6.72139484">
				<ele>849.0</ele>
				<time>2013-08-14T06:42:46Z</time>
				<hdop>1.5</hdop>
			</trkpt>
			<trkpt lat="46.88351631" lon="6.72138771">
				<ele>848.9</ele>
				<time>2013-08-14T06:42:47Z</time>
				<hdop>2.0</hdop>
			</trkpt>
			<trkpt lat="46.88354988" lon="6.72135135">
				<ele>849.9</ele>
				<time>2013-08-14T06:42:48Z</time>
				<hdop>1.5</hdop>
			</trkpt>
			<trkpt lat="46.88355513" lon="6.72133789">
				<ele>849.8</ele>
				<time>2013-08-14T06:42:49Z</time>
				<hdop>2.0</hdop>
			</trkpt>
			<trkpt lat="46.88354303" lon="6.72132735">
				<ele>851.7</ele>
				<time>2013-08-14T06:42:50Z</time>
				<hdop>2.0</hdop>
			</trkpt>
			<trkpt lat="46.88350786" lon="6.72128587">
				<ele>852.8</ele>
				<time>2013-08-14T06:42:51Z</time>
				<hdop>2.0</hdop>
			</trkpt>
			<trkpt lat="46.88352541" lon="6.72128367">
				<ele>853.6</ele>
				<time>2013-08-14T06:42:52Z</time>
				<hdop>2.0</hdop>
			</trkpt>
			<trkpt lat="46.88350979" lon="6.72125091">
				<ele>853.8</ele>
				<time>2013-08-14T06:42:54Z</time>
				<hdop>2.0</hdop>
			</trkpt>
			<trkpt lat="46.88351115" lon="6.72124896">
				<ele>853.8</ele>
				<time>2013-08-14T06:42:55Z</time>
				<hdop>3.0</hdop>
			</trkpt>
			<trkpt lat="46.88348272" lon="6.72123294">
				<ele>854.4</ele>
				<time>2013-08-14T06:42:57Z</time>
				<hdop>3.0</hdop>
			</trkpt>
			<trkpt lat="46.88348889" lon="6.72121142">
				<ele>855.5</ele>
				<time>2013-08-14T06:42:58Z</time>
				<hdop>3.0</hdop>
			</trkpt>
			<trkpt lat="46.88348964" lon="6.72118237">
				<ele>856.2</ele>
				<time>2013-08-14T06:42:59Z</time>
				<hdop>3.0</hdop>
			</trkpt>
			<trkpt lat="46.88350069" lon="6.7211818">
				<ele>857.1</ele>
				<time>2013-08-14T06:43:00Z</time>
				<hdop>2.0</hdop>
			</trkpt>
			<trkpt lat="46.88350112" lon="6.72118453">
				<ele>858.0</ele>
				<time>2013-08-14T06:43:01Z</time>
				<hdop>2.0</hdop>
			</trkpt>
			<trkpt lat="46.88351146" lon="6.72114708">
				<ele>857.5</ele>
				<time>2013-08-14T06:43:03Z</time>
				<hdop>2.0</hdop>
			</trkpt>
			<trkpt lat="46.88352879" lon="6.72113036">
				<ele>857.4</ele>
				<time>2013-08-14T06:43:04Z</time>
				<hdop>1.5</hdop>
			</trkpt>
			<trkpt lat="46.88353956" lon="6.72108263">
				<ele>857.1</ele>
				<time>2013-08-14T06:43:05Z</time>
				<hdop>1.5</hdop>
			</trkpt>
			<trkpt lat="46.88353696" lon="6.72107792">
				<ele>857.5</ele>
				<time>2013-08-14T06:43:07Z</time>
				<hdop>1.5</hdop>
			</trkpt>
			<trkpt lat="46.88356668" lon="6.72103193">
				<ele>857.8</ele>
				<time>2013-08-14T06:43:09Z</time>
				<hdop>1.5</hdop>
			</trkpt>
			<trkpt lat="46.88357281" lon="6.72101171">
				<ele>857.6</ele>
				<time>2013-08-14T06:43:10Z</time>
				<hdop>1.0</hdop>
			</trkpt>
			<trkpt lat="46.88358534" lon="6.72099003">
				<ele>857.1</ele>
				<time>2013-08-14T06:43:11Z</time>
				<hdop>1.0</hdop>
			</trkpt>
			<trkpt lat="46.88359095" lon="6.72097299">
				<ele>856.6</ele>
				<time>2013-08-14T06:43:12Z</time>
				<hdop>1.5</hdop>
			</trkpt>
			<trkpt lat="46.88359974" lon="6.72095116">
				<ele>856.8</ele>
				<time>2013-08-14T06:43:13Z</time>
				<hdop>1.5</hdop>
			</trkpt>
			<trkpt lat="46.88359044" lon="6.7209182">
				<ele>857.1</ele>
				<time>2013-08-14T06:43:14Z</time>
				<hdop>1.5</hdop>
			</trkpt>
			<trkpt lat="46.88359492" lon="6.72089857">
				<ele>857.1</ele>
				<time>2013-08-14T06:43:15Z</time>
				<hdop>1.0</hdop>
			</trkpt>
			<trkpt lat="46.88362586" lon="6.7209023">
				<ele>861.7</ele>
				<time>2013-08-14T06:43:16Z</time>
				<hdop>1.0</hdop>
			</trkpt>
			<trkpt lat="46.88362093" lon="6.72088119">
				<ele>860.6</ele>
				<time>2013-08-14T06:43:17Z</time>
				<hdop>1.0</hdop>
			</trkpt>
			<trkpt lat="46.88361154" lon="6.72085873">
				<ele>860.4</ele>
				<time>2013-08-14T06:43:18Z</time>
				<hdop>1.0</hdop>
			</trkpt>
			<trkpt lat="46.88360855" lon="6.72084748">
				<ele>860.3</ele>
				<time>2013-08-14T06:43:19Z</time>
				<hdop>1.0</hdop>
			</trkpt>
			<trkpt lat="46.88361339" lon="6.72083611">
				<ele>861.5</ele>
				<time>2013-08-14T06:43:20Z</time>
				<hdop>1.0</hdop>
			</trkpt>
			<trkpt lat="46.88361777" lon="6.72083047">
				<ele>861.8</ele>
				<time>2013-08-14T06:43:21Z</time>
				<hdop>1.0</hdop>
			</trkpt>
			<trkpt lat="46.88361635" lon="6.72081471">
				<ele>861.8</ele>
				<time>2013-08-14T06:43:22Z</time>
				<hdop>1.0</hdop>
			</trkpt>
			<trkpt lat="46.88361705" lon="6.72081157">
				<ele>862.2</ele>
				<time>2013-08-14T06:43:23Z</time>
				<hdop>1.0</hdop>
			</trkpt>
			<trkpt lat="46.88360997" lon="6.72079811">
				<ele>863.0</ele>
				<time>2013-08-14T06:43:24Z</time>
				<hdop>1.0</hdop>
			</trkpt>
			<trkpt lat="46.88360838" lon="6.72079222">
				<ele>862.9</ele>
				<time>2013-08-14T06:43:25Z</time>
				<hdop>1.0</hdop>
			</trkpt>
			<trkpt lat="46.883605" lon="6.72078015">
				<ele>862.5</ele>
				<time>2013-08-14T06:43:26Z</time>
				<hdop>1.0</hdop>
			</trkpt>
			<trkpt lat="46.88359887" lon="6.72076852">
				<ele>862.5</ele>
				<time>2013-08-14T06:43:27Z</time>
				<hdop>1.0</hdop>
			</trkpt>
			<trkpt lat="46.88360697" lon="6.72074369">
				<ele>863.3</ele>
				<time>2013-08-14T06:43:28Z</time>
				<hdop>1.0</hdop>
			</trkpt>
			<trkpt lat="46.88359657" lon="6.72071374">
				<ele>863.1</ele>
				<time>2013-08-14T06:43:29Z</time>
				<hdop>1.0</hdop>
			</trkpt>
			<trkpt lat="46.88360153" lon="6.72070405">
				<ele>863.3</ele>
				<time>2013-08-14T06:43:30Z</time>
				<hdop>1.0</hdop>
			</trkpt>
			<trkpt lat="46.88360711" lon="6.72069346">
				<ele>863.8</ele>
				<time>2013-08-14T06:43:31Z</time>
				<hdop>1.0</hdop>
			</trkpt>
			<trkpt lat="46.88361145" lon="6.72066944">
				<ele>863.4</ele>
				<time>2013-08-14T06:43:32Z</time>
				<hdop>1.0</hdop>
			</trkpt>
			<trkpt lat="46.88363112" lon="6.72066625">
				<ele>863.2</ele>
				<time>2013-08-14T06:43:33Z</time>
				<hdop>1.0</hdop>
			</trkpt>
			<trkpt lat="46.88364494" lon="6.72064907">
				<ele>863.2</ele>
				<time>2013-08-14T06:43:34Z</time>
				<hdop>1.0</hdop>
			</trkpt>
			<trkpt lat="46.88366165" lon="6.72064245">
				<ele>863.1</ele>
				<time>2013-08-14T06:43:35Z</time>
				<hdop>1.0</hdop>
			</trkpt>
			<trkpt lat="46.8836714" lon="6.7206352">
				<ele>862.5</ele>
				<time>2013-08-14T06:43:36Z</time>
				<hdop>1.0</hdop>
			</trkpt>
			<trkpt lat="46.88368229" lon="6.72062863">
				<ele>860.8</ele>
				<time>2013-08-14T06:43:37Z</time>
				<hdop>1.0</hdop>
			</trkpt>
			<trkpt lat="46.8836937" lon="6.72060202">
				<ele>860.1</ele>
				<time>2013-08-14T06:43:38Z</time>
				<hdop>1.0</hdop>
			</trkpt>
			<trkpt lat="46.88369406" lon="6.72059869">
				<ele>861.1</ele>
				<time>2013-08-14T06:43:39Z</time>
				<hdop>1.0</hdop>
			</trkpt>
			<trkpt lat="46.88369673" lon="6.72059732">
				<ele>862.1</ele>
				<time>2013-08-14T06:43:40Z</time>
				<hdop>1.0</hdop>
			</trkpt>
			<trkpt lat="46.88370735" lon="6.72059773">
				<ele>861.9</ele>
				<time>2013-08-14T06:43:41Z</time>
				<hdop>1.0</hdop>
			</trkpt>
			<trkpt lat="46.88371895" lon="6.72058156">
				<ele>861.2</ele>
				<time>2013-08-14T06:43:43Z</time>
				<hdop>1.0</hdop>
			</trkpt>
			<trkpt lat="46.88372747" lon="6.72056886">
				<ele>860.5</ele>
				<time>2013-08-14T06:43:44Z</time>
				<hdop>1.0</hdop>
			</trkpt>
			<trkpt lat="46.88374512" lon="6.72052616">
				<ele>860.7</ele>
				<time>2013-08-14T06:43:45Z</time>
				<hdop>1.5</hdop>
			</trkpt>
			<trkpt lat="46.88375426" lon="6.72051683">
				<ele>860.8</ele>
				<time>2013-08-14T06:43:46Z</time>
				<hdop>1.5</hdop>
			</trkpt>
			<trkpt lat="46.88377708" lon="6.72049564">
				<ele>860.7</ele>
				<time>2013-08-14T06:43:47Z</time>
				<hdop>1.5</hdop>
			</trkpt>
			<trkpt lat="46.88379384" lon="6.7204713">
				<ele>860.1</ele>
				<time>2013-08-14T06:43:49Z</time>
				<hdop>1.5</hdop>
			</trkpt>
			<trkpt lat="46.88380512" lon="6.72046272">
				<ele>860.2</ele>
				<time>2013-08-14T06:43:50Z</time>
				<hdop>1.5</hdop>
			</trkpt>
			<trkpt lat="46.88381505" lon="6.72045886">
				<ele>860.3</ele>
				<time>2013-08-14T06:43:51Z</time>
				<hdop>2.0</hdop>
			</trkpt>
			<trkpt lat="46.88382616" lon="6.72044187">
				<ele>860.1</ele>
				<time>2013-08-14T06:43:52Z</time>
				<hdop>1.5</hdop>
			</trkpt>
			<trkpt lat="46.88383653" lon="6.72042429">
				<ele>860.0</ele>
				<time>2013-08-14T06:43:53Z</time>
				<hdop>1.5</hdop>
			</trkpt>
			<trkpt lat="46.88385977" lon="6.72039369">
				<ele>859.6</ele>
				<time>2013-08-14T06:43:54Z</time>
				<hdop>1.5</hdop>
			</trkpt>
			<trkpt lat="46.88389445" lon="6.72041095">
				<ele>860.7</ele>
				<time>2013-08-14T06:43:56Z</time>
				<hdop>1.5</hdop>
			</trkpt>
			<trkpt lat="46.88392724" lon="6.72044982">
				<ele>859.8</ele>
				<time>2013-08-14T06:43:57Z</time>
				<hdop>1.5</hdop>
			</trkpt>
			<trkpt lat="46.88392058" lon="6.72044171">
				<ele>860.6</ele>
				<time>2013-08-14T06:43:58Z</time>
				<hdop>1.5</hdop>
			</trkpt>
			<trkpt lat="46.88392774" lon="6.720426">
				<ele>861.8</ele>
				<time>2013-08-14T06:44:00Z</time>
				<hdop>1.5</hdop>
			</trkpt>
			<trkpt lat="46.88395034" lon="6.72042319">
				<ele>863.0</ele>
				<time>2013-08-14T06:44:01Z</time>
				<hdop>1.0</hdop>
			</trkpt>
			<trkpt lat="46.88395979" lon="6.72041534">
				<ele>862.9</ele>
				<time>2013-08-14T06:44:02Z</time>
				<hdop>1.0</hdop>
			</trkpt>
			<trkpt lat="46.88397592" lon="6.72039536">
				<ele>863.4</ele>
				<time>2013-08-14T06:44:04Z</time>
				<hdop>1.5</hdop>
			</trkpt>
			<trkpt lat="46.88398047" lon="6.72038178">
				<ele>863.0</ele>
				<time>2013-08-14T06:44:05Z</time>
				<hdop>1.5</hdop>
			</trkpt>
			<trkpt lat="46.88403137" lon="6.72033292">
				<ele>866.0</ele>
				<time>2013-08-14T06:44:07Z</time>
				<hdop>1.5</hdop>
			</trkpt>
			<trkpt lat="46.88406445" lon="6.72030043">
				<ele>868.6</ele>
				<time>2013-08-14T06:44:09Z</time>
				<hdop>1.5</hdop>
			</trkpt>
			<trkpt lat="46.88406445" lon="6.72030043">
				<ele>868.6</ele>
				<time>2013-08-14T06:44:10Z</time>
				<hdop>1.5</hdop>
			</trkpt>
			<trkpt lat="46.88404131" lon="6.72028818">
				<ele>867.7</ele>
				<time>2013-08-14T06:44:11Z</time>
				<hdop>1.0</hdop>
			</trkpt>
			<trkpt lat="46.88405921" lon="6.72029475">
				<ele>868.9</ele>
				<time>2013-08-14T06:44:13Z</time>
				<hdop>1.0</hdop>
			</trkpt>
			<trkpt lat="46.88409836" lon="6.7203204">
				<ele>871.5</ele>
				<time>2013-08-14T06:44:14Z</time>
				<hdop>1.0</hdop>
			</trkpt>
			<trkpt lat="46.88410896" lon="6.72032161">
				<ele>872.6</ele>
				<time>2013-08-14T06:44:15Z</time>
				<hdop>1.0</hdop>
			</trkpt>
			<trkpt lat="46.88410896" lon="6.72032161">
				<ele>872.6</ele>
				<time>2013-08-14T06:44:16Z</time>
				<hdop>1.5</hdop>
			</trkpt>
			<trkpt lat="46.88411128" lon="6.72032534">
				<ele>873.2</ele>
				<time>2013-08-14T06:44:18Z</time>
				<hdop>1.5</hdop>
			</trkpt>
			<trkpt lat="46.88411214" lon="6.72032861">
				<ele>873.2</ele>
				<time>2013-08-14T06:44:19Z</time>
				<hdop>1.5</hdop>
			</trkpt>
			<trkpt lat="46.88411214" lon="6.72032861">
				<ele>873.2</ele>
				<time>2013-08-14T06:44:20Z</time>
				<hdop>1.5</hdop>
			</trkpt>
			<trkpt lat="46.88411761" lon="6.72033272">
				<ele>874.1</ele>
				<time>2013-08-14T06:44:21Z</time>
				<hdop>1.5</hdop>
			</trkpt>
			<trkpt lat="46.88414924" lon="6.72031761">
				<ele>876.1</ele>
				<time>2013-08-14T06:44:22Z</time>
				<hdop>1.5</hdop>
			</trkpt>
			<trkpt lat="46.88417623" lon="6.72032202">
				<ele>877.9</ele>
				<time>2013-08-14T06:44:23Z</time>
				<hdop>1.5</hdop>
			</trkpt>
			<trkpt lat="46.8842029" lon="6.7202747">
				<ele>871.1</ele>
				<time>2013-08-14T06:44:24Z</time>
				<hdop>1.5</hdop>
			</trkpt>
			<trkpt lat="46.88426976" lon="6.72023488">
				<ele>871.8</ele>
				<time>2013-08-14T06:44:26Z</time>
				<hdop>1.5</hdop>
			</trkpt>
			<trkpt lat="46.88426378" lon="6.72021493">
				<ele>871.5</ele>
				<time>2013-08-14T06:44:27Z</time>
				<hdop>1.0</hdop>
			</trkpt>
			<trkpt lat="46.8842818" lon="6.72019672">
				<ele>872.9</ele>
				<time>2013-08-14T06:44:29Z</time>
				<hdop>1.0</hdop>
			</trkpt>
			<trkpt lat="46.88429493" lon="6.72020833">
				<ele>873.2</ele>
				<time>2013-08-14T06:44:30Z</time>
				<hdop>1.0</hdop>
			</trkpt>
			<trkpt lat="46.88430395" lon="6.7202128">
				<ele>872.4</ele>
				<time>2013-08-14T06:44:31Z</time>
				<hdop>1.0</hdop>
			</trkpt>
			<trkpt lat="46.88430908" lon="6.72022015">
				<ele>872.6</ele>
				<time>2013-08-14T06:44:32Z</time>
				<hdop>1.5</hdop>
			</trkpt>
			<trkpt lat="46.88430788" lon="6.72021165">
				<ele>872.5</ele>
				<time>2013-08-14T06:44:34Z</time>
				<hdop>1.5</hdop>
			</trkpt>
			<trkpt lat="46.8843114" lon="6.72020932">
				<ele>873.4</ele>
				<time>2013-08-14T06:44:35Z</time>
				<hdop>1.5</hdop>
			</trkpt>
			<trkpt lat="46.88433977" lon="6.72021286">
				<ele>874.4</ele>
				<time>2013-08-14T06:44:36Z</time>
				<hdop>1.5</hdop>
			</trkpt>
			<trkpt lat="46.88436575" lon="6.7202038">
				<ele>873.8</ele>
				<time>2013-08-14T06:44:37Z</time>
				<hdop>1.5</hdop>
			</trkpt>
			<trkpt lat="46.88437832" lon="6.72019989">
				<ele>873.7</ele>
				<time>2013-08-14T06:44:38Z</time>
				<hdop>2.0</hdop>
			</trkpt>
			<trkpt lat="46.8843879" lon="6.72019789">
				<ele>873.5</ele>
				<time>2013-08-14T06:44:39Z</time>
				<hdop>1.5</hdop>
			</trkpt>
			<trkpt lat="46.88439604" lon="6.72018578">
				<ele>873.9</ele>
				<time>2013-08-14T06:44:40Z</time>
				<hdop>1.5</hdop>
			</trkpt>
			<trkpt lat="46.8844052" lon="6.72018098">
				<ele>875.6</ele>
				<time>2013-08-14T06:44:41Z</time>
				<hdop>1.5</hdop>
			</trkpt>
			<trkpt lat="46.88441564" lon="6.72017471">
				<ele>875.6</ele>
				<time>2013-08-14T06:44:42Z</time>
				<hdop>1.5</hdop>
			</trkpt>
			<trkpt lat="46.88442268" lon="6.72015047">
				<ele>875.7</ele>
				<time>2013-08-14T06:44:43Z</time>
				<hdop>1.0</hdop>
			</trkpt>
			<trkpt lat="46.88442164" lon="6.72013556">
				<ele>876.0</ele>
				<time>2013-08-14T06:44:44Z</time>
				<hdop>1.0</hdop>
			</trkpt>
			<trkpt lat="46.88445107" lon="6.72011725">
				<ele>876.7</ele>
				<time>2013-08-14T06:44:45Z</time>
				<hdop>1.0</hdop>
			</trkpt>
			<trkpt lat="46.88445783" lon="6.72009072">
				<ele>878.4</ele>
				<time>2013-08-14T06:44:46Z</time>
				<hdop>1.5</hdop>
			</trkpt>
			<trkpt lat="46.88446216" lon="6.7200961">
				<ele>878.7</ele>
				<time>2013-08-14T06:44:47Z</time>
				<hdop>1.5</hdop>
			</trkpt>
			<trkpt lat="46.88447173" lon="6.7200869">
				<ele>878.9</ele>
				<time>2013-08-14T06:44:48Z</time>
				<hdop>1.5</hdop>
			</trkpt>
			<trkpt lat="46.88447782" lon="6.7200742">
				<ele>879.2</ele>
				<time>2013-08-14T06:44:49Z</time>
				<hdop>1.5</hdop>
			</trkpt>
			<trkpt lat="46.88447235" lon="6.72005712">
				<ele>879.6</ele>
				<time>2013-08-14T06:44:50Z</time>
				<hdop>1.5</hdop>
			</trkpt>
			<trkpt lat="46.88447287" lon="6.72002026">
				<ele>880.0</ele>
				<time>2013-08-14T06:44:51Z</time>
				<hdop>1.5</hdop>
			</trkpt>
			<trkpt lat="46.88447833" lon="6.72002098">
				<ele>878.6</ele>
				<time>2013-08-14T06:44:52Z</time>
				<hdop>1.5</hdop>
			</trkpt>
			<trkpt lat="46.88447051" lon="6.71997522">
				<ele>878.4</ele>
				<time>2013-08-14T06:44:54Z</time>
				<hdop>1.5</hdop>
			</trkpt>
			<trkpt lat="46.88447783" lon="6.71997217">
				<ele>878.4</ele>
				<time>2013-08-14T06:44:55Z</time>
				<hdop>1.5</hdop>
			</trkpt>
			<trkpt lat="46.88449523" lon="6.71995246">
				<ele>878.5</ele>
				<time>2013-08-14T06:44:57Z</time>
				<hdop>1.5</hdop>
			</trkpt>
			<trkpt lat="46.88445972" lon="6.71996389">
				<ele>877.8</ele>
				<time>2013-08-14T06:44:59Z</time>
				<hdop>1.5</hdop>
			</trkpt>
			<trkpt lat="46.88449186" lon="6.71995738">
				<ele>877.7</ele>
				<time>2013-08-14T06:45:00Z</time>
				<hdop>1.5</hdop>
			</trkpt>
			<trkpt lat="46.88449465" lon="6.71993388">
				<ele>877.5</ele>
				<time>2013-08-14T06:45:01Z</time>
				<hdop>1.5</hdop>
			</trkpt>
			<trkpt lat="46.88449337" lon="6.71992775">
				<ele>876.8</ele>
				<time>2013-08-14T06:45:02Z</time>
				<hdop>1.5</hdop>
			</trkpt>
			<trkpt lat="46.88447928" lon="6.71988723">
				<ele>876.7</ele>
				<time>2013-08-14T06:45:03Z</time>
				<hdop>1.5</hdop>
			</trkpt>
			<trkpt lat="46.88448316" lon="6.71987828">
				<ele>876.7</ele>
				<time>2013-08-14T06:45:04Z</time>
				<hdop>2.0</hdop>
			</trkpt>
			<trkpt lat="46.88450167" lon="6.71986083">
				<ele>876.8</ele>
				<time>2013-08-14T06:45:05Z</time>
				<hdop>1.5</hdop>
			</trkpt>
			<trkpt lat="46.88458611" lon="6.71983608">
				<ele>876.5</ele>
				<time>2013-08-14T06:45:06Z</time>
				<hdop>2.0</hdop>
			</trkpt>
			<trkpt lat="46.8845793" lon="6.71975369">
				<ele>876.6</ele>
				<time>2013-08-14T06:45:08Z</time>
				<hdop>1.5</hdop>
			</trkpt>
			<trkpt lat="46.88460345" lon="6.71972522">
				<ele>876.0</ele>
				<time>2013-08-14T06:45:10Z</time>
				<hdop>1.5</hdop>
			</trkpt>
			<trkpt lat="46.88459154" lon="6.71973814">
				<ele>876.5</ele>
				<time>2013-08-14T06:45:11Z</time>
				<hdop>1.5</hdop>
			</trkpt>
			<trkpt lat="46.88459727" lon="6.71973474">
				<ele>877.6</ele>
				<time>2013-08-14T06:45:12Z</time>
				<hdop>1.5</hdop>
			</trkpt>
			<trkpt lat="46.88460394" lon="6.71973066">
				<ele>877.6</ele>
				<time>2013-08-14T06:45:13Z</time>
				<hdop>2.0</hdop>
			</trkpt>
			<trkpt lat="46.88462127" lon="6.71973324">
				<ele>878.5</ele>
				<time>2013-08-14T06:45:14Z</time>
				<hdop>1.5</hdop>
			</trkpt>
			<trkpt lat="46.88463172" lon="6.7197281">
				<ele>879.9</ele>
				<time>2013-08-14T06:45:15Z</time>
				<hdop>1.5</hdop>
			</trkpt>
			<trkpt lat="46.8846252" lon="6.71972761">
				<ele>879.5</ele>
				<time>2013-08-14T06:45:16Z</time>
				<hdop>1.5</hdop>
			</trkpt>
			<trkpt lat="46.88462613" lon="6.71973216">
				<ele>879.6</ele>
				<time>2013-08-14T06:45:17Z</time>
				<hdop>1.5</hdop>
			</trkpt>
			<trkpt lat="46.88464111" lon="6.71969731">
				<ele>880.6</ele>
				<time>2013-08-14T06:45:18Z</time>
				<hdop>1.5</hdop>
			</trkpt>
			<trkpt lat="46.88467074" lon="6.71966485">
				<ele>880.9</ele>
				<time>2013-08-14T06:45:20Z</time>
				<hdop>1.5</hdop>
			</trkpt>
			<trkpt lat="46.8847072" lon="6.71966839">
				<ele>880.5</ele>
				<time>2013-08-14T06:45:21Z</time>
				<hdop>1.5</hdop>
			</trkpt>
			<trkpt lat="46.88471774" lon="6.71965953">
				<ele>881.0</ele>
				<time>2013-08-14T06:45:23Z</time>
				<hdop>1.5</hdop>
			</trkpt>
			<trkpt lat="46.88473163" lon="6.71962562">
				<ele>880.8</ele>
				<time>2013-08-14T06:45:24Z</time>
				<hdop>1.5</hdop>
			</trkpt>
			<trkpt lat="46.88473826" lon="6.71957428">
				<ele>881.5</ele>
				<time>2013-08-14T06:45:25Z</time>
				<hdop>1.5</hdop>
			</trkpt>
			<trkpt lat="46.88474903" lon="6.71956193">
				<ele>881.6</ele>
				<time>2013-08-14T06:45:26Z</time>
				<hdop>1.5</hdop>
			</trkpt>
			<trkpt lat="46.88474515" lon="6.7195686">
				<ele>881.8</ele>
				<time>2013-08-14T06:45:28Z</time>
				<hdop>1.5</hdop>
			</trkpt>
			<trkpt lat="46.88475938" lon="6.71954273">
				<ele>882.3</ele>
				<time>2013-08-14T06:45:29Z</time>
				<hdop>1.0</hdop>
			</trkpt>
			<trkpt lat="46.88472115" lon="6.71951954">
				<ele>881.7</ele>
				<time>2013-08-14T06:45:30Z</time>
				<hdop>1.0</hdop>
			</trkpt>
			<trkpt lat="46.88472508" lon="6.71951223">
				<ele>881.6</ele>
				<time>2013-08-14T06:45:31Z</time>
				<hdop>1.5</hdop>
			</trkpt>
			<trkpt lat="46.88471341" lon="6.71950127">
				<ele>881.6</ele>
				<time>2013-08-14T06:45:32Z</time>
				<hdop>1.0</hdop>
			</trkpt>
			<trkpt lat="46.88472894" lon="6.71946741">
				<ele>880.9</ele>
				<time>2013-08-14T06:45:33Z</time>
				<hdop>1.0</hdop>
			</trkpt>
			<trkpt lat="46.88475959" lon="6.71944549">
				<ele>880.9</ele>
				<time>2013-08-14T06:45:34Z</time>
				<hdop>1.5</hdop>
			</trkpt>
			<trkpt lat="46.88476945" lon="6.71944352">
				<ele>883.4</ele>
				<time>2013-08-14T06:45:35Z</time>
				<hdop>1.5</hdop>
			</trkpt>
			<trkpt lat="46.88477874" lon="6.71943218">
				<ele>883.6</ele>
				<time>2013-08-14T06:45:36Z</time>
				<hdop>1.5</hdop>
			</trkpt>
			<trkpt lat="46.88477434" lon="6.71940954">
				<ele>884.2</ele>
				<time>2013-08-14T06:45:37Z</time>
				<hdop>1.5</hdop>
			</trkpt>
			<trkpt lat="46.88477509" lon="6.71940007">
				<ele>885.7</ele>
				<time>2013-08-14T06:45:38Z</time>
				<hdop>1.5</hdop>
			</trkpt>
			<trkpt lat="46.8847823" lon="6.71938715">
				<ele>885.8</ele>
				<time>2013-08-14T06:45:39Z</time>
				<hdop>2.0</hdop>
			</trkpt>
			<trkpt lat="46.88477225" lon="6.71938774">
				<ele>888.3</ele>
				<time>2013-08-14T06:45:40Z</time>
				<hdop>2.0</hdop>
			</trkpt>
			<trkpt lat="46.88477919" lon="6.71938051">
				<ele>888.3</ele>
				<time>2013-08-14T06:45:41Z</time>
				<hdop>2.0</hdop>
			</trkpt>
			<trkpt lat="46.88478012" lon="6.71937837">
				<ele>888.9</ele>
				<time>2013-08-14T06:45:42Z</time>
				<hdop>2.0</hdop>
			</trkpt>
			<trkpt lat="46.88480675" lon="6.71937459">
				<ele>890.6</ele>
				<time>2013-08-14T06:45:43Z</time>
				<hdop>2.0</hdop>
			</trkpt>
			<trkpt lat="46.88483026" lon="6.7193987">
				<ele>891.0</ele>
				<time>2013-08-14T06:45:44Z</time>
				<hdop>2.0</hdop>
			</trkpt>
			<trkpt lat="46.88483441" lon="6.71938235">
				<ele>890.9</ele>
				<time>2013-08-14T06:45:45Z</time>
				<hdop>1.5</hdop>
			</trkpt>
			<trkpt lat="46.88488536" lon="6.7193514">
				<ele>892.0</ele>
				<time>2013-08-14T06:45:46Z</time>
				<hdop>1.5</hdop>
			</trkpt>
			<trkpt lat="46.88489773" lon="6.71934995">
				<ele>892.0</ele>
				<time>2013-08-14T06:45:47Z</time>
				<hdop>1.5</hdop>
			</trkpt>
			<trkpt lat="46.88492357" lon="6.71932584">
				<ele>892.7</ele>
				<time>2013-08-14T06:45:48Z</time>
				<hdop>1.5</hdop>
			</trkpt>
			<trkpt lat="46.8849313" lon="6.71927498">
				<ele>894.2</ele>
				<time>2013-08-14T06:45:50Z</time>
				<hdop>1.5</hdop>
			</trkpt>
			<trkpt lat="46.88494169" lon="6.71926315">
				<ele>894.0</ele>
				<time>2013-08-14T06:45:51Z</time>
				<hdop>2.0</hdop>
			</trkpt>
			<trkpt lat="46.88494794" lon="6.71924982">
				<ele>893.3</ele>
				<time>2013-08-14T06:45:52Z</time>
				<hdop>1.5</hdop>
			</trkpt>
			<trkpt lat="46.88494803" lon="6.71923228">
				<ele>892.6</ele>
				<time>2013-08-14T06:45:53Z</time>
				<hdop>2.0</hdop>
			</trkpt>
			<trkpt lat="46.88495664" lon="6.71922142">
				<ele>892.5</ele>
				<time>2013-08-14T06:45:54Z</time>
				<hdop>2.0</hdop>
			</trkpt>
			<trkpt lat="46.88498619" lon="6.71919604">
				<ele>893.6</ele>
				<time>2013-08-14T06:45:56Z</time>
				<hdop>2.0</hdop>
			</trkpt>
			<trkpt lat="46.88498493" lon="6.71917146">
				<ele>897.5</ele>
				<time>2013-08-14T06:45:57Z</time>
				<hdop>1.5</hdop>
			</trkpt>
			<trkpt lat="46.88499802" lon="6.71913304">
				<ele>898.0</ele>
				<time>2013-08-14T06:45:58Z</time>
				<hdop>1.5</hdop>
			</trkpt>
			<trkpt lat="46.88500262" lon="6.71912329">
				<ele>899.5</ele>
				<time>2013-08-14T06:46:00Z</time>
				<hdop>1.5</hdop>
			</trkpt>
			<trkpt lat="46.8850132" lon="6.71913418">
				<ele>899.9</ele>
				<time>2013-08-14T06:46:01Z</time>
				<hdop>1.5</hdop>
			</trkpt>
			<trkpt lat="46.88499424" lon="6.71913757">
				<ele>899.2</ele>
				<time>2013-08-14T06:46:02Z</time>
				<hdop>2.0</hdop>
			</trkpt>
			<trkpt lat="46.88498869" lon="6.71914628">
				<ele>898.5</ele>
				<time>2013-08-14T06:46:03Z</time>
				<hdop>2.0</hdop>
			</trkpt>
			<trkpt lat="46.88498618" lon="6.71913759">
				<ele>898.3</ele>
				<time>2013-08-14T06:46:05Z</time>
				<hdop>2.0</hdop>
			</trkpt>
			<trkpt lat="46.88500763" lon="6.71913752">
				<ele>897.9</ele>
				<time>2013-08-14T06:46:06Z</time>
				<hdop>1.5</hdop>
			</trkpt>
			<trkpt lat="46.88502641" lon="6.71911357">
				<ele>896.8</ele>
				<time>2013-08-14T06:46:07Z</time>
				<hdop>1.5</hdop>
			</trkpt>
			<trkpt lat="46.88504752" lon="6.71911199">
				<ele>896.1</ele>
				<time>2013-08-14T06:46:09Z</time>
				<hdop>1.5</hdop>
			</trkpt>
			<trkpt lat="46.8850631" lon="6.7191092">
				<ele>896.1</ele>
				<time>2013-08-14T06:46:10Z</time>
				<hdop>1.5</hdop>
			</trkpt>
			<trkpt lat="46.88508726" lon="6.7191084">
				<ele>896.1</ele>
				<time>2013-08-14T06:46:12Z</time>
				<hdop>1.5</hdop>
			</trkpt>
			<trkpt lat="46.88509096" lon="6.71905124">
				<ele>895.8</ele>
				<time>2013-08-14T06:46:14Z</time>
				<hdop>1.5</hdop>
			</trkpt>
			<trkpt lat="46.88509362" lon="6.71903105">
				<ele>895.6</ele>
				<time>2013-08-14T06:46:15Z</time>
				<hdop>1.5</hdop>
			</trkpt>
			<trkpt lat="46.88509531" lon="6.71899655">
				<ele>895.9</ele>
				<time>2013-08-14T06:46:16Z</time>
				<hdop>1.5</hdop>
			</trkpt>
			<trkpt lat="46.88512235" lon="6.71899843">
				<ele>894.1</ele>
				<time>2013-08-14T06:46:18Z</time>
				<hdop>1.0</hdop>
			</trkpt>
			<trkpt lat="46.88514559" lon="6.71899216">
				<ele>893.7</ele>
				<time>2013-08-14T06:46:20Z</time>
				<hdop>1.5</hdop>
			</trkpt>
			<trkpt lat="46.88515909" lon="6.71895681">
				<ele>894.1</ele>
				<time>2013-08-14T06:46:21Z</time>
				<hdop>1.5</hdop>
			</trkpt>
			<trkpt lat="46.88516763" lon="6.71893715">
				<ele>894.3</ele>
				<time>2013-08-14T06:46:22Z</time>
				<hdop>1.5</hdop>
			</trkpt>
			<trkpt lat="46.88516567" lon="6.71891482">
				<ele>895.1</ele>
				<time>2013-08-14T06:46:23Z</time>
				<hdop>1.5</hdop>
			</trkpt>
			<trkpt lat="46.88517864" lon="6.7188863">
				<ele>894.6</ele>
				<time>2013-08-14T06:46:24Z</time>
				<hdop>1.5</hdop>
			</trkpt>
			<trkpt lat="46.88520754" lon="6.71887203">
				<ele>894.1</ele>
				<time>2013-08-14T06:46:26Z</time>
				<hdop>1.5</hdop>
			</trkpt>
			<trkpt lat="46.88523961" lon="6.71886752">
				<ele>894.7</ele>
				<time>2013-08-14T06:46:27Z</time>
				<hdop>1.5</hdop>
			</trkpt>
			<trkpt lat="46.88525115" lon="6.71886143">
				<ele>894.7</ele>
				<time>2013-08-14T06:46:28Z</time>
				<hdop>1.5</hdop>
			</trkpt>
			<trkpt lat="46.88525425" lon="6.7188481">
				<ele>893.0</ele>
				<time>2013-08-14T06:46:29Z</time>
				<hdop>2.0</hdop>
			</trkpt>
			<trkpt lat="46.8852556" lon="6.71883261">
				<ele>892.3</ele>
				<time>2013-08-14T06:46:30Z</time>
				<hdop>2.0</hdop>
			</trkpt>
			<trkpt lat="46.88526654" lon="6.71880859">
				<ele>893.8</ele>
				<time>2013-08-14T06:46:32Z</time>
				<hdop>1.5</hdop>
			</trkpt>
			<trkpt lat="46.88527399" lon="6.71880294">
				<ele>894.1</ele>
				<time>2013-08-14T06:46:33Z</time>
				<hdop>1.5</hdop>
			</trkpt>
			<trkpt lat="46.88529225" lon="6.71878981">
				<ele>895.5</ele>
				<time>2013-08-14T06:46:34Z</time>
				<hdop>1.5</hdop>
			</trkpt>
			<trkpt lat="46.88530432" lon="6.71878385">
				<ele>895.3</ele>
				<time>2013-08-14T06:46:35Z</time>
				<hdop>1.5</hdop>
			</trkpt>
			<trkpt lat="46.88532389" lon="6.71876197">
				<ele>895.4</ele>
				<time>2013-08-14T06:46:36Z</time>
				<hdop>1.0</hdop>
			</trkpt>
			<trkpt lat="46.88533965" lon="6.71875117">
				<ele>894.8</ele>
				<time>2013-08-14T06:46:37Z</time>
				<hdop>1.0</hdop>
			</trkpt>
			<trkpt lat="46.88534253" lon="6.71872786">
				<ele>892.7</ele>
				<time>2013-08-14T06:46:38Z</time>
				<hdop>1.0</hdop>
			</trkpt>
			<trkpt lat="46.88532857" lon="6.71871631">
				<ele>892.8</ele>
				<time>2013-08-14T06:46:39Z</time>
				<hdop>1.0</hdop>
			</trkpt>
			<trkpt lat="46.8853315" lon="6.71871877">
				<ele>892.7</ele>
				<time>2013-08-14T06:46:40Z</time>
				<hdop>1.0</hdop>
			</trkpt>
			<trkpt lat="46.88533197" lon="6.71869817">
				<ele>892.7</ele>
				<time>2013-08-14T06:46:41Z</time>
				<hdop>1.0</hdop>
			</trkpt>
			<trkpt lat="46.88534149" lon="6.71868997">
				<ele>894.8</ele>
				<time>2013-08-14T06:46:42Z</time>
				<hdop>1.0</hdop>
			</trkpt>
			<trkpt lat="46.88534549" lon="6.71867421">
				<ele>895.5</ele>
				<time>2013-08-14T06:46:43Z</time>
				<hdop>1.0</hdop>
			</trkpt>
			<trkpt lat="46.88536008" lon="6.71867221">
				<ele>895.4</ele>
				<time>2013-08-14T06:46:44Z</time>
				<hdop>1.0</hdop>
			</trkpt>
			<trkpt lat="46.8853776" lon="6.71866576">
				<ele>895.5</ele>
				<time>2013-08-14T06:46:45Z</time>
				<hdop>1.0</hdop>
			</trkpt>
			<trkpt lat="46.8853913" lon="6.71866502">
				<ele>895.9</ele>
				<time>2013-08-14T06:46:46Z</time>
				<hdop>1.0</hdop>
			</trkpt>
			<trkpt lat="46.88540329" lon="6.71866256">
				<ele>896.5</ele>
				<time>2013-08-14T06:46:47Z</time>
				<hdop>1.0</hdop>
			</trkpt>
			<trkpt lat="46.88540591" lon="6.71865204">
				<ele>896.5</ele>
				<time>2013-08-14T06:46:48Z</time>
				<hdop>1.0</hdop>
			</trkpt>
			<trkpt lat="46.88541991" lon="6.71864934">
				<ele>897.2</ele>
				<time>2013-08-14T06:46:49Z</time>
				<hdop>1.0</hdop>
			</trkpt>
			<trkpt lat="46.88543132" lon="6.71865068">
				<ele>897.6</ele>
				<time>2013-08-14T06:46:50Z</time>
				<hdop>1.0</hdop>
			</trkpt>
			<trkpt lat="46.8854405" lon="6.71864493">
				<ele>898.9</ele>
				<time>2013-08-14T06:46:51Z</time>
				<hdop>1.0</hdop>
			</trkpt>
			<trkpt lat="46.88545426" lon="6.71864206">
				<ele>899.1</ele>
				<time>2013-08-14T06:46:52Z</time>
				<hdop>1.0</hdop>
			</trkpt>
			<trkpt lat="46.88546901" lon="6.71864056">
				<ele>899.4</ele>
				<time>2013-08-14T06:46:53Z</time>
				<hdop>1.0</hdop>
			</trkpt>
			<trkpt lat="46.8854827" lon="6.71861782">
				<ele>899.6</ele>
				<time>2013-08-14T06:46:54Z</time>
				<hdop>1.0</hdop>
			</trkpt>
			<trkpt lat="46.88546811" lon="6.71858293">
				<ele>899.9</ele>
				<time>2013-08-14T06:46:56Z</time>
				<hdop>1.0</hdop>
			</trkpt>
			<trkpt lat="46.88548664" lon="6.71856465">
				<ele>899.1</ele>
				<time>2013-08-14T06:46:57Z</time>
				<hdop>1.0</hdop>
			</trkpt>
			<trkpt lat="46.88549843" lon="6.71855507">
				<ele>899.4</ele>
				<time>2013-08-14T06:46:58Z</time>
				<hdop>1.0</hdop>
			</trkpt>
			<trkpt lat="46.88549717" lon="6.71852135">
				<ele>899.0</ele>
				<time>2013-08-14T06:46:59Z</time>
				<hdop>1.0</hdop>
			</trkpt>
			<trkpt lat="46.88550253" lon="6.71850829">
				<ele>899.3</ele>
				<time>2013-08-14T06:47:00Z</time>
				<hdop>1.0</hdop>
			</trkpt>
			<trkpt lat="46.88550394" lon="6.71849224">
				<ele>899.2</ele>
				<time>2013-08-14T06:47:01Z</time>
				<hdop>1.0</hdop>
			</trkpt>
			<trkpt lat="46.88550296" lon="6.71847768">
				<ele>899.7</ele>
				<time>2013-08-14T06:47:02Z</time>
				<hdop>1.0</hdop>
			</trkpt>
			<trkpt lat="46.8855084" lon="6.71845961">
				<ele>900.1</ele>
				<time>2013-08-14T06:47:03Z</time>
				<hdop>1.0</hdop>
			</trkpt>
			<trkpt lat="46.88552048" lon="6.71845157">
				<ele>900.1</ele>
				<time>2013-08-14T06:47:04Z</time>
				<hdop>1.0</hdop>
			</trkpt>
			<trkpt lat="46.88552717" lon="6.71843809">
				<ele>899.9</ele>
				<time>2013-08-14T06:47:05Z</time>
				<hdop>1.0</hdop>
			</trkpt>
			<trkpt lat="46.88553944" lon="6.71842909">
				<ele>900.5</ele>
				<time>2013-08-14T06:47:06Z</time>
				<hdop>1.0</hdop>
			</trkpt>
			<trkpt lat="46.8855521" lon="6.71842276">
				<ele>900.7</ele>
				<time>2013-08-14T06:47:07Z</time>
				<hdop>1.0</hdop>
			</trkpt>
			<trkpt lat="46.88556454" lon="6.71841216">
				<ele>901.1</ele>
				<time>2013-08-14T06:47:08Z</time>
				<hdop>1.0</hdop>
			</trkpt>
			<trkpt lat="46.88557513" lon="6.7183956">
				<ele>901.5</ele>
				<time>2013-08-14T06:47:09Z</time>
				<hdop>1.0</hdop>
			</trkpt>
			<trkpt lat="46.88556297" lon="6.71838375">
				<ele>901.3</ele>
				<time>2013-08-14T06:47:10Z</time>
				<hdop>1.0</hdop>
			</trkpt>
			<trkpt lat="46.88556801" lon="6.71836801">
				<ele>901.0</ele>
				<time>2013-08-14T06:47:11Z</time>
				<hdop>1.0</hdop>
			</trkpt>
			<trkpt lat="46.885596" lon="6.71836501">
				<ele>901.2</ele>
				<time>2013-08-14T06:47:12Z</time>
				<hdop>1.0</hdop>
			</trkpt>
			<trkpt lat="46.88561215" lon="6.71835517">
				<ele>901.2</ele>
				<time>2013-08-14T06:47:13Z</time>
				<hdop>1.0</hdop>
			</trkpt>
			<trkpt lat="46.88562319" lon="6.71833929">
				<ele>901.9</ele>
				<time>2013-08-14T06:47:14Z</time>
				<hdop>1.0</hdop>
			</trkpt>
			<trkpt lat="46.88563193" lon="6.71832444">
				<ele>902.6</ele>
				<time>2013-08-14T06:47:15Z</time>
				<hdop>1.0</hdop>
			</trkpt>
			<trkpt lat="46.88563582" lon="6.71830741">
				<ele>903.1</ele>
				<time>2013-08-14T06:47:16Z</time>
				<hdop>1.0</hdop>
			</trkpt>
			<trkpt lat="46.88560654" lon="6.71830748">
				<ele>905.4</ele>
				<time>2013-08-14T06:47:17Z</time>
				<hdop>1.0</hdop>
			</trkpt>
			<trkpt lat="46.8856037" lon="6.71829866">
				<ele>906.1</ele>
				<time>2013-08-14T06:47:18Z</time>
				<hdop>1.0</hdop>
			</trkpt>
			<trkpt lat="46.88561245" lon="6.71829211">
				<ele>906.7</ele>
				<time>2013-08-14T06:47:19Z</time>
				<hdop>1.0</hdop>
			</trkpt>
			<trkpt lat="46.88562417" lon="6.71827818">
				<ele>907.6</ele>
				<time>2013-08-14T06:47:20Z</time>
				<hdop>1.0</hdop>
			</trkpt>
			<trkpt lat="46.88563842" lon="6.71825994">
				<ele>908.4</ele>
				<time>2013-08-14T06:47:21Z</time>
				<hdop>1.0</hdop>
			</trkpt>
			<trkpt lat="46.88565103" lon="6.71825023">
				<ele>909.2</ele>
				<time>2013-08-14T06:47:22Z</time>
				<hdop>1.0</hdop>
			</trkpt>
			<trkpt lat="46.88564209" lon="6.71822209">
				<ele>906.6</ele>
				<time>2013-08-14T06:47:23Z</time>
				<hdop>1.0</hdop>
			</trkpt>
			<trkpt lat="46.88565745" lon="6.71818977">
				<ele>904.0</ele>
				<time>2013-08-14T06:47:25Z</time>
				<hdop>1.0</hdop>
			</trkpt>
			<trkpt lat="46.88567064" lon="6.71818758">
				<ele>903.5</ele>
				<time>2013-08-14T06:47:27Z</time>
				<hdop>1.0</hdop>
			</trkpt>
			<trkpt lat="46.88567686" lon="6.71817242">
				<ele>903.9</ele>
				<time>2013-08-14T06:47:28Z</time>
				<hdop>1.5</hdop>
			</trkpt>
			<trkpt lat="46.88568542" lon="6.7181624">
				<ele>903.7</ele>
				<time>2013-08-14T06:47:29Z</time>
				<hdop>1.5</hdop>
			</trkpt>
			<trkpt lat="46.88569324" lon="6.71816335">
				<ele>904.0</ele>
				<time>2013-08-14T06:47:30Z</time>
				<hdop>1.5</hdop>
			</trkpt>
			<trkpt lat="46.88569258" lon="6.71813519">
				<ele>904.4</ele>
				<time>2013-08-14T06:47:31Z</time>
				<hdop>1.5</hdop>
			</trkpt>
			<trkpt lat="46.88569781" lon="6.71813373">
				<ele>904.8</ele>
				<time>2013-08-14T06:47:32Z</time>
				<hdop>1.5</hdop>
			</trkpt>
			<trkpt lat="46.88569022" lon="6.718121">
				<ele>904.2</ele>
				<time>2013-08-14T06:47:33Z</time>
				<hdop>1.5</hdop>
			</trkpt>
			<trkpt lat="46.88570602" lon="6.7180847">
				<ele>904.7</ele>
				<time>2013-08-14T06:47:34Z</time>
				<hdop>1.5</hdop>
			</trkpt>
			<trkpt lat="46.88572087" lon="6.71807082">
				<ele>904.5</ele>
				<time>2013-08-14T06:47:36Z</time>
				<hdop>1.5</hdop>
			</trkpt>
			<trkpt lat="46.8857457" lon="6.7180589">
				<ele>904.5</ele>
				<time>2013-08-14T06:47:37Z</time>
				<hdop>1.5</hdop>
			</trkpt>
			<trkpt lat="46.88574632" lon="6.71802332">
				<ele>904.7</ele>
				<time>2013-08-14T06:47:38Z</time>
				<hdop>1.5</hdop>
			</trkpt>
			<trkpt lat="46.88573539" lon="6.7180064">
				<ele>905.0</ele>
				<time>2013-08-14T06:47:39Z</time>
				<hdop>1.0</hdop>
			</trkpt>
			<trkpt lat="46.88573213" lon="6.71798131">
				<ele>904.3</ele>
				<time>2013-08-14T06:47:40Z</time>
				<hdop>1.0</hdop>
			</trkpt>
			<trkpt lat="46.88571147" lon="6.71795167">
				<ele>902.9</ele>
				<time>2013-08-14T06:47:41Z</time>
				<hdop>1.0</hdop>
			</trkpt>
			<trkpt lat="46.88571966" lon="6.71793483">
				<ele>903.1</ele>
				<time>2013-08-14T06:47:42Z</time>
				<hdop>1.5</hdop>
			</trkpt>
			<trkpt lat="46.88571342" lon="6.71791958">
				<ele>900.6</ele>
				<time>2013-08-14T06:47:43Z</time>
				<hdop>1.5</hdop>
			</trkpt>
			<trkpt lat="46.88570882" lon="6.71790815">
				<ele>900.5</ele>
				<time>2013-08-14T06:47:44Z</time>
				<hdop>1.5</hdop>
			</trkpt>
			<trkpt lat="46.88571661" lon="6.71789342">
				<ele>900.7</ele>
				<time>2013-08-14T06:47:45Z</time>
				<hdop>1.5</hdop>
			</trkpt>
			<trkpt lat="46.88571621" lon="6.71787056">
				<ele>902.0</ele>
				<time>2013-08-14T06:47:47Z</time>
				<hdop>1.5</hdop>
			</trkpt>
			<trkpt lat="46.88572269" lon="6.71785934">
				<ele>903.6</ele>
				<time>2013-08-14T06:47:48Z</time>
				<hdop>1.5</hdop>
			</trkpt>
			<trkpt lat="46.88573505" lon="6.7178425">
				<ele>902.7</ele>
				<time>2013-08-14T06:47:49Z</time>
				<hdop>2.0</hdop>
			</trkpt>
			<trkpt lat="46.88572538" lon="6.71782593">
				<ele>903.2</ele>
				<time>2013-08-14T06:47:50Z</time>
				<hdop>1.5</hdop>
			</trkpt>
			<trkpt lat="46.88571969" lon="6.71780596">
				<ele>904.0</ele>
				<time>2013-08-14T06:47:51Z</time>
				<hdop>2.0</hdop>
			</trkpt>
			<trkpt lat="46.88571676" lon="6.71778857">
				<ele>902.9</ele>
				<time>2013-08-14T06:47:52Z</time>
				<hdop>2.0</hdop>
			</trkpt>
			<trkpt lat="46.88571473" lon="6.71777588">
				<ele>901.8</ele>
				<time>2013-08-14T06:47:53Z</time>
				<hdop>2.0</hdop>
			</trkpt>
			<trkpt lat="46.88570616" lon="6.71775126">
				<ele>902.0</ele>
				<time>2013-08-14T06:47:54Z</time>
				<hdop>2.0</hdop>
			</trkpt>
			<trkpt lat="46.88569883" lon="6.71774175">
				<ele>902.4</ele>
				<time>2013-08-14T06:47:55Z</time>
				<hdop>2.0</hdop>
			</trkpt>
			<trkpt lat="46.88569359" lon="6.71771582">
				<ele>903.1</ele>
				<time>2013-08-14T06:47:56Z</time>
				<hdop>2.0</hdop>
			</trkpt>
			<trkpt lat="46.8856732" lon="6.71769635">
				<ele>901.1</ele>
				<time>2013-08-14T06:47:58Z</time>
				<hdop>2.0</hdop>
			</trkpt>
			<trkpt lat="46.88567071" lon="6.71769001">
				<ele>899.1</ele>
				<time>2013-08-14T06:47:59Z</time>
				<hdop>2.0</hdop>
			</trkpt>
			<trkpt lat="46.88566973" lon="6.71769058">
				<ele>898.2</ele>
				<time>2013-08-14T06:48:00Z</time>
				<hdop>2.0</hdop>
			</trkpt>
			<trkpt lat="46.88567527" lon="6.71769021">
				<ele>897.5</ele>
				<time>2013-08-14T06:48:01Z</time>
				<hdop>2.0</hdop>
			</trkpt>
			<trkpt lat="46.88566274" lon="6.71767413">
				<ele>896.6</ele>
				<time>2013-08-14T06:48:02Z</time>
				<hdop>2.0</hdop>
			</trkpt>
			<trkpt lat="46.88565008" lon="6.71767163">
				<ele>896.1</ele>
				<time>2013-08-14T06:48:03Z</time>
				<hdop>2.0</hdop>
			</trkpt>
			<trkpt lat="46.88565244" lon="6.71765527">
				<ele>897.5</ele>
				<time>2013-08-14T06:48:04Z</time>
				<hdop>1.5</hdop>
			</trkpt>
			<trkpt lat="46.88565833" lon="6.7176342">
				<ele>899.0</ele>
				<time>2013-08-14T06:48:06Z</time>
				<hdop>1.5</hdop>
			</trkpt>
			<trkpt lat="46.88566214" lon="6.7176187">
				<ele>899.5</ele>
				<time>2013-08-14T06:48:07Z</time>
				<hdop>1.5</hdop>
			</trkpt>
			<trkpt lat="46.88566285" lon="6.7176094">
				<ele>898.9</ele>
				<time>2013-08-14T06:48:08Z</time>
				<hdop>2.0</hdop>
			</trkpt>
			<trkpt lat="46.88566162" lon="6.71759759">
				<ele>899.1</ele>
				<time>2013-08-14T06:48:09Z</time>
				<hdop>2.0</hdop>
			</trkpt>
			<trkpt lat="46.88563408" lon="6.71759287">
				<ele>898.8</ele>
				<time>2013-08-14T06:48:11Z</time>
				<hdop>3.0</hdop>
			</trkpt>
			<trkpt lat="46.88562012" lon="6.71759076">
				<ele>898.7</ele>
				<time>2013-08-14T06:48:12Z</time>
				<hdop>2.0</hdop>
			</trkpt>
			<trkpt lat="46.88562213" lon="6.71756638">
				<ele>899.4</ele>
				<time>2013-08-14T06:48:14Z</time>
				<hdop>3.0</hdop>
			</trkpt>
			<trkpt lat="46.88559846" lon="6.7175753">
				<ele>899.2</ele>
				<time>2013-08-14T06:48:15Z</time>
				<hdop>3.0</hdop>
			</trkpt>
			<trkpt lat="46.88558837" lon="6.7175778">
				<ele>899.9</ele>
				<time>2013-08-14T06:48:16Z</time>
				<hdop>2.0</hdop>
			</trkpt>
			<trkpt lat="46.88558172" lon="6.71757409">
				<ele>899.9</ele>
				<time>2013-08-14T06:48:17Z</time>
				<hdop>3.0</hdop>
			</trkpt>
			<trkpt lat="46.88557426" lon="6.71754268">
				<ele>900.3</ele>
				<time>2013-08-14T06:48:19Z</time>
				<hdop>3.0</hdop>
			</trkpt>
			<trkpt lat="46.88556462" lon="6.71754613">
				<ele>902.6</ele>
				<time>2013-08-14T06:48:20Z</time>
				<hdop>1.5</hdop>
			</trkpt>
			<trkpt lat="46.88555402" lon="6.71751997">
				<ele>903.9</ele>
				<time>2013-08-14T06:48:21Z</time>
				<hdop>1.5</hdop>
			</trkpt>
			<trkpt lat="46.88553315" lon="6.71750188">
				<ele>902.9</ele>
				<time>2013-08-14T06:48:22Z</time>
				<hdop>1.5</hdop>
			</trkpt>
			<trkpt lat="46.88552627" lon="6.71749567">
				<ele>902.7</ele>
				<time>2013-08-14T06:48:23Z</time>
				<hdop>1.5</hdop>
			</trkpt>
			<trkpt lat="46.88550117" lon="6.7174835">
				<ele>902.4</ele>
				<time>2013-08-14T06:48:24Z</time>
				<hdop>1.5</hdop>
			</trkpt>
			<trkpt lat="46.88548528" lon="6.71746199">
				<ele>902.1</ele>
				<time>2013-08-14T06:48:25Z</time>
				<hdop>1.5</hdop>
			</trkpt>
			<trkpt lat="46.88547216" lon="6.71744792">
				<ele>902.6</ele>
				<time>2013-08-14T06:48:27Z</time>
				<hdop>2.0</hdop>
			</trkpt>
			<trkpt lat="46.88546658" lon="6.71743484">
				<ele>903.8</ele>
				<time>2013-08-14T06:48:28Z</time>
				<hdop>2.0</hdop>
			</trkpt>
			<trkpt lat="46.88545422" lon="6.71741372">
				<ele>905.5</ele>
				<time>2013-08-14T06:48:29Z</time>
				<hdop>2.0</hdop>
			</trkpt>
			<trkpt lat="46.8854665" lon="6.7174347">
				<ele>907.8</ele>
				<time>2013-08-14T06:48:30Z</time>
				<hdop>1.5</hdop>
			</trkpt>
			<trkpt lat="46.88546841" lon="6.71743847">
				<ele>908.6</ele>
				<time>2013-08-14T06:48:31Z</time>
				<hdop>1.5</hdop>
			</trkpt>
			<trkpt lat="46.88546339" lon="6.71740604">
				<ele>908.9</ele>
				<time>2013-08-14T06:48:32Z</time>
				<hdop>1.0</hdop>
			</trkpt>
			<trkpt lat="46.88544672" lon="6.71739066">
				<ele>907.7</ele>
				<time>2013-08-14T06:48:33Z</time>
				<hdop>1.0</hdop>
			</trkpt>
			<trkpt lat="46.88543928" lon="6.71738512">
				<ele>907.2</ele>
				<time>2013-08-14T06:48:34Z</time>
				<hdop>1.5</hdop>
			</trkpt>
			<trkpt lat="46.88542328" lon="6.71736868">
				<ele>908.8</ele>
				<time>2013-08-14T06:48:35Z</time>
				<hdop>1.0</hdop>
			</trkpt>
			<trkpt lat="46.88541484" lon="6.71736673">
				<ele>910.0</ele>
				<time>2013-08-14T06:48:36Z</time>
				<hdop>1.0</hdop>
			</trkpt>
			<trkpt lat="46.88541103" lon="6.71737288">
				<ele>910.3</ele>
				<time>2013-08-14T06:48:37Z</time>
				<hdop>1.0</hdop>
			</trkpt>
			<trkpt lat="46.88540313" lon="6.71736906">
				<ele>910.7</ele>
				<time>2013-08-14T06:48:38Z</time>
				<hdop>1.5</hdop>
			</trkpt>
			<trkpt lat="46.88538972" lon="6.71735689">
				<ele>911.2</ele>
				<time>2013-08-14T06:48:39Z</time>
				<hdop>1.5</hdop>
			</trkpt>
			<trkpt lat="46.88538199" lon="6.7173536">
				<ele>911.3</ele>
				<time>2013-08-14T06:48:40Z</time>
				<hdop>1.5</hdop>
			</trkpt>
			<trkpt lat="46.88536697" lon="6.71734898">
				<ele>911.1</ele>
				<time>2013-08-14T06:48:41Z</time>
				<hdop>2.0</hdop>
			</trkpt>
			<trkpt lat="46.88536009" lon="6.71733604">
				<ele>912.2</ele>
				<time>2013-08-14T06:48:42Z</time>
				<hdop>2.0</hdop>
			</trkpt>
			<trkpt lat="46.88535195" lon="6.71733238">
				<ele>912.7</ele>
				<time>2013-08-14T06:48:43Z</time>
				<hdop>1.5</hdop>
			</trkpt>
			<trkpt lat="46.88533627" lon="6.71732239">
				<ele>912.8</ele>
				<time>2013-08-14T06:48:44Z</time>
				<hdop>1.5</hdop>
			</trkpt>
			<trkpt lat="46.88531958" lon="6.71732733">
				<ele>912.6</ele>
				<time>2013-08-14T06:48:45Z</time>
				<hdop>1.5</hdop>
			</trkpt>
			<trkpt lat="46.88531194" lon="6.71732882">
				<ele>912.8</ele>
				<time>2013-08-14T06:48:46Z</time>
				<hdop>2.0</hdop>
			</trkpt>
			<trkpt lat="46.88531037" lon="6.71732077">
				<ele>913.1</ele>
				<time>2013-08-14T06:48:47Z</time>
				<hdop>2.0</hdop>
			</trkpt>
			<trkpt lat="46.88530934" lon="6.71732845">
				<ele>914.0</ele>
				<time>2013-08-14T06:48:48Z</time>
				<hdop>2.0</hdop>
			</trkpt>
			<trkpt lat="46.88530934" lon="6.71732845">
				<ele>914.0</ele>
				<time>2013-08-14T06:48:49Z</time>
				<hdop>3.0</hdop>
			</trkpt>
			<trkpt lat="46.88530204" lon="6.71732762">
				<ele>914.1</ele>
				<time>2013-08-14T06:48:50Z</time>
				<hdop>2.0</hdop>
			</trkpt>
			<trkpt lat="46.88528391" lon="6.71733233">
				<ele>915.9</ele>
				<time>2013-08-14T06:48:51Z</time>
				<hdop>2.0</hdop>
			</trkpt>
			<trkpt lat="46.88524998" lon="6.71729224">
				<ele>915.6</ele>
				<time>2013-08-14T06:48:52Z</time>
				<hdop>2.0</hdop>
			</trkpt>
			<trkpt lat="46.88524565" lon="6.71726564">
				<ele>916.2</ele>
				<time>2013-08-14T06:48:53Z</time>
				<hdop>3.0</hdop>
			</trkpt>
			<trkpt lat="46.88523311" lon="6.71728548">
				<ele>916.6</ele>
				<time>2013-08-14T06:48:54Z</time>
				<hdop>3.0</hdop>
			</trkpt>
			<trkpt lat="46.88521507" lon="6.71727697">
				<ele>914.6</ele>
				<time>2013-08-14T06:48:55Z</time>
				<hdop>3.0</hdop>
			</trkpt>
			<trkpt lat="46.88520602" lon="6.7172717">
				<ele>914.2</ele>
				<time>2013-08-14T06:48:56Z</time>
				<hdop>3.0</hdop>
			</trkpt>
			<trkpt lat="46.88521722" lon="6.71724679">
				<ele>914.1</ele>
				<time>2013-08-14T06:48:57Z</time>
				<hdop>3.0</hdop>
			</trkpt>
			<trkpt lat="46.88520795" lon="6.71721317">
				<ele>914.4</ele>
				<time>2013-08-14T06:48:58Z</time>
				<hdop>3.0</hdop>
			</trkpt>
			<trkpt lat="46.88519356" lon="6.7171831">
				<ele>915.0</ele>
				<time>2013-08-14T06:48:59Z</time>
				<hdop>2.0</hdop>
			</trkpt>
			<trkpt lat="46.88517139" lon="6.71717066">
				<ele>916.2</ele>
				<time>2013-08-14T06:49:01Z</time>
				<hdop>2.0</hdop>
			</trkpt>
			<trkpt lat="46.88515267" lon="6.71714662">
				<ele>917.0</ele>
				<time>2013-08-14T06:49:02Z</time>
				<hdop>2.0</hdop>
			</trkpt>
			<trkpt lat="46.88514557" lon="6.71714069">
				<ele>917.0</ele>
				<time>2013-08-14T06:49:03Z</time>
				<hdop>2.0</hdop>
			</trkpt>
			<trkpt lat="46.8851298" lon="6.71712553">
				<ele>917.3</ele>
				<time>2013-08-14T06:49:04Z</time>
				<hdop>2.0</hdop>
			</trkpt>
			<trkpt lat="46.88511865" lon="6.71713053">
				<ele>917.6</ele>
				<time>2013-08-14T06:49:05Z</time>
				<hdop>2.0</hdop>
			</trkpt>
			<trkpt lat="46.88509332" lon="6.71712353">
				<ele>918.6</ele>
				<time>2013-08-14T06:49:06Z</time>
				<hdop>2.0</hdop>
			</trkpt>
			<trkpt lat="46.88507307" lon="6.71710379">
				<ele>919.8</ele>
				<time>2013-08-14T06:49:08Z</time>
				<hdop>3.0</hdop>
			</trkpt>
			<trkpt lat="46.88507884" lon="6.71710175">
				<ele>916.9</ele>
				<time>2013-08-14T06:49:09Z</time>
				<hdop>2.0</hdop>
			</trkpt>
			<trkpt lat="46.88507451" lon="6.71709384">
				<ele>917.0</ele>
				<time>2013-08-14T06:49:10Z</time>
				<hdop>2.0</hdop>
			</trkpt>
			<trkpt lat="46.88507552" lon="6.71708893">
				<ele>916.0</ele>
				<time>2013-08-14T06:49:11Z</time>
				<hdop>3.0</hdop>
			</trkpt>
			<trkpt lat="46.8850665" lon="6.71708422">
				<ele>916.9</ele>
				<time>2013-08-14T06:49:12Z</time>
				<hdop>2.0</hdop>
			</trkpt>
			<trkpt lat="46.8850327" lon="6.71707707">
				<ele>918.3</ele>
				<time>2013-08-14T06:49:14Z</time>
				<hdop>2.0</hdop>
			</trkpt>
			<trkpt lat="46.88500672" lon="6.71708099">
				<ele>919.8</ele>
				<time>2013-08-14T06:49:15Z</time>
				<hdop>2.0</hdop>
			</trkpt>
			<trkpt lat="46.88500982" lon="6.71707096">
				<ele>919.6</ele>
				<time>2013-08-14T06:49:16Z</time>
				<hdop>2.0</hdop>
			</trkpt>
			<trkpt lat="46.88500275" lon="6.71706449">
				<ele>919.6</ele>
				<time>2013-08-14T06:49:17Z</time>
				<hdop>2.0</hdop>
			</trkpt>
			<trkpt lat="46.88499961" lon="6.71706503">
				<ele>919.4</ele>
				<time>2013-08-14T06:49:18Z</time>
				<hdop>2.0</hdop>
			</trkpt>
			<trkpt lat="46.88499882" lon="6.71706273">
				<ele>919.6</ele>
				<time>2013-08-14T06:49:20Z</time>
				<hdop>2.0</hdop>
			</trkpt>
			<trkpt lat="46.8849984" lon="6.71705627">
				<ele>919.8</ele>
				<time>2013-08-14T06:49:21Z</time>
				<hdop>2.0</hdop>
			</trkpt>
			<trkpt lat="46.88499475" lon="6.71705309">
				<ele>919.9</ele>
				<time>2013-08-14T06:49:22Z</time>
				<hdop>2.0</hdop>
			</trkpt>
			<trkpt lat="46.8849935" lon="6.71705076">
				<ele>920.3</ele>
				<time>2013-08-14T06:49:23Z</time>
				<hdop>2.0</hdop>
			</trkpt>
			<trkpt lat="46.8849935" lon="6.71705076">
				<ele>920.3</ele>
				<time>2013-08-14T06:49:24Z</time>
				<hdop>2.0</hdop>
			</trkpt>
			<trkpt lat="46.88499377" lon="6.71704655">
				<ele>920.7</ele>
				<time>2013-08-14T06:49:25Z</time>
				<hdop>2.0</hdop>
			</trkpt>
			<trkpt lat="46.884991" lon="6.71704205">
				<ele>921.2</ele>
				<time>2013-08-14T06:49:26Z</time>
				<hdop>2.0</hdop>
			</trkpt>
			<trkpt lat="46.88499379" lon="6.71703849">
				<ele>921.4</ele>
				<time>2013-08-14T06:49:27Z</time>
				<hdop>2.0</hdop>
			</trkpt>
			<trkpt lat="46.88499098" lon="6.717034">
				<ele>921.7</ele>
				<time>2013-08-14T06:49:28Z</time>
				<hdop>2.0</hdop>
			</trkpt>
			<trkpt lat="46.88501076" lon="6.71704224">
				<ele>923.1</ele>
				<time>2013-08-14T06:49:29Z</time>
				<hdop>1.5</hdop>
			</trkpt>
			<trkpt lat="46.88501114" lon="6.71704183">
				<ele>923.1</ele>
				<time>2013-08-14T06:49:30Z</time>
				<hdop>1.5</hdop>
			</trkpt>
			<trkpt lat="46.88501118" lon="6.7170413">
				<ele>923.1</ele>
				<time>2013-08-14T06:49:31Z</time>
				<hdop>1.5</hdop>
			</trkpt>
			<trkpt lat="46.88501568" lon="6.71704008">
				<ele>923.3</ele>
				<time>2013-08-14T06:49:32Z</time>
				<hdop>1.5</hdop>
			</trkpt>
			<trkpt lat="46.88502922" lon="6.71700998">
				<ele>924.4</ele>
				<time>2013-08-14T06:49:33Z</time>
				<hdop>1.5</hdop>
			</trkpt>
			<trkpt lat="46.88502281" lon="6.71696049">
				<ele>924.2</ele>
				<time>2013-08-14T06:49:34Z</time>
				<hdop>1.0</hdop>
			</trkpt>
			<trkpt lat="46.88502113" lon="6.71694189">
				<ele>924.2</ele>
				<time>2013-08-14T06:49:35Z</time>
				<hdop>1.0</hdop>
			</trkpt>
			<trkpt lat="46.8850206" lon="6.71692406">
				<ele>924.1</ele>
				<time>2013-08-14T06:49:36Z</time>
				<hdop>1.5</hdop>
			</trkpt>
			<trkpt lat="46.88501096" lon="6.71689477">
				<ele>923.1</ele>
				<time>2013-08-14T06:49:37Z</time>
				<hdop>1.5</hdop>
			</trkpt>
			<trkpt lat="46.88499711" lon="6.71684533">
				<ele>922.3</ele>
				<time>2013-08-14T06:49:38Z</time>
				<hdop>1.5</hdop>
			</trkpt>
			<trkpt lat="46.88498932" lon="6.71683694">
				<ele>921.3</ele>
				<time>2013-08-14T06:49:39Z</time>
				<hdop>1.5</hdop>
			</trkpt>
			<trkpt lat="46.88500544" lon="6.71681698">
				<ele>921.2</ele>
				<time>2013-08-14T06:49:40Z</time>
				<hdop>1.5</hdop>
			</trkpt>
			<trkpt lat="46.88499375" lon="6.71679627">
				<ele>920.8</ele>
				<time>2013-08-14T06:49:41Z</time>
				<hdop>1.5</hdop>
			</trkpt>
			<trkpt lat="46.88498363" lon="6.71675758">
				<ele>920.3</ele>
				<time>2013-08-14T06:49:43Z</time>
				<hdop>2.0</hdop>
			</trkpt>
			<trkpt lat="46.88498052" lon="6.71673326">
				<ele>920.5</ele>
				<time>2013-08-14T06:49:44Z</time>
				<hdop>2.0</hdop>
			</trkpt>
			<trkpt lat="46.88498084" lon="6.71669036">
				<ele>920.8</ele>
				<time>2013-08-14T06:49:45Z</time>
				<hdop>2.0</hdop>
			</trkpt>
			<trkpt lat="46.88496358" lon="6.71665617">
				<ele>922.2</ele>
				<time>2013-08-14T06:49:46Z</time>
				<hdop>2.0</hdop>
			</trkpt>
			<trkpt lat="46.88496145" lon="6.71660555">
				<ele>922.7</ele>
				<time>2013-08-14T06:49:48Z</time>
				<hdop>2.0</hdop>
			</trkpt>
			<trkpt lat="46.88496327" lon="6.71659335">
				<ele>922.5</ele>
				<time>2013-08-14T06:49:49Z</time>
				<hdop>2.0</hdop>
			</trkpt>
			<trkpt lat="46.88495661" lon="6.71658354">
				<ele>922.6</ele>
				<time>2013-08-14T06:49:50Z</time>
				<hdop>2.0</hdop>
			</trkpt>
			<trkpt lat="46.88496371" lon="6.71657909">
				<ele>923.1</ele>
				<time>2013-08-14T06:49:51Z</time>
				<hdop>1.5</hdop>
			</trkpt>
			<trkpt lat="46.88494831" lon="6.71653124">
				<ele>924.0</ele>
				<time>2013-08-14T06:49:53Z</time>
				<hdop>1.5</hdop>
			</trkpt>
			<trkpt lat="46.88495059" lon="6.71652053">
				<ele>924.2</ele>
				<time>2013-08-14T06:49:54Z</time>
				<hdop>2.0</hdop>
			</trkpt>
			<trkpt lat="46.88499894" lon="6.71647823">
				<ele>923.6</ele>
				<time>2013-08-14T06:49:55Z</time>
				<hdop>1.5</hdop>
			</trkpt>
			<trkpt lat="46.8849868" lon="6.71646187">
				<ele>923.3</ele>
				<time>2013-08-14T06:49:56Z</time>
				<hdop>1.5</hdop>
			</trkpt>
			<trkpt lat="46.88500715" lon="6.71648528">
				<ele>923.6</ele>
				<time>2013-08-14T06:49:57Z</time>
				<hdop>1.5</hdop>
			</trkpt>
			<trkpt lat="46.88501224" lon="6.71647804">
				<ele>923.6</ele>
				<time>2013-08-14T06:49:58Z</time>
				<hdop>2.0</hdop>
			</trkpt>
			<trkpt lat="46.88502978" lon="6.71645741">
				<ele>923.7</ele>
				<time>2013-08-14T06:49:59Z</time>
				<hdop>1.5</hdop>
			</trkpt>
			<trkpt lat="46.88501657" lon="6.7164278">
				<ele>924.4</ele>
				<time>2013-08-14T06:50:00Z</time>
				<hdop>1.5</hdop>
			</trkpt>
			<trkpt lat="46.88499766" lon="6.71639393">
				<ele>925.6</ele>
				<time>2013-08-14T06:50:02Z</time>
				<hdop>1.5</hdop>
			</trkpt>
			<trkpt lat="46.88498211" lon="6.71637279">
				<ele>926.2</ele>
				<time>2013-08-14T06:50:03Z</time>
				<hdop>1.5</hdop>
			</trkpt>
			<trkpt lat="46.88499393" lon="6.7163706">
				<ele>926.1</ele>
				<time>2013-08-14T06:50:04Z</time>
				<hdop>1.5</hdop>
			</trkpt>
			<trkpt lat="46.88502364" lon="6.71632195">
				<ele>926.5</ele>
				<time>2013-08-14T06:50:05Z</time>
				<hdop>1.5</hdop>
			</trkpt>
			<trkpt lat="46.88504064" lon="6.71627843">
				<ele>926.6</ele>
				<time>2013-08-14T06:50:06Z</time>
				<hdop>1.5</hdop>
			</trkpt>
			<trkpt lat="46.88503722" lon="6.71625692">
				<ele>924.9</ele>
				<time>2013-08-14T06:50:08Z</time>
				<hdop>1.5</hdop>
			</trkpt>
			<trkpt lat="46.8850273" lon="6.71625422">
				<ele>923.9</ele>
				<time>2013-08-14T06:50:09Z</time>
				<hdop>1.5</hdop>
			</trkpt>
			<trkpt lat="46.88502395" lon="6.71621451">
				<ele>923.7</ele>
				<time>2013-08-14T06:50:10Z</time>
				<hdop>1.5</hdop>
			</trkpt>
			<trkpt lat="46.88503075" lon="6.71620153">
				<ele>923.4</ele>
				<time>2013-08-14T06:50:11Z</time>
				<hdop>2.0</hdop>
			</trkpt>
			<trkpt lat="46.88504165" lon="6.71616979">
				<ele>922.6</ele>
				<time>2013-08-14T06:50:12Z</time>
				<hdop>1.5</hdop>
			</trkpt>
			<trkpt lat="46.88504875" lon="6.71616683">
				<ele>922.1</ele>
				<time>2013-08-14T06:50:13Z</time>
				<hdop>1.5</hdop>
			</trkpt>
			<trkpt lat="46.8850556" lon="6.71613935">
				<ele>921.0</ele>
				<time>2013-08-14T06:50:14Z</time>
				<hdop>1.5</hdop>
			</trkpt>
			<trkpt lat="46.8851051" lon="6.71615326">
				<ele>923.0</ele>
				<time>2013-08-14T06:50:15Z</time>
				<hdop>1.5</hdop>
			</trkpt>
			<trkpt lat="46.88511928" lon="6.71613775">
				<ele>921.8</ele>
				<time>2013-08-14T06:50:16Z</time>
				<hdop>1.0</hdop>
			</trkpt>
			<trkpt lat="46.8851163" lon="6.71612081">
				<ele>920.6</ele>
				<time>2013-08-14T06:50:17Z</time>
				<hdop>1.0</hdop>
			</trkpt>
			<trkpt lat="46.88512364" lon="6.71610756">
				<ele>920.5</ele>
				<time>2013-08-14T06:50:18Z</time>
				<hdop>1.0</hdop>
			</trkpt>
			<trkpt lat="46.8851068" lon="6.7160876">
				<ele>919.9</ele>
				<time>2013-08-14T06:50:19Z</time>
				<hdop>1.0</hdop>
			</trkpt>
			<trkpt lat="46.88510946" lon="6.71605323">
				<ele>920.3</ele>
				<time>2013-08-14T06:50:21Z</time>
				<hdop>1.0</hdop>
			</trkpt>
			<trkpt lat="46.88510108" lon="6.71603951">
				<ele>922.5</ele>
				<time>2013-08-14T06:50:22Z</time>
				<hdop>1.0</hdop>
			</trkpt>
			<trkpt lat="46.88510174" lon="6.71602146">
				<ele>922.2</ele>
				<time>2013-08-14T06:50:23Z</time>
				<hdop>1.0</hdop>
			</trkpt>
			<trkpt lat="46.88511193" lon="6.71598554">
				<ele>923.2</ele>
				<time>2013-08-14T06:50:25Z</time>
				<hdop>1.0</hdop>
			</trkpt>
			<trkpt lat="46.8851145" lon="6.71595647">
				<ele>923.5</ele>
				<time>2013-08-14T06:50:27Z</time>
				<hdop>1.0</hdop>
			</trkpt>
			<trkpt lat="46.88510084" lon="6.71593823">
				<ele>923.7</ele>
				<time>2013-08-14T06:50:29Z</time>
				<hdop>1.5</hdop>
			</trkpt>
			<trkpt lat="46.88511651" lon="6.71589708">
				<ele>924.4</ele>
				<time>2013-08-14T06:50:30Z</time>
				<hdop>1.5</hdop>
			</trkpt>
			<trkpt lat="46.88514334" lon="6.71585338">
				<ele>925.0</ele>
				<time>2013-08-14T06:50:32Z</time>
				<hdop>1.5</hdop>
			</trkpt>
			<trkpt lat="46.88515111" lon="6.71583612">
				<ele>925.0</ele>
				<time>2013-08-14T06:50:33Z</time>
				<hdop>1.5</hdop>
			</trkpt>
			<trkpt lat="46.88516861" lon="6.71580062">
				<ele>927.1</ele>
				<time>2013-08-14T06:50:35Z</time>
				<hdop>2.0</hdop>
			</trkpt>
			<trkpt lat="46.88516694" lon="6.71578927">
				<ele>927.5</ele>
				<time>2013-08-14T06:50:36Z</time>
				<hdop>1.5</hdop>
			</trkpt>
			<trkpt lat="46.88518105" lon="6.71576891">
				<ele>927.8</ele>
				<time>2013-08-14T06:50:38Z</time>
				<hdop>1.5</hdop>
			</trkpt>
			<trkpt lat="46.88518463" lon="6.71575319">
				<ele>928.4</ele>
				<time>2013-08-14T06:50:39Z</time>
				<hdop>1.5</hdop>
			</trkpt>
			<trkpt lat="46.88518198" lon="6.71575425">
				<ele>929.1</ele>
				<time>2013-08-14T06:50:40Z</time>
				<hdop>1.5</hdop>
			</trkpt>
			<trkpt lat="46.88517985" lon="6.7157275">
				<ele>930.2</ele>
				<time>2013-08-14T06:50:41Z</time>
				<hdop>1.5</hdop>
			</trkpt>
			<trkpt lat="46.88516698" lon="6.715712">
				<ele>929.7</ele>
				<time>2013-08-14T06:50:42Z</time>
				<hdop>2.0</hdop>
			</trkpt>
			<trkpt lat="46.8851915" lon="6.71565151">
				<ele>929.6</ele>
				<time>2013-08-14T06:50:44Z</time>
				<hdop>3.0</hdop>
			</trkpt>
			<trkpt lat="46.88520551" lon="6.71563554">
				<ele>929.9</ele>
				<time>2013-08-14T06:50:45Z</time>
				<hdop>2.0</hdop>
			</trkpt>
			<trkpt lat="46.88519566" lon="6.71560457">
				<ele>929.9</ele>
				<time>2013-08-14T06:50:46Z</time>
				<hdop>2.0</hdop>
			</trkpt>
			<trkpt lat="46.88519639" lon="6.71558552">
				<ele>930.5</ele>
				<time>2013-08-14T06:50:47Z</time>
				<hdop>2.0</hdop>
			</trkpt>
			<trkpt lat="46.88523252" lon="6.7155743">
				<ele>931.4</ele>
				<time>2013-08-14T06:50:48Z</time>
				<hdop>2.0</hdop>
			</trkpt>
			<trkpt lat="46.88524825" lon="6.71556828">
				<ele>933.2</ele>
				<time>2013-08-14T06:50:50Z</time>
				<hdop>2.0</hdop>
			</trkpt>
			<trkpt lat="46.88522259" lon="6.71553182">
				<ele>936.6</ele>
				<time>2013-08-14T06:50:52Z</time>
				<hdop>1.5</hdop>
			</trkpt>
			<trkpt lat="46.88524844" lon="6.71551437">
				<ele>934.8</ele>
				<time>2013-08-14T06:50:53Z</time>
				<hdop>1.5</hdop>
			</trkpt>
			<trkpt lat="46.88526237" lon="6.71550734">
				<ele>934.9</ele>
				<time>2013-08-14T06:50:54Z</time>
				<hdop>1.5</hdop>
			</trkpt>
			<trkpt lat="46.8852779" lon="6.71549107">
				<ele>935.7</ele>
				<time>2013-08-14T06:50:55Z</time>
				<hdop>1.5</hdop>
			</trkpt>
			<trkpt lat="46.88529257" lon="6.7154877">
				<ele>935.6</ele>
				<time>2013-08-14T06:50:56Z</time>
				<hdop>1.5</hdop>
			</trkpt>
			<trkpt lat="46.88530688" lon="6.7154759">
				<ele>935.7</ele>
				<time>2013-08-14T06:50:57Z</time>
				<hdop>1.5</hdop>
			</trkpt>
			<trkpt lat="46.88529988" lon="6.71547565">
				<ele>935.7</ele>
				<time>2013-08-14T06:50:58Z</time>
				<hdop>1.5</hdop>
			</trkpt>
			<trkpt lat="46.88531809" lon="6.71545582">
				<ele>935.0</ele>
				<time>2013-08-14T06:51:00Z</time>
				<hdop>1.5</hdop>
			</trkpt>
			<trkpt lat="46.88531827" lon="6.71543912">
				<ele>934.9</ele>
				<time>2013-08-14T06:51:01Z</time>
				<hdop>1.5</hdop>
			</trkpt>
			<trkpt lat="46.88531537" lon="6.7154498">
				<ele>935.6</ele>
				<time>2013-08-14T06:51:03Z</time>
				<hdop>1.0</hdop>
			</trkpt>
			<trkpt lat="46.88532516" lon="6.71544606">
				<ele>936.0</ele>
				<time>2013-08-14T06:51:04Z</time>
				<hdop>1.0</hdop>
			</trkpt>
			<trkpt lat="46.88534101" lon="6.71541106">
				<ele>936.0</ele>
				<time>2013-08-14T06:51:05Z</time>
				<hdop>1.0</hdop>
			</trkpt>
			<trkpt lat="46.88536176" lon="6.71538897">
				<ele>935.6</ele>
				<time>2013-08-14T06:51:07Z</time>
				<hdop>1.5</hdop>
			</trkpt>
			<trkpt lat="46.88535917" lon="6.71537535">
				<ele>937.1</ele>
				<time>2013-08-14T06:51:09Z</time>
				<hdop>1.0</hdop>
			</trkpt>
			<trkpt lat="46.8853653" lon="6.71536782">
				<ele>937.6</ele>
				<time>2013-08-14T06:51:10Z</time>
				<hdop>1.0</hdop>
			</trkpt>
			<trkpt lat="46.88537621" lon="6.71535969">
				<ele>938.2</ele>
				<time>2013-08-14T06:51:11Z</time>
				<hdop>1.0</hdop>
			</trkpt>
			<trkpt lat="46.88538538" lon="6.71534319">
				<ele>937.6</ele>
				<time>2013-08-14T06:51:13Z</time>
				<hdop>1.0</hdop>
			</trkpt>
			<trkpt lat="46.88539587" lon="6.71534003">
				<ele>936.8</ele>
				<time>2013-08-14T06:51:14Z</time>
				<hdop>1.0</hdop>
			</trkpt>
			<trkpt lat="46.88538992" lon="6.71533681">
				<ele>937.0</ele>
				<time>2013-08-14T06:51:15Z</time>
				<hdop>1.0</hdop>
			</trkpt>
			<trkpt lat="46.88539555" lon="6.71532143">
				<ele>937.2</ele>
				<time>2013-08-14T06:51:16Z</time>
				<hdop>1.0</hdop>
			</trkpt>
			<trkpt lat="46.88541621" lon="6.7153302">
				<ele>936.5</ele>
				<time>2013-08-14T06:51:17Z</time>
				<hdop>1.0</hdop>
			</trkpt>
			<trkpt lat="46.88542787" lon="6.71532664">
				<ele>936.3</ele>
				<time>2013-08-14T06:51:18Z</time>
				<hdop>1.0</hdop>
			</trkpt>
			<trkpt lat="46.88545675" lon="6.7153252">
				<ele>936.5</ele>
				<time>2013-08-14T06:51:20Z</time>
				<hdop>1.0</hdop>
			</trkpt>
			<trkpt lat="46.8854718" lon="6.71532131">
				<ele>936.8</ele>
				<time>2013-08-14T06:51:21Z</time>
				<hdop>1.0</hdop>
			</trkpt>
			<trkpt lat="46.88547242" lon="6.71532789">
				<ele>937.1</ele>
				<time>2013-08-14T06:51:22Z</time>
				<hdop>1.5</hdop>
			</trkpt>
			<trkpt lat="46.88548956" lon="6.71530388">
				<ele>937.5</ele>
				<time>2013-08-14T06:51:24Z</time>
				<hdop>1.5</hdop>
			</trkpt>
			<trkpt lat="46.88547781" lon="6.71530488">
				<ele>938.3</ele>
				<time>2013-08-14T06:51:25Z</time>
				<hdop>1.5</hdop>
			</trkpt>
			<trkpt lat="46.88549097" lon="6.71529363">
				<ele>937.9</ele>
				<time>2013-08-14T06:51:27Z</time>
				<hdop>1.5</hdop>
			</trkpt>
			<trkpt lat="46.8854864" lon="6.71528394">
				<ele>939.4</ele>
				<time>2013-08-14T06:51:28Z</time>
				<hdop>2.0</hdop>
			</trkpt>
			<trkpt lat="46.88549729" lon="6.71525628">
				<ele>940.3</ele>
				<time>2013-08-14T06:51:29Z</time>
				<hdop>2.0</hdop>
			</trkpt>
			<trkpt lat="46.88550917" lon="6.71523623">
				<ele>940.4</ele>
				<time>2013-08-14T06:51:30Z</time>
				<hdop>1.5</hdop>
			</trkpt>
			<trkpt lat="46.88551369" lon="6.71526389">
				<ele>941.0</ele>
				<time>2013-08-14T06:51:31Z</time>
				<hdop>2.0</hdop>
			</trkpt>
			<trkpt lat="46.88552633" lon="6.71527667">
				<ele>940.9</ele>
				<time>2013-08-14T06:51:32Z</time>
				<hdop>2.0</hdop>
			</trkpt>
			<trkpt lat="46.88553048" lon="6.71527054">
				<ele>940.9</ele>
				<time>2013-08-14T06:51:33Z</time>
				<hdop>3.0</hdop>
			</trkpt>
			<trkpt lat="46.88554025" lon="6.71519873">
				<ele>941.8</ele>
				<time>2013-08-14T06:51:34Z</time>
				<hdop>2.0</hdop>
			</trkpt>
			<trkpt lat="46.88553466" lon="6.71512143">
				<ele>941.5</ele>
				<time>2013-08-14T06:51:36Z</time>
				<hdop>3.0</hdop>
			</trkpt>
			<trkpt lat="46.88552385" lon="6.71509677">
				<ele>941.7</ele>
				<time>2013-08-14T06:51:37Z</time>
				<hdop>3.0</hdop>
			</trkpt>
			<trkpt lat="46.88549945" lon="6.7150345">
				<ele>942.8</ele>
				<time>2013-08-14T06:51:39Z</time>
				<hdop>3.0</hdop>
			</trkpt>
			<trkpt lat="46.88549658" lon="6.71503599">
				<ele>943.5</ele>
				<time>2013-08-14T06:51:40Z</time>
				<hdop>3.0</hdop>
			</trkpt>
			<trkpt lat="46.88544633" lon="6.71507328">
				<ele>943.5</ele>
				<time>2013-08-14T06:51:42Z</time>
				<hdop>2.0</hdop>
			</trkpt>
			<trkpt lat="46.8854377" lon="6.71507474">
				<ele>943.8</ele>
				<time>2013-08-14T06:51:43Z</time>
				<hdop>2.0</hdop>
			</trkpt>
			<trkpt lat="46.88542805" lon="6.71507267">
				<ele>944.2</ele>
				<time>2013-08-14T06:51:44Z</time>
				<hdop>2.0</hdop>
			</trkpt>
			<trkpt lat="46.8854277" lon="6.71504505">
				<ele>945.0</ele>
				<time>2013-08-14T06:51:45Z</time>
				<hdop>1.5</hdop>
			</trkpt>
			<trkpt lat="46.88543564" lon="6.71501149">
				<ele>945.4</ele>
				<time>2013-08-14T06:51:46Z</time>
				<hdop>1.5</hdop>
			</trkpt>
			<trkpt lat="46.88542859" lon="6.71500833">
				<ele>945.1</ele>
				<time>2013-08-14T06:51:47Z</time>
				<hdop>1.5</hdop>
			</trkpt>
			<trkpt lat="46.88542369" lon="6.714995">
				<ele>945.7</ele>
				<time>2013-08-14T06:51:48Z</time>
				<hdop>1.5</hdop>
			</trkpt>
			<trkpt lat="46.88542865" lon="6.71498566">
				<ele>945.4</ele>
				<time>2013-08-14T06:51:49Z</time>
				<hdop>1.5</hdop>
			</trkpt>
			<trkpt lat="46.88542629" lon="6.71499132">
				<ele>945.6</ele>
				<time>2013-08-14T06:51:50Z</time>
				<hdop>1.5</hdop>
			</trkpt>
			<trkpt lat="46.88543545" lon="6.71499438">
				<ele>944.9</ele>
				<time>2013-08-14T06:51:51Z</time>
				<hdop>1.5</hdop>
			</trkpt>
			<trkpt lat="46.88543569" lon="6.71498563">
				<ele>944.7</ele>
				<time>2013-08-14T06:51:53Z</time>
				<hdop>1.5</hdop>
			</trkpt>
			<trkpt lat="46.88543603" lon="6.71497891">
				<ele>944.6</ele>
				<time>2013-08-14T06:51:54Z</time>
				<hdop>1.5</hdop>
			</trkpt>
			<trkpt lat="46.88543123" lon="6.71496738">
				<ele>944.6</ele>
				<time>2013-08-14T06:51:56Z</time>
				<hdop>1.5</hdop>
			</trkpt>
			<trkpt lat="46.88543192" lon="6.71495132">
				<ele>943.8</ele>
				<time>2013-08-14T06:51:57Z</time>
				<hdop>1.5</hdop>
			</trkpt>
			<trkpt lat="46.88543646" lon="6.71492086">
				<ele>941.5</ele>
				<time>2013-08-14T06:51:58Z</time>
				<hdop>1.0</hdop>
			</trkpt>
			<trkpt lat="46.88543604" lon="6.71489281">
				<ele>939.6</ele>
				<time>2013-08-14T06:51:59Z</time>
				<hdop>1.0</hdop>
			</trkpt>
			<trkpt lat="46.88543829" lon="6.71488416">
				<ele>939.6</ele>
				<time>2013-08-14T06:52:00Z</time>
				<hdop>1.0</hdop>
			</trkpt>
			<trkpt lat="46.88544616" lon="6.71482053">
				<ele>936.0</ele>
				<time>2013-08-14T06:52:01Z</time>
				<hdop>1.0</hdop>
			</trkpt>
			<trkpt lat="46.88544454" lon="6.71477673">
				<ele>934.8</ele>
				<time>2013-08-14T06:52:02Z</time>
				<hdop>1.0</hdop>
			</trkpt>
			<trkpt lat="46.88544091" lon="6.71474016">
				<ele>934.5</ele>
				<time>2013-08-14T06:52:03Z</time>
				<hdop>1.0</hdop>
			</trkpt>
			<trkpt lat="46.88544978" lon="6.7147033">
				<ele>933.6</ele>
				<time>2013-08-14T06:52:04Z</time>
				<hdop>1.0</hdop>
			</trkpt>
			<trkpt lat="46.88544954" lon="6.71467398">
				<ele>933.0</ele>
				<time>2013-08-14T06:52:05Z</time>
				<hdop>1.0</hdop>
			</trkpt>
			<trkpt lat="46.88545696" lon="6.7146525">
				<ele>933.5</ele>
				<time>2013-08-14T06:52:06Z</time>
				<hdop>1.0</hdop>
			</trkpt>
			<trkpt lat="46.88546001" lon="6.71461802">
				<ele>934.2</ele>
				<time>2013-08-14T06:52:07Z</time>
				<hdop>1.0</hdop>
			</trkpt>
			<trkpt lat="46.88547133" lon="6.71459916">
				<ele>935.0</ele>
				<time>2013-08-14T06:52:08Z</time>
				<hdop>1.0</hdop>
			</trkpt>
			<trkpt lat="46.88546574" lon="6.71456626">
				<ele>936.0</ele>
				<time>2013-08-14T06:52:09Z</time>
				<hdop>1.0</hdop>
			</trkpt>
			<trkpt lat="46.88547194" lon="6.71454451">
				<ele>936.4</ele>
				<time>2013-08-14T06:52:10Z</time>
				<hdop>1.0</hdop>
			</trkpt>
			<trkpt lat="46.88547313" lon="6.71452843">
				<ele>936.3</ele>
				<time>2013-08-14T06:52:11Z</time>
				<hdop>1.0</hdop>
			</trkpt>
			<trkpt lat="46.88549383" lon="6.71451422">
				<ele>937.1</ele>
				<time>2013-08-14T06:52:12Z</time>
				<hdop>1.0</hdop>
			</trkpt>
			<trkpt lat="46.88550749" lon="6.71449381">
				<ele>937.8</ele>
				<time>2013-08-14T06:52:13Z</time>
				<hdop>1.0</hdop>
			</trkpt>
			<trkpt lat="46.88549569" lon="6.71447524">
				<ele>938.4</ele>
				<time>2013-08-14T06:52:14Z</time>
				<hdop>1.0</hdop>
			</trkpt>
			<trkpt lat="46.88550263" lon="6.71446237">
				<ele>938.6</ele>
				<time>2013-08-14T06:52:15Z</time>
				<hdop>1.0</hdop>
			</trkpt>
			<trkpt lat="46.88551883" lon="6.71444101">
				<ele>939.3</ele>
				<time>2013-08-14T06:52:16Z</time>
				<hdop>1.0</hdop>
			</trkpt>
			<trkpt lat="46.88552089" lon="6.71442634">
				<ele>939.9</ele>
				<time>2013-08-14T06:52:17Z</time>
				<hdop>1.0</hdop>
			</trkpt>
			<trkpt lat="46.88552221" lon="6.71440125">
				<ele>939.6</ele>
				<time>2013-08-14T06:52:18Z</time>
				<hdop>1.0</hdop>
			</trkpt>
			<trkpt lat="46.88552801" lon="6.71438832">
				<ele>939.5</ele>
				<time>2013-08-14T06:52:19Z</time>
				<hdop>1.5</hdop>
			</trkpt>
			<trkpt lat="46.88553927" lon="6.71437272">
				<ele>939.9</ele>
				<time>2013-08-14T06:52:20Z</time>
				<hdop>1.5</hdop>
			</trkpt>
			<trkpt lat="46.88553442" lon="6.71430942">
				<ele>940.5</ele>
				<time>2013-08-14T06:52:22Z</time>
				<hdop>1.5</hdop>
			</trkpt>
			<trkpt lat="46.88556398" lon="6.71431413">
				<ele>941.0</ele>
				<time>2013-08-14T06:52:23Z</time>
				<hdop>1.5</hdop>
			</trkpt>
			<trkpt lat="46.8855743" lon="6.71430654">
				<ele>941.2</ele>
				<time>2013-08-14T06:52:24Z</time>
				<hdop>1.5</hdop>
			</trkpt>
			<trkpt lat="46.88558847" lon="6.7142938">
				<ele>942.0</ele>
				<time>2013-08-14T06:52:25Z</time>
				<hdop>1.5</hdop>
			</trkpt>
			<trkpt lat="46.88556893" lon="6.71428021">
				<ele>942.0</ele>
				<time>2013-08-14T06:52:26Z</time>
				<hdop>1.5</hdop>
			</trkpt>
			<trkpt lat="46.88557426" lon="6.71426357">
				<ele>942.0</ele>
				<time>2013-08-14T06:52:27Z</time>
				<hdop>1.5</hdop>
			</trkpt>
			<trkpt lat="46.88556632" lon="6.71423652">
				<ele>941.1</ele>
				<time>2013-08-14T06:52:28Z</time>
				<hdop>1.5</hdop>
			</trkpt>
			<trkpt lat="46.88554813" lon="6.71421649">
				<ele>941.2</ele>
				<time>2013-08-14T06:52:29Z</time>
				<hdop>1.5</hdop>
			</trkpt>
			<trkpt lat="46.88557109" lon="6.71418179">
				<ele>942.3</ele>
				<time>2013-08-14T06:52:30Z</time>
				<hdop>2.0</hdop>
			</trkpt>
			<trkpt lat="46.88556952" lon="6.71414658">
				<ele>943.1</ele>
				<time>2013-08-14T06:52:32Z</time>
				<hdop>2.0</hdop>
			</trkpt>
			<trkpt lat="46.88558971" lon="6.71412325">
				<ele>943.3</ele>
				<time>2013-08-14T06:52:33Z</time>
				<hdop>2.0</hdop>
			</trkpt>
			<trkpt lat="46.88557899" lon="6.71409635">
				<ele>944.7</ele>
				<time>2013-08-14T06:52:34Z</time>
				<hdop>2.0</hdop>
			</trkpt>
			<trkpt lat="46.88558411" lon="6.71408495">
				<ele>944.8</ele>
				<time>2013-08-14T06:52:35Z</time>
				<hdop>2.0</hdop>
			</trkpt>
			<trkpt lat="46.88558894" lon="6.71405444">
				<ele>944.9</ele>
				<time>2013-08-14T06:52:36Z</time>
				<hdop>2.0</hdop>
			</trkpt>
			<trkpt lat="46.88559456" lon="6.71404427">
				<ele>945.6</ele>
				<time>2013-08-14T06:52:37Z</time>
				<hdop>2.0</hdop>
			</trkpt>
			<trkpt lat="46.8855852" lon="6.71402083">
				<ele>945.8</ele>
				<time>2013-08-14T06:52:38Z</time>
				<hdop>1.5</hdop>
			</trkpt>
			<trkpt lat="46.88560526" lon="6.71399895">
				<ele>947.1</ele>
				<time>2013-08-14T06:52:40Z</time>
				<hdop>1.5</hdop>
			</trkpt>
			<trkpt lat="46.88560245" lon="6.71399297">
				<ele>948.5</ele>
				<time>2013-08-14T06:52:41Z</time>
				<hdop>1.5</hdop>
			</trkpt>
			<trkpt lat="46.88561014" lon="6.71397179">
				<ele>948.9</ele>
				<time>2013-08-14T06:52:42Z</time>
				<hdop>1.5</hdop>
			</trkpt>
			<trkpt lat="46.88562343" lon="6.71394197">
				<ele>949.3</ele>
				<time>2013-08-14T06:52:44Z</time>
				<hdop>1.5</hdop>
			</trkpt>
			<trkpt lat="46.88562297" lon="6.71391602">
				<ele>949.3</ele>
				<time>2013-08-14T06:52:45Z</time>
				<hdop>1.5</hdop>
			</trkpt>
			<trkpt lat="46.88562987" lon="6.71389544">
				<ele>950.3</ele>
				<time>2013-08-14T06:52:46Z</time>
				<hdop>1.5</hdop>
			</trkpt>
			<trkpt lat="46.88563218" lon="6.71387964">
				<ele>951.6</ele>
				<time>2013-08-14T06:52:47Z</time>
				<hdop>1.5</hdop>
			</trkpt>
			<trkpt lat="46.88564162" lon="6.71385422">
				<ele>951.5</ele>
				<time>2013-08-14T06:52:48Z</time>
				<hdop>1.5</hdop>
			</trkpt>
			<trkpt lat="46.88564355" lon="6.71384234">
				<ele>951.4</ele>
				<time>2013-08-14T06:52:49Z</time>
				<hdop>1.5</hdop>
			</trkpt>
			<trkpt lat="46.88563979" lon="6.71383041">
				<ele>951.1</ele>
				<time>2013-08-14T06:52:51Z</time>
				<hdop>1.0</hdop>
			</trkpt>
			<trkpt lat="46.88563943" lon="6.71380819">
				<ele>951.9</ele>
				<time>2013-08-14T06:52:52Z</time>
				<hdop>1.0</hdop>
			</trkpt>
			<trkpt lat="46.88563744" lon="6.71377419">
				<ele>952.4</ele>
				<time>2013-08-14T06:52:54Z</time>
				<hdop>1.5</hdop>
			</trkpt>
			<trkpt lat="46.88565608" lon="6.71375866">
				<ele>952.3</ele>
				<time>2013-08-14T06:52:55Z</time>
				<hdop>1.0</hdop>
			</trkpt>
			<trkpt lat="46.8856695" lon="6.71375336">
				<ele>952.6</ele>
				<time>2013-08-14T06:52:56Z</time>
				<hdop>1.0</hdop>
			</trkpt>
			<trkpt lat="46.88565706" lon="6.71374551">
				<ele>953.1</ele>
				<time>2013-08-14T06:52:57Z</time>
				<hdop>1.5</hdop>
			</trkpt>
			<trkpt lat="46.88567992" lon="6.71374715">
				<ele>953.4</ele>
				<time>2013-08-14T06:52:58Z</time>
				<hdop>1.0</hdop>
			</trkpt>
			<trkpt lat="46.88569008" lon="6.71373236">
				<ele>953.0</ele>
				<time>2013-08-14T06:52:59Z</time>
				<hdop>1.0</hdop>
			</trkpt>
			<trkpt lat="46.88568192" lon="6.7137256">
				<ele>953.4</ele>
				<time>2013-08-14T06:53:00Z</time>
				<hdop>1.5</hdop>
			</trkpt>
			<trkpt lat="46.88566364" lon="6.71370017">
				<ele>952.2</ele>
				<time>2013-08-14T06:53:02Z</time>
				<hdop>1.5</hdop>
			</trkpt>
			<trkpt lat="46.8856435" lon="6.71367951">
				<ele>952.3</ele>
				<time>2013-08-14T06:53:03Z</time>
				<hdop>1.5</hdop>
			</trkpt>
			<trkpt lat="46.88566669" lon="6.71362986">
				<ele>950.7</ele>
				<time>2013-08-14T06:53:05Z</time>
				<hdop>1.5</hdop>
			</trkpt>
			<trkpt lat="46.88568645" lon="6.71361905">
				<ele>951.6</ele>
				<time>2013-08-14T06:53:06Z</time>
				<hdop>1.5</hdop>
			</trkpt>
			<trkpt lat="46.88567659" lon="6.7135939">
				<ele>952.2</ele>
				<time>2013-08-14T06:53:07Z</time>
				<hdop>1.0</hdop>
			</trkpt>
			<trkpt lat="46.8856774" lon="6.7135851">
				<ele>952.0</ele>
				<time>2013-08-14T06:53:08Z</time>
				<hdop>1.5</hdop>
			</trkpt>
			<trkpt lat="46.88566685" lon="6.71355783">
				<ele>953.6</ele>
				<time>2013-08-14T06:53:10Z</time>
				<hdop>1.5</hdop>
			</trkpt>
			<trkpt lat="46.88568104" lon="6.71350707">
				<ele>953.1</ele>
				<time>2013-08-14T06:53:12Z</time>
				<hdop>1.5</hdop>
			</trkpt>
			<trkpt lat="46.88567514" lon="6.71347803">
				<ele>953.2</ele>
				<time>2013-08-14T06:53:13Z</time>
				<hdop>1.5</hdop>
			</trkpt>
			<trkpt lat="46.88568964" lon="6.71345749">
				<ele>953.0</ele>
				<time>2013-08-14T06:53:14Z</time>
				<hdop>1.5</hdop>
			</trkpt>
			<trkpt lat="46.88569582" lon="6.71340546">
				<ele>953.3</ele>
				<time>2013-08-14T06:53:15Z</time>
				<hdop>1.5</hdop>
			</trkpt>
			<trkpt lat="46.88571189" lon="6.7133891">
				<ele>953.8</ele>
				<time>2013-08-14T06:53:16Z</time>
				<hdop>1.5</hdop>
			</trkpt>
			<trkpt lat="46.88570338" lon="6.71338883">
				<ele>954.6</ele>
				<time>2013-08-14T06:53:17Z</time>
				<hdop>1.5</hdop>
			</trkpt>
			<trkpt lat="46.88570833" lon="6.71336795">
				<ele>954.9</ele>
				<time>2013-08-14T06:53:19Z</time>
				<hdop>1.5</hdop>
			</trkpt>
			<trkpt lat="46.88570874" lon="6.71337584">
				<ele>954.2</ele>
				<time>2013-08-14T06:53:20Z</time>
				<hdop>1.5</hdop>
			</trkpt>
			<trkpt lat="46.88571363" lon="6.71335796">
				<ele>954.4</ele>
				<time>2013-08-14T06:53:21Z</time>
				<hdop>1.0</hdop>
			</trkpt>
			<trkpt lat="46.88573534" lon="6.71334796">
				<ele>954.5</ele>
				<time>2013-08-14T06:53:23Z</time>
				<hdop>1.5</hdop>
			</trkpt>
			<trkpt lat="46.88573166" lon="6.71330962">
				<ele>954.7</ele>
				<time>2013-08-14T06:53:24Z</time>
				<hdop>1.5</hdop>
			</trkpt>
			<trkpt lat="46.88574304" lon="6.71327282">
				<ele>955.4</ele>
				<time>2013-08-14T06:53:26Z</time>
				<hdop>1.5</hdop>
			</trkpt>
			<trkpt lat="46.88574574" lon="6.71324877">
				<ele>956.8</ele>
				<time>2013-08-14T06:53:27Z</time>
				<hdop>1.5</hdop>
			</trkpt>
			<trkpt lat="46.88574106" lon="6.71324507">
				<ele>957.1</ele>
				<time>2013-08-14T06:53:28Z</time>
				<hdop>1.5</hdop>
			</trkpt>
			<trkpt lat="46.88572437" lon="6.71324112">
				<ele>958.1</ele>
				<time>2013-08-14T06:53:29Z</time>
				<hdop>2.0</hdop>
			</trkpt>
			<trkpt lat="46.88572543" lon="6.71323427">
				<ele>958.4</ele>
				<time>2013-08-14T06:53:30Z</time>
				<hdop>1.5</hdop>
			</trkpt>
			<trkpt lat="46.88573996" lon="6.7132245">
				<ele>958.1</ele>
				<time>2013-08-14T06:53:31Z</time>
				<hdop>1.5</hdop>
			</trkpt>
			<trkpt lat="46.88575636" lon="6.71319546">
				<ele>959.3</ele>
				<time>2013-08-14T06:53:32Z</time>
				<hdop>1.5</hdop>
			</trkpt>
			<trkpt lat="46.88576814" lon="6.71313178">
				<ele>959.6</ele>
				<time>2013-08-14T06:53:34Z</time>
				<hdop>1.5</hdop>
			</trkpt>
			<trkpt lat="46.88576365" lon="6.71312053">
				<ele>959.3</ele>
				<time>2013-08-14T06:53:35Z</time>
				<hdop>1.5</hdop>
			</trkpt>
			<trkpt lat="46.88577033" lon="6.71311097">
				<ele>959.2</ele>
				<time>2013-08-14T06:53:37Z</time>
				<hdop>1.5</hdop>
			</trkpt>
			<trkpt lat="46.88581365" lon="6.71313296">
				<ele>959.5</ele>
				<time>2013-08-14T06:53:38Z</time>
				<hdop>1.0</hdop>
			</trkpt>
			<trkpt lat="46.88581206" lon="6.71310166">
				<ele>959.6</ele>
				<time>2013-08-14T06:53:40Z</time>
				<hdop>1.5</hdop>
			</trkpt>
			<trkpt lat="46.8858216" lon="6.71308214">
				<ele>960.5</ele>
				<time>2013-08-14T06:53:41Z</time>
				<hdop>1.5</hdop>
			</trkpt>
			<trkpt lat="46.88582482" lon="6.7130865">
				<ele>960.1</ele>
				<time>2013-08-14T06:53:42Z</time>
				<hdop>1.5</hdop>
			</trkpt>
			<trkpt lat="46.88582412" lon="6.71304202">
				<ele>959.2</ele>
				<time>2013-08-14T06:53:44Z</time>
				<hdop>1.0</hdop>
			</trkpt>
			<trkpt lat="46.88583382" lon="6.71300486">
				<ele>958.9</ele>
				<time>2013-08-14T06:53:45Z</time>
				<hdop>1.0</hdop>
			</trkpt>
			<trkpt lat="46.88584255" lon="6.71298879">
				<ele>959.7</ele>
				<time>2013-08-14T06:53:46Z</time>
				<hdop>1.0</hdop>
			</trkpt>
			<trkpt lat="46.88585229" lon="6.7129751">
				<ele>960.1</ele>
				<time>2013-08-14T06:53:47Z</time>
				<hdop>1.0</hdop>
			</trkpt>
			<trkpt lat="46.88587196" lon="6.71294896">
				<ele>960.5</ele>
				<time>2013-08-14T06:53:49Z</time>
				<hdop>1.0</hdop>
			</trkpt>
			<trkpt lat="46.88585292" lon="6.71293581">
				<ele>961.3</ele>
				<time>2013-08-14T06:53:50Z</time>
				<hdop>1.0</hdop>
			</trkpt>
			<trkpt lat="46.8858466" lon="6.7129163">
				<ele>961.5</ele>
				<time>2013-08-14T06:53:51Z</time>
				<hdop>1.0</hdop>
			</trkpt>
			<trkpt lat="46.88585484" lon="6.71291005">
				<ele>961.8</ele>
				<time>2013-08-14T06:53:52Z</time>
				<hdop>1.0</hdop>
			</trkpt>
			<trkpt lat="46.88587892" lon="6.71289807">
				<ele>962.0</ele>
				<time>2013-08-14T06:53:54Z</time>
				<hdop>1.0</hdop>
			</trkpt>
			<trkpt lat="46.88587319" lon="6.71286495">
				<ele>961.8</ele>
				<time>2013-08-14T06:53:55Z</time>
				<hdop>1.0</hdop>
			</trkpt>
			<trkpt lat="46.88586335" lon="6.71284924">
				<ele>960.2</ele>
				<time>2013-08-14T06:53:57Z</time>
				<hdop>1.5</hdop>
			</trkpt>
			<trkpt lat="46.88589631" lon="6.71284326">
				<ele>961.3</ele>
				<time>2013-08-14T06:53:58Z</time>
				<hdop>1.5</hdop>
			</trkpt>
			<trkpt lat="46.88587509" lon="6.71280199">
				<ele>963.0</ele>
				<time>2013-08-14T06:54:00Z</time>
				<hdop>1.5</hdop>
			</trkpt>
			<trkpt lat="46.88588481" lon="6.71278483">
				<ele>962.6</ele>
				<time>2013-08-14T06:54:01Z</time>
				<hdop>1.5</hdop>
			</trkpt>
			<trkpt lat="46.88588713" lon="6.71275479">
				<ele>963.2</ele>
				<time>2013-08-14T06:54:02Z</time>
				<hdop>1.5</hdop>
			</trkpt>
			<trkpt lat="46.88588613" lon="6.71274963">
				<ele>963.2</ele>
				<time>2013-08-14T06:54:03Z</time>
				<hdop>1.5</hdop>
			</trkpt>
			<trkpt lat="46.88589792" lon="6.71271586">
				<ele>963.5</ele>
				<time>2013-08-14T06:54:05Z</time>
				<hdop>1.5</hdop>
			</trkpt>
			<trkpt lat="46.88590815" lon="6.71268956">
				<ele>963.4</ele>
				<time>2013-08-14T06:54:06Z</time>
				<hdop>1.5</hdop>
			</trkpt>
			<trkpt lat="46.88590964" lon="6.71266811">
				<ele>963.5</ele>
				<time>2013-08-14T06:54:07Z</time>
				<hdop>1.5</hdop>
			</trkpt>
			<trkpt lat="46.88591751" lon="6.71266938">
				<ele>964.0</ele>
				<time>2013-08-14T06:54:08Z</time>
				<hdop>1.5</hdop>
			</trkpt>
			<trkpt lat="46.88592198" lon="6.71261176">
				<ele>965.4</ele>
				<time>2013-08-14T06:54:10Z</time>
				<hdop>1.5</hdop>
			</trkpt>
			<trkpt lat="46.88591169" lon="6.71257473">
				<ele>965.3</ele>
				<time>2013-08-14T06:54:11Z</time>
				<hdop>1.5</hdop>
			</trkpt>
			<trkpt lat="46.88591705" lon="6.71258152">
				<ele>966.0</ele>
				<time>2013-08-14T06:54:12Z</time>
				<hdop>1.5</hdop>
			</trkpt>
			<trkpt lat="46.88591834" lon="6.71254124">
				<ele>966.4</ele>
				<time>2013-08-14T06:54:13Z</time>
				<hdop>1.5</hdop>
			</trkpt>
			<trkpt lat="46.88591629" lon="6.7125139">
				<ele>966.6</ele>
				<time>2013-08-14T06:54:14Z</time>
				<hdop>1.5</hdop>
			</trkpt>
			<trkpt lat="46.88591927" lon="6.71250317">
				<ele>966.7</ele>
				<time>2013-08-14T06:54:15Z</time>
				<hdop>1.5</hdop>
			</trkpt>
			<trkpt lat="46.88590705" lon="6.71248705">
				<ele>967.8</ele>
				<time>2013-08-14T06:54:16Z</time>
				<hdop>1.5</hdop>
			</trkpt>
			<trkpt lat="46.88591322" lon="6.71247829">
				<ele>968.0</ele>
				<time>2013-08-14T06:54:17Z</time>
				<hdop>1.5</hdop>
			</trkpt>
			<trkpt lat="46.88591707" lon="6.71246762">
				<ele>968.1</ele>
				<time>2013-08-14T06:54:18Z</time>
				<hdop>1.5</hdop>
			</trkpt>
			<trkpt lat="46.88594891" lon="6.71244069">
				<ele>968.1</ele>
				<time>2013-08-14T06:54:20Z</time>
				<hdop>1.0</hdop>
			</trkpt>
			<trkpt lat="46.885961" lon="6.71241981">
				<ele>968.1</ele>
				<time>2013-08-14T06:54:21Z</time>
				<hdop>1.0</hdop>
			</trkpt>
			<trkpt lat="46.88597319" lon="6.71240483">
				<ele>966.3</ele>
				<time>2013-08-14T06:54:22Z</time>
				<hdop>1.0</hdop>
			</trkpt>
			<trkpt lat="46.88598099" lon="6.71238828">
				<ele>966.4</ele>
				<time>2013-08-14T06:54:23Z</time>
				<hdop>1.0</hdop>
			</trkpt>
			<trkpt lat="46.8859876" lon="6.7123728">
				<ele>966.5</ele>
				<time>2013-08-14T06:54:24Z</time>
				<hdop>1.0</hdop>
			</trkpt>
			<trkpt lat="46.88599111" lon="6.71235891">
				<ele>966.7</ele>
				<time>2013-08-14T06:54:25Z</time>
				<hdop>1.0</hdop>
			</trkpt>
			<trkpt lat="46.88599487" lon="6.71234242">
				<ele>966.9</ele>
				<time>2013-08-14T06:54:26Z</time>
				<hdop>1.0</hdop>
			</trkpt>
			<trkpt lat="46.88599341" lon="6.71232358">
				<ele>966.1</ele>
				<time>2013-08-14T06:54:27Z</time>
				<hdop>1.0</hdop>
			</trkpt>
			<trkpt lat="46.88600423" lon="6.71230615">
				<ele>966.3</ele>
				<time>2013-08-14T06:54:28Z</time>
				<hdop>1.0</hdop>
			</trkpt>
			<trkpt lat="46.88601095" lon="6.71228672">
				<ele>966.6</ele>
				<time>2013-08-14T06:54:29Z</time>
				<hdop>1.0</hdop>
			</trkpt>
			<trkpt lat="46.88601863" lon="6.71227892">
				<ele>966.4</ele>
				<time>2013-08-14T06:54:30Z</time>
				<hdop>1.0</hdop>
			</trkpt>
			<trkpt lat="46.88602933" lon="6.71227253">
				<ele>967.2</ele>
				<time>2013-08-14T06:54:31Z</time>
				<hdop>1.0</hdop>
			</trkpt>
			<trkpt lat="46.88603268" lon="6.71225509">
				<ele>967.2</ele>
				<time>2013-08-14T06:54:32Z</time>
				<hdop>1.0</hdop>
			</trkpt>
			<trkpt lat="46.88603191" lon="6.71223492">
				<ele>966.8</ele>
				<time>2013-08-14T06:54:33Z</time>
				<hdop>1.0</hdop>
			</trkpt>
			<trkpt lat="46.88602775" lon="6.71222494">
				<ele>966.9</ele>
				<time>2013-08-14T06:54:34Z</time>
				<hdop>1.0</hdop>
			</trkpt>
			<trkpt lat="46.88605537" lon="6.71220679">
				<ele>967.0</ele>
				<time>2013-08-14T06:54:35Z</time>
				<hdop>1.0</hdop>
			</trkpt>
			<trkpt lat="46.88604912" lon="6.71217779">
				<ele>967.1</ele>
				<time>2013-08-14T06:54:36Z</time>
				<hdop>1.0</hdop>
			</trkpt>
			<trkpt lat="46.88606507" lon="6.71216254">
				<ele>966.0</ele>
				<time>2013-08-14T06:54:37Z</time>
				<hdop>1.0</hdop>
			</trkpt>
			<trkpt lat="46.88606138" lon="6.71215734">
				<ele>965.6</ele>
				<time>2013-08-14T06:54:38Z</time>
				<hdop>1.0</hdop>
			</trkpt>
			<trkpt lat="46.88606954" lon="6.71214944">
				<ele>965.8</ele>
				<time>2013-08-14T06:54:39Z</time>
				<hdop>1.0</hdop>
			</trkpt>
			<trkpt lat="46.88606882" lon="6.71213759">
				<ele>964.7</ele>
				<time>2013-08-14T06:54:40Z</time>
				<hdop>1.0</hdop>
			</trkpt>
			<trkpt lat="46.88605947" lon="6.71212133">
				<ele>963.3</ele>
				<time>2013-08-14T06:54:41Z</time>
				<hdop>1.0</hdop>
			</trkpt>
			<trkpt lat="46.88604943" lon="6.71210768">
				<ele>962.7</ele>
				<time>2013-08-14T06:54:42Z</time>
				<hdop>1.0</hdop>
			</trkpt>
			<trkpt lat="46.88604901" lon="6.71209147">
				<ele>961.8</ele>
				<time>2013-08-14T06:54:43Z</time>
				<hdop>1.0</hdop>
			</trkpt>
			<trkpt lat="46.88604539" lon="6.71207625">
				<ele>961.7</ele>
				<time>2013-08-14T06:54:44Z</time>
				<hdop>1.0</hdop>
			</trkpt>
			<trkpt lat="46.88604423" lon="6.71205707">
				<ele>961.9</ele>
				<time>2013-08-14T06:54:45Z</time>
				<hdop>1.0</hdop>
			</trkpt>
			<trkpt lat="46.88605442" lon="6.71203708">
				<ele>961.8</ele>
				<time>2013-08-14T06:54:46Z</time>
				<hdop>1.0</hdop>
			</trkpt>
			<trkpt lat="46.8860474" lon="6.71201484">
				<ele>962.0</ele>
				<time>2013-08-14T06:54:47Z</time>
				<hdop>1.0</hdop>
			</trkpt>
			<trkpt lat="46.88605805" lon="6.71200991">
				<ele>961.8</ele>
				<time>2013-08-14T06:54:48Z</time>
				<hdop>1.0</hdop>
			</trkpt>
			<trkpt lat="46.88605293" lon="6.7119856">
				<ele>962.6</ele>
				<time>2013-08-14T06:54:49Z</time>
				<hdop>1.0</hdop>
			</trkpt>
			<trkpt lat="46.88604293" lon="6.71196505">
				<ele>962.7</ele>
				<time>2013-08-14T06:54:50Z</time>
				<hdop>1.0</hdop>
			</trkpt>
			<trkpt lat="46.88603773" lon="6.71194631">
				<ele>963.2</ele>
				<time>2013-08-14T06:54:51Z</time>
				<hdop>1.0</hdop>
			</trkpt>
			<trkpt lat="46.88603767" lon="6.71193222">
				<ele>965.1</ele>
				<time>2013-08-14T06:54:52Z</time>
				<hdop>1.0</hdop>
			</trkpt>
			<trkpt lat="46.88603532" lon="6.71191617">
				<ele>965.0</ele>
				<time>2013-08-14T06:54:53Z</time>
				<hdop>1.0</hdop>
			</trkpt>
			<trkpt lat="46.88604144" lon="6.71190335">
				<ele>965.9</ele>
				<time>2013-08-14T06:54:54Z</time>
				<hdop>1.0</hdop>
			</trkpt>
			<trkpt lat="46.8860467" lon="6.71188857">
				<ele>965.7</ele>
				<time>2013-08-14T06:54:55Z</time>
				<hdop>1.0</hdop>
			</trkpt>
			<trkpt lat="46.88604604" lon="6.71186309">
				<ele>964.8</ele>
				<time>2013-08-14T06:54:56Z</time>
				<hdop>1.0</hdop>
			</trkpt>
			<trkpt lat="46.88605" lon="6.71185374">
				<ele>964.5</ele>
				<time>2013-08-14T06:54:57Z</time>
				<hdop>1.0</hdop>
			</trkpt>
			<trkpt lat="46.88605365" lon="6.7118434">
				<ele>963.8</ele>
				<time>2013-08-14T06:54:58Z</time>
				<hdop>1.0</hdop>
			</trkpt>
			<trkpt lat="46.88606013" lon="6.71183504">
				<ele>963.7</ele>
				<time>2013-08-14T06:54:59Z</time>
				<hdop>1.0</hdop>
			</trkpt>
			<trkpt lat="46.88606147" lon="6.71181917">
				<ele>963.5</ele>
				<time>2013-08-14T06:55:00Z</time>
				<hdop>1.0</hdop>
			</trkpt>
			<trkpt lat="46.88606479" lon="6.71180766">
				<ele>963.1</ele>
				<time>2013-08-14T06:55:01Z</time>
				<hdop>1.0</hdop>
			</trkpt>
			<trkpt lat="46.88606594" lon="6.71179436">
				<ele>962.8</ele>
				<time>2013-08-14T06:55:02Z</time>
				<hdop>1.0</hdop>
			</trkpt>
			<trkpt lat="46.88606222" lon="6.71177631">
				<ele>962.9</ele>
				<time>2013-08-14T06:55:03Z</time>
				<hdop>1.0</hdop>
			</trkpt>
			<trkpt lat="46.88606047" lon="6.71175798">
				<ele>962.8</ele>
				<time>2013-08-14T06:55:04Z</time>
				<hdop>1.0</hdop>
			</trkpt>
			<trkpt lat="46.88606257" lon="6.71174517">
				<ele>962.9</ele>
				<time>2013-08-14T06:55:05Z</time>
				<hdop>1.0</hdop>
			</trkpt>
			<trkpt lat="46.88606834" lon="6.71172596">
				<ele>962.9</ele>
				<time>2013-08-14T06:55:06Z</time>
				<hdop>1.0</hdop>
			</trkpt>
			<trkpt lat="46.88607145" lon="6.71172237">
				<ele>962.6</ele>
				<time>2013-08-14T06:55:07Z</time>
				<hdop>1.0</hdop>
			</trkpt>
			<trkpt lat="46.88607265" lon="6.71170228">
				<ele>962.7</ele>
				<time>2013-08-14T06:55:08Z</time>
				<hdop>1.0</hdop>
			</trkpt>
			<trkpt lat="46.88608072" lon="6.71168334">
				<ele>962.9</ele>
				<time>2013-08-14T06:55:09Z</time>
				<hdop>1.0</hdop>
			</trkpt>
			<trkpt lat="46.8860801" lon="6.71165748">
				<ele>962.8</ele>
				<time>2013-08-14T06:55:10Z</time>
				<hdop>1.0</hdop>
			</trkpt>
			<trkpt lat="46.88608807" lon="6.71163271">
				<ele>962.8</ele>
				<time>2013-08-14T06:55:11Z</time>
				<hdop>1.0</hdop>
			</trkpt>
			<trkpt lat="46.88608338" lon="6.71161882">
				<ele>963.4</ele>
				<time>2013-08-14T06:55:12Z</time>
				<hdop>1.0</hdop>
			</trkpt>
			<trkpt lat="46.88608341" lon="6.71159769">
				<ele>963.2</ele>
				<time>2013-08-14T06:55:13Z</time>
				<hdop>1.0</hdop>
			</trkpt>
			<trkpt lat="46.88608452" lon="6.71157862">
				<ele>963.3</ele>
				<time>2013-08-14T06:55:14Z</time>
				<hdop>1.0</hdop>
			</trkpt>
			<trkpt lat="46.88609579" lon="6.71157072">
				<ele>962.9</ele>
				<time>2013-08-14T06:55:15Z</time>
				<hdop>1.0</hdop>
			</trkpt>
			<trkpt lat="46.88609471" lon="6.71155329">
				<ele>963.0</ele>
				<time>2013-08-14T06:55:16Z</time>
				<hdop>1.0</hdop>
			</trkpt>
			<trkpt lat="46.88610209" lon="6.71153007">
				<ele>963.0</ele>
				<time>2013-08-14T06:55:17Z</time>
				<hdop>1.0</hdop>
			</trkpt>
			<trkpt lat="46.88611272" lon="6.71151866">
				<ele>962.4</ele>
				<time>2013-08-14T06:55:18Z</time>
				<hdop>1.0</hdop>
			</trkpt>
			<trkpt lat="46.8861181" lon="6.71149314">
				<ele>962.1</ele>
				<time>2013-08-14T06:55:19Z</time>
				<hdop>1.0</hdop>
			</trkpt>
			<trkpt lat="46.88612097" lon="6.71146893">
				<ele>962.1</ele>
				<time>2013-08-14T06:55:20Z</time>
				<hdop>1.0</hdop>
			</trkpt>
			<trkpt lat="46.88612558" lon="6.71145805">
				<ele>961.5</ele>
				<time>2013-08-14T06:55:21Z</time>
				<hdop>1.0</hdop>
			</trkpt>
			<trkpt lat="46.88613619" lon="6.71144015">
				<ele>961.6</ele>
				<time>2013-08-14T06:55:22Z</time>
				<hdop>1.0</hdop>
			</trkpt>
			<trkpt lat="46.88614803" lon="6.71141142">
				<ele>962.1</ele>
				<time>2013-08-14T06:55:23Z</time>
				<hdop>1.0</hdop>
			</trkpt>
			<trkpt lat="46.88615238" lon="6.71140153">
				<ele>962.5</ele>
				<time>2013-08-14T06:55:24Z</time>
				<hdop>1.0</hdop>
			</trkpt>
			<trkpt lat="46.88615433" lon="6.71138788">
				<ele>962.5</ele>
				<time>2013-08-14T06:55:25Z</time>
				<hdop>1.0</hdop>
			</trkpt>
			<trkpt lat="46.88615463" lon="6.71137115">
				<ele>962.9</ele>
				<time>2013-08-14T06:55:26Z</time>
				<hdop>1.0</hdop>
			</trkpt>
			<trkpt lat="46.88614884" lon="6.71134944">
				<ele>963.5</ele>
				<time>2013-08-14T06:55:27Z</time>
				<hdop>1.0</hdop>
			</trkpt>
			<trkpt lat="46.88615406" lon="6.71134228">
				<ele>963.9</ele>
				<time>2013-08-14T06:55:28Z</time>
				<hdop>1.0</hdop>
			</trkpt>
			<trkpt lat="46.88615701" lon="6.71129748">
				<ele>965.8</ele>
				<time>2013-08-14T06:55:29Z</time>
				<hdop>1.0</hdop>
			</trkpt>
			<trkpt lat="46.8861439" lon="6.71129241">
				<ele>966.5</ele>
				<time>2013-08-14T06:55:30Z</time>
				<hdop>1.0</hdop>
			</trkpt>
			<trkpt lat="46.8861448" lon="6.71128357">
				<ele>969.0</ele>
				<time>2013-08-14T06:55:31Z</time>
				<hdop>1.0</hdop>
			</trkpt>
			<trkpt lat="46.88615029" lon="6.71126341">
				<ele>970.9</ele>
				<time>2013-08-14T06:55:32Z</time>
				<hdop>1.0</hdop>
			</trkpt>
			<trkpt lat="46.88615563" lon="6.71123994">
				<ele>972.2</ele>
				<time>2013-08-14T06:55:33Z</time>
				<hdop>1.5</hdop>
			</trkpt>
			<trkpt lat="46.88614641" lon="6.71121213">
				<ele>973.2</ele>
				<time>2013-08-14T06:55:34Z</time>
				<hdop>1.5</hdop>
			</trkpt>
			<trkpt lat="46.88615549" lon="6.71121011">
				<ele>969.6</ele>
				<time>2013-08-14T06:55:35Z</time>
				<hdop>1.0</hdop>
			</trkpt>
			<trkpt lat="46.88616098" lon="6.71120252">
				<ele>969.4</ele>
				<time>2013-08-14T06:55:36Z</time>
				<hdop>1.0</hdop>
			</trkpt>
			<trkpt lat="46.88617673" lon="6.71119531">
				<ele>969.3</ele>
				<time>2013-08-14T06:55:37Z</time>
				<hdop>1.5</hdop>
			</trkpt>
			<trkpt lat="46.8861748" lon="6.71116538">
				<ele>969.5</ele>
				<time>2013-08-14T06:55:38Z</time>
				<hdop>1.5</hdop>
			</trkpt>
			<trkpt lat="46.88617932" lon="6.7111531">
				<ele>969.5</ele>
				<time>2013-08-14T06:55:39Z</time>
				<hdop>1.5</hdop>
			</trkpt>
			<trkpt lat="46.88618301" lon="6.71114651">
				<ele>969.3</ele>
				<time>2013-08-14T06:55:40Z</time>
				<hdop>1.5</hdop>
			</trkpt>
			<trkpt lat="46.88618768" lon="6.71111715">
				<ele>968.5</ele>
				<time>2013-08-14T06:55:41Z</time>
				<hdop>1.5</hdop>
			</trkpt>
			<trkpt lat="46.8862011" lon="6.71110324">
				<ele>967.8</ele>
				<time>2013-08-14T06:55:42Z</time>
				<hdop>1.5</hdop>
			</trkpt>
			<trkpt lat="46.886215" lon="6.71109856">
				<ele>967.4</ele>
				<time>2013-08-14T06:55:43Z</time>
				<hdop>1.5</hdop>
			</trkpt>
			<trkpt lat="46.88622897" lon="6.71108734">
				<ele>966.9</ele>
				<time>2013-08-14T06:55:44Z</time>
				<hdop>1.5</hdop>
			</trkpt>
			<trkpt lat="46.88622564" lon="6.7110673">
				<ele>967.4</ele>
				<time>2013-08-14T06:55:45Z</time>
				<hdop>1.5</hdop>
			</trkpt>
			<trkpt lat="46.88616332" lon="6.71099628">
				<ele>968.0</ele>
				<time>2013-08-14T06:55:46Z</time>
				<hdop>1.0</hdop>
			</trkpt>
			<trkpt lat="46.88615405" lon="6.71097172">
				<ele>967.7</ele>
				<time>2013-08-14T06:55:47Z</time>
				<hdop>1.0</hdop>
			</trkpt>
			<trkpt lat="46.88614338" lon="6.71094766">
				<ele>967.7</ele>
				<time>2013-08-14T06:55:48Z</time>
				<hdop>1.0</hdop>
			</trkpt>
			<trkpt lat="46.88615859" lon="6.7109476">
				<ele>965.8</ele>
				<time>2013-08-14T06:55:50Z</time>
				<hdop>1.0</hdop>
			</trkpt>
			<trkpt lat="46.88616023" lon="6.71093405">
				<ele>965.5</ele>
				<time>2013-08-14T06:55:51Z</time>
				<hdop>1.0</hdop>
			</trkpt>
			<trkpt lat="46.88615947" lon="6.71092019">
				<ele>965.7</ele>
				<time>2013-08-14T06:55:52Z</time>
				<hdop>1.0</hdop>
			</trkpt>
			<trkpt lat="46.88616516" lon="6.71091141">
				<ele>966.1</ele>
				<time>2013-08-14T06:55:53Z</time>
				<hdop>1.0</hdop>
			</trkpt>
			<trkpt lat="46.88616795" lon="6.71089389">
				<ele>966.5</ele>
				<time>2013-08-14T06:55:54Z</time>
				<hdop>1.0</hdop>
			</trkpt>
			<trkpt lat="46.88617126" lon="6.71087287">
				<ele>966.6</ele>
				<time>2013-08-14T06:55:55Z</time>
				<hdop>1.0</hdop>
			</trkpt>
			<trkpt lat="46.8861736" lon="6.71084619">
				<ele>967.0</ele>
				<time>2013-08-14T06:55:56Z</time>
				<hdop>1.0</hdop>
			</trkpt>
			<trkpt lat="46.88617239" lon="6.71082592">
				<ele>967.3</ele>
				<time>2013-08-14T06:55:57Z</time>
				<hdop>1.0</hdop>
			</trkpt>
			<trkpt lat="46.88618129" lon="6.71081566">
				<ele>968.0</ele>
				<time>2013-08-14T06:55:58Z</time>
				<hdop>1.0</hdop>
			</trkpt>
			<trkpt lat="46.88618168" lon="6.71079555">
				<ele>968.1</ele>
				<time>2013-08-14T06:55:59Z</time>
				<hdop>1.0</hdop>
			</trkpt>
			<trkpt lat="46.88618692" lon="6.71077821">
				<ele>968.3</ele>
				<time>2013-08-14T06:56:00Z</time>
				<hdop>1.0</hdop>
			</trkpt>
			<trkpt lat="46.88619775" lon="6.71076688">
				<ele>968.3</ele>
				<time>2013-08-14T06:56:01Z</time>
				<hdop>1.0</hdop>
			</trkpt>
			<trkpt lat="46.88619564" lon="6.7107512">
				<ele>968.5</ele>
				<time>2013-08-14T06:56:02Z</time>
				<hdop>1.0</hdop>
			</trkpt>
			<trkpt lat="46.88619463" lon="6.71072418">
				<ele>969.3</ele>
				<time>2013-08-14T06:56:03Z</time>
				<hdop>1.5</hdop>
			</trkpt>
			<trkpt lat="46.8861973" lon="6.71070926">
				<ele>969.2</ele>
				<time>2013-08-14T06:56:04Z</time>
				<hdop>1.0</hdop>
			</trkpt>
			<trkpt lat="46.88619091" lon="6.7106886">
				<ele>969.0</ele>
				<time>2013-08-14T06:56:05Z</time>
				<hdop>1.5</hdop>
			</trkpt>
			<trkpt lat="46.88618687" lon="6.71066377">
				<ele>969.4</ele>
				<time>2013-08-14T06:56:06Z</time>
				<hdop>1.5</hdop>
			</trkpt>
			<trkpt lat="46.88619138" lon="6.71065597">
				<ele>970.2</ele>
				<time>2013-08-14T06:56:07Z</time>
				<hdop>1.5</hdop>
			</trkpt>
			<trkpt lat="46.88618707" lon="6.71064934">
				<ele>972.0</ele>
				<time>2013-08-14T06:56:08Z</time>
				<hdop>1.5</hdop>
			</trkpt>
			<trkpt lat="46.88619795" lon="6.7106304">
				<ele>972.5</ele>
				<time>2013-08-14T06:56:09Z</time>
				<hdop>1.5</hdop>
			</trkpt>
			<trkpt lat="46.88619571" lon="6.71061935">
				<ele>972.9</ele>
				<time>2013-08-14T06:56:11Z</time>
				<hdop>1.5</hdop>
			</trkpt>
			<trkpt lat="46.88619562" lon="6.71061798">
				<ele>972.7</ele>
				<time>2013-08-14T06:56:12Z</time>
				<hdop>1.5</hdop>
			</trkpt>
			<trkpt lat="46.88620015" lon="6.71058786">
				<ele>972.2</ele>
				<time>2013-08-14T06:56:13Z</time>
				<hdop>1.5</hdop>
			</trkpt>
			<trkpt lat="46.88618483" lon="6.71056872">
				<ele>971.6</ele>
				<time>2013-08-14T06:56:15Z</time>
				<hdop>2.0</hdop>
			</trkpt>
			<trkpt lat="46.8861653" lon="6.71054893">
				<ele>972.5</ele>
				<time>2013-08-14T06:56:16Z</time>
				<hdop>2.0</hdop>
			</trkpt>
			<trkpt lat="46.88616399" lon="6.71050764">
				<ele>973.2</ele>
				<time>2013-08-14T06:56:18Z</time>
				<hdop>2.0</hdop>
			</trkpt>
			<trkpt lat="46.88616575" lon="6.71052472">
				<ele>974.0</ele>
				<time>2013-08-14T06:56:19Z</time>
				<hdop>2.0</hdop>
			</trkpt>
			<trkpt lat="46.88616635" lon="6.71052154">
				<ele>973.9</ele>
				<time>2013-08-14T06:56:20Z</time>
				<hdop>3.0</hdop>
			</trkpt>
			<trkpt lat="46.88616271" lon="6.71050997">
				<ele>974.6</ele>
				<time>2013-08-14T06:56:21Z</time>
				<hdop>2.0</hdop>
			</trkpt>
			<trkpt lat="46.8861371" lon="6.71048114">
				<ele>976.7</ele>
				<time>2013-08-14T06:56:23Z</time>
				<hdop>2.0</hdop>
			</trkpt>
			<trkpt lat="46.8861437" lon="6.71044848">
				<ele>977.4</ele>
				<time>2013-08-14T06:56:25Z</time>
				<hdop>3.0</hdop>
			</trkpt>
			<trkpt lat="46.88614864" lon="6.71042126">
				<ele>977.9</ele>
				<time>2013-08-14T06:56:26Z</time>
				<hdop>2.0</hdop>
			</trkpt>
			<trkpt lat="46.88615737" lon="6.71040376">
				<ele>978.3</ele>
				<time>2013-08-14T06:56:27Z</time>
				<hdop>1.5</hdop>
			</trkpt>
			<trkpt lat="46.88616387" lon="6.71039007">
				<ele>978.6</ele>
				<time>2013-08-14T06:56:28Z</time>
				<hdop>2.0</hdop>
			</trkpt>
			<trkpt lat="46.88617286" lon="6.71039079">
				<ele>979.5</ele>
				<time>2013-08-14T06:56:29Z</time>
				<hdop>2.0</hdop>
			</trkpt>
			<trkpt lat="46.8861865" lon="6.71039433">
				<ele>980.1</ele>
				<time>2013-08-14T06:56:30Z</time>
				<hdop>2.0</hdop>
			</trkpt>
			<trkpt lat="46.88621593" lon="6.71033965">
				<ele>981.0</ele>
				<time>2013-08-14T06:56:31Z</time>
				<hdop>2.0</hdop>
			</trkpt>
			<trkpt lat="46.88622088" lon="6.71030078">
				<ele>981.8</ele>
				<time>2013-08-14T06:56:32Z</time>
				<hdop>2.0</hdop>
			</trkpt>
			<trkpt lat="46.88623797" lon="6.71024659">
				<ele>982.6</ele>
				<time>2013-08-14T06:56:33Z</time>
				<hdop>2.0</hdop>
			</trkpt>
			<trkpt lat="46.88623695" lon="6.71020817">
				<ele>983.3</ele>
				<time>2013-08-14T06:56:34Z</time>
				<hdop>2.0</hdop>
			</trkpt>
			<trkpt lat="46.88623929" lon="6.71017674">
				<ele>983.9</ele>
				<time>2013-08-14T06:56:35Z</time>
				<hdop>2.0</hdop>
			</trkpt>
			<trkpt lat="46.88623435" lon="6.71015317">
				<ele>984.8</ele>
				<time>2013-08-14T06:56:36Z</time>
				<hdop>2.0</hdop>
			</trkpt>
			<trkpt lat="46.88624431" lon="6.71014689">
				<ele>985.4</ele>
				<time>2013-08-14T06:56:38Z</time>
				<hdop>2.0</hdop>
			</trkpt>
			<trkpt lat="46.88624346" lon="6.71011926">
				<ele>985.3</ele>
				<time>2013-08-14T06:56:39Z</time>
				<hdop>2.0</hdop>
			</trkpt>
			<trkpt lat="46.88623922" lon="6.71009926">
				<ele>984.8</ele>
				<time>2013-08-14T06:56:40Z</time>
				<hdop>2.0</hdop>
			</trkpt>
			<trkpt lat="46.88626001" lon="6.7100844">
				<ele>985.7</ele>
				<time>2013-08-14T06:56:41Z</time>
				<hdop>2.0</hdop>
			</trkpt>
			<trkpt lat="46.88624177" lon="6.71004978">
				<ele>986.3</ele>
				<time>2013-08-14T06:56:43Z</time>
				<hdop>1.5</hdop>
			</trkpt>
			<trkpt lat="46.88624124" lon="6.71004427">
				<ele>987.0</ele>
				<time>2013-08-14T06:56:44Z</time>
				<hdop>1.5</hdop>
			</trkpt>
			<trkpt lat="46.88622546" lon="6.71002727">
				<ele>987.9</ele>
				<time>2013-08-14T06:56:45Z</time>
				<hdop>1.5</hdop>
			</trkpt>
			<trkpt lat="46.88622151" lon="6.71002113">
				<ele>988.0</ele>
				<time>2013-08-14T06:56:46Z</time>
				<hdop>2.0</hdop>
			</trkpt>
			<trkpt lat="46.88622053" lon="6.71001559">
				<ele>988.3</ele>
				<time>2013-08-14T06:56:47Z</time>
				<hdop>3.0</hdop>
			</trkpt>
			<trkpt lat="46.88621941" lon="6.70998837">
				<ele>989.0</ele>
				<time>2013-08-14T06:56:48Z</time>
				<hdop>2.0</hdop>
			</trkpt>
			<trkpt lat="46.88619522" lon="6.70995281">
				<ele>989.4</ele>
				<time>2013-08-14T06:56:49Z</time>
				<hdop>2.0</hdop>
			</trkpt>
			<trkpt lat="46.8861907" lon="6.70994585">
				<ele>989.6</ele>
				<time>2013-08-14T06:56:50Z</time>
				<hdop>3.0</hdop>
			</trkpt>
			<trkpt lat="46.88620404" lon="6.70990395">
				<ele>989.2</ele>
				<time>2013-08-14T06:56:52Z</time>
				<hdop>3.0</hdop>
			</trkpt>
			<trkpt lat="46.88620482" lon="6.7098895">
				<ele>990.9</ele>
				<time>2013-08-14T06:56:53Z</time>
				<hdop>2.0</hdop>
			</trkpt>
			<trkpt lat="46.88620567" lon="6.70985988">
				<ele>991.5</ele>
				<time>2013-08-14T06:56:54Z</time>
				<hdop>3.0</hdop>
			</trkpt>
			<trkpt lat="46.88621901" lon="6.70981178">
				<ele>991.7</ele>
				<time>2013-08-14T06:56:56Z</time>
				<hdop>3.0</hdop>
			</trkpt>
			<trkpt lat="46.88621835" lon="6.70980499">
				<ele>991.4</ele>
				<time>2013-08-14T06:56:57Z</time>
				<hdop>3.0</hdop>
			</trkpt>
			<trkpt lat="46.88624709" lon="6.70974998">
				<ele>992.5</ele>
				<time>2013-08-14T06:56:59Z</time>
				<hdop>1.5</hdop>
			</trkpt>
			<trkpt lat="46.88625708" lon="6.70973777">
				<ele>993.2</ele>
				<time>2013-08-14T06:57:00Z</time>
				<hdop>1.5</hdop>
			</trkpt>
			<trkpt lat="46.88628133" lon="6.70970825">
				<ele>994.3</ele>
				<time>2013-08-14T06:57:01Z</time>
				<hdop>1.5</hdop>
			</trkpt>
			<trkpt lat="46.88630289" lon="6.70970203">
				<ele>994.6</ele>
				<time>2013-08-14T06:57:02Z</time>
				<hdop>1.5</hdop>
			</trkpt>
			<trkpt lat="46.88631198" lon="6.70967083">
				<ele>994.5</ele>
				<time>2013-08-14T06:57:03Z</time>
				<hdop>1.5</hdop>
			</trkpt>
			<trkpt lat="46.88633218" lon="6.70964488">
				<ele>995.0</ele>
				<time>2013-08-14T06:57:05Z</time>
				<hdop>1.5</hdop>
			</trkpt>
			<trkpt lat="46.88633677" lon="6.70961494">
				<ele>995.2</ele>
				<time>2013-08-14T06:57:06Z</time>
				<hdop>1.5</hdop>
			</trkpt>
			<trkpt lat="46.88632176" lon="6.70959218">
				<ele>995.2</ele>
				<time>2013-08-14T06:57:07Z</time>
				<hdop>1.5</hdop>
			</trkpt>
			<trkpt lat="46.88632242" lon="6.70958432">
				<ele>995.3</ele>
				<time>2013-08-14T06:57:08Z</time>
				<hdop>2.0</hdop>
			</trkpt>
			<trkpt lat="46.88631949" lon="6.70957573">
				<ele>995.5</ele>
				<time>2013-08-14T06:57:09Z</time>
				<hdop>1.5</hdop>
			</trkpt>
			<trkpt lat="46.88630238" lon="6.70958135">
				<ele>996.5</ele>
				<time>2013-08-14T06:57:10Z</time>
				<hdop>1.5</hdop>
			</trkpt>
			<trkpt lat="46.88628016" lon="6.70957129">
				<ele>996.5</ele>
				<time>2013-08-14T06:57:11Z</time>
				<hdop>1.5</hdop>
			</trkpt>
			<trkpt lat="46.88625627" lon="6.70954671">
				<ele>996.6</ele>
				<time>2013-08-14T06:57:12Z</time>
				<hdop>1.5</hdop>
			</trkpt>
			<trkpt lat="46.88625022" lon="6.70954267">
				<ele>996.6</ele>
				<time>2013-08-14T06:57:13Z</time>
				<hdop>3.0</hdop>
			</trkpt>
			<trkpt lat="46.88625168" lon="6.70953573">
				<ele>996.3</ele>
				<time>2013-08-14T06:57:14Z</time>
				<hdop>2.0</hdop>
			</trkpt>
			<trkpt lat="46.88625058" lon="6.70953314">
				<ele>996.4</ele>
				<time>2013-08-14T06:57:15Z</time>
				<hdop>2.0</hdop>
			</trkpt>
			<trkpt lat="46.88627232" lon="6.7095087">
				<ele>996.1</ele>
				<time>2013-08-14T06:57:16Z</time>
				<hdop>1.0</hdop>
			</trkpt>
			<trkpt lat="46.88627117" lon="6.70950179">
				<ele>996.1</ele>
				<time>2013-08-14T06:57:17Z</time>
				<hdop>1.5</hdop>
			</trkpt>
			<trkpt lat="46.88628099" lon="6.70949748">
				<ele>996.6</ele>
				<time>2013-08-14T06:57:18Z</time>
				<hdop>1.0</hdop>
			</trkpt>
			<trkpt lat="46.88628272" lon="6.70949565">
				<ele>996.8</ele>
				<time>2013-08-14T06:57:19Z</time>
				<hdop>1.0</hdop>
			</trkpt>
			<trkpt lat="46.88628876" lon="6.70948685">
				<ele>996.9</ele>
				<time>2013-08-14T06:57:20Z</time>
				<hdop>1.0</hdop>
			</trkpt>
			<trkpt lat="46.88628866" lon="6.70947733">
				<ele>996.8</ele>
				<time>2013-08-14T06:57:21Z</time>
				<hdop>1.0</hdop>
			</trkpt>
			<trkpt lat="46.88629038" lon="6.70947269">
				<ele>997.0</ele>
				<time>2013-08-14T06:57:22Z</time>
				<hdop>1.0</hdop>
			</trkpt>
			<trkpt lat="46.88628794" lon="6.70944566">
				<ele>997.2</ele>
				<time>2013-08-14T06:57:23Z</time>
				<hdop>1.0</hdop>
			</trkpt>
			<trkpt lat="46.88629551" lon="6.70942395">
				<ele>997.8</ele>
				<time>2013-08-14T06:57:24Z</time>
				<hdop>1.0</hdop>
			</trkpt>
			<trkpt lat="46.88629912" lon="6.70940436">
				<ele>998.5</ele>
				<time>2013-08-14T06:57:25Z</time>
				<hdop>1.0</hdop>
			</trkpt>
			<trkpt lat="46.88630564" lon="6.70937377">
				<ele>998.9</ele>
				<time>2013-08-14T06:57:26Z</time>
				<hdop>1.0</hdop>
			</trkpt>
			<trkpt lat="46.88631024" lon="6.70935374">
				<ele>999.6</ele>
				<time>2013-08-14T06:57:27Z</time>
				<hdop>1.0</hdop>
			</trkpt>
			<trkpt lat="46.88631176" lon="6.70932743">
				<ele>999.4</ele>
				<time>2013-08-14T06:57:28Z</time>
				<hdop>1.0</hdop>
			</trkpt>
			<trkpt lat="46.88630113" lon="6.70931118">
				<ele>998.8</ele>
				<time>2013-08-14T06:57:29Z</time>
				<hdop>1.0</hdop>
			</trkpt>
			<trkpt lat="46.88629733" lon="6.70928045">
				<ele>997.6</ele>
				<time>2013-08-14T06:57:30Z</time>
				<hdop>1.0</hdop>
			</trkpt>
			<trkpt lat="46.88629555" lon="6.70926511">
				<ele>997.4</ele>
				<time>2013-08-14T06:57:31Z</time>
				<hdop>1.5</hdop>
			</trkpt>
			<trkpt lat="46.8862995" lon="6.70924756">
				<ele>997.2</ele>
				<time>2013-08-14T06:57:32Z</time>
				<hdop>1.0</hdop>
			</trkpt>
			<trkpt lat="46.88630476" lon="6.70922254">
				<ele>996.8</ele>
				<time>2013-08-14T06:57:33Z</time>
				<hdop>1.0</hdop>
			</trkpt>
			<trkpt lat="46.88631152" lon="6.70920667">
				<ele>996.9</ele>
				<time>2013-08-14T06:57:34Z</time>
				<hdop>1.0</hdop>
			</trkpt>
			<trkpt lat="46.88627733" lon="6.70915782">
				<ele>999.1</ele>
				<time>2013-08-14T06:57:36Z</time>
				<hdop>1.5</hdop>
			</trkpt>
			<trkpt lat="46.8862842" lon="6.70912012">
				<ele>999.3</ele>
				<time>2013-08-14T06:57:37Z</time>
				<hdop>1.5</hdop>
			</trkpt>
			<trkpt lat="46.88627977" lon="6.70909843">
				<ele>998.9</ele>
				<time>2013-08-14T06:57:38Z</time>
				<hdop>1.5</hdop>
			</trkpt>
			<trkpt lat="46.8862494" lon="6.70908492">
				<ele>998.8</ele>
				<time>2013-08-14T06:57:39Z</time>
				<hdop>1.0</hdop>
			</trkpt>
			<trkpt lat="46.88623219" lon="6.70906471">
				<ele>998.8</ele>
				<time>2013-08-14T06:57:40Z</time>
				<hdop>1.0</hdop>
			</trkpt>
			<trkpt lat="46.88623113" lon="6.70905197">
				<ele>999.1</ele>
				<time>2013-08-14T06:57:41Z</time>
				<hdop>1.0</hdop>
			</trkpt>
			<trkpt lat="46.88621893" lon="6.70904985">
				<ele>998.7</ele>
				<time>2013-08-14T06:57:43Z</time>
				<hdop>1.5</hdop>
			</trkpt>
			<trkpt lat="46.88623008" lon="6.70904708">
				<ele>999.2</ele>
				<time>2013-08-14T06:57:44Z</time>
				<hdop>1.5</hdop>
			</trkpt>
			<trkpt lat="46.8862348" lon="6.70903666">
				<ele>998.6</ele>
				<time>2013-08-14T06:57:45Z</time>
				<hdop>1.5</hdop>
			</trkpt>
			<trkpt lat="46.88622947" lon="6.70902545">
				<ele>997.2</ele>
				<time>2013-08-14T06:57:46Z</time>
				<hdop>1.5</hdop>
			</trkpt>
			<trkpt lat="46.88622677" lon="6.70902442">
				<ele>997.1</ele>
				<time>2013-08-14T06:57:47Z</time>
				<hdop>1.5</hdop>
			</trkpt>
			<trkpt lat="46.88622378" lon="6.70901525">
				<ele>996.9</ele>
				<time>2013-08-14T06:57:48Z</time>
				<hdop>1.5</hdop>
			</trkpt>
			<trkpt lat="46.8862241" lon="6.70900808">
				<ele>997.3</ele>
				<time>2013-08-14T06:57:49Z</time>
				<hdop>1.0</hdop>
			</trkpt>
			<trkpt lat="46.88622687" lon="6.70900313">
				<ele>997.5</ele>
				<time>2013-08-14T06:57:50Z</time>
				<hdop>1.0</hdop>
			</trkpt>
			<trkpt lat="46.88622946" lon="6.70899397">
				<ele>997.9</ele>
				<time>2013-08-14T06:57:51Z</time>
				<hdop>1.0</hdop>
			</trkpt>
			<trkpt lat="46.88621865" lon="6.70898264">
				<ele>997.7</ele>
				<time>2013-08-14T06:57:52Z</time>
				<hdop>1.5</hdop>
			</trkpt>
			<trkpt lat="46.88622266" lon="6.70897538">
				<ele>998.1</ele>
				<time>2013-08-14T06:57:53Z</time>
				<hdop>1.0</hdop>
			</trkpt>
			<trkpt lat="46.88622104" lon="6.70896999">
				<ele>998.3</ele>
				<time>2013-08-14T06:57:54Z</time>
				<hdop>1.0</hdop>
			</trkpt>
			<trkpt lat="46.88622285" lon="6.70896451">
				<ele>998.3</ele>
				<time>2013-08-14T06:57:55Z</time>
				<hdop>1.0</hdop>
			</trkpt>
			<trkpt lat="46.8862215" lon="6.70896141">
				<ele>998.4</ele>
				<time>2013-08-14T06:57:56Z</time>
				<hdop>1.0</hdop>
			</trkpt>
			<trkpt lat="46.88622113" lon="6.70896031">
				<ele>998.4</ele>
				<time>2013-08-14T06:57:57Z</time>
				<hdop>1.5</hdop>
			</trkpt>
			<trkpt lat="46.88622106" lon="6.70895979">
				<ele>998.4</ele>
				<time>2013-08-14T06:57:58Z</time>
				<hdop>1.5</hdop>
			</trkpt>
			<trkpt lat="46.88622106" lon="6.70895955">
				<ele>998.4</ele>
				<time>2013-08-14T06:57:59Z</time>
				<hdop>1.5</hdop>
			</trkpt>
			<trkpt lat="46.88622105" lon="6.70895938">
				<ele>998.5</ele>
				<time>2013-08-14T06:58:00Z</time>
				<hdop>1.5</hdop>
			</trkpt>
			<trkpt lat="46.8862211" lon="6.7089593">
				<ele>998.5</ele>
				<time>2013-08-14T06:58:01Z</time>
				<hdop>1.5</hdop>
			</trkpt>
			<trkpt lat="46.88622112" lon="6.70895927">
				<ele>998.5</ele>
				<time>2013-08-14T06:58:02Z</time>
				<hdop>1.5</hdop>
			</trkpt>
			<trkpt lat="46.88622111" lon="6.70895922">
				<ele>998.5</ele>
				<time>2013-08-14T06:58:03Z</time>
				<hdop>1.5</hdop>
			</trkpt>
			<trkpt lat="46.88622107" lon="6.70895917">
				<ele>998.5</ele>
				<time>2013-08-14T06:58:04Z</time>
				<hdop>1.5</hdop>
			</trkpt>
			<trkpt lat="46.88622106" lon="6.70895916">
				<ele>998.5</ele>
				<time>2013-08-14T06:58:05Z</time>
				<hdop>1.5</hdop>
			</trkpt>
			<trkpt lat="46.88622106" lon="6.70895896">
				<ele>998.5</ele>
				<time>2013-08-14T06:58:07Z</time>
				<hdop>1.5</hdop>
			</trkpt>
			<trkpt lat="46.88622103" lon="6.70895891">
				<ele>998.5</ele>
				<time>2013-08-14T06:58:08Z</time>
				<hdop>1.5</hdop>
			</trkpt>
			<trkpt lat="46.88622101" lon="6.7089589">
				<ele>998.5</ele>
				<time>2013-08-14T06:58:09Z</time>
				<hdop>1.5</hdop>
			</trkpt>
			<trkpt lat="46.886221" lon="6.7089589">
				<ele>998.5</ele>
				<time>2013-08-14T06:58:10Z</time>
				<hdop>1.5</hdop>
			</trkpt>
			<trkpt lat="46.88622099" lon="6.70895889">
				<ele>998.5</ele>
				<time>2013-08-14T06:58:11Z</time>
				<hdop>1.5</hdop>
			</trkpt>
			<trkpt lat="46.88622095" lon="6.70895886">
				<ele>998.5</ele>
				<time>2013-08-14T06:58:12Z</time>
				<hdop>1.5</hdop>
			</trkpt>
			<trkpt lat="46.88622091" lon="6.7089588">
				<ele>998.5</ele>
				<time>2013-08-14T06:58:13Z</time>
				<hdop>1.5</hdop>
			</trkpt>
			<trkpt lat="46.88622091" lon="6.70895874">
				<ele>998.5</ele>
				<time>2013-08-14T06:58:14Z</time>
				<hdop>1.5</hdop>
			</trkpt>
			<trkpt lat="46.88622084" lon="6.70895871">
				<ele>998.5</ele>
				<time>2013-08-14T06:58:15Z</time>
				<hdop>1.5</hdop>
			</trkpt>
			<trkpt lat="46.88622084" lon="6.70895871">
				<ele>998.5</ele>
				<time>2013-08-14T06:58:16Z</time>
				<hdop>2.0</hdop>
			</trkpt>
			<trkpt lat="46.88622081" lon="6.70895867">
				<ele>998.5</ele>
				<time>2013-08-14T06:58:17Z</time>
				<hdop>2.0</hdop>
			</trkpt>
			<trkpt lat="46.88621959" lon="6.7089549">
				<ele>998.4</ele>
				<time>2013-08-14T06:58:18Z</time>
				<hdop>1.5</hdop>
			</trkpt>
			<trkpt lat="46.88621315" lon="6.70889515">
				<ele>998.3</ele>
				<time>2013-08-14T06:58:19Z</time>
				<hdop>2.0</hdop>
			</trkpt>
			<trkpt lat="46.88619723" lon="6.70886998">
				<ele>999.1</ele>
				<time>2013-08-14T06:58:20Z</time>
				<hdop>2.0</hdop>
			</trkpt>
			<trkpt lat="46.8861812" lon="6.70883513">
				<ele>998.7</ele>
				<time>2013-08-14T06:58:21Z</time>
				<hdop>2.0</hdop>
			</trkpt>
			<trkpt lat="46.88617758" lon="6.70882612">
				<ele>998.9</ele>
				<time>2013-08-14T06:58:22Z</time>
				<hdop>2.0</hdop>
			</trkpt>
			<trkpt lat="46.88616114" lon="6.7088023">
				<ele>998.4</ele>
				<time>2013-08-14T06:58:23Z</time>
				<hdop>2.0</hdop>
			</trkpt>
			<trkpt lat="46.88612827" lon="6.7087797">
				<ele>998.3</ele>
				<time>2013-08-14T06:58:24Z</time>
				<hdop>2.0</hdop>
			</trkpt>
			<trkpt lat="46.88610929" lon="6.70874691">
				<ele>998.8</ele>
				<time>2013-08-14T06:58:25Z</time>
				<hdop>2.0</hdop>
			</trkpt>
			<trkpt lat="46.88608795" lon="6.70872169">
				<ele>999.4</ele>
				<time>2013-08-14T06:58:26Z</time>
				<hdop>2.0</hdop>
			</trkpt>
			<trkpt lat="46.88609161" lon="6.7086797">
				<ele>999.8</ele>
				<time>2013-08-14T06:58:27Z</time>
				<hdop>2.0</hdop>
			</trkpt>
			<trkpt lat="46.88608418" lon="6.7086479">
				<ele>1000.6</ele>
				<time>2013-08-14T06:58:28Z</time>
				<hdop>2.0</hdop>
			</trkpt>
			<trkpt lat="46.88605163" lon="6.70861473">
				<ele>1000.6</ele>
				<time>2013-08-14T06:58:29Z</time>
				<hdop>2.0</hdop>
			</trkpt>
			<trkpt lat="46.88605042" lon="6.70858763">
				<ele>1001.0</ele>
				<time>2013-08-14T06:58:30Z</time>
				<hdop>3.0</hdop>
			</trkpt>
			<trkpt lat="46.88604751" lon="6.70858607">
				<ele>1000.7</ele>
				<time>2013-08-14T06:58:31Z</time>
				<hdop>3.0</hdop>
			</trkpt>
			<trkpt lat="46.88602884" lon="6.70856405">
				<ele>1000.3</ele>
				<time>2013-08-14T06:58:32Z</time>
				<hdop>3.0</hdop>
			</trkpt>
			<trkpt lat="46.88599382" lon="6.70854515">
				<ele>998.2</ele>
				<time>2013-08-14T06:58:33Z</time>
				<hdop>3.0</hdop>
			</trkpt>
			<trkpt lat="46.88598802" lon="6.70853747">
				<ele>998.2</ele>
				<time>2013-08-14T06:58:34Z</time>
				<hdop>3.0</hdop>
			</trkpt>
			<trkpt lat="46.88597073" lon="6.70852417">
				<ele>997.6</ele>
				<time>2013-08-14T06:58:35Z</time>
				<hdop>3.0</hdop>
			</trkpt>
			<trkpt lat="46.88596287" lon="6.70851531">
				<ele>997.3</ele>
				<time>2013-08-14T06:58:36Z</time>
				<hdop>3.0</hdop>
			</trkpt>
			<trkpt lat="46.88595489" lon="6.70849739">
				<ele>997.8</ele>
				<time>2013-08-14T06:58:37Z</time>
				<hdop>3.0</hdop>
			</trkpt>
			<trkpt lat="46.88593954" lon="6.70846762">
				<ele>997.2</ele>
				<time>2013-08-14T06:58:38Z</time>
				<hdop>3.0</hdop>
			</trkpt>
			<trkpt lat="46.88594201" lon="6.70845911">
				<ele>997.8</ele>
				<time>2013-08-14T06:58:39Z</time>
				<hdop>3.0</hdop>
			</trkpt>
			<trkpt lat="46.88589742" lon="6.70844177">
				<ele>996.1</ele>
				<time>2013-08-14T06:58:40Z</time>
				<hdop>3.0</hdop>
			</trkpt>
			<trkpt lat="46.88589562" lon="6.70841283">
				<ele>996.8</ele>
				<time>2013-08-14T06:58:41Z</time>
				<hdop>3.0</hdop>
			</trkpt>
			<trkpt lat="46.88589104" lon="6.70840634">
				<ele>996.9</ele>
				<time>2013-08-14T06:58:42Z</time>
				<hdop>4.0</hdop>
			</trkpt>
			<trkpt lat="46.88587527" lon="6.70840228">
				<ele>997.0</ele>
				<time>2013-08-14T06:58:43Z</time>
				<hdop>4.0</hdop>
			</trkpt>
			<trkpt lat="46.88583901" lon="6.70842084">
				<ele>996.1</ele>
				<time>2013-08-14T06:58:44Z</time>
				<hdop>3.0</hdop>
			</trkpt>
			<trkpt lat="46.88583234" lon="6.70841756">
				<ele>995.9</ele>
				<time>2013-08-14T06:58:45Z</time>
				<hdop>4.0</hdop>
			</trkpt>
			<trkpt lat="46.88583951" lon="6.70841577">
				<ele>994.4</ele>
				<time>2013-08-14T06:58:46Z</time>
				<hdop>4.0</hdop>
			</trkpt>
			<trkpt lat="46.88581592" lon="6.70845217">
				<ele>994.8</ele>
				<time>2013-08-14T06:58:47Z</time>
				<hdop>4.0</hdop>
			</trkpt>
			<trkpt lat="46.88582868" lon="6.70843642">
				<ele>995.1</ele>
				<time>2013-08-14T06:58:48Z</time>
				<hdop>4.0</hdop>
			</trkpt>
			<trkpt lat="46.88582339" lon="6.70843704">
				<ele>995.1</ele>
				<time>2013-08-14T06:58:49Z</time>
				<hdop>4.0</hdop>
			</trkpt>
			<trkpt lat="46.88585212" lon="6.70842771">
				<ele>995.1</ele>
				<time>2013-08-14T06:58:50Z</time>
				<hdop>4.0</hdop>
			</trkpt>
			<trkpt lat="46.88590157" lon="6.70839644">
				<ele>994.7</ele>
				<time>2013-08-14T06:58:51Z</time>
				<hdop>4.0</hdop>
			</trkpt>
			<trkpt lat="46.88590343" lon="6.70839686">
				<ele>994.7</ele>
				<time>2013-08-14T06:58:52Z</time>
				<hdop>4.0</hdop>
			</trkpt>
			<trkpt lat="46.88591061" lon="6.7083986">
				<ele>994.8</ele>
				<time>2013-08-14T06:58:53Z</time>
				<hdop>4.0</hdop>
			</trkpt>
			<trkpt lat="46.88595003" lon="6.70837565">
				<ele>994.3</ele>
				<time>2013-08-14T06:58:54Z</time>
				<hdop>4.0</hdop>
			</trkpt>
			<trkpt lat="46.88593473" lon="6.70839132">
				<ele>994.3</ele>
				<time>2013-08-14T06:58:55Z</time>
				<hdop>4.0</hdop>
			</trkpt>
			<trkpt lat="46.8859581" lon="6.70839168">
				<ele>995.9</ele>
				<time>2013-08-14T06:58:57Z</time>
				<hdop>3.0</hdop>
			</trkpt>
			<trkpt lat="46.88596811" lon="6.70838151">
				<ele>996.5</ele>
				<time>2013-08-14T06:58:58Z</time>
				<hdop>3.0</hdop>
			</trkpt>
			<trkpt lat="46.88598897" lon="6.70838134">
				<ele>997.2</ele>
				<time>2013-08-14T06:58:59Z</time>
				<hdop>3.0</hdop>
			</trkpt>
			<trkpt lat="46.88597416" lon="6.70841666">
				<ele>997.7</ele>
				<time>2013-08-14T06:59:01Z</time>
				<hdop>3.0</hdop>
			</trkpt>
			<trkpt lat="46.88600228" lon="6.70844528">
				<ele>999.0</ele>
				<time>2013-08-14T06:59:02Z</time>
				<hdop>3.0</hdop>
			</trkpt>
			<trkpt lat="46.88598897" lon="6.70845448">
				<ele>999.0</ele>
				<time>2013-08-14T06:59:04Z</time>
				<hdop>3.0</hdop>
			</trkpt>
			<trkpt lat="46.88600057" lon="6.70847359">
				<ele>997.7</ele>
				<time>2013-08-14T06:59:05Z</time>
				<hdop>3.0</hdop>
			</trkpt>
			<trkpt lat="46.88600063" lon="6.70849048">
				<ele>997.4</ele>
				<time>2013-08-14T06:59:06Z</time>
				<hdop>3.0</hdop>
			</trkpt>
			<trkpt lat="46.88600505" lon="6.70849447">
				<ele>997.8</ele>
				<time>2013-08-14T06:59:07Z</time>
				<hdop>3.0</hdop>
			</trkpt>
			<trkpt lat="46.88599402" lon="6.70850434">
				<ele>997.9</ele>
				<time>2013-08-14T06:59:08Z</time>
				<hdop>3.0</hdop>
			</trkpt>
			<trkpt lat="46.88599305" lon="6.70851487">
				<ele>999.0</ele>
				<time>2013-08-14T06:59:09Z</time>
				<hdop>3.0</hdop>
			</trkpt>
			<trkpt lat="46.88599022" lon="6.70852639">
				<ele>999.4</ele>
				<time>2013-08-14T06:59:10Z</time>
				<hdop>3.0</hdop>
			</trkpt>
			<trkpt lat="46.88598285" lon="6.70854032">
				<ele>1000.4</ele>
				<time>2013-08-14T06:59:11Z</time>
				<hdop>2.0</hdop>
			</trkpt>
			<trkpt lat="46.88598596" lon="6.70853605">
				<ele>999.8</ele>
				<time>2013-08-14T06:59:12Z</time>
				<hdop>2.0</hdop>
			</trkpt>
			<trkpt lat="46.88599374" lon="6.70858617">
				<ele>998.7</ele>
				<time>2013-08-14T06:59:13Z</time>
				<hdop>3.0</hdop>
			</trkpt>
			<trkpt lat="46.88601079" lon="6.70857245">
				<ele>994.9</ele>
				<time>2013-08-14T06:59:15Z</time>
				<hdop>3.0</hdop>
			</trkpt>
			<trkpt lat="46.88601519" lon="6.70857718">
				<ele>994.5</ele>
				<time>2013-08-14T06:59:16Z</time>
				<hdop>3.0</hdop>
			</trkpt>
			<trkpt lat="46.88602312" lon="6.70857971">
				<ele>994.7</ele>
				<time>2013-08-14T06:59:17Z</time>
				<hdop>3.0</hdop>
			</trkpt>
			<trkpt lat="46.88600196" lon="6.70860428">
				<ele>995.7</ele>
				<time>2013-08-14T06:59:18Z</time>
				<hdop>3.0</hdop>
			</trkpt>
			<trkpt lat="46.88600418" lon="6.70862936">
				<ele>995.8</ele>
				<time>2013-08-14T06:59:19Z</time>
				<hdop>3.0</hdop>
			</trkpt>
			<trkpt lat="46.88598393" lon="6.70863443">
				<ele>996.9</ele>
				<time>2013-08-14T06:59:21Z</time>
				<hdop>3.0</hdop>
			</trkpt>
			<trkpt lat="46.88595868" lon="6.70866456">
				<ele>997.6</ele>
				<time>2013-08-14T06:59:22Z</time>
				<hdop>3.0</hdop>
			</trkpt>
			<trkpt lat="46.88595275" lon="6.70868164">
				<ele>997.1</ele>
				<time>2013-08-14T06:59:23Z</time>
				<hdop>2.0</hdop>
			</trkpt>
			<trkpt lat="46.88595803" lon="6.70872449">
				<ele>996.0</ele>
				<time>2013-08-14T06:59:24Z</time>
				<hdop>3.0</hdop>
			</trkpt>
			<trkpt lat="46.88592337" lon="6.70878706">
				<ele>995.6</ele>
				<time>2013-08-14T06:59:25Z</time>
				<hdop>3.0</hdop>
			</trkpt>
			<trkpt lat="46.88589997" lon="6.70884176">
				<ele>995.0</ele>
				<time>2013-08-14T06:59:26Z</time>
				<hdop>3.0</hdop>
			</trkpt>
			<trkpt lat="46.88586913" lon="6.70886864">
				<ele>995.8</ele>
				<time>2013-08-14T06:59:27Z</time>
				<hdop>3.0</hdop>
			</trkpt>
			<trkpt lat="46.88583741" lon="6.70892002">
				<ele>996.1</ele>
				<time>2013-08-14T06:59:29Z</time>
				<hdop>3.0</hdop>
			</trkpt>
			<trkpt lat="46.88583892" lon="6.70894913">
				<ele>996.2</ele>
				<time>2013-08-14T06:59:31Z</time>
				<hdop>4.0</hdop>
			</trkpt>
			<trkpt lat="46.88585089" lon="6.70896186">
				<ele>996.3</ele>
				<time>2013-08-14T06:59:32Z</time>
				<hdop>4.0</hdop>
			</trkpt>
			<trkpt lat="46.88584706" lon="6.70897034">
				<ele>997.5</ele>
				<time>2013-08-14T06:59:33Z</time>
				<hdop>3.0</hdop>
			</trkpt>
			<trkpt lat="46.88585496" lon="6.70898303">
				<ele>997.9</ele>
				<time>2013-08-14T06:59:34Z</time>
				<hdop>3.0</hdop>
			</trkpt>
			<trkpt lat="46.88582429" lon="6.70900638">
				<ele>998.4</ele>
				<time>2013-08-14T06:59:35Z</time>
				<hdop>3.0</hdop>
			</trkpt>
			<trkpt lat="46.88577426" lon="6.70903723">
				<ele>999.2</ele>
				<time>2013-08-14T06:59:36Z</time>
				<hdop>3.0</hdop>
			</trkpt>
			<trkpt lat="46.88575221" lon="6.70905965">
				<ele>999.5</ele>
				<time>2013-08-14T06:59:37Z</time>
				<hdop>3.0</hdop>
			</trkpt>
			<trkpt lat="46.88577722" lon="6.70907067">
				<ele>1003.4</ele>
				<time>2013-08-14T06:59:39Z</time>
				<hdop>2.0</hdop>
			</trkpt>
			<trkpt lat="46.88577419" lon="6.70908486">
				<ele>1003.7</ele>
				<time>2013-08-14T06:59:40Z</time>
				<hdop>3.0</hdop>
			</trkpt>
			<trkpt lat="46.88577203" lon="6.70910201">
				<ele>1004.1</ele>
				<time>2013-08-14T06:59:41Z</time>
				<hdop>2.0</hdop>
			</trkpt>
			<trkpt lat="46.88576286" lon="6.70910887">
				<ele>1005.0</ele>
				<time>2013-08-14T06:59:42Z</time>
				<hdop>2.0</hdop>
			</trkpt>
			<trkpt lat="46.88575582" lon="6.70911275">
				<ele>1005.1</ele>
				<time>2013-08-14T06:59:43Z</time>
				<hdop>2.0</hdop>
			</trkpt>
			<trkpt lat="46.88573915" lon="6.70912724">
				<ele>1006.1</ele>
				<time>2013-08-14T06:59:44Z</time>
				<hdop>2.0</hdop>
			</trkpt>
			<trkpt lat="46.88572531" lon="6.70913965">
				<ele>1006.3</ele>
				<time>2013-08-14T06:59:45Z</time>
				<hdop>2.0</hdop>
			</trkpt>
			<trkpt lat="46.88572596" lon="6.70915256">
				<ele>1006.5</ele>
				<time>2013-08-14T06:59:46Z</time>
				<hdop>2.0</hdop>
			</trkpt>
			<trkpt lat="46.88572245" lon="6.70917334">
				<ele>1007.3</ele>
				<time>2013-08-14T06:59:47Z</time>
				<hdop>2.0</hdop>
			</trkpt>
			<trkpt lat="46.88569961" lon="6.70920242">
				<ele>1006.6</ele>
				<time>2013-08-14T06:59:48Z</time>
				<hdop>2.0</hdop>
			</trkpt>
			<trkpt lat="46.88571323" lon="6.70924422">
				<ele>1006.9</ele>
				<time>2013-08-14T06:59:50Z</time>
				<hdop>2.0</hdop>
			</trkpt>
			<trkpt lat="46.88568414" lon="6.70927515">
				<ele>1006.0</ele>
				<time>2013-08-14T06:59:51Z</time>
				<hdop>2.0</hdop>
			</trkpt>
			<trkpt lat="46.88567285" lon="6.70930248">
				<ele>1004.2</ele>
				<time>2013-08-14T06:59:52Z</time>
				<hdop>2.0</hdop>
			</trkpt>
			<trkpt lat="46.88566936" lon="6.70931223">
				<ele>1004.3</ele>
				<time>2013-08-14T06:59:53Z</time>
				<hdop>3.0</hdop>
			</trkpt>
			<trkpt lat="46.88566982" lon="6.70933439">
				<ele>1004.5</ele>
				<time>2013-08-14T06:59:54Z</time>
				<hdop>2.0</hdop>
			</trkpt>
			<trkpt lat="46.88567013" lon="6.70933375">
				<ele>1004.0</ele>
				<time>2013-08-14T06:59:55Z</time>
				<hdop>2.0</hdop>
			</trkpt>
			<trkpt lat="46.88567427" lon="6.70934592">
				<ele>1003.9</ele>
				<time>2013-08-14T06:59:56Z</time>
				<hdop>2.0</hdop>
			</trkpt>
			<trkpt lat="46.88567662" lon="6.70934484">
				<ele>1004.0</ele>
				<time>2013-08-14T06:59:57Z</time>
				<hdop>2.0</hdop>
			</trkpt>
			<trkpt lat="46.8856763" lon="6.70934952">
				<ele>1003.9</ele>
				<time>2013-08-14T06:59:58Z</time>
				<hdop>3.0</hdop>
			</trkpt>
			<trkpt lat="46.88567762" lon="6.70934752">
				<ele>1004.3</ele>
				<time>2013-08-14T06:59:59Z</time>
				<hdop>2.0</hdop>
			</trkpt>
			<trkpt lat="46.88566034" lon="6.70939758">
				<ele>1005.0</ele>
				<time>2013-08-14T07:00:00Z</time>
				<hdop>3.0</hdop>
			</trkpt>
			<trkpt lat="46.88563375" lon="6.70940766">
				<ele>1006.2</ele>
				<time>2013-08-14T07:00:02Z</time>
				<hdop>2.0</hdop>
			</trkpt>
			<trkpt lat="46.88562117" lon="6.70941496">
				<ele>1007.1</ele>
				<time>2013-08-14T07:00:03Z</time>
				<hdop>2.0</hdop>
			</trkpt>
			<trkpt lat="46.88561251" lon="6.70945078">
				<ele>1007.7</ele>
				<time>2013-08-14T07:00:04Z</time>
				<hdop>2.0</hdop>
			</trkpt>
			<trkpt lat="46.88559928" lon="6.70946918">
				<ele>1009.2</ele>
				<time>2013-08-14T07:00:06Z</time>
				<hdop>3.0</hdop>
			</trkpt>
			<trkpt lat="46.88559663" lon="6.70950319">
				<ele>1011.0</ele>
				<time>2013-08-14T07:00:07Z</time>
				<hdop>3.0</hdop>
			</trkpt>
			<trkpt lat="46.88560156" lon="6.70952576">
				<ele>1010.7</ele>
				<time>2013-08-14T07:00:08Z</time>
				<hdop>3.0</hdop>
			</trkpt>
			<trkpt lat="46.8855906" lon="6.70959533">
				<ele>1011.3</ele>
				<time>2013-08-14T07:00:09Z</time>
				<hdop>3.0</hdop>
			</trkpt>
			<trkpt lat="46.88558196" lon="6.70963367">
				<ele>1010.0</ele>
				<time>2013-08-14T07:00:10Z</time>
				<hdop>3.0</hdop>
			</trkpt>
			<trkpt lat="46.88555516" lon="6.70968106">
				<ele>1009.0</ele>
				<time>2013-08-14T07:00:11Z</time>
				<hdop>3.0</hdop>
			</trkpt>
			<trkpt lat="46.8855504" lon="6.709698">
				<ele>1009.1</ele>
				<time>2013-08-14T07:00:12Z</time>
				<hdop>3.0</hdop>
			</trkpt>
			<trkpt lat="46.88555507" lon="6.70969902">
				<ele>1010.7</ele>
				<time>2013-08-14T07:00:13Z</time>
				<hdop>2.0</hdop>
			</trkpt>
			<trkpt lat="46.88556165" lon="6.70971131">
				<ele>1009.7</ele>
				<time>2013-08-14T07:00:14Z</time>
				<hdop>2.0</hdop>
			</trkpt>
			<trkpt lat="46.88555859" lon="6.7097185">
				<ele>1009.9</ele>
				<time>2013-08-14T07:00:15Z</time>
				<hdop>3.0</hdop>
			</trkpt>
			<trkpt lat="46.88554241" lon="6.70971713">
				<ele>1010.5</ele>
				<time>2013-08-14T07:00:16Z</time>
				<hdop>2.0</hdop>
			</trkpt>
			<trkpt lat="46.88554616" lon="6.7097063">
				<ele>1010.6</ele>
				<time>2013-08-14T07:00:17Z</time>
				<hdop>2.0</hdop>
			</trkpt>
			<trkpt lat="46.88553649" lon="6.70970964">
				<ele>1011.1</ele>
				<time>2013-08-14T07:00:19Z</time>
				<hdop>3.0</hdop>
			</trkpt>
			<trkpt lat="46.88553942" lon="6.70970068">
				<ele>1010.9</ele>
				<time>2013-08-14T07:00:20Z</time>
				<hdop>2.0</hdop>
			</trkpt>
			<trkpt lat="46.88552063" lon="6.70971129">
				<ele>1010.6</ele>
				<time>2013-08-14T07:00:21Z</time>
				<hdop>2.0</hdop>
			</trkpt>
			<trkpt lat="46.88550973" lon="6.70974154">
				<ele>1010.9</ele>
				<time>2013-08-14T07:00:22Z</time>
				<hdop>2.0</hdop>
			</trkpt>
			<trkpt lat="46.88549869" lon="6.70979216">
				<ele>1012.2</ele>
				<time>2013-08-14T07:00:23Z</time>
				<hdop>2.0</hdop>
			</trkpt>
			<trkpt lat="46.88547046" lon="6.70980355">
				<ele>1013.3</ele>
				<time>2013-08-14T07:00:24Z</time>
				<hdop>3.0</hdop>
			</trkpt>
			<trkpt lat="46.88547348" lon="6.70980683">
				<ele>1012.7</ele>
				<time>2013-08-14T07:00:25Z</time>
				<hdop>3.0</hdop>
			</trkpt>
			<trkpt lat="46.88549671" lon="6.70980362">
				<ele>1013.3</ele>
				<time>2013-08-14T07:00:26Z</time>
				<hdop>3.0</hdop>
			</trkpt>
			<trkpt lat="46.88548649" lon="6.70980675">
				<ele>1013.7</ele>
				<time>2013-08-14T07:00:28Z</time>
				<hdop>3.0</hdop>
			</trkpt>
			<trkpt lat="46.88547763" lon="6.70980973">
				<ele>1013.6</ele>
				<time>2013-08-14T07:00:29Z</time>
				<hdop>2.0</hdop>
			</trkpt>
			<trkpt lat="46.88544367" lon="6.70982534">
				<ele>1011.0</ele>
				<time>2013-08-14T07:00:30Z</time>
				<hdop>2.0</hdop>
			</trkpt>
			<trkpt lat="46.88541978" lon="6.70983363">
				<ele>1009.7</ele>
				<time>2013-08-14T07:00:31Z</time>
				<hdop>2.0</hdop>
			</trkpt>
			<trkpt lat="46.88542424" lon="6.7098747">
				<ele>1010.6</ele>
				<time>2013-08-14T07:00:32Z</time>
				<hdop>2.0</hdop>
			</trkpt>
			<trkpt lat="46.88540847" lon="6.70989924">
				<ele>1011.3</ele>
				<time>2013-08-14T07:00:34Z</time>
				<hdop>2.0</hdop>
			</trkpt>
			<trkpt lat="46.88540609" lon="6.70991786">
				<ele>1012.5</ele>
				<time>2013-08-14T07:00:35Z</time>
				<hdop>2.0</hdop>
			</trkpt>
			<trkpt lat="46.88540367" lon="6.70990784">
				<ele>1013.5</ele>
				<time>2013-08-14T07:00:36Z</time>
				<hdop>2.0</hdop>
			</trkpt>
			<trkpt lat="46.88539274" lon="6.70993969">
				<ele>1014.7</ele>
				<time>2013-08-14T07:00:37Z</time>
				<hdop>2.0</hdop>
			</trkpt>
			<trkpt lat="46.88539948" lon="6.70992251">
				<ele>1016.2</ele>
				<time>2013-08-14T07:00:38Z</time>
				<hdop>2.0</hdop>
			</trkpt>
			<trkpt lat="46.88539533" lon="6.70992864">
				<ele>1016.3</ele>
				<time>2013-08-14T07:00:39Z</time>
				<hdop>3.0</hdop>
			</trkpt>
			<trkpt lat="46.88539161" lon="6.7099702">
				<ele>1015.9</ele>
				<time>2013-08-14T07:00:40Z</time>
				<hdop>2.0</hdop>
			</trkpt>
			<trkpt lat="46.88535551" lon="6.70997511">
				<ele>1014.6</ele>
				<time>2013-08-14T07:00:41Z</time>
				<hdop>1.5</hdop>
			</trkpt>
			<trkpt lat="46.88534755" lon="6.70998836">
				<ele>1012.5</ele>
				<time>2013-08-14T07:00:43Z</time>
				<hdop>2.0</hdop>
			</trkpt>
			<trkpt lat="46.88534092" lon="6.7099919">
				<ele>1013.3</ele>
				<time>2013-08-14T07:00:44Z</time>
				<hdop>1.5</hdop>
			</trkpt>
			<trkpt lat="46.88533431" lon="6.71001612">
				<ele>1013.2</ele>
				<time>2013-08-14T07:00:45Z</time>
				<hdop>1.5</hdop>
			</trkpt>
			<trkpt lat="46.88532775" lon="6.71003446">
				<ele>1012.3</ele>
				<time>2013-08-14T07:00:46Z</time>
				<hdop>1.5</hdop>
			</trkpt>
			<trkpt lat="46.88532751" lon="6.71004723">
				<ele>1012.6</ele>
				<time>2013-08-14T07:00:47Z</time>
				<hdop>1.5</hdop>
			</trkpt>
			<trkpt lat="46.88532284" lon="6.71007342">
				<ele>1014.0</ele>
				<time>2013-08-14T07:00:48Z</time>
				<hdop>2.0</hdop>
			</trkpt>
			<trkpt lat="46.88533627" lon="6.71010023">
				<ele>1015.7</ele>
				<time>2013-08-14T07:00:49Z</time>
				<hdop>2.0</hdop>
			</trkpt>
			<trkpt lat="46.88532251" lon="6.71013575">
				<ele>1018.0</ele>
				<time>2013-08-14T07:00:50Z</time>
				<hdop>2.0</hdop>
			</trkpt>
			<trkpt lat="46.88530156" lon="6.71013594">
				<ele>1017.0</ele>
				<time>2013-08-14T07:00:51Z</time>
				<hdop>2.0</hdop>
			</trkpt>
			<trkpt lat="46.88528197" lon="6.71015508">
				<ele>1016.9</ele>
				<time>2013-08-14T07:00:53Z</time>
				<hdop>3.0</hdop>
			</trkpt>
			<trkpt lat="46.88527761" lon="6.71018652">
				<ele>1017.2</ele>
				<time>2013-08-14T07:00:54Z</time>
				<hdop>2.0</hdop>
			</trkpt>
			<trkpt lat="46.88526334" lon="6.71023143">
				<ele>1017.8</ele>
				<time>2013-08-14T07:00:55Z</time>
				<hdop>2.0</hdop>
			</trkpt>
			<trkpt lat="46.88528617" lon="6.710203">
				<ele>1017.5</ele>
				<time>2013-08-14T07:00:56Z</time>
				<hdop>3.0</hdop>
			</trkpt>
			<trkpt lat="46.8852868" lon="6.71022214">
				<ele>1018.2</ele>
				<time>2013-08-14T07:00:57Z</time>
				<hdop>3.0</hdop>
			</trkpt>
			<trkpt lat="46.8853092" lon="6.71024635">
				<ele>1018.5</ele>
				<time>2013-08-14T07:00:59Z</time>
				<hdop>2.0</hdop>
			</trkpt>
			<trkpt lat="46.88530275" lon="6.71024898">
				<ele>1018.0</ele>
				<time>2013-08-14T07:01:00Z</time>
				<hdop>2.0</hdop>
			</trkpt>
			<trkpt lat="46.88530222" lon="6.71025054">
				<ele>1017.8</ele>
				<time>2013-08-14T07:01:01Z</time>
				<hdop>3.0</hdop>
			</trkpt>
			<trkpt lat="46.8852966" lon="6.71032093">
				<ele>1019.2</ele>
				<time>2013-08-14T07:01:02Z</time>
				<hdop>2.0</hdop>
			</trkpt>
			<trkpt lat="46.88529032" lon="6.71035463">
				<ele>1020.7</ele>
				<time>2013-08-14T07:01:04Z</time>
				<hdop>1.5</hdop>
			</trkpt>
			<trkpt lat="46.88528272" lon="6.71036033">
				<ele>1020.2</ele>
				<time>2013-08-14T07:01:05Z</time>
				<hdop>1.5</hdop>
			</trkpt>
			<trkpt lat="46.88528186" lon="6.71036244">
				<ele>1020.4</ele>
				<time>2013-08-14T07:01:06Z</time>
				<hdop>1.5</hdop>
			</trkpt>
			<trkpt lat="46.88527779" lon="6.71036977">
				<ele>1020.7</ele>
				<time>2013-08-14T07:01:07Z</time>
				<hdop>2.0</hdop>
			</trkpt>
			<trkpt lat="46.8852604" lon="6.71038293">
				<ele>1019.8</ele>
				<time>2013-08-14T07:01:08Z</time>
				<hdop>2.0</hdop>
			</trkpt>
			<trkpt lat="46.88525089" lon="6.71041049">
				<ele>1019.9</ele>
				<time>2013-08-14T07:01:09Z</time>
				<hdop>1.5</hdop>
			</trkpt>
			<trkpt lat="46.88522177" lon="6.71041477">
				<ele>1018.1</ele>
				<time>2013-08-14T07:01:10Z</time>
				<hdop>1.5</hdop>
			</trkpt>
			<trkpt lat="46.88520624" lon="6.71041763">
				<ele>1018.0</ele>
				<time>2013-08-14T07:01:11Z</time>
				<hdop>1.5</hdop>
			</trkpt>
			<trkpt lat="46.88518096" lon="6.71040842">
				<ele>1017.3</ele>
				<time>2013-08-14T07:01:12Z</time>
				<hdop>1.5</hdop>
			</trkpt>
			<trkpt lat="46.88517297" lon="6.71040966">
				<ele>1016.9</ele>
				<time>2013-08-14T07:01:13Z</time>
				<hdop>2.0</hdop>
			</trkpt>
			<trkpt lat="46.88518565" lon="6.71044588">
				<ele>1017.2</ele>
				<time>2013-08-14T07:01:14Z</time>
				<hdop>1.5</hdop>
			</trkpt>
			<trkpt lat="46.88518091" lon="6.71048459">
				<ele>1016.8</ele>
				<time>2013-08-14T07:01:16Z</time>
				<hdop>1.5</hdop>
			</trkpt>
			<trkpt lat="46.885178" lon="6.71048895">
				<ele>1016.2</ele>
				<time>2013-08-14T07:01:17Z</time>
				<hdop>2.0</hdop>
			</trkpt>
			<trkpt lat="46.88516779" lon="6.7104851">
				<ele>1015.3</ele>
				<time>2013-08-14T07:01:18Z</time>
				<hdop>1.5</hdop>
			</trkpt>
			<trkpt lat="46.88516646" lon="6.71047957">
				<ele>1016.3</ele>
				<time>2013-08-14T07:01:19Z</time>
				<hdop>1.5</hdop>
			</trkpt>
			<trkpt lat="46.88514102" lon="6.71049272">
				<ele>1017.7</ele>
				<time>2013-08-14T07:01:20Z</time>
				<hdop>1.5</hdop>
			</trkpt>
			<trkpt lat="46.88513176" lon="6.71051062">
				<ele>1017.7</ele>
				<time>2013-08-14T07:01:21Z</time>
				<hdop>1.5</hdop>
			</trkpt>
			<trkpt lat="46.88513445" lon="6.71052025">
				<ele>1017.2</ele>
				<time>2013-08-14T07:01:22Z</time>
				<hdop>1.5</hdop>
			</trkpt>
			<trkpt lat="46.88512916" lon="6.71052615">
				<ele>1017.0</ele>
				<time>2013-08-14T07:01:23Z</time>
				<hdop>2.0</hdop>
			</trkpt>
			<trkpt lat="46.88510856" lon="6.71055555">
				<ele>1017.3</ele>
				<time>2013-08-14T07:01:24Z</time>
				<hdop>1.5</hdop>
			</trkpt>
			<trkpt lat="46.88510275" lon="6.71057995">
				<ele>1017.7</ele>
				<time>2013-08-14T07:01:25Z</time>
				<hdop>1.5</hdop>
			</trkpt>
			<trkpt lat="46.88510034" lon="6.71058922">
				<ele>1017.5</ele>
				<time>2013-08-14T07:01:26Z</time>
				<hdop>1.5</hdop>
			</trkpt>
			<trkpt lat="46.88507637" lon="6.71061922">
				<ele>1017.5</ele>
				<time>2013-08-14T07:01:27Z</time>
				<hdop>1.5</hdop>
			</trkpt>
			<trkpt lat="46.88505791" lon="6.71064384">
				<ele>1017.9</ele>
				<time>2013-08-14T07:01:28Z</time>
				<hdop>1.5</hdop>
			</trkpt>
			<trkpt lat="46.88504928" lon="6.71065552">
				<ele>1018.2</ele>
				<time>2013-08-14T07:01:29Z</time>
				<hdop>2.0</hdop>
			</trkpt>
			<trkpt lat="46.8850378" lon="6.71063452">
				<ele>1019.8</ele>
				<time>2013-08-14T07:01:30Z</time>
				<hdop>1.5</hdop>
			</trkpt>
			<trkpt lat="46.88502438" lon="6.71063662">
				<ele>1020.4</ele>
				<time>2013-08-14T07:01:31Z</time>
				<hdop>1.5</hdop>
			</trkpt>
			<trkpt lat="46.88501582" lon="6.71064447">
				<ele>1020.8</ele>
				<time>2013-08-14T07:01:32Z</time>
				<hdop>1.5</hdop>
			</trkpt>
			<trkpt lat="46.88500239" lon="6.71065837">
				<ele>1022.3</ele>
				<time>2013-08-14T07:01:33Z</time>
				<hdop>1.5</hdop>
			</trkpt>
			<trkpt lat="46.88498335" lon="6.71067206">
				<ele>1022.0</ele>
				<time>2013-08-14T07:01:34Z</time>
				<hdop>1.5</hdop>
			</trkpt>
			<trkpt lat="46.88496441" lon="6.7106604">
				<ele>1023.6</ele>
				<time>2013-08-14T07:01:35Z</time>
				<hdop>1.5</hdop>
			</trkpt>
			<trkpt lat="46.88494052" lon="6.71065661">
				<ele>1023.8</ele>
				<time>2013-08-14T07:01:36Z</time>
				<hdop>1.5</hdop>
			</trkpt>
			<trkpt lat="46.88493024" lon="6.71066212">
				<ele>1022.9</ele>
				<time>2013-08-14T07:01:38Z</time>
				<hdop>1.5</hdop>
			</trkpt>
			<trkpt lat="46.8849181" lon="6.71070451">
				<ele>1024.0</ele>
				<time>2013-08-14T07:01:40Z</time>
				<hdop>1.5</hdop>
			</trkpt>
			<trkpt lat="46.88490488" lon="6.7107212">
				<ele>1025.9</ele>
				<time>2013-08-14T07:01:41Z</time>
				<hdop>1.5</hdop>
			</trkpt>
			<trkpt lat="46.88490932" lon="6.71072246">
				<ele>1026.0</ele>
				<time>2013-08-14T07:01:42Z</time>
				<hdop>1.5</hdop>
			</trkpt>
			<trkpt lat="46.88490248" lon="6.71072766">
				<ele>1026.2</ele>
				<time>2013-08-14T07:01:43Z</time>
				<hdop>2.0</hdop>
			</trkpt>
			<trkpt lat="46.88488753" lon="6.71075584">
				<ele>1026.5</ele>
				<time>2013-08-14T07:01:44Z</time>
				<hdop>1.5</hdop>
			</trkpt>
			<trkpt lat="46.88488164" lon="6.71077639">
				<ele>1026.1</ele>
				<time>2013-08-14T07:01:45Z</time>
				<hdop>1.5</hdop>
			</trkpt>
			<trkpt lat="46.88486871" lon="6.71077629">
				<ele>1025.9</ele>
				<time>2013-08-14T07:01:46Z</time>
				<hdop>1.5</hdop>
			</trkpt>
			<trkpt lat="46.884863" lon="6.71079153">
				<ele>1025.4</ele>
				<time>2013-08-14T07:01:47Z</time>
				<hdop>1.5</hdop>
			</trkpt>
			<trkpt lat="46.8848505" lon="6.71080292">
				<ele>1025.8</ele>
				<time>2013-08-14T07:01:49Z</time>
				<hdop>1.5</hdop>
			</trkpt>
			<trkpt lat="46.88484018" lon="6.71081389">
				<ele>1025.9</ele>
				<time>2013-08-14T07:01:51Z</time>
				<hdop>1.5</hdop>
			</trkpt>
			<trkpt lat="46.88483587" lon="6.71082833">
				<ele>1026.6</ele>
				<time>2013-08-14T07:01:52Z</time>
				<hdop>1.5</hdop>
			</trkpt>
			<trkpt lat="46.88483654" lon="6.71082605">
				<ele>1026.0</ele>
				<time>2013-08-14T07:01:53Z</time>
				<hdop>1.5</hdop>
			</trkpt>
			<trkpt lat="46.8848327" lon="6.71083093">
				<ele>1026.1</ele>
				<time>2013-08-14T07:01:54Z</time>
				<hdop>1.5</hdop>
			</trkpt>
			<trkpt lat="46.88481633" lon="6.71082965">
				<ele>1027.0</ele>
				<time>2013-08-14T07:01:56Z</time>
				<hdop>2.0</hdop>
			</trkpt>
			<trkpt lat="46.88480973" lon="6.71083689">
				<ele>1026.6</ele>
				<time>2013-08-14T07:01:57Z</time>
				<hdop>2.0</hdop>
			</trkpt>
			<trkpt lat="46.8847923" lon="6.71085188">
				<ele>1026.5</ele>
				<time>2013-08-14T07:01:58Z</time>
				<hdop>2.0</hdop>
			</trkpt>
			<trkpt lat="46.88481473" lon="6.71089766">
				<ele>1026.4</ele>
				<time>2013-08-14T07:02:00Z</time>
				<hdop>1.5</hdop>
			</trkpt>
			<trkpt lat="46.88480601" lon="6.71093047">
				<ele>1026.7</ele>
				<time>2013-08-14T07:02:01Z</time>
				<hdop>1.5</hdop>
			</trkpt>
			<trkpt lat="46.8847947" lon="6.71092876">
				<ele>1027.4</ele>
				<time>2013-08-14T07:02:02Z</time>
				<hdop>1.5</hdop>
			</trkpt>
			<trkpt lat="46.88479547" lon="6.71094005">
				<ele>1027.3</ele>
				<time>2013-08-14T07:02:03Z</time>
				<hdop>1.5</hdop>
			</trkpt>
			<trkpt lat="46.88478357" lon="6.71094983">
				<ele>1027.5</ele>
				<time>2013-08-14T07:02:05Z</time>
				<hdop>2.0</hdop>
			</trkpt>
			<trkpt lat="46.88477345" lon="6.71095061">
				<ele>1027.9</ele>
				<time>2013-08-14T07:02:06Z</time>
				<hdop>1.5</hdop>
			</trkpt>
			<trkpt lat="46.88475809" lon="6.7109449">
				<ele>1028.0</ele>
				<time>2013-08-14T07:02:07Z</time>
				<hdop>1.5</hdop>
			</trkpt>
			<trkpt lat="46.88475248" lon="6.71095982">
				<ele>1028.5</ele>
				<time>2013-08-14T07:02:08Z</time>
				<hdop>2.0</hdop>
			</trkpt>
			<trkpt lat="46.88475345" lon="6.71095933">
				<ele>1028.8</ele>
				<time>2013-08-14T07:02:09Z</time>
				<hdop>2.0</hdop>
			</trkpt>
			<trkpt lat="46.88475096" lon="6.71096054">
				<ele>1029.0</ele>
				<time>2013-08-14T07:02:11Z</time>
				<hdop>2.0</hdop>
			</trkpt>
			<trkpt lat="46.88475021" lon="6.710963">
				<ele>1028.9</ele>
				<time>2013-08-14T07:02:12Z</time>
				<hdop>2.0</hdop>
			</trkpt>
			<trkpt lat="46.88474531" lon="6.71097219">
				<ele>1028.7</ele>
				<time>2013-08-14T07:02:13Z</time>
				<hdop>2.0</hdop>
			</trkpt>
			<trkpt lat="46.88474465" lon="6.71097414">
				<ele>1028.7</ele>
				<time>2013-08-14T07:02:14Z</time>
				<hdop>2.0</hdop>
			</trkpt>
			<trkpt lat="46.88475311" lon="6.71095023">
				<ele>1029.9</ele>
				<time>2013-08-14T07:02:15Z</time>
				<hdop>1.5</hdop>
			</trkpt>
			<trkpt lat="46.88475123" lon="6.71095439">
				<ele>1029.9</ele>
				<time>2013-08-14T07:02:16Z</time>
				<hdop>2.0</hdop>
			</trkpt>
			<trkpt lat="46.88474251" lon="6.71106091">
				<ele>1030.6</ele>
				<time>2013-08-14T07:02:17Z</time>
				<hdop>2.0</hdop>
			</trkpt>
			<trkpt lat="46.88474125" lon="6.71107421">
				<ele>1030.5</ele>
				<time>2013-08-14T07:02:18Z</time>
				<hdop>2.0</hdop>
			</trkpt>
			<trkpt lat="46.88472781" lon="6.71109902">
				<ele>1031.0</ele>
				<time>2013-08-14T07:02:19Z</time>
				<hdop>2.0</hdop>
			</trkpt>
			<trkpt lat="46.8846897" lon="6.7111297">
				<ele>1031.6</ele>
				<time>2013-08-14T07:02:21Z</time>
				<hdop>2.0</hdop>
			</trkpt>
			<trkpt lat="46.88464819" lon="6.71115729">
				<ele>1030.4</ele>
				<time>2013-08-14T07:02:22Z</time>
				<hdop>2.0</hdop>
			</trkpt>
			<trkpt lat="46.88464318" lon="6.7111845">
				<ele>1030.0</ele>
				<time>2013-08-14T07:02:23Z</time>
				<hdop>2.0</hdop>
			</trkpt>
			<trkpt lat="46.88461347" lon="6.71120192">
				<ele>1029.9</ele>
				<time>2013-08-14T07:02:25Z</time>
				<hdop>2.0</hdop>
			</trkpt>
			<trkpt lat="46.88459879" lon="6.7112229">
				<ele>1030.6</ele>
				<time>2013-08-14T07:02:26Z</time>
				<hdop>3.0</hdop>
			</trkpt>
			<trkpt lat="46.88457961" lon="6.71123784">
				<ele>1031.6</ele>
				<time>2013-08-14T07:02:27Z</time>
				<hdop>3.0</hdop>
			</trkpt>
			<trkpt lat="46.88455955" lon="6.71124954">
				<ele>1032.4</ele>
				<time>2013-08-14T07:02:28Z</time>
				<hdop>3.0</hdop>
			</trkpt>
			<trkpt lat="46.88456145" lon="6.71124743">
				<ele>1032.8</ele>
				<time>2013-08-14T07:02:29Z</time>
				<hdop>2.0</hdop>
			</trkpt>
			<trkpt lat="46.88455754" lon="6.71127606">
				<ele>1033.2</ele>
				<time>2013-08-14T07:02:30Z</time>
				<hdop>2.0</hdop>
			</trkpt>
			<trkpt lat="46.88454373" lon="6.71127214">
				<ele>1033.5</ele>
				<time>2013-08-14T07:02:31Z</time>
				<hdop>2.0</hdop>
			</trkpt>
			<trkpt lat="46.88453963" lon="6.71127154">
				<ele>1033.1</ele>
				<time>2013-08-14T07:02:32Z</time>
				<hdop>2.0</hdop>
			</trkpt>
			<trkpt lat="46.88453437" lon="6.71127373">
				<ele>1033.1</ele>
				<time>2013-08-14T07:02:33Z</time>
				<hdop>3.0</hdop>
			</trkpt>
			<trkpt lat="46.8845009" lon="6.71136137">
				<ele>1032.3</ele>
				<time>2013-08-14T07:02:35Z</time>
				<hdop>2.0</hdop>
			</trkpt>
			<trkpt lat="46.88450986" lon="6.71136025">
				<ele>1032.8</ele>
				<time>2013-08-14T07:02:36Z</time>
				<hdop>2.0</hdop>
			</trkpt>
			<trkpt lat="46.88452702" lon="6.71135947">
				<ele>1033.0</ele>
				<time>2013-08-14T07:02:37Z</time>
				<hdop>2.0</hdop>
			</trkpt>
			<trkpt lat="46.88452737" lon="6.71136461">
				<ele>1032.9</ele>
				<time>2013-08-14T07:02:38Z</time>
				<hdop>2.0</hdop>
			</trkpt>
			<trkpt lat="46.88449314" lon="6.71140995">
				<ele>1034.5</ele>
				<time>2013-08-14T07:02:40Z</time>
				<hdop>2.0</hdop>
			</trkpt>
			<trkpt lat="46.88448714" lon="6.71143225">
				<ele>1034.3</ele>
				<time>2013-08-14T07:02:41Z</time>
				<hdop>2.0</hdop>
			</trkpt>
			<trkpt lat="46.88448215" lon="6.71145075">
				<ele>1033.7</ele>
				<time>2013-08-14T07:02:42Z</time>
				<hdop>2.0</hdop>
			</trkpt>
			<trkpt lat="46.88448039" lon="6.71146536">
				<ele>1033.8</ele>
				<time>2013-08-14T07:02:43Z</time>
				<hdop>2.0</hdop>
			</trkpt>
			<trkpt lat="46.88448161" lon="6.71148974">
				<ele>1033.7</ele>
				<time>2013-08-14T07:02:44Z</time>
				<hdop>2.0</hdop>
			</trkpt>
			<trkpt lat="46.88445934" lon="6.71150891">
				<ele>1033.2</ele>
				<time>2013-08-14T07:02:46Z</time>
				<hdop>2.0</hdop>
			</trkpt>
			<trkpt lat="46.88445103" lon="6.71152581">
				<ele>1032.8</ele>
				<time>2013-08-14T07:02:47Z</time>
				<hdop>2.0</hdop>
			</trkpt>
			<trkpt lat="46.88444613" lon="6.71155321">
				<ele>1032.7</ele>
				<time>2013-08-14T07:02:48Z</time>
				<hdop>2.0</hdop>
			</trkpt>
			<trkpt lat="46.8844571" lon="6.71156675">
				<ele>1032.4</ele>
				<time>2013-08-14T07:02:49Z</time>
				<hdop>2.0</hdop>
			</trkpt>
			<trkpt lat="46.88444995" lon="6.7115705">
				<ele>1032.2</ele>
				<time>2013-08-14T07:02:50Z</time>
				<hdop>2.0</hdop>
			</trkpt>
			<trkpt lat="46.88445399" lon="6.71157255">
				<ele>1032.2</ele>
				<time>2013-08-14T07:02:51Z</time>
				<hdop>2.0</hdop>
			</trkpt>
			<trkpt lat="46.88444363" lon="6.71159909">
				<ele>1032.0</ele>
				<time>2013-08-14T07:02:52Z</time>
				<hdop>2.0</hdop>
			</trkpt>
			<trkpt lat="46.88443884" lon="6.71163931">
				<ele>1032.2</ele>
				<time>2013-08-14T07:02:53Z</time>
				<hdop>2.0</hdop>
			</trkpt>
			<trkpt lat="46.88444281" lon="6.71164545">
				<ele>1032.2</ele>
				<time>2013-08-14T07:02:54Z</time>
				<hdop>2.0</hdop>
			</trkpt>
			<trkpt lat="46.88441694" lon="6.71167913">
				<ele>1032.1</ele>
				<time>2013-08-14T07:02:55Z</time>
				<hdop>2.0</hdop>
			</trkpt>
			<trkpt lat="46.88442958" lon="6.71169526">
				<ele>1033.0</ele>
				<time>2013-08-14T07:02:56Z</time>
				<hdop>1.5</hdop>
			</trkpt>
			<trkpt lat="46.88442656" lon="6.7116954">
				<ele>1032.5</ele>
				<time>2013-08-14T07:02:57Z</time>
				<hdop>2.0</hdop>
			</trkpt>
			<trkpt lat="46.88440645" lon="6.71171316">
				<ele>1032.6</ele>
				<time>2013-08-14T07:02:58Z</time>
				<hdop>2.0</hdop>
			</trkpt>
			<trkpt lat="46.88439981" lon="6.71173219">
				<ele>1032.1</ele>
				<time>2013-08-14T07:02:59Z</time>
				<hdop>2.0</hdop>
			</trkpt>
			<trkpt lat="46.88438853" lon="6.71177199">
				<ele>1031.2</ele>
				<time>2013-08-14T07:03:01Z</time>
				<hdop>2.0</hdop>
			</trkpt>
			<trkpt lat="46.88435279" lon="6.71178577">
				<ele>1032.4</ele>
				<time>2013-08-14T07:03:02Z</time>
				<hdop>2.0</hdop>
			</trkpt>
			<trkpt lat="46.88432789" lon="6.7118187">
				<ele>1032.9</ele>
				<time>2013-08-14T07:03:03Z</time>
				<hdop>2.0</hdop>
			</trkpt>
			<trkpt lat="46.88432686" lon="6.71183941">
				<ele>1033.3</ele>
				<time>2013-08-14T07:03:04Z</time>
				<hdop>2.0</hdop>
			</trkpt>
			<trkpt lat="46.88431287" lon="6.71183935">
				<ele>1033.1</ele>
				<time>2013-08-14T07:03:05Z</time>
				<hdop>1.5</hdop>
			</trkpt>
			<trkpt lat="46.88429282" lon="6.71186713">
				<ele>1032.7</ele>
				<time>2013-08-14T07:03:07Z</time>
				<hdop>2.0</hdop>
			</trkpt>
			<trkpt lat="46.88427152" lon="6.71188345">
				<ele>1032.3</ele>
				<time>2013-08-14T07:03:08Z</time>
				<hdop>2.0</hdop>
			</trkpt>
			<trkpt lat="46.88429323" lon="6.71190634">
				<ele>1032.6</ele>
				<time>2013-08-14T07:03:09Z</time>
				<hdop>2.0</hdop>
			</trkpt>
			<trkpt lat="46.88427995" lon="6.71191942">
				<ele>1033.3</ele>
				<time>2013-08-14T07:03:11Z</time>
				<hdop>2.0</hdop>
			</trkpt>
			<trkpt lat="46.8842617" lon="6.71193633">
				<ele>1032.8</ele>
				<time>2013-08-14T07:03:12Z</time>
				<hdop>2.0</hdop>
			</trkpt>
			<trkpt lat="46.88425481" lon="6.71199711">
				<ele>1032.4</ele>
				<time>2013-08-14T07:03:13Z</time>
				<hdop>2.0</hdop>
			</trkpt>
			<trkpt lat="46.88425848" lon="6.71202126">
				<ele>1031.1</ele>
				<time>2013-08-14T07:03:14Z</time>
				<hdop>2.0</hdop>
			</trkpt>
			<trkpt lat="46.88425214" lon="6.71203509">
				<ele>1031.0</ele>
				<time>2013-08-14T07:03:15Z</time>
				<hdop>3.0</hdop>
			</trkpt>
			<trkpt lat="46.88421948" lon="6.71205249">
				<ele>1031.9</ele>
				<time>2013-08-14T07:03:16Z</time>
				<hdop>2.0</hdop>
			</trkpt>
			<trkpt lat="46.88421903" lon="6.71205095">
				<ele>1031.4</ele>
				<time>2013-08-14T07:03:17Z</time>
				<hdop>3.0</hdop>
			</trkpt>
			<trkpt lat="46.88421309" lon="6.7120873">
				<ele>1032.7</ele>
				<time>2013-08-14T07:03:18Z</time>
				<hdop>3.0</hdop>
			</trkpt>
			<trkpt lat="46.88420338" lon="6.71211748">
				<ele>1032.6</ele>
				<time>2013-08-14T07:03:20Z</time>
				<hdop>4.0</hdop>
			</trkpt>
			<trkpt lat="46.88421078" lon="6.71210354">
				<ele>1033.5</ele>
				<time>2013-08-14T07:03:21Z</time>
				<hdop>3.0</hdop>
			</trkpt>
			<trkpt lat="46.88420517" lon="6.71214853">
				<ele>1034.3</ele>
				<time>2013-08-14T07:03:22Z</time>
				<hdop>3.0</hdop>
			</trkpt>
			<trkpt lat="46.88419029" lon="6.71216178">
				<ele>1034.6</ele>
				<time>2013-08-14T07:03:24Z</time>
				<hdop>3.0</hdop>
			</trkpt>
			<trkpt lat="46.88420566" lon="6.71215363">
				<ele>1035.7</ele>
				<time>2013-08-14T07:03:25Z</time>
				<hdop>3.0</hdop>
			</trkpt>
			<trkpt lat="46.88420395" lon="6.71216391">
				<ele>1035.7</ele>
				<time>2013-08-14T07:03:26Z</time>
				<hdop>3.0</hdop>
			</trkpt>
			<trkpt lat="46.88418878" lon="6.71217431">
				<ele>1035.7</ele>
				<time>2013-08-14T07:03:27Z</time>
				<hdop>3.0</hdop>
			</trkpt>
			<trkpt lat="46.8841604" lon="6.71219223">
				<ele>1038.1</ele>
				<time>2013-08-14T07:03:28Z</time>
				<hdop>3.0</hdop>
			</trkpt>
			<trkpt lat="46.88415569" lon="6.71218258">
				<ele>1039.1</ele>
				<time>2013-08-14T07:03:29Z</time>
				<hdop>2.0</hdop>
			</trkpt>
			<trkpt lat="46.88415427" lon="6.71218449">
				<ele>1037.7</ele>
				<time>2013-08-14T07:03:30Z</time>
				<hdop>2.0</hdop>
			</trkpt>
			<trkpt lat="46.88415713" lon="6.71218083">
				<ele>1038.0</ele>
				<time>2013-08-14T07:03:31Z</time>
				<hdop>2.0</hdop>
			</trkpt>
			<trkpt lat="46.88413404" lon="6.71220728">
				<ele>1038.6</ele>
				<time>2013-08-14T07:03:33Z</time>
				<hdop>3.0</hdop>
			</trkpt>
			<trkpt lat="46.88412508" lon="6.71221126">
				<ele>1038.7</ele>
				<time>2013-08-14T07:03:34Z</time>
				<hdop>2.0</hdop>
			</trkpt>
			<trkpt lat="46.88411868" lon="6.71221694">
				<ele>1038.6</ele>
				<time>2013-08-14T07:03:35Z</time>
				<hdop>3.0</hdop>
			</trkpt>
			<trkpt lat="46.88412494" lon="6.71221474">
				<ele>1038.5</ele>
				<time>2013-08-14T07:03:36Z</time>
				<hdop>2.0</hdop>
			</trkpt>
			<trkpt lat="46.88410984" lon="6.71222956">
				<ele>1037.9</ele>
				<time>2013-08-14T07:03:37Z</time>
				<hdop>3.0</hdop>
			</trkpt>
			<trkpt lat="46.88408229" lon="6.71222522">
				<ele>1037.6</ele>
				<time>2013-08-14T07:03:38Z</time>
				<hdop>3.0</hdop>
			</trkpt>
			<trkpt lat="46.88407815" lon="6.71221765">
				<ele>1037.6</ele>
				<time>2013-08-14T07:03:39Z</time>
				<hdop>2.0</hdop>
			</trkpt>
			<trkpt lat="46.88407938" lon="6.71222145">
				<ele>1037.4</ele>
				<time>2013-08-14T07:03:40Z</time>
				<hdop>2.0</hdop>
			</trkpt>
			<trkpt lat="46.88406987" lon="6.71223259">
				<ele>1037.6</ele>
				<time>2013-08-14T07:03:41Z</time>
				<hdop>2.0</hdop>
			</trkpt>
			<trkpt lat="46.88405442" lon="6.71225421">
				<ele>1038.0</ele>
				<time>2013-08-14T07:03:42Z</time>
				<hdop>2.0</hdop>
			</trkpt>
			<trkpt lat="46.88405608" lon="6.71227718">
				<ele>1037.7</ele>
				<time>2013-08-14T07:03:43Z</time>
				<hdop>2.0</hdop>
			</trkpt>
			<trkpt lat="46.88404087" lon="6.71227113">
				<ele>1036.7</ele>
				<time>2013-08-14T07:03:44Z</time>
				<hdop>1.5</hdop>
			</trkpt>
			<trkpt lat="46.88401067" lon="6.71228083">
				<ele>1035.1</ele>
				<time>2013-08-14T07:03:45Z</time>
				<hdop>1.5</hdop>
			</trkpt>
			<trkpt lat="46.88400033" lon="6.71230663">
				<ele>1034.7</ele>
				<time>2013-08-14T07:03:46Z</time>
				<hdop>1.5</hdop>
			</trkpt>
			<trkpt lat="46.88400485" lon="6.71231032">
				<ele>1034.2</ele>
				<time>2013-08-14T07:03:47Z</time>
				<hdop>2.0</hdop>
			</trkpt>
			<trkpt lat="46.8839849" lon="6.71234755">
				<ele>1033.9</ele>
				<time>2013-08-14T07:03:49Z</time>
				<hdop>3.0</hdop>
			</trkpt>
			<trkpt lat="46.88395807" lon="6.71237928">
				<ele>1033.8</ele>
				<time>2013-08-14T07:03:50Z</time>
				<hdop>3.0</hdop>
			</trkpt>
			<trkpt lat="46.88395299" lon="6.71238237">
				<ele>1033.8</ele>
				<time>2013-08-14T07:03:51Z</time>
				<hdop>3.0</hdop>
			</trkpt>
			<trkpt lat="46.88395123" lon="6.71240984">
				<ele>1032.3</ele>
				<time>2013-08-14T07:03:52Z</time>
				<hdop>3.0</hdop>
			</trkpt>
			<trkpt lat="46.88394081" lon="6.71243849">
				<ele>1032.8</ele>
				<time>2013-08-14T07:03:53Z</time>
				<hdop>3.0</hdop>
			</trkpt>
			<trkpt lat="46.88392707" lon="6.7124432">
				<ele>1031.8</ele>
				<time>2013-08-14T07:03:54Z</time>
				<hdop>3.0</hdop>
			</trkpt>
			<trkpt lat="46.88391446" lon="6.71243934">
				<ele>1031.3</ele>
				<time>2013-08-14T07:03:55Z</time>
				<hdop>3.0</hdop>
			</trkpt>
			<trkpt lat="46.88391626" lon="6.71247455">
				<ele>1031.2</ele>
				<time>2013-08-14T07:03:56Z</time>
				<hdop>3.0</hdop>
			</trkpt>
			<trkpt lat="46.88389841" lon="6.71247489">
				<ele>1030.0</ele>
				<time>2013-08-14T07:03:57Z</time>
				<hdop>3.0</hdop>
			</trkpt>
			<trkpt lat="46.88388087" lon="6.712464">
				<ele>1031.0</ele>
				<time>2013-08-14T07:03:59Z</time>
				<hdop>3.0</hdop>
			</trkpt>
			<trkpt lat="46.88389504" lon="6.71245174">
				<ele>1030.8</ele>
				<time>2013-08-14T07:04:00Z</time>
				<hdop>2.0</hdop>
			</trkpt>
			<trkpt lat="46.88388912" lon="6.71245091">
				<ele>1030.8</ele>
				<time>2013-08-14T07:04:02Z</time>
				<hdop>3.0</hdop>
			</trkpt>
			<trkpt lat="46.88385291" lon="6.71250473">
				<ele>1030.8</ele>
				<time>2013-08-14T07:04:03Z</time>
				<hdop>3.0</hdop>
			</trkpt>
			<trkpt lat="46.88385723" lon="6.71249963">
				<ele>1031.4</ele>
				<time>2013-08-14T07:04:04Z</time>
				<hdop>3.0</hdop>
			</trkpt>
			<trkpt lat="46.88385109" lon="6.71251434">
				<ele>1031.5</ele>
				<time>2013-08-14T07:04:05Z</time>
				<hdop>3.0</hdop>
			</trkpt>
			<trkpt lat="46.88384445" lon="6.7125445">
				<ele>1031.6</ele>
				<time>2013-08-14T07:04:06Z</time>
				<hdop>3.0</hdop>
			</trkpt>
			<trkpt lat="46.88382479" lon="6.71254572">
				<ele>1032.0</ele>
				<time>2013-08-14T07:04:07Z</time>
				<hdop>3.0</hdop>
			</trkpt>
			<trkpt lat="46.88380676" lon="6.71257104">
				<ele>1032.3</ele>
				<time>2013-08-14T07:04:08Z</time>
				<hdop>3.0</hdop>
			</trkpt>
			<trkpt lat="46.88381883" lon="6.71258955">
				<ele>1030.8</ele>
				<time>2013-08-14T07:04:09Z</time>
				<hdop>4.0</hdop>
			</trkpt>
			<trkpt lat="46.88379875" lon="6.7125744">
				<ele>1030.0</ele>
				<time>2013-08-14T07:04:11Z</time>
				<hdop>4.0</hdop>
			</trkpt>
			<trkpt lat="46.88379512" lon="6.71258147">
				<ele>1030.5</ele>
				<time>2013-08-14T07:04:12Z</time>
				<hdop>4.0</hdop>
			</trkpt>
			<trkpt lat="46.88379144" lon="6.71259023">
				<ele>1030.5</ele>
				<time>2013-08-14T07:04:13Z</time>
				<hdop>4.0</hdop>
			</trkpt>
			<trkpt lat="46.88378238" lon="6.71261475">
				<ele>1031.0</ele>
				<time>2013-08-14T07:04:14Z</time>
				<hdop>4.0</hdop>
			</trkpt>
			<trkpt lat="46.88376621" lon="6.71262336">
				<ele>1031.4</ele>
				<time>2013-08-14T07:04:15Z</time>
				<hdop>3.0</hdop>
			</trkpt>
			<trkpt lat="46.88374767" lon="6.7126395">
				<ele>1031.2</ele>
				<time>2013-08-14T07:04:16Z</time>
				<hdop>3.0</hdop>
			</trkpt>
			<trkpt lat="46.88374769" lon="6.71262787">
				<ele>1031.6</ele>
				<time>2013-08-14T07:04:17Z</time>
				<hdop>3.0</hdop>
			</trkpt>
			<trkpt lat="46.88375953" lon="6.71264164">
				<ele>1031.6</ele>
				<time>2013-08-14T07:04:18Z</time>
				<hdop>3.0</hdop>
			</trkpt>
			<trkpt lat="46.88376362" lon="6.71266695">
				<ele>1031.8</ele>
				<time>2013-08-14T07:04:19Z</time>
				<hdop>3.0</hdop>
			</trkpt>
			<trkpt lat="46.88375477" lon="6.71267753">
				<ele>1032.4</ele>
				<time>2013-08-14T07:04:20Z</time>
				<hdop>3.0</hdop>
			</trkpt>
			<trkpt lat="46.88373563" lon="6.71270012">
				<ele>1033.4</ele>
				<time>2013-08-14T07:04:21Z</time>
				<hdop>3.0</hdop>
			</trkpt>
			<trkpt lat="46.8837059" lon="6.71271461">
				<ele>1034.6</ele>
				<time>2013-08-14T07:04:22Z</time>
				<hdop>3.0</hdop>
			</trkpt>
			<trkpt lat="46.88368157" lon="6.71273412">
				<ele>1036.5</ele>
				<time>2013-08-14T07:04:24Z</time>
				<hdop>3.0</hdop>
			</trkpt>
			<trkpt lat="46.88368164" lon="6.71272749">
				<ele>1036.4</ele>
				<time>2013-08-14T07:04:25Z</time>
				<hdop>2.0</hdop>
			</trkpt>
			<trkpt lat="46.88367939" lon="6.71274655">
				<ele>1036.3</ele>
				<time>2013-08-14T07:04:26Z</time>
				<hdop>2.0</hdop>
			</trkpt>
			<trkpt lat="46.88366361" lon="6.71277938">
				<ele>1036.5</ele>
				<time>2013-08-14T07:04:27Z</time>
				<hdop>2.0</hdop>
			</trkpt>
			<trkpt lat="46.88364449" lon="6.71281931">
				<ele>1036.4</ele>
				<time>2013-08-14T07:04:29Z</time>
				<hdop>2.0</hdop>
			</trkpt>
			<trkpt lat="46.88363215" lon="6.71283892">
				<ele>1037.6</ele>
				<time>2013-08-14T07:04:30Z</time>
				<hdop>2.0</hdop>
			</trkpt>
			<trkpt lat="46.88362064" lon="6.71285574">
				<ele>1038.4</ele>
				<time>2013-08-14T07:04:31Z</time>
				<hdop>2.0</hdop>
			</trkpt>
			<trkpt lat="46.88363487" lon="6.7128671">
				<ele>1039.5</ele>
				<time>2013-08-14T07:04:32Z</time>
				<hdop>2.0</hdop>
			</trkpt>
			<trkpt lat="46.88360874" lon="6.71290413">
				<ele>1039.8</ele>
				<time>2013-08-14T07:04:34Z</time>
				<hdop>2.0</hdop>
			</trkpt>
			<trkpt lat="46.8835888" lon="6.71291013">
				<ele>1038.6</ele>
				<time>2013-08-14T07:04:35Z</time>
				<hdop>1.5</hdop>
			</trkpt>
			<trkpt lat="46.88359365" lon="6.71291942">
				<ele>1038.4</ele>
				<time>2013-08-14T07:04:36Z</time>
				<hdop>2.0</hdop>
			</trkpt>
			<trkpt lat="46.88358004" lon="6.71293063">
				<ele>1037.9</ele>
				<time>2013-08-14T07:04:37Z</time>
				<hdop>1.5</hdop>
			</trkpt>
			<trkpt lat="46.8835726" lon="6.71293918">
				<ele>1038.1</ele>
				<time>2013-08-14T07:04:38Z</time>
				<hdop>1.5</hdop>
			</trkpt>
			<trkpt lat="46.88354679" lon="6.71295149">
				<ele>1038.8</ele>
				<time>2013-08-14T07:04:39Z</time>
				<hdop>1.5</hdop>
			</trkpt>
			<trkpt lat="46.88352899" lon="6.71298651">
				<ele>1039.9</ele>
				<time>2013-08-14T07:04:40Z</time>
				<hdop>1.5</hdop>
			</trkpt>
			<trkpt lat="46.88354721" lon="6.71298075">
				<ele>1039.7</ele>
				<time>2013-08-14T07:04:41Z</time>
				<hdop>1.5</hdop>
			</trkpt>
			<trkpt lat="46.8835245" lon="6.71299401">
				<ele>1037.9</ele>
				<time>2013-08-14T07:04:43Z</time>
				<hdop>1.5</hdop>
			</trkpt>
			<trkpt lat="46.88352182" lon="6.71302955">
				<ele>1038.1</ele>
				<time>2013-08-14T07:04:44Z</time>
				<hdop>2.0</hdop>
			</trkpt>
			<trkpt lat="46.883504" lon="6.71303378">
				<ele>1036.5</ele>
				<time>2013-08-14T07:04:45Z</time>
				<hdop>2.0</hdop>
			</trkpt>
			<trkpt lat="46.88348481" lon="6.71306194">
				<ele>1036.7</ele>
				<time>2013-08-14T07:04:46Z</time>
				<hdop>2.0</hdop>
			</trkpt>
			<trkpt lat="46.88347994" lon="6.71306279">
				<ele>1037.2</ele>
				<time>2013-08-14T07:04:48Z</time>
				<hdop>2.0</hdop>
			</trkpt>
			<trkpt lat="46.88347611" lon="6.71305752">
				<ele>1037.7</ele>
				<time>2013-08-14T07:04:49Z</time>
				<hdop>2.0</hdop>
			</trkpt>
			<trkpt lat="46.88347546" lon="6.71306024">
				<ele>1036.1</ele>
				<time>2013-08-14T07:04:51Z</time>
				<hdop>2.0</hdop>
			</trkpt>
			<trkpt lat="46.8834594" lon="6.71308236">
				<ele>1037.0</ele>
				<time>2013-08-14T07:04:52Z</time>
				<hdop>2.0</hdop>
			</trkpt>
			<trkpt lat="46.88344296" lon="6.71310322">
				<ele>1038.0</ele>
				<time>2013-08-14T07:04:53Z</time>
				<hdop>2.0</hdop>
			</trkpt>
			<trkpt lat="46.88342823" lon="6.71311794">
				<ele>1037.8</ele>
				<time>2013-08-14T07:04:54Z</time>
				<hdop>2.0</hdop>
			</trkpt>
			<trkpt lat="46.88340621" lon="6.71313759">
				<ele>1037.6</ele>
				<time>2013-08-14T07:04:55Z</time>
				<hdop>2.0</hdop>
			</trkpt>
			<trkpt lat="46.88340634" lon="6.71312729">
				<ele>1037.1</ele>
				<time>2013-08-14T07:04:56Z</time>
				<hdop>2.0</hdop>
			</trkpt>
			<trkpt lat="46.88339586" lon="6.71314159">
				<ele>1036.9</ele>
				<time>2013-08-14T07:04:57Z</time>
				<hdop>2.0</hdop>
			</trkpt>
			<trkpt lat="46.88337114" lon="6.7131656">
				<ele>1037.7</ele>
				<time>2013-08-14T07:04:58Z</time>
				<hdop>2.0</hdop>
			</trkpt>
			<trkpt lat="46.88336239" lon="6.71317967">
				<ele>1038.2</ele>
				<time>2013-08-14T07:04:59Z</time>
				<hdop>2.0</hdop>
			</trkpt>
			<trkpt lat="46.88335717" lon="6.71318828">
				<ele>1038.5</ele>
				<time>2013-08-14T07:05:00Z</time>
				<hdop>2.0</hdop>
			</trkpt>
			<trkpt lat="46.88334796" lon="6.71318705">
				<ele>1038.8</ele>
				<time>2013-08-14T07:05:01Z</time>
				<hdop>2.0</hdop>
			</trkpt>
			<trkpt lat="46.88335641" lon="6.71317881">
				<ele>1039.2</ele>
				<time>2013-08-14T07:05:02Z</time>
				<hdop>2.0</hdop>
			</trkpt>
			<trkpt lat="46.88334187" lon="6.71319998">
				<ele>1039.6</ele>
				<time>2013-08-14T07:05:03Z</time>
				<hdop>2.0</hdop>
			</trkpt>
			<trkpt lat="46.88333808" lon="6.71320245">
				<ele>1039.6</ele>
				<time>2013-08-14T07:05:04Z</time>
				<hdop>3.0</hdop>
			</trkpt>
			<trkpt lat="46.88327294" lon="6.71325603">
				<ele>1042.4</ele>
				<time>2013-08-14T07:05:06Z</time>
				<hdop>3.0</hdop>
			</trkpt>
			<trkpt lat="46.88326158" lon="6.71326434">
				<ele>1042.4</ele>
				<time>2013-08-14T07:05:07Z</time>
				<hdop>3.0</hdop>
			</trkpt>
			<trkpt lat="46.88326011" lon="6.71328019">
				<ele>1042.8</ele>
				<time>2013-08-14T07:05:08Z</time>
				<hdop>3.0</hdop>
			</trkpt>
			<trkpt lat="46.88325431" lon="6.71329627">
				<ele>1042.6</ele>
				<time>2013-08-14T07:05:09Z</time>
				<hdop>2.0</hdop>
			</trkpt>
			<trkpt lat="46.88324968" lon="6.71328051">
				<ele>1041.9</ele>
				<time>2013-08-14T07:05:10Z</time>
				<hdop>2.0</hdop>
			</trkpt>
			<trkpt lat="46.88321516" lon="6.71328973">
				<ele>1041.8</ele>
				<time>2013-08-14T07:05:12Z</time>
				<hdop>2.0</hdop>
			</trkpt>
			<trkpt lat="46.8831968" lon="6.71329031">
				<ele>1042.3</ele>
				<time>2013-08-14T07:05:13Z</time>
				<hdop>2.0</hdop>
			</trkpt>
			<trkpt lat="46.88317429" lon="6.71329839">
				<ele>1042.4</ele>
				<time>2013-08-14T07:05:14Z</time>
				<hdop>2.0</hdop>
			</trkpt>
			<trkpt lat="46.88315407" lon="6.71331533">
				<ele>1042.6</ele>
				<time>2013-08-14T07:05:16Z</time>
				<hdop>2.0</hdop>
			</trkpt>
			<trkpt lat="46.88315116" lon="6.7133117">
				<ele>1042.6</ele>
				<time>2013-08-14T07:05:17Z</time>
				<hdop>2.0</hdop>
			</trkpt>
			<trkpt lat="46.88314375" lon="6.71328874">
				<ele>1042.8</ele>
				<time>2013-08-14T07:05:18Z</time>
				<hdop>2.0</hdop>
			</trkpt>
			<trkpt lat="46.88313764" lon="6.71326132">
				<ele>1043.3</ele>
				<time>2013-08-14T07:05:19Z</time>
				<hdop>3.0</hdop>
			</trkpt>
			<trkpt lat="46.88310635" lon="6.71328316">
				<ele>1043.8</ele>
				<time>2013-08-14T07:05:20Z</time>
				<hdop>3.0</hdop>
			</trkpt>
			<trkpt lat="46.88309923" lon="6.71328231">
				<ele>1043.8</ele>
				<time>2013-08-14T07:05:21Z</time>
				<hdop>3.0</hdop>
			</trkpt>
			<trkpt lat="46.88309581" lon="6.71326903">
				<ele>1043.5</ele>
				<time>2013-08-14T07:05:22Z</time>
				<hdop>3.0</hdop>
			</trkpt>
			<trkpt lat="46.88308026" lon="6.71328571">
				<ele>1043.7</ele>
				<time>2013-08-14T07:05:23Z</time>
				<hdop>3.0</hdop>
			</trkpt>
			<trkpt lat="46.88305806" lon="6.71332644">
				<ele>1043.7</ele>
				<time>2013-08-14T07:05:24Z</time>
				<hdop>3.0</hdop>
			</trkpt>
			<trkpt lat="46.88305078" lon="6.7133265">
				<ele>1044.3</ele>
				<time>2013-08-14T07:05:25Z</time>
				<hdop>3.0</hdop>
			</trkpt>
			<trkpt lat="46.88305166" lon="6.71334866">
				<ele>1044.9</ele>
				<time>2013-08-14T07:05:27Z</time>
				<hdop>3.0</hdop>
			</trkpt>
			<trkpt lat="46.88302698" lon="6.71339126">
				<ele>1044.7</ele>
				<time>2013-08-14T07:05:28Z</time>
				<hdop>3.0</hdop>
			</trkpt>
			<trkpt lat="46.88300658" lon="6.71338057">
				<ele>1045.1</ele>
				<time>2013-08-14T07:05:29Z</time>
				<hdop>3.0</hdop>
			</trkpt>
			<trkpt lat="46.88299789" lon="6.71338311">
				<ele>1045.2</ele>
				<time>2013-08-14T07:05:30Z</time>
				<hdop>3.0</hdop>
			</trkpt>
			<trkpt lat="46.88299091" lon="6.71339122">
				<ele>1045.2</ele>
				<time>2013-08-14T07:05:31Z</time>
				<hdop>3.0</hdop>
			</trkpt>
			<trkpt lat="46.88298872" lon="6.71341577">
				<ele>1045.6</ele>
				<time>2013-08-14T07:05:32Z</time>
				<hdop>3.0</hdop>
			</trkpt>
			<trkpt lat="46.88299125" lon="6.71345415">
				<ele>1047.0</ele>
				<time>2013-08-14T07:05:33Z</time>
				<hdop>3.0</hdop>
			</trkpt>
			<trkpt lat="46.88297261" lon="6.71348095">
				<ele>1047.8</ele>
				<time>2013-08-14T07:05:34Z</time>
				<hdop>3.0</hdop>
			</trkpt>
			<trkpt lat="46.88298345" lon="6.71348607">
				<ele>1048.8</ele>
				<time>2013-08-14T07:05:35Z</time>
				<hdop>3.0</hdop>
			</trkpt>
			<trkpt lat="46.8829649" lon="6.71350619">
				<ele>1049.9</ele>
				<time>2013-08-14T07:05:36Z</time>
				<hdop>3.0</hdop>
			</trkpt>
			<trkpt lat="46.88294691" lon="6.71351416">
				<ele>1050.1</ele>
				<time>2013-08-14T07:05:37Z</time>
				<hdop>3.0</hdop>
			</trkpt>
			<trkpt lat="46.88293767" lon="6.71353842">
				<ele>1051.0</ele>
				<time>2013-08-14T07:05:38Z</time>
				<hdop>3.0</hdop>
			</trkpt>
			<trkpt lat="46.88292743" lon="6.71354762">
				<ele>1051.2</ele>
				<time>2013-08-14T07:05:39Z</time>
				<hdop>3.0</hdop>
			</trkpt>
			<trkpt lat="46.8829182" lon="6.71355989">
				<ele>1051.6</ele>
				<time>2013-08-14T07:05:40Z</time>
				<hdop>3.0</hdop>
			</trkpt>
			<trkpt lat="46.88290606" lon="6.71355956">
				<ele>1051.5</ele>
				<time>2013-08-14T07:05:41Z</time>
				<hdop>3.0</hdop>
			</trkpt>
			<trkpt lat="46.8828757" lon="6.71358616">
				<ele>1051.4</ele>
				<time>2013-08-14T07:05:42Z</time>
				<hdop>3.0</hdop>
			</trkpt>
			<trkpt lat="46.88287861" lon="6.71357051">
				<ele>1051.8</ele>
				<time>2013-08-14T07:05:43Z</time>
				<hdop>2.0</hdop>
			</trkpt>
			<trkpt lat="46.8828729" lon="6.71355681">
				<ele>1051.9</ele>
				<time>2013-08-14T07:05:44Z</time>
				<hdop>2.0</hdop>
			</trkpt>
			<trkpt lat="46.88283461" lon="6.71356647">
				<ele>1052.7</ele>
				<time>2013-08-14T07:05:45Z</time>
				<hdop>3.0</hdop>
			</trkpt>
			<trkpt lat="46.88283442" lon="6.71356048">
				<ele>1051.6</ele>
				<time>2013-08-14T07:05:46Z</time>
				<hdop>2.0</hdop>
			</trkpt>
			<trkpt lat="46.88283922" lon="6.71355943">
				<ele>1050.8</ele>
				<time>2013-08-14T07:05:47Z</time>
				<hdop>2.0</hdop>
			</trkpt>
			<trkpt lat="46.88283403" lon="6.71354955">
				<ele>1050.8</ele>
				<time>2013-08-14T07:05:48Z</time>
				<hdop>2.0</hdop>
			</trkpt>
			<trkpt lat="46.88283145" lon="6.71355412">
				<ele>1050.7</ele>
				<time>2013-08-14T07:05:49Z</time>
				<hdop>2.0</hdop>
			</trkpt>
			<trkpt lat="46.88282377" lon="6.71354894">
				<ele>1051.2</ele>
				<time>2013-08-14T07:05:50Z</time>
				<hdop>2.0</hdop>
			</trkpt>
			<trkpt lat="46.8828076" lon="6.71357157">
				<ele>1052.1</ele>
				<time>2013-08-14T07:05:51Z</time>
				<hdop>3.0</hdop>
			</trkpt>
			<trkpt lat="46.88281393" lon="6.71357153">
				<ele>1051.6</ele>
				<time>2013-08-14T07:05:52Z</time>
				<hdop>2.0</hdop>
			</trkpt>
			<trkpt lat="46.88281254" lon="6.71360909">
				<ele>1051.9</ele>
				<time>2013-08-14T07:05:53Z</time>
				<hdop>2.0</hdop>
			</trkpt>
			<trkpt lat="46.88281458" lon="6.71362271">
				<ele>1052.8</ele>
				<time>2013-08-14T07:05:54Z</time>
				<hdop>2.0</hdop>
			</trkpt>
			<trkpt lat="46.88280195" lon="6.71360543">
				<ele>1052.9</ele>
				<time>2013-08-14T07:05:55Z</time>
				<hdop>3.0</hdop>
			</trkpt>
			<trkpt lat="46.88279127" lon="6.71360245">
				<ele>1053.4</ele>
				<time>2013-08-14T07:05:56Z</time>
				<hdop>2.0</hdop>
			</trkpt>
			<trkpt lat="46.88278637" lon="6.71359411">
				<ele>1052.8</ele>
				<time>2013-08-14T07:05:58Z</time>
				<hdop>3.0</hdop>
			</trkpt>
			<trkpt lat="46.88277767" lon="6.71360272">
				<ele>1053.0</ele>
				<time>2013-08-14T07:05:59Z</time>
				<hdop>3.0</hdop>
			</trkpt>
			<trkpt lat="46.88276334" lon="6.71363077">
				<ele>1054.3</ele>
				<time>2013-08-14T07:06:00Z</time>
				<hdop>3.0</hdop>
			</trkpt>
			<trkpt lat="46.88274609" lon="6.71364383">
				<ele>1053.9</ele>
				<time>2013-08-14T07:06:01Z</time>
				<hdop>3.0</hdop>
			</trkpt>
			<trkpt lat="46.88269246" lon="6.71364945">
				<ele>1052.2</ele>
				<time>2013-08-14T07:06:02Z</time>
				<hdop>3.0</hdop>
			</trkpt>
			<trkpt lat="46.88264849" lon="6.71366419">
				<ele>1051.1</ele>
				<time>2013-08-14T07:06:04Z</time>
				<hdop>3.0</hdop>
			</trkpt>
			<trkpt lat="46.88262571" lon="6.71366267">
				<ele>1051.3</ele>
				<time>2013-08-14T07:06:05Z</time>
				<hdop>3.0</hdop>
			</trkpt>
			<trkpt lat="46.88261239" lon="6.71364543">
				<ele>1052.1</ele>
				<time>2013-08-14T07:06:06Z</time>
				<hdop>3.0</hdop>
			</trkpt>
			<trkpt lat="46.88260557" lon="6.71366523">
				<ele>1052.8</ele>
				<time>2013-08-14T07:06:07Z</time>
				<hdop>3.0</hdop>
			</trkpt>
			<trkpt lat="46.88259749" lon="6.71366554">
				<ele>1052.8</ele>
				<time>2013-08-14T07:06:08Z</time>
				<hdop>3.0</hdop>
			</trkpt>
			<trkpt lat="46.88255999" lon="6.71369983">
				<ele>1054.7</ele>
				<time>2013-08-14T07:06:10Z</time>
				<hdop>3.0</hdop>
			</trkpt>
			<trkpt lat="46.88254083" lon="6.71371236">
				<ele>1056.0</ele>
				<time>2013-08-14T07:06:12Z</time>
				<hdop>3.0</hdop>
			</trkpt>
			<trkpt lat="46.88252871" lon="6.71371845">
				<ele>1056.4</ele>
				<time>2013-08-14T07:06:13Z</time>
				<hdop>3.0</hdop>
			</trkpt>
			<trkpt lat="46.88250982" lon="6.71374005">
				<ele>1056.2</ele>
				<time>2013-08-14T07:06:14Z</time>
				<hdop>3.0</hdop>
			</trkpt>
			<trkpt lat="46.88248713" lon="6.71375023">
				<ele>1056.8</ele>
				<time>2013-08-14T07:06:15Z</time>
				<hdop>3.0</hdop>
			</trkpt>
			<trkpt lat="46.88248404" lon="6.71374905">
				<ele>1056.7</ele>
				<time>2013-08-14T07:06:16Z</time>
				<hdop>3.0</hdop>
			</trkpt>
			<trkpt lat="46.88248136" lon="6.71375383">
				<ele>1057.1</ele>
				<time>2013-08-14T07:06:17Z</time>
				<hdop>3.0</hdop>
			</trkpt>
			<trkpt lat="46.88248368" lon="6.7137462">
				<ele>1057.5</ele>
				<time>2013-08-14T07:06:18Z</time>
				<hdop>3.0</hdop>
			</trkpt>
			<trkpt lat="46.88247212" lon="6.71375313">
				<ele>1057.4</ele>
				<time>2013-08-14T07:06:19Z</time>
				<hdop>3.0</hdop>
			</trkpt>
			<trkpt lat="46.88244348" lon="6.71376094">
				<ele>1057.0</ele>
				<time>2013-08-14T07:06:20Z</time>
				<hdop>3.0</hdop>
			</trkpt>
			<trkpt lat="46.8824126" lon="6.71372387">
				<ele>1058.3</ele>
				<time>2013-08-14T07:06:21Z</time>
				<hdop>3.0</hdop>
			</trkpt>
			<trkpt lat="46.88239907" lon="6.71371179">
				<ele>1058.1</ele>
				<time>2013-08-14T07:06:22Z</time>
				<hdop>3.0</hdop>
			</trkpt>
			<trkpt lat="46.88239115" lon="6.71370467">
				<ele>1058.1</ele>
				<time>2013-08-14T07:06:23Z</time>
				<hdop>3.0</hdop>
			</trkpt>
			<trkpt lat="46.88237263" lon="6.71370495">
				<ele>1060.2</ele>
				<time>2013-08-14T07:06:24Z</time>
				<hdop>3.0</hdop>
			</trkpt>
			<trkpt lat="46.882344" lon="6.71371004">
				<ele>1060.6</ele>
				<time>2013-08-14T07:06:25Z</time>
				<hdop>3.0</hdop>
			</trkpt>
			<trkpt lat="46.88234177" lon="6.71372497">
				<ele>1061.0</ele>
				<time>2013-08-14T07:06:26Z</time>
				<hdop>3.0</hdop>
			</trkpt>
			<trkpt lat="46.88233399" lon="6.71370811">
				<ele>1059.5</ele>
				<time>2013-08-14T07:06:28Z</time>
				<hdop>2.0</hdop>
			</trkpt>
			<trkpt lat="46.88232229" lon="6.71373702">
				<ele>1059.0</ele>
				<time>2013-08-14T07:06:29Z</time>
				<hdop>3.0</hdop>
			</trkpt>
			<trkpt lat="46.88229761" lon="6.71374456">
				<ele>1057.3</ele>
				<time>2013-08-14T07:06:31Z</time>
				<hdop>3.0</hdop>
			</trkpt>
			<trkpt lat="46.88229557" lon="6.71372641">
				<ele>1056.9</ele>
				<time>2013-08-14T07:06:32Z</time>
				<hdop>3.0</hdop>
			</trkpt>
			<trkpt lat="46.88228474" lon="6.71371744">
				<ele>1056.6</ele>
				<time>2013-08-14T07:06:33Z</time>
				<hdop>2.0</hdop>
			</trkpt>
			<trkpt lat="46.88225326" lon="6.71372888">
				<ele>1056.3</ele>
				<time>2013-08-14T07:06:35Z</time>
				<hdop>3.0</hdop>
			</trkpt>
			<trkpt lat="46.88225711" lon="6.71368887">
				<ele>1056.3</ele>
				<time>2013-08-14T07:06:36Z</time>
				<hdop>3.0</hdop>
			</trkpt>
			<trkpt lat="46.88224999" lon="6.71368384">
				<ele>1056.3</ele>
				<time>2013-08-14T07:06:37Z</time>
				<hdop>3.0</hdop>
			</trkpt>
			<trkpt lat="46.88224447" lon="6.7136668">
				<ele>1056.9</ele>
				<time>2013-08-14T07:06:38Z</time>
				<hdop>3.0</hdop>
			</trkpt>
			<trkpt lat="46.88222547" lon="6.71366564">
				<ele>1057.8</ele>
				<time>2013-08-14T07:06:39Z</time>
				<hdop>3.0</hdop>
			</trkpt>
			<trkpt lat="46.88222161" lon="6.71367473">
				<ele>1059.5</ele>
				<time>2013-08-14T07:06:40Z</time>
				<hdop>3.0</hdop>
			</trkpt>
			<trkpt lat="46.8822057" lon="6.71369556">
				<ele>1058.9</ele>
				<time>2013-08-14T07:06:41Z</time>
				<hdop>3.0</hdop>
			</trkpt>
			<trkpt lat="46.88216679" lon="6.71369541">
				<ele>1060.1</ele>
				<time>2013-08-14T07:06:42Z</time>
				<hdop>3.0</hdop>
			</trkpt>
			<trkpt lat="46.88218444" lon="6.71367305">
				<ele>1061.5</ele>
				<time>2013-08-14T07:06:43Z</time>
				<hdop>3.0</hdop>
			</trkpt>
			<trkpt lat="46.88218301" lon="6.71368321">
				<ele>1062.1</ele>
				<time>2013-08-14T07:06:45Z</time>
				<hdop>3.0</hdop>
			</trkpt>
			<trkpt lat="46.88217221" lon="6.71368584">
				<ele>1062.1</ele>
				<time>2013-08-14T07:06:46Z</time>
				<hdop>3.0</hdop>
			</trkpt>
			<trkpt lat="46.88217221" lon="6.71368584">
				<ele>1062.1</ele>
				<time>2013-08-14T07:06:47Z</time>
				<hdop>3.0</hdop>
			</trkpt>
			<trkpt lat="46.8821781" lon="6.71366876">
				<ele>1061.8</ele>
				<time>2013-08-14T07:06:48Z</time>
				<hdop>3.0</hdop>
			</trkpt>
			<trkpt lat="46.88217285" lon="6.71366074">
				<ele>1062.0</ele>
				<time>2013-08-14T07:06:49Z</time>
				<hdop>3.0</hdop>
			</trkpt>
			<trkpt lat="46.88217176" lon="6.71366052">
				<ele>1062.3</ele>
				<time>2013-08-14T07:06:51Z</time>
				<hdop>3.0</hdop>
			</trkpt>
			<trkpt lat="46.88216667" lon="6.71366307">
				<ele>1061.8</ele>
				<time>2013-08-14T07:06:52Z</time>
				<hdop>3.0</hdop>
			</trkpt>
			<trkpt lat="46.88216727" lon="6.71366071">
				<ele>1062.0</ele>
				<time>2013-08-14T07:06:53Z</time>
				<hdop>3.0</hdop>
			</trkpt>
			<trkpt lat="46.882155" lon="6.71367709">
				<ele>1063.0</ele>
				<time>2013-08-14T07:06:54Z</time>
				<hdop>3.0</hdop>
			</trkpt>
			<trkpt lat="46.88215106" lon="6.71368109">
				<ele>1063.2</ele>
				<time>2013-08-14T07:06:56Z</time>
				<hdop>3.0</hdop>
			</trkpt>
			<trkpt lat="46.88214918" lon="6.71368107">
				<ele>1063.1</ele>
				<time>2013-08-14T07:06:57Z</time>
				<hdop>3.0</hdop>
			</trkpt>
			<trkpt lat="46.88215" lon="6.71367978">
				<ele>1063.1</ele>
				<time>2013-08-14T07:06:58Z</time>
				<hdop>3.0</hdop>
			</trkpt>
			<trkpt lat="46.88214933" lon="6.7136803">
				<ele>1063.1</ele>
				<time>2013-08-14T07:06:59Z</time>
				<hdop>3.0</hdop>
			</trkpt>
			<trkpt lat="46.88214934" lon="6.71368047">
				<ele>1063.1</ele>
				<time>2013-08-14T07:07:00Z</time>
				<hdop>3.0</hdop>
			</trkpt>
			<trkpt lat="46.88214915" lon="6.71368046">
				<ele>1063.1</ele>
				<time>2013-08-14T07:07:01Z</time>
				<hdop>3.0</hdop>
			</trkpt>
			<trkpt lat="46.88214915" lon="6.71368046">
				<ele>1063.1</ele>
				<time>2013-08-14T07:07:02Z</time>
				<hdop>4.0</hdop>
			</trkpt>
			<trkpt lat="46.88214973" lon="6.71368016">
				<ele>1063.1</ele>
				<time>2013-08-14T07:07:03Z</time>
				<hdop>3.0</hdop>
			</trkpt>
			<trkpt lat="46.88214973" lon="6.71367996">
				<ele>1063.1</ele>
				<time>2013-08-14T07:07:04Z</time>
				<hdop>3.0</hdop>
			</trkpt>
			<trkpt lat="46.88214855" lon="6.71368037">
				<ele>1063.2</ele>
				<time>2013-08-14T07:07:05Z</time>
				<hdop>3.0</hdop>
			</trkpt>
			<trkpt lat="46.88210731" lon="6.71364981">
				<ele>1063.9</ele>
				<time>2013-08-14T07:07:07Z</time>
				<hdop>3.0</hdop>
			</trkpt>
			<trkpt lat="46.88204723" lon="6.71368985">
				<ele>1063.0</ele>
				<time>2013-08-14T07:07:09Z</time>
				<hdop>3.0</hdop>
			</trkpt>
			<trkpt lat="46.88199981" lon="6.71366958">
				<ele>1063.3</ele>
				<time>2013-08-14T07:07:10Z</time>
				<hdop>3.0</hdop>
			</trkpt>
			<trkpt lat="46.88191016" lon="6.71367674">
				<ele>1061.7</ele>
				<time>2013-08-14T07:07:11Z</time>
				<hdop>3.0</hdop>
			</trkpt>
			<trkpt lat="46.88188757" lon="6.71365275">
				<ele>1061.9</ele>
				<time>2013-08-14T07:07:12Z</time>
				<hdop>3.0</hdop>
			</trkpt>
			<trkpt lat="46.88182241" lon="6.71369058">
				<ele>1061.3</ele>
				<time>2013-08-14T07:07:13Z</time>
				<hdop>3.0</hdop>
			</trkpt>
			<trkpt lat="46.88180054" lon="6.71369586">
				<ele>1063.8</ele>
				<time>2013-08-14T07:07:14Z</time>
				<hdop>3.0</hdop>
			</trkpt>
			<trkpt lat="46.88177131" lon="6.71368879">
				<ele>1064.9</ele>
				<time>2013-08-14T07:07:15Z</time>
				<hdop>3.0</hdop>
			</trkpt>
			<trkpt lat="46.88175492" lon="6.71367682">
				<ele>1064.6</ele>
				<time>2013-08-14T07:07:16Z</time>
				<hdop>3.0</hdop>
			</trkpt>
			<trkpt lat="46.88174334" lon="6.71367196">
				<ele>1064.6</ele>
				<time>2013-08-14T07:07:17Z</time>
				<hdop>3.0</hdop>
			</trkpt>
			<trkpt lat="46.88173708" lon="6.71366349">
				<ele>1063.7</ele>
				<time>2013-08-14T07:07:18Z</time>
				<hdop>3.0</hdop>
			</trkpt>
			<trkpt lat="46.88172113" lon="6.71363135">
				<ele>1064.5</ele>
				<time>2013-08-14T07:07:20Z</time>
				<hdop>3.0</hdop>
			</trkpt>
			<trkpt lat="46.88170027" lon="6.7136631">
				<ele>1064.3</ele>
				<time>2013-08-14T07:07:21Z</time>
				<hdop>3.0</hdop>
			</trkpt>
			<trkpt lat="46.88168922" lon="6.71366387">
				<ele>1064.1</ele>
				<time>2013-08-14T07:07:22Z</time>
				<hdop>3.0</hdop>
			</trkpt>
			<trkpt lat="46.88167331" lon="6.71366762">
				<ele>1064.1</ele>
				<time>2013-08-14T07:07:23Z</time>
				<hdop>2.0</hdop>
			</trkpt>
			<trkpt lat="46.88165341" lon="6.71369585">
				<ele>1063.4</ele>
				<time>2013-08-14T07:07:24Z</time>
				<hdop>2.0</hdop>
			</trkpt>
			<trkpt lat="46.88164413" lon="6.71369794">
				<ele>1063.8</ele>
				<time>2013-08-14T07:07:25Z</time>
				<hdop>2.0</hdop>
			</trkpt>
			<trkpt lat="46.88163788" lon="6.71368296">
				<ele>1063.2</ele>
				<time>2013-08-14T07:07:26Z</time>
				<hdop>2.0</hdop>
			</trkpt>
			<trkpt lat="46.88163024" lon="6.713665">
				<ele>1062.3</ele>
				<time>2013-08-14T07:07:27Z</time>
				<hdop>2.0</hdop>
			</trkpt>
			<trkpt lat="46.88162306" lon="6.71369">
				<ele>1062.6</ele>
				<time>2013-08-14T07:07:28Z</time>
				<hdop>2.0</hdop>
			</trkpt>
			<trkpt lat="46.88162084" lon="6.71367104">
				<ele>1061.6</ele>
				<time>2013-08-14T07:07:29Z</time>
				<hdop>2.0</hdop>
			</trkpt>
			<trkpt lat="46.88160477" lon="6.71363571">
				<ele>1061.0</ele>
				<time>2013-08-14T07:07:30Z</time>
				<hdop>2.0</hdop>
			</trkpt>
			<trkpt lat="46.88152982" lon="6.71366856">
				<ele>1060.6</ele>
				<time>2013-08-14T07:07:32Z</time>
				<hdop>2.0</hdop>
			</trkpt>
			<trkpt lat="46.88151177" lon="6.71367753">
				<ele>1060.2</ele>
				<time>2013-08-14T07:07:33Z</time>
				<hdop>3.0</hdop>
			</trkpt>
			<trkpt lat="46.88149595" lon="6.71369259">
				<ele>1060.7</ele>
				<time>2013-08-14T07:07:35Z</time>
				<hdop>2.0</hdop>
			</trkpt>
			<trkpt lat="46.88148355" lon="6.71369007">
				<ele>1059.8</ele>
				<time>2013-08-14T07:07:36Z</time>
				<hdop>2.0</hdop>
			</trkpt>
			<trkpt lat="46.88147813" lon="6.71370026">
				<ele>1060.2</ele>
				<time>2013-08-14T07:07:37Z</time>
				<hdop>2.0</hdop>
			</trkpt>
			<trkpt lat="46.88145639" lon="6.71369552">
				<ele>1060.4</ele>
				<time>2013-08-14T07:07:39Z</time>
				<hdop>3.0</hdop>
			</trkpt>
			<trkpt lat="46.88144406" lon="6.71369784">
				<ele>1060.5</ele>
				<time>2013-08-14T07:07:40Z</time>
				<hdop>3.0</hdop>
			</trkpt>
			<trkpt lat="46.88142995" lon="6.71370717">
				<ele>1060.9</ele>
				<time>2013-08-14T07:07:41Z</time>
				<hdop>3.0</hdop>
			</trkpt>
			<trkpt lat="46.88141693" lon="6.71369038">
				<ele>1061.9</ele>
				<time>2013-08-14T07:07:42Z</time>
				<hdop>3.0</hdop>
			</trkpt>
			<trkpt lat="46.88139822" lon="6.71366101">
				<ele>1064.6</ele>
				<time>2013-08-14T07:07:43Z</time>
				<hdop>3.0</hdop>
			</trkpt>
			<trkpt lat="46.8813681" lon="6.71366403">
				<ele>1067.7</ele>
				<time>2013-08-14T07:07:45Z</time>
				<hdop>3.0</hdop>
			</trkpt>
			<trkpt lat="46.88134407" lon="6.71365308">
				<ele>1068.3</ele>
				<time>2013-08-14T07:07:46Z</time>
				<hdop>3.0</hdop>
			</trkpt>
			<trkpt lat="46.88133085" lon="6.71362542">
				<ele>1069.0</ele>
				<time>2013-08-14T07:07:47Z</time>
				<hdop>3.0</hdop>
			</trkpt>
			<trkpt lat="46.88131967" lon="6.71358552">
				<ele>1069.7</ele>
				<time>2013-08-14T07:07:48Z</time>
				<hdop>3.0</hdop>
			</trkpt>
			<trkpt lat="46.88132587" lon="6.71357408">
				<ele>1070.1</ele>
				<time>2013-08-14T07:07:49Z</time>
				<hdop>3.0</hdop>
			</trkpt>
			<trkpt lat="46.8813125" lon="6.71355237">
				<ele>1068.6</ele>
				<time>2013-08-14T07:07:50Z</time>
				<hdop>3.0</hdop>
			</trkpt>
			<trkpt lat="46.88130779" lon="6.71354619">
				<ele>1068.0</ele>
				<time>2013-08-14T07:07:51Z</time>
				<hdop>3.0</hdop>
			</trkpt>
			<trkpt lat="46.88129373" lon="6.71353772">
				<ele>1068.3</ele>
				<time>2013-08-14T07:07:52Z</time>
				<hdop>3.0</hdop>
			</trkpt>
			<trkpt lat="46.88127184" lon="6.71353058">
				<ele>1069.1</ele>
				<time>2013-08-14T07:07:53Z</time>
				<hdop>3.0</hdop>
			</trkpt>
			<trkpt lat="46.88126604" lon="6.7135275">
				<ele>1069.0</ele>
				<time>2013-08-14T07:07:54Z</time>
				<hdop>3.0</hdop>
			</trkpt>
			<trkpt lat="46.88126266" lon="6.71350933">
				<ele>1069.2</ele>
				<time>2013-08-14T07:07:55Z</time>
				<hdop>3.0</hdop>
			</trkpt>
			<trkpt lat="46.88126083" lon="6.71350985">
				<ele>1068.9</ele>
				<time>2013-08-14T07:07:56Z</time>
				<hdop>3.0</hdop>
			</trkpt>
			<trkpt lat="46.88126787" lon="6.71349473">
				<ele>1068.4</ele>
				<time>2013-08-14T07:07:57Z</time>
				<hdop>3.0</hdop>
			</trkpt>
			<trkpt lat="46.88123366" lon="6.71348855">
				<ele>1068.7</ele>
				<time>2013-08-14T07:07:58Z</time>
				<hdop>3.0</hdop>
			</trkpt>
			<trkpt lat="46.88120758" lon="6.7134932">
				<ele>1069.1</ele>
				<time>2013-08-14T07:07:59Z</time>
				<hdop>3.0</hdop>
			</trkpt>
			<trkpt lat="46.88118476" lon="6.71349784">
				<ele>1068.6</ele>
				<time>2013-08-14T07:08:00Z</time>
				<hdop>3.0</hdop>
			</trkpt>
			<trkpt lat="46.88118819" lon="6.71348817">
				<ele>1068.5</ele>
				<time>2013-08-14T07:08:01Z</time>
				<hdop>3.0</hdop>
			</trkpt>
			<trkpt lat="46.88118015" lon="6.71349421">
				<ele>1068.6</ele>
				<time>2013-08-14T07:08:02Z</time>
				<hdop>3.0</hdop>
			</trkpt>
			<trkpt lat="46.88116732" lon="6.71349924">
				<ele>1068.7</ele>
				<time>2013-08-14T07:08:03Z</time>
				<hdop>3.0</hdop>
			</trkpt>
			<trkpt lat="46.88116784" lon="6.71348268">
				<ele>1068.8</ele>
				<time>2013-08-14T07:08:04Z</time>
				<hdop>3.0</hdop>
			</trkpt>
			<trkpt lat="46.88115258" lon="6.71347895">
				<ele>1068.8</ele>
				<time>2013-08-14T07:08:05Z</time>
				<hdop>3.0</hdop>
			</trkpt>
			<trkpt lat="46.88114715" lon="6.71348325">
				<ele>1069.1</ele>
				<time>2013-08-14T07:08:06Z</time>
				<hdop>3.0</hdop>
			</trkpt>
			<trkpt lat="46.88115462" lon="6.71347132">
				<ele>1068.5</ele>
				<time>2013-08-14T07:08:07Z</time>
				<hdop>2.0</hdop>
			</trkpt>
			<trkpt lat="46.88115571" lon="6.71348034">
				<ele>1068.3</ele>
				<time>2013-08-14T07:08:08Z</time>
				<hdop>2.0</hdop>
			</trkpt>
			<trkpt lat="46.88115674" lon="6.71349204">
				<ele>1067.7</ele>
				<time>2013-08-14T07:08:09Z</time>
				<hdop>2.0</hdop>
			</trkpt>
			<trkpt lat="46.88114465" lon="6.713474">
				<ele>1069.2</ele>
				<time>2013-08-14T07:08:10Z</time>
				<hdop>2.0</hdop>
			</trkpt>
			<trkpt lat="46.88110613" lon="6.71346186">
				<ele>1070.0</ele>
				<time>2013-08-14T07:08:11Z</time>
				<hdop>2.0</hdop>
			</trkpt>
			<trkpt lat="46.88110797" lon="6.71346184">
				<ele>1070.5</ele>
				<time>2013-08-14T07:08:12Z</time>
				<hdop>3.0</hdop>
			</trkpt>
			<trkpt lat="46.88108894" lon="6.71346789">
				<ele>1070.7</ele>
				<time>2013-08-14T07:08:13Z</time>
				<hdop>3.0</hdop>
			</trkpt>
			<trkpt lat="46.88107289" lon="6.71345867">
				<ele>1070.3</ele>
				<time>2013-08-14T07:08:14Z</time>
				<hdop>3.0</hdop>
			</trkpt>
			<trkpt lat="46.881073" lon="6.71345764">
				<ele>1070.5</ele>
				<time>2013-08-14T07:08:15Z</time>
				<hdop>3.0</hdop>
			</trkpt>
			<trkpt lat="46.881055" lon="6.71345035">
				<ele>1070.8</ele>
				<time>2013-08-14T07:08:16Z</time>
				<hdop>3.0</hdop>
			</trkpt>
			<trkpt lat="46.88102659" lon="6.71342108">
				<ele>1072.0</ele>
				<time>2013-08-14T07:08:18Z</time>
				<hdop>3.0</hdop>
			</trkpt>
			<trkpt lat="46.88101557" lon="6.71341746">
				<ele>1073.3</ele>
				<time>2013-08-14T07:08:19Z</time>
				<hdop>3.0</hdop>
			</trkpt>
			<trkpt lat="46.88097751" lon="6.71341969">
				<ele>1072.5</ele>
				<time>2013-08-14T07:08:20Z</time>
				<hdop>3.0</hdop>
			</trkpt>
			<trkpt lat="46.88096701" lon="6.71340467">
				<ele>1072.2</ele>
				<time>2013-08-14T07:08:21Z</time>
				<hdop>3.0</hdop>
			</trkpt>
			<trkpt lat="46.88096575" lon="6.71340057">
				<ele>1072.3</ele>
				<time>2013-08-14T07:08:22Z</time>
				<hdop>3.0</hdop>
			</trkpt>
			<trkpt lat="46.88096204" lon="6.71340198">
				<ele>1072.7</ele>
				<time>2013-08-14T07:08:23Z</time>
				<hdop>2.0</hdop>
			</trkpt>
			<trkpt lat="46.88094884" lon="6.71341831">
				<ele>1073.6</ele>
				<time>2013-08-14T07:08:24Z</time>
				<hdop>2.0</hdop>
			</trkpt>
			<trkpt lat="46.88094516" lon="6.71341534">
				<ele>1073.3</ele>
				<time>2013-08-14T07:08:25Z</time>
				<hdop>1.5</hdop>
			</trkpt>
			<trkpt lat="46.88093587" lon="6.71341364">
				<ele>1073.4</ele>
				<time>2013-08-14T07:08:26Z</time>
				<hdop>1.5</hdop>
			</trkpt>
			<trkpt lat="46.88093521" lon="6.71340509">
				<ele>1073.7</ele>
				<time>2013-08-14T07:08:27Z</time>
				<hdop>1.5</hdop>
			</trkpt>
			<trkpt lat="46.88093188" lon="6.71340169">
				<ele>1073.9</ele>
				<time>2013-08-14T07:08:28Z</time>
				<hdop>1.5</hdop>
			</trkpt>
			<trkpt lat="46.88093578" lon="6.71339594">
				<ele>1073.4</ele>
				<time>2013-08-14T07:08:29Z</time>
				<hdop>1.5</hdop>
			</trkpt>
			<trkpt lat="46.88092699" lon="6.71338649">
				<ele>1074.1</ele>
				<time>2013-08-14T07:08:30Z</time>
				<hdop>1.5</hdop>
			</trkpt>
			<trkpt lat="46.88092632" lon="6.71338582">
				<ele>1074.0</ele>
				<time>2013-08-14T07:08:32Z</time>
				<hdop>2.0</hdop>
			</trkpt>
			<trkpt lat="46.88092628" lon="6.71338568">
				<ele>1074.0</ele>
				<time>2013-08-14T07:08:33Z</time>
				<hdop>1.5</hdop>
			</trkpt>
			<trkpt lat="46.88092561" lon="6.71338571">
				<ele>1074.1</ele>
				<time>2013-08-14T07:08:35Z</time>
				<hdop>1.5</hdop>
			</trkpt>
			<trkpt lat="46.88092556" lon="6.71338574">
				<ele>1074.1</ele>
				<time>2013-08-14T07:08:36Z</time>
				<hdop>1.5</hdop>
			</trkpt>
			<trkpt lat="46.8809255" lon="6.71338576">
				<ele>1074.1</ele>
				<time>2013-08-14T07:08:37Z</time>
				<hdop>1.5</hdop>
			</trkpt>
			<trkpt lat="46.88092092" lon="6.71338913">
				<ele>1074.3</ele>
				<time>2013-08-14T07:08:38Z</time>
				<hdop>1.5</hdop>
			</trkpt>
			<trkpt lat="46.88088851" lon="6.71339131">
				<ele>1072.6</ele>
				<time>2013-08-14T07:08:39Z</time>
				<hdop>1.5</hdop>
			</trkpt>
			<trkpt lat="46.88087003" lon="6.71337509">
				<ele>1072.1</ele>
				<time>2013-08-14T07:08:40Z</time>
				<hdop>1.5</hdop>
			</trkpt>
			<trkpt lat="46.88085935" lon="6.71337157">
				<ele>1072.1</ele>
				<time>2013-08-14T07:08:41Z</time>
				<hdop>2.0</hdop>
			</trkpt>
			<trkpt lat="46.88082637" lon="6.71337">
				<ele>1071.4</ele>
				<time>2013-08-14T07:08:43Z</time>
				<hdop>2.0</hdop>
			</trkpt>
			<trkpt lat="46.88081536" lon="6.71337434">
				<ele>1071.5</ele>
				<time>2013-08-14T07:08:44Z</time>
				<hdop>2.0</hdop>
			</trkpt>
			<trkpt lat="46.88079091" lon="6.71337654">
				<ele>1071.2</ele>
				<time>2013-08-14T07:08:45Z</time>
				<hdop>2.0</hdop>
			</trkpt>
			<trkpt lat="46.8807631" lon="6.71337307">
				<ele>1070.8</ele>
				<time>2013-08-14T07:08:47Z</time>
				<hdop>2.0</hdop>
			</trkpt>
			<trkpt lat="46.8807575" lon="6.71338064">
				<ele>1070.4</ele>
				<time>2013-08-14T07:08:48Z</time>
				<hdop>2.0</hdop>
			</trkpt>
			<trkpt lat="46.88073458" lon="6.71338014">
				<ele>1070.0</ele>
				<time>2013-08-14T07:08:49Z</time>
				<hdop>2.0</hdop>
			</trkpt>
			<trkpt lat="46.88067296" lon="6.71339721">
				<ele>1070.1</ele>
				<time>2013-08-14T07:08:51Z</time>
				<hdop>2.0</hdop>
			</trkpt>
			<trkpt lat="46.88067057" lon="6.71340766">
				<ele>1069.6</ele>
				<time>2013-08-14T07:08:52Z</time>
				<hdop>2.0</hdop>
			</trkpt>
			<trkpt lat="46.88066049" lon="6.71341324">
				<ele>1070.4</ele>
				<time>2013-08-14T07:08:53Z</time>
				<hdop>2.0</hdop>
			</trkpt>
			<trkpt lat="46.88065221" lon="6.713407">
				<ele>1070.4</ele>
				<time>2013-08-14T07:08:54Z</time>
				<hdop>2.0</hdop>
			</trkpt>
			<trkpt lat="46.88065954" lon="6.71340504">
				<ele>1070.0</ele>
				<time>2013-08-14T07:08:55Z</time>
				<hdop>2.0</hdop>
			</trkpt>
			<trkpt lat="46.88065108" lon="6.71341582">
				<ele>1070.0</ele>
				<time>2013-08-14T07:08:56Z</time>
				<hdop>2.0</hdop>
			</trkpt>
			<trkpt lat="46.88064649" lon="6.71341409">
				<ele>1071.2</ele>
				<time>2013-08-14T07:08:57Z</time>
				<hdop>3.0</hdop>
			</trkpt>
			<trkpt lat="46.88062168" lon="6.71342502">
				<ele>1072.2</ele>
				<time>2013-08-14T07:08:59Z</time>
				<hdop>3.0</hdop>
			</trkpt>
			<trkpt lat="46.8806188" lon="6.71341849">
				<ele>1072.7</ele>
				<time>2013-08-14T07:09:00Z</time>
				<hdop>3.0</hdop>
			</trkpt>
			<trkpt lat="46.8806127" lon="6.71343662">
				<ele>1073.0</ele>
				<time>2013-08-14T07:09:01Z</time>
				<hdop>3.0</hdop>
			</trkpt>
			<trkpt lat="46.88060732" lon="6.71344525">
				<ele>1073.2</ele>
				<time>2013-08-14T07:09:02Z</time>
				<hdop>3.0</hdop>
			</trkpt>
			<trkpt lat="46.88062916" lon="6.71340567">
				<ele>1073.9</ele>
				<time>2013-08-14T07:09:03Z</time>
				<hdop>3.0</hdop>
			</trkpt>
			<trkpt lat="46.88062694" lon="6.71340622">
				<ele>1073.6</ele>
				<time>2013-08-14T07:09:04Z</time>
				<hdop>3.0</hdop>
			</trkpt>
			<trkpt lat="46.88062177" lon="6.71341067">
				<ele>1073.3</ele>
				<time>2013-08-14T07:09:05Z</time>
				<hdop>3.0</hdop>
			</trkpt>
			<trkpt lat="46.8806191" lon="6.71341174">
				<ele>1073.0</ele>
				<time>2013-08-14T07:09:06Z</time>
				<hdop>3.0</hdop>
			</trkpt>
			<trkpt lat="46.88061934" lon="6.71339219">
				<ele>1073.0</ele>
				<time>2013-08-14T07:09:07Z</time>
				<hdop>3.0</hdop>
			</trkpt>
			<trkpt lat="46.8806089" lon="6.71338188">
				<ele>1072.7</ele>
				<time>2013-08-14T07:09:08Z</time>
				<hdop>3.0</hdop>
			</trkpt>
			<trkpt lat="46.88061039" lon="6.71336988">
				<ele>1073.3</ele>
				<time>2013-08-14T07:09:09Z</time>
				<hdop>3.0</hdop>
			</trkpt>
			<trkpt lat="46.88060913" lon="6.71336439">
				<ele>1073.8</ele>
				<time>2013-08-14T07:09:10Z</time>
				<hdop>2.0</hdop>
			</trkpt>
			<trkpt lat="46.88061455" lon="6.7133588">
				<ele>1074.4</ele>
				<time>2013-08-14T07:09:11Z</time>
				<hdop>2.0</hdop>
			</trkpt>
			<trkpt lat="46.88061928" lon="6.71335958">
				<ele>1075.2</ele>
				<time>2013-08-14T07:09:12Z</time>
				<hdop>2.0</hdop>
			</trkpt>
			<trkpt lat="46.88061642" lon="6.7133618">
				<ele>1075.4</ele>
				<time>2013-08-14T07:09:13Z</time>
				<hdop>2.0</hdop>
			</trkpt>
			<trkpt lat="46.88061647" lon="6.71336206">
				<ele>1075.4</ele>
				<time>2013-08-14T07:09:14Z</time>
				<hdop>2.0</hdop>
			</trkpt>
			<trkpt lat="46.88061541" lon="6.71336101">
				<ele>1075.4</ele>
				<time>2013-08-14T07:09:15Z</time>
				<hdop>2.0</hdop>
			</trkpt>
			<trkpt lat="46.88061623" lon="6.71336281">
				<ele>1075.5</ele>
				<time>2013-08-14T07:09:16Z</time>
				<hdop>3.0</hdop>
			</trkpt>
			<trkpt lat="46.88061788" lon="6.71336256">
				<ele>1075.4</ele>
				<time>2013-08-14T07:09:17Z</time>
				<hdop>3.0</hdop>
			</trkpt>
			<trkpt lat="46.88061829" lon="6.71336193">
				<ele>1075.3</ele>
				<time>2013-08-14T07:09:19Z</time>
				<hdop>3.0</hdop>
			</trkpt>
			<trkpt lat="46.88061838" lon="6.71336179">
				<ele>1075.3</ele>
				<time>2013-08-14T07:09:20Z</time>
				<hdop>3.0</hdop>
			</trkpt>
			<trkpt lat="46.88061809" lon="6.71336208">
				<ele>1075.3</ele>
				<time>2013-08-14T07:09:21Z</time>
				<hdop>3.0</hdop>
			</trkpt>
			<trkpt lat="46.8806182" lon="6.71336218">
				<ele>1075.4</ele>
				<time>2013-08-14T07:09:22Z</time>
				<hdop>3.0</hdop>
			</trkpt>
			<trkpt lat="46.88061845" lon="6.71336236">
				<ele>1075.4</ele>
				<time>2013-08-14T07:09:23Z</time>
				<hdop>4.0</hdop>
			</trkpt>
			<trkpt lat="46.88061856" lon="6.71336265">
				<ele>1075.4</ele>
				<time>2013-08-14T07:09:24Z</time>
				<hdop>4.0</hdop>
			</trkpt>
			<trkpt lat="46.88061896" lon="6.71336219">
				<ele>1075.4</ele>
				<time>2013-08-14T07:09:25Z</time>
				<hdop>3.0</hdop>
			</trkpt>
			<trkpt lat="46.88061945" lon="6.71336186">
				<ele>1075.3</ele>
				<time>2013-08-14T07:09:26Z</time>
				<hdop>3.0</hdop>
			</trkpt>
			<trkpt lat="46.88061952" lon="6.71336588">
				<ele>1075.6</ele>
				<time>2013-08-14T07:09:27Z</time>
				<hdop>3.0</hdop>
			</trkpt>
			<trkpt lat="46.88061933" lon="6.71336657">
				<ele>1075.7</ele>
				<time>2013-08-14T07:09:28Z</time>
				<hdop>3.0</hdop>
			</trkpt>
			<trkpt lat="46.88061933" lon="6.71336657">
				<ele>1075.7</ele>
				<time>2013-08-14T07:09:29Z</time>
				<hdop>3.0</hdop>
			</trkpt>
			<trkpt lat="46.88061965" lon="6.7133665">
				<ele>1075.7</ele>
				<time>2013-08-14T07:09:30Z</time>
				<hdop>3.0</hdop>
			</trkpt>
			<trkpt lat="46.88061947" lon="6.71336588">
				<ele>1075.7</ele>
				<time>2013-08-14T07:09:31Z</time>
				<hdop>3.0</hdop>
			</trkpt>
			<trkpt lat="46.88061974" lon="6.71336598">
				<ele>1075.7</ele>
				<time>2013-08-14T07:09:32Z</time>
				<hdop>3.0</hdop>
			</trkpt>
			<trkpt lat="46.88061988" lon="6.71336624">
				<ele>1075.7</ele>
				<time>2013-08-14T07:09:33Z</time>
				<hdop>3.0</hdop>
			</trkpt>
			<trkpt lat="46.88061995" lon="6.71336754">
				<ele>1075.8</ele>
				<time>2013-08-14T07:09:35Z</time>
				<hdop>4.0</hdop>
			</trkpt>
			<trkpt lat="46.88061968" lon="6.71336823">
				<ele>1075.9</ele>
				<time>2013-08-14T07:09:36Z</time>
				<hdop>4.0</hdop>
			</trkpt>
			<trkpt lat="46.88061939" lon="6.71336859">
				<ele>1075.9</ele>
				<time>2013-08-14T07:09:37Z</time>
				<hdop>4.0</hdop>
			</trkpt>
			<trkpt lat="46.88061939" lon="6.71336858">
				<ele>1075.9</ele>
				<time>2013-08-14T07:09:38Z</time>
				<hdop>4.0</hdop>
			</trkpt>
			<trkpt lat="46.88061932" lon="6.71336848">
				<ele>1075.9</ele>
				<time>2013-08-14T07:09:39Z</time>
				<hdop>4.0</hdop>
			</trkpt>
			<trkpt lat="46.88061936" lon="6.71336753">
				<ele>1075.8</ele>
				<time>2013-08-14T07:09:40Z</time>
				<hdop>3.0</hdop>
			</trkpt>
			<trkpt lat="46.88061937" lon="6.71336705">
				<ele>1075.7</ele>
				<time>2013-08-14T07:09:41Z</time>
				<hdop>3.0</hdop>
			</trkpt>
			<trkpt lat="46.88061932" lon="6.71336672">
				<ele>1075.7</ele>
				<time>2013-08-14T07:09:42Z</time>
				<hdop>3.0</hdop>
			</trkpt>
			<trkpt lat="46.88062222" lon="6.713364">
				<ele>1075.4</ele>
				<time>2013-08-14T07:09:43Z</time>
				<hdop>3.0</hdop>
			</trkpt>
			<trkpt lat="46.88062223" lon="6.71336433">
				<ele>1075.4</ele>
				<time>2013-08-14T07:09:44Z</time>
				<hdop>3.0</hdop>
			</trkpt>
			<trkpt lat="46.88062223" lon="6.71336449">
				<ele>1075.4</ele>
				<time>2013-08-14T07:09:45Z</time>
				<hdop>3.0</hdop>
			</trkpt>
			<trkpt lat="46.88062227" lon="6.71336462">
				<ele>1075.4</ele>
				<time>2013-08-14T07:09:46Z</time>
				<hdop>3.0</hdop>
			</trkpt>
			<trkpt lat="46.88062206" lon="6.71336544">
				<ele>1075.5</ele>
				<time>2013-08-14T07:09:47Z</time>
				<hdop>3.0</hdop>
			</trkpt>
			<trkpt lat="46.88062205" lon="6.71336553">
				<ele>1075.5</ele>
				<time>2013-08-14T07:09:48Z</time>
				<hdop>3.0</hdop>
			</trkpt>
			<trkpt lat="46.88062199" lon="6.71336562">
				<ele>1075.6</ele>
				<time>2013-08-14T07:09:49Z</time>
				<hdop>3.0</hdop>
			</trkpt>
			<trkpt lat="46.8806219" lon="6.71336597">
				<ele>1075.6</ele>
				<time>2013-08-14T07:09:50Z</time>
				<hdop>3.0</hdop>
			</trkpt>
			<trkpt lat="46.88062169" lon="6.71336701">
				<ele>1075.7</ele>
				<time>2013-08-14T07:09:51Z</time>
				<hdop>3.0</hdop>
			</trkpt>
			<trkpt lat="46.88062122" lon="6.71336906">
				<ele>1075.9</ele>
				<time>2013-08-14T07:09:52Z</time>
				<hdop>3.0</hdop>
			</trkpt>
			<trkpt lat="46.88062102" lon="6.71336988">
				<ele>1076.0</ele>
				<time>2013-08-14T07:09:53Z</time>
				<hdop>3.0</hdop>
			</trkpt>
			<trkpt lat="46.8806205" lon="6.71337194">
				<ele>1076.2</ele>
				<time>2013-08-14T07:09:54Z</time>
				<hdop>3.0</hdop>
			</trkpt>
			<trkpt lat="46.88062038" lon="6.71337269">
				<ele>1076.2</ele>
				<time>2013-08-14T07:09:55Z</time>
				<hdop>3.0</hdop>
			</trkpt>
			<trkpt lat="46.8806202" lon="6.71337339">
				<ele>1076.3</ele>
				<time>2013-08-14T07:09:56Z</time>
				<hdop>2.0</hdop>
			</trkpt>
			<trkpt lat="46.8806202" lon="6.71337339">
				<ele>1076.3</ele>
				<time>2013-08-14T07:09:57Z</time>
				<hdop>2.0</hdop>
			</trkpt>
			<trkpt lat="46.88062018" lon="6.7133735">
				<ele>1076.3</ele>
				<time>2013-08-14T07:09:58Z</time>
				<hdop>2.0</hdop>
			</trkpt>
			<trkpt lat="46.88062017" lon="6.7133737">
				<ele>1076.3</ele>
				<time>2013-08-14T07:09:59Z</time>
				<hdop>2.0</hdop>
			</trkpt>
			<trkpt lat="46.88062011" lon="6.71337411">
				<ele>1076.3</ele>
				<time>2013-08-14T07:10:00Z</time>
				<hdop>2.0</hdop>
			</trkpt>
			<trkpt lat="46.88062007" lon="6.71337428">
				<ele>1076.3</ele>
				<time>2013-08-14T07:10:01Z</time>
				<hdop>2.0</hdop>
			</trkpt>
			<trkpt lat="46.88062007" lon="6.71337437">
				<ele>1076.4</ele>
				<time>2013-08-14T07:10:02Z</time>
				<hdop>2.0</hdop>
			</trkpt>
			<trkpt lat="46.88062013" lon="6.71337442">
				<ele>1076.3</ele>
				<time>2013-08-14T07:10:03Z</time>
				<hdop>1.5</hdop>
			</trkpt>
			<trkpt lat="46.88062007" lon="6.71337439">
				<ele>1076.3</ele>
				<time>2013-08-14T07:10:05Z</time>
				<hdop>2.0</hdop>
			</trkpt>
			<trkpt lat="46.8806202" lon="6.71337389">
				<ele>1076.2</ele>
				<time>2013-08-14T07:10:06Z</time>
				<hdop>2.0</hdop>
			</trkpt>
			<trkpt lat="46.88061992" lon="6.71337435">
				<ele>1076.3</ele>
				<time>2013-08-14T07:10:08Z</time>
				<hdop>2.0</hdop>
			</trkpt>
			<trkpt lat="46.88061987" lon="6.71337465">
				<ele>1076.4</ele>
				<time>2013-08-14T07:10:09Z</time>
				<hdop>2.0</hdop>
			</trkpt>
			<trkpt lat="46.88061982" lon="6.71337469">
				<ele>1076.4</ele>
				<time>2013-08-14T07:10:10Z</time>
				<hdop>3.0</hdop>
			</trkpt>
			<trkpt lat="46.88061974" lon="6.71337489">
				<ele>1076.4</ele>
				<time>2013-08-14T07:10:11Z</time>
				<hdop>3.0</hdop>
			</trkpt>
			<trkpt lat="46.88061967" lon="6.71337498">
				<ele>1076.5</ele>
				<time>2013-08-14T07:10:12Z</time>
				<hdop>3.0</hdop>
			</trkpt>
			<trkpt lat="46.88061951" lon="6.71337516">
				<ele>1076.5</ele>
				<time>2013-08-14T07:10:13Z</time>
				<hdop>3.0</hdop>
			</trkpt>
			<trkpt lat="46.88061951" lon="6.71337516">
				<ele>1076.5</ele>
				<time>2013-08-14T07:10:14Z</time>
				<hdop>4.0</hdop>
			</trkpt>
			<trkpt lat="46.88061932" lon="6.7133756">
				<ele>1076.6</ele>
				<time>2013-08-14T07:10:15Z</time>
				<hdop>3.0</hdop>
			</trkpt>
			<trkpt lat="46.88061928" lon="6.71337545">
				<ele>1076.6</ele>
				<time>2013-08-14T07:10:16Z</time>
				<hdop>3.0</hdop>
			</trkpt>
			<trkpt lat="46.88061936" lon="6.71337537">
				<ele>1076.5</ele>
				<time>2013-08-14T07:10:17Z</time>
				<hdop>3.0</hdop>
			</trkpt>
			<trkpt lat="46.88061943" lon="6.71337517">
				<ele>1076.5</ele>
				<time>2013-08-14T07:10:19Z</time>
				<hdop>3.0</hdop>
			</trkpt>
			<trkpt lat="46.88061947" lon="6.71337509">
				<ele>1076.5</ele>
				<time>2013-08-14T07:10:20Z</time>
				<hdop>3.0</hdop>
			</trkpt>
			<trkpt lat="46.88061951" lon="6.71337501">
				<ele>1076.5</ele>
				<time>2013-08-14T07:10:21Z</time>
				<hdop>3.0</hdop>
			</trkpt>
			<trkpt lat="46.88061955" lon="6.71337496">
				<ele>1076.5</ele>
				<time>2013-08-14T07:10:22Z</time>
				<hdop>3.0</hdop>
			</trkpt>
			<trkpt lat="46.88061956" lon="6.71337496">
				<ele>1076.5</ele>
				<time>2013-08-14T07:10:23Z</time>
				<hdop>2.0</hdop>
			</trkpt>
			<trkpt lat="46.88061954" lon="6.71337492">
				<ele>1076.5</ele>
				<time>2013-08-14T07:10:24Z</time>
				<hdop>2.0</hdop>
			</trkpt>
			<trkpt lat="46.88061953" lon="6.7133749">
				<ele>1076.5</ele>
				<time>2013-08-14T07:10:25Z</time>
				<hdop>2.0</hdop>
			</trkpt>
			<trkpt lat="46.88061954" lon="6.71337485">
				<ele>1076.5</ele>
				<time>2013-08-14T07:10:26Z</time>
				<hdop>2.0</hdop>
			</trkpt>
			<trkpt lat="46.88061946" lon="6.71337481">
				<ele>1076.5</ele>
				<time>2013-08-14T07:10:27Z</time>
				<hdop>2.0</hdop>
			</trkpt>
			<trkpt lat="46.88061946" lon="6.71337472">
				<ele>1076.5</ele>
				<time>2013-08-14T07:10:28Z</time>
				<hdop>2.0</hdop>
			</trkpt>
			<trkpt lat="46.88061939" lon="6.71337466">
				<ele>1076.5</ele>
				<time>2013-08-14T07:10:30Z</time>
				<hdop>2.0</hdop>
			</trkpt>
			<trkpt lat="46.88061932" lon="6.71337457">
				<ele>1076.5</ele>
				<time>2013-08-14T07:10:31Z</time>
				<hdop>1.5</hdop>
			</trkpt>
			<trkpt lat="46.8806194" lon="6.71337432">
				<ele>1076.5</ele>
				<time>2013-08-14T07:10:32Z</time>
				<hdop>1.5</hdop>
			</trkpt>
			<trkpt lat="46.88061939" lon="6.71337426">
				<ele>1076.5</ele>
				<time>2013-08-14T07:10:33Z</time>
				<hdop>1.5</hdop>
			</trkpt>
			<trkpt lat="46.88061943" lon="6.71337427">
				<ele>1076.5</ele>
				<time>2013-08-14T07:10:34Z</time>
				<hdop>1.5</hdop>
			</trkpt>
			<trkpt lat="46.8806194" lon="6.71337421">
				<ele>1076.5</ele>
				<time>2013-08-14T07:10:35Z</time>
				<hdop>1.5</hdop>
			</trkpt>
			<trkpt lat="46.88061951" lon="6.71337416">
				<ele>1076.5</ele>
				<time>2013-08-14T07:10:36Z</time>
				<hdop>1.5</hdop>
			</trkpt>
			<trkpt lat="46.88061973" lon="6.71337426">
				<ele>1076.5</ele>
				<time>2013-08-14T07:10:38Z</time>
				<hdop>1.5</hdop>
			</trkpt>
			<trkpt lat="46.88061985" lon="6.71337436">
				<ele>1076.5</ele>
				<time>2013-08-14T07:10:39Z</time>
				<hdop>1.5</hdop>
			</trkpt>
			<trkpt lat="46.88061994" lon="6.71337431">
				<ele>1076.5</ele>
				<time>2013-08-14T07:10:40Z</time>
				<hdop>1.5</hdop>
			</trkpt>
			<trkpt lat="46.88062017" lon="6.7133741">
				<ele>1076.5</ele>
				<time>2013-08-14T07:10:41Z</time>
				<hdop>1.5</hdop>
			</trkpt>
			<trkpt lat="46.88062026" lon="6.71337406">
				<ele>1076.5</ele>
				<time>2013-08-14T07:10:43Z</time>
				<hdop>1.5</hdop>
			</trkpt>
			<trkpt lat="46.88062042" lon="6.71337395">
				<ele>1076.5</ele>
				<time>2013-08-14T07:10:44Z</time>
				<hdop>2.0</hdop>
			</trkpt>
			<trkpt lat="46.8806204" lon="6.71337393">
				<ele>1076.5</ele>
				<time>2013-08-14T07:10:45Z</time>
				<hdop>2.0</hdop>
			</trkpt>
			<trkpt lat="46.88062042" lon="6.71337393">
				<ele>1076.5</ele>
				<time>2013-08-14T07:10:46Z</time>
				<hdop>2.0</hdop>
			</trkpt>
			<trkpt lat="46.88062045" lon="6.71337391">
				<ele>1076.5</ele>
				<time>2013-08-14T07:10:47Z</time>
				<hdop>2.0</hdop>
			</trkpt>
			<trkpt lat="46.88062045" lon="6.71337394">
				<ele>1076.5</ele>
				<time>2013-08-14T07:10:48Z</time>
				<hdop>2.0</hdop>
			</trkpt>
			<trkpt lat="46.88062046" lon="6.71337389">
				<ele>1076.5</ele>
				<time>2013-08-14T07:10:50Z</time>
				<hdop>3.0</hdop>
			</trkpt>
			<trkpt lat="46.88062053" lon="6.71337393">
				<ele>1076.5</ele>
				<time>2013-08-14T07:10:51Z</time>
				<hdop>3.0</hdop>
			</trkpt>
			<trkpt lat="46.8806206" lon="6.71337387">
				<ele>1076.5</ele>
				<time>2013-08-14T07:10:52Z</time>
				<hdop>3.0</hdop>
			</trkpt>
			<trkpt lat="46.88062058" lon="6.71337381">
				<ele>1076.5</ele>
				<time>2013-08-14T07:10:53Z</time>
				<hdop>3.0</hdop>
			</trkpt>
			<trkpt lat="46.88062053" lon="6.71337373">
				<ele>1076.5</ele>
				<time>2013-08-14T07:10:54Z</time>
				<hdop>3.0</hdop>
			</trkpt>
			<trkpt lat="46.88062053" lon="6.71337371">
				<ele>1076.5</ele>
				<time>2013-08-14T07:10:55Z</time>
				<hdop>3.0</hdop>
			</trkpt>
			<trkpt lat="46.88062054" lon="6.71337366">
				<ele>1076.5</ele>
				<time>2013-08-14T07:10:56Z</time>
				<hdop>3.0</hdop>
			</trkpt>
			<trkpt lat="46.88062053" lon="6.71337363">
				<ele>1076.5</ele>
				<time>2013-08-14T07:10:57Z</time>
				<hdop>2.0</hdop>
			</trkpt>
			<trkpt lat="46.88062065" lon="6.71337359">
				<ele>1076.5</ele>
				<time>2013-08-14T07:10:58Z</time>
				<hdop>2.0</hdop>
			</trkpt>
			<trkpt lat="46.88062066" lon="6.71337348">
				<ele>1076.5</ele>
				<time>2013-08-14T07:10:59Z</time>
				<hdop>2.0</hdop>
			</trkpt>
			<trkpt lat="46.88062066" lon="6.71337348">
				<ele>1076.5</ele>
				<time>2013-08-14T07:11:00Z</time>
				<hdop>2.0</hdop>
			</trkpt>
			<trkpt lat="46.88062067" lon="6.71337348">
				<ele>1076.5</ele>
				<time>2013-08-14T07:11:01Z</time>
				<hdop>2.0</hdop>
			</trkpt>
			<trkpt lat="46.88062069" lon="6.71337341">
				<ele>1076.5</ele>
				<time>2013-08-14T07:11:02Z</time>
				<hdop>2.0</hdop>
			</trkpt>
			<trkpt lat="46.88062071" lon="6.71337342">
				<ele>1076.5</ele>
				<time>2013-08-14T07:11:03Z</time>
				<hdop>2.0</hdop>
			</trkpt>
			<trkpt lat="46.88062071" lon="6.71337346">
				<ele>1076.5</ele>
				<time>2013-08-14T07:11:04Z</time>
				<hdop>2.0</hdop>
			</trkpt>
			<trkpt lat="46.8806207" lon="6.71337348">
				<ele>1076.5</ele>
				<time>2013-08-14T07:11:05Z</time>
				<hdop>2.0</hdop>
			</trkpt>
			<trkpt lat="46.88062073" lon="6.71337349">
				<ele>1076.5</ele>
				<time>2013-08-14T07:11:06Z</time>
				<hdop>2.0</hdop>
			</trkpt>
			<trkpt lat="46.88062068" lon="6.71337349">
				<ele>1076.5</ele>
				<time>2013-08-14T07:11:07Z</time>
				<hdop>2.0</hdop>
			</trkpt>
			<trkpt lat="46.88062067" lon="6.71337354">
				<ele>1076.5</ele>
				<time>2013-08-14T07:11:08Z</time>
				<hdop>2.0</hdop>
			</trkpt>
			<trkpt lat="46.88062067" lon="6.71337372">
				<ele>1076.5</ele>
				<time>2013-08-14T07:11:09Z</time>
				<hdop>2.0</hdop>
			</trkpt>
			<trkpt lat="46.8806207" lon="6.71337367">
				<ele>1076.5</ele>
				<time>2013-08-14T07:11:11Z</time>
				<hdop>3.0</hdop>
			</trkpt>
			<trkpt lat="46.88062073" lon="6.71337359">
				<ele>1076.4</ele>
				<time>2013-08-14T07:11:13Z</time>
				<hdop>3.0</hdop>
			</trkpt>
			<trkpt lat="46.88062078" lon="6.71337357">
				<ele>1076.4</ele>
				<time>2013-08-14T07:11:14Z</time>
				<hdop>3.0</hdop>
			</trkpt>
			<trkpt lat="46.8806208" lon="6.71337357">
				<ele>1076.4</ele>
				<time>2013-08-14T07:11:15Z</time>
				<hdop>4.0</hdop>
			</trkpt>
			<trkpt lat="46.88062079" lon="6.7133736">
				<ele>1076.4</ele>
				<time>2013-08-14T07:11:16Z</time>
				<hdop>4.0</hdop>
			</trkpt>
			<trkpt lat="46.88062081" lon="6.7133736">
				<ele>1076.5</ele>
				<time>2013-08-14T07:11:17Z</time>
				<hdop>4.0</hdop>
			</trkpt>
			<trkpt lat="46.88062081" lon="6.71337361">
				<ele>1076.5</ele>
				<time>2013-08-14T07:11:18Z</time>
				<hdop>4.0</hdop>
			</trkpt>
			<trkpt lat="46.88062082" lon="6.71337365">
				<ele>1076.5</ele>
				<time>2013-08-14T07:11:19Z</time>
				<hdop>4.0</hdop>
			</trkpt>
			<trkpt lat="46.88062082" lon="6.7133737">
				<ele>1076.5</ele>
				<time>2013-08-14T07:11:20Z</time>
				<hdop>4.0</hdop>
			</trkpt>
			<trkpt lat="46.88062082" lon="6.71337369">
				<ele>1076.5</ele>
				<time>2013-08-14T07:11:21Z</time>
				<hdop>6.0</hdop>
			</trkpt>
			<trkpt lat="46.88062083" lon="6.71337368">
				<ele>1076.5</ele>
				<time>2013-08-14T07:11:22Z</time>
				<hdop>6.0</hdop>
			</trkpt>
			<trkpt lat="46.88062083" lon="6.71337376">
				<ele>1076.5</ele>
				<time>2013-08-14T07:11:23Z</time>
				<hdop>6.0</hdop>
			</trkpt>
			<trkpt lat="46.88062085" lon="6.7133738">
				<ele>1076.5</ele>
				<time>2013-08-14T07:11:24Z</time>
				<hdop>6.0</hdop>
			</trkpt>
			<trkpt lat="46.88062089" lon="6.71337377">
				<ele>1076.5</ele>
				<time>2013-08-14T07:11:25Z</time>
				<hdop>4.0</hdop>
			</trkpt>
			<trkpt lat="46.88062095" lon="6.71337385">
				<ele>1076.5</ele>
				<time>2013-08-14T07:11:26Z</time>
				<hdop>4.0</hdop>
			</trkpt>
			<trkpt lat="46.88062095" lon="6.71337385">
				<ele>1076.5</ele>
				<time>2013-08-14T07:11:27Z</time>
				<hdop>4.0</hdop>
			</trkpt>
			<trkpt lat="46.88062096" lon="6.71337385">
				<ele>1076.5</ele>
				<time>2013-08-14T07:11:28Z</time>
				<hdop>3.0</hdop>
			</trkpt>
			<trkpt lat="46.88062095" lon="6.71337386">
				<ele>1076.5</ele>
				<time>2013-08-14T07:11:29Z</time>
				<hdop>4.0</hdop>
			</trkpt>
			<trkpt lat="46.88062092" lon="6.71337394">
				<ele>1076.5</ele>
				<time>2013-08-14T07:11:30Z</time>
				<hdop>3.0</hdop>
			</trkpt>
			<trkpt lat="46.88062085" lon="6.71337395">
				<ele>1076.5</ele>
				<time>2013-08-14T07:11:31Z</time>
				<hdop>3.0</hdop>
			</trkpt>
			<trkpt lat="46.88062084" lon="6.71337396">
				<ele>1076.5</ele>
				<time>2013-08-14T07:11:32Z</time>
				<hdop>3.0</hdop>
			</trkpt>
			<trkpt lat="46.88062082" lon="6.71337385">
				<ele>1076.5</ele>
				<time>2013-08-14T07:11:33Z</time>
				<hdop>4.0</hdop>
			</trkpt>
			<trkpt lat="46.88062077" lon="6.71337377">
				<ele>1076.5</ele>
				<time>2013-08-14T07:11:34Z</time>
				<hdop>4.0</hdop>
			</trkpt>
			<trkpt lat="46.88062079" lon="6.71337364">
				<ele>1076.5</ele>
				<time>2013-08-14T07:11:35Z</time>
				<hdop>4.0</hdop>
			</trkpt>
			<trkpt lat="46.88062078" lon="6.71337362">
				<ele>1076.5</ele>
				<time>2013-08-14T07:11:36Z</time>
				<hdop>3.0</hdop>
			</trkpt>
			<trkpt lat="46.8806208" lon="6.71337355">
				<ele>1076.5</ele>
				<time>2013-08-14T07:11:37Z</time>
				<hdop>3.0</hdop>
			</trkpt>
			<trkpt lat="46.88062078" lon="6.71337349">
				<ele>1076.5</ele>
				<time>2013-08-14T07:11:38Z</time>
				<hdop>3.0</hdop>
			</trkpt>
			<trkpt lat="46.88062079" lon="6.71337343">
				<ele>1076.5</ele>
				<time>2013-08-14T07:11:39Z</time>
				<hdop>3.0</hdop>
			</trkpt>
			<trkpt lat="46.88062076" lon="6.7133734">
				<ele>1076.5</ele>
				<time>2013-08-14T07:11:40Z</time>
				<hdop>2.0</hdop>
			</trkpt>
			<trkpt lat="46.88062077" lon="6.71337339">
				<ele>1076.5</ele>
				<time>2013-08-14T07:11:41Z</time>
				<hdop>2.0</hdop>
			</trkpt>
			<trkpt lat="46.88062079" lon="6.7133734">
				<ele>1076.5</ele>
				<time>2013-08-14T07:11:42Z</time>
				<hdop>2.0</hdop>
			</trkpt>
			<trkpt lat="46.88062079" lon="6.7133734">
				<ele>1076.5</ele>
				<time>2013-08-14T07:11:43Z</time>
				<hdop>2.0</hdop>
			</trkpt>
			<trkpt lat="46.8806208" lon="6.71337342">
				<ele>1076.5</ele>
				<time>2013-08-14T07:11:44Z</time>
				<hdop>2.0</hdop>
			</trkpt>
			<trkpt lat="46.88062079" lon="6.71337346">
				<ele>1076.5</ele>
				<time>2013-08-14T07:11:45Z</time>
				<hdop>2.0</hdop>
			</trkpt>
			<trkpt lat="46.88062085" lon="6.7133735">
				<ele>1076.5</ele>
				<time>2013-08-14T07:11:46Z</time>
				<hdop>2.0</hdop>
			</trkpt>
			<trkpt lat="46.88062091" lon="6.71337363">
				<ele>1076.3</ele>
				<time>2013-08-14T07:11:47Z</time>
				<hdop>2.0</hdop>
			</trkpt>
			<trkpt lat="46.88062094" lon="6.7133735">
				<ele>1076.3</ele>
				<time>2013-08-14T07:11:48Z</time>
				<hdop>2.0</hdop>
			</trkpt>
			<trkpt lat="46.88062094" lon="6.71337347">
				<ele>1076.3</ele>
				<time>2013-08-14T07:11:50Z</time>
				<hdop>2.0</hdop>
			</trkpt>
			<trkpt lat="46.88062094" lon="6.71337347">
				<ele>1076.3</ele>
				<time>2013-08-14T07:11:51Z</time>
				<hdop>3.0</hdop>
			</trkpt>
			<trkpt lat="46.88062105" lon="6.71337352">
				<ele>1076.3</ele>
				<time>2013-08-14T07:11:52Z</time>
				<hdop>3.0</hdop>
			</trkpt>
			<trkpt lat="46.88062101" lon="6.71337348">
				<ele>1076.3</ele>
				<time>2013-08-14T07:11:54Z</time>
				<hdop>3.0</hdop>
			</trkpt>
			<trkpt lat="46.88062159" lon="6.71337326">
				<ele>1076.4</ele>
				<time>2013-08-14T07:11:55Z</time>
				<hdop>3.0</hdop>
			</trkpt>
			<trkpt lat="46.88061175" lon="6.71336231">
				<ele>1075.6</ele>
				<time>2013-08-14T07:11:56Z</time>
				<hdop>2.0</hdop>
			</trkpt>
			<trkpt lat="46.88061109" lon="6.7133519">
				<ele>1075.9</ele>
				<time>2013-08-14T07:11:57Z</time>
				<hdop>1.5</hdop>
			</trkpt>
			<trkpt lat="46.880618" lon="6.71334823">
				<ele>1076.7</ele>
				<time>2013-08-14T07:11:58Z</time>
				<hdop>1.5</hdop>
			</trkpt>
			<trkpt lat="46.88061816" lon="6.71335262">
				<ele>1077.0</ele>
				<time>2013-08-14T07:11:59Z</time>
				<hdop>1.5</hdop>
			</trkpt>
			<trkpt lat="46.88061224" lon="6.71335253">
				<ele>1077.0</ele>
				<time>2013-08-14T07:12:00Z</time>
				<hdop>1.5</hdop>
			</trkpt>
			<trkpt lat="46.8806127" lon="6.71335282">
				<ele>1077.0</ele>
				<time>2013-08-14T07:12:01Z</time>
				<hdop>1.5</hdop>
			</trkpt>
			<trkpt lat="46.88062727" lon="6.71336348">
				<ele>1077.3</ele>
				<time>2013-08-14T07:12:02Z</time>
				<hdop>1.5</hdop>
			</trkpt>
			<trkpt lat="46.8806253" lon="6.71336244">
				<ele>1077.2</ele>
				<time>2013-08-14T07:12:03Z</time>
				<hdop>1.5</hdop>
			</trkpt>
			<trkpt lat="46.8806187" lon="6.7133645">
				<ele>1077.7</ele>
				<time>2013-08-14T07:12:04Z</time>
				<hdop>1.5</hdop>
			</trkpt>
			<trkpt lat="46.88061044" lon="6.71337022">
				<ele>1078.2</ele>
				<time>2013-08-14T07:12:05Z</time>
				<hdop>1.5</hdop>
			</trkpt>
			<trkpt lat="46.88060885" lon="6.7133691">
				<ele>1077.3</ele>
				<time>2013-08-14T07:12:06Z</time>
				<hdop>1.5</hdop>
			</trkpt>
			<trkpt lat="46.8806075" lon="6.7133659">
				<ele>1077.3</ele>
				<time>2013-08-14T07:12:07Z</time>
				<hdop>1.5</hdop>
			</trkpt>
			<trkpt lat="46.88060606" lon="6.71336236">
				<ele>1077.1</ele>
				<time>2013-08-14T07:12:08Z</time>
				<hdop>1.5</hdop>
			</trkpt>
			<trkpt lat="46.88060559" lon="6.71335257">
				<ele>1075.8</ele>
				<time>2013-08-14T07:12:09Z</time>
				<hdop>1.5</hdop>
			</trkpt>
			<trkpt lat="46.88060586" lon="6.71334993">
				<ele>1075.8</ele>
				<time>2013-08-14T07:12:10Z</time>
				<hdop>1.5</hdop>
			</trkpt>
			<trkpt lat="46.88061025" lon="6.71335524">
				<ele>1075.1</ele>
				<time>2013-08-14T07:12:11Z</time>
				<hdop>1.5</hdop>
			</trkpt>
			<trkpt lat="46.88061735" lon="6.71336724">
				<ele>1074.8</ele>
				<time>2013-08-14T07:12:12Z</time>
				<hdop>1.5</hdop>
			</trkpt>
			<trkpt lat="46.88061735" lon="6.71336724">
				<ele>1074.8</ele>
				<time>2013-08-14T07:12:13Z</time>
				<hdop>2.0</hdop>
			</trkpt>
			<trkpt lat="46.88061908" lon="6.71336861">
				<ele>1074.4</ele>
				<time>2013-08-14T07:12:14Z</time>
				<hdop>2.0</hdop>
			</trkpt>
			<trkpt lat="46.88061869" lon="6.71337173">
				<ele>1074.9</ele>
				<time>2013-08-14T07:12:15Z</time>
				<hdop>2.0</hdop>
			</trkpt>
			<trkpt lat="46.88061884" lon="6.71337176">
				<ele>1074.8</ele>
				<time>2013-08-14T07:12:17Z</time>
				<hdop>3.0</hdop>
			</trkpt>
			<trkpt lat="46.88061925" lon="6.71337233">
				<ele>1074.9</ele>
				<time>2013-08-14T07:12:18Z</time>
				<hdop>3.0</hdop>
			</trkpt>
			<trkpt lat="46.88061971" lon="6.71337319">
				<ele>1075.0</ele>
				<time>2013-08-14T07:12:19Z</time>
				<hdop>3.0</hdop>
			</trkpt>
			<trkpt lat="46.88061971" lon="6.71337319">
				<ele>1075.0</ele>
				<time>2013-08-14T07:12:20Z</time>
				<hdop>3.0</hdop>
			</trkpt>
			<trkpt lat="46.88061983" lon="6.71337405">
				<ele>1075.0</ele>
				<time>2013-08-14T07:12:21Z</time>
				<hdop>3.0</hdop>
			</trkpt>
			<trkpt lat="46.88061969" lon="6.71337348">
				<ele>1074.9</ele>
				<time>2013-08-14T07:12:22Z</time>
				<hdop>3.0</hdop>
			</trkpt>
			<trkpt lat="46.88061953" lon="6.71337319">
				<ele>1074.8</ele>
				<time>2013-08-14T07:12:23Z</time>
				<hdop>3.0</hdop>
			</trkpt>
			<trkpt lat="46.88062005" lon="6.71337387">
				<ele>1074.9</ele>
				<time>2013-08-14T07:12:24Z</time>
				<hdop>3.0</hdop>
			</trkpt>
			<trkpt lat="46.88061999" lon="6.71337389">
				<ele>1074.9</ele>
				<time>2013-08-14T07:12:25Z</time>
				<hdop>3.0</hdop>
			</trkpt>
			<trkpt lat="46.88062008" lon="6.71337353">
				<ele>1074.9</ele>
				<time>2013-08-14T07:12:27Z</time>
				<hdop>3.0</hdop>
			</trkpt>
			<trkpt lat="46.88061995" lon="6.71337313">
				<ele>1074.8</ele>
				<time>2013-08-14T07:12:28Z</time>
				<hdop>3.0</hdop>
			</trkpt>
			<trkpt lat="46.88062027" lon="6.71337224">
				<ele>1074.7</ele>
				<time>2013-08-14T07:12:29Z</time>
				<hdop>2.0</hdop>
			</trkpt>
			<trkpt lat="46.88062044" lon="6.7133722">
				<ele>1074.7</ele>
				<time>2013-08-14T07:12:30Z</time>
				<hdop>2.0</hdop>
			</trkpt>
			<trkpt lat="46.88062068" lon="6.71337241">
				<ele>1074.8</ele>
				<time>2013-08-14T07:12:31Z</time>
				<hdop>3.0</hdop>
			</trkpt>
			<trkpt lat="46.88062389" lon="6.71337278">
				<ele>1074.8</ele>
				<time>2013-08-14T07:12:32Z</time>
				<hdop>3.0</hdop>
			</trkpt>
			<trkpt lat="46.88071595" lon="6.71337409">
				<ele>1071.2</ele>
				<time>2013-08-14T07:12:33Z</time>
				<hdop>3.0</hdop>
			</trkpt>
			<trkpt lat="46.88072521" lon="6.71337907">
				<ele>1071.4</ele>
				<time>2013-08-14T07:12:34Z</time>
				<hdop>3.0</hdop>
			</trkpt>
			<trkpt lat="46.88076467" lon="6.71343111">
				<ele>1073.5</ele>
				<time>2013-08-14T07:12:35Z</time>
				<hdop>3.0</hdop>
			</trkpt>
			<trkpt lat="46.88079753" lon="6.71344557">
				<ele>1072.8</ele>
				<time>2013-08-14T07:12:36Z</time>
				<hdop>3.0</hdop>
			</trkpt>
			<trkpt lat="46.88084377" lon="6.71341999">
				<ele>1072.9</ele>
				<time>2013-08-14T07:12:37Z</time>
				<hdop>3.0</hdop>
			</trkpt>
			<trkpt lat="46.88087583" lon="6.7134845">
				<ele>1076.1</ele>
				<time>2013-08-14T07:12:39Z</time>
				<hdop>3.0</hdop>
			</trkpt>
			<trkpt lat="46.88090461" lon="6.71346268">
				<ele>1075.6</ele>
				<time>2013-08-14T07:12:40Z</time>
				<hdop>3.0</hdop>
			</trkpt>
			<trkpt lat="46.88093118" lon="6.71343811">
				<ele>1075.8</ele>
				<time>2013-08-14T07:12:41Z</time>
				<hdop>3.0</hdop>
			</trkpt>
			<trkpt lat="46.88094857" lon="6.71343057">
				<ele>1076.0</ele>
				<time>2013-08-14T07:12:42Z</time>
				<hdop>3.0</hdop>
			</trkpt>
			<trkpt lat="46.88098499" lon="6.71345215">
				<ele>1074.2</ele>
				<time>2013-08-14T07:12:43Z</time>
				<hdop>3.0</hdop>
			</trkpt>
			<trkpt lat="46.88099217" lon="6.71345953">
				<ele>1073.7</ele>
				<time>2013-08-14T07:12:45Z</time>
				<hdop>3.0</hdop>
			</trkpt>
			<trkpt lat="46.8810216" lon="6.71345643">
				<ele>1074.5</ele>
				<time>2013-08-14T07:12:46Z</time>
				<hdop>3.0</hdop>
			</trkpt>
			<trkpt lat="46.88100923" lon="6.71345183">
				<ele>1077.8</ele>
				<time>2013-08-14T07:12:47Z</time>
				<hdop>3.0</hdop>
			</trkpt>
			<trkpt lat="46.88101647" lon="6.71345506">
				<ele>1077.7</ele>
				<time>2013-08-14T07:12:48Z</time>
				<hdop>3.0</hdop>
			</trkpt>
			<trkpt lat="46.88102811" lon="6.71345775">
				<ele>1076.9</ele>
				<time>2013-08-14T07:12:49Z</time>
				<hdop>3.0</hdop>
			</trkpt>
			<trkpt lat="46.88104143" lon="6.71348692">
				<ele>1076.7</ele>
				<time>2013-08-14T07:12:50Z</time>
				<hdop>3.0</hdop>
			</trkpt>
			<trkpt lat="46.88104698" lon="6.71348925">
				<ele>1075.7</ele>
				<time>2013-08-14T07:12:51Z</time>
				<hdop>3.0</hdop>
			</trkpt>
			<trkpt lat="46.88107594" lon="6.71347739">
				<ele>1078.7</ele>
				<time>2013-08-14T07:12:52Z</time>
				<hdop>3.0</hdop>
			</trkpt>
			<trkpt lat="46.88106354" lon="6.7134905">
				<ele>1078.8</ele>
				<time>2013-08-14T07:12:54Z</time>
				<hdop>2.0</hdop>
			</trkpt>
			<trkpt lat="46.88110518" lon="6.71350732">
				<ele>1080.1</ele>
				<time>2013-08-14T07:12:55Z</time>
				<hdop>2.0</hdop>
			</trkpt>
			<trkpt lat="46.88112436" lon="6.71352152">
				<ele>1080.9</ele>
				<time>2013-08-14T07:12:57Z</time>
				<hdop>1.5</hdop>
			</trkpt>
			<trkpt lat="46.88113664" lon="6.7135165">
				<ele>1081.9</ele>
				<time>2013-08-14T07:12:58Z</time>
				<hdop>1.5</hdop>
			</trkpt>
			<trkpt lat="46.88115978" lon="6.7135174">
				<ele>1083.3</ele>
				<time>2013-08-14T07:12:59Z</time>
				<hdop>2.0</hdop>
			</trkpt>
			<trkpt lat="46.88116986" lon="6.71355061">
				<ele>1084.6</ele>
				<time>2013-08-14T07:13:01Z</time>
				<hdop>2.0</hdop>
			</trkpt>
			<trkpt lat="46.8812017" lon="6.71354708">
				<ele>1085.1</ele>
				<time>2013-08-14T07:13:03Z</time>
				<hdop>2.0</hdop>
			</trkpt>
			<trkpt lat="46.88121371" lon="6.71354774">
				<ele>1086.3</ele>
				<time>2013-08-14T07:13:04Z</time>
				<hdop>2.0</hdop>
			</trkpt>
			<trkpt lat="46.8812308" lon="6.71356134">
				<ele>1086.9</ele>
				<time>2013-08-14T07:13:06Z</time>
				<hdop>2.0</hdop>
			</trkpt>
			<trkpt lat="46.88124634" lon="6.71356417">
				<ele>1087.0</ele>
				<time>2013-08-14T07:13:07Z</time>
				<hdop>3.0</hdop>
			</trkpt>
			<trkpt lat="46.88125493" lon="6.71355375">
				<ele>1086.5</ele>
				<time>2013-08-14T07:13:08Z</time>
				<hdop>3.0</hdop>
			</trkpt>
			<trkpt lat="46.88125682" lon="6.71355375">
				<ele>1086.5</ele>
				<time>2013-08-14T07:13:09Z</time>
				<hdop>3.0</hdop>
			</trkpt>
			<trkpt lat="46.88125682" lon="6.71355375">
				<ele>1086.5</ele>
				<time>2013-08-14T07:13:10Z</time>
				<hdop>3.0</hdop>
			</trkpt>
			<trkpt lat="46.88126186" lon="6.71355506">
				<ele>1086.3</ele>
				<time>2013-08-14T07:13:12Z</time>
				<hdop>3.0</hdop>
			</trkpt>
			<trkpt lat="46.88126105" lon="6.71355474">
				<ele>1086.5</ele>
				<time>2013-08-14T07:13:13Z</time>
				<hdop>4.0</hdop>
			</trkpt>
			<trkpt lat="46.88125965" lon="6.71355745">
				<ele>1086.6</ele>
				<time>2013-08-14T07:13:14Z</time>
				<hdop>3.0</hdop>
			</trkpt>
			<trkpt lat="46.88125934" lon="6.71355817">
				<ele>1086.5</ele>
				<time>2013-08-14T07:13:15Z</time>
				<hdop>3.0</hdop>
			</trkpt>
			<trkpt lat="46.88125914" lon="6.71355803">
				<ele>1086.5</ele>
				<time>2013-08-14T07:13:16Z</time>
				<hdop>3.0</hdop>
			</trkpt>
			<trkpt lat="46.8812595" lon="6.7135587">
				<ele>1086.4</ele>
				<time>2013-08-14T07:13:17Z</time>
				<hdop>3.0</hdop>
			</trkpt>
			<trkpt lat="46.88126038" lon="6.71355872">
				<ele>1086.5</ele>
				<time>2013-08-14T07:13:18Z</time>
				<hdop>3.0</hdop>
			</trkpt>
			<trkpt lat="46.88126083" lon="6.71355845">
				<ele>1086.4</ele>
				<time>2013-08-14T07:13:19Z</time>
				<hdop>3.0</hdop>
			</trkpt>
			<trkpt lat="46.88126156" lon="6.71356033">
				<ele>1086.3</ele>
				<time>2013-08-14T07:13:20Z</time>
				<hdop>3.0</hdop>
			</trkpt>
			<trkpt lat="46.88126232" lon="6.71355997">
				<ele>1086.2</ele>
				<time>2013-08-14T07:13:21Z</time>
				<hdop>3.0</hdop>
			</trkpt>
			<trkpt lat="46.88126307" lon="6.71355992">
				<ele>1086.1</ele>
				<time>2013-08-14T07:13:22Z</time>
				<hdop>3.0</hdop>
			</trkpt>
			<trkpt lat="46.88126423" lon="6.71355892">
				<ele>1086.1</ele>
				<time>2013-08-14T07:13:23Z</time>
				<hdop>3.0</hdop>
			</trkpt>
			<trkpt lat="46.88126318" lon="6.71355896">
				<ele>1086.1</ele>
				<time>2013-08-14T07:13:24Z</time>
				<hdop>3.0</hdop>
			</trkpt>
			<trkpt lat="46.88126334" lon="6.71355978">
				<ele>1086.1</ele>
				<time>2013-08-14T07:13:25Z</time>
				<hdop>3.0</hdop>
			</trkpt>
			<trkpt lat="46.8812625" lon="6.71356023">
				<ele>1086.2</ele>
				<time>2013-08-14T07:13:26Z</time>
				<hdop>3.0</hdop>
			</trkpt>
			<trkpt lat="46.88126154" lon="6.71356094">
				<ele>1086.2</ele>
				<time>2013-08-14T07:13:27Z</time>
				<hdop>3.0</hdop>
			</trkpt>
			<trkpt lat="46.88126134" lon="6.71356125">
				<ele>1086.1</ele>
				<time>2013-08-14T07:13:28Z</time>
				<hdop>3.0</hdop>
			</trkpt>
			<trkpt lat="46.88126079" lon="6.71356158">
				<ele>1086.2</ele>
				<time>2013-08-14T07:13:29Z</time>
				<hdop>3.0</hdop>
			</trkpt>
			<trkpt lat="46.88126082" lon="6.71356133">
				<ele>1086.2</ele>
				<time>2013-08-14T07:13:30Z</time>
				<hdop>3.0</hdop>
			</trkpt>
			<trkpt lat="46.88126061" lon="6.71356146">
				<ele>1086.2</ele>
				<time>2013-08-14T07:13:31Z</time>
				<hdop>2.0</hdop>
			</trkpt>
			<trkpt lat="46.88126037" lon="6.71356103">
				<ele>1086.1</ele>
				<time>2013-08-14T07:13:32Z</time>
				<hdop>2.0</hdop>
			</trkpt>
			<trkpt lat="46.88126021" lon="6.71356114">
				<ele>1086.1</ele>
				<time>2013-08-14T07:13:33Z</time>
				<hdop>2.0</hdop>
			</trkpt>
			<trkpt lat="46.88126021" lon="6.71356125">
				<ele>1086.2</ele>
				<time>2013-08-14T07:13:34Z</time>
				<hdop>2.0</hdop>
			</trkpt>
			<trkpt lat="46.88125996" lon="6.71356118">
				<ele>1086.2</ele>
				<time>2013-08-14T07:13:35Z</time>
				<hdop>2.0</hdop>
			</trkpt>
			<trkpt lat="46.88125996" lon="6.71356134">
				<ele>1086.2</ele>
				<time>2013-08-14T07:13:36Z</time>
				<hdop>1.5</hdop>
			</trkpt>
			<trkpt lat="46.88125993" lon="6.71356139">
				<ele>1086.2</ele>
				<time>2013-08-14T07:13:37Z</time>
				<hdop>1.5</hdop>
			</trkpt>
			<trkpt lat="46.88126013" lon="6.71356096">
				<ele>1086.1</ele>
				<time>2013-08-14T07:13:39Z</time>
				<hdop>1.5</hdop>
			</trkpt>
			<trkpt lat="46.88126019" lon="6.71355993">
				<ele>1086.1</ele>
				<time>2013-08-14T07:13:40Z</time>
				<hdop>1.5</hdop>
			</trkpt>
			<trkpt lat="46.88126003" lon="6.71355954">
				<ele>1086.0</ele>
				<time>2013-08-14T07:13:41Z</time>
				<hdop>1.5</hdop>
			</trkpt>
			<trkpt lat="46.8812598" lon="6.71355947">
				<ele>1086.0</ele>
				<time>2013-08-14T07:13:42Z</time>
				<hdop>1.5</hdop>
			</trkpt>
			<trkpt lat="46.88125946" lon="6.7135596">
				<ele>1086.0</ele>
				<time>2013-08-14T07:13:43Z</time>
				<hdop>1.5</hdop>
			</trkpt>
			<trkpt lat="46.88125904" lon="6.71355991">
				<ele>1086.0</ele>
				<time>2013-08-14T07:13:44Z</time>
				<hdop>2.0</hdop>
			</trkpt>
			<trkpt lat="46.88125886" lon="6.7135603">
				<ele>1086.0</ele>
				<time>2013-08-14T07:13:45Z</time>
				<hdop>2.0</hdop>
			</trkpt>
			<trkpt lat="46.88125873" lon="6.71356044">
				<ele>1086.0</ele>
				<time>2013-08-14T07:13:46Z</time>
				<hdop>2.0</hdop>
			</trkpt>
			<trkpt lat="46.88125871" lon="6.71356041">
				<ele>1086.1</ele>
				<time>2013-08-14T07:13:47Z</time>
				<hdop>2.0</hdop>
			</trkpt>
			<trkpt lat="46.8812586" lon="6.71356044">
				<ele>1086.1</ele>
				<time>2013-08-14T07:13:48Z</time>
				<hdop>3.0</hdop>
			</trkpt>
			<trkpt lat="46.88125867" lon="6.71356035">
				<ele>1086.1</ele>
				<time>2013-08-14T07:13:49Z</time>
				<hdop>3.0</hdop>
			</trkpt>
			<trkpt lat="46.88125872" lon="6.71356032">
				<ele>1086.1</ele>
				<time>2013-08-14T07:13:50Z</time>
				<hdop>3.0</hdop>
			</trkpt>
			<trkpt lat="46.88125862" lon="6.71355987">
				<ele>1086.0</ele>
				<time>2013-08-14T07:13:51Z</time>
				<hdop>3.0</hdop>
			</trkpt>
			<trkpt lat="46.88125891" lon="6.7135595">
				<ele>1086.0</ele>
				<time>2013-08-14T07:13:52Z</time>
				<hdop>3.0</hdop>
			</trkpt>
			<trkpt lat="46.88125902" lon="6.71355911">
				<ele>1086.0</ele>
				<time>2013-08-14T07:13:53Z</time>
				<hdop>4.0</hdop>
			</trkpt>
			<trkpt lat="46.88125909" lon="6.71355893">
				<ele>1086.0</ele>
				<time>2013-08-14T07:13:54Z</time>
				<hdop>4.0</hdop>
			</trkpt>
			<trkpt lat="46.88125908" lon="6.71355885">
				<ele>1086.0</ele>
				<time>2013-08-14T07:13:55Z</time>
				<hdop>3.0</hdop>
			</trkpt>
			<trkpt lat="46.88125892" lon="6.71355896">
				<ele>1086.0</ele>
				<time>2013-08-14T07:13:56Z</time>
				<hdop>3.0</hdop>
			</trkpt>
			<trkpt lat="46.88125882" lon="6.7135587">
				<ele>1086.0</ele>
				<time>2013-08-14T07:13:57Z</time>
				<hdop>3.0</hdop>
			</trkpt>
			<trkpt lat="46.8812589" lon="6.71355854">
				<ele>1086.1</ele>
				<time>2013-08-14T07:13:58Z</time>
				<hdop>3.0</hdop>
			</trkpt>
			<trkpt lat="46.88125874" lon="6.71355863">
				<ele>1086.1</ele>
				<time>2013-08-14T07:13:59Z</time>
				<hdop>3.0</hdop>
			</trkpt>
			<trkpt lat="46.88125845" lon="6.71355863">
				<ele>1086.1</ele>
				<time>2013-08-14T07:14:00Z</time>
				<hdop>3.0</hdop>
			</trkpt>
			<trkpt lat="46.88125871" lon="6.71355823">
				<ele>1086.1</ele>
				<time>2013-08-14T07:14:01Z</time>
				<hdop>3.0</hdop>
			</trkpt>
			<trkpt lat="46.88125864" lon="6.71355812">
				<ele>1086.1</ele>
				<time>2013-08-14T07:14:02Z</time>
				<hdop>3.0</hdop>
			</trkpt>
			<trkpt lat="46.8812584" lon="6.71355834">
				<ele>1086.0</ele>
				<time>2013-08-14T07:14:03Z</time>
				<hdop>3.0</hdop>
			</trkpt>
			<trkpt lat="46.88125818" lon="6.71355865">
				<ele>1086.0</ele>
				<time>2013-08-14T07:14:04Z</time>
				<hdop>3.0</hdop>
			</trkpt>
			<trkpt lat="46.8812581" lon="6.71355862">
				<ele>1086.0</ele>
				<time>2013-08-14T07:14:05Z</time>
				<hdop>4.0</hdop>
			</trkpt>
			<trkpt lat="46.88125801" lon="6.71355857">
				<ele>1086.0</ele>
				<time>2013-08-14T07:14:06Z</time>
				<hdop>4.0</hdop>
			</trkpt>
			<trkpt lat="46.88125787" lon="6.71355863">
				<ele>1086.1</ele>
				<time>2013-08-14T07:14:07Z</time>
				<hdop>4.0</hdop>
			</trkpt>
			<trkpt lat="46.88125777" lon="6.71355862">
				<ele>1086.1</ele>
				<time>2013-08-14T07:14:08Z</time>
				<hdop>4.0</hdop>
			</trkpt>
			<trkpt lat="46.88125772" lon="6.71355866">
				<ele>1086.1</ele>
				<time>2013-08-14T07:14:09Z</time>
				<hdop>4.0</hdop>
			</trkpt>
			<trkpt lat="46.8812577" lon="6.71355869">
				<ele>1086.1</ele>
				<time>2013-08-14T07:14:10Z</time>
				<hdop>6.0</hdop>
			</trkpt>
			<trkpt lat="46.88125766" lon="6.71355861">
				<ele>1086.1</ele>
				<time>2013-08-14T07:14:11Z</time>
				<hdop>6.0</hdop>
			</trkpt>
			<trkpt lat="46.88125766" lon="6.71355861">
				<ele>1086.1</ele>
				<time>2013-08-14T07:14:12Z</time>
				<hdop>6.0</hdop>
			</trkpt>
			<trkpt lat="46.88125773" lon="6.71355873">
				<ele>1086.1</ele>
				<time>2013-08-14T07:14:13Z</time>
				<hdop>6.0</hdop>
			</trkpt>
			<trkpt lat="46.88125759" lon="6.71355873">
				<ele>1086.1</ele>
				<time>2013-08-14T07:14:14Z</time>
				<hdop>8.0</hdop>
			</trkpt>
			<trkpt lat="46.88125741" lon="6.71355869">
				<ele>1086.1</ele>
				<time>2013-08-14T07:14:15Z</time>
				<hdop>12.0</hdop>
			</trkpt>
			<trkpt lat="46.8812574" lon="6.71355871">
				<ele>1086.1</ele>
				<time>2013-08-14T07:14:16Z</time>
				<hdop>12.0</hdop>
			</trkpt>
			<trkpt lat="46.88125744" lon="6.7135587">
				<ele>1086.1</ele>
				<time>2013-08-14T07:14:17Z</time>
				<hdop>12.0</hdop>
			</trkpt>
			<trkpt lat="46.88125749" lon="6.71355867">
				<ele>1086.1</ele>
				<time>2013-08-14T07:14:18Z</time>
				<hdop>12.0</hdop>
			</trkpt>
			<trkpt lat="46.88125744" lon="6.71355856">
				<ele>1086.1</ele>
				<time>2013-08-14T07:14:19Z</time>
				<hdop>8.0</hdop>
			</trkpt>
			<trkpt lat="46.88125768" lon="6.71355829">
				<ele>1086.1</ele>
				<time>2013-08-14T07:14:20Z</time>
				<hdop>8.0</hdop>
			</trkpt>
			<trkpt lat="46.88125758" lon="6.71355819">
				<ele>1086.1</ele>
				<time>2013-08-14T07:14:21Z</time>
				<hdop>8.0</hdop>
			</trkpt>
			<trkpt lat="46.88125762" lon="6.71355821">
				<ele>1086.1</ele>
				<time>2013-08-14T07:14:22Z</time>
				<hdop>6.0</hdop>
			</trkpt>
			<trkpt lat="46.88125765" lon="6.71355826">
				<ele>1086.1</ele>
				<time>2013-08-14T07:14:23Z</time>
				<hdop>6.0</hdop>
			</trkpt>
			<trkpt lat="46.88125774" lon="6.71355796">
				<ele>1086.0</ele>
				<time>2013-08-14T07:14:25Z</time>
				<hdop>6.0</hdop>
			</trkpt>
			<trkpt lat="46.88125774" lon="6.71355796">
				<ele>1086.0</ele>
				<time>2013-08-14T07:14:26Z</time>
				<hdop>8.0</hdop>
			</trkpt>
			<trkpt lat="46.88125772" lon="6.71355806">
				<ele>1086.0</ele>
				<time>2013-08-14T07:14:27Z</time>
				<hdop>8.0</hdop>
			</trkpt>
			<trkpt lat="46.88125773" lon="6.71355807">
				<ele>1086.0</ele>
				<time>2013-08-14T07:14:28Z</time>
				<hdop>6.0</hdop>
			</trkpt>
			<trkpt lat="46.88125787" lon="6.71355805">
				<ele>1086.1</ele>
				<time>2013-08-14T07:14:29Z</time>
				<hdop>6.0</hdop>
			</trkpt>
			<trkpt lat="46.88125787" lon="6.71355789">
				<ele>1086.0</ele>
				<time>2013-08-14T07:14:30Z</time>
				<hdop>6.0</hdop>
			</trkpt>
			<trkpt lat="46.88125782" lon="6.71355783">
				<ele>1086.0</ele>
				<time>2013-08-14T07:14:32Z</time>
				<hdop>6.0</hdop>
			</trkpt>
			<trkpt lat="46.88125777" lon="6.71355831">
				<ele>1086.1</ele>
				<time>2013-08-14T07:14:33Z</time>
				<hdop>6.0</hdop>
			</trkpt>
			<trkpt lat="46.8812576" lon="6.71355837">
				<ele>1086.1</ele>
				<time>2013-08-14T07:14:35Z</time>
				<hdop>6.0</hdop>
			</trkpt>
			<trkpt lat="46.88125736" lon="6.71355861">
				<ele>1086.1</ele>
				<time>2013-08-14T07:14:36Z</time>
				<hdop>6.0</hdop>
			</trkpt>
			<trkpt lat="46.88125737" lon="6.7135587">
				<ele>1086.2</ele>
				<time>2013-08-14T07:14:37Z</time>
				<hdop>6.0</hdop>
			</trkpt>
			<trkpt lat="46.88125737" lon="6.7135587">
				<ele>1086.2</ele>
				<time>2013-08-14T07:14:39Z</time>
				<hdop>6.0</hdop>
			</trkpt>
			<trkpt lat="46.88125747" lon="6.71355861">
				<ele>1086.2</ele>
				<time>2013-08-14T07:14:40Z</time>
				<hdop>6.0</hdop>
			</trkpt>
			<trkpt lat="46.88125765" lon="6.71355847">
				<ele>1086.2</ele>
				<time>2013-08-14T07:14:41Z</time>
				<hdop>6.0</hdop>
			</trkpt>
			<trkpt lat="46.88125762" lon="6.71355847">
				<ele>1086.2</ele>
				<time>2013-08-14T07:14:42Z</time>
				<hdop>6.0</hdop>
			</trkpt>
			<trkpt lat="46.88125773" lon="6.71355836">
				<ele>1086.2</ele>
				<time>2013-08-14T07:14:43Z</time>
				<hdop>8.0</hdop>
			</trkpt>
			<trkpt lat="46.88125763" lon="6.71355841">
				<ele>1086.2</ele>
				<time>2013-08-14T07:14:44Z</time>
				<hdop>12.0</hdop>
			</trkpt>
			<trkpt lat="46.8812575" lon="6.71355832">
				<ele>1086.2</ele>
				<time>2013-08-14T07:14:45Z</time>
				<hdop>8.0</hdop>
			</trkpt>
			<trkpt lat="46.88125742" lon="6.71355825">
				<ele>1086.2</ele>
				<time>2013-08-14T07:14:46Z</time>
				<hdop>8.0</hdop>
			</trkpt>
			<trkpt lat="46.88125737" lon="6.71355812">
				<ele>1086.2</ele>
				<time>2013-08-14T07:14:47Z</time>
				<hdop>8.0</hdop>
			</trkpt>
			<trkpt lat="46.88125718" lon="6.71355815">
				<ele>1086.2</ele>
				<time>2013-08-14T07:14:48Z</time>
				<hdop>6.0</hdop>
			</trkpt>
			<trkpt lat="46.8812571" lon="6.71355811">
				<ele>1086.2</ele>
				<time>2013-08-14T07:14:49Z</time>
				<hdop>6.0</hdop>
			</trkpt>
			<trkpt lat="46.88125706" lon="6.71355797">
				<ele>1086.2</ele>
				<time>2013-08-14T07:14:50Z</time>
				<hdop>6.0</hdop>
			</trkpt>
			<trkpt lat="46.88125707" lon="6.71355786">
				<ele>1086.2</ele>
				<time>2013-08-14T07:14:51Z</time>
				<hdop>6.0</hdop>
			</trkpt>
			<trkpt lat="46.88125709" lon="6.71355789">
				<ele>1086.2</ele>
				<time>2013-08-14T07:14:52Z</time>
				<hdop>6.0</hdop>
			</trkpt>
			<trkpt lat="46.88125707" lon="6.71355782">
				<ele>1086.2</ele>
				<time>2013-08-14T07:14:53Z</time>
				<hdop>4.0</hdop>
			</trkpt>
			<trkpt lat="46.88125707" lon="6.71355778">
				<ele>1086.2</ele>
				<time>2013-08-14T07:14:54Z</time>
				<hdop>4.0</hdop>
			</trkpt>
			<trkpt lat="46.88125706" lon="6.71355777">
				<ele>1086.2</ele>
				<time>2013-08-14T07:14:55Z</time>
				<hdop>4.0</hdop>
			</trkpt>
			<trkpt lat="46.88125706" lon="6.71355775">
				<ele>1086.2</ele>
				<time>2013-08-14T07:14:56Z</time>
				<hdop>4.0</hdop>
			</trkpt>
			<trkpt lat="46.88125706" lon="6.71355776">
				<ele>1086.2</ele>
				<time>2013-08-14T07:14:57Z</time>
				<hdop>4.0</hdop>
			</trkpt>
			<trkpt lat="46.88125707" lon="6.71355778">
				<ele>1086.2</ele>
				<time>2013-08-14T07:14:58Z</time>
				<hdop>6.0</hdop>
			</trkpt>
			<trkpt lat="46.88125708" lon="6.71355776">
				<ele>1086.2</ele>
				<time>2013-08-14T07:14:59Z</time>
				<hdop>6.0</hdop>
			</trkpt>
			<trkpt lat="46.88125709" lon="6.71355773">
				<ele>1086.2</ele>
				<time>2013-08-14T07:15:00Z</time>
				<hdop>12.0</hdop>
			</trkpt>
			<trkpt lat="46.88125707" lon="6.71355775">
				<ele>1086.2</ele>
				<time>2013-08-14T07:15:01Z</time>
				<hdop>16.0</hdop>
			</trkpt>
			<trkpt lat="46.88125706" lon="6.71355777">
				<ele>1086.2</ele>
				<time>2013-08-14T07:15:02Z</time>
				<hdop>16.0</hdop>
			</trkpt>
			<trkpt lat="46.88125705" lon="6.71355775">
				<ele>1086.2</ele>
				<time>2013-08-14T07:15:03Z</time>
				<hdop>24.0</hdop>
			</trkpt>
			<trkpt lat="46.88125706" lon="6.71355771">
				<ele>1086.2</ele>
				<time>2013-08-14T07:15:04Z</time>
				<hdop>24.0</hdop>
			</trkpt>
			<trkpt lat="46.88125707" lon="6.71355769">
				<ele>1086.2</ele>
				<time>2013-08-14T07:15:05Z</time>
				<hdop>24.0</hdop>
			</trkpt>
			<trkpt lat="46.88125707" lon="6.71355737">
				<ele>1086.2</ele>
				<time>2013-08-14T07:15:06Z</time>
				<hdop>16.0</hdop>
			</trkpt>
			<trkpt lat="46.88125696" lon="6.71355738">
				<ele>1086.2</ele>
				<time>2013-08-14T07:15:07Z</time>
				<hdop>16.0</hdop>
			</trkpt>
			<trkpt lat="46.88125712" lon="6.71355736">
				<ele>1086.2</ele>
				<time>2013-08-14T07:15:08Z</time>
				<hdop>16.0</hdop>
			</trkpt>
			<trkpt lat="46.88125707" lon="6.7135574">
				<ele>1086.2</ele>
				<time>2013-08-14T07:15:09Z</time>
				<hdop>16.0</hdop>
			</trkpt>
			<trkpt lat="46.88125706" lon="6.71355737">
				<ele>1086.2</ele>
				<time>2013-08-14T07:15:10Z</time>
				<hdop>12.0</hdop>
			</trkpt>
			<trkpt lat="46.88125704" lon="6.71355739">
				<ele>1086.2</ele>
				<time>2013-08-14T07:15:11Z</time>
				<hdop>12.0</hdop>
			</trkpt>
			<trkpt lat="46.88125701" lon="6.71355751">
				<ele>1086.2</ele>
				<time>2013-08-14T07:15:12Z</time>
				<hdop>12.0</hdop>
			</trkpt>
			<trkpt lat="46.88125692" lon="6.71355751">
				<ele>1086.2</ele>
				<time>2013-08-14T07:15:13Z</time>
				<hdop>12.0</hdop>
			</trkpt>
			<trkpt lat="46.88125689" lon="6.71355757">
				<ele>1086.2</ele>
				<time>2013-08-14T07:15:14Z</time>
				<hdop>12.0</hdop>
			</trkpt>
			<trkpt lat="46.88125689" lon="6.71355763">
				<ele>1086.1</ele>
				<time>2013-08-14T07:15:16Z</time>
				<hdop>6.0</hdop>
			</trkpt>
			<trkpt lat="46.88125684" lon="6.71355759">
				<ele>1086.2</ele>
				<time>2013-08-14T07:15:17Z</time>
				<hdop>6.0</hdop>
			</trkpt>
			<trkpt lat="46.88125687" lon="6.71355762">
				<ele>1086.2</ele>
				<time>2013-08-14T07:15:18Z</time>
				<hdop>6.0</hdop>
			</trkpt>
			<trkpt lat="46.88125692" lon="6.71355759">
				<ele>1086.2</ele>
				<time>2013-08-14T07:15:19Z</time>
				<hdop>6.0</hdop>
			</trkpt>
			<trkpt lat="46.88125705" lon="6.71355755">
				<ele>1086.2</ele>
				<time>2013-08-14T07:15:20Z</time>
				<hdop>6.0</hdop>
			</trkpt>
			<trkpt lat="46.88125706" lon="6.71355757">
				<ele>1086.2</ele>
				<time>2013-08-14T07:15:21Z</time>
				<hdop>6.0</hdop>
			</trkpt>
			<trkpt lat="46.88125721" lon="6.71355773">
				<ele>1086.2</ele>
				<time>2013-08-14T07:15:23Z</time>
				<hdop>6.0</hdop>
			</trkpt>
			<trkpt lat="46.88125721" lon="6.71355767">
				<ele>1086.2</ele>
				<time>2013-08-14T07:15:24Z</time>
				<hdop>6.0</hdop>
			</trkpt>
			<trkpt lat="46.88125729" lon="6.71355757">
				<ele>1086.2</ele>
				<time>2013-08-14T07:15:25Z</time>
				<hdop>6.0</hdop>
			</trkpt>
			<trkpt lat="46.88125733" lon="6.71355758">
				<ele>1086.2</ele>
				<time>2013-08-14T07:15:26Z</time>
				<hdop>4.0</hdop>
			</trkpt>
			<trkpt lat="46.88125741" lon="6.71355765">
				<ele>1086.2</ele>
				<time>2013-08-14T07:15:27Z</time>
				<hdop>4.0</hdop>
			</trkpt>
			<trkpt lat="46.88125754" lon="6.71355744">
				<ele>1086.2</ele>
				<time>2013-08-14T07:15:28Z</time>
				<hdop>4.0</hdop>
			</trkpt>
			<trkpt lat="46.88125765" lon="6.71355729">
				<ele>1086.2</ele>
				<time>2013-08-14T07:15:30Z</time>
				<hdop>4.0</hdop>
			</trkpt>
			<trkpt lat="46.88125756" lon="6.71355737">
				<ele>1086.2</ele>
				<time>2013-08-14T07:15:31Z</time>
				<hdop>3.0</hdop>
			</trkpt>
			<trkpt lat="46.88125741" lon="6.71355736">
				<ele>1086.2</ele>
				<time>2013-08-14T07:15:32Z</time>
				<hdop>3.0</hdop>
			</trkpt>
			<trkpt lat="46.88125724" lon="6.7135574">
				<ele>1086.2</ele>
				<time>2013-08-14T07:15:33Z</time>
				<hdop>3.0</hdop>
			</trkpt>
			<trkpt lat="46.88125706" lon="6.71355755">
				<ele>1086.2</ele>
				<time>2013-08-14T07:15:35Z</time>
				<hdop>3.0</hdop>
			</trkpt>
			<trkpt lat="46.8812569" lon="6.71355762">
				<ele>1086.2</ele>
				<time>2013-08-14T07:15:36Z</time>
				<hdop>3.0</hdop>
			</trkpt>
			<trkpt lat="46.88125694" lon="6.71355756">
				<ele>1086.2</ele>
				<time>2013-08-14T07:15:37Z</time>
				<hdop>3.0</hdop>
			</trkpt>
			<trkpt lat="46.88125696" lon="6.71355762">
				<ele>1086.2</ele>
				<time>2013-08-14T07:15:38Z</time>
				<hdop>3.0</hdop>
			</trkpt>
			<trkpt lat="46.88125696" lon="6.71355762">
				<ele>1086.2</ele>
				<time>2013-08-14T07:15:39Z</time>
				<hdop>3.0</hdop>
			</trkpt>
			<trkpt lat="46.88125685" lon="6.7135577">
				<ele>1086.2</ele>
				<time>2013-08-14T07:15:40Z</time>
				<hdop>3.0</hdop>
			</trkpt>
			<trkpt lat="46.88125682" lon="6.71355764">
				<ele>1086.2</ele>
				<time>2013-08-14T07:15:41Z</time>
				<hdop>3.0</hdop>
			</trkpt>
			<trkpt lat="46.8812568" lon="6.71355731">
				<ele>1086.1</ele>
				<time>2013-08-14T07:15:43Z</time>
				<hdop>3.0</hdop>
			</trkpt>
			<trkpt lat="46.88125684" lon="6.71355728">
				<ele>1086.2</ele>
				<time>2013-08-14T07:15:44Z</time>
				<hdop>3.0</hdop>
			</trkpt>
			<trkpt lat="46.88125682" lon="6.7135571">
				<ele>1086.2</ele>
				<time>2013-08-14T07:15:45Z</time>
				<hdop>3.0</hdop>
			</trkpt>
			<trkpt lat="46.88125685" lon="6.71355697">
				<ele>1086.2</ele>
				<time>2013-08-14T07:15:46Z</time>
				<hdop>3.0</hdop>
			</trkpt>
			<trkpt lat="46.88125682" lon="6.71355691">
				<ele>1086.2</ele>
				<time>2013-08-14T07:15:47Z</time>
				<hdop>3.0</hdop>
			</trkpt>
			<trkpt lat="46.88125678" lon="6.71355668">
				<ele>1086.2</ele>
				<time>2013-08-14T07:15:48Z</time>
				<hdop>4.0</hdop>
			</trkpt>
			<trkpt lat="46.8812568" lon="6.71355667">
				<ele>1086.2</ele>
				<time>2013-08-14T07:15:49Z</time>
				<hdop>4.0</hdop>
			</trkpt>
			<trkpt lat="46.88125689" lon="6.7135568">
				<ele>1086.2</ele>
				<time>2013-08-14T07:15:50Z</time>
				<hdop>6.0</hdop>
			</trkpt>
			<trkpt lat="46.88125692" lon="6.71355681">
				<ele>1086.2</ele>
				<time>2013-08-14T07:15:51Z</time>
				<hdop>6.0</hdop>
			</trkpt>
			<trkpt lat="46.88125695" lon="6.71355687">
				<ele>1086.2</ele>
				<time>2013-08-14T07:15:52Z</time>
				<hdop>6.0</hdop>
			</trkpt>
			<trkpt lat="46.88125696" lon="6.71355698">
				<ele>1086.2</ele>
				<time>2013-08-14T07:15:53Z</time>
				<hdop>6.0</hdop>
			</trkpt>
			<trkpt lat="46.88125713" lon="6.71355704">
				<ele>1086.2</ele>
				<time>2013-08-14T07:15:54Z</time>
				<hdop>6.0</hdop>
			</trkpt>
			<trkpt lat="46.88125714" lon="6.71355685">
				<ele>1086.1</ele>
				<time>2013-08-14T07:15:55Z</time>
				<hdop>6.0</hdop>
			</trkpt>
			<trkpt lat="46.88125695" lon="6.71355701">
				<ele>1086.1</ele>
				<time>2013-08-14T07:15:56Z</time>
				<hdop>6.0</hdop>
			</trkpt>
			<trkpt lat="46.88125686" lon="6.71355712">
				<ele>1086.1</ele>
				<time>2013-08-14T07:15:57Z</time>
				<hdop>4.0</hdop>
			</trkpt>
			<trkpt lat="46.88125673" lon="6.71355718">
				<ele>1086.1</ele>
				<time>2013-08-14T07:15:58Z</time>
				<hdop>4.0</hdop>
			</trkpt>
			<trkpt lat="46.88125661" lon="6.7135573">
				<ele>1086.1</ele>
				<time>2013-08-14T07:15:59Z</time>
				<hdop>6.0</hdop>
			</trkpt>
			<trkpt lat="46.88125658" lon="6.71355739">
				<ele>1086.1</ele>
				<time>2013-08-14T07:16:00Z</time>
				<hdop>6.0</hdop>
			</trkpt>
			<trkpt lat="46.88125659" lon="6.71355744">
				<ele>1086.1</ele>
				<time>2013-08-14T07:16:01Z</time>
				<hdop>6.0</hdop>
			</trkpt>
			<trkpt lat="46.88125658" lon="6.71355742">
				<ele>1086.1</ele>
				<time>2013-08-14T07:16:02Z</time>
				<hdop>6.0</hdop>
			</trkpt>
			<trkpt lat="46.88125648" lon="6.71355746">
				<ele>1086.1</ele>
				<time>2013-08-14T07:16:03Z</time>
				<hdop>6.0</hdop>
			</trkpt>
			<trkpt lat="46.88125647" lon="6.71355739">
				<ele>1086.1</ele>
				<time>2013-08-14T07:16:04Z</time>
				<hdop>6.0</hdop>
			</trkpt>
			<trkpt lat="46.88125644" lon="6.71355735">
				<ele>1086.1</ele>
				<time>2013-08-14T07:16:05Z</time>
				<hdop>6.0</hdop>
			</trkpt>
			<trkpt lat="46.88125642" lon="6.71355736">
				<ele>1086.1</ele>
				<time>2013-08-14T07:16:06Z</time>
				<hdop>6.0</hdop>
			</trkpt>
			<trkpt lat="46.8812564" lon="6.71355737">
				<ele>1086.1</ele>
				<time>2013-08-14T07:16:07Z</time>
				<hdop>6.0</hdop>
			</trkpt>
			<trkpt lat="46.88125633" lon="6.71355743">
				<ele>1086.1</ele>
				<time>2013-08-14T07:16:08Z</time>
				<hdop>6.0</hdop>
			</trkpt>
			<trkpt lat="46.88125627" lon="6.71355744">
				<ele>1086.1</ele>
				<time>2013-08-14T07:16:09Z</time>
				<hdop>6.0</hdop>
			</trkpt>
			<trkpt lat="46.88125634" lon="6.71355734">
				<ele>1086.1</ele>
				<time>2013-08-14T07:16:10Z</time>
				<hdop>6.0</hdop>
			</trkpt>
			<trkpt lat="46.88125633" lon="6.71355732">
				<ele>1086.1</ele>
				<time>2013-08-14T07:16:11Z</time>
				<hdop>6.0</hdop>
			</trkpt>
			<trkpt lat="46.8812563" lon="6.71355738">
				<ele>1086.1</ele>
				<time>2013-08-14T07:16:12Z</time>
				<hdop>6.0</hdop>
			</trkpt>
			<trkpt lat="46.88125632" lon="6.71355739">
				<ele>1086.1</ele>
				<time>2013-08-14T07:16:13Z</time>
				<hdop>6.0</hdop>
			</trkpt>
			<trkpt lat="46.88125639" lon="6.71355735">
				<ele>1086.1</ele>
				<time>2013-08-14T07:16:14Z</time>
				<hdop>6.0</hdop>
			</trkpt>
			<trkpt lat="46.88125643" lon="6.71355743">
				<ele>1086.1</ele>
				<time>2013-08-14T07:16:15Z</time>
				<hdop>6.0</hdop>
			</trkpt>
			<trkpt lat="46.88125636" lon="6.71355749">
				<ele>1086.1</ele>
				<time>2013-08-14T07:16:16Z</time>
				<hdop>6.0</hdop>
			</trkpt>
			<trkpt lat="46.88125644" lon="6.71355755">
				<ele>1086.1</ele>
				<time>2013-08-14T07:16:17Z</time>
				<hdop>6.0</hdop>
			</trkpt>
			<trkpt lat="46.88125648" lon="6.71355766">
				<ele>1086.1</ele>
				<time>2013-08-14T07:16:18Z</time>
				<hdop>6.0</hdop>
			</trkpt>
			<trkpt lat="46.88125653" lon="6.71355766">
				<ele>1086.1</ele>
				<time>2013-08-14T07:16:19Z</time>
				<hdop>6.0</hdop>
			</trkpt>
			<trkpt lat="46.88125653" lon="6.71355766">
				<ele>1086.1</ele>
				<time>2013-08-14T07:16:20Z</time>
				<hdop>6.0</hdop>
			</trkpt>
			<trkpt lat="46.88125652" lon="6.71355765">
				<ele>1086.1</ele>
				<time>2013-08-14T07:16:21Z</time>
				<hdop>6.0</hdop>
			</trkpt>
			<trkpt lat="46.88125644" lon="6.71355767">
				<ele>1086.2</ele>
				<time>2013-08-14T07:16:22Z</time>
				<hdop>6.0</hdop>
			</trkpt>
			<trkpt lat="46.88125662" lon="6.71355763">
				<ele>1086.1</ele>
				<time>2013-08-14T07:16:24Z</time>
				<hdop>6.0</hdop>
			</trkpt>
			<trkpt lat="46.88125675" lon="6.71355775">
				<ele>1086.1</ele>
				<time>2013-08-14T07:16:25Z</time>
				<hdop>4.0</hdop>
			</trkpt>
			<trkpt lat="46.88125685" lon="6.71355787">
				<ele>1086.2</ele>
				<time>2013-08-14T07:16:26Z</time>
				<hdop>4.0</hdop>
			</trkpt>
			<trkpt lat="46.8812569" lon="6.71355801">
				<ele>1086.2</ele>
				<time>2013-08-14T07:16:27Z</time>
				<hdop>4.0</hdop>
			</trkpt>
			<trkpt lat="46.8812568" lon="6.71355824">
				<ele>1086.2</ele>
				<time>2013-08-14T07:16:28Z</time>
				<hdop>4.0</hdop>
			</trkpt>
			<trkpt lat="46.88125679" lon="6.7135582">
				<ele>1086.2</ele>
				<time>2013-08-14T07:16:30Z</time>
				<hdop>6.0</hdop>
			</trkpt>
			<trkpt lat="46.88125657" lon="6.71355835">
				<ele>1086.2</ele>
				<time>2013-08-14T07:16:31Z</time>
				<hdop>4.0</hdop>
			</trkpt>
			<trkpt lat="46.88125657" lon="6.71355835">
				<ele>1086.2</ele>
				<time>2013-08-14T07:16:32Z</time>
				<hdop>6.0</hdop>
			</trkpt>
			<trkpt lat="46.8812566" lon="6.71355951">
				<ele>1086.4</ele>
				<time>2013-08-14T07:16:34Z</time>
				<hdop>4.0</hdop>
			</trkpt>
			<trkpt lat="46.88125682" lon="6.71355927">
				<ele>1086.4</ele>
				<time>2013-08-14T07:16:36Z</time>
				<hdop>4.0</hdop>
			</trkpt>
			<trkpt lat="46.88125682" lon="6.71355931">
				<ele>1086.4</ele>
				<time>2013-08-14T07:16:37Z</time>
				<hdop>3.0</hdop>
			</trkpt>
			<trkpt lat="46.88125682" lon="6.71355954">
				<ele>1086.4</ele>
				<time>2013-08-14T07:16:38Z</time>
				<hdop>3.0</hdop>
			</trkpt>
			<trkpt lat="46.8812568" lon="6.71355986">
				<ele>1086.5</ele>
				<time>2013-08-14T07:16:39Z</time>
				<hdop>3.0</hdop>
			</trkpt>
			<trkpt lat="46.88125674" lon="6.71356016">
				<ele>1086.5</ele>
				<time>2013-08-14T07:16:40Z</time>
				<hdop>3.0</hdop>
			</trkpt>
			<trkpt lat="46.88125683" lon="6.71356023">
				<ele>1086.5</ele>
				<time>2013-08-14T07:16:41Z</time>
				<hdop>3.0</hdop>
			</trkpt>
			<trkpt lat="46.88126638" lon="6.71355413">
				<ele>1086.1</ele>
				<time>2013-08-14T07:16:42Z</time>
				<hdop>3.0</hdop>
			</trkpt>
			<trkpt lat="46.88126638" lon="6.71355413">
				<ele>1086.1</ele>
				<time>2013-08-14T07:16:43Z</time>
				<hdop>3.0</hdop>
			</trkpt>
			<trkpt lat="46.88126633" lon="6.71355422">
				<ele>1086.1</ele>
				<time>2013-08-14T07:16:45Z</time>
				<hdop>3.0</hdop>
			</trkpt>
			<trkpt lat="46.88126627" lon="6.71355424">
				<ele>1086.1</ele>
				<time>2013-08-14T07:16:46Z</time>
				<hdop>3.0</hdop>
			</trkpt>
			<trkpt lat="46.88126622" lon="6.71355421">
				<ele>1086.1</ele>
				<time>2013-08-14T07:16:47Z</time>
				<hdop>2.0</hdop>
			</trkpt>
			<trkpt lat="46.88126621" lon="6.71355418">
				<ele>1086.1</ele>
				<time>2013-08-14T07:16:48Z</time>
				<hdop>2.0</hdop>
			</trkpt>
			<trkpt lat="46.88127072" lon="6.71354966">
				<ele>1085.9</ele>
				<time>2013-08-14T07:16:49Z</time>
				<hdop>2.0</hdop>
			</trkpt>
			<trkpt lat="46.88134732" lon="6.71354148">
				<ele>1088.0</ele>
				<time>2013-08-14T07:16:51Z</time>
				<hdop>3.0</hdop>
			</trkpt>
			<trkpt lat="46.88139859" lon="6.71356647">
				<ele>1086.8</ele>
				<time>2013-08-14T07:16:52Z</time>
				<hdop>2.0</hdop>
			</trkpt>
			<trkpt lat="46.88145281" lon="6.71356504">
				<ele>1087.6</ele>
				<time>2013-08-14T07:16:53Z</time>
				<hdop>2.0</hdop>
			</trkpt>
			<trkpt lat="46.88149642" lon="6.71353148">
				<ele>1087.6</ele>
				<time>2013-08-14T07:16:54Z</time>
				<hdop>3.0</hdop>
			</trkpt>
			<trkpt lat="46.8814969" lon="6.71351935">
				<ele>1086.8</ele>
				<time>2013-08-14T07:16:55Z</time>
				<hdop>2.0</hdop>
			</trkpt>
			<trkpt lat="46.88153918" lon="6.71349028">
				<ele>1086.0</ele>
				<time>2013-08-14T07:16:57Z</time>
				<hdop>3.0</hdop>
			</trkpt>
			<trkpt lat="46.88153751" lon="6.71349115">
				<ele>1085.6</ele>
				<time>2013-08-14T07:16:58Z</time>
				<hdop>3.0</hdop>
			</trkpt>
			<trkpt lat="46.88154374" lon="6.71349605">
				<ele>1085.5</ele>
				<time>2013-08-14T07:16:59Z</time>
				<hdop>3.0</hdop>
			</trkpt>
			<trkpt lat="46.88154622" lon="6.7134994">
				<ele>1085.5</ele>
				<time>2013-08-14T07:17:01Z</time>
				<hdop>3.0</hdop>
			</trkpt>
			<trkpt lat="46.88154369" lon="6.71349813">
				<ele>1084.6</ele>
				<time>2013-08-14T07:17:02Z</time>
				<hdop>2.0</hdop>
			</trkpt>
			<trkpt lat="46.88153811" lon="6.71350248">
				<ele>1085.0</ele>
				<time>2013-08-14T07:17:03Z</time>
				<hdop>2.0</hdop>
			</trkpt>
			<trkpt lat="46.88153419" lon="6.71351585">
				<ele>1085.5</ele>
				<time>2013-08-14T07:17:05Z</time>
				<hdop>3.0</hdop>
			</trkpt>
			<trkpt lat="46.88153971" lon="6.71351582">
				<ele>1085.7</ele>
				<time>2013-08-14T07:17:06Z</time>
				<hdop>3.0</hdop>
			</trkpt>
			<trkpt lat="46.88153685" lon="6.71351817">
				<ele>1086.2</ele>
				<time>2013-08-14T07:17:07Z</time>
				<hdop>3.0</hdop>
			</trkpt>
			<trkpt lat="46.88153777" lon="6.71351908">
				<ele>1086.5</ele>
				<time>2013-08-14T07:17:08Z</time>
				<hdop>3.0</hdop>
			</trkpt>
			<trkpt lat="46.88153696" lon="6.71352195">
				<ele>1086.8</ele>
				<time>2013-08-14T07:17:09Z</time>
				<hdop>3.0</hdop>
			</trkpt>
			<trkpt lat="46.8815365" lon="6.71352642">
				<ele>1087.0</ele>
				<time>2013-08-14T07:17:10Z</time>
				<hdop>3.0</hdop>
			</trkpt>
			<trkpt lat="46.8815336" lon="6.71352827">
				<ele>1087.3</ele>
				<time>2013-08-14T07:17:11Z</time>
				<hdop>3.0</hdop>
			</trkpt>
			<trkpt lat="46.88153488" lon="6.71352723">
				<ele>1087.2</ele>
				<time>2013-08-14T07:17:12Z</time>
				<hdop>3.0</hdop>
			</trkpt>
			<trkpt lat="46.88153452" lon="6.71352529">
				<ele>1087.1</ele>
				<time>2013-08-14T07:17:13Z</time>
				<hdop>3.0</hdop>
			</trkpt>
			<trkpt lat="46.88153514" lon="6.71352361">
				<ele>1087.0</ele>
				<time>2013-08-14T07:17:15Z</time>
				<hdop>3.0</hdop>
			</trkpt>
			<trkpt lat="46.88153452" lon="6.71352397">
				<ele>1087.0</ele>
				<time>2013-08-14T07:17:16Z</time>
				<hdop>3.0</hdop>
			</trkpt>
			<trkpt lat="46.88153417" lon="6.71352426">
				<ele>1087.0</ele>
				<time>2013-08-14T07:17:17Z</time>
				<hdop>3.0</hdop>
			</trkpt>
			<trkpt lat="46.88153408" lon="6.71352449">
				<ele>1087.0</ele>
				<time>2013-08-14T07:17:18Z</time>
				<hdop>3.0</hdop>
			</trkpt>
			<trkpt lat="46.88153405" lon="6.71352468">
				<ele>1087.0</ele>
				<time>2013-08-14T07:17:19Z</time>
				<hdop>3.0</hdop>
			</trkpt>
			<trkpt lat="46.88153426" lon="6.71352485">
				<ele>1087.0</ele>
				<time>2013-08-14T07:17:20Z</time>
				<hdop>3.0</hdop>
			</trkpt>
			<trkpt lat="46.88153446" lon="6.71352523">
				<ele>1087.0</ele>
				<time>2013-08-14T07:17:21Z</time>
				<hdop>3.0</hdop>
			</trkpt>
			<trkpt lat="46.88153458" lon="6.71352575">
				<ele>1087.0</ele>
				<time>2013-08-14T07:17:22Z</time>
				<hdop>3.0</hdop>
			</trkpt>
			<trkpt lat="46.88153464" lon="6.71352545">
				<ele>1087.0</ele>
				<time>2013-08-14T07:17:24Z</time>
				<hdop>4.0</hdop>
			</trkpt>
			<trkpt lat="46.88153527" lon="6.71352463">
				<ele>1086.9</ele>
				<time>2013-08-14T07:17:25Z</time>
				<hdop>3.0</hdop>
			</trkpt>
			<trkpt lat="46.88153608" lon="6.71352402">
				<ele>1086.9</ele>
				<time>2013-08-14T07:17:26Z</time>
				<hdop>3.0</hdop>
			</trkpt>
			<trkpt lat="46.88153609" lon="6.71352522">
				<ele>1086.9</ele>
				<time>2013-08-14T07:17:28Z</time>
				<hdop>3.0</hdop>
			</trkpt>
			<trkpt lat="46.88153618" lon="6.71352568">
				<ele>1087.0</ele>
				<time>2013-08-14T07:17:29Z</time>
				<hdop>3.0</hdop>
			</trkpt>
			<trkpt lat="46.88153668" lon="6.71352627">
				<ele>1087.1</ele>
				<time>2013-08-14T07:17:31Z</time>
				<hdop>3.0</hdop>
			</trkpt>
			<trkpt lat="46.8815369" lon="6.71352588">
				<ele>1087.0</ele>
				<time>2013-08-14T07:17:32Z</time>
				<hdop>3.0</hdop>
			</trkpt>
			<trkpt lat="46.8815402" lon="6.71352502">
				<ele>1087.0</ele>
				<time>2013-08-14T07:17:33Z</time>
				<hdop>3.0</hdop>
			</trkpt>
			<trkpt lat="46.881608" lon="6.71351872">
				<ele>1084.7</ele>
				<time>2013-08-14T07:17:34Z</time>
				<hdop>3.0</hdop>
			</trkpt>
			<trkpt lat="46.88163652" lon="6.71357872">
				<ele>1085.5</ele>
				<time>2013-08-14T07:17:35Z</time>
				<hdop>3.0</hdop>
			</trkpt>
			<trkpt lat="46.88165768" lon="6.71360631">
				<ele>1084.8</ele>
				<time>2013-08-14T07:17:37Z</time>
				<hdop>3.0</hdop>
			</trkpt>
			<trkpt lat="46.88166506" lon="6.71360806">
				<ele>1084.3</ele>
				<time>2013-08-14T07:17:38Z</time>
				<hdop>3.0</hdop>
			</trkpt>
			<trkpt lat="46.88167624" lon="6.71360366">
				<ele>1085.2</ele>
				<time>2013-08-14T07:17:39Z</time>
				<hdop>3.0</hdop>
			</trkpt>
			<trkpt lat="46.88169637" lon="6.71359133">
				<ele>1086.0</ele>
				<time>2013-08-14T07:17:41Z</time>
				<hdop>3.0</hdop>
			</trkpt>
			<trkpt lat="46.88171351" lon="6.71358192">
				<ele>1085.8</ele>
				<time>2013-08-14T07:17:42Z</time>
				<hdop>3.0</hdop>
			</trkpt>
			<trkpt lat="46.88171351" lon="6.71358192">
				<ele>1085.8</ele>
				<time>2013-08-14T07:17:43Z</time>
				<hdop>3.0</hdop>
			</trkpt>
			<trkpt lat="46.88171907" lon="6.71356977">
				<ele>1086.3</ele>
				<time>2013-08-14T07:17:44Z</time>
				<hdop>3.0</hdop>
			</trkpt>
			<trkpt lat="46.88172584" lon="6.71356967">
				<ele>1086.4</ele>
				<time>2013-08-14T07:17:45Z</time>
				<hdop>3.0</hdop>
			</trkpt>
			<trkpt lat="46.88174277" lon="6.71357367">
				<ele>1086.8</ele>
				<time>2013-08-14T07:17:46Z</time>
				<hdop>3.0</hdop>
			</trkpt>
			<trkpt lat="46.88174795" lon="6.71358514">
				<ele>1087.1</ele>
				<time>2013-08-14T07:17:47Z</time>
				<hdop>3.0</hdop>
			</trkpt>
			<trkpt lat="46.88174956" lon="6.71359165">
				<ele>1087.1</ele>
				<time>2013-08-14T07:17:48Z</time>
				<hdop>3.0</hdop>
			</trkpt>
			<trkpt lat="46.8817502" lon="6.71359097">
				<ele>1087.2</ele>
				<time>2013-08-14T07:17:49Z</time>
				<hdop>3.0</hdop>
			</trkpt>
			<trkpt lat="46.88175076" lon="6.71359369">
				<ele>1087.2</ele>
				<time>2013-08-14T07:17:50Z</time>
				<hdop>3.0</hdop>
			</trkpt>
			<trkpt lat="46.88174925" lon="6.71359544">
				<ele>1087.2</ele>
				<time>2013-08-14T07:17:51Z</time>
				<hdop>3.0</hdop>
			</trkpt>
			<trkpt lat="46.8817489" lon="6.71359593">
				<ele>1087.2</ele>
				<time>2013-08-14T07:17:52Z</time>
				<hdop>3.0</hdop>
			</trkpt>
			<trkpt lat="46.88175001" lon="6.71359799">
				<ele>1087.3</ele>
				<time>2013-08-14T07:17:53Z</time>
				<hdop>3.0</hdop>
			</trkpt>
			<trkpt lat="46.88178468" lon="6.71361579">
				<ele>1087.4</ele>
				<time>2013-08-14T07:17:54Z</time>
				<hdop>3.0</hdop>
			</trkpt>
			<trkpt lat="46.8818399" lon="6.71362353">
				<ele>1086.9</ele>
				<time>2013-08-14T07:17:56Z</time>
				<hdop>3.0</hdop>
			</trkpt>
			<trkpt lat="46.88186107" lon="6.71360925">
				<ele>1086.6</ele>
				<time>2013-08-14T07:17:57Z</time>
				<hdop>3.0</hdop>
			</trkpt>
			<trkpt lat="46.88190124" lon="6.71360175">
				<ele>1086.0</ele>
				<time>2013-08-14T07:17:58Z</time>
				<hdop>3.0</hdop>
			</trkpt>
			<trkpt lat="46.8819565" lon="6.71358826">
				<ele>1084.4</ele>
				<time>2013-08-14T07:17:59Z</time>
				<hdop>3.0</hdop>
			</trkpt>
			<trkpt lat="46.88198908" lon="6.71357659">
				<ele>1086.1</ele>
				<time>2013-08-14T07:18:00Z</time>
				<hdop>3.0</hdop>
			</trkpt>
			<trkpt lat="46.8819945" lon="6.71358606">
				<ele>1086.7</ele>
				<time>2013-08-14T07:18:01Z</time>
				<hdop>3.0</hdop>
			</trkpt>
			<trkpt lat="46.88200561" lon="6.71359279">
				<ele>1087.3</ele>
				<time>2013-08-14T07:18:02Z</time>
				<hdop>3.0</hdop>
			</trkpt>
			<trkpt lat="46.88202183" lon="6.71358336">
				<ele>1087.1</ele>
				<time>2013-08-14T07:18:04Z</time>
				<hdop>3.0</hdop>
			</trkpt>
			<trkpt lat="46.88202641" lon="6.71359352">
				<ele>1087.6</ele>
				<time>2013-08-14T07:18:05Z</time>
				<hdop>4.0</hdop>
			</trkpt>
			<trkpt lat="46.8820356" lon="6.71358796">
				<ele>1087.5</ele>
				<time>2013-08-14T07:18:06Z</time>
				<hdop>3.0</hdop>
			</trkpt>
			<trkpt lat="46.88204341" lon="6.71358864">
				<ele>1088.2</ele>
				<time>2013-08-14T07:18:07Z</time>
				<hdop>3.0</hdop>
			</trkpt>
			<trkpt lat="46.88205925" lon="6.71358373">
				<ele>1087.5</ele>
				<time>2013-08-14T07:18:08Z</time>
				<hdop>3.0</hdop>
			</trkpt>
			<trkpt lat="46.88206772" lon="6.71357427">
				<ele>1087.4</ele>
				<time>2013-08-14T07:18:09Z</time>
				<hdop>3.0</hdop>
			</trkpt>
			<trkpt lat="46.88206772" lon="6.71357427">
				<ele>1087.4</ele>
				<time>2013-08-14T07:18:10Z</time>
				<hdop>3.0</hdop>
			</trkpt>
			<trkpt lat="46.88207414" lon="6.71357336">
				<ele>1086.9</ele>
				<time>2013-08-14T07:18:11Z</time>
				<hdop>3.0</hdop>
			</trkpt>
			<trkpt lat="46.8820779" lon="6.71357213">
				<ele>1086.0</ele>
				<time>2013-08-14T07:18:12Z</time>
				<hdop>3.0</hdop>
			</trkpt>
			<trkpt lat="46.882082" lon="6.71357169">
				<ele>1086.0</ele>
				<time>2013-08-14T07:18:14Z</time>
				<hdop>3.0</hdop>
			</trkpt>
			<trkpt lat="46.88208383" lon="6.71357128">
				<ele>1085.9</ele>
				<time>2013-08-14T07:18:15Z</time>
				<hdop>3.0</hdop>
			</trkpt>
			<trkpt lat="46.88208416" lon="6.71357187">
				<ele>1085.9</ele>
				<time>2013-08-14T07:18:17Z</time>
				<hdop>3.0</hdop>
			</trkpt>
			<trkpt lat="46.88208439" lon="6.7135732">
				<ele>1086.2</ele>
				<time>2013-08-14T07:18:18Z</time>
				<hdop>3.0</hdop>
			</trkpt>
			<trkpt lat="46.88208445" lon="6.71357352">
				<ele>1086.3</ele>
				<time>2013-08-14T07:18:19Z</time>
				<hdop>3.0</hdop>
			</trkpt>
			<trkpt lat="46.88208478" lon="6.71357347">
				<ele>1086.3</ele>
				<time>2013-08-14T07:18:20Z</time>
				<hdop>3.0</hdop>
			</trkpt>
			<trkpt lat="46.88208504" lon="6.7135738">
				<ele>1086.3</ele>
				<time>2013-08-14T07:18:21Z</time>
				<hdop>4.0</hdop>
			</trkpt>
			<trkpt lat="46.88209474" lon="6.71357309">
				<ele>1086.1</ele>
				<time>2013-08-14T07:18:23Z</time>
				<hdop>3.0</hdop>
			</trkpt>
			<trkpt lat="46.88212163" lon="6.71359659">
				<ele>1086.4</ele>
				<time>2013-08-14T07:18:24Z</time>
				<hdop>3.0</hdop>
			</trkpt>
			<trkpt lat="46.88215169" lon="6.7136223">
				<ele>1086.2</ele>
				<time>2013-08-14T07:18:26Z</time>
				<hdop>4.0</hdop>
			</trkpt>
			<trkpt lat="46.88222213" lon="6.71365764">
				<ele>1079.8</ele>
				<time>2013-08-14T07:18:27Z</time>
				<hdop>6.0</hdop>
			</trkpt>
			<trkpt lat="46.88227551" lon="6.71368104">
				<ele>1081.2</ele>
				<time>2013-08-14T07:18:28Z</time>
				<hdop>6.0</hdop>
			</trkpt>
			<trkpt lat="46.88228294" lon="6.71368541">
				<ele>1080.9</ele>
				<time>2013-08-14T07:18:29Z</time>
				<hdop>6.0</hdop>
			</trkpt>
			<trkpt lat="46.88239028" lon="6.71355293">
				<ele>1081.5</ele>
				<time>2013-08-14T07:18:30Z</time>
				<hdop>4.0</hdop>
			</trkpt>
			<trkpt lat="46.8824144" lon="6.71357704">
				<ele>1082.1</ele>
				<time>2013-08-14T07:18:32Z</time>
				<hdop>4.0</hdop>
			</trkpt>
			<trkpt lat="46.88241696" lon="6.71358474">
				<ele>1082.4</ele>
				<time>2013-08-14T07:18:33Z</time>
				<hdop>4.0</hdop>
			</trkpt>
			<trkpt lat="46.8824141" lon="6.71359227">
				<ele>1082.9</ele>
				<time>2013-08-14T07:18:35Z</time>
				<hdop>4.0</hdop>
			</trkpt>
			<trkpt lat="46.88242003" lon="6.71358553">
				<ele>1083.4</ele>
				<time>2013-08-14T07:18:36Z</time>
				<hdop>4.0</hdop>
			</trkpt>
			<trkpt lat="46.88242153" lon="6.71359826">
				<ele>1083.4</ele>
				<time>2013-08-14T07:18:37Z</time>
				<hdop>3.0</hdop>
			</trkpt>
			<trkpt lat="46.88243147" lon="6.7135996">
				<ele>1083.1</ele>
				<time>2013-08-14T07:18:38Z</time>
				<hdop>3.0</hdop>
			</trkpt>
			<trkpt lat="46.8824442" lon="6.71359829">
				<ele>1081.4</ele>
				<time>2013-08-14T07:18:39Z</time>
				<hdop>3.0</hdop>
			</trkpt>
			<trkpt lat="46.88244778" lon="6.71360908">
				<ele>1081.7</ele>
				<time>2013-08-14T07:18:41Z</time>
				<hdop>4.0</hdop>
			</trkpt>
			<trkpt lat="46.88245326" lon="6.71360671">
				<ele>1081.9</ele>
				<time>2013-08-14T07:18:42Z</time>
				<hdop>4.0</hdop>
			</trkpt>
			<trkpt lat="46.88245394" lon="6.71360562">
				<ele>1081.8</ele>
				<time>2013-08-14T07:18:43Z</time>
				<hdop>3.0</hdop>
			</trkpt>
			<trkpt lat="46.88245493" lon="6.71360438">
				<ele>1081.6</ele>
				<time>2013-08-14T07:18:44Z</time>
				<hdop>3.0</hdop>
			</trkpt>
			<trkpt lat="46.88245545" lon="6.71360362">
				<ele>1081.5</ele>
				<time>2013-08-14T07:18:45Z</time>
				<hdop>3.0</hdop>
			</trkpt>
			<trkpt lat="46.88245593" lon="6.71360321">
				<ele>1081.5</ele>
				<time>2013-08-14T07:18:46Z</time>
				<hdop>3.0</hdop>
			</trkpt>
			<trkpt lat="46.8824549" lon="6.71360504">
				<ele>1081.6</ele>
				<time>2013-08-14T07:18:48Z</time>
				<hdop>3.0</hdop>
			</trkpt>
			<trkpt lat="46.88245347" lon="6.71360618">
				<ele>1081.7</ele>
				<time>2013-08-14T07:18:49Z</time>
				<hdop>3.0</hdop>
			</trkpt>
			<trkpt lat="46.88245262" lon="6.71360668">
				<ele>1081.6</ele>
				<time>2013-08-14T07:18:50Z</time>
				<hdop>3.0</hdop>
			</trkpt>
			<trkpt lat="46.88245218" lon="6.71360686">
				<ele>1081.6</ele>
				<time>2013-08-14T07:18:51Z</time>
				<hdop>3.0</hdop>
			</trkpt>
			<trkpt lat="46.88245257" lon="6.71360602">
				<ele>1081.5</ele>
				<time>2013-08-14T07:18:52Z</time>
				<hdop>3.0</hdop>
			</trkpt>
			<trkpt lat="46.88245278" lon="6.7136057">
				<ele>1081.5</ele>
				<time>2013-08-14T07:18:53Z</time>
				<hdop>3.0</hdop>
			</trkpt>
			<trkpt lat="46.88245278" lon="6.7136057">
				<ele>1081.5</ele>
				<time>2013-08-14T07:18:54Z</time>
				<hdop>3.0</hdop>
			</trkpt>
			<trkpt lat="46.88245296" lon="6.71360553">
				<ele>1081.5</ele>
				<time>2013-08-14T07:18:55Z</time>
				<hdop>3.0</hdop>
			</trkpt>
			<trkpt lat="46.88245577" lon="6.7136044">
				<ele>1081.6</ele>
				<time>2013-08-14T07:18:56Z</time>
				<hdop>3.0</hdop>
			</trkpt>
			<trkpt lat="46.88256039" lon="6.71352184">
				<ele>1082.3</ele>
				<time>2013-08-14T07:18:57Z</time>
				<hdop>3.0</hdop>
			</trkpt>
			<trkpt lat="46.88268373" lon="6.71342077">
				<ele>1083.3</ele>
				<time>2013-08-14T07:18:59Z</time>
				<hdop>4.0</hdop>
			</trkpt>
			<trkpt lat="46.88270236" lon="6.71340084">
				<ele>1082.9</ele>
				<time>2013-08-14T07:19:00Z</time>
				<hdop>4.0</hdop>
			</trkpt>
			<trkpt lat="46.88272851" lon="6.71338332">
				<ele>1082.5</ele>
				<time>2013-08-14T07:19:01Z</time>
				<hdop>4.0</hdop>
			</trkpt>
			<trkpt lat="46.88278446" lon="6.71332893">
				<ele>1082.3</ele>
				<time>2013-08-14T07:19:02Z</time>
				<hdop>4.0</hdop>
			</trkpt>
			<trkpt lat="46.8828168" lon="6.71332007">
				<ele>1082.3</ele>
				<time>2013-08-14T07:19:03Z</time>
				<hdop>6.0</hdop>
			</trkpt>
			<trkpt lat="46.88283858" lon="6.7133024">
				<ele>1082.4</ele>
				<time>2013-08-14T07:19:04Z</time>
				<hdop>6.0</hdop>
			</trkpt>
			<trkpt lat="46.88285592" lon="6.71328218">
				<ele>1082.1</ele>
				<time>2013-08-14T07:19:05Z</time>
				<hdop>6.0</hdop>
			</trkpt>
			<trkpt lat="46.88283144" lon="6.7133325">
				<ele>1081.8</ele>
				<time>2013-08-14T07:19:06Z</time>
				<hdop>6.0</hdop>
			</trkpt>
			<trkpt lat="46.88283777" lon="6.71332992">
				<ele>1081.4</ele>
				<time>2013-08-14T07:19:07Z</time>
				<hdop>4.0</hdop>
			</trkpt>
			<trkpt lat="46.88285863" lon="6.71332711">
				<ele>1082.2</ele>
				<time>2013-08-14T07:19:08Z</time>
				<hdop>4.0</hdop>
			</trkpt>
			<trkpt lat="46.8828792" lon="6.71332492">
				<ele>1083.2</ele>
				<time>2013-08-14T07:19:09Z</time>
				<hdop>4.0</hdop>
			</trkpt>
			<trkpt lat="46.88290517" lon="6.71329065">
				<ele>1081.4</ele>
				<time>2013-08-14T07:19:10Z</time>
				<hdop>3.0</hdop>
			</trkpt>
			<trkpt lat="46.88290985" lon="6.71327879">
				<ele>1080.1</ele>
				<time>2013-08-14T07:19:11Z</time>
				<hdop>4.0</hdop>
			</trkpt>
			<trkpt lat="46.88290837" lon="6.7132902">
				<ele>1080.2</ele>
				<time>2013-08-14T07:19:13Z</time>
				<hdop>4.0</hdop>
			</trkpt>
			<trkpt lat="46.88291005" lon="6.71328525">
				<ele>1080.2</ele>
				<time>2013-08-14T07:19:15Z</time>
				<hdop>4.0</hdop>
			</trkpt>
			<trkpt lat="46.88290849" lon="6.71329051">
				<ele>1080.2</ele>
				<time>2013-08-14T07:19:16Z</time>
				<hdop>4.0</hdop>
			</trkpt>
			<trkpt lat="46.88290743" lon="6.71329168">
				<ele>1080.0</ele>
				<time>2013-08-14T07:19:17Z</time>
				<hdop>4.0</hdop>
			</trkpt>
			<trkpt lat="46.88291184" lon="6.71329589">
				<ele>1080.0</ele>
				<time>2013-08-14T07:19:18Z</time>
				<hdop>6.0</hdop>
			</trkpt>
			<trkpt lat="46.88292806" lon="6.71327922">
				<ele>1078.5</ele>
				<time>2013-08-14T07:19:19Z</time>
				<hdop>6.0</hdop>
			</trkpt>
			<trkpt lat="46.88294321" lon="6.71326919">
				<ele>1078.9</ele>
				<time>2013-08-14T07:19:20Z</time>
				<hdop>6.0</hdop>
			</trkpt>
			<trkpt lat="46.88294513" lon="6.71326954">
				<ele>1078.6</ele>
				<time>2013-08-14T07:19:22Z</time>
				<hdop>6.0</hdop>
			</trkpt>
			<trkpt lat="46.88294618" lon="6.71327089">
				<ele>1078.7</ele>
				<time>2013-08-14T07:19:23Z</time>
				<hdop>4.0</hdop>
			</trkpt>
			<trkpt lat="46.88294793" lon="6.71327171">
				<ele>1078.6</ele>
				<time>2013-08-14T07:19:24Z</time>
				<hdop>4.0</hdop>
			</trkpt>
			<trkpt lat="46.88294864" lon="6.71327313">
				<ele>1078.7</ele>
				<time>2013-08-14T07:19:25Z</time>
				<hdop>4.0</hdop>
			</trkpt>
			<trkpt lat="46.88294831" lon="6.71327439">
				<ele>1078.8</ele>
				<time>2013-08-14T07:19:27Z</time>
				<hdop>4.0</hdop>
			</trkpt>
			<trkpt lat="46.88294786" lon="6.71327484">
				<ele>1078.8</ele>
				<time>2013-08-14T07:19:28Z</time>
				<hdop>4.0</hdop>
			</trkpt>
			<trkpt lat="46.88294575" lon="6.71327703">
				<ele>1078.9</ele>
				<time>2013-08-14T07:19:30Z</time>
				<hdop>4.0</hdop>
			</trkpt>
			<trkpt lat="46.88294526" lon="6.71327707">
				<ele>1078.8</ele>
				<time>2013-08-14T07:19:31Z</time>
				<hdop>4.0</hdop>
			</trkpt>
			<trkpt lat="46.88294524" lon="6.71327733">
				<ele>1078.8</ele>
				<time>2013-08-14T07:19:33Z</time>
				<hdop>4.0</hdop>
			</trkpt>
			<trkpt lat="46.88294529" lon="6.71327688">
				<ele>1078.8</ele>
				<time>2013-08-14T07:19:34Z</time>
				<hdop>4.0</hdop>
			</trkpt>
			<trkpt lat="46.88294559" lon="6.71327719">
				<ele>1078.8</ele>
				<time>2013-08-14T07:19:35Z</time>
				<hdop>4.0</hdop>
			</trkpt>
			<trkpt lat="46.88294582" lon="6.71327799">
				<ele>1078.9</ele>
				<time>2013-08-14T07:19:36Z</time>
				<hdop>4.0</hdop>
			</trkpt>
			<trkpt lat="46.88294633" lon="6.71327817">
				<ele>1079.0</ele>
				<time>2013-08-14T07:19:37Z</time>
				<hdop>4.0</hdop>
			</trkpt>
			<trkpt lat="46.88294644" lon="6.7132779">
				<ele>1078.9</ele>
				<time>2013-08-14T07:19:39Z</time>
				<hdop>4.0</hdop>
			</trkpt>
			<trkpt lat="46.88294659" lon="6.71327769">
				<ele>1078.9</ele>
				<time>2013-08-14T07:19:40Z</time>
				<hdop>3.0</hdop>
			</trkpt>
			<trkpt lat="46.88301241" lon="6.71324628">
				<ele>1079.4</ele>
				<time>2013-08-14T07:19:42Z</time>
				<hdop>3.0</hdop>
			</trkpt>
			<trkpt lat="46.88308884" lon="6.71323493">
				<ele>1078.6</ele>
				<time>2013-08-14T07:19:44Z</time>
				<hdop>3.0</hdop>
			</trkpt>
			<trkpt lat="46.88320253" lon="6.71318291">
				<ele>1075.4</ele>
				<time>2013-08-14T07:19:46Z</time>
				<hdop>2.0</hdop>
			</trkpt>
			<trkpt lat="46.88323218" lon="6.71315728">
				<ele>1075.5</ele>
				<time>2013-08-14T07:19:47Z</time>
				<hdop>2.0</hdop>
			</trkpt>
			<trkpt lat="46.88325898" lon="6.71315062">
				<ele>1074.8</ele>
				<time>2013-08-14T07:19:48Z</time>
				<hdop>3.0</hdop>
			</trkpt>
			<trkpt lat="46.88328838" lon="6.71312799">
				<ele>1076.2</ele>
				<time>2013-08-14T07:19:49Z</time>
				<hdop>3.0</hdop>
			</trkpt>
			<trkpt lat="46.8833165" lon="6.71312042">
				<ele>1076.1</ele>
				<time>2013-08-14T07:19:50Z</time>
				<hdop>3.0</hdop>
			</trkpt>
			<trkpt lat="46.8833688" lon="6.71306082">
				<ele>1075.9</ele>
				<time>2013-08-14T07:19:52Z</time>
				<hdop>3.0</hdop>
			</trkpt>
			<trkpt lat="46.88340153" lon="6.71301651">
				<ele>1075.0</ele>
				<time>2013-08-14T07:19:54Z</time>
				<hdop>3.0</hdop>
			</trkpt>
			<trkpt lat="46.88341853" lon="6.7129933">
				<ele>1074.5</ele>
				<time>2013-08-14T07:19:55Z</time>
				<hdop>3.0</hdop>
			</trkpt>
			<trkpt lat="46.88344931" lon="6.71296217">
				<ele>1073.4</ele>
				<time>2013-08-14T07:19:56Z</time>
				<hdop>3.0</hdop>
			</trkpt>
			<trkpt lat="46.88346302" lon="6.7129456">
				<ele>1073.6</ele>
				<time>2013-08-14T07:19:57Z</time>
				<hdop>3.0</hdop>
			</trkpt>
			<trkpt lat="46.88347703" lon="6.71293584">
				<ele>1074.0</ele>
				<time>2013-08-14T07:19:58Z</time>
				<hdop>3.0</hdop>
			</trkpt>
			<trkpt lat="46.88350284" lon="6.7129189">
				<ele>1074.2</ele>
				<time>2013-08-14T07:19:59Z</time>
				<hdop>3.0</hdop>
			</trkpt>
			<trkpt lat="46.88350364" lon="6.7129025">
				<ele>1074.3</ele>
				<time>2013-08-14T07:20:00Z</time>
				<hdop>3.0</hdop>
			</trkpt>
			<trkpt lat="46.88350824" lon="6.71292022">
				<ele>1073.9</ele>
				<time>2013-08-14T07:20:01Z</time>
				<hdop>2.0</hdop>
			</trkpt>
			<trkpt lat="46.88352894" lon="6.71291066">
				<ele>1074.2</ele>
				<time>2013-08-14T07:20:02Z</time>
				<hdop>2.0</hdop>
			</trkpt>
			<trkpt lat="46.88354561" lon="6.71287642">
				<ele>1073.7</ele>
				<time>2013-08-14T07:20:03Z</time>
				<hdop>2.0</hdop>
			</trkpt>
			<trkpt lat="46.88355102" lon="6.71287821">
				<ele>1073.8</ele>
				<time>2013-08-14T07:20:04Z</time>
				<hdop>1.5</hdop>
			</trkpt>
			<trkpt lat="46.88357298" lon="6.71287798">
				<ele>1072.3</ele>
				<time>2013-08-14T07:20:05Z</time>
				<hdop>1.5</hdop>
			</trkpt>
			<trkpt lat="46.88357459" lon="6.71287259">
				<ele>1072.3</ele>
				<time>2013-08-14T07:20:06Z</time>
				<hdop>1.5</hdop>
			</trkpt>
			<trkpt lat="46.88359072" lon="6.71286444">
				<ele>1071.3</ele>
				<time>2013-08-14T07:20:07Z</time>
				<hdop>1.5</hdop>
			</trkpt>
			<trkpt lat="46.8836068" lon="6.71286394">
				<ele>1069.3</ele>
				<time>2013-08-14T07:20:08Z</time>
				<hdop>2.0</hdop>
			</trkpt>
			<trkpt lat="46.88359849" lon="6.71287873">
				<ele>1069.2</ele>
				<time>2013-08-14T07:20:09Z</time>
				<hdop>2.0</hdop>
			</trkpt>
			<trkpt lat="46.88356993" lon="6.71287756">
				<ele>1069.5</ele>
				<time>2013-08-14T07:20:11Z</time>
				<hdop>2.0</hdop>
			</trkpt>
			<trkpt lat="46.88357792" lon="6.71287064">
				<ele>1069.0</ele>
				<time>2013-08-14T07:20:12Z</time>
				<hdop>2.0</hdop>
			</trkpt>
			<trkpt lat="46.88359251" lon="6.7128328">
				<ele>1068.5</ele>
				<time>2013-08-14T07:20:13Z</time>
				<hdop>2.0</hdop>
			</trkpt>
			<trkpt lat="46.88361917" lon="6.71278831">
				<ele>1068.9</ele>
				<time>2013-08-14T07:20:14Z</time>
				<hdop>2.0</hdop>
			</trkpt>
			<trkpt lat="46.88362612" lon="6.71277694">
				<ele>1069.4</ele>
				<time>2013-08-14T07:20:15Z</time>
				<hdop>3.0</hdop>
			</trkpt>
			<trkpt lat="46.88361988" lon="6.71278123">
				<ele>1070.5</ele>
				<time>2013-08-14T07:20:16Z</time>
				<hdop>3.0</hdop>
			</trkpt>
			<trkpt lat="46.88361667" lon="6.7127624">
				<ele>1069.9</ele>
				<time>2013-08-14T07:20:17Z</time>
				<hdop>3.0</hdop>
			</trkpt>
			<trkpt lat="46.88363532" lon="6.71273945">
				<ele>1070.2</ele>
				<time>2013-08-14T07:20:18Z</time>
				<hdop>3.0</hdop>
			</trkpt>
			<trkpt lat="46.88363507" lon="6.7127203">
				<ele>1070.3</ele>
				<time>2013-08-14T07:20:19Z</time>
				<hdop>3.0</hdop>
			</trkpt>
			<trkpt lat="46.88365396" lon="6.71271883">
				<ele>1070.6</ele>
				<time>2013-08-14T07:20:20Z</time>
				<hdop>3.0</hdop>
			</trkpt>
			<trkpt lat="46.88367079" lon="6.71270449">
				<ele>1070.2</ele>
				<time>2013-08-14T07:20:21Z</time>
				<hdop>2.0</hdop>
			</trkpt>
			<trkpt lat="46.88368306" lon="6.71269486">
				<ele>1071.4</ele>
				<time>2013-08-14T07:20:22Z</time>
				<hdop>2.0</hdop>
			</trkpt>
			<trkpt lat="46.88370414" lon="6.71265099">
				<ele>1070.3</ele>
				<time>2013-08-14T07:20:23Z</time>
				<hdop>2.0</hdop>
			</trkpt>
			<trkpt lat="46.88369605" lon="6.71265189">
				<ele>1070.2</ele>
				<time>2013-08-14T07:20:24Z</time>
				<hdop>2.0</hdop>
			</trkpt>
			<trkpt lat="46.88370679" lon="6.71264605">
				<ele>1070.6</ele>
				<time>2013-08-14T07:20:25Z</time>
				<hdop>2.0</hdop>
			</trkpt>
			<trkpt lat="46.88371395" lon="6.71262514">
				<ele>1070.3</ele>
				<time>2013-08-14T07:20:26Z</time>
				<hdop>2.0</hdop>
			</trkpt>
			<trkpt lat="46.88371713" lon="6.71262535">
				<ele>1070.2</ele>
				<time>2013-08-14T07:20:28Z</time>
				<hdop>2.0</hdop>
			</trkpt>
			<trkpt lat="46.8837237" lon="6.7125975">
				<ele>1070.1</ele>
				<time>2013-08-14T07:20:29Z</time>
				<hdop>1.5</hdop>
			</trkpt>
			<trkpt lat="46.88373348" lon="6.71256451">
				<ele>1070.2</ele>
				<time>2013-08-14T07:20:30Z</time>
				<hdop>2.0</hdop>
			</trkpt>
			<trkpt lat="46.88375454" lon="6.71254171">
				<ele>1070.3</ele>
				<time>2013-08-14T07:20:31Z</time>
				<hdop>2.0</hdop>
			</trkpt>
			<trkpt lat="46.88376048" lon="6.71254107">
				<ele>1070.0</ele>
				<time>2013-08-14T07:20:32Z</time>
				<hdop>2.0</hdop>
			</trkpt>
			<trkpt lat="46.883775" lon="6.71252162">
				<ele>1070.0</ele>
				<time>2013-08-14T07:20:33Z</time>
				<hdop>2.0</hdop>
			</trkpt>
			<trkpt lat="46.88377191" lon="6.71251654">
				<ele>1069.1</ele>
				<time>2013-08-14T07:20:34Z</time>
				<hdop>2.0</hdop>
			</trkpt>
			<trkpt lat="46.88378718" lon="6.71249595">
				<ele>1068.7</ele>
				<time>2013-08-14T07:20:35Z</time>
				<hdop>2.0</hdop>
			</trkpt>
			<trkpt lat="46.88379092" lon="6.71247898">
				<ele>1068.2</ele>
				<time>2013-08-14T07:20:36Z</time>
				<hdop>1.5</hdop>
			</trkpt>
			<trkpt lat="46.88382056" lon="6.7124601">
				<ele>1069.0</ele>
				<time>2013-08-14T07:20:37Z</time>
				<hdop>2.0</hdop>
			</trkpt>
			<trkpt lat="46.88383037" lon="6.71245198">
				<ele>1069.1</ele>
				<time>2013-08-14T07:20:38Z</time>
				<hdop>3.0</hdop>
			</trkpt>
			<trkpt lat="46.8838313" lon="6.71243553">
				<ele>1068.4</ele>
				<time>2013-08-14T07:20:39Z</time>
				<hdop>2.0</hdop>
			</trkpt>
			<trkpt lat="46.88384369" lon="6.71239572">
				<ele>1068.2</ele>
				<time>2013-08-14T07:20:41Z</time>
				<hdop>3.0</hdop>
			</trkpt>
			<trkpt lat="46.88387666" lon="6.71237099">
				<ele>1068.3</ele>
				<time>2013-08-14T07:20:42Z</time>
				<hdop>3.0</hdop>
			</trkpt>
			<trkpt lat="46.88387636" lon="6.71235343">
				<ele>1067.2</ele>
				<time>2013-08-14T07:20:43Z</time>
				<hdop>3.0</hdop>
			</trkpt>
			<trkpt lat="46.88388128" lon="6.71231302">
				<ele>1064.0</ele>
				<time>2013-08-14T07:20:44Z</time>
				<hdop>3.0</hdop>
			</trkpt>
			<trkpt lat="46.88388754" lon="6.71228515">
				<ele>1063.4</ele>
				<time>2013-08-14T07:20:45Z</time>
				<hdop>3.0</hdop>
			</trkpt>
			<trkpt lat="46.88386909" lon="6.71229232">
				<ele>1063.8</ele>
				<time>2013-08-14T07:20:47Z</time>
				<hdop>3.0</hdop>
			</trkpt>
			<trkpt lat="46.88387505" lon="6.71227894">
				<ele>1064.4</ele>
				<time>2013-08-14T07:20:48Z</time>
				<hdop>3.0</hdop>
			</trkpt>
			<trkpt lat="46.88388108" lon="6.71227173">
				<ele>1065.4</ele>
				<time>2013-08-14T07:20:49Z</time>
				<hdop>3.0</hdop>
			</trkpt>
			<trkpt lat="46.88388546" lon="6.71225175">
				<ele>1065.3</ele>
				<time>2013-08-14T07:20:50Z</time>
				<hdop>3.0</hdop>
			</trkpt>
			<trkpt lat="46.88388861" lon="6.71225645">
				<ele>1065.2</ele>
				<time>2013-08-14T07:20:51Z</time>
				<hdop>3.0</hdop>
			</trkpt>
			<trkpt lat="46.88389943" lon="6.71224365">
				<ele>1064.9</ele>
				<time>2013-08-14T07:20:52Z</time>
				<hdop>2.0</hdop>
			</trkpt>
			<trkpt lat="46.88390765" lon="6.71223412">
				<ele>1065.3</ele>
				<time>2013-08-14T07:20:53Z</time>
				<hdop>2.0</hdop>
			</trkpt>
			<trkpt lat="46.88392418" lon="6.71221481">
				<ele>1064.9</ele>
				<time>2013-08-14T07:20:54Z</time>
				<hdop>2.0</hdop>
			</trkpt>
			<trkpt lat="46.88394745" lon="6.71221331">
				<ele>1065.3</ele>
				<time>2013-08-14T07:20:55Z</time>
				<hdop>2.0</hdop>
			</trkpt>
			<trkpt lat="46.88398257" lon="6.71218198">
				<ele>1065.6</ele>
				<time>2013-08-14T07:20:57Z</time>
				<hdop>3.0</hdop>
			</trkpt>
			<trkpt lat="46.8840107" lon="6.7121627">
				<ele>1064.5</ele>
				<time>2013-08-14T07:20:58Z</time>
				<hdop>2.0</hdop>
			</trkpt>
			<trkpt lat="46.88400951" lon="6.71217817">
				<ele>1065.2</ele>
				<time>2013-08-14T07:20:59Z</time>
				<hdop>3.0</hdop>
			</trkpt>
			<trkpt lat="46.88403711" lon="6.71216585">
				<ele>1063.6</ele>
				<time>2013-08-14T07:21:00Z</time>
				<hdop>3.0</hdop>
			</trkpt>
			<trkpt lat="46.88404689" lon="6.71214025">
				<ele>1063.4</ele>
				<time>2013-08-14T07:21:01Z</time>
				<hdop>3.0</hdop>
			</trkpt>
			<trkpt lat="46.88405332" lon="6.7121053">
				<ele>1062.1</ele>
				<time>2013-08-14T07:21:02Z</time>
				<hdop>4.0</hdop>
			</trkpt>
			<trkpt lat="46.88409518" lon="6.71209215">
				<ele>1061.4</ele>
				<time>2013-08-14T07:21:03Z</time>
				<hdop>3.0</hdop>
			</trkpt>
			<trkpt lat="46.88407949" lon="6.71212027">
				<ele>1062.8</ele>
				<time>2013-08-14T07:21:04Z</time>
				<hdop>4.0</hdop>
			</trkpt>
			<trkpt lat="46.88404373" lon="6.7121176">
				<ele>1063.9</ele>
				<time>2013-08-14T07:21:06Z</time>
				<hdop>3.0</hdop>
			</trkpt>
			<trkpt lat="46.88406436" lon="6.71206276">
				<ele>1061.9</ele>
				<time>2013-08-14T07:21:08Z</time>
				<hdop>3.0</hdop>
			</trkpt>
			<trkpt lat="46.88407516" lon="6.71203269">
				<ele>1061.4</ele>
				<time>2013-08-14T07:21:09Z</time>
				<hdop>3.0</hdop>
			</trkpt>
			<trkpt lat="46.88407875" lon="6.71202541">
				<ele>1061.4</ele>
				<time>2013-08-14T07:21:10Z</time>
				<hdop>3.0</hdop>
			</trkpt>
			<trkpt lat="46.88410116" lon="6.71199291">
				<ele>1060.0</ele>
				<time>2013-08-14T07:21:11Z</time>
				<hdop>3.0</hdop>
			</trkpt>
			<trkpt lat="46.88410019" lon="6.7119947">
				<ele>1059.5</ele>
				<time>2013-08-14T07:21:12Z</time>
				<hdop>3.0</hdop>
			</trkpt>
			<trkpt lat="46.88414738" lon="6.71196517">
				<ele>1059.5</ele>
				<time>2013-08-14T07:21:13Z</time>
				<hdop>3.0</hdop>
			</trkpt>
			<trkpt lat="46.8841136" lon="6.71195805">
				<ele>1057.3</ele>
				<time>2013-08-14T07:21:14Z</time>
				<hdop>4.0</hdop>
			</trkpt>
			<trkpt lat="46.88410988" lon="6.71193335">
				<ele>1056.8</ele>
				<time>2013-08-14T07:21:15Z</time>
				<hdop>3.0</hdop>
			</trkpt>
			<trkpt lat="46.88412877" lon="6.7118918">
				<ele>1055.0</ele>
				<time>2013-08-14T07:21:17Z</time>
				<hdop>4.0</hdop>
			</trkpt>
			<trkpt lat="46.88414886" lon="6.71189776">
				<ele>1054.7</ele>
				<time>2013-08-14T07:21:18Z</time>
				<hdop>4.0</hdop>
			</trkpt>
			<trkpt lat="46.88417725" lon="6.71184889">
				<ele>1054.7</ele>
				<time>2013-08-14T07:21:19Z</time>
				<hdop>4.0</hdop>
			</trkpt>
			<trkpt lat="46.88418578" lon="6.71183936">
				<ele>1054.6</ele>
				<time>2013-08-14T07:21:20Z</time>
				<hdop>3.0</hdop>
			</trkpt>
			<trkpt lat="46.88419332" lon="6.7118185">
				<ele>1054.3</ele>
				<time>2013-08-14T07:21:21Z</time>
				<hdop>3.0</hdop>
			</trkpt>
			<trkpt lat="46.88420579" lon="6.71179163">
				<ele>1054.5</ele>
				<time>2013-08-14T07:21:22Z</time>
				<hdop>3.0</hdop>
			</trkpt>
			<trkpt lat="46.88426938" lon="6.71172187">
				<ele>1054.4</ele>
				<time>2013-08-14T07:21:24Z</time>
				<hdop>3.0</hdop>
			</trkpt>
			<trkpt lat="46.88428276" lon="6.71171243">
				<ele>1054.4</ele>
				<time>2013-08-14T07:21:25Z</time>
				<hdop>3.0</hdop>
			</trkpt>
			<trkpt lat="46.88429292" lon="6.71168802">
				<ele>1055.0</ele>
				<time>2013-08-14T07:21:26Z</time>
				<hdop>3.0</hdop>
			</trkpt>
			<trkpt lat="46.88429175" lon="6.71170105">
				<ele>1055.0</ele>
				<time>2013-08-14T07:21:27Z</time>
				<hdop>3.0</hdop>
			</trkpt>
			<trkpt lat="46.88429504" lon="6.71166433">
				<ele>1055.4</ele>
				<time>2013-08-14T07:21:28Z</time>
				<hdop>3.0</hdop>
			</trkpt>
			<trkpt lat="46.88427629" lon="6.71165573">
				<ele>1055.6</ele>
				<time>2013-08-14T07:21:29Z</time>
				<hdop>3.0</hdop>
			</trkpt>
			<trkpt lat="46.88428972" lon="6.71163786">
				<ele>1055.7</ele>
				<time>2013-08-14T07:21:30Z</time>
				<hdop>3.0</hdop>
			</trkpt>
			<trkpt lat="46.88430689" lon="6.71164827">
				<ele>1055.6</ele>
				<time>2013-08-14T07:21:32Z</time>
				<hdop>4.0</hdop>
			</trkpt>
			<trkpt lat="46.88433066" lon="6.71159472">
				<ele>1055.3</ele>
				<time>2013-08-14T07:21:33Z</time>
				<hdop>4.0</hdop>
			</trkpt>
			<trkpt lat="46.88434778" lon="6.71157126">
				<ele>1055.3</ele>
				<time>2013-08-14T07:21:34Z</time>
				<hdop>4.0</hdop>
			</trkpt>
			<trkpt lat="46.88436115" lon="6.71155901">
				<ele>1054.7</ele>
				<time>2013-08-14T07:21:36Z</time>
				<hdop>4.0</hdop>
			</trkpt>
			<trkpt lat="46.88437165" lon="6.71153372">
				<ele>1055.3</ele>
				<time>2013-08-14T07:21:37Z</time>
				<hdop>4.0</hdop>
			</trkpt>
			<trkpt lat="46.8843886" lon="6.71150826">
				<ele>1055.1</ele>
				<time>2013-08-14T07:21:38Z</time>
				<hdop>4.0</hdop>
			</trkpt>
			<trkpt lat="46.8843977" lon="6.71149697">
				<ele>1055.3</ele>
				<time>2013-08-14T07:21:39Z</time>
				<hdop>6.0</hdop>
			</trkpt>
			<trkpt lat="46.88441759" lon="6.71148733">
				<ele>1054.7</ele>
				<time>2013-08-14T07:21:40Z</time>
				<hdop>6.0</hdop>
			</trkpt>
			<trkpt lat="46.88443797" lon="6.711464">
				<ele>1055.1</ele>
				<time>2013-08-14T07:21:41Z</time>
				<hdop>6.0</hdop>
			</trkpt>
			<trkpt lat="46.88445025" lon="6.71145805">
				<ele>1055.0</ele>
				<time>2013-08-14T07:21:42Z</time>
				<hdop>6.0</hdop>
			</trkpt>
			<trkpt lat="46.88446512" lon="6.71140937">
				<ele>1055.5</ele>
				<time>2013-08-14T07:21:43Z</time>
				<hdop>6.0</hdop>
			</trkpt>
			<trkpt lat="46.88443363" lon="6.71142064">
				<ele>1055.6</ele>
				<time>2013-08-14T07:21:44Z</time>
				<hdop>6.0</hdop>
			</trkpt>
			<trkpt lat="46.88441779" lon="6.7114275">
				<ele>1055.8</ele>
				<time>2013-08-14T07:21:45Z</time>
				<hdop>6.0</hdop>
			</trkpt>
			<trkpt lat="46.8844333" lon="6.71143057">
				<ele>1056.4</ele>
				<time>2013-08-14T07:21:47Z</time>
				<hdop>6.0</hdop>
			</trkpt>
			<trkpt lat="46.88444233" lon="6.71141988">
				<ele>1056.2</ele>
				<time>2013-08-14T07:21:48Z</time>
				<hdop>6.0</hdop>
			</trkpt>
			<trkpt lat="46.88444774" lon="6.71143102">
				<ele>1056.2</ele>
				<time>2013-08-14T07:21:49Z</time>
				<hdop>6.0</hdop>
			</trkpt>
			<trkpt lat="46.8844703" lon="6.71139616">
				<ele>1056.2</ele>
				<time>2013-08-14T07:21:50Z</time>
				<hdop>6.0</hdop>
			</trkpt>
			<trkpt lat="46.88446378" lon="6.71138631">
				<ele>1055.8</ele>
				<time>2013-08-14T07:21:51Z</time>
				<hdop>6.0</hdop>
			</trkpt>
			<trkpt lat="46.88446731" lon="6.71138054">
				<ele>1055.9</ele>
				<time>2013-08-14T07:21:52Z</time>
				<hdop>4.0</hdop>
			</trkpt>
			<trkpt lat="46.8844672" lon="6.71137709">
				<ele>1056.0</ele>
				<time>2013-08-14T07:21:53Z</time>
				<hdop>6.0</hdop>
			</trkpt>
			<trkpt lat="46.8844897" lon="6.71135974">
				<ele>1055.7</ele>
				<time>2013-08-14T07:21:54Z</time>
				<hdop>6.0</hdop>
			</trkpt>
			<trkpt lat="46.88451461" lon="6.71132504">
				<ele>1055.8</ele>
				<time>2013-08-14T07:21:55Z</time>
				<hdop>6.0</hdop>
			</trkpt>
			<trkpt lat="46.88451868" lon="6.71130734">
				<ele>1055.3</ele>
				<time>2013-08-14T07:21:56Z</time>
				<hdop>6.0</hdop>
			</trkpt>
			<trkpt lat="46.88450997" lon="6.71130444">
				<ele>1055.0</ele>
				<time>2013-08-14T07:21:57Z</time>
				<hdop>4.0</hdop>
			</trkpt>
			<trkpt lat="46.88450543" lon="6.71129879">
				<ele>1055.0</ele>
				<time>2013-08-14T07:21:58Z</time>
				<hdop>4.0</hdop>
			</trkpt>
			<trkpt lat="46.88451709" lon="6.71127636">
				<ele>1055.3</ele>
				<time>2013-08-14T07:21:59Z</time>
				<hdop>4.0</hdop>
			</trkpt>
			<trkpt lat="46.88452415" lon="6.71126961">
				<ele>1055.2</ele>
				<time>2013-08-14T07:22:00Z</time>
				<hdop>4.0</hdop>
			</trkpt>
			<trkpt lat="46.88454222" lon="6.71125238">
				<ele>1054.6</ele>
				<time>2013-08-14T07:22:01Z</time>
				<hdop>4.0</hdop>
			</trkpt>
			<trkpt lat="46.88455305" lon="6.71125126">
				<ele>1054.7</ele>
				<time>2013-08-14T07:22:02Z</time>
				<hdop>4.0</hdop>
			</trkpt>
			<trkpt lat="46.8845716" lon="6.71125429">
				<ele>1054.0</ele>
				<time>2013-08-14T07:22:03Z</time>
				<hdop>4.0</hdop>
			</trkpt>
			<trkpt lat="46.88456701" lon="6.71123379">
				<ele>1053.4</ele>
				<time>2013-08-14T07:22:05Z</time>
				<hdop>4.0</hdop>
			</trkpt>
			<trkpt lat="46.88457789" lon="6.71120025">
				<ele>1053.4</ele>
				<time>2013-08-14T07:22:06Z</time>
				<hdop>4.0</hdop>
			</trkpt>
			<trkpt lat="46.88455757" lon="6.7111683">
				<ele>1052.1</ele>
				<time>2013-08-14T07:22:07Z</time>
				<hdop>4.0</hdop>
			</trkpt>
			<trkpt lat="46.8845647" lon="6.71117438">
				<ele>1051.8</ele>
				<time>2013-08-14T07:22:08Z</time>
				<hdop>4.0</hdop>
			</trkpt>
			<trkpt lat="46.88457011" lon="6.71116809">
				<ele>1051.8</ele>
				<time>2013-08-14T07:22:09Z</time>
				<hdop>6.0</hdop>
			</trkpt>
			<trkpt lat="46.88456975" lon="6.71117059">
				<ele>1051.8</ele>
				<time>2013-08-14T07:22:10Z</time>
				<hdop>6.0</hdop>
			</trkpt>
			<trkpt lat="46.88457318" lon="6.71116664">
				<ele>1051.7</ele>
				<time>2013-08-14T07:22:11Z</time>
				<hdop>6.0</hdop>
			</trkpt>
			<trkpt lat="46.88458125" lon="6.71115456">
				<ele>1051.5</ele>
				<time>2013-08-14T07:22:12Z</time>
				<hdop>6.0</hdop>
			</trkpt>
			<trkpt lat="46.88458333" lon="6.71114903">
				<ele>1051.6</ele>
				<time>2013-08-14T07:22:13Z</time>
				<hdop>6.0</hdop>
			</trkpt>
			<trkpt lat="46.88458671" lon="6.71114919">
				<ele>1051.6</ele>
				<time>2013-08-14T07:22:14Z</time>
				<hdop>6.0</hdop>
			</trkpt>
			<trkpt lat="46.88459145" lon="6.71114661">
				<ele>1051.7</ele>
				<time>2013-08-14T07:22:15Z</time>
				<hdop>6.0</hdop>
			</trkpt>
			<trkpt lat="46.88459325" lon="6.7111441">
				<ele>1051.7</ele>
				<time>2013-08-14T07:22:16Z</time>
				<hdop>6.0</hdop>
			</trkpt>
			<trkpt lat="46.88459387" lon="6.71114384">
				<ele>1051.6</ele>
				<time>2013-08-14T07:22:17Z</time>
				<hdop>4.0</hdop>
			</trkpt>
			<trkpt lat="46.88459412" lon="6.71114239">
				<ele>1051.6</ele>
				<time>2013-08-14T07:22:18Z</time>
				<hdop>4.0</hdop>
			</trkpt>
			<trkpt lat="46.88459441" lon="6.71114172">
				<ele>1051.6</ele>
				<time>2013-08-14T07:22:19Z</time>
				<hdop>4.0</hdop>
			</trkpt>
			<trkpt lat="46.88459445" lon="6.71114291">
				<ele>1051.5</ele>
				<time>2013-08-14T07:22:20Z</time>
				<hdop>4.0</hdop>
			</trkpt>
			<trkpt lat="46.88459435" lon="6.71114351">
				<ele>1051.5</ele>
				<time>2013-08-14T07:22:21Z</time>
				<hdop>4.0</hdop>
			</trkpt>
			<trkpt lat="46.8845943" lon="6.71114406">
				<ele>1051.5</ele>
				<time>2013-08-14T07:22:22Z</time>
				<hdop>4.0</hdop>
			</trkpt>
			<trkpt lat="46.88459397" lon="6.71114341">
				<ele>1051.5</ele>
				<time>2013-08-14T07:22:23Z</time>
				<hdop>3.0</hdop>
			</trkpt>
			<trkpt lat="46.8845929" lon="6.7111446">
				<ele>1051.5</ele>
				<time>2013-08-14T07:22:24Z</time>
				<hdop>3.0</hdop>
			</trkpt>
			<trkpt lat="46.88459309" lon="6.71114433">
				<ele>1051.5</ele>
				<time>2013-08-14T07:22:25Z</time>
				<hdop>3.0</hdop>
			</trkpt>
			<trkpt lat="46.88459248" lon="6.71114394">
				<ele>1051.5</ele>
				<time>2013-08-14T07:22:26Z</time>
				<hdop>3.0</hdop>
			</trkpt>
			<trkpt lat="46.88459249" lon="6.71114432">
				<ele>1051.5</ele>
				<time>2013-08-14T07:22:27Z</time>
				<hdop>3.0</hdop>
			</trkpt>
			<trkpt lat="46.88459177" lon="6.7111445">
				<ele>1051.5</ele>
				<time>2013-08-14T07:22:28Z</time>
				<hdop>3.0</hdop>
			</trkpt>
			<trkpt lat="46.88459128" lon="6.71114468">
				<ele>1051.5</ele>
				<time>2013-08-14T07:22:29Z</time>
				<hdop>3.0</hdop>
			</trkpt>
			<trkpt lat="46.88459113" lon="6.71114578">
				<ele>1051.5</ele>
				<time>2013-08-14T07:22:31Z</time>
				<hdop>3.0</hdop>
			</trkpt>
			<trkpt lat="46.88459054" lon="6.71114665">
				<ele>1051.5</ele>
				<time>2013-08-14T07:22:32Z</time>
				<hdop>3.0</hdop>
			</trkpt>
			<trkpt lat="46.88459053" lon="6.71114692">
				<ele>1051.5</ele>
				<time>2013-08-14T07:22:33Z</time>
				<hdop>3.0</hdop>
			</trkpt>
			<trkpt lat="46.88459382" lon="6.71114462">
				<ele>1051.5</ele>
				<time>2013-08-14T07:22:34Z</time>
				<hdop>3.0</hdop>
			</trkpt>
			<trkpt lat="46.88464315" lon="6.71107025">
				<ele>1051.6</ele>
				<time>2013-08-14T07:22:35Z</time>
				<hdop>3.0</hdop>
			</trkpt>
			<trkpt lat="46.88470399" lon="6.71102257">
				<ele>1052.1</ele>
				<time>2013-08-14T07:22:36Z</time>
				<hdop>3.0</hdop>
			</trkpt>
			<trkpt lat="46.88474519" lon="6.71098406">
				<ele>1052.0</ele>
				<time>2013-08-14T07:22:37Z</time>
				<hdop>3.0</hdop>
			</trkpt>
			<trkpt lat="46.88476808" lon="6.71093224">
				<ele>1052.0</ele>
				<time>2013-08-14T07:22:38Z</time>
				<hdop>3.0</hdop>
			</trkpt>
			<trkpt lat="46.88481629" lon="6.71088926">
				<ele>1052.0</ele>
				<time>2013-08-14T07:22:40Z</time>
				<hdop>3.0</hdop>
			</trkpt>
			<trkpt lat="46.8848369" lon="6.71084189">
				<ele>1051.5</ele>
				<time>2013-08-14T07:22:41Z</time>
				<hdop>3.0</hdop>
			</trkpt>
			<trkpt lat="46.88490511" lon="6.71077379">
				<ele>1052.4</ele>
				<time>2013-08-14T07:22:42Z</time>
				<hdop>4.0</hdop>
			</trkpt>
			<trkpt lat="46.88490304" lon="6.71072973">
				<ele>1051.6</ele>
				<time>2013-08-14T07:22:43Z</time>
				<hdop>4.0</hdop>
			</trkpt>
			<trkpt lat="46.88491115" lon="6.71071322">
				<ele>1054.0</ele>
				<time>2013-08-14T07:22:45Z</time>
				<hdop>6.0</hdop>
			</trkpt>
			<trkpt lat="46.88492754" lon="6.71070959">
				<ele>1055.0</ele>
				<time>2013-08-14T07:22:47Z</time>
				<hdop>6.0</hdop>
			</trkpt>
			<trkpt lat="46.88493845" lon="6.71069409">
				<ele>1055.8</ele>
				<time>2013-08-14T07:22:48Z</time>
				<hdop>6.0</hdop>
			</trkpt>
			<trkpt lat="46.88494201" lon="6.7106849">
				<ele>1055.7</ele>
				<time>2013-08-14T07:22:49Z</time>
				<hdop>6.0</hdop>
			</trkpt>
			<trkpt lat="46.88497294" lon="6.71063876">
				<ele>1055.8</ele>
				<time>2013-08-14T07:22:50Z</time>
				<hdop>6.0</hdop>
			</trkpt>
			<trkpt lat="46.88498932" lon="6.71061984">
				<ele>1055.7</ele>
				<time>2013-08-14T07:22:51Z</time>
				<hdop>6.0</hdop>
			</trkpt>
			<trkpt lat="46.88500668" lon="6.71059448">
				<ele>1056.9</ele>
				<time>2013-08-14T07:22:52Z</time>
				<hdop>6.0</hdop>
			</trkpt>
			<trkpt lat="46.88501534" lon="6.71060113">
				<ele>1057.0</ele>
				<time>2013-08-14T07:22:54Z</time>
				<hdop>4.0</hdop>
			</trkpt>
			<trkpt lat="46.88503425" lon="6.71058756">
				<ele>1056.5</ele>
				<time>2013-08-14T07:22:55Z</time>
				<hdop>4.0</hdop>
			</trkpt>
			<trkpt lat="46.88503736" lon="6.71057441">
				<ele>1056.4</ele>
				<time>2013-08-14T07:22:56Z</time>
				<hdop>3.0</hdop>
			</trkpt>
			<trkpt lat="46.88505176" lon="6.71054059">
				<ele>1056.4</ele>
				<time>2013-08-14T07:22:57Z</time>
				<hdop>3.0</hdop>
			</trkpt>
			<trkpt lat="46.8850621" lon="6.7105298">
				<ele>1056.4</ele>
				<time>2013-08-14T07:22:58Z</time>
				<hdop>3.0</hdop>
			</trkpt>
			<trkpt lat="46.88507296" lon="6.71051396">
				<ele>1056.9</ele>
				<time>2013-08-14T07:22:59Z</time>
				<hdop>4.0</hdop>
			</trkpt>
			<trkpt lat="46.88508582" lon="6.71057851">
				<ele>1056.9</ele>
				<time>2013-08-14T07:23:00Z</time>
				<hdop>4.0</hdop>
			</trkpt>
			<trkpt lat="46.88509985" lon="6.71059168">
				<ele>1057.0</ele>
				<time>2013-08-14T07:23:02Z</time>
				<hdop>6.0</hdop>
			</trkpt>
			<trkpt lat="46.88511647" lon="6.71059086">
				<ele>1057.0</ele>
				<time>2013-08-14T07:23:03Z</time>
				<hdop>6.0</hdop>
			</trkpt>
			<trkpt lat="46.88509456" lon="6.71060631">
				<ele>1057.2</ele>
				<time>2013-08-14T07:23:04Z</time>
				<hdop>6.0</hdop>
			</trkpt>
			<trkpt lat="46.8851075" lon="6.71058629">
				<ele>1056.6</ele>
				<time>2013-08-14T07:23:05Z</time>
				<hdop>4.0</hdop>
			</trkpt>
			<trkpt lat="46.88511762" lon="6.7105833">
				<ele>1056.7</ele>
				<time>2013-08-14T07:23:06Z</time>
				<hdop>4.0</hdop>
			</trkpt>
			<trkpt lat="46.88513312" lon="6.71059312">
				<ele>1056.5</ele>
				<time>2013-08-14T07:23:07Z</time>
				<hdop>4.0</hdop>
			</trkpt>
			<trkpt lat="46.88514821" lon="6.71059122">
				<ele>1056.3</ele>
				<time>2013-08-14T07:23:08Z</time>
				<hdop>4.0</hdop>
			</trkpt>
			<trkpt lat="46.88516604" lon="6.71057979">
				<ele>1056.0</ele>
				<time>2013-08-14T07:23:09Z</time>
				<hdop>3.0</hdop>
			</trkpt>
			<trkpt lat="46.88517444" lon="6.71058108">
				<ele>1055.8</ele>
				<time>2013-08-14T07:23:10Z</time>
				<hdop>3.0</hdop>
			</trkpt>
			<trkpt lat="46.8851861" lon="6.71058137">
				<ele>1055.7</ele>
				<time>2013-08-14T07:23:11Z</time>
				<hdop>3.0</hdop>
			</trkpt>
			<trkpt lat="46.88520038" lon="6.71056163">
				<ele>1055.2</ele>
				<time>2013-08-14T07:23:12Z</time>
				<hdop>3.0</hdop>
			</trkpt>
			<trkpt lat="46.88520534" lon="6.71055764">
				<ele>1055.1</ele>
				<time>2013-08-14T07:23:13Z</time>
				<hdop>3.0</hdop>
			</trkpt>
			<trkpt lat="46.88521468" lon="6.71054022">
				<ele>1054.8</ele>
				<time>2013-08-14T07:23:14Z</time>
				<hdop>3.0</hdop>
			</trkpt>
			<trkpt lat="46.88521347" lon="6.7105184">
				<ele>1054.8</ele>
				<time>2013-08-14T07:23:15Z</time>
				<hdop>3.0</hdop>
			</trkpt>
			<trkpt lat="46.88521807" lon="6.71050247">
				<ele>1055.0</ele>
				<time>2013-08-14T07:23:16Z</time>
				<hdop>3.0</hdop>
			</trkpt>
			<trkpt lat="46.88524028" lon="6.71047159">
				<ele>1055.0</ele>
				<time>2013-08-14T07:23:17Z</time>
				<hdop>3.0</hdop>
			</trkpt>
			<trkpt lat="46.88524072" lon="6.71046651">
				<ele>1054.7</ele>
				<time>2013-08-14T07:23:18Z</time>
				<hdop>3.0</hdop>
			</trkpt>
			<trkpt lat="46.88527316" lon="6.71044003">
				<ele>1054.2</ele>
				<time>2013-08-14T07:23:19Z</time>
				<hdop>3.0</hdop>
			</trkpt>
			<trkpt lat="46.88527013" lon="6.71042243">
				<ele>1054.8</ele>
				<time>2013-08-14T07:23:20Z</time>
				<hdop>2.0</hdop>
			</trkpt>
			<trkpt lat="46.88528611" lon="6.71039838">
				<ele>1054.0</ele>
				<time>2013-08-14T07:23:21Z</time>
				<hdop>2.0</hdop>
			</trkpt>
			<trkpt lat="46.88529528" lon="6.7103904">
				<ele>1051.6</ele>
				<time>2013-08-14T07:23:22Z</time>
				<hdop>2.0</hdop>
			</trkpt>
			<trkpt lat="46.88530865" lon="6.71038015">
				<ele>1051.2</ele>
				<time>2013-08-14T07:23:23Z</time>
				<hdop>2.0</hdop>
			</trkpt>
			<trkpt lat="46.88531633" lon="6.71036571">
				<ele>1050.6</ele>
				<time>2013-08-14T07:23:24Z</time>
				<hdop>2.0</hdop>
			</trkpt>
			<trkpt lat="46.88533855" lon="6.71034299">
				<ele>1050.9</ele>
				<time>2013-08-14T07:23:25Z</time>
				<hdop>2.0</hdop>
			</trkpt>
			<trkpt lat="46.88534627" lon="6.71032656">
				<ele>1051.2</ele>
				<time>2013-08-14T07:23:26Z</time>
				<hdop>2.0</hdop>
			</trkpt>
			<trkpt lat="46.88534446" lon="6.71031458">
				<ele>1051.5</ele>
				<time>2013-08-14T07:23:27Z</time>
				<hdop>2.0</hdop>
			</trkpt>
			<trkpt lat="46.88535213" lon="6.71028774">
				<ele>1051.5</ele>
				<time>2013-08-14T07:23:28Z</time>
				<hdop>2.0</hdop>
			</trkpt>
			<trkpt lat="46.88537628" lon="6.71026285">
				<ele>1050.9</ele>
				<time>2013-08-14T07:23:29Z</time>
				<hdop>2.0</hdop>
			</trkpt>
			<trkpt lat="46.88538596" lon="6.71024541">
				<ele>1050.5</ele>
				<time>2013-08-14T07:23:30Z</time>
				<hdop>2.0</hdop>
			</trkpt>
			<trkpt lat="46.8854221" lon="6.71022451">
				<ele>1050.2</ele>
				<time>2013-08-14T07:23:31Z</time>
				<hdop>3.0</hdop>
			</trkpt>
			<trkpt lat="46.88541782" lon="6.71021763">
				<ele>1049.7</ele>
				<time>2013-08-14T07:23:32Z</time>
				<hdop>3.0</hdop>
			</trkpt>
			<trkpt lat="46.88540693" lon="6.71021995">
				<ele>1049.3</ele>
				<time>2013-08-14T07:23:33Z</time>
				<hdop>3.0</hdop>
			</trkpt>
			<trkpt lat="46.8853965" lon="6.71020976">
				<ele>1048.8</ele>
				<time>2013-08-14T07:23:34Z</time>
				<hdop>3.0</hdop>
			</trkpt>
			<trkpt lat="46.88537404" lon="6.71019345">
				<ele>1048.7</ele>
				<time>2013-08-14T07:23:35Z</time>
				<hdop>3.0</hdop>
			</trkpt>
			<trkpt lat="46.88536638" lon="6.71015923">
				<ele>1048.0</ele>
				<time>2013-08-14T07:23:36Z</time>
				<hdop>3.0</hdop>
			</trkpt>
			<trkpt lat="46.88538781" lon="6.71012924">
				<ele>1045.9</ele>
				<time>2013-08-14T07:23:38Z</time>
				<hdop>3.0</hdop>
			</trkpt>
			<trkpt lat="46.88541889" lon="6.71012865">
				<ele>1043.6</ele>
				<time>2013-08-14T07:23:39Z</time>
				<hdop>3.0</hdop>
			</trkpt>
			<trkpt lat="46.88544893" lon="6.71008913">
				<ele>1042.5</ele>
				<time>2013-08-14T07:23:40Z</time>
				<hdop>3.0</hdop>
			</trkpt>
			<trkpt lat="46.88545745" lon="6.71008706">
				<ele>1042.6</ele>
				<time>2013-08-14T07:23:41Z</time>
				<hdop>3.0</hdop>
			</trkpt>
			<trkpt lat="46.88547265" lon="6.71008824">
				<ele>1043.2</ele>
				<time>2013-08-14T07:23:42Z</time>
				<hdop>4.0</hdop>
			</trkpt>
			<trkpt lat="46.8854535" lon="6.7100805">
				<ele>1044.0</ele>
				<time>2013-08-14T07:23:43Z</time>
				<hdop>4.0</hdop>
			</trkpt>
			<trkpt lat="46.88546172" lon="6.71007006">
				<ele>1043.8</ele>
				<time>2013-08-14T07:23:44Z</time>
				<hdop>4.0</hdop>
			</trkpt>
			<trkpt lat="46.88546648" lon="6.71007728">
				<ele>1043.6</ele>
				<time>2013-08-14T07:23:45Z</time>
				<hdop>4.0</hdop>
			</trkpt>
			<trkpt lat="46.88548964" lon="6.71001698">
				<ele>1042.8</ele>
				<time>2013-08-14T07:23:46Z</time>
				<hdop>3.0</hdop>
			</trkpt>
			<trkpt lat="46.88547145" lon="6.71000682">
				<ele>1043.5</ele>
				<time>2013-08-14T07:23:47Z</time>
				<hdop>3.0</hdop>
			</trkpt>
			<trkpt lat="46.88545752" lon="6.70999045">
				<ele>1043.7</ele>
				<time>2013-08-14T07:23:48Z</time>
				<hdop>3.0</hdop>
			</trkpt>
			<trkpt lat="46.88547495" lon="6.70995847">
				<ele>1044.3</ele>
				<time>2013-08-14T07:23:49Z</time>
				<hdop>3.0</hdop>
			</trkpt>
			<trkpt lat="46.8854901" lon="6.70990914">
				<ele>1042.2</ele>
				<time>2013-08-14T07:23:50Z</time>
				<hdop>3.0</hdop>
			</trkpt>
			<trkpt lat="46.88549602" lon="6.70987902">
				<ele>1043.1</ele>
				<time>2013-08-14T07:23:51Z</time>
				<hdop>3.0</hdop>
			</trkpt>
			<trkpt lat="46.88549924" lon="6.70986428">
				<ele>1042.9</ele>
				<time>2013-08-14T07:23:52Z</time>
				<hdop>3.0</hdop>
			</trkpt>
			<trkpt lat="46.885505" lon="6.70984199">
				<ele>1042.7</ele>
				<time>2013-08-14T07:23:53Z</time>
				<hdop>3.0</hdop>
			</trkpt>
			<trkpt lat="46.88551003" lon="6.70982868">
				<ele>1042.7</ele>
				<time>2013-08-14T07:23:54Z</time>
				<hdop>3.0</hdop>
			</trkpt>
			<trkpt lat="46.88553522" lon="6.70977473">
				<ele>1042.6</ele>
				<time>2013-08-14T07:23:55Z</time>
				<hdop>3.0</hdop>
			</trkpt>
			<trkpt lat="46.88553593" lon="6.70976083">
				<ele>1042.2</ele>
				<time>2013-08-14T07:23:56Z</time>
				<hdop>4.0</hdop>
			</trkpt>
			<trkpt lat="46.88554811" lon="6.70973146">
				<ele>1042.3</ele>
				<time>2013-08-14T07:23:57Z</time>
				<hdop>3.0</hdop>
			</trkpt>
			<trkpt lat="46.88555693" lon="6.70972979">
				<ele>1042.5</ele>
				<time>2013-08-14T07:23:58Z</time>
				<hdop>3.0</hdop>
			</trkpt>
			<trkpt lat="46.88555718" lon="6.7097184">
				<ele>1042.6</ele>
				<time>2013-08-14T07:23:59Z</time>
				<hdop>3.0</hdop>
			</trkpt>
			<trkpt lat="46.88555629" lon="6.70970829">
				<ele>1042.6</ele>
				<time>2013-08-14T07:24:00Z</time>
				<hdop>3.0</hdop>
			</trkpt>
			<trkpt lat="46.88557505" lon="6.70968456">
				<ele>1042.7</ele>
				<time>2013-08-14T07:24:01Z</time>
				<hdop>3.0</hdop>
			</trkpt>
			<trkpt lat="46.88558406" lon="6.70967939">
				<ele>1042.8</ele>
				<time>2013-08-14T07:24:02Z</time>
				<hdop>3.0</hdop>
			</trkpt>
			<trkpt lat="46.88559219" lon="6.70966724">
				<ele>1042.2</ele>
				<time>2013-08-14T07:24:03Z</time>
				<hdop>3.0</hdop>
			</trkpt>
			<trkpt lat="46.88559976" lon="6.70964849">
				<ele>1041.8</ele>
				<time>2013-08-14T07:24:04Z</time>
				<hdop>3.0</hdop>
			</trkpt>
			<trkpt lat="46.88559301" lon="6.70963097">
				<ele>1042.2</ele>
				<time>2013-08-14T07:24:05Z</time>
				<hdop>3.0</hdop>
			</trkpt>
			<trkpt lat="46.88559955" lon="6.70960195">
				<ele>1041.9</ele>
				<time>2013-08-14T07:24:06Z</time>
				<hdop>2.0</hdop>
			</trkpt>
			<trkpt lat="46.88562756" lon="6.70959794">
				<ele>1041.8</ele>
				<time>2013-08-14T07:24:07Z</time>
				<hdop>2.0</hdop>
			</trkpt>
			<trkpt lat="46.88564208" lon="6.70960424">
				<ele>1042.4</ele>
				<time>2013-08-14T07:24:08Z</time>
				<hdop>2.0</hdop>
			</trkpt>
			<trkpt lat="46.88562901" lon="6.70961941">
				<ele>1041.3</ele>
				<time>2013-08-14T07:24:10Z</time>
				<hdop>2.0</hdop>
			</trkpt>
			<trkpt lat="46.88564124" lon="6.70960114">
				<ele>1041.0</ele>
				<time>2013-08-14T07:24:11Z</time>
				<hdop>2.0</hdop>
			</trkpt>
			<trkpt lat="46.88566491" lon="6.70959496">
				<ele>1041.1</ele>
				<time>2013-08-14T07:24:12Z</time>
				<hdop>2.0</hdop>
			</trkpt>
			<trkpt lat="46.8856829" lon="6.70958431">
				<ele>1041.7</ele>
				<time>2013-08-14T07:24:13Z</time>
				<hdop>3.0</hdop>
			</trkpt>
			<trkpt lat="46.88569517" lon="6.70957056">
				<ele>1041.4</ele>
				<time>2013-08-14T07:24:14Z</time>
				<hdop>3.0</hdop>
			</trkpt>
			<trkpt lat="46.8856946" lon="6.70955796">
				<ele>1042.2</ele>
				<time>2013-08-14T07:24:16Z</time>
				<hdop>3.0</hdop>
			</trkpt>
			<trkpt lat="46.88569562" lon="6.70954446">
				<ele>1041.2</ele>
				<time>2013-08-14T07:24:17Z</time>
				<hdop>3.0</hdop>
			</trkpt>
			<trkpt lat="46.88571834" lon="6.70949634">
				<ele>1040.4</ele>
				<time>2013-08-14T07:24:18Z</time>
				<hdop>3.0</hdop>
			</trkpt>
			<trkpt lat="46.88569536" lon="6.70949893">
				<ele>1040.2</ele>
				<time>2013-08-14T07:24:19Z</time>
				<hdop>3.0</hdop>
			</trkpt>
			<trkpt lat="46.88571537" lon="6.70947055">
				<ele>1040.3</ele>
				<time>2013-08-14T07:24:20Z</time>
				<hdop>3.0</hdop>
			</trkpt>
			<trkpt lat="46.88571045" lon="6.70948994">
				<ele>1040.6</ele>
				<time>2013-08-14T07:24:21Z</time>
				<hdop>3.0</hdop>
			</trkpt>
			<trkpt lat="46.88572893" lon="6.7094708">
				<ele>1039.8</ele>
				<time>2013-08-14T07:24:22Z</time>
				<hdop>3.0</hdop>
			</trkpt>
			<trkpt lat="46.88573445" lon="6.70946894">
				<ele>1040.0</ele>
				<time>2013-08-14T07:24:23Z</time>
				<hdop>3.0</hdop>
			</trkpt>
			<trkpt lat="46.88573002" lon="6.70943238">
				<ele>1037.1</ele>
				<time>2013-08-14T07:24:24Z</time>
				<hdop>3.0</hdop>
			</trkpt>
			<trkpt lat="46.88573375" lon="6.70942728">
				<ele>1037.1</ele>
				<time>2013-08-14T07:24:25Z</time>
				<hdop>3.0</hdop>
			</trkpt>
			<trkpt lat="46.88574558" lon="6.70939653">
				<ele>1035.5</ele>
				<time>2013-08-14T07:24:27Z</time>
				<hdop>3.0</hdop>
			</trkpt>
			<trkpt lat="46.88574586" lon="6.70936712">
				<ele>1033.3</ele>
				<time>2013-08-14T07:24:28Z</time>
				<hdop>3.0</hdop>
			</trkpt>
			<trkpt lat="46.88575222" lon="6.70932704">
				<ele>1032.0</ele>
				<time>2013-08-14T07:24:29Z</time>
				<hdop>3.0</hdop>
			</trkpt>
			<trkpt lat="46.88575969" lon="6.70932444">
				<ele>1032.5</ele>
				<time>2013-08-14T07:24:30Z</time>
				<hdop>3.0</hdop>
			</trkpt>
			<trkpt lat="46.88575918" lon="6.70931425">
				<ele>1032.6</ele>
				<time>2013-08-14T07:24:31Z</time>
				<hdop>3.0</hdop>
			</trkpt>
			<trkpt lat="46.88577144" lon="6.70926035">
				<ele>1031.7</ele>
				<time>2013-08-14T07:24:32Z</time>
				<hdop>3.0</hdop>
			</trkpt>
			<trkpt lat="46.88578496" lon="6.70925621">
				<ele>1031.6</ele>
				<time>2013-08-14T07:24:33Z</time>
				<hdop>3.0</hdop>
			</trkpt>
			<trkpt lat="46.88580245" lon="6.70921641">
				<ele>1032.6</ele>
				<time>2013-08-14T07:24:34Z</time>
				<hdop>3.0</hdop>
			</trkpt>
			<trkpt lat="46.88580479" lon="6.70919129">
				<ele>1031.6</ele>
				<time>2013-08-14T07:24:35Z</time>
				<hdop>3.0</hdop>
			</trkpt>
			<trkpt lat="46.885818" lon="6.70917945">
				<ele>1031.8</ele>
				<time>2013-08-14T07:24:36Z</time>
				<hdop>3.0</hdop>
			</trkpt>
			<trkpt lat="46.88585509" lon="6.70915213">
				<ele>1031.3</ele>
				<time>2013-08-14T07:24:38Z</time>
				<hdop>3.0</hdop>
			</trkpt>
			<trkpt lat="46.88586541" lon="6.70914321">
				<ele>1030.9</ele>
				<time>2013-08-14T07:24:39Z</time>
				<hdop>3.0</hdop>
			</trkpt>
			<trkpt lat="46.88586338" lon="6.70914021">
				<ele>1030.7</ele>
				<time>2013-08-14T07:24:40Z</time>
				<hdop>3.0</hdop>
			</trkpt>
			<trkpt lat="46.88586666" lon="6.70909819">
				<ele>1031.1</ele>
				<time>2013-08-14T07:24:41Z</time>
				<hdop>3.0</hdop>
			</trkpt>
			<trkpt lat="46.88586974" lon="6.70906027">
				<ele>1029.0</ele>
				<time>2013-08-14T07:24:42Z</time>
				<hdop>3.0</hdop>
			</trkpt>
			<trkpt lat="46.88586864" lon="6.70904647">
				<ele>1029.0</ele>
				<time>2013-08-14T07:24:43Z</time>
				<hdop>4.0</hdop>
			</trkpt>
			<trkpt lat="46.88587961" lon="6.70903247">
				<ele>1028.9</ele>
				<time>2013-08-14T07:24:44Z</time>
				<hdop>4.0</hdop>
			</trkpt>
			<trkpt lat="46.88588427" lon="6.70901103">
				<ele>1027.9</ele>
				<time>2013-08-14T07:24:45Z</time>
				<hdop>4.0</hdop>
			</trkpt>
			<trkpt lat="46.88593037" lon="6.70895346">
				<ele>1028.0</ele>
				<time>2013-08-14T07:24:46Z</time>
				<hdop>4.0</hdop>
			</trkpt>
			<trkpt lat="46.88592604" lon="6.70895935">
				<ele>1027.6</ele>
				<time>2013-08-14T07:24:47Z</time>
				<hdop>4.0</hdop>
			</trkpt>
			<trkpt lat="46.88591893" lon="6.70892768">
				<ele>1025.7</ele>
				<time>2013-08-14T07:24:48Z</time>
				<hdop>4.0</hdop>
			</trkpt>
			<trkpt lat="46.88591246" lon="6.70892428">
				<ele>1025.6</ele>
				<time>2013-08-14T07:24:49Z</time>
				<hdop>6.0</hdop>
			</trkpt>
			<trkpt lat="46.88589935" lon="6.70893162">
				<ele>1025.5</ele>
				<time>2013-08-14T07:24:50Z</time>
				<hdop>6.0</hdop>
			</trkpt>
			<trkpt lat="46.88590008" lon="6.70893118">
				<ele>1025.6</ele>
				<time>2013-08-14T07:24:51Z</time>
				<hdop>6.0</hdop>
			</trkpt>
			<trkpt lat="46.88590098" lon="6.70890487">
				<ele>1024.7</ele>
				<time>2013-08-14T07:24:52Z</time>
				<hdop>6.0</hdop>
			</trkpt>
			<trkpt lat="46.88588497" lon="6.70886383">
				<ele>1022.1</ele>
				<time>2013-08-14T07:24:53Z</time>
				<hdop>6.0</hdop>
			</trkpt>
			<trkpt lat="46.88588119" lon="6.7088348">
				<ele>1020.6</ele>
				<time>2013-08-14T07:24:54Z</time>
				<hdop>6.0</hdop>
			</trkpt>
			<trkpt lat="46.88588261" lon="6.70883765">
				<ele>1019.6</ele>
				<time>2013-08-14T07:24:55Z</time>
				<hdop>6.0</hdop>
			</trkpt>
			<trkpt lat="46.88589322" lon="6.70883111">
				<ele>1018.8</ele>
				<time>2013-08-14T07:24:56Z</time>
				<hdop>4.0</hdop>
			</trkpt>
			<trkpt lat="46.88587433" lon="6.70884319">
				<ele>1018.2</ele>
				<time>2013-08-14T07:24:57Z</time>
				<hdop>4.0</hdop>
			</trkpt>
			<trkpt lat="46.88587234" lon="6.7088432">
				<ele>1017.7</ele>
				<time>2013-08-14T07:24:58Z</time>
				<hdop>4.0</hdop>
			</trkpt>
			<trkpt lat="46.88588151" lon="6.70883348">
				<ele>1017.3</ele>
				<time>2013-08-14T07:24:59Z</time>
				<hdop>4.0</hdop>
			</trkpt>
			<trkpt lat="46.88588994" lon="6.70881333">
				<ele>1017.2</ele>
				<time>2013-08-14T07:25:00Z</time>
				<hdop>4.0</hdop>
			</trkpt>
			<trkpt lat="46.88589633" lon="6.70877184">
				<ele>1018.5</ele>
				<time>2013-08-14T07:25:01Z</time>
				<hdop>6.0</hdop>
			</trkpt>
			<trkpt lat="46.88588254" lon="6.70874676">
				<ele>1018.5</ele>
				<time>2013-08-14T07:25:02Z</time>
				<hdop>4.0</hdop>
			</trkpt>
			<trkpt lat="46.88587589" lon="6.70870699">
				<ele>1019.3</ele>
				<time>2013-08-14T07:25:03Z</time>
				<hdop>4.0</hdop>
			</trkpt>
			<trkpt lat="46.88587615" lon="6.70869088">
				<ele>1019.7</ele>
				<time>2013-08-14T07:25:04Z</time>
				<hdop>4.0</hdop>
			</trkpt>
			<trkpt lat="46.88589433" lon="6.70866761">
				<ele>1019.8</ele>
				<time>2013-08-14T07:25:05Z</time>
				<hdop>4.0</hdop>
			</trkpt>
			<trkpt lat="46.88589766" lon="6.70865551">
				<ele>1019.9</ele>
				<time>2013-08-14T07:25:06Z</time>
				<hdop>4.0</hdop>
			</trkpt>
			<trkpt lat="46.88589943" lon="6.70864477">
				<ele>1020.2</ele>
				<time>2013-08-14T07:25:07Z</time>
				<hdop>4.0</hdop>
			</trkpt>
			<trkpt lat="46.88589774" lon="6.70862223">
				<ele>1020.7</ele>
				<time>2013-08-14T07:25:08Z</time>
				<hdop>4.0</hdop>
			</trkpt>
			<trkpt lat="46.88589219" lon="6.70861581">
				<ele>1021.3</ele>
				<time>2013-08-14T07:25:09Z</time>
				<hdop>4.0</hdop>
			</trkpt>
			<trkpt lat="46.88589388" lon="6.70860013">
				<ele>1021.0</ele>
				<time>2013-08-14T07:25:10Z</time>
				<hdop>4.0</hdop>
			</trkpt>
			<trkpt lat="46.8858537" lon="6.70860859">
				<ele>1021.4</ele>
				<time>2013-08-14T07:25:11Z</time>
				<hdop>4.0</hdop>
			</trkpt>
			<trkpt lat="46.8858465" lon="6.70859406">
				<ele>1021.0</ele>
				<time>2013-08-14T07:25:12Z</time>
				<hdop>6.0</hdop>
			</trkpt>
			<trkpt lat="46.88583753" lon="6.70857772">
				<ele>1021.2</ele>
				<time>2013-08-14T07:25:13Z</time>
				<hdop>6.0</hdop>
			</trkpt>
			<trkpt lat="46.88584698" lon="6.70854258">
				<ele>1021.3</ele>
				<time>2013-08-14T07:25:14Z</time>
				<hdop>6.0</hdop>
			</trkpt>
			<trkpt lat="46.88586403" lon="6.70850961">
				<ele>1021.7</ele>
				<time>2013-08-14T07:25:15Z</time>
				<hdop>6.0</hdop>
			</trkpt>
			<trkpt lat="46.88584551" lon="6.70850552">
				<ele>1021.4</ele>
				<time>2013-08-14T07:25:16Z</time>
				<hdop>6.0</hdop>
			</trkpt>
			<trkpt lat="46.88583513" lon="6.70846294">
				<ele>1021.3</ele>
				<time>2013-08-14T07:25:17Z</time>
				<hdop>6.0</hdop>
			</trkpt>
			<trkpt lat="46.88581441" lon="6.7084629">
				<ele>1021.1</ele>
				<time>2013-08-14T07:25:18Z</time>
				<hdop>6.0</hdop>
			</trkpt>
			<trkpt lat="46.8858048" lon="6.70842576">
				<ele>1020.4</ele>
				<time>2013-08-14T07:25:19Z</time>
				<hdop>6.0</hdop>
			</trkpt>
			<trkpt lat="46.88578439" lon="6.70839438">
				<ele>1020.1</ele>
				<time>2013-08-14T07:25:20Z</time>
				<hdop>6.0</hdop>
			</trkpt>
			<trkpt lat="46.88582851" lon="6.70835334">
				<ele>1019.8</ele>
				<time>2013-08-14T07:25:21Z</time>
				<hdop>6.0</hdop>
			</trkpt>
			<trkpt lat="46.8858287" lon="6.70834776">
				<ele>1020.0</ele>
				<time>2013-08-14T07:25:22Z</time>
				<hdop>6.0</hdop>
			</trkpt>
			<trkpt lat="46.88586238" lon="6.70831735">
				<ele>1020.6</ele>
				<time>2013-08-14T07:25:23Z</time>
				<hdop>6.0</hdop>
			</trkpt>
			<trkpt lat="46.8858797" lon="6.70828367">
				<ele>1021.8</ele>
				<time>2013-08-14T07:25:24Z</time>
				<hdop>6.0</hdop>
			</trkpt>
			<trkpt lat="46.88587956" lon="6.70824553">
				<ele>1021.8</ele>
				<time>2013-08-14T07:25:26Z</time>
				<hdop>6.0</hdop>
			</trkpt>
			<trkpt lat="46.8859138" lon="6.70822298">
				<ele>1021.6</ele>
				<time>2013-08-14T07:25:27Z</time>
				<hdop>6.0</hdop>
			</trkpt>
			<trkpt lat="46.88590391" lon="6.70825493">
				<ele>1021.9</ele>
				<time>2013-08-14T07:25:28Z</time>
				<hdop>6.0</hdop>
			</trkpt>
			<trkpt lat="46.88591312" lon="6.70824971">
				<ele>1022.2</ele>
				<time>2013-08-14T07:25:29Z</time>
				<hdop>6.0</hdop>
			</trkpt>
			<trkpt lat="46.88594808" lon="6.7082276">
				<ele>1022.2</ele>
				<time>2013-08-14T07:25:31Z</time>
				<hdop>6.0</hdop>
			</trkpt>
			<trkpt lat="46.88597177" lon="6.70821278">
				<ele>1022.3</ele>
				<time>2013-08-14T07:25:32Z</time>
				<hdop>6.0</hdop>
			</trkpt>
			<trkpt lat="46.8859828" lon="6.70818894">
				<ele>1022.4</ele>
				<time>2013-08-14T07:25:33Z</time>
				<hdop>6.0</hdop>
			</trkpt>
			<trkpt lat="46.88599154" lon="6.70818188">
				<ele>1022.4</ele>
				<time>2013-08-14T07:25:34Z</time>
				<hdop>6.0</hdop>
			</trkpt>
			<trkpt lat="46.88600269" lon="6.70818404">
				<ele>1022.2</ele>
				<time>2013-08-14T07:25:35Z</time>
				<hdop>6.0</hdop>
			</trkpt>
			<trkpt lat="46.88601353" lon="6.70819959">
				<ele>1021.8</ele>
				<time>2013-08-14T07:25:36Z</time>
				<hdop>6.0</hdop>
			</trkpt>
			<trkpt lat="46.88602272" lon="6.70821246">
				<ele>1021.2</ele>
				<time>2013-08-14T07:25:37Z</time>
				<hdop>6.0</hdop>
			</trkpt>
			<trkpt lat="46.88603957" lon="6.70822646">
				<ele>1020.8</ele>
				<time>2013-08-14T07:25:38Z</time>
				<hdop>6.0</hdop>
			</trkpt>
			<trkpt lat="46.88604652" lon="6.70825549">
				<ele>1019.7</ele>
				<time>2013-08-14T07:25:39Z</time>
				<hdop>6.0</hdop>
			</trkpt>
			<trkpt lat="46.88607311" lon="6.70831916">
				<ele>1019.1</ele>
				<time>2013-08-14T07:25:41Z</time>
				<hdop>6.0</hdop>
			</trkpt>
			<trkpt lat="46.88608314" lon="6.70831487">
				<ele>1018.8</ele>
				<time>2013-08-14T07:25:42Z</time>
				<hdop>6.0</hdop>
			</trkpt>
			<trkpt lat="46.88608271" lon="6.70832309">
				<ele>1018.7</ele>
				<time>2013-08-14T07:25:43Z</time>
				<hdop>6.0</hdop>
			</trkpt>
			<trkpt lat="46.88608539" lon="6.70834164">
				<ele>1018.6</ele>
				<time>2013-08-14T07:25:44Z</time>
				<hdop>6.0</hdop>
			</trkpt>
			<trkpt lat="46.88607874" lon="6.70835395">
				<ele>1019.2</ele>
				<time>2013-08-14T07:25:45Z</time>
				<hdop>6.0</hdop>
			</trkpt>
			<trkpt lat="46.88608315" lon="6.70836609">
				<ele>1019.1</ele>
				<time>2013-08-14T07:25:46Z</time>
				<hdop>6.0</hdop>
			</trkpt>
			<trkpt lat="46.88610641" lon="6.70835304">
				<ele>1019.2</ele>
				<time>2013-08-14T07:25:47Z</time>
				<hdop>6.0</hdop>
			</trkpt>
			<trkpt lat="46.88610574" lon="6.70834816">
				<ele>1019.1</ele>
				<time>2013-08-14T07:25:48Z</time>
				<hdop>4.0</hdop>
			</trkpt>
			<trkpt lat="46.88609613" lon="6.70834341">
				<ele>1019.3</ele>
				<time>2013-08-14T07:25:49Z</time>
				<hdop>4.0</hdop>
			</trkpt>
			<trkpt lat="46.8860907" lon="6.70834034">
				<ele>1020.4</ele>
				<time>2013-08-14T07:25:50Z</time>
				<hdop>4.0</hdop>
			</trkpt>
			<trkpt lat="46.88609321" lon="6.70833057">
				<ele>1021.1</ele>
				<time>2013-08-14T07:25:51Z</time>
				<hdop>4.0</hdop>
			</trkpt>
			<trkpt lat="46.88610644" lon="6.70829484">
				<ele>1021.1</ele>
				<time>2013-08-14T07:25:52Z</time>
				<hdop>6.0</hdop>
			</trkpt>
			<trkpt lat="46.8861091" lon="6.70829392">
				<ele>1021.1</ele>
				<time>2013-08-14T07:25:53Z</time>
				<hdop>6.0</hdop>
			</trkpt>
			<trkpt lat="46.88607067" lon="6.70832752">
				<ele>1021.0</ele>
				<time>2013-08-14T07:25:54Z</time>
				<hdop>6.0</hdop>
			</trkpt>
			<trkpt lat="46.88606871" lon="6.70833482">
				<ele>1020.9</ele>
				<time>2013-08-14T07:25:55Z</time>
				<hdop>6.0</hdop>
			</trkpt>
			<trkpt lat="46.88608073" lon="6.70831943">
				<ele>1021.1</ele>
				<time>2013-08-14T07:25:56Z</time>
				<hdop>6.0</hdop>
			</trkpt>
			<trkpt lat="46.88608187" lon="6.70832792">
				<ele>1021.1</ele>
				<time>2013-08-14T07:25:57Z</time>
				<hdop>6.0</hdop>
			</trkpt>
			<trkpt lat="46.88608775" lon="6.70832575">
				<ele>1021.2</ele>
				<time>2013-08-14T07:25:58Z</time>
				<hdop>6.0</hdop>
			</trkpt>
			<trkpt lat="46.88609295" lon="6.70831777">
				<ele>1021.2</ele>
				<time>2013-08-14T07:25:59Z</time>
				<hdop>4.0</hdop>
			</trkpt>
			<trkpt lat="46.88610355" lon="6.70831124">
				<ele>1021.3</ele>
				<time>2013-08-14T07:26:00Z</time>
				<hdop>4.0</hdop>
			</trkpt>
			<trkpt lat="46.88611203" lon="6.70831139">
				<ele>1021.4</ele>
				<time>2013-08-14T07:26:01Z</time>
				<hdop>4.0</hdop>
			</trkpt>
			<trkpt lat="46.88610975" lon="6.70831973">
				<ele>1021.7</ele>
				<time>2013-08-14T07:26:02Z</time>
				<hdop>3.0</hdop>
			</trkpt>
			<trkpt lat="46.88611023" lon="6.70832013">
				<ele>1021.7</ele>
				<time>2013-08-14T07:26:03Z</time>
				<hdop>3.0</hdop>
			</trkpt>
			<trkpt lat="46.88609837" lon="6.70833259">
				<ele>1021.9</ele>
				<time>2013-08-14T07:26:04Z</time>
				<hdop>3.0</hdop>
			</trkpt>
			<trkpt lat="46.8861176" lon="6.70833447">
				<ele>1022.4</ele>
				<time>2013-08-14T07:26:05Z</time>
				<hdop>3.0</hdop>
			</trkpt>
			<trkpt lat="46.88611314" lon="6.70834093">
				<ele>1022.8</ele>
				<time>2013-08-14T07:26:06Z</time>
				<hdop>3.0</hdop>
			</trkpt>
			<trkpt lat="46.88612091" lon="6.70833749">
				<ele>1022.7</ele>
				<time>2013-08-14T07:26:07Z</time>
				<hdop>3.0</hdop>
			</trkpt>
			<trkpt lat="46.88613333" lon="6.70833306">
				<ele>1023.2</ele>
				<time>2013-08-14T07:26:08Z</time>
				<hdop>3.0</hdop>
			</trkpt>
			<trkpt lat="46.88614856" lon="6.70831995">
				<ele>1023.6</ele>
				<time>2013-08-14T07:26:09Z</time>
				<hdop>3.0</hdop>
			</trkpt>
			<trkpt lat="46.88615494" lon="6.70831247">
				<ele>1023.5</ele>
				<time>2013-08-14T07:26:10Z</time>
				<hdop>4.0</hdop>
			</trkpt>
			<trkpt lat="46.88613746" lon="6.70831686">
				<ele>1023.3</ele>
				<time>2013-08-14T07:26:11Z</time>
				<hdop>3.0</hdop>
			</trkpt>
			<trkpt lat="46.8861202" lon="6.70832948">
				<ele>1023.6</ele>
				<time>2013-08-14T07:26:12Z</time>
				<hdop>3.0</hdop>
			</trkpt>
			<trkpt lat="46.88612212" lon="6.70832982">
				<ele>1023.5</ele>
				<time>2013-08-14T07:26:13Z</time>
				<hdop>3.0</hdop>
			</trkpt>
			<trkpt lat="46.88612279" lon="6.70833059">
				<ele>1023.7</ele>
				<time>2013-08-14T07:26:14Z</time>
				<hdop>3.0</hdop>
			</trkpt>
			<trkpt lat="46.88612246" lon="6.7083303">
				<ele>1023.7</ele>
				<time>2013-08-14T07:26:15Z</time>
				<hdop>3.0</hdop>
			</trkpt>
			<trkpt lat="46.88612223" lon="6.7083309">
				<ele>1023.5</ele>
				<time>2013-08-14T07:26:16Z</time>
				<hdop>3.0</hdop>
			</trkpt>
			<trkpt lat="46.88612318" lon="6.70833112">
				<ele>1023.3</ele>
				<time>2013-08-14T07:26:17Z</time>
				<hdop>3.0</hdop>
			</trkpt>
			<trkpt lat="46.88612357" lon="6.70833156">
				<ele>1023.3</ele>
				<time>2013-08-14T07:26:18Z</time>
				<hdop>3.0</hdop>
			</trkpt>
			<trkpt lat="46.88612371" lon="6.70833515">
				<ele>1023.4</ele>
				<time>2013-08-14T07:26:19Z</time>
				<hdop>3.0</hdop>
			</trkpt>
			<trkpt lat="46.88615783" lon="6.70833442">
				<ele>1024.1</ele>
				<time>2013-08-14T07:26:20Z</time>
				<hdop>4.0</hdop>
			</trkpt>
			<trkpt lat="46.88615104" lon="6.70834234">
				<ele>1025.2</ele>
				<time>2013-08-14T07:26:21Z</time>
				<hdop>4.0</hdop>
			</trkpt>
			<trkpt lat="46.88615147" lon="6.70833896">
				<ele>1025.8</ele>
				<time>2013-08-14T07:26:23Z</time>
				<hdop>6.0</hdop>
			</trkpt>
			<trkpt lat="46.88614959" lon="6.70834974">
				<ele>1025.8</ele>
				<time>2013-08-14T07:26:24Z</time>
				<hdop>6.0</hdop>
			</trkpt>
			<trkpt lat="46.88613544" lon="6.70835611">
				<ele>1026.2</ele>
				<time>2013-08-14T07:26:25Z</time>
				<hdop>6.0</hdop>
			</trkpt>
			<trkpt lat="46.88613544" lon="6.70835611">
				<ele>1026.2</ele>
				<time>2013-08-14T07:26:26Z</time>
				<hdop>6.0</hdop>
			</trkpt>
			<trkpt lat="46.88613727" lon="6.70836667">
				<ele>1026.8</ele>
				<time>2013-08-14T07:26:27Z</time>
				<hdop>6.0</hdop>
			</trkpt>
			<trkpt lat="46.88613448" lon="6.7083792">
				<ele>1026.5</ele>
				<time>2013-08-14T07:26:28Z</time>
				<hdop>6.0</hdop>
			</trkpt>
			<trkpt lat="46.88613448" lon="6.7083792">
				<ele>1026.5</ele>
				<time>2013-08-14T07:26:29Z</time>
				<hdop>6.0</hdop>
			</trkpt>
			<trkpt lat="46.88612309" lon="6.70839096">
				<ele>1026.3</ele>
				<time>2013-08-14T07:26:30Z</time>
				<hdop>6.0</hdop>
			</trkpt>
			<trkpt lat="46.88612851" lon="6.70839701">
				<ele>1026.5</ele>
				<time>2013-08-14T07:26:31Z</time>
				<hdop>6.0</hdop>
			</trkpt>
			<trkpt lat="46.88612818" lon="6.70840303">
				<ele>1027.1</ele>
				<time>2013-08-14T07:26:32Z</time>
				<hdop>4.0</hdop>
			</trkpt>
			<trkpt lat="46.88612818" lon="6.70840299">
				<ele>1027.1</ele>
				<time>2013-08-14T07:26:33Z</time>
				<hdop>6.0</hdop>
			</trkpt>
			<trkpt lat="46.88612912" lon="6.70840213">
				<ele>1027.2</ele>
				<time>2013-08-14T07:26:34Z</time>
				<hdop>6.0</hdop>
			</trkpt>
			<trkpt lat="46.88612941" lon="6.70840208">
				<ele>1027.2</ele>
				<time>2013-08-14T07:26:35Z</time>
				<hdop>6.0</hdop>
			</trkpt>
			<trkpt lat="46.88612946" lon="6.70840225">
				<ele>1027.2</ele>
				<time>2013-08-14T07:26:36Z</time>
				<hdop>6.0</hdop>
			</trkpt>
			<trkpt lat="46.88612379" lon="6.70841179">
				<ele>1025.7</ele>
				<time>2013-08-14T07:26:37Z</time>
				<hdop>4.0</hdop>
			</trkpt>
			<trkpt lat="46.886124" lon="6.70841171">
				<ele>1025.7</ele>
				<time>2013-08-14T07:26:39Z</time>
				<hdop>4.0</hdop>
			</trkpt>
			<trkpt lat="46.88612434" lon="6.70841549">
				<ele>1025.9</ele>
				<time>2013-08-14T07:26:40Z</time>
				<hdop>4.0</hdop>
			</trkpt>
			<trkpt lat="46.88612435" lon="6.70841567">
				<ele>1025.9</ele>
				<time>2013-08-14T07:26:41Z</time>
				<hdop>4.0</hdop>
			</trkpt>
			<trkpt lat="46.88612437" lon="6.70841606">
				<ele>1025.9</ele>
				<time>2013-08-14T07:26:42Z</time>
				<hdop>3.0</hdop>
			</trkpt>
			<trkpt lat="46.88612663" lon="6.70842726">
				<ele>1025.9</ele>
				<time>2013-08-14T07:26:43Z</time>
				<hdop>3.0</hdop>
			</trkpt>
			<trkpt lat="46.88613035" lon="6.7084457">
				<ele>1025.8</ele>
				<time>2013-08-14T07:26:44Z</time>
				<hdop>4.0</hdop>
			</trkpt>
			<trkpt lat="46.88614588" lon="6.70848848">
				<ele>1025.9</ele>
				<time>2013-08-14T07:26:45Z</time>
				<hdop>4.0</hdop>
			</trkpt>
			<trkpt lat="46.88614722" lon="6.70857797">
				<ele>1024.5</ele>
				<time>2013-08-14T07:26:47Z</time>
				<hdop>6.0</hdop>
			</trkpt>
			<trkpt lat="46.88616437" lon="6.70861519">
				<ele>1024.7</ele>
				<time>2013-08-14T07:26:48Z</time>
				<hdop>6.0</hdop>
			</trkpt>
			<trkpt lat="46.88616824" lon="6.70864704">
				<ele>1023.3</ele>
				<time>2013-08-14T07:26:49Z</time>
				<hdop>6.0</hdop>
			</trkpt>
			<trkpt lat="46.88616929" lon="6.70866816">
				<ele>1023.4</ele>
				<time>2013-08-14T07:26:50Z</time>
				<hdop>8.0</hdop>
			</trkpt>
			<trkpt lat="46.88615424" lon="6.70871371">
				<ele>1024.2</ele>
				<time>2013-08-14T07:26:51Z</time>
				<hdop>8.0</hdop>
			</trkpt>
			<trkpt lat="46.88613898" lon="6.70878705">
				<ele>1024.5</ele>
				<time>2013-08-14T07:26:52Z</time>
				<hdop>8.0</hdop>
			</trkpt>
			<trkpt lat="46.88616281" lon="6.70881319">
				<ele>1024.2</ele>
				<time>2013-08-14T07:26:53Z</time>
				<hdop>6.0</hdop>
			</trkpt>
			<trkpt lat="46.88616841" lon="6.70886101">
				<ele>1024.4</ele>
				<time>2013-08-14T07:26:54Z</time>
				<hdop>6.0</hdop>
			</trkpt>
			<trkpt lat="46.88617041" lon="6.70888587">
				<ele>1023.9</ele>
				<time>2013-08-14T07:26:55Z</time>
				<hdop>6.0</hdop>
			</trkpt>
			<trkpt lat="46.88617383" lon="6.7089347">
				<ele>1024.3</ele>
				<time>2013-08-14T07:26:56Z</time>
				<hdop>6.0</hdop>
			</trkpt>
			<trkpt lat="46.88617804" lon="6.70894065">
				<ele>1024.3</ele>
				<time>2013-08-14T07:26:57Z</time>
				<hdop>4.0</hdop>
			</trkpt>
			<trkpt lat="46.88618396" lon="6.70893616">
				<ele>1023.9</ele>
				<time>2013-08-14T07:26:58Z</time>
				<hdop>4.0</hdop>
			</trkpt>
			<trkpt lat="46.88618499" lon="6.7089466">
				<ele>1023.6</ele>
				<time>2013-08-14T07:26:59Z</time>
				<hdop>4.0</hdop>
			</trkpt>
			<trkpt lat="46.88618524" lon="6.70894921">
				<ele>1023.6</ele>
				<time>2013-08-14T07:27:00Z</time>
				<hdop>4.0</hdop>
			</trkpt>
			<trkpt lat="46.88618737" lon="6.70895717">
				<ele>1023.5</ele>
				<time>2013-08-14T07:27:01Z</time>
				<hdop>4.0</hdop>
			</trkpt>
			<trkpt lat="46.88620608" lon="6.70895788">
				<ele>1019.1</ele>
				<time>2013-08-14T07:27:02Z</time>
				<hdop>4.0</hdop>
			</trkpt>
			<trkpt lat="46.88621022" lon="6.70896695">
				<ele>1019.0</ele>
				<time>2013-08-14T07:27:03Z</time>
				<hdop>4.0</hdop>
			</trkpt>
			<trkpt lat="46.88621898" lon="6.70897791">
				<ele>1019.1</ele>
				<time>2013-08-14T07:27:04Z</time>
				<hdop>6.0</hdop>
			</trkpt>
			<trkpt lat="46.88619829" lon="6.70905919">
				<ele>1019.7</ele>
				<time>2013-08-14T07:27:05Z</time>
				<hdop>6.0</hdop>
			</trkpt>
			<trkpt lat="46.88623107" lon="6.70908054">
				<ele>1019.3</ele>
				<time>2013-08-14T07:27:06Z</time>
				<hdop>6.0</hdop>
			</trkpt>
			<trkpt lat="46.88624227" lon="6.70912743">
				<ele>1019.3</ele>
				<time>2013-08-14T07:27:08Z</time>
				<hdop>6.0</hdop>
			</trkpt>
			<trkpt lat="46.88627789" lon="6.70915382">
				<ele>1015.4</ele>
				<time>2013-08-14T07:27:09Z</time>
				<hdop>6.0</hdop>
			</trkpt>
			<trkpt lat="46.88628915" lon="6.70919436">
				<ele>1015.4</ele>
				<time>2013-08-14T07:27:10Z</time>
				<hdop>6.0</hdop>
			</trkpt>
			<trkpt lat="46.88626105" lon="6.70925083">
				<ele>1014.2</ele>
				<time>2013-08-14T07:27:11Z</time>
				<hdop>4.0</hdop>
			</trkpt>
			<trkpt lat="46.88626644" lon="6.70925581">
				<ele>1013.7</ele>
				<time>2013-08-14T07:27:12Z</time>
				<hdop>4.0</hdop>
			</trkpt>
			<trkpt lat="46.88625586" lon="6.70928644">
				<ele>1012.8</ele>
				<time>2013-08-14T07:27:13Z</time>
				<hdop>4.0</hdop>
			</trkpt>
			<trkpt lat="46.88627118" lon="6.70930907">
				<ele>1009.3</ele>
				<time>2013-08-14T07:27:14Z</time>
				<hdop>4.0</hdop>
			</trkpt>
			<trkpt lat="46.88626404" lon="6.70936778">
				<ele>1009.6</ele>
				<time>2013-08-14T07:27:15Z</time>
				<hdop>4.0</hdop>
			</trkpt>
			<trkpt lat="46.88622109" lon="6.70943908">
				<ele>1007.3</ele>
				<time>2013-08-14T07:27:16Z</time>
				<hdop>3.0</hdop>
			</trkpt>
			<trkpt lat="46.88620742" lon="6.70945702">
				<ele>1005.9</ele>
				<time>2013-08-14T07:27:17Z</time>
				<hdop>4.0</hdop>
			</trkpt>
			<trkpt lat="46.88621013" lon="6.70948554">
				<ele>1004.2</ele>
				<time>2013-08-14T07:27:18Z</time>
				<hdop>3.0</hdop>
			</trkpt>
			<trkpt lat="46.88622647" lon="6.70949113">
				<ele>1000.5</ele>
				<time>2013-08-14T07:27:19Z</time>
				<hdop>3.0</hdop>
			</trkpt>
			<trkpt lat="46.88624653" lon="6.70948703">
				<ele>999.8</ele>
				<time>2013-08-14T07:27:20Z</time>
				<hdop>3.0</hdop>
			</trkpt>
			<trkpt lat="46.88624459" lon="6.70949363">
				<ele>1000.6</ele>
				<time>2013-08-14T07:27:22Z</time>
				<hdop>4.0</hdop>
			</trkpt>
			<trkpt lat="46.88622525" lon="6.70954606">
				<ele>1000.4</ele>
				<time>2013-08-14T07:27:24Z</time>
				<hdop>4.0</hdop>
			</trkpt>
			<trkpt lat="46.88621721" lon="6.7095653">
				<ele>1000.9</ele>
				<time>2013-08-14T07:27:25Z</time>
				<hdop>6.0</hdop>
			</trkpt>
			<trkpt lat="46.88620868" lon="6.70958248">
				<ele>1001.0</ele>
				<time>2013-08-14T07:27:26Z</time>
				<hdop>6.0</hdop>
			</trkpt>
			<trkpt lat="46.88628035" lon="6.70958499">
				<ele>998.6</ele>
				<time>2013-08-14T07:27:27Z</time>
				<hdop>6.0</hdop>
			</trkpt>
			<trkpt lat="46.88630104" lon="6.70957827">
				<ele>996.2</ele>
				<time>2013-08-14T07:27:28Z</time>
				<hdop>6.0</hdop>
			</trkpt>
			<trkpt lat="46.88628189" lon="6.70961812">
				<ele>995.4</ele>
				<time>2013-08-14T07:27:29Z</time>
				<hdop>6.0</hdop>
			</trkpt>
			<trkpt lat="46.88629926" lon="6.70960304">
				<ele>993.6</ele>
				<time>2013-08-14T07:27:30Z</time>
				<hdop>6.0</hdop>
			</trkpt>
			<trkpt lat="46.8862831" lon="6.70961054">
				<ele>992.3</ele>
				<time>2013-08-14T07:27:31Z</time>
				<hdop>6.0</hdop>
			</trkpt>
			<trkpt lat="46.88626421" lon="6.70965327">
				<ele>992.2</ele>
				<time>2013-08-14T07:27:33Z</time>
				<hdop>6.0</hdop>
			</trkpt>
			<trkpt lat="46.88627348" lon="6.70970778">
				<ele>991.9</ele>
				<time>2013-08-14T07:27:34Z</time>
				<hdop>6.0</hdop>
			</trkpt>
			<trkpt lat="46.88627703" lon="6.70974571">
				<ele>992.8</ele>
				<time>2013-08-14T07:27:35Z</time>
				<hdop>8.0</hdop>
			</trkpt>
			<trkpt lat="46.88628864" lon="6.70976398">
				<ele>994.1</ele>
				<time>2013-08-14T07:27:37Z</time>
				<hdop>8.0</hdop>
			</trkpt>
			<trkpt lat="46.88632249" lon="6.70974918">
				<ele>991.9</ele>
				<time>2013-08-14T07:27:38Z</time>
				<hdop>6.0</hdop>
			</trkpt>
			<trkpt lat="46.88634478" lon="6.70979205">
				<ele>992.2</ele>
				<time>2013-08-14T07:27:39Z</time>
				<hdop>6.0</hdop>
			</trkpt>
			<trkpt lat="46.88634159" lon="6.7098061">
				<ele>991.9</ele>
				<time>2013-08-14T07:27:40Z</time>
				<hdop>6.0</hdop>
			</trkpt>
			<trkpt lat="46.88633032" lon="6.70983718">
				<ele>992.4</ele>
				<time>2013-08-14T07:27:42Z</time>
				<hdop>6.0</hdop>
			</trkpt>
			<trkpt lat="46.8863263" lon="6.70986293">
				<ele>992.5</ele>
				<time>2013-08-14T07:27:43Z</time>
				<hdop>4.0</hdop>
			</trkpt>
			<trkpt lat="46.88634017" lon="6.70991106">
				<ele>993.7</ele>
				<time>2013-08-14T07:27:44Z</time>
				<hdop>4.0</hdop>
			</trkpt>
			<trkpt lat="46.88633293" lon="6.70992529">
				<ele>993.8</ele>
				<time>2013-08-14T07:27:45Z</time>
				<hdop>4.0</hdop>
			</trkpt>
			<trkpt lat="46.88632623" lon="6.70994288">
				<ele>993.6</ele>
				<time>2013-08-14T07:27:46Z</time>
				<hdop>4.0</hdop>
			</trkpt>
			<trkpt lat="46.88632117" lon="6.70995704">
				<ele>993.6</ele>
				<time>2013-08-14T07:27:47Z</time>
				<hdop>6.0</hdop>
			</trkpt>
			<trkpt lat="46.88631557" lon="6.70995619">
				<ele>992.2</ele>
				<time>2013-08-14T07:27:48Z</time>
				<hdop>6.0</hdop>
			</trkpt>
			<trkpt lat="46.88633841" lon="6.70997784">
				<ele>989.9</ele>
				<time>2013-08-14T07:27:49Z</time>
				<hdop>6.0</hdop>
			</trkpt>
			<trkpt lat="46.88630558" lon="6.71000836">
				<ele>987.7</ele>
				<time>2013-08-14T07:27:50Z</time>
				<hdop>6.0</hdop>
			</trkpt>
			<trkpt lat="46.88630162" lon="6.71002385">
				<ele>987.5</ele>
				<time>2013-08-14T07:27:51Z</time>
				<hdop>6.0</hdop>
			</trkpt>
			<trkpt lat="46.88629751" lon="6.71003551">
				<ele>987.7</ele>
				<time>2013-08-14T07:27:52Z</time>
				<hdop>6.0</hdop>
			</trkpt>
			<trkpt lat="46.88630739" lon="6.71004657">
				<ele>987.6</ele>
				<time>2013-08-14T07:27:53Z</time>
				<hdop>6.0</hdop>
			</trkpt>
			<trkpt lat="46.88631895" lon="6.71004493">
				<ele>987.8</ele>
				<time>2013-08-14T07:27:54Z</time>
				<hdop>6.0</hdop>
			</trkpt>
			<trkpt lat="46.88632914" lon="6.71007222">
				<ele>989.0</ele>
				<time>2013-08-14T07:27:56Z</time>
				<hdop>6.0</hdop>
			</trkpt>
			<trkpt lat="46.88633938" lon="6.71008564">
				<ele>989.3</ele>
				<time>2013-08-14T07:27:57Z</time>
				<hdop>6.0</hdop>
			</trkpt>
			<trkpt lat="46.8863533" lon="6.71009134">
				<ele>989.3</ele>
				<time>2013-08-14T07:27:58Z</time>
				<hdop>6.0</hdop>
			</trkpt>
			<trkpt lat="46.88635657" lon="6.71010375">
				<ele>988.5</ele>
				<time>2013-08-14T07:27:59Z</time>
				<hdop>6.0</hdop>
			</trkpt>
			<trkpt lat="46.88637692" lon="6.71010024">
				<ele>989.2</ele>
				<time>2013-08-14T07:28:00Z</time>
				<hdop>6.0</hdop>
			</trkpt>
			<trkpt lat="46.88637896" lon="6.71010888">
				<ele>989.2</ele>
				<time>2013-08-14T07:28:01Z</time>
				<hdop>8.0</hdop>
			</trkpt>
			<trkpt lat="46.88641166" lon="6.71009211">
				<ele>987.8</ele>
				<time>2013-08-14T07:28:02Z</time>
				<hdop>6.0</hdop>
			</trkpt>
			<trkpt lat="46.88643471" lon="6.71008149">
				<ele>984.4</ele>
				<time>2013-08-14T07:28:03Z</time>
				<hdop>6.0</hdop>
			</trkpt>
			<trkpt lat="46.88643471" lon="6.71008149">
				<ele>984.4</ele>
				<time>2013-08-14T07:28:04Z</time>
				<hdop>6.0</hdop>
			</trkpt>
			<trkpt lat="46.88642063" lon="6.71009122">
				<ele>984.5</ele>
				<time>2013-08-14T07:28:05Z</time>
				<hdop>6.0</hdop>
			</trkpt>
			<trkpt lat="46.88640622" lon="6.71013988">
				<ele>985.9</ele>
				<time>2013-08-14T07:28:07Z</time>
				<hdop>4.0</hdop>
			</trkpt>
			<trkpt lat="46.8864114" lon="6.71014841">
				<ele>986.2</ele>
				<time>2013-08-14T07:28:08Z</time>
				<hdop>4.0</hdop>
			</trkpt>
			<trkpt lat="46.88640875" lon="6.71015241">
				<ele>986.6</ele>
				<time>2013-08-14T07:28:09Z</time>
				<hdop>4.0</hdop>
			</trkpt>
			<trkpt lat="46.8864013" lon="6.7101594">
				<ele>986.8</ele>
				<time>2013-08-14T07:28:10Z</time>
				<hdop>3.0</hdop>
			</trkpt>
			<trkpt lat="46.8864013" lon="6.7101594">
				<ele>986.8</ele>
				<time>2013-08-14T07:28:11Z</time>
				<hdop>4.0</hdop>
			</trkpt>
			<trkpt lat="46.88639685" lon="6.71016148">
				<ele>986.9</ele>
				<time>2013-08-14T07:28:12Z</time>
				<hdop>4.0</hdop>
			</trkpt>
			<trkpt lat="46.8863934" lon="6.71016821">
				<ele>987.1</ele>
				<time>2013-08-14T07:28:13Z</time>
				<hdop>3.0</hdop>
			</trkpt>
			<trkpt lat="46.88639675" lon="6.71016608">
				<ele>987.7</ele>
				<time>2013-08-14T07:28:14Z</time>
				<hdop>4.0</hdop>
			</trkpt>
			<trkpt lat="46.88639675" lon="6.71016608">
				<ele>987.7</ele>
				<time>2013-08-14T07:28:15Z</time>
				<hdop>4.0</hdop>
			</trkpt>
			<trkpt lat="46.88639947" lon="6.71015723">
				<ele>987.3</ele>
				<time>2013-08-14T07:28:17Z</time>
				<hdop>6.0</hdop>
			</trkpt>
			<trkpt lat="46.88640093" lon="6.71015417">
				<ele>987.1</ele>
				<time>2013-08-14T07:28:18Z</time>
				<hdop>6.0</hdop>
			</trkpt>
			<trkpt lat="46.88640093" lon="6.71015417">
				<ele>987.1</ele>
				<time>2013-08-14T07:28:19Z</time>
				<hdop>6.0</hdop>
			</trkpt>
			<trkpt lat="46.88640027" lon="6.71015387">
				<ele>987.1</ele>
				<time>2013-08-14T07:28:20Z</time>
				<hdop>6.0</hdop>
			</trkpt>
			<trkpt lat="46.88640202" lon="6.71015053">
				<ele>987.0</ele>
				<time>2013-08-14T07:28:21Z</time>
				<hdop>6.0</hdop>
			</trkpt>
			<trkpt lat="46.88640202" lon="6.71015053">
				<ele>987.0</ele>
				<time>2013-08-14T07:28:22Z</time>
				<hdop>6.0</hdop>
			</trkpt>
			<trkpt lat="46.88640252" lon="6.71014942">
				<ele>986.9</ele>
				<time>2013-08-14T07:28:23Z</time>
				<hdop>6.0</hdop>
			</trkpt>
			<trkpt lat="46.88640208" lon="6.7101493">
				<ele>986.9</ele>
				<time>2013-08-14T07:28:24Z</time>
				<hdop>4.0</hdop>
			</trkpt>
			<trkpt lat="46.88640172" lon="6.71014909">
				<ele>986.9</ele>
				<time>2013-08-14T07:28:25Z</time>
				<hdop>4.0</hdop>
			</trkpt>
			<trkpt lat="46.88640197" lon="6.71014912">
				<ele>987.0</ele>
				<time>2013-08-14T07:28:26Z</time>
				<hdop>4.0</hdop>
			</trkpt>
			<trkpt lat="46.88640191" lon="6.71014981">
				<ele>987.1</ele>
				<time>2013-08-14T07:28:27Z</time>
				<hdop>4.0</hdop>
			</trkpt>
			<trkpt lat="46.88640246" lon="6.71014818">
				<ele>987.1</ele>
				<time>2013-08-14T07:28:28Z</time>
				<hdop>3.0</hdop>
			</trkpt>
			<trkpt lat="46.88640246" lon="6.71014818">
				<ele>987.1</ele>
				<time>2013-08-14T07:28:29Z</time>
				<hdop>4.0</hdop>
			</trkpt>
			<trkpt lat="46.88640292" lon="6.71014757">
				<ele>987.1</ele>
				<time>2013-08-14T07:28:30Z</time>
				<hdop>3.0</hdop>
			</trkpt>
			<trkpt lat="46.88640298" lon="6.71014701">
				<ele>987.0</ele>
				<time>2013-08-14T07:28:31Z</time>
				<hdop>3.0</hdop>
			</trkpt>
			<trkpt lat="46.88640271" lon="6.71014673">
				<ele>987.0</ele>
				<time>2013-08-14T07:28:32Z</time>
				<hdop>3.0</hdop>
			</trkpt>
			<trkpt lat="46.88640271" lon="6.71014673">
				<ele>987.0</ele>
				<time>2013-08-14T07:28:33Z</time>
				<hdop>4.0</hdop>
			</trkpt>
			<trkpt lat="46.88640275" lon="6.71014651">
				<ele>987.0</ele>
				<time>2013-08-14T07:28:34Z</time>
				<hdop>4.0</hdop>
			</trkpt>
			<trkpt lat="46.88640275" lon="6.71014651">
				<ele>987.0</ele>
				<time>2013-08-14T07:28:35Z</time>
				<hdop>4.0</hdop>
			</trkpt>
			<trkpt lat="46.88640246" lon="6.71014578">
				<ele>986.9</ele>
				<time>2013-08-14T07:28:36Z</time>
				<hdop>4.0</hdop>
			</trkpt>
			<trkpt lat="46.88640235" lon="6.71014616">
				<ele>987.0</ele>
				<time>2013-08-14T07:28:37Z</time>
				<hdop>4.0</hdop>
			</trkpt>
			<trkpt lat="46.8864023" lon="6.71014586">
				<ele>987.0</ele>
				<time>2013-08-14T07:28:39Z</time>
				<hdop>6.0</hdop>
			</trkpt>
			<trkpt lat="46.88640273" lon="6.7101458">
				<ele>987.0</ele>
				<time>2013-08-14T07:28:40Z</time>
				<hdop>6.0</hdop>
			</trkpt>
			<trkpt lat="46.88640283" lon="6.71014597">
				<ele>987.0</ele>
				<time>2013-08-14T07:28:41Z</time>
				<hdop>6.0</hdop>
			</trkpt>
			<trkpt lat="46.8864033" lon="6.71014429">
				<ele>986.9</ele>
				<time>2013-08-14T07:28:42Z</time>
				<hdop>6.0</hdop>
			</trkpt>
			<trkpt lat="46.88640345" lon="6.71014348">
				<ele>986.9</ele>
				<time>2013-08-14T07:28:43Z</time>
				<hdop>6.0</hdop>
			</trkpt>
			<trkpt lat="46.88640357" lon="6.71014305">
				<ele>986.8</ele>
				<time>2013-08-14T07:28:44Z</time>
				<hdop>6.0</hdop>
			</trkpt>
			<trkpt lat="46.88640436" lon="6.71014199">
				<ele>986.8</ele>
				<time>2013-08-14T07:28:45Z</time>
				<hdop>6.0</hdop>
			</trkpt>
			<trkpt lat="46.8864047" lon="6.71014164">
				<ele>986.9</ele>
				<time>2013-08-14T07:28:47Z</time>
				<hdop>6.0</hdop>
			</trkpt>
			<trkpt lat="46.8864047" lon="6.71014159">
				<ele>986.9</ele>
				<time>2013-08-14T07:28:48Z</time>
				<hdop>6.0</hdop>
			</trkpt>
			<trkpt lat="46.88640553" lon="6.71014003">
				<ele>986.8</ele>
				<time>2013-08-14T07:28:49Z</time>
				<hdop>4.0</hdop>
			</trkpt>
			<trkpt lat="46.8864058" lon="6.71013927">
				<ele>986.8</ele>
				<time>2013-08-14T07:28:50Z</time>
				<hdop>4.0</hdop>
			</trkpt>
			<trkpt lat="46.88640601" lon="6.7101382">
				<ele>986.7</ele>
				<time>2013-08-14T07:28:52Z</time>
				<hdop>4.0</hdop>
			</trkpt>
			<trkpt lat="46.88641033" lon="6.71012875">
				<ele>986.7</ele>
				<time>2013-08-14T07:28:53Z</time>
				<hdop>4.0</hdop>
			</trkpt>
			<trkpt lat="46.88644086" lon="6.71006451">
				<ele>985.9</ele>
				<time>2013-08-14T07:28:54Z</time>
				<hdop>4.0</hdop>
			</trkpt>
			<trkpt lat="46.88643818" lon="6.71000831">
				<ele>984.6</ele>
				<time>2013-08-14T07:28:55Z</time>
				<hdop>4.0</hdop>
			</trkpt>
			<trkpt lat="46.88644668" lon="6.70999193">
				<ele>984.4</ele>
				<time>2013-08-14T07:28:56Z</time>
				<hdop>4.0</hdop>
			</trkpt>
			<trkpt lat="46.88646707" lon="6.70991424">
				<ele>981.8</ele>
				<time>2013-08-14T07:28:57Z</time>
				<hdop>6.0</hdop>
			</trkpt>
			<trkpt lat="46.88650931" lon="6.70982927">
				<ele>981.3</ele>
				<time>2013-08-14T07:28:58Z</time>
				<hdop>4.0</hdop>
			</trkpt>
			<trkpt lat="46.88650883" lon="6.70978041">
				<ele>982.0</ele>
				<time>2013-08-14T07:28:59Z</time>
				<hdop>4.0</hdop>
			</trkpt>
			<trkpt lat="46.88652641" lon="6.70974175">
				<ele>981.3</ele>
				<time>2013-08-14T07:29:00Z</time>
				<hdop>4.0</hdop>
			</trkpt>
			<trkpt lat="46.88650671" lon="6.7097126">
				<ele>980.5</ele>
				<time>2013-08-14T07:29:01Z</time>
				<hdop>4.0</hdop>
			</trkpt>
			<trkpt lat="46.88653565" lon="6.70965398">
				<ele>981.2</ele>
				<time>2013-08-14T07:29:02Z</time>
				<hdop>4.0</hdop>
			</trkpt>
			<trkpt lat="46.88655867" lon="6.70959067">
				<ele>982.8</ele>
				<time>2013-08-14T07:29:04Z</time>
				<hdop>4.0</hdop>
			</trkpt>
			<trkpt lat="46.88660641" lon="6.70953309">
				<ele>983.3</ele>
				<time>2013-08-14T07:29:05Z</time>
				<hdop>4.0</hdop>
			</trkpt>
			<trkpt lat="46.88661518" lon="6.70951148">
				<ele>983.5</ele>
				<time>2013-08-14T07:29:06Z</time>
				<hdop>4.0</hdop>
			</trkpt>
			<trkpt lat="46.88660442" lon="6.70945914">
				<ele>983.4</ele>
				<time>2013-08-14T07:29:07Z</time>
				<hdop>4.0</hdop>
			</trkpt>
			<trkpt lat="46.88662639" lon="6.70938483">
				<ele>983.7</ele>
				<time>2013-08-14T07:29:08Z</time>
				<hdop>4.0</hdop>
			</trkpt>
			<trkpt lat="46.88663171" lon="6.70927316">
				<ele>977.5</ele>
				<time>2013-08-14T07:29:10Z</time>
				<hdop>4.0</hdop>
			</trkpt>
			<trkpt lat="46.88662051" lon="6.70922308">
				<ele>975.9</ele>
				<time>2013-08-14T07:29:11Z</time>
				<hdop>4.0</hdop>
			</trkpt>
			<trkpt lat="46.88663655" lon="6.70918783">
				<ele>975.6</ele>
				<time>2013-08-14T07:29:12Z</time>
				<hdop>4.0</hdop>
			</trkpt>
			<trkpt lat="46.88662048" lon="6.70916972">
				<ele>974.9</ele>
				<time>2013-08-14T07:29:13Z</time>
				<hdop>4.0</hdop>
			</trkpt>
			<trkpt lat="46.88662469" lon="6.70913547">
				<ele>975.3</ele>
				<time>2013-08-14T07:29:14Z</time>
				<hdop>4.0</hdop>
			</trkpt>
			<trkpt lat="46.88662885" lon="6.70911592">
				<ele>976.4</ele>
				<time>2013-08-14T07:29:15Z</time>
				<hdop>4.0</hdop>
			</trkpt>
			<trkpt lat="46.88662468" lon="6.70908287">
				<ele>976.4</ele>
				<time>2013-08-14T07:29:16Z</time>
				<hdop>3.0</hdop>
			</trkpt>
			<trkpt lat="46.88661722" lon="6.70905995">
				<ele>976.0</ele>
				<time>2013-08-14T07:29:17Z</time>
				<hdop>3.0</hdop>
			</trkpt>
			<trkpt lat="46.88662824" lon="6.70903231">
				<ele>978.1</ele>
				<time>2013-08-14T07:29:18Z</time>
				<hdop>3.0</hdop>
			</trkpt>
			<trkpt lat="46.88662296" lon="6.70901147">
				<ele>977.8</ele>
				<time>2013-08-14T07:29:19Z</time>
				<hdop>3.0</hdop>
			</trkpt>
			<trkpt lat="46.88660528" lon="6.70899217">
				<ele>978.3</ele>
				<time>2013-08-14T07:29:20Z</time>
				<hdop>3.0</hdop>
			</trkpt>
			<trkpt lat="46.88659849" lon="6.70899034">
				<ele>978.5</ele>
				<time>2013-08-14T07:29:21Z</time>
				<hdop>3.0</hdop>
			</trkpt>
			<trkpt lat="46.88659394" lon="6.70899521">
				<ele>978.4</ele>
				<time>2013-08-14T07:29:22Z</time>
				<hdop>3.0</hdop>
			</trkpt>
			<trkpt lat="46.88660158" lon="6.70899419">
				<ele>978.6</ele>
				<time>2013-08-14T07:29:23Z</time>
				<hdop>3.0</hdop>
			</trkpt>
			<trkpt lat="46.8866018" lon="6.70899043">
				<ele>978.7</ele>
				<time>2013-08-14T07:29:24Z</time>
				<hdop>3.0</hdop>
			</trkpt>
			<trkpt lat="46.88660001" lon="6.70898715">
				<ele>978.8</ele>
				<time>2013-08-14T07:29:25Z</time>
				<hdop>3.0</hdop>
			</trkpt>
			<trkpt lat="46.88659978" lon="6.70898667">
				<ele>978.9</ele>
				<time>2013-08-14T07:29:26Z</time>
				<hdop>3.0</hdop>
			</trkpt>
			<trkpt lat="46.88659667" lon="6.70898554">
				<ele>979.0</ele>
				<time>2013-08-14T07:29:27Z</time>
				<hdop>3.0</hdop>
			</trkpt>
			<trkpt lat="46.88659656" lon="6.70898382">
				<ele>979.1</ele>
				<time>2013-08-14T07:29:28Z</time>
				<hdop>3.0</hdop>
			</trkpt>
			<trkpt lat="46.88659815" lon="6.70897927">
				<ele>979.3</ele>
				<time>2013-08-14T07:29:29Z</time>
				<hdop>4.0</hdop>
			</trkpt>
			<trkpt lat="46.88659507" lon="6.70897559">
				<ele>979.5</ele>
				<time>2013-08-14T07:29:30Z</time>
				<hdop>4.0</hdop>
			</trkpt>
			<trkpt lat="46.88659328" lon="6.70897445">
				<ele>979.6</ele>
				<time>2013-08-14T07:29:31Z</time>
				<hdop>4.0</hdop>
			</trkpt>
			<trkpt lat="46.88659331" lon="6.70897404">
				<ele>979.5</ele>
				<time>2013-08-14T07:29:32Z</time>
				<hdop>6.0</hdop>
			</trkpt>
			<trkpt lat="46.88659298" lon="6.70897453">
				<ele>979.6</ele>
				<time>2013-08-14T07:29:33Z</time>
				<hdop>6.0</hdop>
			</trkpt>
			<trkpt lat="46.88659284" lon="6.70897452">
				<ele>979.6</ele>
				<time>2013-08-14T07:29:34Z</time>
				<hdop>6.0</hdop>
			</trkpt>
			<trkpt lat="46.88659313" lon="6.70897438">
				<ele>979.6</ele>
				<time>2013-08-14T07:29:35Z</time>
				<hdop>6.0</hdop>
			</trkpt>
			<trkpt lat="46.88659285" lon="6.70897523">
				<ele>979.6</ele>
				<time>2013-08-14T07:29:36Z</time>
				<hdop>6.0</hdop>
			</trkpt>
			<trkpt lat="46.88659242" lon="6.70897585">
				<ele>979.6</ele>
				<time>2013-08-14T07:29:37Z</time>
				<hdop>6.0</hdop>
			</trkpt>
			<trkpt lat="46.88659245" lon="6.70897618">
				<ele>979.6</ele>
				<time>2013-08-14T07:29:38Z</time>
				<hdop>6.0</hdop>
			</trkpt>
			<trkpt lat="46.8865928" lon="6.70897583">
				<ele>979.6</ele>
				<time>2013-08-14T07:29:39Z</time>
				<hdop>6.0</hdop>
			</trkpt>
			<trkpt lat="46.88659283" lon="6.70897616">
				<ele>979.6</ele>
				<time>2013-08-14T07:29:40Z</time>
				<hdop>6.0</hdop>
			</trkpt>
			<trkpt lat="46.88659122" lon="6.7089788">
				<ele>979.6</ele>
				<time>2013-08-14T07:29:41Z</time>
				<hdop>6.0</hdop>
			</trkpt>
			<trkpt lat="46.8865906" lon="6.70897958">
				<ele>979.7</ele>
				<time>2013-08-14T07:29:42Z</time>
				<hdop>6.0</hdop>
			</trkpt>
			<trkpt lat="46.88659007" lon="6.70897992">
				<ele>979.7</ele>
				<time>2013-08-14T07:29:43Z</time>
				<hdop>6.0</hdop>
			</trkpt>
			<trkpt lat="46.88658962" lon="6.70898006">
				<ele>979.7</ele>
				<time>2013-08-14T07:29:44Z</time>
				<hdop>6.0</hdop>
			</trkpt>
			<trkpt lat="46.8865901" lon="6.70897932">
				<ele>979.7</ele>
				<time>2013-08-14T07:29:45Z</time>
				<hdop>6.0</hdop>
			</trkpt>
			<trkpt lat="46.8865901" lon="6.70897932">
				<ele>979.7</ele>
				<time>2013-08-14T07:29:46Z</time>
				<hdop>8.0</hdop>
			</trkpt>
			<trkpt lat="46.88658991" lon="6.70897923">
				<ele>979.7</ele>
				<time>2013-08-14T07:29:47Z</time>
				<hdop>8.0</hdop>
			</trkpt>
			<trkpt lat="46.88658986" lon="6.70897916">
				<ele>979.6</ele>
				<time>2013-08-14T07:29:48Z</time>
				<hdop>8.0</hdop>
			</trkpt>
			<trkpt lat="46.88658968" lon="6.70897932">
				<ele>979.6</ele>
				<time>2013-08-14T07:29:49Z</time>
				<hdop>8.0</hdop>
			</trkpt>
			<trkpt lat="46.88658922" lon="6.70897937">
				<ele>979.6</ele>
				<time>2013-08-14T07:29:50Z</time>
				<hdop>8.0</hdop>
			</trkpt>
			<trkpt lat="46.88658923" lon="6.70897941">
				<ele>979.7</ele>
				<time>2013-08-14T07:29:51Z</time>
				<hdop>8.0</hdop>
			</trkpt>
			<trkpt lat="46.88658814" lon="6.70897477">
				<ele>979.7</ele>
				<time>2013-08-14T07:29:52Z</time>
				<hdop>12.0</hdop>
			</trkpt>
			<trkpt lat="46.88657283" lon="6.70891226">
				<ele>979.7</ele>
				<time>2013-08-14T07:29:53Z</time>
				<hdop>12.0</hdop>
			</trkpt>
			<trkpt lat="46.88657813" lon="6.70879323">
				<ele>979.1</ele>
				<time>2013-08-14T07:29:54Z</time>
				<hdop>12.0</hdop>
			</trkpt>
			<trkpt lat="46.88656543" lon="6.70866838">
				<ele>979.0</ele>
				<time>2013-08-14T07:29:56Z</time>
				<hdop>12.0</hdop>
			</trkpt>
			<trkpt lat="46.88657447" lon="6.70862443">
				<ele>979.5</ele>
				<time>2013-08-14T07:29:57Z</time>
				<hdop>12.0</hdop>
			</trkpt>
			<trkpt lat="46.88656766" lon="6.70859953">
				<ele>980.1</ele>
				<time>2013-08-14T07:29:58Z</time>
				<hdop>12.0</hdop>
			</trkpt>
			<trkpt lat="46.88655734" lon="6.70857746">
				<ele>980.7</ele>
				<time>2013-08-14T07:29:59Z</time>
				<hdop>12.0</hdop>
			</trkpt>
			<trkpt lat="46.88655623" lon="6.70853283">
				<ele>980.9</ele>
				<time>2013-08-14T07:30:00Z</time>
				<hdop>12.0</hdop>
			</trkpt>
			<trkpt lat="46.88654692" lon="6.70850072">
				<ele>981.5</ele>
				<time>2013-08-14T07:30:01Z</time>
				<hdop>8.0</hdop>
			</trkpt>
			<trkpt lat="46.88653693" lon="6.70845698">
				<ele>981.6</ele>
				<time>2013-08-14T07:30:02Z</time>
				<hdop>8.0</hdop>
			</trkpt>
			<trkpt lat="46.88651989" lon="6.70843487">
				<ele>981.1</ele>
				<time>2013-08-14T07:30:03Z</time>
				<hdop>8.0</hdop>
			</trkpt>
			<trkpt lat="46.88652301" lon="6.70842363">
				<ele>981.0</ele>
				<time>2013-08-14T07:30:04Z</time>
				<hdop>8.0</hdop>
			</trkpt>
			<trkpt lat="46.88651913" lon="6.70840344">
				<ele>980.6</ele>
				<time>2013-08-14T07:30:05Z</time>
				<hdop>8.0</hdop>
			</trkpt>
			<trkpt lat="46.88651869" lon="6.70836867">
				<ele>980.9</ele>
				<time>2013-08-14T07:30:06Z</time>
				<hdop>8.0</hdop>
			</trkpt>
			<trkpt lat="46.88652113" lon="6.70832038">
				<ele>981.7</ele>
				<time>2013-08-14T07:30:07Z</time>
				<hdop>8.0</hdop>
			</trkpt>
			<trkpt lat="46.88652364" lon="6.70826887">
				<ele>982.2</ele>
				<time>2013-08-14T07:30:08Z</time>
				<hdop>12.0</hdop>
			</trkpt>
			<trkpt lat="46.88652594" lon="6.70820286">
				<ele>982.8</ele>
				<time>2013-08-14T07:30:09Z</time>
				<hdop>12.0</hdop>
			</trkpt>
			<trkpt lat="46.88649982" lon="6.70811446">
				<ele>982.1</ele>
				<time>2013-08-14T07:30:11Z</time>
				<hdop>12.0</hdop>
			</trkpt>
			<trkpt lat="46.88648796" lon="6.70808067">
				<ele>981.1</ele>
				<time>2013-08-14T07:30:12Z</time>
				<hdop>12.0</hdop>
			</trkpt>
			<trkpt lat="46.88650858" lon="6.7080267">
				<ele>981.7</ele>
				<time>2013-08-14T07:30:13Z</time>
				<hdop>12.0</hdop>
			</trkpt>
			<trkpt lat="46.88651619" lon="6.70797089">
				<ele>982.4</ele>
				<time>2013-08-14T07:30:14Z</time>
				<hdop>12.0</hdop>
			</trkpt>
			<trkpt lat="46.8865261" lon="6.70791116">
				<ele>982.6</ele>
				<time>2013-08-14T07:30:15Z</time>
				<hdop>12.0</hdop>
			</trkpt>
			<trkpt lat="46.88653809" lon="6.70786072">
				<ele>982.7</ele>
				<time>2013-08-14T07:30:16Z</time>
				<hdop>12.0</hdop>
			</trkpt>
			<trkpt lat="46.88653802" lon="6.70782547">
				<ele>982.6</ele>
				<time>2013-08-14T07:30:17Z</time>
				<hdop>16.0</hdop>
			</trkpt>
			<trkpt lat="46.88655831" lon="6.70777033">
				<ele>982.5</ele>
				<time>2013-08-14T07:30:18Z</time>
				<hdop>12.0</hdop>
			</trkpt>
			<trkpt lat="46.88655509" lon="6.70776147">
				<ele>983.6</ele>
				<time>2013-08-14T07:30:19Z</time>
				<hdop>12.0</hdop>
			</trkpt>
			<trkpt lat="46.88655715" lon="6.70774302">
				<ele>983.7</ele>
				<time>2013-08-14T07:30:20Z</time>
				<hdop>12.0</hdop>
			</trkpt>
			<trkpt lat="46.88656776" lon="6.70769976">
				<ele>983.9</ele>
				<time>2013-08-14T07:30:21Z</time>
				<hdop>12.0</hdop>
			</trkpt>
			<trkpt lat="46.8865745" lon="6.70768822">
				<ele>984.4</ele>
				<time>2013-08-14T07:30:22Z</time>
				<hdop>8.0</hdop>
			</trkpt>
			<trkpt lat="46.88658498" lon="6.70764275">
				<ele>984.5</ele>
				<time>2013-08-14T07:30:23Z</time>
				<hdop>8.0</hdop>
			</trkpt>
			<trkpt lat="46.88660241" lon="6.70762479">
				<ele>985.4</ele>
				<time>2013-08-14T07:30:24Z</time>
				<hdop>8.0</hdop>
			</trkpt>
			<trkpt lat="46.886609" lon="6.7076008">
				<ele>986.1</ele>
				<time>2013-08-14T07:30:25Z</time>
				<hdop>8.0</hdop>
			</trkpt>
			<trkpt lat="46.88659638" lon="6.70759732">
				<ele>986.6</ele>
				<time>2013-08-14T07:30:26Z</time>
				<hdop>8.0</hdop>
			</trkpt>
			<trkpt lat="46.88660124" lon="6.70757195">
				<ele>986.6</ele>
				<time>2013-08-14T07:30:27Z</time>
				<hdop>8.0</hdop>
			</trkpt>
			<trkpt lat="46.88660865" lon="6.70755818">
				<ele>987.3</ele>
				<time>2013-08-14T07:30:28Z</time>
				<hdop>8.0</hdop>
			</trkpt>
			<trkpt lat="46.88661721" lon="6.70753659">
				<ele>987.5</ele>
				<time>2013-08-14T07:30:29Z</time>
				<hdop>8.0</hdop>
			</trkpt>
			<trkpt lat="46.88661361" lon="6.70753431">
				<ele>988.3</ele>
				<time>2013-08-14T07:30:30Z</time>
				<hdop>8.0</hdop>
			</trkpt>
			<trkpt lat="46.88662076" lon="6.70751083">
				<ele>988.4</ele>
				<time>2013-08-14T07:30:31Z</time>
				<hdop>8.0</hdop>
			</trkpt>
			<trkpt lat="46.88662894" lon="6.70749286">
				<ele>988.3</ele>
				<time>2013-08-14T07:30:32Z</time>
				<hdop>8.0</hdop>
			</trkpt>
			<trkpt lat="46.88662841" lon="6.70749413">
				<ele>988.5</ele>
				<time>2013-08-14T07:30:33Z</time>
				<hdop>8.0</hdop>
			</trkpt>
			<trkpt lat="46.88662069" lon="6.70749683">
				<ele>988.7</ele>
				<time>2013-08-14T07:30:34Z</time>
				<hdop>8.0</hdop>
			</trkpt>
			<trkpt lat="46.8866168" lon="6.70748492">
				<ele>988.6</ele>
				<time>2013-08-14T07:30:35Z</time>
				<hdop>8.0</hdop>
			</trkpt>
			<trkpt lat="46.88661875" lon="6.70744316">
				<ele>988.7</ele>
				<time>2013-08-14T07:30:36Z</time>
				<hdop>8.0</hdop>
			</trkpt>
			<trkpt lat="46.8866104" lon="6.70743853">
				<ele>988.9</ele>
				<time>2013-08-14T07:30:37Z</time>
				<hdop>12.0</hdop>
			</trkpt>
			<trkpt lat="46.88661588" lon="6.70743488">
				<ele>989.1</ele>
				<time>2013-08-14T07:30:38Z</time>
				<hdop>12.0</hdop>
			</trkpt>
			<trkpt lat="46.88663628" lon="6.70741094">
				<ele>988.9</ele>
				<time>2013-08-14T07:30:39Z</time>
				<hdop>12.0</hdop>
			</trkpt>
			<trkpt lat="46.88664611" lon="6.7073964">
				<ele>988.7</ele>
				<time>2013-08-14T07:30:40Z</time>
				<hdop>12.0</hdop>
			</trkpt>
			<trkpt lat="46.88665785" lon="6.70739249">
				<ele>989.2</ele>
				<time>2013-08-14T07:30:41Z</time>
				<hdop>16.0</hdop>
			</trkpt>
			<trkpt lat="46.88666937" lon="6.70736535">
				<ele>989.2</ele>
				<time>2013-08-14T07:30:42Z</time>
				<hdop>16.0</hdop>
			</trkpt>
			<trkpt lat="46.88668386" lon="6.70735739">
				<ele>989.2</ele>
				<time>2013-08-14T07:30:43Z</time>
				<hdop>16.0</hdop>
			</trkpt>
			<trkpt lat="46.88668975" lon="6.70730362">
				<ele>989.1</ele>
				<time>2013-08-14T07:30:44Z</time>
				<hdop>16.0</hdop>
			</trkpt>
			<trkpt lat="46.88670759" lon="6.70731335">
				<ele>989.1</ele>
				<time>2013-08-14T07:30:45Z</time>
				<hdop>16.0</hdop>
			</trkpt>
			<trkpt lat="46.88668743" lon="6.70731193">
				<ele>989.6</ele>
				<time>2013-08-14T07:30:46Z</time>
				<hdop>16.0</hdop>
			</trkpt>
			<trkpt lat="46.88667836" lon="6.70731872">
				<ele>989.2</ele>
				<time>2013-08-14T07:30:47Z</time>
				<hdop>16.0</hdop>
			</trkpt>
			<trkpt lat="46.88672792" lon="6.70727408">
				<ele>989.5</ele>
				<time>2013-08-14T07:30:48Z</time>
				<hdop>16.0</hdop>
			</trkpt>
			<trkpt lat="46.88674469" lon="6.70724873">
				<ele>989.0</ele>
				<time>2013-08-14T07:30:49Z</time>
				<hdop>16.0</hdop>
			</trkpt>
			<trkpt lat="46.8867567" lon="6.70718985">
				<ele>989.0</ele>
				<time>2013-08-14T07:30:50Z</time>
				<hdop>12.0</hdop>
			</trkpt>
			<trkpt lat="46.88677032" lon="6.70717623">
				<ele>989.2</ele>
				<time>2013-08-14T07:30:51Z</time>
				<hdop>12.0</hdop>
			</trkpt>
			<trkpt lat="46.88676458" lon="6.70717366">
				<ele>989.3</ele>
				<time>2013-08-14T07:30:52Z</time>
				<hdop>12.0</hdop>
			</trkpt>
			<trkpt lat="46.88678732" lon="6.70715192">
				<ele>988.8</ele>
				<time>2013-08-14T07:30:53Z</time>
				<hdop>12.0</hdop>
			</trkpt>
			<trkpt lat="46.88677888" lon="6.70713749">
				<ele>989.3</ele>
				<time>2013-08-14T07:30:54Z</time>
				<hdop>8.0</hdop>
			</trkpt>
			<trkpt lat="46.88682115" lon="6.70710692">
				<ele>988.8</ele>
				<time>2013-08-14T07:30:55Z</time>
				<hdop>8.0</hdop>
			</trkpt>
			<trkpt lat="46.88685649" lon="6.70707127">
				<ele>988.7</ele>
				<time>2013-08-14T07:30:56Z</time>
				<hdop>8.0</hdop>
			</trkpt>
			<trkpt lat="46.88682017" lon="6.70706379">
				<ele>990.6</ele>
				<time>2013-08-14T07:30:57Z</time>
				<hdop>6.0</hdop>
			</trkpt>
			<trkpt lat="46.88683326" lon="6.70704083">
				<ele>991.6</ele>
				<time>2013-08-14T07:30:58Z</time>
				<hdop>6.0</hdop>
			</trkpt>
			<trkpt lat="46.88684816" lon="6.70699526">
				<ele>992.2</ele>
				<time>2013-08-14T07:30:59Z</time>
				<hdop>6.0</hdop>
			</trkpt>
			<trkpt lat="46.88686598" lon="6.706997">
				<ele>993.3</ele>
				<time>2013-08-14T07:31:00Z</time>
				<hdop>6.0</hdop>
			</trkpt>
			<trkpt lat="46.88687481" lon="6.70699369">
				<ele>992.9</ele>
				<time>2013-08-14T07:31:01Z</time>
				<hdop>4.0</hdop>
			</trkpt>
			<trkpt lat="46.88687841" lon="6.70695981">
				<ele>993.0</ele>
				<time>2013-08-14T07:31:02Z</time>
				<hdop>6.0</hdop>
			</trkpt>
			<trkpt lat="46.88689702" lon="6.70691448">
				<ele>993.1</ele>
				<time>2013-08-14T07:31:03Z</time>
				<hdop>6.0</hdop>
			</trkpt>
			<trkpt lat="46.88689397" lon="6.70690546">
				<ele>993.9</ele>
				<time>2013-08-14T07:31:04Z</time>
				<hdop>6.0</hdop>
			</trkpt>
			<trkpt lat="46.88691486" lon="6.70687867">
				<ele>994.0</ele>
				<time>2013-08-14T07:31:05Z</time>
				<hdop>6.0</hdop>
			</trkpt>
			<trkpt lat="46.88692968" lon="6.70685788">
				<ele>994.7</ele>
				<time>2013-08-14T07:31:06Z</time>
				<hdop>6.0</hdop>
			</trkpt>
			<trkpt lat="46.88694088" lon="6.70685826">
				<ele>995.6</ele>
				<time>2013-08-14T07:31:07Z</time>
				<hdop>6.0</hdop>
			</trkpt>
			<trkpt lat="46.88695255" lon="6.7068477">
				<ele>995.5</ele>
				<time>2013-08-14T07:31:08Z</time>
				<hdop>6.0</hdop>
			</trkpt>
			<trkpt lat="46.88696023" lon="6.70682753">
				<ele>995.0</ele>
				<time>2013-08-14T07:31:09Z</time>
				<hdop>6.0</hdop>
			</trkpt>
			<trkpt lat="46.88697148" lon="6.70682325">
				<ele>996.7</ele>
				<time>2013-08-14T07:31:10Z</time>
				<hdop>6.0</hdop>
			</trkpt>
			<trkpt lat="46.88700014" lon="6.70679525">
				<ele>996.0</ele>
				<time>2013-08-14T07:31:11Z</time>
				<hdop>6.0</hdop>
			</trkpt>
			<trkpt lat="46.88699784" lon="6.70678486">
				<ele>995.6</ele>
				<time>2013-08-14T07:31:12Z</time>
				<hdop>6.0</hdop>
			</trkpt>
			<trkpt lat="46.88700847" lon="6.70677923">
				<ele>996.0</ele>
				<time>2013-08-14T07:31:13Z</time>
				<hdop>6.0</hdop>
			</trkpt>
			<trkpt lat="46.88703285" lon="6.7067272">
				<ele>987.4</ele>
				<time>2013-08-14T07:31:14Z</time>
				<hdop>3.0</hdop>
			</trkpt>
			<trkpt lat="46.88701957" lon="6.70674062">
				<ele>984.9</ele>
				<time>2013-08-14T07:31:15Z</time>
				<hdop>3.0</hdop>
			</trkpt>
			<trkpt lat="46.8870237" lon="6.70673166">
				<ele>984.7</ele>
				<time>2013-08-14T07:31:16Z</time>
				<hdop>4.0</hdop>
			</trkpt>
			<trkpt lat="46.88702515" lon="6.70663722">
				<ele>984.1</ele>
				<time>2013-08-14T07:31:18Z</time>
				<hdop>3.0</hdop>
			</trkpt>
			<trkpt lat="46.88703607" lon="6.706627">
				<ele>984.6</ele>
				<time>2013-08-14T07:31:19Z</time>
				<hdop>3.0</hdop>
			</trkpt>
			<trkpt lat="46.88704638" lon="6.7066232">
				<ele>985.0</ele>
				<time>2013-08-14T07:31:20Z</time>
				<hdop>3.0</hdop>
			</trkpt>
			<trkpt lat="46.88706979" lon="6.70661648">
				<ele>984.7</ele>
				<time>2013-08-14T07:31:21Z</time>
				<hdop>3.0</hdop>
			</trkpt>
			<trkpt lat="46.88707661" lon="6.70660384">
				<ele>984.6</ele>
				<time>2013-08-14T07:31:22Z</time>
				<hdop>3.0</hdop>
			</trkpt>
			<trkpt lat="46.88707702" lon="6.70659656">
				<ele>985.0</ele>
				<time>2013-08-14T07:31:23Z</time>
				<hdop>3.0</hdop>
			</trkpt>
			<trkpt lat="46.88708302" lon="6.70658358">
				<ele>984.9</ele>
				<time>2013-08-14T07:31:24Z</time>
				<hdop>3.0</hdop>
			</trkpt>
			<trkpt lat="46.88708449" lon="6.7065738">
				<ele>984.9</ele>
				<time>2013-08-14T07:31:25Z</time>
				<hdop>3.0</hdop>
			</trkpt>
			<trkpt lat="46.88708852" lon="6.70654824">
				<ele>985.0</ele>
				<time>2013-08-14T07:31:26Z</time>
				<hdop>3.0</hdop>
			</trkpt>
			<trkpt lat="46.88708316" lon="6.70654155">
				<ele>984.9</ele>
				<time>2013-08-14T07:31:27Z</time>
				<hdop>3.0</hdop>
			</trkpt>
			<trkpt lat="46.88708566" lon="6.70653078">
				<ele>985.5</ele>
				<time>2013-08-14T07:31:28Z</time>
				<hdop>3.0</hdop>
			</trkpt>
			<trkpt lat="46.88711504" lon="6.70650682">
				<ele>986.2</ele>
				<time>2013-08-14T07:31:29Z</time>
				<hdop>2.0</hdop>
			</trkpt>
			<trkpt lat="46.88711991" lon="6.7064988">
				<ele>986.1</ele>
				<time>2013-08-14T07:31:30Z</time>
				<hdop>2.0</hdop>
			</trkpt>
			<trkpt lat="46.88712452" lon="6.7064853">
				<ele>986.5</ele>
				<time>2013-08-14T07:31:31Z</time>
				<hdop>2.0</hdop>
			</trkpt>
			<trkpt lat="46.88711842" lon="6.70648952">
				<ele>986.3</ele>
				<time>2013-08-14T07:31:32Z</time>
				<hdop>2.0</hdop>
			</trkpt>
			<trkpt lat="46.88711875" lon="6.70647164">
				<ele>986.7</ele>
				<time>2013-08-14T07:31:33Z</time>
				<hdop>2.0</hdop>
			</trkpt>
			<trkpt lat="46.8871305" lon="6.70644574">
				<ele>986.6</ele>
				<time>2013-08-14T07:31:34Z</time>
				<hdop>2.0</hdop>
			</trkpt>
			<trkpt lat="46.88714196" lon="6.70641085">
				<ele>986.3</ele>
				<time>2013-08-14T07:31:35Z</time>
				<hdop>1.5</hdop>
			</trkpt>
			<trkpt lat="46.88713213" lon="6.70638413">
				<ele>986.3</ele>
				<time>2013-08-14T07:31:36Z</time>
				<hdop>1.5</hdop>
			</trkpt>
			<trkpt lat="46.88712733" lon="6.7063692">
				<ele>985.9</ele>
				<time>2013-08-14T07:31:37Z</time>
				<hdop>1.5</hdop>
			</trkpt>
			<trkpt lat="46.88712739" lon="6.70635953">
				<ele>986.0</ele>
				<time>2013-08-14T07:31:38Z</time>
				<hdop>1.5</hdop>
			</trkpt>
			<trkpt lat="46.88713641" lon="6.70633726">
				<ele>986.5</ele>
				<time>2013-08-14T07:31:39Z</time>
				<hdop>1.5</hdop>
			</trkpt>
			<trkpt lat="46.88713655" lon="6.70633169">
				<ele>986.7</ele>
				<time>2013-08-14T07:31:40Z</time>
				<hdop>1.5</hdop>
			</trkpt>
			<trkpt lat="46.8871416" lon="6.70631635">
				<ele>986.6</ele>
				<time>2013-08-14T07:31:41Z</time>
				<hdop>2.0</hdop>
			</trkpt>
			<trkpt lat="46.88715553" lon="6.70627861">
				<ele>987.6</ele>
				<time>2013-08-14T07:31:42Z</time>
				<hdop>2.0</hdop>
			</trkpt>
			<trkpt lat="46.88717314" lon="6.70626027">
				<ele>988.2</ele>
				<time>2013-08-14T07:31:43Z</time>
				<hdop>3.0</hdop>
			</trkpt>
			<trkpt lat="46.88718099" lon="6.70625425">
				<ele>988.7</ele>
				<time>2013-08-14T07:31:44Z</time>
				<hdop>3.0</hdop>
			</trkpt>
			<trkpt lat="46.88718647" lon="6.70623115">
				<ele>989.5</ele>
				<time>2013-08-14T07:31:45Z</time>
				<hdop>3.0</hdop>
			</trkpt>
			<trkpt lat="46.88719132" lon="6.70620362">
				<ele>990.5</ele>
				<time>2013-08-14T07:31:46Z</time>
				<hdop>3.0</hdop>
			</trkpt>
			<trkpt lat="46.88719129" lon="6.70619131">
				<ele>990.8</ele>
				<time>2013-08-14T07:31:47Z</time>
				<hdop>3.0</hdop>
			</trkpt>
			<trkpt lat="46.8872064" lon="6.70618702">
				<ele>991.0</ele>
				<time>2013-08-14T07:31:48Z</time>
				<hdop>3.0</hdop>
			</trkpt>
			<trkpt lat="46.8872208" lon="6.70616845">
				<ele>991.7</ele>
				<time>2013-08-14T07:31:49Z</time>
				<hdop>3.0</hdop>
			</trkpt>
			<trkpt lat="46.88721252" lon="6.70614557">
				<ele>992.4</ele>
				<time>2013-08-14T07:31:50Z</time>
				<hdop>3.0</hdop>
			</trkpt>
			<trkpt lat="46.88721492" lon="6.70614376">
				<ele>991.7</ele>
				<time>2013-08-14T07:31:51Z</time>
				<hdop>3.0</hdop>
			</trkpt>
			<trkpt lat="46.88721492" lon="6.7061391">
				<ele>991.0</ele>
				<time>2013-08-14T07:31:52Z</time>
				<hdop>3.0</hdop>
			</trkpt>
			<trkpt lat="46.88720497" lon="6.70613161">
				<ele>990.9</ele>
				<time>2013-08-14T07:31:53Z</time>
				<hdop>3.0</hdop>
			</trkpt>
			<trkpt lat="46.88723364" lon="6.70610387">
				<ele>991.5</ele>
				<time>2013-08-14T07:31:54Z</time>
				<hdop>3.0</hdop>
			</trkpt>
			<trkpt lat="46.88723135" lon="6.70608772">
				<ele>991.3</ele>
				<time>2013-08-14T07:31:55Z</time>
				<hdop>3.0</hdop>
			</trkpt>
			<trkpt lat="46.8872452" lon="6.70606061">
				<ele>991.9</ele>
				<time>2013-08-14T07:31:56Z</time>
				<hdop>3.0</hdop>
			</trkpt>
			<trkpt lat="46.88725303" lon="6.70604121">
				<ele>992.0</ele>
				<time>2013-08-14T07:31:57Z</time>
				<hdop>3.0</hdop>
			</trkpt>
			<trkpt lat="46.88725996" lon="6.70603404">
				<ele>992.0</ele>
				<time>2013-08-14T07:31:58Z</time>
				<hdop>3.0</hdop>
			</trkpt>
			<trkpt lat="46.88725525" lon="6.70601054">
				<ele>992.2</ele>
				<time>2013-08-14T07:31:59Z</time>
				<hdop>2.0</hdop>
			</trkpt>
			<trkpt lat="46.88725209" lon="6.70599498">
				<ele>992.4</ele>
				<time>2013-08-14T07:32:00Z</time>
				<hdop>2.0</hdop>
			</trkpt>
			<trkpt lat="46.88726503" lon="6.70598116">
				<ele>992.7</ele>
				<time>2013-08-14T07:32:01Z</time>
				<hdop>2.0</hdop>
			</trkpt>
			<trkpt lat="46.88727138" lon="6.70596949">
				<ele>992.6</ele>
				<time>2013-08-14T07:32:02Z</time>
				<hdop>2.0</hdop>
			</trkpt>
			<trkpt lat="46.88726516" lon="6.70596185">
				<ele>992.6</ele>
				<time>2013-08-14T07:32:03Z</time>
				<hdop>2.0</hdop>
			</trkpt>
			<trkpt lat="46.88727166" lon="6.70593247">
				<ele>993.1</ele>
				<time>2013-08-14T07:32:04Z</time>
				<hdop>3.0</hdop>
			</trkpt>
			<trkpt lat="46.88725854" lon="6.70591509">
				<ele>993.0</ele>
				<time>2013-08-14T07:32:05Z</time>
				<hdop>3.0</hdop>
			</trkpt>
			<trkpt lat="46.88727539" lon="6.70589798">
				<ele>993.1</ele>
				<time>2013-08-14T07:32:06Z</time>
				<hdop>3.0</hdop>
			</trkpt>
			<trkpt lat="46.88729245" lon="6.70588388">
				<ele>992.8</ele>
				<time>2013-08-14T07:32:07Z</time>
				<hdop>4.0</hdop>
			</trkpt>
			<trkpt lat="46.88728253" lon="6.70592423">
				<ele>992.1</ele>
				<time>2013-08-14T07:32:08Z</time>
				<hdop>4.0</hdop>
			</trkpt>
			<trkpt lat="46.88726513" lon="6.70592175">
				<ele>990.9</ele>
				<time>2013-08-14T07:32:09Z</time>
				<hdop>4.0</hdop>
			</trkpt>
			<trkpt lat="46.88725387" lon="6.7058883">
				<ele>991.2</ele>
				<time>2013-08-14T07:32:10Z</time>
				<hdop>4.0</hdop>
			</trkpt>
			<trkpt lat="46.88725775" lon="6.70587162">
				<ele>991.0</ele>
				<time>2013-08-14T07:32:11Z</time>
				<hdop>4.0</hdop>
			</trkpt>
			<trkpt lat="46.88725058" lon="6.70587205">
				<ele>990.6</ele>
				<time>2013-08-14T07:32:12Z</time>
				<hdop>4.0</hdop>
			</trkpt>
			<trkpt lat="46.88725471" lon="6.70584709">
				<ele>990.6</ele>
				<time>2013-08-14T07:32:13Z</time>
				<hdop>4.0</hdop>
			</trkpt>
			<trkpt lat="46.88724611" lon="6.70583095">
				<ele>990.3</ele>
				<time>2013-08-14T07:32:14Z</time>
				<hdop>4.0</hdop>
			</trkpt>
			<trkpt lat="46.88726482" lon="6.70581416">
				<ele>990.1</ele>
				<time>2013-08-14T07:32:15Z</time>
				<hdop>4.0</hdop>
			</trkpt>
			<trkpt lat="46.8872786" lon="6.70580452">
				<ele>990.3</ele>
				<time>2013-08-14T07:32:16Z</time>
				<hdop>4.0</hdop>
			</trkpt>
			<trkpt lat="46.88727756" lon="6.70579945">
				<ele>990.5</ele>
				<time>2013-08-14T07:32:17Z</time>
				<hdop>4.0</hdop>
			</trkpt>
			<trkpt lat="46.88727534" lon="6.70579681">
				<ele>990.4</ele>
				<time>2013-08-14T07:32:18Z</time>
				<hdop>4.0</hdop>
			</trkpt>
			<trkpt lat="46.88728397" lon="6.70578388">
				<ele>991.1</ele>
				<time>2013-08-14T07:32:19Z</time>
				<hdop>4.0</hdop>
			</trkpt>
			<trkpt lat="46.88729487" lon="6.70574241">
				<ele>989.9</ele>
				<time>2013-08-14T07:32:20Z</time>
				<hdop>4.0</hdop>
			</trkpt>
			<trkpt lat="46.88730006" lon="6.70572206">
				<ele>989.8</ele>
				<time>2013-08-14T07:32:21Z</time>
				<hdop>4.0</hdop>
			</trkpt>
			<trkpt lat="46.88730939" lon="6.7057139">
				<ele>989.8</ele>
				<time>2013-08-14T07:32:22Z</time>
				<hdop>4.0</hdop>
			</trkpt>
			<trkpt lat="46.8873347" lon="6.70567734">
				<ele>988.9</ele>
				<time>2013-08-14T07:32:23Z</time>
				<hdop>4.0</hdop>
			</trkpt>
			<trkpt lat="46.88733899" lon="6.70566404">
				<ele>988.5</ele>
				<time>2013-08-14T07:32:24Z</time>
				<hdop>4.0</hdop>
			</trkpt>
			<trkpt lat="46.88735166" lon="6.70563501">
				<ele>988.4</ele>
				<time>2013-08-14T07:32:25Z</time>
				<hdop>6.0</hdop>
			</trkpt>
			<trkpt lat="46.88734402" lon="6.70563322">
				<ele>987.9</ele>
				<time>2013-08-14T07:32:26Z</time>
				<hdop>6.0</hdop>
			</trkpt>
			<trkpt lat="46.88737121" lon="6.70560147">
				<ele>987.9</ele>
				<time>2013-08-14T07:32:27Z</time>
				<hdop>6.0</hdop>
			</trkpt>
			<trkpt lat="46.88738097" lon="6.70557777">
				<ele>988.0</ele>
				<time>2013-08-14T07:32:28Z</time>
				<hdop>6.0</hdop>
			</trkpt>
			<trkpt lat="46.88741047" lon="6.70556569">
				<ele>987.6</ele>
				<time>2013-08-14T07:32:29Z</time>
				<hdop>4.0</hdop>
			</trkpt>
			<trkpt lat="46.8874203" lon="6.70553872">
				<ele>988.1</ele>
				<time>2013-08-14T07:32:30Z</time>
				<hdop>4.0</hdop>
			</trkpt>
			<trkpt lat="46.88743845" lon="6.70550883">
				<ele>988.6</ele>
				<time>2013-08-14T07:32:31Z</time>
				<hdop>4.0</hdop>
			</trkpt>
			<trkpt lat="46.88745714" lon="6.70549463">
				<ele>988.3</ele>
				<time>2013-08-14T07:32:32Z</time>
				<hdop>4.0</hdop>
			</trkpt>
			<trkpt lat="46.88746824" lon="6.70546558">
				<ele>988.4</ele>
				<time>2013-08-14T07:32:33Z</time>
				<hdop>4.0</hdop>
			</trkpt>
			<trkpt lat="46.88747319" lon="6.70544831">
				<ele>987.8</ele>
				<time>2013-08-14T07:32:34Z</time>
				<hdop>3.0</hdop>
			</trkpt>
			<trkpt lat="46.88747433" lon="6.70542439">
				<ele>987.9</ele>
				<time>2013-08-14T07:32:35Z</time>
				<hdop>3.0</hdop>
			</trkpt>
			<trkpt lat="46.88745347" lon="6.70541358">
				<ele>987.7</ele>
				<time>2013-08-14T07:32:36Z</time>
				<hdop>3.0</hdop>
			</trkpt>
			<trkpt lat="46.88745494" lon="6.70542056">
				<ele>987.3</ele>
				<time>2013-08-14T07:32:37Z</time>
				<hdop>4.0</hdop>
			</trkpt>
			<trkpt lat="46.88744085" lon="6.70542793">
				<ele>986.5</ele>
				<time>2013-08-14T07:32:38Z</time>
				<hdop>4.0</hdop>
			</trkpt>
			<trkpt lat="46.88742745" lon="6.70541585">
				<ele>986.8</ele>
				<time>2013-08-14T07:32:39Z</time>
				<hdop>4.0</hdop>
			</trkpt>
			<trkpt lat="46.88743369" lon="6.70537916">
				<ele>986.8</ele>
				<time>2013-08-14T07:32:40Z</time>
				<hdop>4.0</hdop>
			</trkpt>
			<trkpt lat="46.88743184" lon="6.70534931">
				<ele>987.0</ele>
				<time>2013-08-14T07:32:41Z</time>
				<hdop>4.0</hdop>
			</trkpt>
			<trkpt lat="46.88743957" lon="6.70532382">
				<ele>986.7</ele>
				<time>2013-08-14T07:32:42Z</time>
				<hdop>4.0</hdop>
			</trkpt>
			<trkpt lat="46.88741572" lon="6.7053202">
				<ele>986.6</ele>
				<time>2013-08-14T07:32:43Z</time>
				<hdop>4.0</hdop>
			</trkpt>
			<trkpt lat="46.88742127" lon="6.70526064">
				<ele>985.8</ele>
				<time>2013-08-14T07:32:44Z</time>
				<hdop>4.0</hdop>
			</trkpt>
			<trkpt lat="46.88737886" lon="6.70527321">
				<ele>986.7</ele>
				<time>2013-08-14T07:32:45Z</time>
				<hdop>4.0</hdop>
			</trkpt>
			<trkpt lat="46.88737342" lon="6.70526412">
				<ele>987.4</ele>
				<time>2013-08-14T07:32:46Z</time>
				<hdop>3.0</hdop>
			</trkpt>
			<trkpt lat="46.88736332" lon="6.70525624">
				<ele>987.1</ele>
				<time>2013-08-14T07:32:47Z</time>
				<hdop>3.0</hdop>
			</trkpt>
			<trkpt lat="46.88734778" lon="6.70524556">
				<ele>986.3</ele>
				<time>2013-08-14T07:32:48Z</time>
				<hdop>4.0</hdop>
			</trkpt>
			<trkpt lat="46.88733822" lon="6.7052357">
				<ele>985.7</ele>
				<time>2013-08-14T07:32:49Z</time>
				<hdop>4.0</hdop>
			</trkpt>
			<trkpt lat="46.88732471" lon="6.70522951">
				<ele>985.8</ele>
				<time>2013-08-14T07:32:50Z</time>
				<hdop>4.0</hdop>
			</trkpt>
			<trkpt lat="46.88733015" lon="6.70518959">
				<ele>984.7</ele>
				<time>2013-08-14T07:32:51Z</time>
				<hdop>4.0</hdop>
			</trkpt>
			<trkpt lat="46.88733818" lon="6.7051555">
				<ele>983.7</ele>
				<time>2013-08-14T07:32:52Z</time>
				<hdop>4.0</hdop>
			</trkpt>
			<trkpt lat="46.88736391" lon="6.70510876">
				<ele>983.1</ele>
				<time>2013-08-14T07:32:53Z</time>
				<hdop>4.0</hdop>
			</trkpt>
			<trkpt lat="46.88735112" lon="6.70509714">
				<ele>982.2</ele>
				<time>2013-08-14T07:32:54Z</time>
				<hdop>4.0</hdop>
			</trkpt>
			<trkpt lat="46.88733855" lon="6.7050716">
				<ele>982.4</ele>
				<time>2013-08-14T07:32:55Z</time>
				<hdop>4.0</hdop>
			</trkpt>
			<trkpt lat="46.88735125" lon="6.70504844">
				<ele>983.1</ele>
				<time>2013-08-14T07:32:56Z</time>
				<hdop>4.0</hdop>
			</trkpt>
			<trkpt lat="46.88733016" lon="6.70502642">
				<ele>983.2</ele>
				<time>2013-08-14T07:32:57Z</time>
				<hdop>4.0</hdop>
			</trkpt>
			<trkpt lat="46.88732666" lon="6.70502913">
				<ele>983.5</ele>
				<time>2013-08-14T07:32:58Z</time>
				<hdop>4.0</hdop>
			</trkpt>
			<trkpt lat="46.88733203" lon="6.70500302">
				<ele>983.2</ele>
				<time>2013-08-14T07:32:59Z</time>
				<hdop>4.0</hdop>
			</trkpt>
			<trkpt lat="46.88732796" lon="6.7049919">
				<ele>982.7</ele>
				<time>2013-08-14T07:33:00Z</time>
				<hdop>4.0</hdop>
			</trkpt>
			<trkpt lat="46.88732706" lon="6.70497662">
				<ele>982.5</ele>
				<time>2013-08-14T07:33:01Z</time>
				<hdop>4.0</hdop>
			</trkpt>
			<trkpt lat="46.88730312" lon="6.70498096">
				<ele>982.9</ele>
				<time>2013-08-14T07:33:02Z</time>
				<hdop>4.0</hdop>
			</trkpt>
			<trkpt lat="46.8872659" lon="6.70498656">
				<ele>982.8</ele>
				<time>2013-08-14T07:33:03Z</time>
				<hdop>4.0</hdop>
			</trkpt>
			<trkpt lat="46.88724652" lon="6.70500389">
				<ele>982.3</ele>
				<time>2013-08-14T07:33:04Z</time>
				<hdop>4.0</hdop>
			</trkpt>
			<trkpt lat="46.88723054" lon="6.70500217">
				<ele>982.0</ele>
				<time>2013-08-14T07:33:05Z</time>
				<hdop>4.0</hdop>
			</trkpt>
			<trkpt lat="46.88721688" lon="6.70502864">
				<ele>981.9</ele>
				<time>2013-08-14T07:33:06Z</time>
				<hdop>4.0</hdop>
			</trkpt>
			<trkpt lat="46.88720119" lon="6.70502197">
				<ele>980.7</ele>
				<time>2013-08-14T07:33:07Z</time>
				<hdop>4.0</hdop>
			</trkpt>
			<trkpt lat="46.88717496" lon="6.70500594">
				<ele>980.1</ele>
				<time>2013-08-14T07:33:08Z</time>
				<hdop>4.0</hdop>
			</trkpt>
			<trkpt lat="46.8871805" lon="6.70495434">
				<ele>979.9</ele>
				<time>2013-08-14T07:33:09Z</time>
				<hdop>4.0</hdop>
			</trkpt>
			<trkpt lat="46.88716858" lon="6.70494127">
				<ele>979.2</ele>
				<time>2013-08-14T07:33:10Z</time>
				<hdop>4.0</hdop>
			</trkpt>
			<trkpt lat="46.88717423" lon="6.70492178">
				<ele>978.8</ele>
				<time>2013-08-14T07:33:11Z</time>
				<hdop>4.0</hdop>
			</trkpt>
			<trkpt lat="46.88717918" lon="6.70490484">
				<ele>977.8</ele>
				<time>2013-08-14T07:33:12Z</time>
				<hdop>6.0</hdop>
			</trkpt>
			<trkpt lat="46.88717566" lon="6.70487152">
				<ele>976.5</ele>
				<time>2013-08-14T07:33:13Z</time>
				<hdop>6.0</hdop>
			</trkpt>
			<trkpt lat="46.8871723" lon="6.70483482">
				<ele>976.0</ele>
				<time>2013-08-14T07:33:14Z</time>
				<hdop>6.0</hdop>
			</trkpt>
			<trkpt lat="46.88717148" lon="6.70478668">
				<ele>974.8</ele>
				<time>2013-08-14T07:33:15Z</time>
				<hdop>6.0</hdop>
			</trkpt>
			<trkpt lat="46.88716655" lon="6.70475937">
				<ele>974.3</ele>
				<time>2013-08-14T07:33:16Z</time>
				<hdop>6.0</hdop>
			</trkpt>
			<trkpt lat="46.88715295" lon="6.70475654">
				<ele>973.7</ele>
				<time>2013-08-14T07:33:17Z</time>
				<hdop>6.0</hdop>
			</trkpt>
			<trkpt lat="46.8871697" lon="6.70472148">
				<ele>974.2</ele>
				<time>2013-08-14T07:33:18Z</time>
				<hdop>6.0</hdop>
			</trkpt>
			<trkpt lat="46.88718072" lon="6.70471118">
				<ele>974.0</ele>
				<time>2013-08-14T07:33:19Z</time>
				<hdop>6.0</hdop>
			</trkpt>
			<trkpt lat="46.88715816" lon="6.70471924">
				<ele>974.3</ele>
				<time>2013-08-14T07:33:20Z</time>
				<hdop>4.0</hdop>
			</trkpt>
			<trkpt lat="46.88717249" lon="6.70468192">
				<ele>974.5</ele>
				<time>2013-08-14T07:33:21Z</time>
				<hdop>4.0</hdop>
			</trkpt>
			<trkpt lat="46.8871583" lon="6.70466777">
				<ele>974.9</ele>
				<time>2013-08-14T07:33:22Z</time>
				<hdop>4.0</hdop>
			</trkpt>
			<trkpt lat="46.88715212" lon="6.70465161">
				<ele>974.9</ele>
				<time>2013-08-14T07:33:23Z</time>
				<hdop>4.0</hdop>
			</trkpt>
			<trkpt lat="46.88715524" lon="6.70462667">
				<ele>975.1</ele>
				<time>2013-08-14T07:33:24Z</time>
				<hdop>4.0</hdop>
			</trkpt>
			<trkpt lat="46.88715249" lon="6.70461946">
				<ele>975.1</ele>
				<time>2013-08-14T07:33:25Z</time>
				<hdop>4.0</hdop>
			</trkpt>
			<trkpt lat="46.88714348" lon="6.70460736">
				<ele>975.9</ele>
				<time>2013-08-14T07:33:26Z</time>
				<hdop>4.0</hdop>
			</trkpt>
			<trkpt lat="46.88713396" lon="6.70458809">
				<ele>975.9</ele>
				<time>2013-08-14T07:33:27Z</time>
				<hdop>4.0</hdop>
			</trkpt>
			<trkpt lat="46.88711191" lon="6.70459199">
				<ele>975.8</ele>
				<time>2013-08-14T07:33:28Z</time>
				<hdop>4.0</hdop>
			</trkpt>
			<trkpt lat="46.88709704" lon="6.70458496">
				<ele>976.0</ele>
				<time>2013-08-14T07:33:29Z</time>
				<hdop>4.0</hdop>
			</trkpt>
			<trkpt lat="46.88710798" lon="6.70456882">
				<ele>975.7</ele>
				<time>2013-08-14T07:33:30Z</time>
				<hdop>4.0</hdop>
			</trkpt>
			<trkpt lat="46.88711604" lon="6.7045432">
				<ele>975.2</ele>
				<time>2013-08-14T07:33:31Z</time>
				<hdop>4.0</hdop>
			</trkpt>
			<trkpt lat="46.88712013" lon="6.70453708">
				<ele>975.2</ele>
				<time>2013-08-14T07:33:32Z</time>
				<hdop>4.0</hdop>
			</trkpt>
			<trkpt lat="46.88711951" lon="6.7045295">
				<ele>974.5</ele>
				<time>2013-08-14T07:33:33Z</time>
				<hdop>4.0</hdop>
			</trkpt>
			<trkpt lat="46.88711691" lon="6.70452499">
				<ele>974.5</ele>
				<time>2013-08-14T07:33:34Z</time>
				<hdop>4.0</hdop>
			</trkpt>
			<trkpt lat="46.88711894" lon="6.70447463">
				<ele>975.1</ele>
				<time>2013-08-14T07:33:35Z</time>
				<hdop>4.0</hdop>
			</trkpt>
			<trkpt lat="46.88709976" lon="6.70445036">
				<ele>975.0</ele>
				<time>2013-08-14T07:33:36Z</time>
				<hdop>4.0</hdop>
			</trkpt>
			<trkpt lat="46.88709608" lon="6.70442806">
				<ele>975.8</ele>
				<time>2013-08-14T07:33:37Z</time>
				<hdop>4.0</hdop>
			</trkpt>
			<trkpt lat="46.88709668" lon="6.70435194">
				<ele>975.4</ele>
				<time>2013-08-14T07:33:38Z</time>
				<hdop>4.0</hdop>
			</trkpt>
			<trkpt lat="46.88709806" lon="6.70432226">
				<ele>975.1</ele>
				<time>2013-08-14T07:33:39Z</time>
				<hdop>4.0</hdop>
			</trkpt>
			<trkpt lat="46.88707547" lon="6.70428777">
				<ele>974.7</ele>
				<time>2013-08-14T07:33:40Z</time>
				<hdop>4.0</hdop>
			</trkpt>
			<trkpt lat="46.88709878" lon="6.70425032">
				<ele>974.7</ele>
				<time>2013-08-14T07:33:41Z</time>
				<hdop>4.0</hdop>
			</trkpt>
			<trkpt lat="46.88707389" lon="6.70421879">
				<ele>973.9</ele>
				<time>2013-08-14T07:33:42Z</time>
				<hdop>4.0</hdop>
			</trkpt>
			<trkpt lat="46.88709316" lon="6.704183">
				<ele>974.2</ele>
				<time>2013-08-14T07:33:43Z</time>
				<hdop>4.0</hdop>
			</trkpt>
			<trkpt lat="46.88708941" lon="6.70413826">
				<ele>974.6</ele>
				<time>2013-08-14T07:33:44Z</time>
				<hdop>4.0</hdop>
			</trkpt>
			<trkpt lat="46.88706741" lon="6.7041028">
				<ele>974.6</ele>
				<time>2013-08-14T07:33:45Z</time>
				<hdop>4.0</hdop>
			</trkpt>
			<trkpt lat="46.88705584" lon="6.70409">
				<ele>974.6</ele>
				<time>2013-08-14T07:33:46Z</time>
				<hdop>4.0</hdop>
			</trkpt>
			<trkpt lat="46.88705268" lon="6.70408437">
				<ele>975.1</ele>
				<time>2013-08-14T07:33:47Z</time>
				<hdop>4.0</hdop>
			</trkpt>
			<trkpt lat="46.88703326" lon="6.70407244">
				<ele>975.1</ele>
				<time>2013-08-14T07:33:48Z</time>
				<hdop>4.0</hdop>
			</trkpt>
			<trkpt lat="46.8870305" lon="6.70405572">
				<ele>974.7</ele>
				<time>2013-08-14T07:33:49Z</time>
				<hdop>4.0</hdop>
			</trkpt>
			<trkpt lat="46.88702727" lon="6.7040442">
				<ele>974.3</ele>
				<time>2013-08-14T07:33:50Z</time>
				<hdop>3.0</hdop>
			</trkpt>
			<trkpt lat="46.88702256" lon="6.70403791">
				<ele>974.9</ele>
				<time>2013-08-14T07:33:51Z</time>
				<hdop>4.0</hdop>
			</trkpt>
			<trkpt lat="46.8870129" lon="6.70401797">
				<ele>974.6</ele>
				<time>2013-08-14T07:33:52Z</time>
				<hdop>4.0</hdop>
			</trkpt>
			<trkpt lat="46.88701537" lon="6.70401484">
				<ele>974.8</ele>
				<time>2013-08-14T07:33:53Z</time>
				<hdop>4.0</hdop>
			</trkpt>
			<trkpt lat="46.88702928" lon="6.70397632">
				<ele>974.1</ele>
				<time>2013-08-14T07:33:54Z</time>
				<hdop>6.0</hdop>
			</trkpt>
			<trkpt lat="46.88703045" lon="6.70397429">
				<ele>975.1</ele>
				<time>2013-08-14T07:33:55Z</time>
				<hdop>6.0</hdop>
			</trkpt>
			<trkpt lat="46.88703164" lon="6.70396692">
				<ele>975.2</ele>
				<time>2013-08-14T07:33:56Z</time>
				<hdop>6.0</hdop>
			</trkpt>
			<trkpt lat="46.88703085" lon="6.70395733">
				<ele>975.2</ele>
				<time>2013-08-14T07:33:57Z</time>
				<hdop>6.0</hdop>
			</trkpt>
			<trkpt lat="46.88703169" lon="6.70393904">
				<ele>975.3</ele>
				<time>2013-08-14T07:33:58Z</time>
				<hdop>6.0</hdop>
			</trkpt>
			<trkpt lat="46.88703067" lon="6.70393283">
				<ele>975.4</ele>
				<time>2013-08-14T07:33:59Z</time>
				<hdop>6.0</hdop>
			</trkpt>
			<trkpt lat="46.88702703" lon="6.70392474">
				<ele>975.1</ele>
				<time>2013-08-14T07:34:00Z</time>
				<hdop>6.0</hdop>
			</trkpt>
			<trkpt lat="46.88702245" lon="6.70392314">
				<ele>975.1</ele>
				<time>2013-08-14T07:34:01Z</time>
				<hdop>4.0</hdop>
			</trkpt>
			<trkpt lat="46.88702053" lon="6.70391621">
				<ele>975.1</ele>
				<time>2013-08-14T07:34:02Z</time>
				<hdop>6.0</hdop>
			</trkpt>
			<trkpt lat="46.88701899" lon="6.7039103">
				<ele>974.9</ele>
				<time>2013-08-14T07:34:03Z</time>
				<hdop>6.0</hdop>
			</trkpt>
			<trkpt lat="46.88701855" lon="6.70390059">
				<ele>975.0</ele>
				<time>2013-08-14T07:34:04Z</time>
				<hdop>6.0</hdop>
			</trkpt>
			<trkpt lat="46.88701758" lon="6.70389447">
				<ele>974.9</ele>
				<time>2013-08-14T07:34:05Z</time>
				<hdop>6.0</hdop>
			</trkpt>
			<trkpt lat="46.88701497" lon="6.70387992">
				<ele>975.3</ele>
				<time>2013-08-14T07:34:06Z</time>
				<hdop>6.0</hdop>
			</trkpt>
			<trkpt lat="46.88701363" lon="6.70387224">
				<ele>975.4</ele>
				<time>2013-08-14T07:34:07Z</time>
				<hdop>6.0</hdop>
			</trkpt>
			<trkpt lat="46.88700981" lon="6.70387254">
				<ele>975.7</ele>
				<time>2013-08-14T07:34:08Z</time>
				<hdop>6.0</hdop>
			</trkpt>
			<trkpt lat="46.88701233" lon="6.70386587">
				<ele>975.8</ele>
				<time>2013-08-14T07:34:09Z</time>
				<hdop>6.0</hdop>
			</trkpt>
			<trkpt lat="46.88701028" lon="6.7038568">
				<ele>976.5</ele>
				<time>2013-08-14T07:34:10Z</time>
				<hdop>6.0</hdop>
			</trkpt>
			<trkpt lat="46.88700211" lon="6.70386242">
				<ele>976.6</ele>
				<time>2013-08-14T07:34:11Z</time>
				<hdop>6.0</hdop>
			</trkpt>
			<trkpt lat="46.88699862" lon="6.70385865">
				<ele>977.7</ele>
				<time>2013-08-14T07:34:12Z</time>
				<hdop>6.0</hdop>
			</trkpt>
			<trkpt lat="46.88699619" lon="6.70385404">
				<ele>977.8</ele>
				<time>2013-08-14T07:34:13Z</time>
				<hdop>6.0</hdop>
			</trkpt>
			<trkpt lat="46.88699045" lon="6.70385203">
				<ele>978.4</ele>
				<time>2013-08-14T07:34:14Z</time>
				<hdop>6.0</hdop>
			</trkpt>
			<trkpt lat="46.88698811" lon="6.70384378">
				<ele>979.1</ele>
				<time>2013-08-14T07:34:15Z</time>
				<hdop>6.0</hdop>
			</trkpt>
			<trkpt lat="46.88699039" lon="6.70383908">
				<ele>980.1</ele>
				<time>2013-08-14T07:34:16Z</time>
				<hdop>6.0</hdop>
			</trkpt>
			<trkpt lat="46.88699064" lon="6.70383855">
				<ele>980.0</ele>
				<time>2013-08-14T07:34:17Z</time>
				<hdop>8.0</hdop>
			</trkpt>
			<trkpt lat="46.88699055" lon="6.70383789">
				<ele>980.3</ele>
				<time>2013-08-14T07:34:18Z</time>
				<hdop>8.0</hdop>
			</trkpt>
			<trkpt lat="46.88699303" lon="6.70383484">
				<ele>981.1</ele>
				<time>2013-08-14T07:34:19Z</time>
				<hdop>8.0</hdop>
			</trkpt>
			<trkpt lat="46.88699651" lon="6.70383004">
				<ele>981.9</ele>
				<time>2013-08-14T07:34:20Z</time>
				<hdop>6.0</hdop>
			</trkpt>
			<trkpt lat="46.88699652" lon="6.70382964">
				<ele>981.9</ele>
				<time>2013-08-14T07:34:21Z</time>
				<hdop>8.0</hdop>
			</trkpt>
			<trkpt lat="46.88699647" lon="6.70382875">
				<ele>981.9</ele>
				<time>2013-08-14T07:34:22Z</time>
				<hdop>6.0</hdop>
			</trkpt>
			<trkpt lat="46.88699661" lon="6.70382821">
				<ele>981.9</ele>
				<time>2013-08-14T07:34:23Z</time>
				<hdop>6.0</hdop>
			</trkpt>
			<trkpt lat="46.886998" lon="6.70382589">
				<ele>982.1</ele>
				<time>2013-08-14T07:34:24Z</time>
				<hdop>6.0</hdop>
			</trkpt>
			<trkpt lat="46.88699959" lon="6.70382401">
				<ele>982.6</ele>
				<time>2013-08-14T07:34:25Z</time>
				<hdop>6.0</hdop>
			</trkpt>
			<trkpt lat="46.88699937" lon="6.70382391">
				<ele>982.6</ele>
				<time>2013-08-14T07:34:26Z</time>
				<hdop>6.0</hdop>
			</trkpt>
			<trkpt lat="46.88699724" lon="6.70381786">
				<ele>982.5</ele>
				<time>2013-08-14T07:34:27Z</time>
				<hdop>6.0</hdop>
			</trkpt>
			<trkpt lat="46.88700557" lon="6.7037361">
				<ele>982.1</ele>
				<time>2013-08-14T07:34:28Z</time>
				<hdop>6.0</hdop>
			</trkpt>
			<trkpt lat="46.88701988" lon="6.7036345">
				<ele>980.6</ele>
				<time>2013-08-14T07:34:29Z</time>
				<hdop>6.0</hdop>
			</trkpt>
			<trkpt lat="46.88699915" lon="6.70358163">
				<ele>981.2</ele>
				<time>2013-08-14T07:34:30Z</time>
				<hdop>6.0</hdop>
			</trkpt>
			<trkpt lat="46.88699385" lon="6.70351451">
				<ele>980.2</ele>
				<time>2013-08-14T07:34:31Z</time>
				<hdop>6.0</hdop>
			</trkpt>
			<trkpt lat="46.88698238" lon="6.70346865">
				<ele>982.2</ele>
				<time>2013-08-14T07:34:32Z</time>
				<hdop>6.0</hdop>
			</trkpt>
			<trkpt lat="46.88698654" lon="6.70342977">
				<ele>981.7</ele>
				<time>2013-08-14T07:34:33Z</time>
				<hdop>6.0</hdop>
			</trkpt>
			<trkpt lat="46.88701327" lon="6.70336831">
				<ele>981.8</ele>
				<time>2013-08-14T07:34:34Z</time>
				<hdop>6.0</hdop>
			</trkpt>
			<trkpt lat="46.8869947" lon="6.70337029">
				<ele>981.7</ele>
				<time>2013-08-14T07:34:35Z</time>
				<hdop>6.0</hdop>
			</trkpt>
			<trkpt lat="46.88697301" lon="6.70336179">
				<ele>982.1</ele>
				<time>2013-08-14T07:34:36Z</time>
				<hdop>6.0</hdop>
			</trkpt>
			<trkpt lat="46.88696625" lon="6.70333693">
				<ele>981.9</ele>
				<time>2013-08-14T07:34:37Z</time>
				<hdop>6.0</hdop>
			</trkpt>
			<trkpt lat="46.88693865" lon="6.70332274">
				<ele>983.0</ele>
				<time>2013-08-14T07:34:38Z</time>
				<hdop>6.0</hdop>
			</trkpt>
			<trkpt lat="46.88691108" lon="6.70329865">
				<ele>983.0</ele>
				<time>2013-08-14T07:34:39Z</time>
				<hdop>6.0</hdop>
			</trkpt>
			<trkpt lat="46.88690054" lon="6.70327565">
				<ele>984.8</ele>
				<time>2013-08-14T07:34:40Z</time>
				<hdop>6.0</hdop>
			</trkpt>
			<trkpt lat="46.88688757" lon="6.70325819">
				<ele>984.9</ele>
				<time>2013-08-14T07:34:41Z</time>
				<hdop>6.0</hdop>
			</trkpt>
			<trkpt lat="46.88688158" lon="6.70324681">
				<ele>984.5</ele>
				<time>2013-08-14T07:34:42Z</time>
				<hdop>6.0</hdop>
			</trkpt>
			<trkpt lat="46.88687767" lon="6.70324022">
				<ele>984.9</ele>
				<time>2013-08-14T07:34:43Z</time>
				<hdop>6.0</hdop>
			</trkpt>
			<trkpt lat="46.88687562" lon="6.70324016">
				<ele>984.8</ele>
				<time>2013-08-14T07:34:44Z</time>
				<hdop>6.0</hdop>
			</trkpt>
			<trkpt lat="46.886874" lon="6.70322285">
				<ele>983.9</ele>
				<time>2013-08-14T07:34:45Z</time>
				<hdop>6.0</hdop>
			</trkpt>
			<trkpt lat="46.88688307" lon="6.70319962">
				<ele>983.6</ele>
				<time>2013-08-14T07:34:46Z</time>
				<hdop>6.0</hdop>
			</trkpt>
			<trkpt lat="46.88688557" lon="6.70319106">
				<ele>983.3</ele>
				<time>2013-08-14T07:34:47Z</time>
				<hdop>6.0</hdop>
			</trkpt>
			<trkpt lat="46.8868891" lon="6.70316254">
				<ele>982.3</ele>
				<time>2013-08-14T07:34:48Z</time>
				<hdop>6.0</hdop>
			</trkpt>
			<trkpt lat="46.88689182" lon="6.70315897">
				<ele>982.6</ele>
				<time>2013-08-14T07:34:49Z</time>
				<hdop>6.0</hdop>
			</trkpt>
			<trkpt lat="46.886888" lon="6.70315063">
				<ele>983.1</ele>
				<time>2013-08-14T07:34:50Z</time>
				<hdop>6.0</hdop>
			</trkpt>
			<trkpt lat="46.88688723" lon="6.70314415">
				<ele>983.1</ele>
				<time>2013-08-14T07:34:51Z</time>
				<hdop>6.0</hdop>
			</trkpt>
			<trkpt lat="46.88688666" lon="6.70314256">
				<ele>982.8</ele>
				<time>2013-08-14T07:34:52Z</time>
				<hdop>6.0</hdop>
			</trkpt>
			<trkpt lat="46.88688613" lon="6.70314024">
				<ele>982.8</ele>
				<time>2013-08-14T07:34:53Z</time>
				<hdop>6.0</hdop>
			</trkpt>
			<trkpt lat="46.88688589" lon="6.70314069">
				<ele>983.1</ele>
				<time>2013-08-14T07:34:54Z</time>
				<hdop>6.0</hdop>
			</trkpt>
			<trkpt lat="46.88688316" lon="6.70313467">
				<ele>983.0</ele>
				<time>2013-08-14T07:34:55Z</time>
				<hdop>6.0</hdop>
			</trkpt>
			<trkpt lat="46.88683767" lon="6.70310949">
				<ele>983.1</ele>
				<time>2013-08-14T07:34:56Z</time>
				<hdop>6.0</hdop>
			</trkpt>
			<trkpt lat="46.8868159" lon="6.70307472">
				<ele>982.8</ele>
				<time>2013-08-14T07:34:57Z</time>
				<hdop>6.0</hdop>
			</trkpt>
			<trkpt lat="46.88682197" lon="6.70302664">
				<ele>983.5</ele>
				<time>2013-08-14T07:34:58Z</time>
				<hdop>6.0</hdop>
			</trkpt>
			<trkpt lat="46.88680672" lon="6.70302366">
				<ele>983.5</ele>
				<time>2013-08-14T07:34:59Z</time>
				<hdop>6.0</hdop>
			</trkpt>
			<trkpt lat="46.8868099" lon="6.70300478">
				<ele>982.9</ele>
				<time>2013-08-14T07:35:00Z</time>
				<hdop>6.0</hdop>
			</trkpt>
			<trkpt lat="46.88680291" lon="6.70298592">
				<ele>983.3</ele>
				<time>2013-08-14T07:35:01Z</time>
				<hdop>6.0</hdop>
			</trkpt>
			<trkpt lat="46.88679831" lon="6.70298414">
				<ele>982.6</ele>
				<time>2013-08-14T07:35:02Z</time>
				<hdop>6.0</hdop>
			</trkpt>
			<trkpt lat="46.88680361" lon="6.70296059">
				<ele>982.0</ele>
				<time>2013-08-14T07:35:03Z</time>
				<hdop>6.0</hdop>
			</trkpt>
			<trkpt lat="46.8868066" lon="6.70294566">
				<ele>981.6</ele>
				<time>2013-08-14T07:35:04Z</time>
				<hdop>6.0</hdop>
			</trkpt>
			<trkpt lat="46.88680583" lon="6.70293111">
				<ele>980.9</ele>
				<time>2013-08-14T07:35:05Z</time>
				<hdop>6.0</hdop>
			</trkpt>
			<trkpt lat="46.88681114" lon="6.70291141">
				<ele>979.9</ele>
				<time>2013-08-14T07:35:06Z</time>
				<hdop>6.0</hdop>
			</trkpt>
			<trkpt lat="46.88681326" lon="6.70290078">
				<ele>980.1</ele>
				<time>2013-08-14T07:35:07Z</time>
				<hdop>6.0</hdop>
			</trkpt>
			<trkpt lat="46.88681362" lon="6.70288829">
				<ele>979.9</ele>
				<time>2013-08-14T07:35:08Z</time>
				<hdop>6.0</hdop>
			</trkpt>
			<trkpt lat="46.88681569" lon="6.70288469">
				<ele>979.8</ele>
				<time>2013-08-14T07:35:09Z</time>
				<hdop>6.0</hdop>
			</trkpt>
			<trkpt lat="46.88681531" lon="6.70288349">
				<ele>979.8</ele>
				<time>2013-08-14T07:35:10Z</time>
				<hdop>6.0</hdop>
			</trkpt>
			<trkpt lat="46.88681532" lon="6.70288347">
				<ele>979.8</ele>
				<time>2013-08-14T07:35:11Z</time>
				<hdop>8.0</hdop>
			</trkpt>
			<trkpt lat="46.88681535" lon="6.70288328">
				<ele>979.8</ele>
				<time>2013-08-14T07:35:12Z</time>
				<hdop>8.0</hdop>
			</trkpt>
			<trkpt lat="46.88681502" lon="6.7028837">
				<ele>979.9</ele>
				<time>2013-08-14T07:35:13Z</time>
				<hdop>8.0</hdop>
			</trkpt>
			<trkpt lat="46.88681355" lon="6.7028764">
				<ele>979.9</ele>
				<time>2013-08-14T07:35:14Z</time>
				<hdop>8.0</hdop>
			</trkpt>
			<trkpt lat="46.88679475" lon="6.70283063">
				<ele>980.3</ele>
				<time>2013-08-14T07:35:15Z</time>
				<hdop>8.0</hdop>
			</trkpt>
			<trkpt lat="46.88676954" lon="6.70280838">
				<ele>980.1</ele>
				<time>2013-08-14T07:35:16Z</time>
				<hdop>6.0</hdop>
			</trkpt>
			<trkpt lat="46.88674045" lon="6.70278313">
				<ele>981.1</ele>
				<time>2013-08-14T07:35:17Z</time>
				<hdop>6.0</hdop>
			</trkpt>
			<trkpt lat="46.88672587" lon="6.70275094">
				<ele>981.5</ele>
				<time>2013-08-14T07:35:18Z</time>
				<hdop>6.0</hdop>
			</trkpt>
			<trkpt lat="46.88672412" lon="6.70275694">
				<ele>981.3</ele>
				<time>2013-08-14T07:35:19Z</time>
				<hdop>8.0</hdop>
			</trkpt>
			<trkpt lat="46.88672232" lon="6.70274982">
				<ele>981.7</ele>
				<time>2013-08-14T07:35:20Z</time>
				<hdop>8.0</hdop>
			</trkpt>
			<trkpt lat="46.88672572" lon="6.702738">
				<ele>981.9</ele>
				<time>2013-08-14T07:35:21Z</time>
				<hdop>8.0</hdop>
			</trkpt>
			<trkpt lat="46.88672661" lon="6.7027291">
				<ele>981.9</ele>
				<time>2013-08-14T07:35:22Z</time>
				<hdop>6.0</hdop>
			</trkpt>
			<trkpt lat="46.8867149" lon="6.70272998">
				<ele>982.2</ele>
				<time>2013-08-14T07:35:23Z</time>
				<hdop>6.0</hdop>
			</trkpt>
			<trkpt lat="46.88670525" lon="6.70273057">
				<ele>982.0</ele>
				<time>2013-08-14T07:35:24Z</time>
				<hdop>6.0</hdop>
			</trkpt>
			<trkpt lat="46.88670202" lon="6.70272488">
				<ele>982.0</ele>
				<time>2013-08-14T07:35:25Z</time>
				<hdop>6.0</hdop>
			</trkpt>
			<trkpt lat="46.88669781" lon="6.70271763">
				<ele>982.0</ele>
				<time>2013-08-14T07:35:26Z</time>
				<hdop>6.0</hdop>
			</trkpt>
			<trkpt lat="46.88665614" lon="6.70268752">
				<ele>982.4</ele>
				<time>2013-08-14T07:35:27Z</time>
				<hdop>6.0</hdop>
			</trkpt>
			<trkpt lat="46.88667757" lon="6.70257794">
				<ele>981.2</ele>
				<time>2013-08-14T07:35:28Z</time>
				<hdop>6.0</hdop>
			</trkpt>
			<trkpt lat="46.88667059" lon="6.70250636">
				<ele>980.9</ele>
				<time>2013-08-14T07:35:29Z</time>
				<hdop>6.0</hdop>
			</trkpt>
			<trkpt lat="46.88666038" lon="6.70244889">
				<ele>980.8</ele>
				<time>2013-08-14T07:35:30Z</time>
				<hdop>6.0</hdop>
			</trkpt>
			<trkpt lat="46.886659" lon="6.70241273">
				<ele>980.6</ele>
				<time>2013-08-14T07:35:31Z</time>
				<hdop>4.0</hdop>
			</trkpt>
			<trkpt lat="46.8866528" lon="6.70242586">
				<ele>980.5</ele>
				<time>2013-08-14T07:35:32Z</time>
				<hdop>4.0</hdop>
			</trkpt>
			<trkpt lat="46.88663499" lon="6.70238987">
				<ele>980.6</ele>
				<time>2013-08-14T07:35:33Z</time>
				<hdop>4.0</hdop>
			</trkpt>
			<trkpt lat="46.88661994" lon="6.70237314">
				<ele>978.8</ele>
				<time>2013-08-14T07:35:34Z</time>
				<hdop>4.0</hdop>
			</trkpt>
			<trkpt lat="46.88661578" lon="6.70235048">
				<ele>978.9</ele>
				<time>2013-08-14T07:35:35Z</time>
				<hdop>4.0</hdop>
			</trkpt>
			<trkpt lat="46.88661185" lon="6.70234128">
				<ele>978.5</ele>
				<time>2013-08-14T07:35:36Z</time>
				<hdop>4.0</hdop>
			</trkpt>
			<trkpt lat="46.88659999" lon="6.70231364">
				<ele>979.0</ele>
				<time>2013-08-14T07:35:37Z</time>
				<hdop>4.0</hdop>
			</trkpt>
			<trkpt lat="46.88660159" lon="6.70228136">
				<ele>980.1</ele>
				<time>2013-08-14T07:35:38Z</time>
				<hdop>4.0</hdop>
			</trkpt>
			<trkpt lat="46.88660648" lon="6.70225442">
				<ele>981.1</ele>
				<time>2013-08-14T07:35:39Z</time>
				<hdop>4.0</hdop>
			</trkpt>
			<trkpt lat="46.88660291" lon="6.70224911">
				<ele>981.4</ele>
				<time>2013-08-14T07:35:40Z</time>
				<hdop>4.0</hdop>
			</trkpt>
			<trkpt lat="46.88660514" lon="6.70224992">
				<ele>981.0</ele>
				<time>2013-08-14T07:35:41Z</time>
				<hdop>4.0</hdop>
			</trkpt>
			<trkpt lat="46.88660321" lon="6.70224433">
				<ele>980.6</ele>
				<time>2013-08-14T07:35:42Z</time>
				<hdop>4.0</hdop>
			</trkpt>
			<trkpt lat="46.88659991" lon="6.70225092">
				<ele>980.4</ele>
				<time>2013-08-14T07:35:43Z</time>
				<hdop>4.0</hdop>
			</trkpt>
			<trkpt lat="46.8866026" lon="6.70225138">
				<ele>980.4</ele>
				<time>2013-08-14T07:35:44Z</time>
				<hdop>4.0</hdop>
			</trkpt>
			<trkpt lat="46.8866002" lon="6.70224801">
				<ele>980.5</ele>
				<time>2013-08-14T07:35:45Z</time>
				<hdop>4.0</hdop>
			</trkpt>
			<trkpt lat="46.8866002" lon="6.70223943">
				<ele>980.6</ele>
				<time>2013-08-14T07:35:46Z</time>
				<hdop>4.0</hdop>
			</trkpt>
			<trkpt lat="46.88660258" lon="6.7022346">
				<ele>980.0</ele>
				<time>2013-08-14T07:35:47Z</time>
				<hdop>6.0</hdop>
			</trkpt>
			<trkpt lat="46.88660176" lon="6.70223313">
				<ele>980.0</ele>
				<time>2013-08-14T07:35:48Z</time>
				<hdop>6.0</hdop>
			</trkpt>
			<trkpt lat="46.88660133" lon="6.70223203">
				<ele>980.0</ele>
				<time>2013-08-14T07:35:49Z</time>
				<hdop>8.0</hdop>
			</trkpt>
			<trkpt lat="46.88659975" lon="6.70223402">
				<ele>980.1</ele>
				<time>2013-08-14T07:35:50Z</time>
				<hdop>8.0</hdop>
			</trkpt>
			<trkpt lat="46.88659921" lon="6.70223469">
				<ele>980.1</ele>
				<time>2013-08-14T07:35:51Z</time>
				<hdop>6.0</hdop>
			</trkpt>
			<trkpt lat="46.88659887" lon="6.70223457">
				<ele>980.1</ele>
				<time>2013-08-14T07:35:52Z</time>
				<hdop>6.0</hdop>
			</trkpt>
			<trkpt lat="46.88659959" lon="6.70223427">
				<ele>980.1</ele>
				<time>2013-08-14T07:35:53Z</time>
				<hdop>6.0</hdop>
			</trkpt>
			<trkpt lat="46.88660001" lon="6.70223463">
				<ele>980.1</ele>
				<time>2013-08-14T07:35:54Z</time>
				<hdop>6.0</hdop>
			</trkpt>
			<trkpt lat="46.88659949" lon="6.70223497">
				<ele>980.1</ele>
				<time>2013-08-14T07:35:55Z</time>
				<hdop>6.0</hdop>
			</trkpt>
			<trkpt lat="46.88659836" lon="6.70223648">
				<ele>980.1</ele>
				<time>2013-08-14T07:35:56Z</time>
				<hdop>6.0</hdop>
			</trkpt>
			<trkpt lat="46.88659866" lon="6.7022365">
				<ele>980.1</ele>
				<time>2013-08-14T07:35:57Z</time>
				<hdop>6.0</hdop>
			</trkpt>
			<trkpt lat="46.88659884" lon="6.70223631">
				<ele>980.1</ele>
				<time>2013-08-14T07:35:58Z</time>
				<hdop>6.0</hdop>
			</trkpt>
			<trkpt lat="46.8865989" lon="6.70223601">
				<ele>980.1</ele>
				<time>2013-08-14T07:35:59Z</time>
				<hdop>6.0</hdop>
			</trkpt>
			<trkpt lat="46.88659926" lon="6.70223575">
				<ele>980.1</ele>
				<time>2013-08-14T07:36:00Z</time>
				<hdop>6.0</hdop>
			</trkpt>
			<trkpt lat="46.88659986" lon="6.70223505">
				<ele>980.1</ele>
				<time>2013-08-14T07:36:01Z</time>
				<hdop>6.0</hdop>
			</trkpt>
			<trkpt lat="46.88660007" lon="6.70223487">
				<ele>980.0</ele>
				<time>2013-08-14T07:36:02Z</time>
				<hdop>6.0</hdop>
			</trkpt>
			<trkpt lat="46.88660062" lon="6.70223363">
				<ele>979.9</ele>
				<time>2013-08-14T07:36:03Z</time>
				<hdop>6.0</hdop>
			</trkpt>
			<trkpt lat="46.88660095" lon="6.70223297">
				<ele>979.9</ele>
				<time>2013-08-14T07:36:04Z</time>
				<hdop>6.0</hdop>
			</trkpt>
			<trkpt lat="46.88660065" lon="6.70223339">
				<ele>980.0</ele>
				<time>2013-08-14T07:36:05Z</time>
				<hdop>6.0</hdop>
			</trkpt>
			<trkpt lat="46.88659911" lon="6.70222639">
				<ele>980.0</ele>
				<time>2013-08-14T07:36:06Z</time>
				<hdop>6.0</hdop>
			</trkpt>
			<trkpt lat="46.88660744" lon="6.70215514">
				<ele>978.8</ele>
				<time>2013-08-14T07:36:07Z</time>
				<hdop>6.0</hdop>
			</trkpt>
			<trkpt lat="46.88661219" lon="6.70208759">
				<ele>978.8</ele>
				<time>2013-08-14T07:36:08Z</time>
				<hdop>6.0</hdop>
			</trkpt>
			<trkpt lat="46.88659828" lon="6.7020479">
				<ele>978.8</ele>
				<time>2013-08-14T07:36:09Z</time>
				<hdop>6.0</hdop>
			</trkpt>
			<trkpt lat="46.88658618" lon="6.7020086">
				<ele>979.0</ele>
				<time>2013-08-14T07:36:10Z</time>
				<hdop>6.0</hdop>
			</trkpt>
			<trkpt lat="46.8865654" lon="6.7019934">
				<ele>980.4</ele>
				<time>2013-08-14T07:36:11Z</time>
				<hdop>6.0</hdop>
			</trkpt>
			<trkpt lat="46.88655104" lon="6.70195692">
				<ele>981.5</ele>
				<time>2013-08-14T07:36:12Z</time>
				<hdop>6.0</hdop>
			</trkpt>
			<trkpt lat="46.88654421" lon="6.70193506">
				<ele>981.1</ele>
				<time>2013-08-14T07:36:13Z</time>
				<hdop>6.0</hdop>
			</trkpt>
			<trkpt lat="46.88654226" lon="6.70193516">
				<ele>981.6</ele>
				<time>2013-08-14T07:36:14Z</time>
				<hdop>6.0</hdop>
			</trkpt>
			<trkpt lat="46.88653182" lon="6.70192405">
				<ele>982.4</ele>
				<time>2013-08-14T07:36:15Z</time>
				<hdop>6.0</hdop>
			</trkpt>
			<trkpt lat="46.88652312" lon="6.70191584">
				<ele>982.5</ele>
				<time>2013-08-14T07:36:16Z</time>
				<hdop>6.0</hdop>
			</trkpt>
			<trkpt lat="46.88652296" lon="6.70191582">
				<ele>982.6</ele>
				<time>2013-08-14T07:36:17Z</time>
				<hdop>6.0</hdop>
			</trkpt>
			<trkpt lat="46.88652033" lon="6.70190929">
				<ele>982.7</ele>
				<time>2013-08-14T07:36:18Z</time>
				<hdop>6.0</hdop>
			</trkpt>
			<trkpt lat="46.88652298" lon="6.701897">
				<ele>983.1</ele>
				<time>2013-08-14T07:36:19Z</time>
				<hdop>6.0</hdop>
			</trkpt>
			<trkpt lat="46.88651519" lon="6.70188878">
				<ele>984.0</ele>
				<time>2013-08-14T07:36:20Z</time>
				<hdop>6.0</hdop>
			</trkpt>
			<trkpt lat="46.88651222" lon="6.70187268">
				<ele>984.3</ele>
				<time>2013-08-14T07:36:21Z</time>
				<hdop>6.0</hdop>
			</trkpt>
			<trkpt lat="46.88650793" lon="6.70186592">
				<ele>984.7</ele>
				<time>2013-08-14T07:36:22Z</time>
				<hdop>6.0</hdop>
			</trkpt>
			<trkpt lat="46.88650709" lon="6.70186034">
				<ele>984.9</ele>
				<time>2013-08-14T07:36:23Z</time>
				<hdop>6.0</hdop>
			</trkpt>
			<trkpt lat="46.88650616" lon="6.70185789">
				<ele>984.9</ele>
				<time>2013-08-14T07:36:24Z</time>
				<hdop>6.0</hdop>
			</trkpt>
			<trkpt lat="46.88650615" lon="6.70185778">
				<ele>984.8</ele>
				<time>2013-08-14T07:36:25Z</time>
				<hdop>6.0</hdop>
			</trkpt>
			<trkpt lat="46.88650644" lon="6.70185818">
				<ele>984.8</ele>
				<time>2013-08-14T07:36:26Z</time>
				<hdop>6.0</hdop>
			</trkpt>
			<trkpt lat="46.88650638" lon="6.70185875">
				<ele>984.8</ele>
				<time>2013-08-14T07:36:27Z</time>
				<hdop>6.0</hdop>
			</trkpt>
			<trkpt lat="46.88650631" lon="6.70185878">
				<ele>984.8</ele>
				<time>2013-08-14T07:36:28Z</time>
				<hdop>6.0</hdop>
			</trkpt>
			<trkpt lat="46.88650582" lon="6.70185981">
				<ele>984.8</ele>
				<time>2013-08-14T07:36:29Z</time>
				<hdop>6.0</hdop>
			</trkpt>
			<trkpt lat="46.88650579" lon="6.70186055">
				<ele>984.8</ele>
				<time>2013-08-14T07:36:30Z</time>
				<hdop>6.0</hdop>
			</trkpt>
			<trkpt lat="46.88650568" lon="6.70186057">
				<ele>984.8</ele>
				<time>2013-08-14T07:36:31Z</time>
				<hdop>6.0</hdop>
			</trkpt>
			<trkpt lat="46.88650283" lon="6.70186417">
				<ele>984.7</ele>
				<time>2013-08-14T07:36:32Z</time>
				<hdop>6.0</hdop>
			</trkpt>
			<trkpt lat="46.88650294" lon="6.70186391">
				<ele>984.8</ele>
				<time>2013-08-14T07:36:33Z</time>
				<hdop>6.0</hdop>
			</trkpt>
			<trkpt lat="46.88650292" lon="6.70186362">
				<ele>984.8</ele>
				<time>2013-08-14T07:36:34Z</time>
				<hdop>6.0</hdop>
			</trkpt>
			<trkpt lat="46.88650283" lon="6.70186349">
				<ele>984.8</ele>
				<time>2013-08-14T07:36:35Z</time>
				<hdop>6.0</hdop>
			</trkpt>
			<trkpt lat="46.88650292" lon="6.70186332">
				<ele>984.8</ele>
				<time>2013-08-14T07:36:36Z</time>
				<hdop>6.0</hdop>
			</trkpt>
			<trkpt lat="46.88650296" lon="6.70186319">
				<ele>984.8</ele>
				<time>2013-08-14T07:36:37Z</time>
				<hdop>6.0</hdop>
			</trkpt>
			<trkpt lat="46.88650323" lon="6.70186254">
				<ele>984.7</ele>
				<time>2013-08-14T07:36:38Z</time>
				<hdop>6.0</hdop>
			</trkpt>
			<trkpt lat="46.88650336" lon="6.70186192">
				<ele>984.6</ele>
				<time>2013-08-14T07:36:39Z</time>
				<hdop>6.0</hdop>
			</trkpt>
			<trkpt lat="46.88650337" lon="6.70186135">
				<ele>984.6</ele>
				<time>2013-08-14T07:36:40Z</time>
				<hdop>6.0</hdop>
			</trkpt>
			<trkpt lat="46.88650331" lon="6.70186102">
				<ele>984.5</ele>
				<time>2013-08-14T07:36:41Z</time>
				<hdop>6.0</hdop>
			</trkpt>
			<trkpt lat="46.88650341" lon="6.7018606">
				<ele>984.5</ele>
				<time>2013-08-14T07:36:42Z</time>
				<hdop>6.0</hdop>
			</trkpt>
			<trkpt lat="46.8865035" lon="6.70186014">
				<ele>984.4</ele>
				<time>2013-08-14T07:36:43Z</time>
				<hdop>6.0</hdop>
			</trkpt>
			<trkpt lat="46.8865033" lon="6.70185983">
				<ele>984.3</ele>
				<time>2013-08-14T07:36:44Z</time>
				<hdop>4.0</hdop>
			</trkpt>
			<trkpt lat="46.88650111" lon="6.70185255">
				<ele>984.4</ele>
				<time>2013-08-14T07:36:45Z</time>
				<hdop>4.0</hdop>
			</trkpt>
			<trkpt lat="46.88654217" lon="6.70177839">
				<ele>982.9</ele>
				<time>2013-08-14T07:36:46Z</time>
				<hdop>4.0</hdop>
			</trkpt>
			<trkpt lat="46.88654993" lon="6.70172575">
				<ele>982.2</ele>
				<time>2013-08-14T07:36:47Z</time>
				<hdop>4.0</hdop>
			</trkpt>
			<trkpt lat="46.88656284" lon="6.70168043">
				<ele>981.3</ele>
				<time>2013-08-14T07:36:48Z</time>
				<hdop>4.0</hdop>
			</trkpt>
			<trkpt lat="46.88656164" lon="6.7016333">
				<ele>981.0</ele>
				<time>2013-08-14T07:36:49Z</time>
				<hdop>4.0</hdop>
			</trkpt>
			<trkpt lat="46.88653557" lon="6.7016093">
				<ele>980.8</ele>
				<time>2013-08-14T07:36:50Z</time>
				<hdop>4.0</hdop>
			</trkpt>
			<trkpt lat="46.88651945" lon="6.70158397">
				<ele>980.8</ele>
				<time>2013-08-14T07:36:51Z</time>
				<hdop>4.0</hdop>
			</trkpt>
			<trkpt lat="46.88650919" lon="6.70155142">
				<ele>981.0</ele>
				<time>2013-08-14T07:36:52Z</time>
				<hdop>4.0</hdop>
			</trkpt>
			<trkpt lat="46.88650655" lon="6.70151928">
				<ele>982.1</ele>
				<time>2013-08-14T07:36:53Z</time>
				<hdop>4.0</hdop>
			</trkpt>
			<trkpt lat="46.88650692" lon="6.70148208">
				<ele>983.3</ele>
				<time>2013-08-14T07:36:54Z</time>
				<hdop>4.0</hdop>
			</trkpt>
			<trkpt lat="46.88650107" lon="6.70145423">
				<ele>983.7</ele>
				<time>2013-08-14T07:36:55Z</time>
				<hdop>6.0</hdop>
			</trkpt>
			<trkpt lat="46.88650339" lon="6.70141411">
				<ele>984.6</ele>
				<time>2013-08-14T07:36:56Z</time>
				<hdop>6.0</hdop>
			</trkpt>
			<trkpt lat="46.88649811" lon="6.70138255">
				<ele>983.8</ele>
				<time>2013-08-14T07:36:57Z</time>
				<hdop>6.0</hdop>
			</trkpt>
			<trkpt lat="46.88649719" lon="6.70134275">
				<ele>984.5</ele>
				<time>2013-08-14T07:36:58Z</time>
				<hdop>6.0</hdop>
			</trkpt>
			<trkpt lat="46.88648737" lon="6.70130762">
				<ele>984.8</ele>
				<time>2013-08-14T07:36:59Z</time>
				<hdop>4.0</hdop>
			</trkpt>
			<trkpt lat="46.88648281" lon="6.70128251">
				<ele>986.0</ele>
				<time>2013-08-14T07:37:00Z</time>
				<hdop>6.0</hdop>
			</trkpt>
			<trkpt lat="46.88646562" lon="6.70125241">
				<ele>985.9</ele>
				<time>2013-08-14T07:37:01Z</time>
				<hdop>6.0</hdop>
			</trkpt>
			<trkpt lat="46.88646772" lon="6.70122676">
				<ele>986.5</ele>
				<time>2013-08-14T07:37:02Z</time>
				<hdop>6.0</hdop>
			</trkpt>
			<trkpt lat="46.88646155" lon="6.70119392">
				<ele>987.6</ele>
				<time>2013-08-14T07:37:03Z</time>
				<hdop>6.0</hdop>
			</trkpt>
			<trkpt lat="46.88645846" lon="6.70117245">
				<ele>988.4</ele>
				<time>2013-08-14T07:37:04Z</time>
				<hdop>6.0</hdop>
			</trkpt>
			<trkpt lat="46.88645161" lon="6.70113132">
				<ele>988.8</ele>
				<time>2013-08-14T07:37:05Z</time>
				<hdop>6.0</hdop>
			</trkpt>
			<trkpt lat="46.88644412" lon="6.70107917">
				<ele>990.1</ele>
				<time>2013-08-14T07:37:06Z</time>
				<hdop>6.0</hdop>
			</trkpt>
			<trkpt lat="46.88644147" lon="6.70105108">
				<ele>992.2</ele>
				<time>2013-08-14T07:37:07Z</time>
				<hdop>6.0</hdop>
			</trkpt>
			<trkpt lat="46.88643423" lon="6.70100027">
				<ele>995.6</ele>
				<time>2013-08-14T07:37:08Z</time>
				<hdop>4.0</hdop>
			</trkpt>
			<trkpt lat="46.88645577" lon="6.7009561">
				<ele>999.8</ele>
				<time>2013-08-14T07:37:09Z</time>
				<hdop>4.0</hdop>
			</trkpt>
			<trkpt lat="46.88645424" lon="6.70092921">
				<ele>1001.6</ele>
				<time>2013-08-14T07:37:10Z</time>
				<hdop>4.0</hdop>
			</trkpt>
			<trkpt lat="46.88644112" lon="6.70089533">
				<ele>1002.7</ele>
				<time>2013-08-14T07:37:11Z</time>
				<hdop>4.0</hdop>
			</trkpt>
			<trkpt lat="46.88643464" lon="6.70086232">
				<ele>1004.0</ele>
				<time>2013-08-14T07:37:12Z</time>
				<hdop>4.0</hdop>
			</trkpt>
			<trkpt lat="46.88642314" lon="6.70083293">
				<ele>1004.4</ele>
				<time>2013-08-14T07:37:13Z</time>
				<hdop>4.0</hdop>
			</trkpt>
			<trkpt lat="46.8864169" lon="6.70079621">
				<ele>1005.2</ele>
				<time>2013-08-14T07:37:14Z</time>
				<hdop>4.0</hdop>
			</trkpt>
			<trkpt lat="46.88641405" lon="6.70076521">
				<ele>1005.7</ele>
				<time>2013-08-14T07:37:15Z</time>
				<hdop>3.0</hdop>
			</trkpt>
			<trkpt lat="46.88640727" lon="6.70074136">
				<ele>1005.8</ele>
				<time>2013-08-14T07:37:16Z</time>
				<hdop>4.0</hdop>
			</trkpt>
			<trkpt lat="46.88640063" lon="6.70071306">
				<ele>1006.6</ele>
				<time>2013-08-14T07:37:17Z</time>
				<hdop>4.0</hdop>
			</trkpt>
			<trkpt lat="46.88637847" lon="6.7006846">
				<ele>1006.8</ele>
				<time>2013-08-14T07:37:18Z</time>
				<hdop>3.0</hdop>
			</trkpt>
			<trkpt lat="46.88638379" lon="6.70065456">
				<ele>1007.5</ele>
				<time>2013-08-14T07:37:19Z</time>
				<hdop>3.0</hdop>
			</trkpt>
			<trkpt lat="46.88637451" lon="6.70062992">
				<ele>1008.1</ele>
				<time>2013-08-14T07:37:20Z</time>
				<hdop>3.0</hdop>
			</trkpt>
			<trkpt lat="46.88638054" lon="6.70059945">
				<ele>1008.9</ele>
				<time>2013-08-14T07:37:21Z</time>
				<hdop>3.0</hdop>
			</trkpt>
			<trkpt lat="46.88638152" lon="6.70056489">
				<ele>1010.0</ele>
				<time>2013-08-14T07:37:22Z</time>
				<hdop>3.0</hdop>
			</trkpt>
			<trkpt lat="46.88638399" lon="6.70054444">
				<ele>1010.5</ele>
				<time>2013-08-14T07:37:23Z</time>
				<hdop>3.0</hdop>
			</trkpt>
			<trkpt lat="46.88637982" lon="6.70051567">
				<ele>1011.3</ele>
				<time>2013-08-14T07:37:24Z</time>
				<hdop>3.0</hdop>
			</trkpt>
			<trkpt lat="46.88637098" lon="6.70048835">
				<ele>1011.5</ele>
				<time>2013-08-14T07:37:25Z</time>
				<hdop>3.0</hdop>
			</trkpt>
			<trkpt lat="46.88636479" lon="6.7004612">
				<ele>1012.0</ele>
				<time>2013-08-14T07:37:26Z</time>
				<hdop>3.0</hdop>
			</trkpt>
			<trkpt lat="46.88635121" lon="6.70045324">
				<ele>1012.7</ele>
				<time>2013-08-14T07:37:27Z</time>
				<hdop>3.0</hdop>
			</trkpt>
			<trkpt lat="46.88634793" lon="6.7004475">
				<ele>1013.0</ele>
				<time>2013-08-14T07:37:28Z</time>
				<hdop>3.0</hdop>
			</trkpt>
			<trkpt lat="46.88634485" lon="6.70042734">
				<ele>1013.1</ele>
				<time>2013-08-14T07:37:29Z</time>
				<hdop>3.0</hdop>
			</trkpt>
			<trkpt lat="46.886347" lon="6.70039446">
				<ele>1013.9</ele>
				<time>2013-08-14T07:37:30Z</time>
				<hdop>3.0</hdop>
			</trkpt>
			<trkpt lat="46.88633257" lon="6.70037657">
				<ele>1014.4</ele>
				<time>2013-08-14T07:37:31Z</time>
				<hdop>3.0</hdop>
			</trkpt>
			<trkpt lat="46.88632006" lon="6.70034429">
				<ele>1014.7</ele>
				<time>2013-08-14T07:37:32Z</time>
				<hdop>3.0</hdop>
			</trkpt>
			<trkpt lat="46.88630187" lon="6.70031347">
				<ele>1015.1</ele>
				<time>2013-08-14T07:37:33Z</time>
				<hdop>3.0</hdop>
			</trkpt>
			<trkpt lat="46.88629483" lon="6.70029644">
				<ele>1015.7</ele>
				<time>2013-08-14T07:37:34Z</time>
				<hdop>3.0</hdop>
			</trkpt>
			<trkpt lat="46.88628599" lon="6.70029499">
				<ele>1015.8</ele>
				<time>2013-08-14T07:37:35Z</time>
				<hdop>3.0</hdop>
			</trkpt>
			<trkpt lat="46.88626367" lon="6.70026467">
				<ele>1016.4</ele>
				<time>2013-08-14T07:37:36Z</time>
				<hdop>3.0</hdop>
			</trkpt>
			<trkpt lat="46.88625638" lon="6.70025374">
				<ele>1018.0</ele>
				<time>2013-08-14T07:37:37Z</time>
				<hdop>3.0</hdop>
			</trkpt>
			<trkpt lat="46.88626527" lon="6.70023613">
				<ele>1018.0</ele>
				<time>2013-08-14T07:37:38Z</time>
				<hdop>3.0</hdop>
			</trkpt>
			<trkpt lat="46.88626444" lon="6.70021667">
				<ele>1018.5</ele>
				<time>2013-08-14T07:37:39Z</time>
				<hdop>3.0</hdop>
			</trkpt>
			<trkpt lat="46.88625669" lon="6.70019435">
				<ele>1018.7</ele>
				<time>2013-08-14T07:37:40Z</time>
				<hdop>3.0</hdop>
			</trkpt>
			<trkpt lat="46.88625213" lon="6.70016596">
				<ele>1019.1</ele>
				<time>2013-08-14T07:37:41Z</time>
				<hdop>3.0</hdop>
			</trkpt>
			<trkpt lat="46.8862411" lon="6.70014933">
				<ele>1019.3</ele>
				<time>2013-08-14T07:37:42Z</time>
				<hdop>3.0</hdop>
			</trkpt>
			<trkpt lat="46.88622849" lon="6.70010959">
				<ele>1019.8</ele>
				<time>2013-08-14T07:37:43Z</time>
				<hdop>3.0</hdop>
			</trkpt>
			<trkpt lat="46.88621029" lon="6.70009888">
				<ele>1020.5</ele>
				<time>2013-08-14T07:37:44Z</time>
				<hdop>2.0</hdop>
			</trkpt>
			<trkpt lat="46.88620323" lon="6.70008731">
				<ele>1020.9</ele>
				<time>2013-08-14T07:37:45Z</time>
				<hdop>2.0</hdop>
			</trkpt>
			<trkpt lat="46.88619914" lon="6.70004724">
				<ele>1021.0</ele>
				<time>2013-08-14T07:37:46Z</time>
				<hdop>2.0</hdop>
			</trkpt>
			<trkpt lat="46.8862005" lon="6.70004194">
				<ele>1021.1</ele>
				<time>2013-08-14T07:37:47Z</time>
				<hdop>2.0</hdop>
			</trkpt>
			<trkpt lat="46.88620401" lon="6.70001947">
				<ele>1020.7</ele>
				<time>2013-08-14T07:37:48Z</time>
				<hdop>2.0</hdop>
			</trkpt>
			<trkpt lat="46.88618028" lon="6.70000156">
				<ele>1021.1</ele>
				<time>2013-08-14T07:37:49Z</time>
				<hdop>2.0</hdop>
			</trkpt>
			<trkpt lat="46.88619274" lon="6.69997588">
				<ele>1020.9</ele>
				<time>2013-08-14T07:37:50Z</time>
				<hdop>2.0</hdop>
			</trkpt>
			<trkpt lat="46.88619571" lon="6.69995203">
				<ele>1021.3</ele>
				<time>2013-08-14T07:37:51Z</time>
				<hdop>2.0</hdop>
			</trkpt>
			<trkpt lat="46.88618603" lon="6.69992581">
				<ele>1022.1</ele>
				<time>2013-08-14T07:37:52Z</time>
				<hdop>2.0</hdop>
			</trkpt>
			<trkpt lat="46.88616944" lon="6.69989939">
				<ele>1022.6</ele>
				<time>2013-08-14T07:37:53Z</time>
				<hdop>2.0</hdop>
			</trkpt>
			<trkpt lat="46.88617347" lon="6.69989254">
				<ele>1023.1</ele>
				<time>2013-08-14T07:37:54Z</time>
				<hdop>2.0</hdop>
			</trkpt>
			<trkpt lat="46.8861712" lon="6.6998821">
				<ele>1022.9</ele>
				<time>2013-08-14T07:37:55Z</time>
				<hdop>2.0</hdop>
			</trkpt>
			<trkpt lat="46.8861727" lon="6.69987277">
				<ele>1023.1</ele>
				<time>2013-08-14T07:37:56Z</time>
				<hdop>2.0</hdop>
			</trkpt>
			<trkpt lat="46.88619413" lon="6.69987549">
				<ele>1024.1</ele>
				<time>2013-08-14T07:37:57Z</time>
				<hdop>2.0</hdop>
			</trkpt>
			<trkpt lat="46.88619021" lon="6.69988103">
				<ele>1023.9</ele>
				<time>2013-08-14T07:37:58Z</time>
				<hdop>2.0</hdop>
			</trkpt>
			<trkpt lat="46.88618748" lon="6.69988145">
				<ele>1024.0</ele>
				<time>2013-08-14T07:37:59Z</time>
				<hdop>2.0</hdop>
			</trkpt>
			<trkpt lat="46.88618555" lon="6.69988085">
				<ele>1023.9</ele>
				<time>2013-08-14T07:38:00Z</time>
				<hdop>2.0</hdop>
			</trkpt>
			<trkpt lat="46.88618569" lon="6.69988092">
				<ele>1024.1</ele>
				<time>2013-08-14T07:38:01Z</time>
				<hdop>3.0</hdop>
			</trkpt>
			<trkpt lat="46.88618716" lon="6.69987685">
				<ele>1024.5</ele>
				<time>2013-08-14T07:38:02Z</time>
				<hdop>3.0</hdop>
			</trkpt>
			<trkpt lat="46.88618439" lon="6.69987218">
				<ele>1024.9</ele>
				<time>2013-08-14T07:38:03Z</time>
				<hdop>3.0</hdop>
			</trkpt>
			<trkpt lat="46.88621497" lon="6.69986932">
				<ele>1026.7</ele>
				<time>2013-08-14T07:38:04Z</time>
				<hdop>3.0</hdop>
			</trkpt>
			<trkpt lat="46.88621828" lon="6.6998628">
				<ele>1026.8</ele>
				<time>2013-08-14T07:38:05Z</time>
				<hdop>3.0</hdop>
			</trkpt>
			<trkpt lat="46.88624025" lon="6.69984208">
				<ele>1027.5</ele>
				<time>2013-08-14T07:38:06Z</time>
				<hdop>3.0</hdop>
			</trkpt>
			<trkpt lat="46.88625869" lon="6.6998057">
				<ele>1028.8</ele>
				<time>2013-08-14T07:38:07Z</time>
				<hdop>4.0</hdop>
			</trkpt>
			<trkpt lat="46.88627768" lon="6.6997561">
				<ele>1029.5</ele>
				<time>2013-08-14T07:38:08Z</time>
				<hdop>4.0</hdop>
			</trkpt>
			<trkpt lat="46.88630014" lon="6.69974272">
				<ele>1030.5</ele>
				<time>2013-08-14T07:38:09Z</time>
				<hdop>4.0</hdop>
			</trkpt>
			<trkpt lat="46.88630441" lon="6.69972214">
				<ele>1031.5</ele>
				<time>2013-08-14T07:38:10Z</time>
				<hdop>4.0</hdop>
			</trkpt>
			<trkpt lat="46.88633284" lon="6.69970865">
				<ele>1033.0</ele>
				<time>2013-08-14T07:38:11Z</time>
				<hdop>6.0</hdop>
			</trkpt>
			<trkpt lat="46.88635418" lon="6.69969028">
				<ele>1033.4</ele>
				<time>2013-08-14T07:38:12Z</time>
				<hdop>6.0</hdop>
			</trkpt>
			<trkpt lat="46.88637075" lon="6.69965339">
				<ele>1033.5</ele>
				<time>2013-08-14T07:38:13Z</time>
				<hdop>6.0</hdop>
			</trkpt>
			<trkpt lat="46.88637129" lon="6.69965416">
				<ele>1033.0</ele>
				<time>2013-08-14T07:38:14Z</time>
				<hdop>6.0</hdop>
			</trkpt>
			<trkpt lat="46.88637103" lon="6.69963731">
				<ele>1033.1</ele>
				<time>2013-08-14T07:38:15Z</time>
				<hdop>4.0</hdop>
			</trkpt>
			<trkpt lat="46.88635409" lon="6.69962264">
				<ele>1033.8</ele>
				<time>2013-08-14T07:38:16Z</time>
				<hdop>4.0</hdop>
			</trkpt>
			<trkpt lat="46.88635134" lon="6.69960384">
				<ele>1033.6</ele>
				<time>2013-08-14T07:38:17Z</time>
				<hdop>6.0</hdop>
			</trkpt>
			<trkpt lat="46.88635826" lon="6.69958871">
				<ele>1033.7</ele>
				<time>2013-08-14T07:38:18Z</time>
				<hdop>6.0</hdop>
			</trkpt>
			<trkpt lat="46.88636133" lon="6.6995783">
				<ele>1033.7</ele>
				<time>2013-08-14T07:38:19Z</time>
				<hdop>6.0</hdop>
			</trkpt>
			<trkpt lat="46.8863643" lon="6.69957266">
				<ele>1033.6</ele>
				<time>2013-08-14T07:38:20Z</time>
				<hdop>6.0</hdop>
			</trkpt>
			<trkpt lat="46.88636136" lon="6.6995698">
				<ele>1033.5</ele>
				<time>2013-08-14T07:38:21Z</time>
				<hdop>6.0</hdop>
			</trkpt>
			<trkpt lat="46.886361" lon="6.69956545">
				<ele>1033.6</ele>
				<time>2013-08-14T07:38:22Z</time>
				<hdop>6.0</hdop>
			</trkpt>
			<trkpt lat="46.88636207" lon="6.69956126">
				<ele>1033.8</ele>
				<time>2013-08-14T07:38:23Z</time>
				<hdop>6.0</hdop>
			</trkpt>
			<trkpt lat="46.886362" lon="6.69955844">
				<ele>1033.9</ele>
				<time>2013-08-14T07:38:24Z</time>
				<hdop>6.0</hdop>
			</trkpt>
			<trkpt lat="46.88636271" lon="6.69955294">
				<ele>1033.9</ele>
				<time>2013-08-14T07:38:25Z</time>
				<hdop>4.0</hdop>
			</trkpt>
			<trkpt lat="46.88636642" lon="6.69953645">
				<ele>1034.3</ele>
				<time>2013-08-14T07:38:26Z</time>
				<hdop>4.0</hdop>
			</trkpt>
			<trkpt lat="46.8863647" lon="6.69950754">
				<ele>1034.6</ele>
				<time>2013-08-14T07:38:27Z</time>
				<hdop>4.0</hdop>
			</trkpt>
			<trkpt lat="46.88635568" lon="6.69948006">
				<ele>1035.3</ele>
				<time>2013-08-14T07:38:28Z</time>
				<hdop>4.0</hdop>
			</trkpt>
			<trkpt lat="46.88636713" lon="6.69943732">
				<ele>1035.6</ele>
				<time>2013-08-14T07:38:29Z</time>
				<hdop>4.0</hdop>
			</trkpt>
			<trkpt lat="46.88636925" lon="6.69939013">
				<ele>1035.8</ele>
				<time>2013-08-14T07:38:30Z</time>
				<hdop>4.0</hdop>
			</trkpt>
			<trkpt lat="46.88637466" lon="6.69936283">
				<ele>1036.3</ele>
				<time>2013-08-14T07:38:31Z</time>
				<hdop>4.0</hdop>
			</trkpt>
			<trkpt lat="46.88637385" lon="6.69931903">
				<ele>1037.1</ele>
				<time>2013-08-14T07:38:32Z</time>
				<hdop>4.0</hdop>
			</trkpt>
			<trkpt lat="46.88637785" lon="6.69928574">
				<ele>1037.8</ele>
				<time>2013-08-14T07:38:33Z</time>
				<hdop>4.0</hdop>
			</trkpt>
			<trkpt lat="46.88638051" lon="6.699257">
				<ele>1037.5</ele>
				<time>2013-08-14T07:38:34Z</time>
				<hdop>4.0</hdop>
			</trkpt>
			<trkpt lat="46.88639467" lon="6.69923673">
				<ele>1037.7</ele>
				<time>2013-08-14T07:38:35Z</time>
				<hdop>3.0</hdop>
			</trkpt>
			<trkpt lat="46.88639159" lon="6.69922326">
				<ele>1038.7</ele>
				<time>2013-08-14T07:38:36Z</time>
				<hdop>4.0</hdop>
			</trkpt>
			<trkpt lat="46.88639513" lon="6.69922097">
				<ele>1038.9</ele>
				<time>2013-08-14T07:38:37Z</time>
				<hdop>4.0</hdop>
			</trkpt>
			<trkpt lat="46.88639308" lon="6.69922267">
				<ele>1038.8</ele>
				<time>2013-08-14T07:38:38Z</time>
				<hdop>3.0</hdop>
			</trkpt>
			<trkpt lat="46.88639249" lon="6.69922216">
				<ele>1039.0</ele>
				<time>2013-08-14T07:38:39Z</time>
				<hdop>3.0</hdop>
			</trkpt>
			<trkpt lat="46.8863933" lon="6.69922232">
				<ele>1039.5</ele>
				<time>2013-08-14T07:38:40Z</time>
				<hdop>4.0</hdop>
			</trkpt>
			<trkpt lat="46.88639191" lon="6.69922215">
				<ele>1039.8</ele>
				<time>2013-08-14T07:38:41Z</time>
				<hdop>4.0</hdop>
			</trkpt>
			<trkpt lat="46.88639306" lon="6.6992169">
				<ele>1039.9</ele>
				<time>2013-08-14T07:38:42Z</time>
				<hdop>4.0</hdop>
			</trkpt>
			<trkpt lat="46.88640507" lon="6.69921385">
				<ele>1040.2</ele>
				<time>2013-08-14T07:38:43Z</time>
				<hdop>4.0</hdop>
			</trkpt>
			<trkpt lat="46.88640335" lon="6.69920855">
				<ele>1039.9</ele>
				<time>2013-08-14T07:38:44Z</time>
				<hdop>4.0</hdop>
			</trkpt>
			<trkpt lat="46.88640514" lon="6.69920714">
				<ele>1039.9</ele>
				<time>2013-08-14T07:38:45Z</time>
				<hdop>4.0</hdop>
			</trkpt>
			<trkpt lat="46.88640542" lon="6.6991928">
				<ele>1040.3</ele>
				<time>2013-08-14T07:38:46Z</time>
				<hdop>4.0</hdop>
			</trkpt>
			<trkpt lat="46.88639386" lon="6.69919271">
				<ele>1040.2</ele>
				<time>2013-08-14T07:38:47Z</time>
				<hdop>6.0</hdop>
			</trkpt>
			<trkpt lat="46.88638453" lon="6.69917491">
				<ele>1040.6</ele>
				<time>2013-08-14T07:38:48Z</time>
				<hdop>6.0</hdop>
			</trkpt>
			<trkpt lat="46.88638475" lon="6.69914424">
				<ele>1040.4</ele>
				<time>2013-08-14T07:38:49Z</time>
				<hdop>6.0</hdop>
			</trkpt>
			<trkpt lat="46.88639508" lon="6.69911507">
				<ele>1039.9</ele>
				<time>2013-08-14T07:38:50Z</time>
				<hdop>6.0</hdop>
			</trkpt>
			<trkpt lat="46.88639332" lon="6.6990954">
				<ele>1039.6</ele>
				<time>2013-08-14T07:38:51Z</time>
				<hdop>6.0</hdop>
			</trkpt>
			<trkpt lat="46.88636764" lon="6.69909267">
				<ele>1039.6</ele>
				<time>2013-08-14T07:38:52Z</time>
				<hdop>6.0</hdop>
			</trkpt>
			<trkpt lat="46.8863659" lon="6.69905465">
				<ele>1040.3</ele>
				<time>2013-08-14T07:38:53Z</time>
				<hdop>6.0</hdop>
			</trkpt>
			<trkpt lat="46.88637085" lon="6.69902847">
				<ele>1040.3</ele>
				<time>2013-08-14T07:38:54Z</time>
				<hdop>6.0</hdop>
			</trkpt>
			<trkpt lat="46.88635924" lon="6.69900869">
				<ele>1040.2</ele>
				<time>2013-08-14T07:38:55Z</time>
				<hdop>6.0</hdop>
			</trkpt>
			<trkpt lat="46.8863203" lon="6.69901457">
				<ele>1040.2</ele>
				<time>2013-08-14T07:38:56Z</time>
				<hdop>6.0</hdop>
			</trkpt>
			<trkpt lat="46.88631458" lon="6.69899106">
				<ele>1040.4</ele>
				<time>2013-08-14T07:38:57Z</time>
				<hdop>6.0</hdop>
			</trkpt>
			<trkpt lat="46.88630077" lon="6.6989444">
				<ele>1040.5</ele>
				<time>2013-08-14T07:38:58Z</time>
				<hdop>6.0</hdop>
			</trkpt>
			<trkpt lat="46.88628962" lon="6.69891856">
				<ele>1040.5</ele>
				<time>2013-08-14T07:38:59Z</time>
				<hdop>6.0</hdop>
			</trkpt>
			<trkpt lat="46.88626793" lon="6.69888372">
				<ele>1041.6</ele>
				<time>2013-08-14T07:39:00Z</time>
				<hdop>6.0</hdop>
			</trkpt>
			<trkpt lat="46.88625346" lon="6.69887097">
				<ele>1041.0</ele>
				<time>2013-08-14T07:39:01Z</time>
				<hdop>6.0</hdop>
			</trkpt>
			<trkpt lat="46.88624821" lon="6.69886387">
				<ele>1039.6</ele>
				<time>2013-08-14T07:39:02Z</time>
				<hdop>6.0</hdop>
			</trkpt>
			<trkpt lat="46.88624245" lon="6.69886838">
				<ele>1039.0</ele>
				<time>2013-08-14T07:39:03Z</time>
				<hdop>6.0</hdop>
			</trkpt>
			<trkpt lat="46.88625212" lon="6.69884537">
				<ele>1039.6</ele>
				<time>2013-08-14T07:39:04Z</time>
				<hdop>6.0</hdop>
			</trkpt>
			<trkpt lat="46.8862403" lon="6.69885106">
				<ele>1039.9</ele>
				<time>2013-08-14T07:39:05Z</time>
				<hdop>4.0</hdop>
			</trkpt>
			<trkpt lat="46.88623558" lon="6.69883849">
				<ele>1039.7</ele>
				<time>2013-08-14T07:39:06Z</time>
				<hdop>4.0</hdop>
			</trkpt>
			<trkpt lat="46.88623786" lon="6.6988313">
				<ele>1039.6</ele>
				<time>2013-08-14T07:39:07Z</time>
				<hdop>4.0</hdop>
			</trkpt>
			<trkpt lat="46.88623425" lon="6.69882881">
				<ele>1039.5</ele>
				<time>2013-08-14T07:39:08Z</time>
				<hdop>4.0</hdop>
			</trkpt>
			<trkpt lat="46.88624194" lon="6.6988173">
				<ele>1039.1</ele>
				<time>2013-08-14T07:39:09Z</time>
				<hdop>4.0</hdop>
			</trkpt>
			<trkpt lat="46.88623233" lon="6.69881185">
				<ele>1039.2</ele>
				<time>2013-08-14T07:39:10Z</time>
				<hdop>4.0</hdop>
			</trkpt>
			<trkpt lat="46.88622397" lon="6.6988136">
				<ele>1038.9</ele>
				<time>2013-08-14T07:39:11Z</time>
				<hdop>4.0</hdop>
			</trkpt>
			<trkpt lat="46.88623109" lon="6.69879728">
				<ele>1038.7</ele>
				<time>2013-08-14T07:39:12Z</time>
				<hdop>4.0</hdop>
			</trkpt>
			<trkpt lat="46.88622737" lon="6.69879946">
				<ele>1038.4</ele>
				<time>2013-08-14T07:39:13Z</time>
				<hdop>3.0</hdop>
			</trkpt>
			<trkpt lat="46.88622721" lon="6.69878335">
				<ele>1037.7</ele>
				<time>2013-08-14T07:39:14Z</time>
				<hdop>3.0</hdop>
			</trkpt>
			<trkpt lat="46.88622749" lon="6.6987722">
				<ele>1037.3</ele>
				<time>2013-08-14T07:39:15Z</time>
				<hdop>3.0</hdop>
			</trkpt>
			<trkpt lat="46.88622795" lon="6.69876852">
				<ele>1037.2</ele>
				<time>2013-08-14T07:39:16Z</time>
				<hdop>3.0</hdop>
			</trkpt>
			<trkpt lat="46.88622552" lon="6.69876887">
				<ele>1037.3</ele>
				<time>2013-08-14T07:39:17Z</time>
				<hdop>3.0</hdop>
			</trkpt>
			<trkpt lat="46.88622588" lon="6.69876798">
				<ele>1037.2</ele>
				<time>2013-08-14T07:39:18Z</time>
				<hdop>3.0</hdop>
			</trkpt>
			<trkpt lat="46.88622688" lon="6.69876679">
				<ele>1037.2</ele>
				<time>2013-08-14T07:39:19Z</time>
				<hdop>3.0</hdop>
			</trkpt>
			<trkpt lat="46.88622421" lon="6.69877048">
				<ele>1037.6</ele>
				<time>2013-08-14T07:39:20Z</time>
				<hdop>3.0</hdop>
			</trkpt>
			<trkpt lat="46.88622497" lon="6.69876871">
				<ele>1037.5</ele>
				<time>2013-08-14T07:39:21Z</time>
				<hdop>3.0</hdop>
			</trkpt>
			<trkpt lat="46.88622252" lon="6.69876404">
				<ele>1037.5</ele>
				<time>2013-08-14T07:39:22Z</time>
				<hdop>3.0</hdop>
			</trkpt>
			<trkpt lat="46.88620583" lon="6.69869674">
				<ele>1037.1</ele>
				<time>2013-08-14T07:39:23Z</time>
				<hdop>3.0</hdop>
			</trkpt>
			<trkpt lat="46.88618063" lon="6.69866313">
				<ele>1035.9</ele>
				<time>2013-08-14T07:39:24Z</time>
				<hdop>3.0</hdop>
			</trkpt>
			<trkpt lat="46.8861847" lon="6.69864159">
				<ele>1035.8</ele>
				<time>2013-08-14T07:39:25Z</time>
				<hdop>3.0</hdop>
			</trkpt>
			<trkpt lat="46.88618574" lon="6.69862667">
				<ele>1036.1</ele>
				<time>2013-08-14T07:39:26Z</time>
				<hdop>3.0</hdop>
			</trkpt>
			<trkpt lat="46.88617988" lon="6.69861481">
				<ele>1035.7</ele>
				<time>2013-08-14T07:39:27Z</time>
				<hdop>3.0</hdop>
			</trkpt>
			<trkpt lat="46.88617924" lon="6.69860898">
				<ele>1035.6</ele>
				<time>2013-08-14T07:39:28Z</time>
				<hdop>3.0</hdop>
			</trkpt>
			<trkpt lat="46.88617527" lon="6.69860285">
				<ele>1035.3</ele>
				<time>2013-08-14T07:39:29Z</time>
				<hdop>3.0</hdop>
			</trkpt>
			<trkpt lat="46.88616824" lon="6.69859494">
				<ele>1034.9</ele>
				<time>2013-08-14T07:39:30Z</time>
				<hdop>3.0</hdop>
			</trkpt>
			<trkpt lat="46.88616221" lon="6.6985877">
				<ele>1035.0</ele>
				<time>2013-08-14T07:39:31Z</time>
				<hdop>3.0</hdop>
			</trkpt>
			<trkpt lat="46.88616113" lon="6.69857489">
				<ele>1035.4</ele>
				<time>2013-08-14T07:39:32Z</time>
				<hdop>3.0</hdop>
			</trkpt>
			<trkpt lat="46.88615958" lon="6.6985718">
				<ele>1035.5</ele>
				<time>2013-08-14T07:39:33Z</time>
				<hdop>3.0</hdop>
			</trkpt>
			<trkpt lat="46.88615814" lon="6.69857247">
				<ele>1035.8</ele>
				<time>2013-08-14T07:39:34Z</time>
				<hdop>3.0</hdop>
			</trkpt>
			<trkpt lat="46.88615873" lon="6.69857209">
				<ele>1035.8</ele>
				<time>2013-08-14T07:39:35Z</time>
				<hdop>3.0</hdop>
			</trkpt>
			<trkpt lat="46.88615802" lon="6.69857342">
				<ele>1036.0</ele>
				<time>2013-08-14T07:39:36Z</time>
				<hdop>3.0</hdop>
			</trkpt>
			<trkpt lat="46.88615771" lon="6.69857437">
				<ele>1036.1</ele>
				<time>2013-08-14T07:39:37Z</time>
				<hdop>3.0</hdop>
			</trkpt>
			<trkpt lat="46.88615815" lon="6.6985744">
				<ele>1036.2</ele>
				<time>2013-08-14T07:39:38Z</time>
				<hdop>3.0</hdop>
			</trkpt>
			<trkpt lat="46.88615774" lon="6.69857529">
				<ele>1036.3</ele>
				<time>2013-08-14T07:39:39Z</time>
				<hdop>3.0</hdop>
			</trkpt>
			<trkpt lat="46.88615781" lon="6.69857515">
				<ele>1036.3</ele>
				<time>2013-08-14T07:39:40Z</time>
				<hdop>3.0</hdop>
			</trkpt>
			<trkpt lat="46.88615809" lon="6.69857457">
				<ele>1036.3</ele>
				<time>2013-08-14T07:39:41Z</time>
				<hdop>3.0</hdop>
			</trkpt>
			<trkpt lat="46.88615833" lon="6.6985743">
				<ele>1036.3</ele>
				<time>2013-08-14T07:39:42Z</time>
				<hdop>3.0</hdop>
			</trkpt>
			<trkpt lat="46.88615785" lon="6.6985748">
				<ele>1036.4</ele>
				<time>2013-08-14T07:39:43Z</time>
				<hdop>3.0</hdop>
			</trkpt>
			<trkpt lat="46.88615772" lon="6.69857494">
				<ele>1036.4</ele>
				<time>2013-08-14T07:39:44Z</time>
				<hdop>3.0</hdop>
			</trkpt>
			<trkpt lat="46.88615724" lon="6.69857575">
				<ele>1036.5</ele>
				<time>2013-08-14T07:39:45Z</time>
				<hdop>3.0</hdop>
			</trkpt>
			<trkpt lat="46.88615725" lon="6.6985757">
				<ele>1036.5</ele>
				<time>2013-08-14T07:39:46Z</time>
				<hdop>3.0</hdop>
			</trkpt>
			<trkpt lat="46.88615718" lon="6.69857598">
				<ele>1036.5</ele>
				<time>2013-08-14T07:39:47Z</time>
				<hdop>3.0</hdop>
			</trkpt>
			<trkpt lat="46.88615724" lon="6.69857589">
				<ele>1036.5</ele>
				<time>2013-08-14T07:39:48Z</time>
				<hdop>3.0</hdop>
			</trkpt>
			<trkpt lat="46.88615693" lon="6.69857597">
				<ele>1036.5</ele>
				<time>2013-08-14T07:39:49Z</time>
				<hdop>3.0</hdop>
			</trkpt>
			<trkpt lat="46.88615686" lon="6.69857615">
				<ele>1036.5</ele>
				<time>2013-08-14T07:39:50Z</time>
				<hdop>3.0</hdop>
			</trkpt>
			<trkpt lat="46.88615565" lon="6.69857246">
				<ele>1036.5</ele>
				<time>2013-08-14T07:39:51Z</time>
				<hdop>3.0</hdop>
			</trkpt>
			<trkpt lat="46.88612202" lon="6.69853991">
				<ele>1036.2</ele>
				<time>2013-08-14T07:39:52Z</time>
				<hdop>3.0</hdop>
			</trkpt>
			<trkpt lat="46.8860899" lon="6.69848643">
				<ele>1036.3</ele>
				<time>2013-08-14T07:39:53Z</time>
				<hdop>3.0</hdop>
			</trkpt>
			<trkpt lat="46.88607844" lon="6.69844555">
				<ele>1037.4</ele>
				<time>2013-08-14T07:39:54Z</time>
				<hdop>3.0</hdop>
			</trkpt>
			<trkpt lat="46.88605201" lon="6.69842206">
				<ele>1037.4</ele>
				<time>2013-08-14T07:39:55Z</time>
				<hdop>3.0</hdop>
			</trkpt>
			<trkpt lat="46.8860259" lon="6.69839519">
				<ele>1037.2</ele>
				<time>2013-08-14T07:39:56Z</time>
				<hdop>3.0</hdop>
			</trkpt>
			<trkpt lat="46.88601448" lon="6.69836414">
				<ele>1037.9</ele>
				<time>2013-08-14T07:39:57Z</time>
				<hdop>3.0</hdop>
			</trkpt>
			<trkpt lat="46.88599823" lon="6.69831274">
				<ele>1037.6</ele>
				<time>2013-08-14T07:39:58Z</time>
				<hdop>3.0</hdop>
			</trkpt>
			<trkpt lat="46.8859882" lon="6.69825648">
				<ele>1035.7</ele>
				<time>2013-08-14T07:39:59Z</time>
				<hdop>3.0</hdop>
			</trkpt>
			<trkpt lat="46.88598859" lon="6.69818929">
				<ele>1035.4</ele>
				<time>2013-08-14T07:40:00Z</time>
				<hdop>3.0</hdop>
			</trkpt>
			<trkpt lat="46.88598747" lon="6.69815863">
				<ele>1035.9</ele>
				<time>2013-08-14T07:40:01Z</time>
				<hdop>3.0</hdop>
			</trkpt>
			<trkpt lat="46.88598757" lon="6.69814363">
				<ele>1036.0</ele>
				<time>2013-08-14T07:40:02Z</time>
				<hdop>3.0</hdop>
			</trkpt>
			<trkpt lat="46.88598558" lon="6.69812959">
				<ele>1036.2</ele>
				<time>2013-08-14T07:40:03Z</time>
				<hdop>3.0</hdop>
			</trkpt>
			<trkpt lat="46.88598759" lon="6.69811165">
				<ele>1036.8</ele>
				<time>2013-08-14T07:40:04Z</time>
				<hdop>3.0</hdop>
			</trkpt>
			<trkpt lat="46.88598861" lon="6.69810191">
				<ele>1037.0</ele>
				<time>2013-08-14T07:40:05Z</time>
				<hdop>3.0</hdop>
			</trkpt>
			<trkpt lat="46.88599229" lon="6.69809389">
				<ele>1037.3</ele>
				<time>2013-08-14T07:40:06Z</time>
				<hdop>3.0</hdop>
			</trkpt>
			<trkpt lat="46.88599614" lon="6.69808033">
				<ele>1036.9</ele>
				<time>2013-08-14T07:40:07Z</time>
				<hdop>3.0</hdop>
			</trkpt>
			<trkpt lat="46.88599513" lon="6.69806808">
				<ele>1036.5</ele>
				<time>2013-08-14T07:40:08Z</time>
				<hdop>3.0</hdop>
			</trkpt>
			<trkpt lat="46.88599281" lon="6.69805498">
				<ele>1037.2</ele>
				<time>2013-08-14T07:40:09Z</time>
				<hdop>3.0</hdop>
			</trkpt>
			<trkpt lat="46.88599392" lon="6.69804943">
				<ele>1037.2</ele>
				<time>2013-08-14T07:40:10Z</time>
				<hdop>3.0</hdop>
			</trkpt>
			<trkpt lat="46.88599246" lon="6.69804652">
				<ele>1037.3</ele>
				<time>2013-08-14T07:40:11Z</time>
				<hdop>3.0</hdop>
			</trkpt>
			<trkpt lat="46.88599068" lon="6.69804911">
				<ele>1037.4</ele>
				<time>2013-08-14T07:40:12Z</time>
				<hdop>3.0</hdop>
			</trkpt>
			<trkpt lat="46.88598987" lon="6.69804844">
				<ele>1037.4</ele>
				<time>2013-08-14T07:40:13Z</time>
				<hdop>3.0</hdop>
			</trkpt>
			<trkpt lat="46.88598713" lon="6.69805258">
				<ele>1037.9</ele>
				<time>2013-08-14T07:40:14Z</time>
				<hdop>3.0</hdop>
			</trkpt>
			<trkpt lat="46.88598419" lon="6.69804833">
				<ele>1038.0</ele>
				<time>2013-08-14T07:40:15Z</time>
				<hdop>3.0</hdop>
			</trkpt>
			<trkpt lat="46.8859764" lon="6.69801636">
				<ele>1037.6</ele>
				<time>2013-08-14T07:40:16Z</time>
				<hdop>3.0</hdop>
			</trkpt>
			<trkpt lat="46.88596598" lon="6.69799089">
				<ele>1038.1</ele>
				<time>2013-08-14T07:40:17Z</time>
				<hdop>3.0</hdop>
			</trkpt>
			<trkpt lat="46.88595961" lon="6.69798435">
				<ele>1038.5</ele>
				<time>2013-08-14T07:40:18Z</time>
				<hdop>3.0</hdop>
			</trkpt>
			<trkpt lat="46.88595763" lon="6.69796542">
				<ele>1038.5</ele>
				<time>2013-08-14T07:40:19Z</time>
				<hdop>3.0</hdop>
			</trkpt>
			<trkpt lat="46.88595421" lon="6.69796347">
				<ele>1038.4</ele>
				<time>2013-08-14T07:40:20Z</time>
				<hdop>3.0</hdop>
			</trkpt>
			<trkpt lat="46.8859503" lon="6.69794965">
				<ele>1038.4</ele>
				<time>2013-08-14T07:40:21Z</time>
				<hdop>3.0</hdop>
			</trkpt>
			<trkpt lat="46.88595082" lon="6.69794048">
				<ele>1038.6</ele>
				<time>2013-08-14T07:40:22Z</time>
				<hdop>3.0</hdop>
			</trkpt>
			<trkpt lat="46.88594465" lon="6.69792617">
				<ele>1038.6</ele>
				<time>2013-08-14T07:40:23Z</time>
				<hdop>3.0</hdop>
			</trkpt>
			<trkpt lat="46.88594048" lon="6.69791491">
				<ele>1038.6</ele>
				<time>2013-08-14T07:40:24Z</time>
				<hdop>3.0</hdop>
			</trkpt>
			<trkpt lat="46.88593755" lon="6.69790537">
				<ele>1038.8</ele>
				<time>2013-08-14T07:40:25Z</time>
				<hdop>3.0</hdop>
			</trkpt>
			<trkpt lat="46.8859365" lon="6.69790273">
				<ele>1038.8</ele>
				<time>2013-08-14T07:40:26Z</time>
				<hdop>3.0</hdop>
			</trkpt>
			<trkpt lat="46.88593683" lon="6.6978997">
				<ele>1038.8</ele>
				<time>2013-08-14T07:40:27Z</time>
				<hdop>3.0</hdop>
			</trkpt>
			<trkpt lat="46.8859365" lon="6.69789859">
				<ele>1038.9</ele>
				<time>2013-08-14T07:40:28Z</time>
				<hdop>3.0</hdop>
			</trkpt>
			<trkpt lat="46.88593612" lon="6.69789916">
				<ele>1038.9</ele>
				<time>2013-08-14T07:40:29Z</time>
				<hdop>3.0</hdop>
			</trkpt>
			<trkpt lat="46.88593703" lon="6.69789564">
				<ele>1038.5</ele>
				<time>2013-08-14T07:40:30Z</time>
				<hdop>3.0</hdop>
			</trkpt>
			<trkpt lat="46.88593602" lon="6.69789613">
				<ele>1038.6</ele>
				<time>2013-08-14T07:40:31Z</time>
				<hdop>3.0</hdop>
			</trkpt>
			<trkpt lat="46.88593577" lon="6.69789685">
				<ele>1038.6</ele>
				<time>2013-08-14T07:4